<?xml version='1.0' encoding='UTF-8'?><gpx version="1.1" creator="JPX - https://github.com/jenetics/jpx" xmlns="http://www.topografix.com/GPX/1/1"><trk><trkseg><trkpt lat="43.893294" lon="8.0459802"><ele>63.0</ele><time>2026-04-30T12:44:50.138Z</time></trkpt><trkpt lat="43.8932916" lon="8.0460769"><ele>63.0</ele><time>2026-04-30T12:46:06.774Z</time></trkpt><trkpt lat="43.8932196" lon="8.0461724"><ele>63.0</ele><time>2026-04-30T12:46:09.633Z</time></trkpt><trkpt lat="43.8931855" lon="8.0462706"><ele>63.0</ele><time>2026-04-30T12:46:10.701Z</time></trkpt><trkpt lat="43.8931716" lon="8.0463682"><ele>63.0</ele><time>2026-04-30T12:46:11.708Z</time></trkpt><trkpt lat="43.8931524" lon="8.0465207"><ele>63.0</ele><time>2026-04-30T12:46:13.637Z</time></trkpt><trkpt lat="43.8931806" lon="8.0466639"><ele>61.25</ele><time>2026-04-30T12:46:16.775Z</time></trkpt><trkpt lat="43.8933026" lon="8.0467054"><ele>59.5</ele><time>2026-04-30T12:46:18.759Z</time></trkpt><trkpt lat="43.8933773" lon="8.0467876"><ele>57.75</ele><time>2026-04-30T12:46:20.642Z</time></trkpt><trkpt lat="43.8932829" lon="8.046698"><ele>56.0</ele><time>2026-04-30T12:46:32.39Z</time></trkpt><trkpt lat="43.8931747" lon="8.0466409"><ele>57.16666666666667</ele><time>2026-04-30T12:46:34.636Z</time></trkpt><trkpt lat="43.8931691" lon="8.0465353"><ele>58.333333333333336</ele><time>2026-04-30T12:46:37.464Z</time></trkpt><trkpt lat="43.8932111" lon="8.0463734"><ele>59.5</ele><time>2026-04-30T12:46:39.469Z</time></trkpt><trkpt lat="43.8932254" lon="8.0462817"><ele>60.66666666666667</ele><time>2026-04-30T12:46:40.491Z</time></trkpt><trkpt lat="43.8932703" lon="8.0461595"><ele>61.833333333333336</ele><time>2026-04-30T12:46:42.553Z</time></trkpt><trkpt lat="43.8933206" lon="8.0460912"><ele>63.0</ele><time>2026-04-30T12:46:44.574Z</time></trkpt><trkpt lat="43.8933211" lon="8.045991"><ele>63.0</ele><time>2026-04-30T12:46:46.669Z</time></trkpt><trkpt lat="43.8933187" lon="8.0461061"><ele>63.0</ele><time>2026-04-30T12:46:56.651Z</time></trkpt><trkpt lat="43.8932538" lon="8.0462332"><ele>63.0</ele><time>2026-04-30T12:46:58.614Z</time></trkpt><trkpt lat="43.8932069" lon="8.0463442"><ele>63.0</ele><time>2026-04-30T12:46:59.557Z</time></trkpt><trkpt lat="43.8931819" lon="8.0464445"><ele>63.0</ele><time>2026-04-30T12:47:00.662Z</time></trkpt><trkpt lat="43.8931661" lon="8.0465328"><ele>63.0</ele><time>2026-04-30T12:47:01.811Z</time></trkpt><trkpt lat="43.8931654" lon="8.0466649"><ele>61.25</ele><time>2026-04-30T12:47:06.301Z</time></trkpt><trkpt lat="43.8933069" lon="8.0467339"><ele>59.5</ele><time>2026-04-30T12:47:07.579Z</time></trkpt><trkpt lat="43.8933953" lon="8.0468061"><ele>57.75</ele><time>2026-04-30T12:47:08.879Z</time></trkpt><trkpt lat="43.893497" lon="8.0469723"><ele>56.0</ele><time>2026-04-30T12:47:10.779Z</time></trkpt><trkpt lat="43.8935132" lon="8.0471572"><ele>59.5</ele><time>2026-04-30T12:47:12.725Z</time></trkpt><trkpt lat="43.8935255" lon="8.0472868"><ele>63.0</ele><time>2026-04-30T12:47:14.634Z</time></trkpt><trkpt lat="43.8935232" lon="8.0475376"><ele>66.5</ele><time>2026-04-30T12:47:17.895Z</time></trkpt><trkpt lat="43.8935292" lon="8.0476441"><ele>70.0</ele><time>2026-04-30T12:47:19.584Z</time></trkpt><trkpt lat="43.8935883" lon="8.0478371"><ele>70.0</ele><time>2026-04-30T12:47:22.662Z</time></trkpt><trkpt lat="43.8936671" lon="8.0479916"><ele>70.0</ele><time>2026-04-30T12:47:24.828Z</time></trkpt><trkpt lat="43.8937276" lon="8.0480726"><ele>70.0</ele><time>2026-04-30T12:47:25.99Z</time></trkpt><trkpt lat="43.893863" lon="8.0481865"><ele>70.0</ele><time>2026-04-30T12:47:27.797Z</time></trkpt><trkpt lat="43.8939386" lon="8.0482465"><ele>68.0</ele><time>2026-04-30T12:47:28.911Z</time></trkpt><trkpt lat="43.8940579" lon="8.0483483"><ele>66.0</ele><time>2026-04-30T12:47:30.488Z</time></trkpt><trkpt lat="43.894134" lon="8.0484144"><ele>64.0</ele><time>2026-04-30T12:47:31.582Z</time></trkpt><trkpt lat="43.8942477" lon="8.0485172"><ele>62.0</ele><time>2026-04-30T12:47:33.51Z</time></trkpt><trkpt lat="43.8943689" lon="8.0486981"><ele>62.0</ele><time>2026-04-30T12:47:36.515Z</time></trkpt><trkpt lat="43.8944257" lon="8.0488272"><ele>62.0</ele><time>2026-04-30T12:47:38.519Z</time></trkpt><trkpt lat="43.8945132" lon="8.0489056"><ele>62.0</ele><time>2026-04-30T12:47:40.557Z</time></trkpt><trkpt lat="43.894659" lon="8.0490288"><ele>62.0</ele><time>2026-04-30T12:47:43.604Z</time></trkpt><trkpt lat="43.894716" lon="8.0491677"><ele>60.00000000000001</ele><time>2026-04-30T12:47:45.542Z</time></trkpt><trkpt lat="43.8947309" lon="8.0492665"><ele>58.0</ele><time>2026-04-30T12:47:46.798Z</time></trkpt><trkpt lat="43.8947248" lon="8.0494303"><ele>56.0</ele><time>2026-04-30T12:47:48.516Z</time></trkpt><trkpt lat="43.8947084" lon="8.0495301"><ele>54.0</ele><time>2026-04-30T12:47:49.588Z</time></trkpt><trkpt lat="43.894669" lon="8.0496752"><ele>52.00000000000001</ele><time>2026-04-30T12:47:51.349Z</time></trkpt><trkpt lat="43.8946329" lon="8.0497563"><ele>50.0</ele><time>2026-04-30T12:47:52.594Z</time></trkpt><trkpt lat="43.8945569" lon="8.0498659"><ele>50.00000000000001</ele><time>2026-04-30T12:47:54.525Z</time></trkpt><trkpt lat="43.8944646" lon="8.0499076"><ele>50.0</ele><time>2026-04-30T12:47:56.61Z</time></trkpt><trkpt lat="43.8943821" lon="8.0498814"><ele>50.0</ele><time>2026-04-30T12:47:58.487Z</time></trkpt><trkpt lat="43.8943164" lon="8.0498324"><ele>50.0</ele><time>2026-04-30T12:47:59.503Z</time></trkpt><trkpt lat="43.8942255" lon="8.0497832"><ele>50.00000000000001</ele><time>2026-04-30T12:48:00.593Z</time></trkpt><trkpt lat="43.8941365" lon="8.049771"><ele>50.0</ele><time>2026-04-30T12:48:01.511Z</time></trkpt><trkpt lat="43.8940384" lon="8.049765"><ele>48.4</ele><time>2026-04-30T12:48:02.615Z</time></trkpt><trkpt lat="43.8939562" lon="8.0497345"><ele>46.8</ele><time>2026-04-30T12:48:03.516Z</time></trkpt><trkpt lat="43.8938664" lon="8.0496665"><ele>45.2</ele><time>2026-04-30T12:48:04.57Z</time></trkpt><trkpt lat="43.8937923" lon="8.049595"><ele>43.6</ele><time>2026-04-30T12:48:05.662Z</time></trkpt><trkpt lat="43.8936849" lon="8.049504"><ele>42.0</ele><time>2026-04-30T12:48:07.559Z</time></trkpt><trkpt lat="43.8935367" lon="8.0493613"><ele>42.0</ele><time>2026-04-30T12:48:10.655Z</time></trkpt><trkpt lat="43.8934829" lon="8.0493062"><ele>42.0</ele><time>2026-04-30T12:48:11.697Z</time></trkpt><trkpt lat="43.8933621" lon="8.0492248"><ele>42.0</ele><time>2026-04-30T12:48:13.699Z</time></trkpt><trkpt lat="43.8932489" lon="8.0491731"><ele>42.0</ele><time>2026-04-30T12:48:15.587Z</time></trkpt><trkpt lat="43.8931912" lon="8.0491354"><ele>42.0</ele><time>2026-04-30T12:48:16.587Z</time></trkpt><trkpt lat="43.8931214" lon="8.049088"><ele>41.4</ele><time>2026-04-30T12:48:17.744Z</time></trkpt><trkpt lat="43.8930001" lon="8.0490073"><ele>40.800000000000004</ele><time>2026-04-30T12:48:19.645Z</time></trkpt><trkpt lat="43.892932" lon="8.0489589"><ele>40.2</ele><time>2026-04-30T12:48:20.641Z</time></trkpt><trkpt lat="43.8928645" lon="8.0489129"><ele>39.6</ele><time>2026-04-30T12:48:21.614Z</time></trkpt><trkpt lat="43.8927966" lon="8.0488639"><ele>39.0</ele><time>2026-04-30T12:48:22.632Z</time></trkpt><trkpt lat="43.8927142" lon="8.0488098"><ele>37.0</ele><time>2026-04-30T12:48:23.859Z</time></trkpt><trkpt lat="43.8925867" lon="8.0487006"><ele>35.0</ele><time>2026-04-30T12:48:25.737Z</time></trkpt><trkpt lat="43.8924597" lon="8.0485981"><ele>33.0</ele><time>2026-04-30T12:48:27.817Z</time></trkpt><trkpt lat="43.8923504" lon="8.0484792"><ele>31.0</ele><time>2026-04-30T12:48:29.897Z</time></trkpt><trkpt lat="43.8922789" lon="8.0483239"><ele>31.5</ele><time>2026-04-30T12:48:31.854Z</time></trkpt><trkpt lat="43.8922306" lon="8.0481019"><ele>32.0</ele><time>2026-04-30T12:48:34.61Z</time></trkpt><trkpt lat="43.8922354" lon="8.0479291"><ele>32.5</ele><time>2026-04-30T12:48:36.571Z</time></trkpt><trkpt lat="43.8922527" lon="8.0477638"><ele>33.0</ele><time>2026-04-30T12:48:38.577Z</time></trkpt><trkpt lat="43.8922512" lon="8.0476762"><ele>33.0</ele><time>2026-04-30T12:48:39.608Z</time></trkpt><trkpt lat="43.892189" lon="8.0475109"><ele>33.0</ele><time>2026-04-30T12:48:41.639Z</time></trkpt><trkpt lat="43.8921451" lon="8.0474404"><ele>33.0</ele><time>2026-04-30T12:48:42.588Z</time></trkpt><trkpt lat="43.8920874" lon="8.0473811"><ele>33.0</ele><time>2026-04-30T12:48:43.597Z</time></trkpt><trkpt lat="43.8920205" lon="8.0473432"><ele>33.0</ele><time>2026-04-30T12:48:44.584Z</time></trkpt><trkpt lat="43.8919441" lon="8.0473465"><ele>33.0</ele><time>2026-04-30T12:48:45.602Z</time></trkpt><trkpt lat="43.8918521" lon="8.0473597"><ele>32.25</ele><time>2026-04-30T12:48:46.798Z</time></trkpt><trkpt lat="43.891707" lon="8.0473553"><ele>31.5</ele><time>2026-04-30T12:48:48.613Z</time></trkpt><trkpt lat="43.8916182" lon="8.0473235"><ele>30.75</ele><time>2026-04-30T12:48:49.746Z</time></trkpt><trkpt lat="43.8915531" lon="8.0472965"><ele>30.0</ele><time>2026-04-30T12:48:50.647Z</time></trkpt><trkpt lat="43.8913948" lon="8.0472072"><ele>33.0</ele><time>2026-04-30T12:48:52.664Z</time></trkpt><trkpt lat="43.8906513" lon="8.0463787"><ele>33.0</ele><time>2026-04-30T12:49:05.622Z</time></trkpt><trkpt lat="43.8905724" lon="8.0462821"><ele>33.0</ele><time>2026-04-30T12:49:06.842Z</time></trkpt><trkpt lat="43.8903421" lon="8.0460744"><ele>33.0</ele><time>2026-04-30T12:49:08.798Z</time></trkpt><trkpt lat="43.8901023" lon="8.0458417"><ele>33.0</ele><time>2026-04-30T12:49:10.832Z</time></trkpt><trkpt lat="43.8900055" lon="8.0457452"><ele>33.0</ele><time>2026-04-30T12:49:11.731Z</time></trkpt><trkpt lat="43.889897" lon="8.0456346"><ele>33.0</ele><time>2026-04-30T12:49:12.717Z</time></trkpt><trkpt lat="43.8896843" lon="8.0454226"><ele>33.0</ele><time>2026-04-30T12:49:14.791Z</time></trkpt><trkpt lat="43.8895188" lon="8.0452409"><ele>33.0</ele><time>2026-04-30T12:49:16.87Z</time></trkpt><trkpt lat="43.8894531" lon="8.044965"><ele>33.0</ele><time>2026-04-30T12:49:18.803Z</time></trkpt><trkpt lat="43.8894026" lon="8.0446842"><ele>33.5</ele><time>2026-04-30T12:49:20.602Z</time></trkpt><trkpt lat="43.8893865" lon="8.044514"><ele>34.0</ele><time>2026-04-30T12:49:21.65Z</time></trkpt><trkpt lat="43.8893835" lon="8.044354"><ele>34.5</ele><time>2026-04-30T12:49:22.608Z</time></trkpt><trkpt lat="43.889409" lon="8.0441639"><ele>35.0</ele><time>2026-04-30T12:49:23.691Z</time></trkpt><trkpt lat="43.8894474" lon="8.0440061"><ele>32.0</ele><time>2026-04-30T12:49:24.661Z</time></trkpt><trkpt lat="43.8895534" lon="8.0435992"><ele>29.0</ele><time>2026-04-30T12:49:27.563Z</time></trkpt><trkpt lat="43.8895898" lon="8.0434457"><ele>26.0</ele><time>2026-04-30T12:49:28.752Z</time></trkpt><trkpt lat="43.889628" lon="8.0432684"><ele>25.0</ele><time>2026-04-30T12:49:29.899Z</time></trkpt><trkpt lat="43.8896985" lon="8.0429916"><ele>24.0</ele><time>2026-04-30T12:49:31.641Z</time></trkpt><trkpt lat="43.889768" lon="8.0428437"><ele>23.0</ele><time>2026-04-30T12:49:32.727Z</time></trkpt><trkpt lat="43.8899676" lon="8.0426477"><ele>23.0</ele><time>2026-04-30T12:49:34.667Z</time></trkpt><trkpt lat="43.8900502" lon="8.0425855"><ele>23.0</ele><time>2026-04-30T12:49:35.583Z</time></trkpt><trkpt lat="43.8901744" lon="8.0425121"><ele>23.0</ele><time>2026-04-30T12:49:36.857Z</time></trkpt><trkpt lat="43.8904042" lon="8.0424682"><ele>22.5</ele><time>2026-04-30T12:49:38.643Z</time></trkpt><trkpt lat="43.8905279" lon="8.0424292"><ele>22.0</ele><time>2026-04-30T12:49:39.662Z</time></trkpt><trkpt lat="43.8907376" lon="8.0423612"><ele>21.5</ele><time>2026-04-30T12:49:41.703Z</time></trkpt><trkpt lat="43.8908355" lon="8.0423347"><ele>21.0</ele><time>2026-04-30T12:49:42.844Z</time></trkpt><trkpt lat="43.8910079" lon="8.0422572"><ele>21.0</ele><time>2026-04-30T12:49:44.728Z</time></trkpt><trkpt lat="43.8910928" lon="8.0422462"><ele>21.0</ele><time>2026-04-30T12:49:45.675Z</time></trkpt><trkpt lat="43.8912522" lon="8.0421793"><ele>21.0</ele><time>2026-04-30T12:49:47.717Z</time></trkpt><trkpt lat="43.8913326" lon="8.0421295"><ele>21.0</ele><time>2026-04-30T12:49:48.703Z</time></trkpt><trkpt lat="43.8914106" lon="8.042066"><ele>21.0</ele><time>2026-04-30T12:49:49.768Z</time></trkpt><trkpt lat="43.8915608" lon="8.0419197"><ele>21.0</ele><time>2026-04-30T12:49:51.858Z</time></trkpt><trkpt lat="43.8917022" lon="8.0417659"><ele>21.0</ele><time>2026-04-30T12:49:53.972Z</time></trkpt><trkpt lat="43.8917882" lon="8.0416539"><ele>21.0</ele><time>2026-04-30T12:49:55.956Z</time></trkpt><trkpt lat="43.8918458" lon="8.0415779"><ele>21.0</ele><time>2026-04-30T12:49:57.019Z</time></trkpt><trkpt lat="43.8919561" lon="8.0414576"><ele>20.75</ele><time>2026-04-30T12:49:58.864Z</time></trkpt><trkpt lat="43.8920696" lon="8.0413149"><ele>20.5</ele><time>2026-04-30T12:50:00.799Z</time></trkpt><trkpt lat="43.8921441" lon="8.0412387"><ele>20.25</ele><time>2026-04-30T12:50:01.834Z</time></trkpt><trkpt lat="43.8922951" lon="8.0411243"><ele>20.0</ele><time>2026-04-30T12:50:03.52Z</time></trkpt><trkpt lat="43.892401" lon="8.0410702"><ele>20.0</ele><time>2026-04-30T12:50:04.553Z</time></trkpt><trkpt lat="43.8925088" lon="8.0410122"><ele>20.0</ele><time>2026-04-30T12:50:05.588Z</time></trkpt><trkpt lat="43.8926177" lon="8.0409608"><ele>20.0</ele><time>2026-04-30T12:50:06.607Z</time></trkpt><trkpt lat="43.8930631" lon="8.0407407"><ele>19.5</ele><time>2026-04-30T12:50:10.745Z</time></trkpt><trkpt lat="43.8932584" lon="8.0406589"><ele>19.0</ele><time>2026-04-30T12:50:12.592Z</time></trkpt><trkpt lat="43.8933442" lon="8.0406181"><ele>18.5</ele><time>2026-04-30T12:50:13.553Z</time></trkpt><trkpt lat="43.8934337" lon="8.0405706"><ele>18.0</ele><time>2026-04-30T12:50:14.646Z</time></trkpt><trkpt lat="43.8935095" lon="8.0405355"><ele>17.75</ele><time>2026-04-30T12:50:15.579Z</time></trkpt><trkpt lat="43.8935987" lon="8.0404858"><ele>17.5</ele><time>2026-04-30T12:50:16.527Z</time></trkpt><trkpt lat="43.893708" lon="8.0404288"><ele>17.25</ele><time>2026-04-30T12:50:17.585Z</time></trkpt><trkpt lat="43.8938554" lon="8.0403423"><ele>17.0</ele><time>2026-04-30T12:50:19.709Z</time></trkpt><trkpt lat="43.8939393" lon="8.0402895"><ele>17.0</ele><time>2026-04-30T12:50:22.603Z</time></trkpt><trkpt lat="43.8940521" lon="8.0402246"><ele>17.0</ele><time>2026-04-30T12:50:24.762Z</time></trkpt><trkpt lat="43.8942271" lon="8.0401368"><ele>17.0</ele><time>2026-04-30T12:50:26.818Z</time></trkpt><trkpt lat="43.8944237" lon="8.0400329"><ele>17.333333333333336</ele><time>2026-04-30T12:50:28.76Z</time></trkpt><trkpt lat="43.8945156" lon="8.0399827"><ele>17.666666666666668</ele><time>2026-04-30T12:50:29.66Z</time></trkpt><trkpt lat="43.8946277" lon="8.0399258"><ele>18.0</ele><time>2026-04-30T12:50:30.731Z</time></trkpt><trkpt lat="43.8948751" lon="8.0398132"><ele>18.666666666666668</ele><time>2026-04-30T12:50:32.783Z</time></trkpt><trkpt lat="43.8951154" lon="8.0396599"><ele>19.333333333333336</ele><time>2026-04-30T12:50:34.76Z</time></trkpt><trkpt lat="43.8952044" lon="8.0395736"><ele>20.0</ele><time>2026-04-30T12:50:35.59Z</time></trkpt><trkpt lat="43.8953192" lon="8.0394302"><ele>20.0</ele><time>2026-04-30T12:50:36.74Z</time></trkpt><trkpt lat="43.8955015" lon="8.0392036"><ele>20.0</ele><time>2026-04-30T12:50:38.606Z</time></trkpt><trkpt lat="43.8956175" lon="8.0390496"><ele>20.0</ele><time>2026-04-30T12:50:39.993Z</time></trkpt><trkpt lat="43.8957551" lon="8.0389151"><ele>19.8</ele><time>2026-04-30T12:50:41.668Z</time></trkpt><trkpt lat="43.8958848" lon="8.0388201"><ele>19.6</ele><time>2026-04-30T12:50:43.588Z</time></trkpt><trkpt lat="43.8959693" lon="8.0388541"><ele>19.4</ele><time>2026-04-30T12:50:45.606Z</time></trkpt><trkpt lat="43.8960347" lon="8.0389024"><ele>19.2</ele><time>2026-04-30T12:50:47.543Z</time></trkpt><trkpt lat="43.8961581" lon="8.0389251"><ele>19.0</ele><time>2026-04-30T12:50:55.518Z</time></trkpt><trkpt lat="43.8962069" lon="8.0388512"><ele>19.0</ele><time>2026-04-30T12:51:02.599Z</time></trkpt><trkpt lat="43.8961416" lon="8.0388726"><ele>19.0</ele><time>2026-04-30T12:51:09.675Z</time></trkpt><trkpt lat="43.8960519" lon="8.0388758"><ele>19.0</ele><time>2026-04-30T12:51:14.729Z</time></trkpt><trkpt lat="43.8961072" lon="8.0388264"><ele>19.0</ele><time>2026-04-30T12:52:10.554Z</time></trkpt><trkpt lat="43.8960594" lon="8.038839"><ele>19.0</ele><time>2026-04-30T12:53:48.572Z</time></trkpt><trkpt lat="43.8961265" lon="8.0386752"><ele>19.0</ele><time>2026-04-30T12:54:07.607Z</time></trkpt><trkpt lat="43.896179" lon="8.0386234"><ele>19.0</ele><time>2026-04-30T12:54:08.634Z</time></trkpt><trkpt lat="43.8962196" lon="8.038545"><ele>19.0</ele><time>2026-04-30T12:54:09.832Z</time></trkpt><trkpt lat="43.8962228" lon="8.038444"><ele>19.0</ele><time>2026-04-30T12:54:11.738Z</time></trkpt><trkpt lat="43.896252" lon="8.038303"><ele>19.0</ele><time>2026-04-30T12:54:14.744Z</time></trkpt><trkpt lat="43.896356" lon="8.0381543"><ele>19.0</ele><time>2026-04-30T12:54:16.46Z</time></trkpt><trkpt lat="43.8964337" lon="8.0380601"><ele>18.8</ele><time>2026-04-30T12:54:17.548Z</time></trkpt><trkpt lat="43.8965036" lon="8.0379734"><ele>18.599999999999998</ele><time>2026-04-30T12:54:18.438Z</time></trkpt><trkpt lat="43.8965848" lon="8.0378719"><ele>18.4</ele><time>2026-04-30T12:54:19.446Z</time></trkpt><trkpt lat="43.8966632" lon="8.0377686"><ele>18.2</ele><time>2026-04-30T12:54:20.477Z</time></trkpt><trkpt lat="43.8967474" lon="8.0376666"><ele>18.0</ele><time>2026-04-30T12:54:21.542Z</time></trkpt><trkpt lat="43.8968206" lon="8.0375796"><ele>18.0</ele><time>2026-04-30T12:54:22.517Z</time></trkpt><trkpt lat="43.8968919" lon="8.0374894"><ele>18.0</ele><time>2026-04-30T12:54:23.53Z</time></trkpt><trkpt lat="43.8969652" lon="8.0373984"><ele>18.0</ele><time>2026-04-30T12:54:24.624Z</time></trkpt><trkpt lat="43.8970272" lon="8.0373232"><ele>18.0</ele><time>2026-04-30T12:54:25.533Z</time></trkpt><trkpt lat="43.8971016" lon="8.0372305"><ele>18.0</ele><time>2026-04-30T12:54:26.634Z</time></trkpt><trkpt lat="43.8971662" lon="8.0371543"><ele>17.833333333333332</ele><time>2026-04-30T12:54:27.63Z</time></trkpt><trkpt lat="43.8972272" lon="8.0370781"><ele>17.666666666666668</ele><time>2026-04-30T12:54:28.664Z</time></trkpt><trkpt lat="43.8972811" lon="8.0370185"><ele>17.5</ele><time>2026-04-30T12:54:29.752Z</time></trkpt><trkpt lat="43.8973375" lon="8.036955"><ele>17.333333333333336</ele><time>2026-04-30T12:54:31.639Z</time></trkpt><trkpt lat="43.8974107" lon="8.0368647"><ele>17.166666666666668</ele><time>2026-04-30T12:54:35.671Z</time></trkpt><trkpt lat="43.8974825" lon="8.0367775"><ele>17.0</ele><time>2026-04-30T12:54:38.516Z</time></trkpt><trkpt lat="43.8975782" lon="8.0367035"><ele>17.0</ele><time>2026-04-30T12:54:40.504Z</time></trkpt><trkpt lat="43.8977197" lon="8.0366722"><ele>17.0</ele><time>2026-04-30T12:54:42.778Z</time></trkpt><trkpt lat="43.89779" lon="8.0365933"><ele>17.0</ele><time>2026-04-30T12:54:43.746Z</time></trkpt><trkpt lat="43.8979889" lon="8.0365594"><ele>17.0</ele><time>2026-04-30T12:54:45.584Z</time></trkpt><trkpt lat="43.8981091" lon="8.0366049"><ele>17.0</ele><time>2026-04-30T12:54:46.901Z</time></trkpt><trkpt lat="43.8982001" lon="8.0367703"><ele>17.0</ele><time>2026-04-30T12:54:48.712Z</time></trkpt><trkpt lat="43.8982515" lon="8.0368814"><ele>17.0</ele><time>2026-04-30T12:54:49.701Z</time></trkpt><trkpt lat="43.8983964" lon="8.0370524"><ele>17.0</ele><time>2026-04-30T12:54:51.748Z</time></trkpt><trkpt lat="43.8984859" lon="8.0370761"><ele>17.75</ele><time>2026-04-30T12:54:52.675Z</time></trkpt><trkpt lat="43.8986824" lon="8.0369553"><ele>18.5</ele><time>2026-04-30T12:54:54.715Z</time></trkpt><trkpt lat="43.8987265" lon="8.0368606"><ele>19.25</ele><time>2026-04-30T12:54:55.715Z</time></trkpt><trkpt lat="43.8987174" lon="8.0367645"><ele>20.0</ele><time>2026-04-30T12:54:56.695Z</time></trkpt><trkpt lat="43.898706" lon="8.0366453"><ele>20.2</ele><time>2026-04-30T12:54:57.641Z</time></trkpt><trkpt lat="43.8986695" lon="8.036518"><ele>20.4</ele><time>2026-04-30T12:54:58.704Z</time></trkpt><trkpt lat="43.898632" lon="8.0364118"><ele>20.6</ele><time>2026-04-30T12:54:59.688Z</time></trkpt><trkpt lat="43.8986219" lon="8.0363138"><ele>20.8</ele><time>2026-04-30T12:55:00.627Z</time></trkpt><trkpt lat="43.8986771" lon="8.0361358"><ele>21.0</ele><time>2026-04-30T12:55:02.507Z</time></trkpt><trkpt lat="43.8987253" lon="8.0360768"><ele>21.0</ele><time>2026-04-30T12:55:03.59Z</time></trkpt><trkpt lat="43.898778" lon="8.0360248"><ele>21.0</ele><time>2026-04-30T12:55:04.538Z</time></trkpt><trkpt lat="43.8988568" lon="8.0359482"><ele>21.0</ele><time>2026-04-30T12:55:05.594Z</time></trkpt><trkpt lat="43.8990199" lon="8.0358086"><ele>21.0</ele><time>2026-04-30T12:55:07.56Z</time></trkpt><trkpt lat="43.8991071" lon="8.0357287"><ele>21.4</ele><time>2026-04-30T12:55:08.585Z</time></trkpt><trkpt lat="43.8991793" lon="8.035669"><ele>21.8</ele><time>2026-04-30T12:55:09.51Z</time></trkpt><trkpt lat="43.8992674" lon="8.0355931"><ele>22.2</ele><time>2026-04-30T12:55:10.552Z</time></trkpt><trkpt lat="43.899352" lon="8.0355176"><ele>22.599999999999998</ele><time>2026-04-30T12:55:11.571Z</time></trkpt><trkpt lat="43.8994237" lon="8.0354469"><ele>23.0</ele><time>2026-04-30T12:55:12.493Z</time></trkpt><trkpt lat="43.8995064" lon="8.0353572"><ele>23.0</ele><time>2026-04-30T12:55:13.493Z</time></trkpt><trkpt lat="43.8995956" lon="8.0352648"><ele>23.0</ele><time>2026-04-30T12:55:14.502Z</time></trkpt><trkpt lat="43.8996804" lon="8.0351462"><ele>23.0</ele><time>2026-04-30T12:55:15.556Z</time></trkpt><trkpt lat="43.8997584" lon="8.0350521"><ele>23.0</ele><time>2026-04-30T12:55:16.483Z</time></trkpt><trkpt lat="43.8998723" lon="8.0349126"><ele>20.666666666666668</ele><time>2026-04-30T12:55:17.8Z</time></trkpt><trkpt lat="43.900023" lon="8.0347334"><ele>18.333333333333332</ele><time>2026-04-30T12:55:19.66Z</time></trkpt><trkpt lat="43.900111" lon="8.0346348"><ele>16.0</ele><time>2026-04-30T12:55:20.716Z</time></trkpt><trkpt lat="43.9002344" lon="8.0344957"><ele>17.0</ele><time>2026-04-30T12:55:22.558Z</time></trkpt><trkpt lat="43.900287" lon="8.0344331"><ele>18.0</ele><time>2026-04-30T12:55:23.639Z</time></trkpt><trkpt lat="43.9003364" lon="8.0343714"><ele>19.0</ele><time>2026-04-30T12:55:24.612Z</time></trkpt><trkpt lat="43.9004534" lon="8.0342275"><ele>20.0</ele><time>2026-04-30T12:55:26.533Z</time></trkpt><trkpt lat="43.9005202" lon="8.0341604"><ele>21.0</ele><time>2026-04-30T12:55:27.623Z</time></trkpt><trkpt lat="43.9005785" lon="8.0341003"><ele>22.0</ele><time>2026-04-30T12:55:28.653Z</time></trkpt><trkpt lat="43.9006294" lon="8.0340471"><ele>22.0</ele><time>2026-04-30T12:55:29.749Z</time></trkpt><trkpt lat="43.9007279" lon="8.0339665"><ele>22.0</ele><time>2026-04-30T12:55:31.789Z</time></trkpt><trkpt lat="43.9008138" lon="8.0338886"><ele>22.0</ele><time>2026-04-30T12:55:33.832Z</time></trkpt><trkpt lat="43.9009056" lon="8.0338047"><ele>22.0</ele><time>2026-04-30T12:55:35.945Z</time></trkpt><trkpt lat="43.9009875" lon="8.033702"><ele>22.0</ele><time>2026-04-30T12:55:37.693Z</time></trkpt><trkpt lat="43.9010771" lon="8.0335917"><ele>22.75</ele><time>2026-04-30T12:55:39.733Z</time></trkpt><trkpt lat="43.901208" lon="8.0334452"><ele>23.5</ele><time>2026-04-30T12:55:42.618Z</time></trkpt><trkpt lat="43.9012869" lon="8.0333266"><ele>24.25</ele><time>2026-04-30T12:55:45.941Z</time></trkpt><trkpt lat="43.9013616" lon="8.0332303"><ele>25.0</ele><time>2026-04-30T12:55:47.714Z</time></trkpt><trkpt lat="43.9014059" lon="8.033133"><ele>25.0</ele><time>2026-04-30T12:55:49.633Z</time></trkpt><trkpt lat="43.9014534" lon="8.0330245"><ele>25.0</ele><time>2026-04-30T12:55:51.594Z</time></trkpt><trkpt lat="43.9015174" lon="8.032837"><ele>25.0</ele><time>2026-04-30T12:55:54.633Z</time></trkpt><trkpt lat="43.9015595" lon="8.0327322"><ele>25.0</ele><time>2026-04-30T12:55:56.675Z</time></trkpt><trkpt lat="43.901614" lon="8.0326217"><ele>25.0</ele><time>2026-04-30T12:55:58.789Z</time></trkpt><trkpt lat="43.901663" lon="8.0325254"><ele>25.4</ele><time>2026-04-30T12:56:00.658Z</time></trkpt><trkpt lat="43.9017733" lon="8.0323855"><ele>25.8</ele><time>2026-04-30T12:56:03.792Z</time></trkpt><trkpt lat="43.9018447" lon="8.0323037"><ele>26.200000000000003</ele><time>2026-04-30T12:56:05.738Z</time></trkpt><trkpt lat="43.9019326" lon="8.0322324"><ele>26.6</ele><time>2026-04-30T12:56:07.836Z</time></trkpt><trkpt lat="43.902019" lon="8.0321493"><ele>27.0</ele><time>2026-04-30T12:56:09.781Z</time></trkpt><trkpt lat="43.9020968" lon="8.0320686"><ele>27.0</ele><time>2026-04-30T12:56:11.791Z</time></trkpt><trkpt lat="43.902167" lon="8.0320047"><ele>27.000000000000004</ele><time>2026-04-30T12:56:13.67Z</time></trkpt><trkpt lat="43.902254" lon="8.0319263"><ele>27.000000000000004</ele><time>2026-04-30T12:56:15.91Z</time></trkpt><trkpt lat="43.9023589" lon="8.0318254"><ele>27.0</ele><time>2026-04-30T12:56:18.783Z</time></trkpt><trkpt lat="43.9024094" lon="8.0317683"><ele>27.0</ele><time>2026-04-30T12:56:20.458Z</time></trkpt><trkpt lat="43.9024772" lon="8.0316726"><ele>26.333333333333336</ele><time>2026-04-30T12:56:22.736Z</time></trkpt><trkpt lat="43.9025302" lon="8.0315583"><ele>25.666666666666668</ele><time>2026-04-30T12:56:24.734Z</time></trkpt><trkpt lat="43.9025631" lon="8.0313628"><ele>25.0</ele><time>2026-04-30T12:56:26.676Z</time></trkpt><trkpt lat="43.9025805" lon="8.0310654"><ele>29.25</ele><time>2026-04-30T12:56:28.546Z</time></trkpt><trkpt lat="43.902601" lon="8.0309016"><ele>33.5</ele><time>2026-04-30T12:56:29.504Z</time></trkpt><trkpt lat="43.9026207" lon="8.0307225"><ele>37.75</ele><time>2026-04-30T12:56:30.521Z</time></trkpt><trkpt lat="43.9026367" lon="8.030531"><ele>42.0</ele><time>2026-04-30T12:56:31.578Z</time></trkpt><trkpt lat="43.9026476" lon="8.0303445"><ele>45.25</ele><time>2026-04-30T12:56:32.576Z</time></trkpt><trkpt lat="43.9026625" lon="8.0301518"><ele>48.5</ele><time>2026-04-30T12:56:33.594Z</time></trkpt><trkpt lat="43.9026818" lon="8.0299594"><ele>51.75</ele><time>2026-04-30T12:56:34.587Z</time></trkpt><trkpt lat="43.9027095" lon="8.0297751"><ele>55.0</ele><time>2026-04-30T12:56:35.573Z</time></trkpt><trkpt lat="43.9027574" lon="8.0293905"><ele>54.33333333333333</ele><time>2026-04-30T12:56:37.542Z</time></trkpt><trkpt lat="43.9027766" lon="8.0291677"><ele>53.66666666666667</ele><time>2026-04-30T12:56:38.613Z</time></trkpt><trkpt lat="43.9027967" lon="8.0289336"><ele>53.0</ele><time>2026-04-30T12:56:39.693Z</time></trkpt><trkpt lat="43.902822" lon="8.0287238"><ele>53.0</ele><time>2026-04-30T12:56:40.619Z</time></trkpt><trkpt lat="43.9028677" lon="8.0284929"><ele>53.0</ele><time>2026-04-30T12:56:41.651Z</time></trkpt><trkpt lat="43.9029301" lon="8.0282581"><ele>53.0</ele><time>2026-04-30T12:56:42.646Z</time></trkpt><trkpt lat="43.903004" lon="8.0280161"><ele>45.0</ele><time>2026-04-30T12:56:43.669Z</time></trkpt><trkpt lat="43.9031417" lon="8.0275746"><ele>37.0</ele><time>2026-04-30T12:56:45.856Z</time></trkpt><trkpt lat="43.9033201" lon="8.027405"><ele>27.5</ele><time>2026-04-30T12:56:47.689Z</time></trkpt><trkpt lat="43.9034493" lon="8.0273425"><ele>18.0</ele><time>2026-04-30T12:56:48.734Z</time></trkpt><trkpt lat="43.903761" lon="8.0272619"><ele>18.0</ele><time>2026-04-30T12:56:50.572Z</time></trkpt><trkpt lat="43.903995" lon="8.0272247"><ele>18.0</ele><time>2026-04-30T12:56:51.794Z</time></trkpt><trkpt lat="43.9043037" lon="8.0272576"><ele>19.333333333333332</ele><time>2026-04-30T12:56:53.722Z</time></trkpt><trkpt lat="43.904553" lon="8.0273371"><ele>20.666666666666664</ele><time>2026-04-30T12:56:55.689Z</time></trkpt><trkpt lat="43.904654" lon="8.0273391"><ele>22.0</ele><time>2026-04-30T12:56:56.695Z</time></trkpt><trkpt lat="43.9048791" lon="8.0272925"><ele>22.0</ele><time>2026-04-30T12:56:58.602Z</time></trkpt><trkpt lat="43.9050471" lon="8.0272743"><ele>22.0</ele><time>2026-04-30T12:56:59.725Z</time></trkpt><trkpt lat="43.9054051" lon="8.0272087"><ele>23.5</ele><time>2026-04-30T12:57:01.748Z</time></trkpt><trkpt lat="43.9057446" lon="8.0270985"><ele>25.0</ele><time>2026-04-30T12:57:03.658Z</time></trkpt><trkpt lat="43.9061084" lon="8.0271349"><ele>25.666666666666668</ele><time>2026-04-30T12:57:05.571Z</time></trkpt><trkpt lat="43.9062775" lon="8.0271633"><ele>26.333333333333336</ele><time>2026-04-30T12:57:06.502Z</time></trkpt><trkpt lat="43.9064633" lon="8.0271521"><ele>27.0</ele><time>2026-04-30T12:57:07.503Z</time></trkpt><trkpt lat="43.9066637" lon="8.0270553"><ele>31.0</ele><time>2026-04-30T12:57:08.612Z</time></trkpt><trkpt lat="43.9070008" lon="8.0268656"><ele>35.0</ele><time>2026-04-30T12:57:10.663Z</time></trkpt><trkpt lat="43.90714" lon="8.0268057"><ele>35.0</ele><time>2026-04-30T12:57:11.499Z</time></trkpt><trkpt lat="43.9073039" lon="8.0267425"><ele>35.0</ele><time>2026-04-30T12:57:12.512Z</time></trkpt><trkpt lat="43.9074728" lon="8.0266881"><ele>35.0</ele><time>2026-04-30T12:57:13.633Z</time></trkpt><trkpt lat="43.9077295" lon="8.0266236"><ele>35.75</ele><time>2026-04-30T12:57:15.558Z</time></trkpt><trkpt lat="43.9078625" lon="8.02662"><ele>36.5</ele><time>2026-04-30T12:57:16.568Z</time></trkpt><trkpt lat="43.9079985" lon="8.0266351"><ele>37.25</ele><time>2026-04-30T12:57:17.49Z</time></trkpt><trkpt lat="43.9081721" lon="8.0266785"><ele>38.0</ele><time>2026-04-30T12:57:18.559Z</time></trkpt><trkpt lat="43.9083383" lon="8.0267331"><ele>36.5</ele><time>2026-04-30T12:57:19.487Z</time></trkpt><trkpt lat="43.9085607" lon="8.0267978"><ele>35.0</ele><time>2026-04-30T12:57:20.597Z</time></trkpt><trkpt lat="43.9087896" lon="8.02683"><ele>35.0</ele><time>2026-04-30T12:57:21.646Z</time></trkpt><trkpt lat="43.9092336" lon="8.0269019"><ele>35.0</ele><time>2026-04-30T12:57:23.772Z</time></trkpt><trkpt lat="43.9095364" lon="8.0269828"><ele>37.0</ele><time>2026-04-30T12:57:25.841Z</time></trkpt><trkpt lat="43.9097467" lon="8.0272186"><ele>39.0</ele><time>2026-04-30T12:57:27.779Z</time></trkpt><trkpt lat="43.9099809" lon="8.0275378"><ele>37.666666666666664</ele><time>2026-04-30T12:57:29.748Z</time></trkpt><trkpt lat="43.9101171" lon="8.02764"><ele>36.33333333333333</ele><time>2026-04-30T12:57:30.684Z</time></trkpt><trkpt lat="43.9103929" lon="8.0276956"><ele>35.0</ele><time>2026-04-30T12:57:32.675Z</time></trkpt><trkpt lat="43.9105263" lon="8.0277366"><ele>35.0</ele><time>2026-04-30T12:57:33.791Z</time></trkpt><trkpt lat="43.9107332" lon="8.0277519"><ele>35.0</ele><time>2026-04-30T12:57:35.797Z</time></trkpt><trkpt lat="43.9109174" lon="8.0277451"><ele>35.0</ele><time>2026-04-30T12:57:37.555Z</time></trkpt><trkpt lat="43.9110378" lon="8.0277203"><ele>36.25</ele><time>2026-04-30T12:57:38.527Z</time></trkpt><trkpt lat="43.9111883" lon="8.0276963"><ele>37.5</ele><time>2026-04-30T12:57:39.543Z</time></trkpt><trkpt lat="43.9113092" lon="8.0276925"><ele>38.75</ele><time>2026-04-30T12:57:40.447Z</time></trkpt><trkpt lat="43.9114429" lon="8.0276901"><ele>40.0</ele><time>2026-04-30T12:57:41.57Z</time></trkpt><trkpt lat="43.9115433" lon="8.0276841"><ele>40.0</ele><time>2026-04-30T12:57:42.554Z</time></trkpt><trkpt lat="43.9116427" lon="8.0276737"><ele>40.0</ele><time>2026-04-30T12:57:43.617Z</time></trkpt><trkpt lat="43.9117203" lon="8.0276493"><ele>40.0</ele><time>2026-04-30T12:57:44.57Z</time></trkpt><trkpt lat="43.9118713" lon="8.0275647"><ele>40.0</ele><time>2026-04-30T12:57:46.553Z</time></trkpt><trkpt lat="43.9119538" lon="8.0274907"><ele>40.0</ele><time>2026-04-30T12:57:47.717Z</time></trkpt><trkpt lat="43.9120912" lon="8.0273476"><ele>37.75</ele><time>2026-04-30T12:57:49.758Z</time></trkpt><trkpt lat="43.912227" lon="8.027252"><ele>35.5</ele><time>2026-04-30T12:57:51.564Z</time></trkpt><trkpt lat="43.9123086" lon="8.0272135"><ele>33.25</ele><time>2026-04-30T12:57:52.588Z</time></trkpt><trkpt lat="43.912396" lon="8.02718"><ele>31.0</ele><time>2026-04-30T12:57:53.644Z</time></trkpt><trkpt lat="43.9125661" lon="8.0271135"><ele>32.333333333333336</ele><time>2026-04-30T12:57:55.594Z</time></trkpt><trkpt lat="43.9127397" lon="8.0270428"><ele>33.666666666666664</ele><time>2026-04-30T12:57:57.616Z</time></trkpt><trkpt lat="43.912912" lon="8.0269548"><ele>35.0</ele><time>2026-04-30T12:57:59.651Z</time></trkpt><trkpt lat="43.9130792" lon="8.0268801"><ele>35.0</ele><time>2026-04-30T12:58:01.556Z</time></trkpt><trkpt lat="43.9131638" lon="8.0268524"><ele>35.0</ele><time>2026-04-30T12:58:02.483Z</time></trkpt><trkpt lat="43.9132742" lon="8.0268393"><ele>35.0</ele><time>2026-04-30T12:58:03.614Z</time></trkpt><trkpt lat="43.9134621" lon="8.0268478"><ele>35.0</ele><time>2026-04-30T12:58:05.591Z</time></trkpt><trkpt lat="43.9135396" lon="8.0268546"><ele>35.4</ele><time>2026-04-30T12:58:06.493Z</time></trkpt><trkpt lat="43.9136353" lon="8.0268718"><ele>35.8</ele><time>2026-04-30T12:58:07.58Z</time></trkpt><trkpt lat="43.9137164" lon="8.026904"><ele>36.2</ele><time>2026-04-30T12:58:08.535Z</time></trkpt><trkpt lat="43.9137967" lon="8.026966"><ele>36.6</ele><time>2026-04-30T12:58:09.595Z</time></trkpt><trkpt lat="43.9138976" lon="8.0270973"><ele>37.0</ele><time>2026-04-30T12:58:11.47Z</time></trkpt><trkpt lat="43.9139491" lon="8.0271645"><ele>37.0</ele><time>2026-04-30T12:58:12.389Z</time></trkpt><trkpt lat="43.9140391" lon="8.0272466"><ele>37.0</ele><time>2026-04-30T12:58:13.663Z</time></trkpt><trkpt lat="43.9141195" lon="8.0272837"><ele>37.0</ele><time>2026-04-30T12:58:14.562Z</time></trkpt><trkpt lat="43.9142213" lon="8.0272939"><ele>37.0</ele><time>2026-04-30T12:58:15.591Z</time></trkpt><trkpt lat="43.9143421" lon="8.0271669"><ele>37.0</ele><time>2026-04-30T12:58:17.634Z</time></trkpt><trkpt lat="43.9144978" lon="8.0270352"><ele>38.5</ele><time>2026-04-30T12:58:19.533Z</time></trkpt><trkpt lat="43.9145809" lon="8.026963"><ele>40.0</ele><time>2026-04-30T12:58:20.519Z</time></trkpt><trkpt lat="43.914684" lon="8.0268779"><ele>41.5</ele><time>2026-04-30T12:58:21.669Z</time></trkpt><trkpt lat="43.9148636" lon="8.0267314"><ele>43.0</ele><time>2026-04-30T12:58:23.572Z</time></trkpt><trkpt lat="43.9149636" lon="8.0266496"><ele>41.0</ele><time>2026-04-30T12:58:24.64Z</time></trkpt><trkpt lat="43.9150757" lon="8.0265609"><ele>39.0</ele><time>2026-04-30T12:58:25.804Z</time></trkpt><trkpt lat="43.9152601" lon="8.0264369"><ele>37.0</ele><time>2026-04-30T12:58:27.655Z</time></trkpt><trkpt lat="43.9153603" lon="8.0263808"><ele>35.0</ele><time>2026-04-30T12:58:28.626Z</time></trkpt><trkpt lat="43.915552" lon="8.0262928"><ele>35.0</ele><time>2026-04-30T12:58:30.487Z</time></trkpt><trkpt lat="43.9156567" lon="8.026232"><ele>35.0</ele><time>2026-04-30T12:58:31.586Z</time></trkpt><trkpt lat="43.9157563" lon="8.0261578"><ele>35.0</ele><time>2026-04-30T12:58:32.703Z</time></trkpt><trkpt lat="43.9158991" lon="8.0260016"><ele>35.0</ele><time>2026-04-30T12:58:34.609Z</time></trkpt><trkpt lat="43.9159795" lon="8.0259157"><ele>36.33333333333333</ele><time>2026-04-30T12:58:35.728Z</time></trkpt><trkpt lat="43.9160741" lon="8.0258528"><ele>37.666666666666664</ele><time>2026-04-30T12:58:36.827Z</time></trkpt><trkpt lat="43.9162538" lon="8.0258151"><ele>39.0</ele><time>2026-04-30T12:58:38.836Z</time></trkpt><trkpt lat="43.9164189" lon="8.0258376"><ele>39.0</ele><time>2026-04-30T12:58:40.578Z</time></trkpt><trkpt lat="43.9165145" lon="8.0258582"><ele>39.0</ele><time>2026-04-30T12:58:41.575Z</time></trkpt><trkpt lat="43.9166047" lon="8.0258889"><ele>39.0</ele><time>2026-04-30T12:58:42.525Z</time></trkpt><trkpt lat="43.916711" lon="8.0259364"><ele>39.0</ele><time>2026-04-30T12:58:43.623Z</time></trkpt><trkpt lat="43.9168023" lon="8.025979"><ele>39.0</ele><time>2026-04-30T12:58:44.56Z</time></trkpt><trkpt lat="43.9168994" lon="8.0260222"><ele>39.0</ele><time>2026-04-30T12:58:45.593Z</time></trkpt><trkpt lat="43.9170892" lon="8.0260913"><ele>39.0</ele><time>2026-04-30T12:58:47.559Z</time></trkpt><trkpt lat="43.9171959" lon="8.0261099"><ele>39.0</ele><time>2026-04-30T12:58:48.549Z</time></trkpt><trkpt lat="43.917305" lon="8.0261177"><ele>39.0</ele><time>2026-04-30T12:58:49.583Z</time></trkpt><trkpt lat="43.9174132" lon="8.0261183"><ele>39.25</ele><time>2026-04-30T12:58:50.594Z</time></trkpt><trkpt lat="43.9176246" lon="8.0260841"><ele>39.5</ele><time>2026-04-30T12:58:52.544Z</time></trkpt><trkpt lat="43.9177298" lon="8.0260509"><ele>39.75</ele><time>2026-04-30T12:58:53.55Z</time></trkpt><trkpt lat="43.9178415" lon="8.0260063"><ele>40.0</ele><time>2026-04-30T12:58:54.732Z</time></trkpt><trkpt lat="43.9180279" lon="8.0259179"><ele>39.0</ele><time>2026-04-30T12:58:56.738Z</time></trkpt><trkpt lat="43.9182306" lon="8.0258098"><ele>38.0</ele><time>2026-04-30T12:58:58.724Z</time></trkpt><trkpt lat="43.9183415" lon="8.025755"><ele>37.0</ele><time>2026-04-30T12:58:59.74Z</time></trkpt><trkpt lat="43.9185406" lon="8.0256721"><ele>37.0</ele><time>2026-04-30T12:59:01.613Z</time></trkpt><trkpt lat="43.9186418" lon="8.0256313"><ele>37.0</ele><time>2026-04-30T12:59:02.516Z</time></trkpt><trkpt lat="43.9187838" lon="8.0255944"><ele>37.0</ele><time>2026-04-30T12:59:03.798Z</time></trkpt><trkpt lat="43.9188829" lon="8.0255645"><ele>37.0</ele><time>2026-04-30T12:59:04.701Z</time></trkpt><trkpt lat="43.9189857" lon="8.0255343"><ele>37.0</ele><time>2026-04-30T12:59:05.648Z</time></trkpt><trkpt lat="43.9191038" lon="8.0255001"><ele>37.0</ele><time>2026-04-30T12:59:06.701Z</time></trkpt><trkpt lat="43.9193103" lon="8.0254473"><ele>37.0</ele><time>2026-04-30T12:59:08.685Z</time></trkpt><trkpt lat="43.9194108" lon="8.0254223"><ele>37.0</ele><time>2026-04-30T12:59:09.596Z</time></trkpt><trkpt lat="43.9195206" lon="8.0253963"><ele>39.333333333333336</ele><time>2026-04-30T12:59:10.641Z</time></trkpt><trkpt lat="43.9196358" lon="8.025374"><ele>41.666666666666664</ele><time>2026-04-30T12:59:11.763Z</time></trkpt><trkpt lat="43.9198226" lon="8.025335"><ele>44.0</ele><time>2026-04-30T12:59:13.443Z</time></trkpt><trkpt lat="43.9199831" lon="8.0253126"><ele>44.25</ele><time>2026-04-30T12:59:14.89Z</time></trkpt><trkpt lat="43.9201864" lon="8.0252826"><ele>44.5</ele><time>2026-04-30T12:59:16.792Z</time></trkpt><trkpt lat="43.920285" lon="8.0252703"><ele>44.75</ele><time>2026-04-30T12:59:17.729Z</time></trkpt><trkpt lat="43.920394" lon="8.0252554"><ele>45.0</ele><time>2026-04-30T12:59:18.747Z</time></trkpt><trkpt lat="43.9204942" lon="8.0252412"><ele>45.0</ele><time>2026-04-30T12:59:19.665Z</time></trkpt><trkpt lat="43.9206175" lon="8.025228"><ele>45.0</ele><time>2026-04-30T12:59:20.818Z</time></trkpt><trkpt lat="43.9208307" lon="8.0252045"><ele>45.0</ele><time>2026-04-30T12:59:22.737Z</time></trkpt><trkpt lat="43.9209418" lon="8.0251926"><ele>45.0</ele><time>2026-04-30T12:59:23.763Z</time></trkpt><trkpt lat="43.921067" lon="8.025179"><ele>45.0</ele><time>2026-04-30T12:59:24.868Z</time></trkpt><trkpt lat="43.9212874" lon="8.0251593"><ele>45.0</ele><time>2026-04-30T12:59:26.729Z</time></trkpt><trkpt lat="43.9213819" lon="8.0251451"><ele>45.0</ele><time>2026-04-30T12:59:27.537Z</time></trkpt><trkpt lat="43.9215261" lon="8.0251319"><ele>45.0</ele><time>2026-04-30T12:59:28.782Z</time></trkpt><trkpt lat="43.921639" lon="8.0251216"><ele>45.0</ele><time>2026-04-30T12:59:29.78Z</time></trkpt><trkpt lat="43.921752" lon="8.0251111"><ele>45.0</ele><time>2026-04-30T12:59:30.708Z</time></trkpt><trkpt lat="43.9218778" lon="8.025098"><ele>45.0</ele><time>2026-04-30T12:59:31.75Z</time></trkpt><trkpt lat="43.9221332" lon="8.0250796"><ele>45.666666666666664</ele><time>2026-04-30T12:59:33.823Z</time></trkpt><trkpt lat="43.9223725" lon="8.0250518"><ele>46.33333333333333</ele><time>2026-04-30T12:59:35.781Z</time></trkpt><trkpt lat="43.9224985" lon="8.0250434"><ele>47.0</ele><time>2026-04-30T12:59:36.856Z</time></trkpt><trkpt lat="43.9227135" lon="8.0250205"><ele>46.0</ele><time>2026-04-30T12:59:38.817Z</time></trkpt><trkpt lat="43.922892" lon="8.024955"><ele>45.0</ele><time>2026-04-30T12:59:40.523Z</time></trkpt><trkpt lat="43.9229873" lon="8.0248909"><ele>44.0</ele><time>2026-04-30T12:59:41.541Z</time></trkpt><trkpt lat="43.9231708" lon="8.0247142"><ele>44.0</ele><time>2026-04-30T12:59:43.575Z</time></trkpt><trkpt lat="43.9232563" lon="8.0246066"><ele>44.0</ele><time>2026-04-30T12:59:44.576Z</time></trkpt><trkpt lat="43.9233456" lon="8.0244879"><ele>44.0</ele><time>2026-04-30T12:59:45.6Z</time></trkpt><trkpt lat="43.9234326" lon="8.0243762"><ele>44.0</ele><time>2026-04-30T12:59:46.642Z</time></trkpt><trkpt lat="43.923516" lon="8.0242658"><ele>43.75</ele><time>2026-04-30T12:59:47.598Z</time></trkpt><trkpt lat="43.9236047" lon="8.0241504"><ele>43.5</ele><time>2026-04-30T12:59:48.61Z</time></trkpt><trkpt lat="43.9236892" lon="8.0240447"><ele>43.25</ele><time>2026-04-30T12:59:49.586Z</time></trkpt><trkpt lat="43.9237703" lon="8.0239404"><ele>43.0</ele><time>2026-04-30T12:59:50.591Z</time></trkpt><trkpt lat="43.9238602" lon="8.0238268"><ele>43.0</ele><time>2026-04-30T12:59:51.66Z</time></trkpt><trkpt lat="43.9239379" lon="8.023732"><ele>43.0</ele><time>2026-04-30T12:59:52.565Z</time></trkpt><trkpt lat="43.9240171" lon="8.0236401"><ele>43.0</ele><time>2026-04-30T12:59:53.472Z</time></trkpt><trkpt lat="43.9241215" lon="8.0235343"><ele>43.0</ele><time>2026-04-30T12:59:54.603Z</time></trkpt><trkpt lat="43.9243239" lon="8.0233484"><ele>44.333333333333336</ele><time>2026-04-30T12:59:56.603Z</time></trkpt><trkpt lat="43.9244317" lon="8.0232284"><ele>45.666666666666664</ele><time>2026-04-30T12:59:57.706Z</time></trkpt><trkpt lat="43.9246327" lon="8.0229652"><ele>47.0</ele><time>2026-04-30T12:59:59.55Z</time></trkpt><trkpt lat="43.9247853" lon="8.0227826"><ele>48.5</ele><time>2026-04-30T13:00:00.666Z</time></trkpt><trkpt lat="43.9250727" lon="8.0224751"><ele>50.0</ele><time>2026-04-30T13:00:02.558Z</time></trkpt><trkpt lat="43.9252184" lon="8.0222796"><ele>50.0</ele><time>2026-04-30T13:00:03.538Z</time></trkpt><trkpt lat="43.9253773" lon="8.0220664"><ele>50.0</ele><time>2026-04-30T13:00:04.611Z</time></trkpt><trkpt lat="43.9255204" lon="8.0218804"><ele>50.0</ele><time>2026-04-30T13:00:05.563Z</time></trkpt><trkpt lat="43.9257077" lon="8.0216395"><ele>52.5</ele><time>2026-04-30T13:00:06.772Z</time></trkpt><trkpt lat="43.9259753" lon="8.0212989"><ele>55.0</ele><time>2026-04-30T13:00:08.512Z</time></trkpt><trkpt lat="43.9261156" lon="8.0211142"><ele>55.0</ele><time>2026-04-30T13:00:09.443Z</time></trkpt><trkpt lat="43.9262465" lon="8.0209068"><ele>55.0</ele><time>2026-04-30T13:00:10.425Z</time></trkpt><trkpt lat="43.9263895" lon="8.0206454"><ele>55.0</ele><time>2026-04-30T13:00:11.626Z</time></trkpt><trkpt lat="43.9264899" lon="8.0204501"><ele>53.0</ele><time>2026-04-30T13:00:12.527Z</time></trkpt><trkpt lat="43.9266078" lon="8.0202192"><ele>51.0</ele><time>2026-04-30T13:00:13.631Z</time></trkpt><trkpt lat="43.9267083" lon="8.0200522"><ele>49.0</ele><time>2026-04-30T13:00:14.556Z</time></trkpt><trkpt lat="43.9268282" lon="8.0199096"><ele>48.33333333333333</ele><time>2026-04-30T13:00:15.527Z</time></trkpt><trkpt lat="43.926978" lon="8.0197864"><ele>47.666666666666664</ele><time>2026-04-30T13:00:16.542Z</time></trkpt><trkpt lat="43.9271253" lon="8.0196953"><ele>47.0</ele><time>2026-04-30T13:00:17.496Z</time></trkpt><trkpt lat="43.9272947" lon="8.0196317"><ele>47.0</ele><time>2026-04-30T13:00:18.559Z</time></trkpt><trkpt lat="43.927453" lon="8.019606"><ele>47.0</ele><time>2026-04-30T13:00:19.526Z</time></trkpt><trkpt lat="43.9276019" lon="8.019609"><ele>47.0</ele><time>2026-04-30T13:00:20.474Z</time></trkpt><trkpt lat="43.927753" lon="8.0196507"><ele>46.0</ele><time>2026-04-30T13:00:21.472Z</time></trkpt><trkpt lat="43.927913" lon="8.0197235"><ele>45.0</ele><time>2026-04-30T13:00:22.578Z</time></trkpt><trkpt lat="43.9281596" lon="8.0199152"><ele>45.75</ele><time>2026-04-30T13:00:24.501Z</time></trkpt><trkpt lat="43.9282669" lon="8.0200311"><ele>46.5</ele><time>2026-04-30T13:00:25.495Z</time></trkpt><trkpt lat="43.9283743" lon="8.0201606"><ele>47.25</ele><time>2026-04-30T13:00:26.553Z</time></trkpt><trkpt lat="43.9284871" lon="8.0202862"><ele>48.0</ele><time>2026-04-30T13:00:27.612Z</time></trkpt><trkpt lat="43.9286042" lon="8.0203937"><ele>48.0</ele><time>2026-04-30T13:00:28.611Z</time></trkpt><trkpt lat="43.9287355" lon="8.0204894"><ele>48.0</ele><time>2026-04-30T13:00:29.634Z</time></trkpt><trkpt lat="43.9288737" lon="8.0205656"><ele>48.0</ele><time>2026-04-30T13:00:30.578Z</time></trkpt><trkpt lat="43.9290552" lon="8.0206477"><ele>48.0</ele><time>2026-04-30T13:00:31.659Z</time></trkpt><trkpt lat="43.929221" lon="8.0207211"><ele>48.0</ele><time>2026-04-30T13:00:32.621Z</time></trkpt><trkpt lat="43.9293836" lon="8.0207953"><ele>48.0</ele><time>2026-04-30T13:00:33.584Z</time></trkpt><trkpt lat="43.9295398" lon="8.0208761"><ele>49.33333333333333</ele><time>2026-04-30T13:00:34.585Z</time></trkpt><trkpt lat="43.9296851" lon="8.0209514"><ele>50.666666666666664</ele><time>2026-04-30T13:00:35.506Z</time></trkpt><trkpt lat="43.9298725" lon="8.0210252"><ele>52.0</ele><time>2026-04-30T13:00:36.584Z</time></trkpt><trkpt lat="43.9300574" lon="8.0210924"><ele>52.666666666666664</ele><time>2026-04-30T13:00:37.593Z</time></trkpt><trkpt lat="43.9302296" lon="8.0211785"><ele>53.33333333333333</ele><time>2026-04-30T13:00:38.494Z</time></trkpt><trkpt lat="43.9304399" lon="8.0212837"><ele>54.0</ele><time>2026-04-30T13:00:39.59Z</time></trkpt><trkpt lat="43.9306221" lon="8.0213536"><ele>54.0</ele><time>2026-04-30T13:00:40.529Z</time></trkpt><trkpt lat="43.9308358" lon="8.0214111"><ele>54.0</ele><time>2026-04-30T13:00:41.584Z</time></trkpt><trkpt lat="43.9312258" lon="8.0214625"><ele>54.33333333333333</ele><time>2026-04-30T13:00:43.485Z</time></trkpt><trkpt lat="43.9314419" lon="8.021433"><ele>54.666666666666664</ele><time>2026-04-30T13:00:44.574Z</time></trkpt><trkpt lat="43.9316163" lon="8.0213573"><ele>55.0</ele><time>2026-04-30T13:00:45.512Z</time></trkpt><trkpt lat="43.9317976" lon="8.0212302"><ele>56.5</ele><time>2026-04-30T13:00:46.589Z</time></trkpt><trkpt lat="43.9319471" lon="8.0210771"><ele>58.0</ele><time>2026-04-30T13:00:47.609Z</time></trkpt><trkpt lat="43.9321786" lon="8.0207177"><ele>58.0</ele><time>2026-04-30T13:00:49.672Z</time></trkpt><trkpt lat="43.9323611" lon="8.0203914"><ele>58.0</ele><time>2026-04-30T13:00:51.597Z</time></trkpt><trkpt lat="43.9324607" lon="8.020189"><ele>56.33333333333333</ele><time>2026-04-30T13:00:52.591Z</time></trkpt><trkpt lat="43.9325462" lon="8.0199596"><ele>54.66666666666667</ele><time>2026-04-30T13:00:53.59Z</time></trkpt><trkpt lat="43.9326004" lon="8.0196795"><ele>53.0</ele><time>2026-04-30T13:00:54.68Z</time></trkpt><trkpt lat="43.9326281" lon="8.019154"><ele>56.0</ele><time>2026-04-30T13:00:56.502Z</time></trkpt><trkpt lat="43.9326429" lon="8.0188488"><ele>59.0</ele><time>2026-04-30T13:00:57.508Z</time></trkpt><trkpt lat="43.9326681" lon="8.0185675"><ele>62.0</ele><time>2026-04-30T13:00:58.414Z</time></trkpt><trkpt lat="43.9327163" lon="8.0182267"><ele>62.0</ele><time>2026-04-30T13:00:59.552Z</time></trkpt><trkpt lat="43.9327793" lon="8.017943"><ele>62.0</ele><time>2026-04-30T13:01:00.513Z</time></trkpt><trkpt lat="43.9328599" lon="8.0176544"><ele>62.0</ele><time>2026-04-30T13:01:01.495Z</time></trkpt><trkpt lat="43.9329633" lon="8.017344"><ele>57.5</ele><time>2026-04-30T13:01:02.559Z</time></trkpt><trkpt lat="43.9330715" lon="8.0170746"><ele>53.0</ele><time>2026-04-30T13:01:03.504Z</time></trkpt><trkpt lat="43.933202" lon="8.0168022"><ele>52.0</ele><time>2026-04-30T13:01:04.486Z</time></trkpt><trkpt lat="43.9333638" lon="8.0165121"><ele>51.0</ele><time>2026-04-30T13:01:05.57Z</time></trkpt><trkpt lat="43.9335104" lon="8.0162685"><ele>52.5</ele><time>2026-04-30T13:01:06.483Z</time></trkpt><trkpt lat="43.9336977" lon="8.015949"><ele>54.0</ele><time>2026-04-30T13:01:07.638Z</time></trkpt><trkpt lat="43.9338495" lon="8.0156849"><ele>54.0</ele><time>2026-04-30T13:01:08.579Z</time></trkpt><trkpt lat="43.934034" lon="8.0153626"><ele>54.0</ele><time>2026-04-30T13:01:09.722Z</time></trkpt><trkpt lat="43.9343224" lon="8.0148368"><ele>54.0</ele><time>2026-04-30T13:01:11.575Z</time></trkpt><trkpt lat="43.9346355" lon="8.0142478"><ele>65.0</ele><time>2026-04-30T13:01:13.619Z</time></trkpt><trkpt lat="43.9347933" lon="8.0139513"><ele>76.0</ele><time>2026-04-30T13:01:14.646Z</time></trkpt><trkpt lat="43.9351029" lon="8.0133771"><ele>120.0</ele><time>2026-04-30T13:01:16.65Z</time></trkpt><trkpt lat="43.9353831" lon="8.0128501"><ele>151.0</ele><time>2026-04-30T13:01:18.464Z</time></trkpt><trkpt lat="43.935673" lon="8.0122793"><ele>113.0</ele><time>2026-04-30T13:01:20.346Z</time></trkpt><trkpt lat="43.9411116" lon="8.0023597"><ele>113.0</ele><time>2026-04-30T13:01:51.149Z</time></trkpt><trkpt lat="43.9413501" lon="8.0020662"><ele>113.0</ele><time>2026-04-30T13:01:52.149Z</time></trkpt><trkpt lat="43.9415432" lon="8.001758"><ele>139.0</ele><time>2026-04-30T13:01:53.148Z</time></trkpt><trkpt lat="43.9422052" lon="8.0010894"><ele>108.0</ele><time>2026-04-30T13:01:56.149Z</time></trkpt><trkpt lat="43.9469416" lon="8.0005899"><ele>108.0</ele><time>2026-04-30T13:02:19.149Z</time></trkpt><trkpt lat="43.9472705" lon="8.0007297"><ele>108.0</ele><time>2026-04-30T13:02:21.149Z</time></trkpt><trkpt lat="43.9474313" lon="8.0007912"><ele>103.0</ele><time>2026-04-30T13:02:22.149Z</time></trkpt><trkpt lat="43.9476186" lon="8.0008617"><ele>98.0</ele><time>2026-04-30T13:02:23.67Z</time></trkpt><trkpt lat="43.9480124" lon="8.0009784"><ele>98.0</ele><time>2026-04-30T13:02:25.552Z</time></trkpt><trkpt lat="43.9482449" lon="8.0010412"><ele>98.0</ele><time>2026-04-30T13:02:26.583Z</time></trkpt><trkpt lat="43.9485106" lon="8.0011081"><ele>101.0</ele><time>2026-04-30T13:02:27.72Z</time></trkpt><trkpt lat="43.948739" lon="8.0011693"><ele>104.0</ele><time>2026-04-30T13:02:28.666Z</time></trkpt><trkpt lat="43.9491981" lon="8.0012884"><ele>98.0</ele><time>2026-04-30T13:02:30.571Z</time></trkpt><trkpt lat="43.9494255" lon="8.001345"><ele>92.0</ele><time>2026-04-30T13:02:31.488Z</time></trkpt><trkpt lat="43.9496598" lon="8.0014035"><ele>92.0</ele><time>2026-04-30T13:02:32.432Z</time></trkpt><trkpt lat="43.9499385" lon="8.0014726"><ele>92.0</ele><time>2026-04-30T13:02:33.556Z</time></trkpt><trkpt lat="43.9501789" lon="8.0015336"><ele>90.0</ele><time>2026-04-30T13:02:34.529Z</time></trkpt><trkpt lat="43.9504092" lon="8.0015897"><ele>88.0</ele><time>2026-04-30T13:02:35.466Z</time></trkpt><trkpt lat="43.9506814" lon="8.0016563"><ele>92.5</ele><time>2026-04-30T13:02:36.58Z</time></trkpt><trkpt lat="43.9509367" lon="8.001716"><ele>97.0</ele><time>2026-04-30T13:02:37.609Z</time></trkpt><trkpt lat="43.9513972" lon="8.0018251"><ele>97.0</ele><time>2026-04-30T13:02:39.464Z</time></trkpt><trkpt lat="43.9516527" lon="8.0018886"><ele>97.0</ele><time>2026-04-30T13:02:40.489Z</time></trkpt><trkpt lat="43.9519436" lon="8.0019594"><ele>113.5</ele><time>2026-04-30T13:02:41.67Z</time></trkpt><trkpt lat="43.9523775" lon="8.0020591"><ele>130.0</ele><time>2026-04-30T13:02:43.433Z</time></trkpt><trkpt lat="43.9526256" lon="8.0020932"><ele>134.5</ele><time>2026-04-30T13:02:44.429Z</time></trkpt><trkpt lat="43.9528576" lon="8.0021108"><ele>139.0</ele><time>2026-04-30T13:02:45.35Z</time></trkpt><trkpt lat="43.9571204" lon="7.9976636"><ele>134.0</ele><time>2026-04-30T13:03:12.149Z</time></trkpt><trkpt lat="43.957249" lon="7.9974751"><ele>129.0</ele><time>2026-04-30T13:03:13.149Z</time></trkpt><trkpt lat="43.9573333" lon="7.9972446"><ele>124.0</ele><time>2026-04-30T13:03:14.148Z</time></trkpt><trkpt lat="43.9574132" lon="7.9970166"><ele>124.0</ele><time>2026-04-30T13:03:15.149Z</time></trkpt><trkpt lat="43.9575042" lon="7.9967469"><ele>124.0</ele><time>2026-04-30T13:03:16.542Z</time></trkpt><trkpt lat="43.9575835" lon="7.9964477"><ele>124.0</ele><time>2026-04-30T13:03:17.799Z</time></trkpt><trkpt lat="43.9576955" lon="7.9959646"><ele>126.5</ele><time>2026-04-30T13:03:19.496Z</time></trkpt><trkpt lat="43.9577694" lon="7.9956629"><ele>129.0</ele><time>2026-04-30T13:03:20.608Z</time></trkpt><trkpt lat="43.9578521" lon="7.9953191"><ele>125.0</ele><time>2026-04-30T13:03:21.864Z</time></trkpt><trkpt lat="43.9579588" lon="7.9948555"><ele>121.0</ele><time>2026-04-30T13:03:23.607Z</time></trkpt><trkpt lat="43.9580204" lon="7.9946171"><ele>117.5</ele><time>2026-04-30T13:03:24.565Z</time></trkpt><trkpt lat="43.9581957" lon="7.9941638"><ele>114.0</ele><time>2026-04-30T13:03:26.584Z</time></trkpt><trkpt lat="43.9583061" lon="7.9939603"><ele>127.5</ele><time>2026-04-30T13:03:27.637Z</time></trkpt><trkpt lat="43.9585402" lon="7.9936368"><ele>141.0</ele><time>2026-04-30T13:03:29.511Z</time></trkpt><trkpt lat="43.9586879" lon="7.993465"><ele>133.0</ele><time>2026-04-30T13:03:30.606Z</time></trkpt><trkpt lat="43.958908" lon="7.9932165"><ele>125.0</ele><time>2026-04-30T13:03:32.346Z</time></trkpt><trkpt lat="43.9590622" lon="7.9930511"><ele>135.5</ele><time>2026-04-30T13:03:33.607Z</time></trkpt><trkpt lat="43.9592859" lon="7.9928049"><ele>146.0</ele><time>2026-04-30T13:03:35.482Z</time></trkpt><trkpt lat="43.9594232" lon="7.9926567"><ele>137.33333333333331</ele><time>2026-04-30T13:03:36.629Z</time></trkpt><trkpt lat="43.9596441" lon="7.9924174"><ele>128.66666666666666</ele><time>2026-04-30T13:03:38.501Z</time></trkpt><trkpt lat="43.9597598" lon="7.9922931"><ele>120.0</ele><time>2026-04-30T13:03:39.493Z</time></trkpt><trkpt lat="43.9598818" lon="7.9921609"><ele>120.0</ele><time>2026-04-30T13:03:40.569Z</time></trkpt><trkpt lat="43.9599931" lon="7.9920418"><ele>120.0</ele><time>2026-04-30T13:03:41.591Z</time></trkpt><trkpt lat="43.9600943" lon="7.9919336"><ele>120.0</ele><time>2026-04-30T13:03:42.532Z</time></trkpt><trkpt lat="43.9602102" lon="7.9918071"><ele>120.0</ele><time>2026-04-30T13:03:43.586Z</time></trkpt><trkpt lat="43.9604349" lon="7.9915736"><ele>121.33333333333334</ele><time>2026-04-30T13:03:45.666Z</time></trkpt><trkpt lat="43.9606637" lon="7.9913866"><ele>122.66666666666667</ele><time>2026-04-30T13:03:47.564Z</time></trkpt><trkpt lat="43.960801" lon="7.9912982"><ele>124.0</ele><time>2026-04-30T13:03:48.608Z</time></trkpt><trkpt lat="43.9609207" lon="7.9912307"><ele>129.0</ele><time>2026-04-30T13:03:49.518Z</time></trkpt><trkpt lat="43.9610579" lon="7.9911627"><ele>134.0</ele><time>2026-04-30T13:03:50.532Z</time></trkpt><trkpt lat="43.9612011" lon="7.9911064"><ele>139.0</ele><time>2026-04-30T13:03:51.56Z</time></trkpt><trkpt lat="43.9613519" lon="7.9910575"><ele>144.0</ele><time>2026-04-30T13:03:52.603Z</time></trkpt><trkpt lat="43.9615042" lon="7.9910125"><ele>144.0</ele><time>2026-04-30T13:03:53.546Z</time></trkpt><trkpt lat="43.9616811" lon="7.990975"><ele>144.0</ele><time>2026-04-30T13:03:54.508Z</time></trkpt><trkpt lat="43.9618939" lon="7.9909526"><ele>144.0</ele><time>2026-04-30T13:03:55.54Z</time></trkpt><trkpt lat="43.9621148" lon="7.9909395"><ele>141.5</ele><time>2026-04-30T13:03:56.512Z</time></trkpt><trkpt lat="43.9623913" lon="7.9909288"><ele>139.0</ele><time>2026-04-30T13:03:57.662Z</time></trkpt><trkpt lat="43.9629198" lon="7.9908991"><ele>139.0</ele><time>2026-04-30T13:03:59.709Z</time></trkpt><trkpt lat="43.96318" lon="7.9908787"><ele>139.0</ele><time>2026-04-30T13:04:00.69Z</time></trkpt><trkpt lat="43.9634725" lon="7.990864"><ele>175.0</ele><time>2026-04-30T13:04:01.743Z</time></trkpt><trkpt lat="43.9639366" lon="7.9908088"><ele>194.0</ele><time>2026-04-30T13:04:03.343Z</time></trkpt><trkpt lat="43.9642732" lon="7.9907614"><ele>213.0</ele><time>2026-04-30T13:04:04.468Z</time></trkpt><trkpt lat="43.9753989" lon="7.9744908"><ele>203.0</ele><time>2026-04-30T13:05:04.153Z</time></trkpt><trkpt lat="43.9754599" lon="7.9741572"><ele>193.0</ele><time>2026-04-30T13:05:05.152Z</time></trkpt><trkpt lat="43.9755486" lon="7.97384"><ele>193.0</ele><time>2026-04-30T13:05:06.152Z</time></trkpt><trkpt lat="43.9756681" lon="7.9735336"><ele>193.0</ele><time>2026-04-30T13:05:07.152Z</time></trkpt><trkpt lat="43.9758515" lon="7.9731793"><ele>228.0</ele><time>2026-04-30T13:05:08.694Z</time></trkpt><trkpt lat="43.9762082" lon="7.9726137"><ele>216.0</ele><time>2026-04-30T13:05:10.535Z</time></trkpt><trkpt lat="43.9764165" lon="7.9723376"><ele>204.0</ele><time>2026-04-30T13:05:11.617Z</time></trkpt><trkpt lat="43.9765259" lon="7.9721008"><ele>199.0</ele><time>2026-04-30T13:05:12.517Z</time></trkpt><trkpt lat="43.9769429" lon="7.9715895"><ele>199.0</ele><time>2026-04-30T13:05:14.47Z</time></trkpt><trkpt lat="43.977405" lon="7.9712749"><ele>215.0</ele><time>2026-04-30T13:05:16.463Z</time></trkpt><trkpt lat="43.9776326" lon="7.9711576"><ele>231.0</ele><time>2026-04-30T13:05:17.389Z</time></trkpt><trkpt lat="43.9779117" lon="7.9710431"><ele>231.0</ele><time>2026-04-30T13:05:18.507Z</time></trkpt><trkpt lat="43.9781398" lon="7.9709747"><ele>231.0</ele><time>2026-04-30T13:05:19.438Z</time></trkpt><trkpt lat="43.978449" lon="7.9709712"><ele>229.5</ele><time>2026-04-30T13:05:20.599Z</time></trkpt><trkpt lat="43.9787138" lon="7.9710075"><ele>228.0</ele><time>2026-04-30T13:05:21.465Z</time></trkpt><trkpt lat="43.9790227" lon="7.9710752"><ele>206.0</ele><time>2026-04-30T13:05:22.535Z</time></trkpt><trkpt lat="43.9795769" lon="7.9714093"><ele>206.0</ele><time>2026-04-30T13:05:24.551Z</time></trkpt><trkpt lat="43.9798467" lon="7.9716067"><ele>206.0</ele><time>2026-04-30T13:05:25.511Z</time></trkpt><trkpt lat="43.9801227" lon="7.9717967"><ele>216.5</ele><time>2026-04-30T13:05:26.473Z</time></trkpt><trkpt lat="43.9803911" lon="7.9719734"><ele>227.0</ele><time>2026-04-30T13:05:27.513Z</time></trkpt><trkpt lat="43.9806681" lon="7.9721252"><ele>224.5</ele><time>2026-04-30T13:05:28.588Z</time></trkpt><trkpt lat="43.9809607" lon="7.972304"><ele>222.0</ele><time>2026-04-30T13:05:29.786Z</time></trkpt><trkpt lat="43.981372" lon="7.9725498"><ele>227.33333333333331</ele><time>2026-04-30T13:05:31.642Z</time></trkpt><trkpt lat="43.981571" lon="7.9726696"><ele>232.66666666666666</ele><time>2026-04-30T13:05:32.634Z</time></trkpt><trkpt lat="43.9817693" lon="7.9727719"><ele>238.0</ele><time>2026-04-30T13:05:33.603Z</time></trkpt><trkpt lat="43.9819943" lon="7.9728562"><ele>238.0</ele><time>2026-04-30T13:05:34.642Z</time></trkpt><trkpt lat="43.9822595" lon="7.9729065"><ele>238.0</ele><time>2026-04-30T13:05:35.762Z</time></trkpt><trkpt lat="43.9827544" lon="7.9728695"><ele>240.5</ele><time>2026-04-30T13:05:37.766Z</time></trkpt><trkpt lat="43.9831569" lon="7.9726789"><ele>243.0</ele><time>2026-04-30T13:05:39.457Z</time></trkpt><trkpt lat="43.9833977" lon="7.9724837"><ele>247.5</ele><time>2026-04-30T13:05:40.564Z</time></trkpt><trkpt lat="43.9835979" lon="7.9722603"><ele>252.0</ele><time>2026-04-30T13:05:41.565Z</time></trkpt><trkpt lat="43.9837592" lon="7.9720254"><ele>252.0</ele><time>2026-04-30T13:05:42.467Z</time></trkpt><trkpt lat="43.9839282" lon="7.9717407"><ele>252.0</ele><time>2026-04-30T13:05:43.479Z</time></trkpt><trkpt lat="43.9840902" lon="7.9714663"><ele>260.0</ele><time>2026-04-30T13:05:44.445Z</time></trkpt><trkpt lat="43.9842542" lon="7.9712044"><ele>268.0</ele><time>2026-04-30T13:05:45.391Z</time></trkpt><trkpt lat="43.9844737" lon="7.9709087"><ele>263.0</ele><time>2026-04-30T13:05:46.553Z</time></trkpt><trkpt lat="43.9846847" lon="7.9706988"><ele>258.0</ele><time>2026-04-30T13:05:47.55Z</time></trkpt><trkpt lat="43.9849124" lon="7.9705365"><ele>269.0</ele><time>2026-04-30T13:05:48.529Z</time></trkpt><trkpt lat="43.9851861" lon="7.9704048"><ele>280.0</ele><time>2026-04-30T13:05:49.63Z</time></trkpt><trkpt lat="43.9854297" lon="7.970337"><ele>280.0</ele><time>2026-04-30T13:05:50.556Z</time></trkpt><trkpt lat="43.9856706" lon="7.9702945"><ele>280.0</ele><time>2026-04-30T13:05:51.459Z</time></trkpt><trkpt lat="43.9859544" lon="7.9702464"><ele>284.0</ele><time>2026-04-30T13:05:52.51Z</time></trkpt><trkpt lat="43.986201" lon="7.9702032"><ele>288.0</ele><time>2026-04-30T13:05:53.42Z</time></trkpt><trkpt lat="43.9864958" lon="7.9701542"><ele>286.5</ele><time>2026-04-30T13:05:54.518Z</time></trkpt><trkpt lat="43.9867605" lon="7.9701195"><ele>285.0</ele><time>2026-04-30T13:05:55.522Z</time></trkpt><trkpt lat="43.9870063" lon="7.9701083"><ele>285.0</ele><time>2026-04-30T13:05:56.444Z</time></trkpt><trkpt lat="43.9872742" lon="7.9701388"><ele>285.0</ele><time>2026-04-30T13:05:57.448Z</time></trkpt><trkpt lat="43.9875392" lon="7.9702269"><ele>282.0</ele><time>2026-04-30T13:05:58.491Z</time></trkpt><trkpt lat="43.9877819" lon="7.9703617"><ele>279.0</ele><time>2026-04-30T13:05:59.484Z</time></trkpt><trkpt lat="43.9880179" lon="7.9705154"><ele>279.0</ele><time>2026-04-30T13:06:00.458Z</time></trkpt><trkpt lat="43.9882681" lon="7.9706832"><ele>279.0</ele><time>2026-04-30T13:06:01.486Z</time></trkpt><trkpt lat="43.9885121" lon="7.9708336"><ele>287.5</ele><time>2026-04-30T13:06:02.501Z</time></trkpt><trkpt lat="43.9887518" lon="7.970957"><ele>296.0</ele><time>2026-04-30T13:06:03.493Z</time></trkpt><trkpt lat="43.9890171" lon="7.9710476"><ele>296.5</ele><time>2026-04-30T13:06:04.578Z</time></trkpt><trkpt lat="43.9892622" lon="7.9710862"><ele>297.0</ele><time>2026-04-30T13:06:05.564Z</time></trkpt><trkpt lat="43.9897653" lon="7.9710376"><ele>299.5</ele><time>2026-04-30T13:06:07.538Z</time></trkpt><trkpt lat="43.9900313" lon="7.9709608"><ele>302.0</ele><time>2026-04-30T13:06:08.596Z</time></trkpt><trkpt lat="43.9902854" lon="7.9708937"><ele>296.0</ele><time>2026-04-30T13:06:09.587Z</time></trkpt><trkpt lat="43.9905267" lon="7.9708432"><ele>290.0</ele><time>2026-04-30T13:06:10.532Z</time></trkpt><trkpt lat="43.9908159" lon="7.9708098"><ele>298.0</ele><time>2026-04-30T13:06:11.702Z</time></trkpt><trkpt lat="43.9912645" lon="7.9708726"><ele>294.0</ele><time>2026-04-30T13:06:13.536Z</time></trkpt><trkpt lat="43.9916977" lon="7.9710919"><ele>294.0</ele><time>2026-04-30T13:06:15.455Z</time></trkpt><trkpt lat="43.9919002" lon="7.9712578"><ele>294.0</ele><time>2026-04-30T13:06:16.476Z</time></trkpt><trkpt lat="43.9920703" lon="7.9714388"><ele>294.0</ele><time>2026-04-30T13:06:17.454Z</time></trkpt><trkpt lat="43.9922162" lon="7.9716373"><ele>295.3333333333333</ele><time>2026-04-30T13:06:18.462Z</time></trkpt><trkpt lat="43.9923443" lon="7.9718527"><ele>296.66666666666663</ele><time>2026-04-30T13:06:19.503Z</time></trkpt><trkpt lat="43.9924576" lon="7.9720507"><ele>298.0</ele><time>2026-04-30T13:06:20.508Z</time></trkpt><trkpt lat="43.9925841" lon="7.9722363"><ele>298.0</ele><time>2026-04-30T13:06:21.523Z</time></trkpt><trkpt lat="43.9927122" lon="7.9723963"><ele>298.0</ele><time>2026-04-30T13:06:22.514Z</time></trkpt><trkpt lat="43.9928444" lon="7.9725357"><ele>298.0</ele><time>2026-04-30T13:06:23.452Z</time></trkpt><trkpt lat="43.9930011" lon="7.9726767"><ele>301.3333333333333</ele><time>2026-04-30T13:06:24.548Z</time></trkpt><trkpt lat="43.9931571" lon="7.9728122"><ele>304.6666666666667</ele><time>2026-04-30T13:06:25.506Z</time></trkpt><trkpt lat="43.993352" lon="7.9729881"><ele>308.0</ele><time>2026-04-30T13:06:26.611Z</time></trkpt><trkpt lat="43.993528" lon="7.9731504"><ele>308.0</ele><time>2026-04-30T13:06:27.578Z</time></trkpt><trkpt lat="43.9936933" lon="7.9733135"><ele>308.0</ele><time>2026-04-30T13:06:28.535Z</time></trkpt><trkpt lat="43.9938438" lon="7.9734579"><ele>308.0</ele><time>2026-04-30T13:06:29.457Z</time></trkpt><trkpt lat="43.994033" lon="7.973633"><ele>310.5</ele><time>2026-04-30T13:06:30.54Z</time></trkpt><trkpt lat="43.9943574" lon="7.9739335"><ele>313.0</ele><time>2026-04-30T13:06:32.472Z</time></trkpt><trkpt lat="43.9945224" lon="7.9740862"><ele>317.66666666666663</ele><time>2026-04-30T13:06:33.491Z</time></trkpt><trkpt lat="43.9946944" lon="7.974246"><ele>322.3333333333333</ele><time>2026-04-30T13:06:34.583Z</time></trkpt><trkpt lat="43.9948362" lon="7.9743763"><ele>327.0</ele><time>2026-04-30T13:06:35.502Z</time></trkpt><trkpt lat="43.9949914" lon="7.9745207"><ele>321.6666666666667</ele><time>2026-04-30T13:06:36.524Z</time></trkpt><trkpt lat="43.9951508" lon="7.97467"><ele>316.33333333333337</ele><time>2026-04-30T13:06:37.58Z</time></trkpt><trkpt lat="43.9952974" lon="7.974805"><ele>311.0</ele><time>2026-04-30T13:06:38.554Z</time></trkpt><trkpt lat="43.9954231" lon="7.9749166"><ele>316.33333333333337</ele><time>2026-04-30T13:06:39.411Z</time></trkpt><trkpt lat="43.995594" lon="7.9750535"><ele>321.6666666666667</ele><time>2026-04-30T13:06:40.553Z</time></trkpt><trkpt lat="43.9957348" lon="7.9751509"><ele>327.0</ele><time>2026-04-30T13:06:41.472Z</time></trkpt><trkpt lat="43.9958986" lon="7.9752547"><ele>331.6666666666667</ele><time>2026-04-30T13:06:42.515Z</time></trkpt><trkpt lat="43.9960573" lon="7.9753465"><ele>336.33333333333337</ele><time>2026-04-30T13:06:43.488Z</time></trkpt><trkpt lat="43.9962471" lon="7.9754482"><ele>341.0</ele><time>2026-04-30T13:06:44.605Z</time></trkpt><trkpt lat="43.9965898" lon="7.9755991"><ele>329.5</ele><time>2026-04-30T13:06:46.508Z</time></trkpt><trkpt lat="43.9969287" lon="7.9757089"><ele>318.0</ele><time>2026-04-30T13:06:48.356Z</time></trkpt><trkpt lat="44.0012553" lon="7.9740505"><ele>318.0</ele><time>2026-04-30T13:07:11.153Z</time></trkpt><trkpt lat="44.0014816" lon="7.9738814"><ele>318.0</ele><time>2026-04-30T13:07:12.153Z</time></trkpt><trkpt lat="44.0017212" lon="7.9736996"><ele>306.5</ele><time>2026-04-30T13:07:13.153Z</time></trkpt><trkpt lat="44.0020059" lon="7.973478"><ele>295.0</ele><time>2026-04-30T13:07:14.655Z</time></trkpt><trkpt lat="44.0022742" lon="7.9732753"><ele>296.0</ele><time>2026-04-30T13:07:15.639Z</time></trkpt><trkpt lat="44.0025483" lon="7.9730686"><ele>297.0</ele><time>2026-04-30T13:07:16.657Z</time></trkpt><trkpt lat="44.0027903" lon="7.9728894"><ele>297.0</ele><time>2026-04-30T13:07:17.604Z</time></trkpt><trkpt lat="44.0030831" lon="7.9726737"><ele>297.0</ele><time>2026-04-30T13:07:18.827Z</time></trkpt><trkpt lat="44.0034496" lon="7.9724015"><ele>319.5</ele><time>2026-04-30T13:07:20.391Z</time></trkpt><trkpt lat="44.003681" lon="7.9722373"><ele>342.0</ele><time>2026-04-30T13:07:21.374Z</time></trkpt><trkpt lat="44.003898" lon="7.9720708"><ele>344.0</ele><time>2026-04-30T13:07:22.339Z</time></trkpt><trkpt lat="44.0082333" lon="7.9689773"><ele>348.0</ele><time>2026-04-30T13:07:40.32Z</time></trkpt><trkpt lat="44.008497" lon="7.968657"><ele>352.0</ele><time>2026-04-30T13:07:41.347Z</time></trkpt><trkpt lat="44.0087492" lon="7.9684745"><ele>347.0</ele><time>2026-04-30T13:07:42.432Z</time></trkpt><trkpt lat="44.008993" lon="7.968277"><ele>342.0</ele><time>2026-04-30T13:07:43.518Z</time></trkpt><trkpt lat="44.0092366" lon="7.9680804"><ele>342.0</ele><time>2026-04-30T13:07:44.588Z</time></trkpt><trkpt lat="44.009491" lon="7.9678466"><ele>342.0</ele><time>2026-04-30T13:07:45.74Z</time></trkpt><trkpt lat="44.0099207" lon="7.9673875"><ele>377.0</ele><time>2026-04-30T13:07:47.72Z</time></trkpt><trkpt lat="44.0102863" lon="7.9669623"><ele>362.0</ele><time>2026-04-30T13:07:49.39Z</time></trkpt><trkpt lat="44.0213808" lon="7.9508437"><ele>362.0</ele><time>2026-04-30T13:08:45.153Z</time></trkpt><trkpt lat="44.0215369" lon="7.9505073"><ele>362.0</ele><time>2026-04-30T13:08:46.153Z</time></trkpt><trkpt lat="44.0216907" lon="7.9501782"><ele>346.5</ele><time>2026-04-30T13:08:47.152Z</time></trkpt><trkpt lat="44.0218369" lon="7.9498369"><ele>331.0</ele><time>2026-04-30T13:08:48.153Z</time></trkpt><trkpt lat="44.0220155" lon="7.9494244"><ele>330.0</ele><time>2026-04-30T13:08:49.692Z</time></trkpt><trkpt lat="44.0221876" lon="7.9490375"><ele>329.0</ele><time>2026-04-30T13:08:50.678Z</time></trkpt><trkpt lat="44.0223469" lon="7.9486807"><ele>323.0</ele><time>2026-04-30T13:08:51.585Z</time></trkpt><trkpt lat="44.0225152" lon="7.9482931"><ele>317.0</ele><time>2026-04-30T13:08:52.65Z</time></trkpt><trkpt lat="44.0227918" lon="7.9476636"><ele>320.5</ele><time>2026-04-30T13:08:54.488Z</time></trkpt><trkpt lat="44.022941" lon="7.9473215"><ele>324.0</ele><time>2026-04-30T13:08:55.485Z</time></trkpt><trkpt lat="44.0230904" lon="7.9469767"><ele>330.0</ele><time>2026-04-30T13:08:56.483Z</time></trkpt><trkpt lat="44.0232531" lon="7.9466013"><ele>336.0</ele><time>2026-04-30T13:08:57.566Z</time></trkpt><trkpt lat="44.0235341" lon="7.9459631"><ele>322.5</ele><time>2026-04-30T13:08:59.415Z</time></trkpt><trkpt lat="44.0237026" lon="7.9455781"><ele>309.0</ele><time>2026-04-30T13:09:00.521Z</time></trkpt><trkpt lat="44.0238443" lon="7.9452568"><ele>307.5</ele><time>2026-04-30T13:09:01.448Z</time></trkpt><trkpt lat="44.0240107" lon="7.9448819"><ele>306.0</ele><time>2026-04-30T13:09:02.537Z</time></trkpt><trkpt lat="44.0241492" lon="7.9445727"><ele>306.0</ele><time>2026-04-30T13:09:03.446Z</time></trkpt><trkpt lat="44.0243126" lon="7.9442218"><ele>306.0</ele><time>2026-04-30T13:09:04.501Z</time></trkpt><trkpt lat="44.0244569" lon="7.9439265"><ele>299.0</ele><time>2026-04-30T13:09:05.413Z</time></trkpt><trkpt lat="44.0246456" lon="7.9435635"><ele>292.0</ele><time>2026-04-30T13:09:06.565Z</time></trkpt><trkpt lat="44.0248145" lon="7.9432622"><ele>289.0</ele><time>2026-04-30T13:09:07.548Z</time></trkpt><trkpt lat="44.0249994" lon="7.9429622"><ele>286.0</ele><time>2026-04-30T13:09:08.557Z</time></trkpt><trkpt lat="44.0252248" lon="7.9426263"><ele>293.0</ele><time>2026-04-30T13:09:09.729Z</time></trkpt><trkpt lat="44.0255956" lon="7.9421231"><ele>293.0</ele><time>2026-04-30T13:09:11.573Z</time></trkpt><trkpt lat="44.0258081" lon="7.9418637"><ele>293.0</ele><time>2026-04-30T13:09:12.584Z</time></trkpt><trkpt lat="44.0260106" lon="7.9416353"><ele>302.5</ele><time>2026-04-30T13:09:13.53Z</time></trkpt><trkpt lat="44.0262483" lon="7.9413899"><ele>312.0</ele><time>2026-04-30T13:09:14.65Z</time></trkpt><trkpt lat="44.026445" lon="7.9412054"><ele>314.5</ele><time>2026-04-30T13:09:15.57Z</time></trkpt><trkpt lat="44.0266583" lon="7.9410166"><ele>317.0</ele><time>2026-04-30T13:09:16.571Z</time></trkpt><trkpt lat="44.0270584" lon="7.9407042"><ele>317.0</ele><time>2026-04-30T13:09:18.518Z</time></trkpt><trkpt lat="44.0272529" lon="7.9405727"><ele>317.0</ele><time>2026-04-30T13:09:19.542Z</time></trkpt><trkpt lat="44.0274409" lon="7.9404566"><ele>317.0</ele><time>2026-04-30T13:09:20.568Z</time></trkpt><trkpt lat="44.0276104" lon="7.9403575"><ele>316.33333333333337</ele><time>2026-04-30T13:09:21.537Z</time></trkpt><trkpt lat="44.0277694" lon="7.9402717"><ele>315.6666666666667</ele><time>2026-04-30T13:09:22.485Z</time></trkpt><trkpt lat="44.0279506" lon="7.9401831"><ele>315.0</ele><time>2026-04-30T13:09:23.588Z</time></trkpt><trkpt lat="44.0281059" lon="7.9401095"><ele>325.0</ele><time>2026-04-30T13:09:24.542Z</time></trkpt><trkpt lat="44.0282653" lon="7.9400451"><ele>335.0</ele><time>2026-04-30T13:09:25.509Z</time></trkpt><trkpt lat="44.0284372" lon="7.939978"><ele>345.0</ele><time>2026-04-30T13:09:26.527Z</time></trkpt><trkpt lat="44.0286072" lon="7.9399216"><ele>345.0</ele><time>2026-04-30T13:09:27.529Z</time></trkpt><trkpt lat="44.0287762" lon="7.9398702"><ele>345.0</ele><time>2026-04-30T13:09:28.53Z</time></trkpt><trkpt lat="44.0289582" lon="7.93982"><ele>345.0</ele><time>2026-04-30T13:09:29.616Z</time></trkpt><trkpt lat="44.0291168" lon="7.9397839"><ele>337.3333333333333</ele><time>2026-04-30T13:09:30.566Z</time></trkpt><trkpt lat="44.0292752" lon="7.9397507"><ele>329.66666666666663</ele><time>2026-04-30T13:09:31.535Z</time></trkpt><trkpt lat="44.0294494" lon="7.9397181"><ele>322.0</ele><time>2026-04-30T13:09:32.647Z</time></trkpt><trkpt lat="44.029711" lon="7.9396813"><ele>322.0</ele><time>2026-04-30T13:09:34.441Z</time></trkpt><trkpt lat="44.0298604" lon="7.9396668"><ele>322.0</ele><time>2026-04-30T13:09:35.535Z</time></trkpt><trkpt lat="44.0301436" lon="7.9396506"><ele>322.0</ele><time>2026-04-30T13:09:37.504Z</time></trkpt><trkpt lat="44.0302909" lon="7.9396459"><ele>320.66666666666663</ele><time>2026-04-30T13:09:38.456Z</time></trkpt><trkpt lat="44.030437" lon="7.9396431"><ele>319.3333333333333</ele><time>2026-04-30T13:09:39.381Z</time></trkpt><trkpt lat="44.0306139" lon="7.939641"><ele>318.0</ele><time>2026-04-30T13:09:40.448Z</time></trkpt><trkpt lat="44.0307982" lon="7.9396397"><ele>322.5</ele><time>2026-04-30T13:09:41.522Z</time></trkpt><trkpt lat="44.030965" lon="7.9396398"><ele>327.0</ele><time>2026-04-30T13:09:42.493Z</time></trkpt><trkpt lat="44.0313086" lon="7.93964"><ele>327.0</ele><time>2026-04-30T13:09:44.41Z</time></trkpt><trkpt lat="44.0314809" lon="7.9396386"><ele>327.0</ele><time>2026-04-30T13:09:45.357Z</time></trkpt><trkpt lat="44.0316761" lon="7.9396368"><ele>327.0</ele><time>2026-04-30T13:09:46.424Z</time></trkpt><trkpt lat="44.0319201" lon="7.9396387"><ele>324.0</ele><time>2026-04-30T13:09:47.747Z</time></trkpt><trkpt lat="44.0322459" lon="7.939641"><ele>321.0</ele><time>2026-04-30T13:09:49.492Z</time></trkpt><trkpt lat="44.0324602" lon="7.9396406"><ele>317.6666666666667</ele><time>2026-04-30T13:09:50.592Z</time></trkpt><trkpt lat="44.0326577" lon="7.9396414"><ele>314.33333333333337</ele><time>2026-04-30T13:09:51.561Z</time></trkpt><trkpt lat="44.0329058" lon="7.9396447"><ele>311.0</ele><time>2026-04-30T13:09:52.763Z</time></trkpt><trkpt lat="44.0331036" lon="7.939644"><ele>312.5</ele><time>2026-04-30T13:09:53.725Z</time></trkpt><trkpt lat="44.0334761" lon="7.9396425"><ele>314.0</ele><time>2026-04-30T13:09:55.566Z</time></trkpt><trkpt lat="44.033791" lon="7.9396191"><ele>333.0</ele><time>2026-04-30T13:09:57.23Z</time></trkpt><trkpt lat="44.0353989" lon="7.9390524"><ele>333.0</ele><time>2026-04-30T13:10:06.153Z</time></trkpt><trkpt lat="44.0355311" lon="7.9388991"><ele>333.0</ele><time>2026-04-30T13:10:07.153Z</time></trkpt><trkpt lat="44.0356487" lon="7.9387297"><ele>333.0</ele><time>2026-04-30T13:10:08.153Z</time></trkpt><trkpt lat="44.0357516" lon="7.9385537"><ele>321.3333333333333</ele><time>2026-04-30T13:10:09.153Z</time></trkpt><trkpt lat="44.0358396" lon="7.938338"><ele>309.66666666666663</ele><time>2026-04-30T13:10:10.153Z</time></trkpt><trkpt lat="44.0359454" lon="7.9380796"><ele>298.0</ele><time>2026-04-30T13:10:11.638Z</time></trkpt><trkpt lat="44.0360228" lon="7.9378313"><ele>298.0</ele><time>2026-04-30T13:10:12.598Z</time></trkpt><trkpt lat="44.0361004" lon="7.9375799"><ele>298.0</ele><time>2026-04-30T13:10:13.601Z</time></trkpt><trkpt lat="44.0361665" lon="7.9373392"><ele>298.0</ele><time>2026-04-30T13:10:14.556Z</time></trkpt><trkpt lat="44.0361633" lon="7.9370198"><ele>303.5</ele><time>2026-04-30T13:10:15.617Z</time></trkpt><trkpt lat="44.0361756" lon="7.9367132"><ele>309.0</ele><time>2026-04-30T13:10:16.578Z</time></trkpt><trkpt lat="44.036183" lon="7.9363383"><ele>309.0</ele><time>2026-04-30T13:10:17.7Z</time></trkpt><trkpt lat="44.0362378" lon="7.9361262"><ele>309.0</ele><time>2026-04-30T13:10:18.703Z</time></trkpt><trkpt lat="44.0364006" lon="7.9358902"><ele>309.0</ele><time>2026-04-30T13:10:20.557Z</time></trkpt><trkpt lat="44.0366246" lon="7.9354882"><ele>302.5</ele><time>2026-04-30T13:10:22.677Z</time></trkpt><trkpt lat="44.036841" lon="7.9351896"><ele>296.0</ele><time>2026-04-30T13:10:24.504Z</time></trkpt><trkpt lat="44.0369434" lon="7.9349825"><ele>296.0</ele><time>2026-04-30T13:10:25.522Z</time></trkpt><trkpt lat="44.0370378" lon="7.9347907"><ele>296.0</ele><time>2026-04-30T13:10:26.466Z</time></trkpt><trkpt lat="44.0371389" lon="7.9345843"><ele>296.0</ele><time>2026-04-30T13:10:27.511Z</time></trkpt><trkpt lat="44.0372384" lon="7.9343725"><ele>303.33333333333337</ele><time>2026-04-30T13:10:28.578Z</time></trkpt><trkpt lat="44.0373187" lon="7.9341829"><ele>310.6666666666667</ele><time>2026-04-30T13:10:29.503Z</time></trkpt><trkpt lat="44.0374018" lon="7.933957"><ele>318.0</ele><time>2026-04-30T13:10:30.597Z</time></trkpt><trkpt lat="44.0375285" lon="7.9335422"><ele>304.6666666666667</ele><time>2026-04-30T13:10:32.507Z</time></trkpt><trkpt lat="44.0375895" lon="7.9333241"><ele>291.33333333333337</ele><time>2026-04-30T13:10:33.513Z</time></trkpt><trkpt lat="44.0376496" lon="7.9331156"><ele>278.0</ele><time>2026-04-30T13:10:34.469Z</time></trkpt><trkpt lat="44.0377168" lon="7.9328855"><ele>278.0</ele><time>2026-04-30T13:10:35.569Z</time></trkpt><trkpt lat="44.0377444" lon="7.932701"><ele>278.0</ele><time>2026-04-30T13:10:36.535Z</time></trkpt><trkpt lat="44.037758" lon="7.9325042"><ele>278.0</ele><time>2026-04-30T13:10:37.438Z</time></trkpt><trkpt lat="44.037753" lon="7.932307"><ele>278.0</ele><time>2026-04-30T13:10:38.445Z</time></trkpt><trkpt lat="44.0377297" lon="7.9320875"><ele>278.5</ele><time>2026-04-30T13:10:39.6Z</time></trkpt><trkpt lat="44.0376437" lon="7.9317239"><ele>279.0</ele><time>2026-04-30T13:10:41.459Z</time></trkpt><trkpt lat="44.0375615" lon="7.9314828"><ele>282.0</ele><time>2026-04-30T13:10:42.528Z</time></trkpt><trkpt lat="44.037382" lon="7.9310447"><ele>285.0</ele><time>2026-04-30T13:10:44.532Z</time></trkpt><trkpt lat="44.037288" lon="7.930849"><ele>285.0</ele><time>2026-04-30T13:10:45.538Z</time></trkpt><trkpt lat="44.0371842" lon="7.9306547"><ele>285.0</ele><time>2026-04-30T13:10:46.537Z</time></trkpt><trkpt lat="44.0370864" lon="7.9304675"><ele>285.0</ele><time>2026-04-30T13:10:47.536Z</time></trkpt><trkpt lat="44.0369852" lon="7.9302758"><ele>285.0</ele><time>2026-04-30T13:10:48.573Z</time></trkpt><trkpt lat="44.0368926" lon="7.9301003"><ele>285.0</ele><time>2026-04-30T13:10:49.486Z</time></trkpt><trkpt lat="44.0367908" lon="7.9299252"><ele>285.0</ele><time>2026-04-30T13:10:50.43Z</time></trkpt><trkpt lat="44.036664" lon="7.929708"><ele>281.25</ele><time>2026-04-30T13:10:51.596Z</time></trkpt><trkpt lat="44.0366864" lon="7.9296114"><ele>277.5</ele><time>2026-04-30T13:10:52.555Z</time></trkpt><trkpt lat="44.0366481" lon="7.9294429"><ele>273.75</ele><time>2026-04-30T13:10:53.467Z</time></trkpt><trkpt lat="44.0366213" lon="7.9292564"><ele>270.0</ele><time>2026-04-30T13:10:54.506Z</time></trkpt><trkpt lat="44.036609" lon="7.9290724"><ele>270.0</ele><time>2026-04-30T13:10:55.471Z</time></trkpt><trkpt lat="44.0366239" lon="7.9288509"><ele>270.0</ele><time>2026-04-30T13:10:56.512Z</time></trkpt><trkpt lat="44.0366526" lon="7.928632"><ele>270.0</ele><time>2026-04-30T13:10:57.541Z</time></trkpt><trkpt lat="44.0367285" lon="7.9284336"><ele>255.33333333333331</ele><time>2026-04-30T13:10:58.655Z</time></trkpt><trkpt lat="44.03688" lon="7.9281042"><ele>240.66666666666666</ele><time>2026-04-30T13:11:00.567Z</time></trkpt><trkpt lat="44.0369416" lon="7.927919"><ele>226.0</ele><time>2026-04-30T13:11:01.599Z</time></trkpt><trkpt lat="44.036996" lon="7.927756"><ele>226.0</ele><time>2026-04-30T13:11:02.525Z</time></trkpt><trkpt lat="44.0370406" lon="7.927572"><ele>226.0</ele><time>2026-04-30T13:11:03.497Z</time></trkpt><trkpt lat="44.0370899" lon="7.9273863"><ele>226.0</ele><time>2026-04-30T13:11:04.461Z</time></trkpt><trkpt lat="44.0371773" lon="7.9271272"><ele>226.0</ele><time>2026-04-30T13:11:05.56Z</time></trkpt><trkpt lat="44.0372525" lon="7.9269267"><ele>226.0</ele><time>2026-04-30T13:11:06.489Z</time></trkpt><trkpt lat="44.0373378" lon="7.926705"><ele>226.0</ele><time>2026-04-30T13:11:07.536Z</time></trkpt><trkpt lat="44.037415" lon="7.9264977"><ele>228.66666666666666</ele><time>2026-04-30T13:11:08.544Z</time></trkpt><trkpt lat="44.0374917" lon="7.9262864"><ele>231.33333333333331</ele><time>2026-04-30T13:11:09.53Z</time></trkpt><trkpt lat="44.0376004" lon="7.926043"><ele>234.0</ele><time>2026-04-30T13:11:10.526Z</time></trkpt><trkpt lat="44.0376982" lon="7.9258212"><ele>236.0</ele><time>2026-04-30T13:11:11.434Z</time></trkpt><trkpt lat="44.0378117" lon="7.9255511"><ele>238.0</ele><time>2026-04-30T13:11:12.578Z</time></trkpt><trkpt lat="44.0379076" lon="7.9253527"><ele>240.0</ele><time>2026-04-30T13:11:13.542Z</time></trkpt><trkpt lat="44.038011" lon="7.9251423"><ele>246.0</ele><time>2026-04-30T13:11:14.578Z</time></trkpt><trkpt lat="44.0381855" lon="7.9248055"><ele>252.0</ele><time>2026-04-30T13:11:16.529Z</time></trkpt><trkpt lat="44.0382867" lon="7.9246345"><ele>246.5</ele><time>2026-04-30T13:11:17.565Z</time></trkpt><trkpt lat="44.0384281" lon="7.9244104"><ele>241.0</ele><time>2026-04-30T13:11:19.547Z</time></trkpt><trkpt lat="44.0384665" lon="7.9244807"><ele>235.5</ele><time>2026-04-30T13:11:21.567Z</time></trkpt><trkpt lat="44.0385473" lon="7.9246244"><ele>230.0</ele><time>2026-04-30T13:11:24.526Z</time></trkpt><trkpt lat="44.0386055" lon="7.9247058"><ele>230.0</ele><time>2026-04-30T13:11:25.559Z</time></trkpt><trkpt lat="44.0386499" lon="7.9248486"><ele>230.0</ele><time>2026-04-30T13:11:26.684Z</time></trkpt><trkpt lat="44.0386104" lon="7.9239475"><ele>235.33333333333334</ele><time>2026-04-30T13:11:28.531Z</time></trkpt><trkpt lat="44.038665" lon="7.9238227"><ele>240.66666666666669</ele><time>2026-04-30T13:11:29.531Z</time></trkpt><trkpt lat="44.0387633" lon="7.9236887"><ele>246.0</ele><time>2026-04-30T13:11:30.546Z</time></trkpt><trkpt lat="44.0389651" lon="7.9233327"><ele>239.0</ele><time>2026-04-30T13:11:32.602Z</time></trkpt><trkpt lat="44.039064" lon="7.9231057"><ele>232.0</ele><time>2026-04-30T13:11:33.638Z</time></trkpt><trkpt lat="44.0392075" lon="7.9226762"><ele>243.5</ele><time>2026-04-30T13:11:35.441Z</time></trkpt><trkpt lat="44.0393633" lon="7.922199"><ele>255.0</ele><time>2026-04-30T13:11:37.347Z</time></trkpt><trkpt lat="44.0488049" lon="7.9046694"><ele>259.0</ele><time>2026-04-30T13:12:46.161Z</time></trkpt><trkpt lat="44.0490047" lon="7.9045633"><ele>263.0</ele><time>2026-04-30T13:12:47.161Z</time></trkpt><trkpt lat="44.0491894" lon="7.9044605"><ele>267.0</ele><time>2026-04-30T13:12:48.16Z</time></trkpt><trkpt lat="44.0493638" lon="7.9043631"><ele>267.0</ele><time>2026-04-30T13:12:49.161Z</time></trkpt><trkpt lat="44.0495242" lon="7.9042656"><ele>267.0</ele><time>2026-04-30T13:12:50.161Z</time></trkpt><trkpt lat="44.0497197" lon="7.9041538"><ele>267.0</ele><time>2026-04-30T13:12:51.778Z</time></trkpt><trkpt lat="44.0498779" lon="7.9040633"><ele>274.3333333333333</ele><time>2026-04-30T13:12:52.693Z</time></trkpt><trkpt lat="44.0500307" lon="7.9039837"><ele>281.66666666666663</ele><time>2026-04-30T13:12:53.716Z</time></trkpt><trkpt lat="44.0502318" lon="7.9039186"><ele>289.0</ele><time>2026-04-30T13:12:55.33Z</time></trkpt><trkpt lat="44.0503619" lon="7.9038371"><ele>289.0</ele><time>2026-04-30T13:12:56.55Z</time></trkpt><trkpt lat="44.0504554" lon="7.9036942"><ele>289.0</ele><time>2026-04-30T13:12:57.576Z</time></trkpt><trkpt lat="44.050551" lon="7.9033241"><ele>289.0</ele><time>2026-04-30T13:12:59.515Z</time></trkpt><trkpt lat="44.0505937" lon="7.9030685"><ele>284.5</ele><time>2026-04-30T13:13:00.628Z</time></trkpt><trkpt lat="44.0507136" lon="7.902571"><ele>280.0</ele><time>2026-04-30T13:13:02.567Z</time></trkpt><trkpt lat="44.0508207" lon="7.9023047"><ele>292.5</ele><time>2026-04-30T13:13:03.545Z</time></trkpt><trkpt lat="44.0510547" lon="7.9017813"><ele>305.0</ele><time>2026-04-30T13:13:05.395Z</time></trkpt><trkpt lat="44.0511879" lon="7.9015105"><ele>305.0</ele><time>2026-04-30T13:13:06.389Z</time></trkpt><trkpt lat="44.0513155" lon="7.9011983"><ele>305.0</ele><time>2026-04-30T13:13:07.412Z</time></trkpt><trkpt lat="44.0514373" lon="7.9009251"><ele>298.5</ele><time>2026-04-30T13:13:08.329Z</time></trkpt><trkpt lat="44.0515754" lon="7.9005014"><ele>292.0</ele><time>2026-04-30T13:13:09.492Z</time></trkpt><trkpt lat="44.051722" lon="7.8998098"><ele>307.5</ele><time>2026-04-30T13:13:11.332Z</time></trkpt><trkpt lat="44.0517649" lon="7.8994339"><ele>323.0</ele><time>2026-04-30T13:13:12.361Z</time></trkpt><trkpt lat="44.0517818" lon="7.8991044"><ele>323.0</ele><time>2026-04-30T13:13:13.456Z</time></trkpt><trkpt lat="44.0518225" lon="7.8988595"><ele>323.0</ele><time>2026-04-30T13:13:14.411Z</time></trkpt><trkpt lat="44.0519059" lon="7.8986192"><ele>323.0</ele><time>2026-04-30T13:13:15.573Z</time></trkpt><trkpt lat="44.0521564" lon="7.898228"><ele>320.5</ele><time>2026-04-30T13:13:17.523Z</time></trkpt><trkpt lat="44.0522833" lon="7.8979387"><ele>318.0</ele><time>2026-04-30T13:13:18.563Z</time></trkpt><trkpt lat="44.0524137" lon="7.8976947"><ele>331.5</ele><time>2026-04-30T13:13:19.538Z</time></trkpt><trkpt lat="44.0525788" lon="7.8973656"><ele>345.0</ele><time>2026-04-30T13:13:20.808Z</time></trkpt><trkpt lat="44.0527268" lon="7.896849"><ele>339.0</ele><time>2026-04-30T13:13:22.46Z</time></trkpt><trkpt lat="44.0527729" lon="7.8965077"><ele>333.0</ele><time>2026-04-30T13:13:23.449Z</time></trkpt><trkpt lat="44.0527987" lon="7.8961942"><ele>333.0</ele><time>2026-04-30T13:13:24.427Z</time></trkpt><trkpt lat="44.0528295" lon="7.8959354"><ele>333.0</ele><time>2026-04-30T13:13:25.432Z</time></trkpt><trkpt lat="44.0528562" lon="7.8956749"><ele>333.0</ele><time>2026-04-30T13:13:26.575Z</time></trkpt><trkpt lat="44.0529306" lon="7.8954202"><ele>333.0</ele><time>2026-04-30T13:13:28.506Z</time></trkpt><trkpt lat="44.0530559" lon="7.8954009"><ele>333.0</ele><time>2026-04-30T13:13:30.497Z</time></trkpt><trkpt lat="44.0531931" lon="7.8953925"><ele>333.0</ele><time>2026-04-30T13:13:31.588Z</time></trkpt><trkpt lat="44.0533515" lon="7.8953617"><ele>333.0</ele><time>2026-04-30T13:13:32.557Z</time></trkpt><trkpt lat="44.05353" lon="7.895329"><ele>338.59999999999997</ele><time>2026-04-30T13:13:33.512Z</time></trkpt><trkpt lat="44.0536689" lon="7.8952765"><ele>344.2</ele><time>2026-04-30T13:13:34.502Z</time></trkpt><trkpt lat="44.0537218" lon="7.8951903"><ele>349.8</ele><time>2026-04-30T13:13:35.43Z</time></trkpt><trkpt lat="44.0537608" lon="7.8950535"><ele>355.4</ele><time>2026-04-30T13:13:36.439Z</time></trkpt><trkpt lat="44.053762" lon="7.8948985"><ele>361.0</ele><time>2026-04-30T13:13:37.541Z</time></trkpt><trkpt lat="44.0535719" lon="7.8945985"><ele>361.0</ele><time>2026-04-30T13:13:39.547Z</time></trkpt><trkpt lat="44.0534716" lon="7.8945071"><ele>361.0</ele><time>2026-04-30T13:13:40.629Z</time></trkpt><trkpt lat="44.0533286" lon="7.8942282"><ele>361.0</ele><time>2026-04-30T13:13:42.598Z</time></trkpt><trkpt lat="44.0532698" lon="7.894014"><ele>355.5</ele><time>2026-04-30T13:13:43.651Z</time></trkpt><trkpt lat="44.053106" lon="7.8935538"><ele>350.0</ele><time>2026-04-30T13:13:45.526Z</time></trkpt><trkpt lat="44.0530331" lon="7.8933327"><ele>350.0</ele><time>2026-04-30T13:13:46.598Z</time></trkpt><trkpt lat="44.0530185" lon="7.8931879"><ele>350.0</ele><time>2026-04-30T13:13:47.545Z</time></trkpt><trkpt lat="44.053058" lon="7.8930382"><ele>350.0</ele><time>2026-04-30T13:13:48.686Z</time></trkpt><trkpt lat="44.0531394" lon="7.8929498"><ele>350.0</ele><time>2026-04-30T13:13:49.603Z</time></trkpt><trkpt lat="44.0532491" lon="7.8928589"><ele>355.6666666666667</ele><time>2026-04-30T13:13:50.732Z</time></trkpt><trkpt lat="44.0533299" lon="7.8927093"><ele>361.3333333333333</ele><time>2026-04-30T13:13:51.918Z</time></trkpt><trkpt lat="44.0532367" lon="7.8924182"><ele>367.0</ele><time>2026-04-30T13:13:53.527Z</time></trkpt><trkpt lat="44.0531509" lon="7.8922751"><ele>367.0</ele><time>2026-04-30T13:13:54.538Z</time></trkpt><trkpt lat="44.0531059" lon="7.8921349"><ele>367.0</ele><time>2026-04-30T13:13:55.542Z</time></trkpt><trkpt lat="44.0531159" lon="7.8919534"><ele>367.0</ele><time>2026-04-30T13:13:56.621Z</time></trkpt><trkpt lat="44.0531605" lon="7.8917901"><ele>367.0</ele><time>2026-04-30T13:13:57.544Z</time></trkpt><trkpt lat="44.0532245" lon="7.8916301"><ele>374.66666666666663</ele><time>2026-04-30T13:13:58.494Z</time></trkpt><trkpt lat="44.0533314" lon="7.8914697"><ele>382.3333333333333</ele><time>2026-04-30T13:13:59.551Z</time></trkpt><trkpt lat="44.0534598" lon="7.8913018"><ele>390.0</ele><time>2026-04-30T13:14:00.605Z</time></trkpt><trkpt lat="44.0537278" lon="7.8909876"><ele>389.0</ele><time>2026-04-30T13:14:02.49Z</time></trkpt><trkpt lat="44.0538962" lon="7.890806"><ele>388.0</ele><time>2026-04-30T13:14:03.578Z</time></trkpt><trkpt lat="44.0540412" lon="7.8906172"><ele>387.0</ele><time>2026-04-30T13:14:04.581Z</time></trkpt><trkpt lat="44.0542541" lon="7.8901817"><ele>394.5</ele><time>2026-04-30T13:14:06.583Z</time></trkpt><trkpt lat="44.0543039" lon="7.889943"><ele>402.0</ele><time>2026-04-30T13:14:07.572Z</time></trkpt><trkpt lat="44.0544824" lon="7.8895887"><ele>402.0</ele><time>2026-04-30T13:14:09.498Z</time></trkpt><trkpt lat="44.0546189" lon="7.8894525"><ele>402.0</ele><time>2026-04-30T13:14:10.526Z</time></trkpt><trkpt lat="44.0547686" lon="7.8893313"><ele>402.0</ele><time>2026-04-30T13:14:11.482Z</time></trkpt><trkpt lat="44.054942" lon="7.889189"><ele>404.66666666666663</ele><time>2026-04-30T13:14:12.542Z</time></trkpt><trkpt lat="44.055086" lon="7.8889981"><ele>407.3333333333333</ele><time>2026-04-30T13:14:13.523Z</time></trkpt><trkpt lat="44.055234" lon="7.8887706"><ele>410.0</ele><time>2026-04-30T13:14:14.538Z</time></trkpt><trkpt lat="44.0553808" lon="7.8885376"><ele>407.66666666666663</ele><time>2026-04-30T13:14:15.568Z</time></trkpt><trkpt lat="44.0555328" lon="7.8883015"><ele>405.33333333333337</ele><time>2026-04-30T13:14:16.602Z</time></trkpt><trkpt lat="44.0556857" lon="7.8880925"><ele>403.0</ele><time>2026-04-30T13:14:17.601Z</time></trkpt><trkpt lat="44.0558356" lon="7.8878988"><ele>405.0</ele><time>2026-04-30T13:14:18.581Z</time></trkpt><trkpt lat="44.0559863" lon="7.8877628"><ele>407.0</ele><time>2026-04-30T13:14:19.538Z</time></trkpt><trkpt lat="44.0561217" lon="7.8876137"><ele>409.0</ele><time>2026-04-30T13:14:20.548Z</time></trkpt><trkpt lat="44.0562276" lon="7.8874494"><ele>409.0</ele><time>2026-04-30T13:14:21.504Z</time></trkpt><trkpt lat="44.0562985" lon="7.8872417"><ele>409.0</ele><time>2026-04-30T13:14:22.539Z</time></trkpt><trkpt lat="44.0563126" lon="7.8870036"><ele>409.0</ele><time>2026-04-30T13:14:23.54Z</time></trkpt><trkpt lat="44.0563473" lon="7.8867891"><ele>405.6666666666667</ele><time>2026-04-30T13:14:24.521Z</time></trkpt><trkpt lat="44.0564429" lon="7.8865887"><ele>402.33333333333337</ele><time>2026-04-30T13:14:25.515Z</time></trkpt><trkpt lat="44.0565696" lon="7.886421"><ele>399.0</ele><time>2026-04-30T13:14:26.496Z</time></trkpt><trkpt lat="44.056713" lon="7.8862254"><ele>407.0</ele><time>2026-04-30T13:14:27.599Z</time></trkpt><trkpt lat="44.0568196" lon="7.8860925"><ele>415.0</ele><time>2026-04-30T13:14:28.527Z</time></trkpt><trkpt lat="44.0569438" lon="7.8860027"><ele>423.0</ele><time>2026-04-30T13:14:29.557Z</time></trkpt><trkpt lat="44.0570629" lon="7.8859929"><ele>431.0</ele><time>2026-04-30T13:14:30.486Z</time></trkpt><trkpt lat="44.0572385" lon="7.8859657"><ele>435.3333333333333</ele><time>2026-04-30T13:14:31.584Z</time></trkpt><trkpt lat="44.0573947" lon="7.8859222"><ele>439.66666666666663</ele><time>2026-04-30T13:14:32.484Z</time></trkpt><trkpt lat="44.0575641" lon="7.8858473"><ele>444.0</ele><time>2026-04-30T13:14:33.575Z</time></trkpt><trkpt lat="44.0576923" lon="7.8858303"><ele>444.0</ele><time>2026-04-30T13:14:34.567Z</time></trkpt><trkpt lat="44.0578054" lon="7.8857659"><ele>444.0</ele><time>2026-04-30T13:14:35.507Z</time></trkpt><trkpt lat="44.0578699" lon="7.8856416"><ele>444.0</ele><time>2026-04-30T13:14:36.536Z</time></trkpt><trkpt lat="44.0578149" lon="7.8854514"><ele>444.0</ele><time>2026-04-30T13:14:37.485Z</time></trkpt><trkpt lat="44.057734" lon="7.8852442"><ele>442.0</ele><time>2026-04-30T13:14:38.505Z</time></trkpt><trkpt lat="44.0576427" lon="7.8850593"><ele>440.0</ele><time>2026-04-30T13:14:39.517Z</time></trkpt><trkpt lat="44.0575578" lon="7.8848855"><ele>438.0</ele><time>2026-04-30T13:14:40.656Z</time></trkpt><trkpt lat="44.0575018" lon="7.8847272"><ele>436.0</ele><time>2026-04-30T13:14:41.756Z</time></trkpt><trkpt lat="44.0575445" lon="7.8844436"><ele>436.0</ele><time>2026-04-30T13:14:43.652Z</time></trkpt><trkpt lat="44.0576708" lon="7.8843103"><ele>436.0</ele><time>2026-04-30T13:14:44.649Z</time></trkpt><trkpt lat="44.0578121" lon="7.8841924"><ele>436.0</ele><time>2026-04-30T13:14:45.731Z</time></trkpt><trkpt lat="44.0579555" lon="7.8838253"><ele>436.33333333333337</ele><time>2026-04-30T13:14:47.701Z</time></trkpt><trkpt lat="44.0579669" lon="7.8835811"><ele>436.66666666666663</ele><time>2026-04-30T13:14:48.701Z</time></trkpt><trkpt lat="44.0579103" lon="7.8832217"><ele>437.0</ele><time>2026-04-30T13:14:50.53Z</time></trkpt><trkpt lat="44.0578343" lon="7.8830951"><ele>437.0</ele><time>2026-04-30T13:14:51.496Z</time></trkpt><trkpt lat="44.057749" lon="7.882982"><ele>437.0</ele><time>2026-04-30T13:14:52.569Z</time></trkpt><trkpt lat="44.0577755" lon="7.8827357"><ele>437.0</ele><time>2026-04-30T13:14:54.582Z</time></trkpt><trkpt lat="44.0579136" lon="7.882371"><ele>436.40000000000003</ele><time>2026-04-30T13:14:56.612Z</time></trkpt><trkpt lat="44.057958" lon="7.8821892"><ele>435.80000000000007</ele><time>2026-04-30T13:14:57.635Z</time></trkpt><trkpt lat="44.0579884" lon="7.8820583"><ele>435.2</ele><time>2026-04-30T13:14:58.558Z</time></trkpt><trkpt lat="44.0580151" lon="7.8819716"><ele>434.6</ele><time>2026-04-30T13:14:59.506Z</time></trkpt><trkpt lat="44.0581106" lon="7.881996"><ele>434.0</ele><time>2026-04-30T13:15:01.67Z</time></trkpt><trkpt lat="44.058493" lon="7.8822968"><ele>446.0</ele><time>2026-04-30T13:15:03.522Z</time></trkpt><trkpt lat="44.0586537" lon="7.8823951"><ele>458.0</ele><time>2026-04-30T13:15:04.505Z</time></trkpt><trkpt lat="44.0588529" lon="7.8824715"><ele>470.0</ele><time>2026-04-30T13:15:05.525Z</time></trkpt><trkpt lat="44.0590536" lon="7.8825176"><ele>472.5</ele><time>2026-04-30T13:15:06.629Z</time></trkpt><trkpt lat="44.0592967" lon="7.8824073"><ele>475.0</ele><time>2026-04-30T13:15:07.591Z</time></trkpt><trkpt lat="44.0595052" lon="7.8823992"><ele>475.0</ele><time>2026-04-30T13:15:08.606Z</time></trkpt><trkpt lat="44.0599244" lon="7.8825735"><ele>475.0</ele><time>2026-04-30T13:15:10.572Z</time></trkpt><trkpt lat="44.0603529" lon="7.8828469"><ele>485.33333333333337</ele><time>2026-04-30T13:15:12.542Z</time></trkpt><trkpt lat="44.0605586" lon="7.8829617"><ele>495.66666666666663</ele><time>2026-04-30T13:15:13.518Z</time></trkpt><trkpt lat="44.0607486" lon="7.8830482"><ele>506.0</ele><time>2026-04-30T13:15:14.528Z</time></trkpt><trkpt lat="44.0609186" lon="7.8830891"><ele>506.0</ele><time>2026-04-30T13:15:15.503Z</time></trkpt><trkpt lat="44.0610724" lon="7.8830668"><ele>506.0</ele><time>2026-04-30T13:15:16.472Z</time></trkpt><trkpt lat="44.0612022" lon="7.8829489"><ele>506.0</ele><time>2026-04-30T13:15:17.603Z</time></trkpt><trkpt lat="44.0612299" lon="7.882803"><ele>506.0</ele><time>2026-04-30T13:15:18.61Z</time></trkpt><trkpt lat="44.0612456" lon="7.8825669"><ele>499.66666666666663</ele><time>2026-04-30T13:15:19.662Z</time></trkpt><trkpt lat="44.0612046" lon="7.88237"><ele>493.33333333333337</ele><time>2026-04-30T13:15:20.627Z</time></trkpt><trkpt lat="44.0611392" lon="7.8821398"><ele>487.0</ele><time>2026-04-30T13:15:21.604Z</time></trkpt><trkpt lat="44.0610521" lon="7.8818398"><ele>485.5</ele><time>2026-04-30T13:15:22.628Z</time></trkpt><trkpt lat="44.0609694" lon="7.8815145"><ele>484.0</ele><time>2026-04-30T13:15:23.659Z</time></trkpt><trkpt lat="44.0609046" lon="7.8812272"><ele>489.0</ele><time>2026-04-30T13:15:24.565Z</time></trkpt><trkpt lat="44.0608522" lon="7.880869"><ele>494.0</ele><time>2026-04-30T13:15:25.729Z</time></trkpt><trkpt lat="44.0607717" lon="7.8803452"><ele>481.0</ele><time>2026-04-30T13:15:27.533Z</time></trkpt><trkpt lat="44.0606983" lon="7.8800263"><ele>468.0</ele><time>2026-04-30T13:15:28.625Z</time></trkpt><trkpt lat="44.0605196" lon="7.8795701"><ele>468.0</ele><time>2026-04-30T13:15:30.435Z</time></trkpt><trkpt lat="44.0604189" lon="7.879354"><ele>468.0</ele><time>2026-04-30T13:15:31.469Z</time></trkpt><trkpt lat="44.0603231" lon="7.8791449"><ele>468.0</ele><time>2026-04-30T13:15:32.591Z</time></trkpt><trkpt lat="44.0602596" lon="7.8787476"><ele>474.66666666666663</ele><time>2026-04-30T13:15:34.553Z</time></trkpt><trkpt lat="44.0603021" lon="7.8785501"><ele>481.3333333333333</ele><time>2026-04-30T13:15:35.607Z</time></trkpt><trkpt lat="44.0603766" lon="7.8783877"><ele>488.0</ele><time>2026-04-30T13:15:36.514Z</time></trkpt><trkpt lat="44.0605078" lon="7.8782173"><ele>490.0</ele><time>2026-04-30T13:15:37.553Z</time></trkpt><trkpt lat="44.0606259" lon="7.8780653"><ele>492.0</ele><time>2026-04-30T13:15:38.581Z</time></trkpt><trkpt lat="44.0607422" lon="7.877965"><ele>494.0</ele><time>2026-04-30T13:15:39.562Z</time></trkpt><trkpt lat="44.0608907" lon="7.8779062"><ele>511.5</ele><time>2026-04-30T13:15:40.645Z</time></trkpt><trkpt lat="44.0611973" lon="7.8779478"><ele>529.0</ele><time>2026-04-30T13:15:42.474Z</time></trkpt><trkpt lat="44.0613832" lon="7.8779487"><ele>529.0</ele><time>2026-04-30T13:15:43.572Z</time></trkpt><trkpt lat="44.0615588" lon="7.877953"><ele>529.0</ele><time>2026-04-30T13:15:44.593Z</time></trkpt><trkpt lat="44.0617065" lon="7.8779616"><ele>529.0</ele><time>2026-04-30T13:15:45.518Z</time></trkpt><trkpt lat="44.0618709" lon="7.8779537"><ele>541.0</ele><time>2026-04-30T13:15:46.597Z</time></trkpt><trkpt lat="44.0622024" lon="7.8778747"><ele>553.0</ele><time>2026-04-30T13:15:48.745Z</time></trkpt><trkpt lat="44.0624794" lon="7.8777813"><ele>557.1999999999999</ele><time>2026-04-30T13:15:50.604Z</time></trkpt><trkpt lat="44.062601" lon="7.8777272"><ele>561.4</ele><time>2026-04-30T13:15:51.668Z</time></trkpt><trkpt lat="44.062691" lon="7.8776843"><ele>565.5999999999999</ele><time>2026-04-30T13:15:52.617Z</time></trkpt><trkpt lat="44.0627852" lon="7.8776483"><ele>569.8</ele><time>2026-04-30T13:15:53.611Z</time></trkpt><trkpt lat="44.0629041" lon="7.8776607"><ele>574.0</ele><time>2026-04-30T13:15:54.741Z</time></trkpt><trkpt lat="44.0630844" lon="7.8777084"><ele>574.0</ele><time>2026-04-30T13:15:56.533Z</time></trkpt><trkpt lat="44.063178" lon="7.8777243"><ele>574.0</ele><time>2026-04-30T13:15:57.486Z</time></trkpt><trkpt lat="44.063284" lon="7.8777241"><ele>574.0</ele><time>2026-04-30T13:15:58.548Z</time></trkpt><trkpt lat="44.0633801" lon="7.8777076"><ele>574.0</ele><time>2026-04-30T13:15:59.53Z</time></trkpt><trkpt lat="44.063472" lon="7.8776687"><ele>574.0</ele><time>2026-04-30T13:16:00.512Z</time></trkpt><trkpt lat="44.0635562" lon="7.8776148"><ele>565.25</ele><time>2026-04-30T13:16:01.455Z</time></trkpt><trkpt lat="44.0636481" lon="7.8775417"><ele>556.5</ele><time>2026-04-30T13:16:02.499Z</time></trkpt><trkpt lat="44.0637471" lon="7.8774551"><ele>547.75</ele><time>2026-04-30T13:16:03.587Z</time></trkpt><trkpt lat="44.0638392" lon="7.8773728"><ele>539.0</ele><time>2026-04-30T13:16:04.529Z</time></trkpt><trkpt lat="44.0639424" lon="7.877289"><ele>539.0</ele><time>2026-04-30T13:16:05.511Z</time></trkpt><trkpt lat="44.0640613" lon="7.8771935"><ele>539.0</ele><time>2026-04-30T13:16:06.532Z</time></trkpt><trkpt lat="44.064186" lon="7.8770911"><ele>539.0</ele><time>2026-04-30T13:16:07.593Z</time></trkpt><trkpt lat="44.0644194" lon="7.8768698"><ele>538.0</ele><time>2026-04-30T13:16:09.556Z</time></trkpt><trkpt lat="44.0645584" lon="7.8767304"><ele>537.0</ele><time>2026-04-30T13:16:10.525Z</time></trkpt><trkpt lat="44.0647108" lon="7.8765785"><ele>536.0</ele><time>2026-04-30T13:16:11.481Z</time></trkpt><trkpt lat="44.0648897" lon="7.87641"><ele>548.5</ele><time>2026-04-30T13:16:12.494Z</time></trkpt><trkpt lat="44.0650912" lon="7.8762218"><ele>561.0</ele><time>2026-04-30T13:16:13.602Z</time></trkpt><trkpt lat="44.0652644" lon="7.8760625"><ele>561.0</ele><time>2026-04-30T13:16:14.647Z</time></trkpt><trkpt lat="44.0653819" lon="7.8759464"><ele>561.0</ele><time>2026-04-30T13:16:15.499Z</time></trkpt><trkpt lat="44.0654976" lon="7.8757871"><ele>561.0</ele><time>2026-04-30T13:16:16.602Z</time></trkpt><trkpt lat="44.0655591" lon="7.8754279"><ele>553.0</ele><time>2026-04-30T13:16:18.602Z</time></trkpt><trkpt lat="44.0655172" lon="7.8752069"><ele>545.0</ele><time>2026-04-30T13:16:19.639Z</time></trkpt><trkpt lat="44.06539" lon="7.8747663"><ele>543.3333333333333</ele><time>2026-04-30T13:16:21.54Z</time></trkpt><trkpt lat="44.065344" lon="7.8745448"><ele>541.6666666666666</ele><time>2026-04-30T13:16:22.597Z</time></trkpt><trkpt lat="44.0653375" lon="7.8743526"><ele>540.0</ele><time>2026-04-30T13:16:23.633Z</time></trkpt><trkpt lat="44.065459" lon="7.8740441"><ele>539.3333333333334</ele><time>2026-04-30T13:16:25.544Z</time></trkpt><trkpt lat="44.065591" lon="7.873941"><ele>538.6666666666667</ele><time>2026-04-30T13:16:26.563Z</time></trkpt><trkpt lat="44.0657531" lon="7.8738672"><ele>538.0</ele><time>2026-04-30T13:16:27.568Z</time></trkpt><trkpt lat="44.0659115" lon="7.8738037"><ele>553.6666666666667</ele><time>2026-04-30T13:16:28.475Z</time></trkpt><trkpt lat="44.0661115" lon="7.8737266"><ele>569.3333333333334</ele><time>2026-04-30T13:16:29.512Z</time></trkpt><trkpt lat="44.0663275" lon="7.8736446"><ele>585.0</ele><time>2026-04-30T13:16:30.571Z</time></trkpt><trkpt lat="44.0665191" lon="7.8735465"><ele>582.0</ele><time>2026-04-30T13:16:31.66Z</time></trkpt><trkpt lat="44.0666589" lon="7.8734383"><ele>579.0</ele><time>2026-04-30T13:16:32.568Z</time></trkpt><trkpt lat="44.0667838" lon="7.8733052"><ele>576.0</ele><time>2026-04-30T13:16:33.502Z</time></trkpt><trkpt lat="44.0669069" lon="7.8731988"><ele>576.0</ele><time>2026-04-30T13:16:34.522Z</time></trkpt><trkpt lat="44.0670217" lon="7.8731537"><ele>576.0</ele><time>2026-04-30T13:16:35.527Z</time></trkpt><trkpt lat="44.0671542" lon="7.8731852"><ele>576.0</ele><time>2026-04-30T13:16:36.612Z</time></trkpt><trkpt lat="44.0672791" lon="7.8732396"><ele>576.0</ele><time>2026-04-30T13:16:37.542Z</time></trkpt><trkpt lat="44.067423" lon="7.8732891"><ele>581.25</ele><time>2026-04-30T13:16:38.538Z</time></trkpt><trkpt lat="44.0675605" lon="7.8732858"><ele>586.5</ele><time>2026-04-30T13:16:39.526Z</time></trkpt><trkpt lat="44.0676867" lon="7.8732403"><ele>591.75</ele><time>2026-04-30T13:16:40.532Z</time></trkpt><trkpt lat="44.0677991" lon="7.873173"><ele>597.0</ele><time>2026-04-30T13:16:41.518Z</time></trkpt><trkpt lat="44.0679356" lon="7.8731319"><ele>597.0</ele><time>2026-04-30T13:16:42.529Z</time></trkpt><trkpt lat="44.0680882" lon="7.8731509"><ele>597.0</ele><time>2026-04-30T13:16:43.515Z</time></trkpt><trkpt lat="44.0682387" lon="7.8732084"><ele>597.0</ele><time>2026-04-30T13:16:44.533Z</time></trkpt><trkpt lat="44.0683748" lon="7.8732781"><ele>601.0</ele><time>2026-04-30T13:16:45.522Z</time></trkpt><trkpt lat="44.0685564" lon="7.87332"><ele>605.0</ele><time>2026-04-30T13:16:46.655Z</time></trkpt><trkpt lat="44.0687538" lon="7.8732555"><ele>609.0</ele><time>2026-04-30T13:16:48.538Z</time></trkpt><trkpt lat="44.0690242" lon="7.8729719"><ele>610.0</ele><time>2026-04-30T13:16:50.645Z</time></trkpt><trkpt lat="44.0693731" lon="7.8728879"><ele>611.0</ele><time>2026-04-30T13:16:52.552Z</time></trkpt><trkpt lat="44.0697578" lon="7.8729387"><ele>611.0</ele><time>2026-04-30T13:16:54.59Z</time></trkpt><trkpt lat="44.0699171" lon="7.8729681"><ele>611.0</ele><time>2026-04-30T13:16:55.556Z</time></trkpt><trkpt lat="44.0700738" lon="7.8730053"><ele>611.0</ele><time>2026-04-30T13:16:56.645Z</time></trkpt><trkpt lat="44.0702764" lon="7.8730344"><ele>611.0</ele><time>2026-04-30T13:16:58.658Z</time></trkpt><trkpt lat="44.0703797" lon="7.872886"><ele>611.0</ele><time>2026-04-30T13:17:00.62Z</time></trkpt><trkpt lat="44.0703829" lon="7.872714"><ele>611.0</ele><time>2026-04-30T13:17:01.704Z</time></trkpt><trkpt lat="44.0703357" lon="7.8725434"><ele>611.0</ele><time>2026-04-30T13:17:02.63Z</time></trkpt><trkpt lat="44.0702733" lon="7.8723274"><ele>611.0</ele><time>2026-04-30T13:17:03.633Z</time></trkpt><trkpt lat="44.0701996" lon="7.872135"><ele>611.0</ele><time>2026-04-30T13:17:04.626Z</time></trkpt><trkpt lat="44.0701498" lon="7.8719602"><ele>611.0</ele><time>2026-04-30T13:17:05.637Z</time></trkpt><trkpt lat="44.0701132" lon="7.8717717"><ele>611.0</ele><time>2026-04-30T13:17:06.721Z</time></trkpt><trkpt lat="44.0700886" lon="7.8715879"><ele>612.3333333333333</ele><time>2026-04-30T13:17:07.725Z</time></trkpt><trkpt lat="44.0700864" lon="7.8714229"><ele>613.6666666666666</ele><time>2026-04-30T13:17:08.779Z</time></trkpt><trkpt lat="44.0700763" lon="7.8710975"><ele>615.0</ele><time>2026-04-30T13:17:10.67Z</time></trkpt><trkpt lat="44.070056" lon="7.870858"><ele>616.5</ele><time>2026-04-30T13:17:11.749Z</time></trkpt><trkpt lat="44.0700241" lon="7.8706345"><ele>618.0</ele><time>2026-04-30T13:17:12.711Z</time></trkpt><trkpt lat="44.0699991" lon="7.8704215"><ele>619.5</ele><time>2026-04-30T13:17:13.755Z</time></trkpt><trkpt lat="44.0699883" lon="7.8702681"><ele>621.0</ele><time>2026-04-30T13:17:14.531Z</time></trkpt><trkpt lat="44.0699711" lon="7.8700366"><ele>623.5</ele><time>2026-04-30T13:17:15.723Z</time></trkpt><trkpt lat="44.0699588" lon="7.8698563"><ele>626.0</ele><time>2026-04-30T13:17:16.674Z</time></trkpt><trkpt lat="44.0699415" lon="7.8696797"><ele>628.5</ele><time>2026-04-30T13:17:17.675Z</time></trkpt><trkpt lat="44.0699222" lon="7.8695137"><ele>631.0</ele><time>2026-04-30T13:17:18.588Z</time></trkpt><trkpt lat="44.0698915" lon="7.8693322"><ele>621.0</ele><time>2026-04-30T13:17:19.664Z</time></trkpt><trkpt lat="44.0697748" lon="7.8689787"><ele>611.0</ele><time>2026-04-30T13:17:21.814Z</time></trkpt><trkpt lat="44.0695651" lon="7.8687778"><ele>611.0</ele><time>2026-04-30T13:17:23.851Z</time></trkpt><trkpt lat="44.0694953" lon="7.8686699"><ele>611.0</ele><time>2026-04-30T13:17:24.766Z</time></trkpt><trkpt lat="44.0694602" lon="7.8685196"><ele>611.0</ele><time>2026-04-30T13:17:25.722Z</time></trkpt><trkpt lat="44.0694928" lon="7.8683052"><ele>611.0</ele><time>2026-04-30T13:17:26.815Z</time></trkpt><trkpt lat="44.0696454" lon="7.8679669"><ele>614.0</ele><time>2026-04-30T13:17:28.767Z</time></trkpt><trkpt lat="44.0698922" lon="7.8677313"><ele>617.0</ele><time>2026-04-30T13:17:30.644Z</time></trkpt><trkpt lat="44.0700447" lon="7.8675203"><ele>620.0</ele><time>2026-04-30T13:17:31.857Z</time></trkpt><trkpt lat="44.0702379" lon="7.867103"><ele>623.0</ele><time>2026-04-30T13:17:33.675Z</time></trkpt><trkpt lat="44.0703699" lon="7.8667462"><ele>623.0</ele><time>2026-04-30T13:17:35.51Z</time></trkpt><trkpt lat="44.0704307" lon="7.8665608"><ele>623.0</ele><time>2026-04-30T13:17:36.611Z</time></trkpt><trkpt lat="44.0705867" lon="7.866366"><ele>623.0</ele><time>2026-04-30T13:17:38.572Z</time></trkpt><trkpt lat="44.070791" lon="7.8664457"><ele>629.75</ele><time>2026-04-30T13:17:40.579Z</time></trkpt><trkpt lat="44.070878" lon="7.8665754"><ele>636.5</ele><time>2026-04-30T13:17:41.523Z</time></trkpt><trkpt lat="44.0709965" lon="7.866702"><ele>643.25</ele><time>2026-04-30T13:17:42.546Z</time></trkpt><trkpt lat="44.0711503" lon="7.8668009"><ele>650.0</ele><time>2026-04-30T13:17:43.673Z</time></trkpt><trkpt lat="44.0714171" lon="7.8668508"><ele>670.0</ele><time>2026-04-30T13:17:45.607Z</time></trkpt><trkpt lat="44.0716973" lon="7.8670691"><ele>690.0</ele><time>2026-04-30T13:17:47.528Z</time></trkpt><trkpt lat="44.0718646" lon="7.8671595"><ele>690.0</ele><time>2026-04-30T13:17:48.559Z</time></trkpt><trkpt lat="44.0720219" lon="7.8671797"><ele>690.0</ele><time>2026-04-30T13:17:49.517Z</time></trkpt><trkpt lat="44.0721758" lon="7.8671652"><ele>690.0</ele><time>2026-04-30T13:17:50.566Z</time></trkpt><trkpt lat="44.0724414" lon="7.8672247"><ele>689.8</ele><time>2026-04-30T13:17:52.539Z</time></trkpt><trkpt lat="44.0725405" lon="7.8672934"><ele>689.6</ele><time>2026-04-30T13:17:53.44Z</time></trkpt><trkpt lat="44.072655" lon="7.8673598"><ele>689.4000000000001</ele><time>2026-04-30T13:17:54.573Z</time></trkpt><trkpt lat="44.0727472" lon="7.867365"><ele>689.2</ele><time>2026-04-30T13:17:55.562Z</time></trkpt><trkpt lat="44.0728176" lon="7.8673529"><ele>689.0</ele><time>2026-04-30T13:17:56.492Z</time></trkpt><trkpt lat="44.0728883" lon="7.8673435"><ele>689.0</ele><time>2026-04-30T13:17:57.618Z</time></trkpt><trkpt lat="44.0730347" lon="7.8673022"><ele>689.0</ele><time>2026-04-30T13:17:59.664Z</time></trkpt><trkpt lat="44.0731322" lon="7.8672946"><ele>689.0</ele><time>2026-04-30T13:18:00.61Z</time></trkpt><trkpt lat="44.073369" lon="7.8673512"><ele>688.5</ele><time>2026-04-30T13:18:02.48Z</time></trkpt><trkpt lat="44.0734684" lon="7.8673747"><ele>688.0</ele><time>2026-04-30T13:18:03.544Z</time></trkpt><trkpt lat="44.0735796" lon="7.8673829"><ele>687.5</ele><time>2026-04-30T13:18:04.79Z</time></trkpt><trkpt lat="44.0736492" lon="7.8673773"><ele>687.0</ele><time>2026-04-30T13:18:05.717Z</time></trkpt><trkpt lat="44.0737395" lon="7.8673588"><ele>686.5</ele><time>2026-04-30T13:18:07.611Z</time></trkpt><trkpt lat="44.073804" lon="7.8673254"><ele>686.0</ele><time>2026-04-30T13:20:36.504Z</time></trkpt><trkpt lat="44.0738758" lon="7.867313"><ele>686.0</ele><time>2026-04-30T13:20:37.528Z</time></trkpt><trkpt lat="44.073963" lon="7.8672964"><ele>686.0</ele><time>2026-04-30T13:20:38.545Z</time></trkpt><trkpt lat="44.0740683" lon="7.8672855"><ele>686.0</ele><time>2026-04-30T13:20:39.53Z</time></trkpt><trkpt lat="44.0741918" lon="7.8672823"><ele>686.0</ele><time>2026-04-30T13:20:40.6Z</time></trkpt><trkpt lat="44.0743094" lon="7.8672924"><ele>686.0</ele><time>2026-04-30T13:20:41.525Z</time></trkpt><trkpt lat="44.0744279" lon="7.8673293"><ele>688.3333333333333</ele><time>2026-04-30T13:20:42.441Z</time></trkpt><trkpt lat="44.0745707" lon="7.8674152"><ele>690.6666666666666</ele><time>2026-04-30T13:20:43.55Z</time></trkpt><trkpt lat="44.0747034" lon="7.8674894"><ele>693.0</ele><time>2026-04-30T13:20:44.484Z</time></trkpt><trkpt lat="44.0748797" lon="7.8675707"><ele>714.0</ele><time>2026-04-30T13:20:45.639Z</time></trkpt><trkpt lat="44.0752128" lon="7.8676379"><ele>735.0</ele><time>2026-04-30T13:20:47.577Z</time></trkpt><trkpt lat="44.0753765" lon="7.8676659"><ele>735.0</ele><time>2026-04-30T13:20:48.541Z</time></trkpt><trkpt lat="44.0755377" lon="7.8677038"><ele>735.0</ele><time>2026-04-30T13:20:49.494Z</time></trkpt><trkpt lat="44.0757192" lon="7.8677565"><ele>735.0</ele><time>2026-04-30T13:20:50.625Z</time></trkpt><trkpt lat="44.0758728" lon="7.8678222"><ele>733.3333333333334</ele><time>2026-04-30T13:20:51.65Z</time></trkpt><trkpt lat="44.07601" lon="7.8678863"><ele>731.6666666666667</ele><time>2026-04-30T13:20:52.656Z</time></trkpt><trkpt lat="44.0762294" lon="7.8679499"><ele>730.0</ele><time>2026-04-30T13:20:54.711Z</time></trkpt><trkpt lat="44.0763673" lon="7.8678199"><ele>718.3333333333334</ele><time>2026-04-30T13:20:56.659Z</time></trkpt><trkpt lat="44.0763475" lon="7.8675472"><ele>706.6666666666666</ele><time>2026-04-30T13:20:58.767Z</time></trkpt><trkpt lat="44.0762153" lon="7.8672606"><ele>695.0</ele><time>2026-04-30T13:21:00.665Z</time></trkpt><trkpt lat="44.0761477" lon="7.8670759"><ele>695.0</ele><time>2026-04-30T13:21:01.704Z</time></trkpt><trkpt lat="44.0760965" lon="7.8668874"><ele>695.0</ele><time>2026-04-30T13:21:02.64Z</time></trkpt><trkpt lat="44.0760555" lon="7.866677"><ele>695.0</ele><time>2026-04-30T13:21:03.603Z</time></trkpt><trkpt lat="44.0760199" lon="7.8664345"><ele>694.0</ele><time>2026-04-30T13:21:04.639Z</time></trkpt><trkpt lat="44.0759987" lon="7.8662054"><ele>693.0</ele><time>2026-04-30T13:21:05.577Z</time></trkpt><trkpt lat="44.0759883" lon="7.8659238"><ele>692.0</ele><time>2026-04-30T13:21:06.701Z</time></trkpt><trkpt lat="44.075997" lon="7.8656695"><ele>695.3333333333333</ele><time>2026-04-30T13:21:07.698Z</time></trkpt><trkpt lat="44.0760142" lon="7.8654103"><ele>698.6666666666666</ele><time>2026-04-30T13:21:08.809Z</time></trkpt><trkpt lat="44.0760226" lon="7.8652196"><ele>702.0</ele><time>2026-04-30T13:21:09.756Z</time></trkpt><trkpt lat="44.0759416" lon="7.8648556"><ele>703.5</ele><time>2026-04-30T13:21:11.616Z</time></trkpt><trkpt lat="44.0758728" lon="7.8646958"><ele>705.0</ele><time>2026-04-30T13:21:12.605Z</time></trkpt><trkpt lat="44.0758191" lon="7.8645417"><ele>706.5</ele><time>2026-04-30T13:21:13.582Z</time></trkpt><trkpt lat="44.0757899" lon="7.8643802"><ele>708.0</ele><time>2026-04-30T13:21:14.554Z</time></trkpt><trkpt lat="44.0758084" lon="7.8641897"><ele>710.5</ele><time>2026-04-30T13:21:15.603Z</time></trkpt><trkpt lat="44.0758458" lon="7.8640023"><ele>713.0</ele><time>2026-04-30T13:21:16.561Z</time></trkpt><trkpt lat="44.0758878" lon="7.8637902"><ele>715.5</ele><time>2026-04-30T13:21:17.594Z</time></trkpt><trkpt lat="44.0759482" lon="7.8636108"><ele>718.0</ele><time>2026-04-30T13:21:18.542Z</time></trkpt><trkpt lat="44.0760364" lon="7.8634497"><ele>718.0</ele><time>2026-04-30T13:21:19.559Z</time></trkpt><trkpt lat="44.0761612" lon="7.8633112"><ele>718.0</ele><time>2026-04-30T13:21:20.623Z</time></trkpt><trkpt lat="44.0763939" lon="7.8630794"><ele>718.0</ele><time>2026-04-30T13:21:22.528Z</time></trkpt><trkpt lat="44.076518" lon="7.8627563"><ele>714.3333333333334</ele><time>2026-04-30T13:21:24.634Z</time></trkpt><trkpt lat="44.076572" lon="7.8623988"><ele>710.6666666666666</ele><time>2026-04-30T13:21:26.583Z</time></trkpt><trkpt lat="44.0766536" lon="7.8622556"><ele>707.0</ele><time>2026-04-30T13:21:27.591Z</time></trkpt><trkpt lat="44.0767384" lon="7.8621159"><ele>709.5</ele><time>2026-04-30T13:21:28.532Z</time></trkpt><trkpt lat="44.076838" lon="7.861954"><ele>712.0</ele><time>2026-04-30T13:21:29.595Z</time></trkpt><trkpt lat="44.0769486" lon="7.8618328"><ele>714.5</ele><time>2026-04-30T13:21:30.597Z</time></trkpt><trkpt lat="44.0770742" lon="7.8617627"><ele>717.0</ele><time>2026-04-30T13:21:31.518Z</time></trkpt><trkpt lat="44.0772279" lon="7.8617322"><ele>717.0</ele><time>2026-04-30T13:21:32.541Z</time></trkpt><trkpt lat="44.0773925" lon="7.8617593"><ele>717.0</ele><time>2026-04-30T13:21:33.642Z</time></trkpt><trkpt lat="44.0775274" lon="7.8618293"><ele>717.0</ele><time>2026-04-30T13:21:34.597Z</time></trkpt><trkpt lat="44.0776534" lon="7.8619266"><ele>723.0</ele><time>2026-04-30T13:21:35.652Z</time></trkpt><trkpt lat="44.0778117" lon="7.8619965"><ele>729.0</ele><time>2026-04-30T13:21:37.57Z</time></trkpt><trkpt lat="44.0778857" lon="7.8619157"><ele>735.0</ele><time>2026-04-30T13:21:38.576Z</time></trkpt><trkpt lat="44.0780343" lon="7.8615949"><ele>735.0</ele><time>2026-04-30T13:21:40.5Z</time></trkpt><trkpt lat="44.0780992" lon="7.8614105"><ele>735.0</ele><time>2026-04-30T13:21:41.466Z</time></trkpt><trkpt lat="44.0781868" lon="7.8612325"><ele>735.0</ele><time>2026-04-30T13:21:42.467Z</time></trkpt><trkpt lat="44.0783229" lon="7.8610744"><ele>739.6666666666666</ele><time>2026-04-30T13:21:43.617Z</time></trkpt><trkpt lat="44.0784504" lon="7.860963"><ele>744.3333333333333</ele><time>2026-04-30T13:21:44.563Z</time></trkpt><trkpt lat="44.078574" lon="7.8608098"><ele>749.0</ele><time>2026-04-30T13:21:45.555Z</time></trkpt><trkpt lat="44.0786881" lon="7.860623"><ele>749.0</ele><time>2026-04-30T13:21:46.522Z</time></trkpt><trkpt lat="44.0788165" lon="7.8604186"><ele>749.0</ele><time>2026-04-30T13:21:47.554Z</time></trkpt><trkpt lat="44.0789308" lon="7.8602235"><ele>749.0</ele><time>2026-04-30T13:21:48.591Z</time></trkpt><trkpt lat="44.079006" lon="7.8600224"><ele>745.3333333333333</ele><time>2026-04-30T13:21:49.57Z</time></trkpt><trkpt lat="44.079047" lon="7.8598139"><ele>741.6666666666666</ele><time>2026-04-30T13:21:50.524Z</time></trkpt><trkpt lat="44.0790609" lon="7.8595474"><ele>738.0</ele><time>2026-04-30T13:21:51.618Z</time></trkpt><trkpt lat="44.0790683" lon="7.8593245"><ele>747.0</ele><time>2026-04-30T13:21:52.576Z</time></trkpt><trkpt lat="44.0791249" lon="7.8591262"><ele>756.0</ele><time>2026-04-30T13:21:53.602Z</time></trkpt><trkpt lat="44.0792219" lon="7.858947"><ele>765.0</ele><time>2026-04-30T13:21:54.622Z</time></trkpt><trkpt lat="44.0793383" lon="7.8587764"><ele>757.3333333333334</ele><time>2026-04-30T13:21:55.605Z</time></trkpt><trkpt lat="44.0795345" lon="7.8584281"><ele>749.6666666666667</ele><time>2026-04-30T13:21:57.544Z</time></trkpt><trkpt lat="44.0795622" lon="7.8582955"><ele>742.0</ele><time>2026-04-30T13:21:58.474Z</time></trkpt><trkpt lat="44.0798021" lon="7.8582585"><ele>742.0</ele><time>2026-04-30T13:22:00.353Z</time></trkpt><trkpt lat="44.0799019" lon="7.8581099"><ele>742.0</ele><time>2026-04-30T13:22:01.441Z</time></trkpt><trkpt lat="44.0799688" lon="7.8579258"><ele>742.0</ele><time>2026-04-30T13:22:02.54Z</time></trkpt><trkpt lat="44.0800211" lon="7.857746"><ele>742.0</ele><time>2026-04-30T13:22:03.579Z</time></trkpt><trkpt lat="44.080041" lon="7.8576171"><ele>741.0</ele><time>2026-04-30T13:22:04.515Z</time></trkpt><trkpt lat="44.0800023" lon="7.8574587"><ele>740.0</ele><time>2026-04-30T13:22:05.481Z</time></trkpt><trkpt lat="44.0799025" lon="7.8573213"><ele>739.0</ele><time>2026-04-30T13:22:06.472Z</time></trkpt><trkpt lat="44.0797751" lon="7.8572122"><ele>738.0</ele><time>2026-04-30T13:22:07.532Z</time></trkpt><trkpt lat="44.0796633" lon="7.8570778"><ele>738.0</ele><time>2026-04-30T13:22:08.559Z</time></trkpt><trkpt lat="44.0796074" lon="7.856879"><ele>738.0</ele><time>2026-04-30T13:22:09.597Z</time></trkpt><trkpt lat="44.0796" lon="7.8566019"><ele>738.0</ele><time>2026-04-30T13:22:10.837Z</time></trkpt><trkpt lat="44.0797749" lon="7.856317"><ele>756.0</ele><time>2026-04-30T13:22:12.716Z</time></trkpt><trkpt lat="44.080031" lon="7.8562031"><ele>774.0</ele><time>2026-04-30T13:22:14.531Z</time></trkpt><trkpt lat="44.0801832" lon="7.8561134"><ele>792.0</ele><time>2026-04-30T13:22:15.572Z</time></trkpt><trkpt lat="44.0803353" lon="7.8559643"><ele>789.0</ele><time>2026-04-30T13:22:16.733Z</time></trkpt><trkpt lat="44.0804725" lon="7.8556676"><ele>786.0</ele><time>2026-04-30T13:22:18.49Z</time></trkpt><trkpt lat="44.0804981" lon="7.8555167"><ele>783.0</ele><time>2026-04-30T13:22:19.48Z</time></trkpt><trkpt lat="44.0805115" lon="7.8553788"><ele>783.0</ele><time>2026-04-30T13:22:20.505Z</time></trkpt><trkpt lat="44.0805452" lon="7.8552632"><ele>783.0</ele><time>2026-04-30T13:22:21.622Z</time></trkpt><trkpt lat="44.0806072" lon="7.8551969"><ele>783.0</ele><time>2026-04-30T13:22:22.561Z</time></trkpt><trkpt lat="44.0806812" lon="7.8552331"><ele>783.0</ele><time>2026-04-30T13:22:23.622Z</time></trkpt><trkpt lat="44.0807269" lon="7.8553227"><ele>783.0</ele><time>2026-04-30T13:22:24.605Z</time></trkpt><trkpt lat="44.0807158" lon="7.8554738"><ele>783.0</ele><time>2026-04-30T13:22:25.681Z</time></trkpt><trkpt lat="44.0806765" lon="7.85564"><ele>786.0</ele><time>2026-04-30T13:22:26.698Z</time></trkpt><trkpt lat="44.0805399" lon="7.8559655"><ele>789.0</ele><time>2026-04-30T13:22:28.603Z</time></trkpt><trkpt lat="44.0804385" lon="7.85611"><ele>792.0</ele><time>2026-04-30T13:22:29.528Z</time></trkpt><trkpt lat="44.0803181" lon="7.8562258"><ele>792.0</ele><time>2026-04-30T13:22:30.452Z</time></trkpt><trkpt lat="44.0802055" lon="7.8563041"><ele>792.0</ele><time>2026-04-30T13:22:31.515Z</time></trkpt><trkpt lat="44.0801298" lon="7.856433"><ele>792.0</ele><time>2026-04-30T13:22:32.514Z</time></trkpt><trkpt lat="44.0801024" lon="7.8566044"><ele>792.0</ele><time>2026-04-30T13:22:33.609Z</time></trkpt><trkpt lat="44.0801917" lon="7.8569463"><ele>787.0</ele><time>2026-04-30T13:22:35.518Z</time></trkpt><trkpt lat="44.0802861" lon="7.8570686"><ele>782.0</ele><time>2026-04-30T13:22:36.479Z</time></trkpt><trkpt lat="44.0804178" lon="7.8571697"><ele>777.0</ele><time>2026-04-30T13:22:37.578Z</time></trkpt><trkpt lat="44.0805908" lon="7.8573777"><ele>777.0</ele><time>2026-04-30T13:22:39.521Z</time></trkpt><trkpt lat="44.0806232" lon="7.8575566"><ele>777.0</ele><time>2026-04-30T13:22:40.693Z</time></trkpt><trkpt lat="44.0805988" lon="7.8578763"><ele>777.0</ele><time>2026-04-30T13:22:42.704Z</time></trkpt><trkpt lat="44.080608" lon="7.8581759"><ele>777.25</ele><time>2026-04-30T13:22:44.583Z</time></trkpt><trkpt lat="44.0806781" lon="7.8583419"><ele>777.5</ele><time>2026-04-30T13:22:45.663Z</time></trkpt><trkpt lat="44.0807696" lon="7.8584616"><ele>777.75</ele><time>2026-04-30T13:22:46.594Z</time></trkpt><trkpt lat="44.0808715" lon="7.8585426"><ele>778.0</ele><time>2026-04-30T13:22:47.567Z</time></trkpt><trkpt lat="44.080977" lon="7.8586115"><ele>784.5</ele><time>2026-04-30T13:22:48.658Z</time></trkpt><trkpt lat="44.0810411" lon="7.858761"><ele>791.0</ele><time>2026-04-30T13:22:50.633Z</time></trkpt><trkpt lat="44.0809795" lon="7.8588388"><ele>797.5</ele><time>2026-04-30T13:22:51.648Z</time></trkpt><trkpt lat="44.0808608" lon="7.8589193"><ele>804.0</ele><time>2026-04-30T13:22:52.708Z</time></trkpt><trkpt lat="44.0807241" lon="7.8589996"><ele>804.0</ele><time>2026-04-30T13:22:53.818Z</time></trkpt><trkpt lat="44.0804824" lon="7.8591555"><ele>804.0</ele><time>2026-04-30T13:22:55.608Z</time></trkpt><trkpt lat="44.0803518" lon="7.8592677"><ele>804.0</ele><time>2026-04-30T13:22:56.609Z</time></trkpt><trkpt lat="44.0802424" lon="7.859434"><ele>807.6666666666667</ele><time>2026-04-30T13:22:57.579Z</time></trkpt><trkpt lat="44.0801661" lon="7.8596348"><ele>811.3333333333334</ele><time>2026-04-30T13:22:58.557Z</time></trkpt><trkpt lat="44.0801055" lon="7.8599328"><ele>815.0</ele><time>2026-04-30T13:22:59.779Z</time></trkpt><trkpt lat="44.0801417" lon="7.8601616"><ele>815.0</ele><time>2026-04-30T13:23:00.658Z</time></trkpt><trkpt lat="44.0802388" lon="7.8605011"><ele>815.0</ele><time>2026-04-30T13:23:01.788Z</time></trkpt><trkpt lat="44.0803506" lon="7.8610462"><ele>815.5</ele><time>2026-04-30T13:23:03.613Z</time></trkpt><trkpt lat="44.0804362" lon="7.8613718"><ele>816.0</ele><time>2026-04-30T13:23:04.701Z</time></trkpt><trkpt lat="44.0805956" lon="7.8619479"><ele>817.0</ele><time>2026-04-30T13:23:06.547Z</time></trkpt><trkpt lat="44.0807625" lon="7.862582"><ele>823.0</ele><time>2026-04-30T13:23:08.769Z</time></trkpt><trkpt lat="44.0808044" lon="7.862972"><ele>829.0</ele><time>2026-04-30T13:23:10.613Z</time></trkpt><trkpt lat="44.080762" lon="7.8632021"><ele>829.0</ele><time>2026-04-30T13:23:11.584Z</time></trkpt><trkpt lat="44.0806466" lon="7.863381"><ele>829.0</ele><time>2026-04-30T13:23:12.597Z</time></trkpt><trkpt lat="44.0804044" lon="7.8637624"><ele>834.0</ele><time>2026-04-30T13:23:14.614Z</time></trkpt><trkpt lat="44.0802633" lon="7.8641495"><ele>839.0</ele><time>2026-04-30T13:23:16.469Z</time></trkpt><trkpt lat="44.0802218" lon="7.8643218"><ele>844.0</ele><time>2026-04-30T13:23:17.449Z</time></trkpt><trkpt lat="44.0801966" lon="7.8645018"><ele>844.5</ele><time>2026-04-30T13:23:18.48Z</time></trkpt><trkpt lat="44.0802018" lon="7.8646212"><ele>845.0</ele><time>2026-04-30T13:23:19.536Z</time></trkpt><trkpt lat="44.0802741" lon="7.864813"><ele>845.5</ele><time>2026-04-30T13:23:20.841Z</time></trkpt><trkpt lat="44.0803585" lon="7.8648947"><ele>846.0</ele><time>2026-04-30T13:23:21.522Z</time></trkpt><trkpt lat="44.0805164" lon="7.8649979"><ele>856.5</ele><time>2026-04-30T13:23:22.779Z</time></trkpt><trkpt lat="44.080768" lon="7.8651072"><ele>867.0</ele><time>2026-04-30T13:23:24.731Z</time></trkpt><trkpt lat="44.0808676" lon="7.8654089"><ele>867.0</ele><time>2026-04-30T13:23:26.614Z</time></trkpt><trkpt lat="44.080846" lon="7.8656287"><ele>867.0</ele><time>2026-04-30T13:23:27.683Z</time></trkpt><trkpt lat="44.0808089" lon="7.865843"><ele>867.0</ele><time>2026-04-30T13:23:28.653Z</time></trkpt><trkpt lat="44.0807872" lon="7.866122"><ele>871.0</ele><time>2026-04-30T13:23:29.872Z</time></trkpt><trkpt lat="44.0808002" lon="7.8666184"><ele>875.0</ele><time>2026-04-30T13:23:31.89Z</time></trkpt><trkpt lat="44.0807637" lon="7.8670763"><ele>874.0</ele><time>2026-04-30T13:23:33.804Z</time></trkpt><trkpt lat="44.0805559" lon="7.8674728"><ele>873.0</ele><time>2026-04-30T13:23:35.542Z</time></trkpt><trkpt lat="44.0804482" lon="7.867688"><ele>873.0</ele><time>2026-04-30T13:23:36.617Z</time></trkpt><trkpt lat="44.0803766" lon="7.867867"><ele>873.0</ele><time>2026-04-30T13:23:37.523Z</time></trkpt><trkpt lat="44.080331" lon="7.8680776"><ele>873.0</ele><time>2026-04-30T13:23:38.44Z</time></trkpt><trkpt lat="44.0803119" lon="7.8683362"><ele>880.6666666666667</ele><time>2026-04-30T13:23:39.57Z</time></trkpt><trkpt lat="44.0802758" lon="7.8685515"><ele>888.3333333333334</ele><time>2026-04-30T13:23:40.61Z</time></trkpt><trkpt lat="44.080225" lon="7.8687163"><ele>896.0</ele><time>2026-04-30T13:23:41.351Z</time></trkpt><trkpt lat="44.0800867" lon="7.8689459"><ele>877.5</ele><time>2026-04-30T13:23:42.597Z</time></trkpt><trkpt lat="44.0798422" lon="7.8692326"><ele>859.0</ele><time>2026-04-30T13:23:44.493Z</time></trkpt><trkpt lat="44.0797387" lon="7.8693811"><ele>857.6666666666666</ele><time>2026-04-30T13:23:45.627Z</time></trkpt><trkpt lat="44.0796969" lon="7.8694897"><ele>856.3333333333333</ele><time>2026-04-30T13:23:46.537Z</time></trkpt><trkpt lat="44.0796767" lon="7.8696627"><ele>855.0</ele><time>2026-04-30T13:23:47.781Z</time></trkpt><trkpt lat="44.0798131" lon="7.8699401"><ele>881.0</ele><time>2026-04-30T13:23:49.861Z</time></trkpt><trkpt lat="44.0799631" lon="7.870301"><ele>907.0</ele><time>2026-04-30T13:23:51.711Z</time></trkpt><trkpt lat="44.0799965" lon="7.8705719"><ele>902.5</ele><time>2026-04-30T13:23:52.805Z</time></trkpt><trkpt lat="44.0799891" lon="7.8710327"><ele>898.0</ele><time>2026-04-30T13:23:54.762Z</time></trkpt><trkpt lat="44.0800769" lon="7.8714714"><ele>893.5</ele><time>2026-04-30T13:23:56.711Z</time></trkpt><trkpt lat="44.0802992" lon="7.8718488"><ele>889.0</ele><time>2026-04-30T13:23:58.923Z</time></trkpt><trkpt lat="44.0804466" lon="7.8719608"><ele>904.0</ele><time>2026-04-30T13:23:59.921Z</time></trkpt><trkpt lat="44.080777" lon="7.8720709"><ele>919.0</ele><time>2026-04-30T13:24:01.55Z</time></trkpt><trkpt lat="44.0809883" lon="7.8721646"><ele>919.0</ele><time>2026-04-30T13:24:02.561Z</time></trkpt><trkpt lat="44.0812045" lon="7.8722604"><ele>919.0</ele><time>2026-04-30T13:24:03.639Z</time></trkpt><trkpt lat="44.0814308" lon="7.8723629"><ele>927.0</ele><time>2026-04-30T13:24:04.707Z</time></trkpt><trkpt lat="44.0818657" lon="7.8725567"><ele>931.0</ele><time>2026-04-30T13:24:06.674Z</time></trkpt><trkpt lat="44.0822745" lon="7.8727318"><ele>935.0</ele><time>2026-04-30T13:24:08.519Z</time></trkpt><trkpt lat="44.0824761" lon="7.8728226"><ele>935.0</ele><time>2026-04-30T13:24:09.514Z</time></trkpt><trkpt lat="44.0826937" lon="7.8729003"><ele>935.0</ele><time>2026-04-30T13:24:10.615Z</time></trkpt><trkpt lat="44.0828877" lon="7.8729156"><ele>935.0</ele><time>2026-04-30T13:24:11.614Z</time></trkpt><trkpt lat="44.0830665" lon="7.8728951"><ele>935.3333333333334</ele><time>2026-04-30T13:24:12.528Z</time></trkpt><trkpt lat="44.0832901" lon="7.8728411"><ele>935.6666666666667</ele><time>2026-04-30T13:24:13.572Z</time></trkpt><trkpt lat="44.0834972" lon="7.8727839"><ele>936.0</ele><time>2026-04-30T13:24:14.531Z</time></trkpt><trkpt lat="44.0837056" lon="7.872743"><ele>936.0</ele><time>2026-04-30T13:24:15.462Z</time></trkpt><trkpt lat="44.0839354" lon="7.872744"><ele>936.0</ele><time>2026-04-30T13:24:16.491Z</time></trkpt><trkpt lat="44.0841483" lon="7.8727814"><ele>936.0</ele><time>2026-04-30T13:24:17.573Z</time></trkpt><trkpt lat="44.0843068" lon="7.8728242"><ele>937.6666666666667</ele><time>2026-04-30T13:24:18.514Z</time></trkpt><trkpt lat="44.0844896" lon="7.8728785"><ele>939.3333333333334</ele><time>2026-04-30T13:24:19.738Z</time></trkpt><trkpt lat="44.0847123" lon="7.8729142"><ele>941.0</ele><time>2026-04-30T13:24:21.566Z</time></trkpt><trkpt lat="44.0848202" lon="7.8729195"><ele>939.75</ele><time>2026-04-30T13:24:22.559Z</time></trkpt><trkpt lat="44.0849376" lon="7.8729193"><ele>938.5</ele><time>2026-04-30T13:24:23.683Z</time></trkpt><trkpt lat="44.0851207" lon="7.8729114"><ele>937.25</ele><time>2026-04-30T13:24:25.613Z</time></trkpt><trkpt lat="44.0852018" lon="7.8729075"><ele>936.0</ele><time>2026-04-30T13:24:26.589Z</time></trkpt><trkpt lat="44.0852922" lon="7.8729017"><ele>936.0</ele><time>2026-04-30T13:24:27.517Z</time></trkpt><trkpt lat="44.0854185" lon="7.8729015"><ele>936.0</ele><time>2026-04-30T13:24:28.57Z</time></trkpt><trkpt lat="44.0857131" lon="7.8728957"><ele>936.0</ele><time>2026-04-30T13:24:30.503Z</time></trkpt><trkpt lat="44.0858792" lon="7.8728901"><ele>934.3333333333333</ele><time>2026-04-30T13:24:31.506Z</time></trkpt><trkpt lat="44.0860843" lon="7.8728856"><ele>932.6666666666666</ele><time>2026-04-30T13:24:32.708Z</time></trkpt><trkpt lat="44.0862868" lon="7.8728746"><ele>931.0</ele><time>2026-04-30T13:24:33.847Z</time></trkpt><trkpt lat="44.086445" lon="7.8728694"><ele>930.6666666666666</ele><time>2026-04-30T13:24:34.718Z</time></trkpt><trkpt lat="44.0866054" lon="7.8728679"><ele>930.3333333333333</ele><time>2026-04-30T13:24:35.586Z</time></trkpt><trkpt lat="44.086807" lon="7.8728824"><ele>930.0</ele><time>2026-04-30T13:24:36.669Z</time></trkpt><trkpt lat="44.087007" lon="7.8729228"><ele>930.0</ele><time>2026-04-30T13:24:37.736Z</time></trkpt><trkpt lat="44.0871798" lon="7.8729794"><ele>930.0</ele><time>2026-04-30T13:24:38.676Z</time></trkpt><trkpt lat="44.0873851" lon="7.8730547"><ele>930.0</ele><time>2026-04-30T13:24:39.787Z</time></trkpt><trkpt lat="44.0877789" lon="7.873137"><ele>930.0</ele><time>2026-04-30T13:24:41.861Z</time></trkpt><trkpt lat="44.0881568" lon="7.873185"><ele>930.0</ele><time>2026-04-30T13:24:43.819Z</time></trkpt><trkpt lat="44.088337" lon="7.8732367"><ele>926.0</ele><time>2026-04-30T13:24:44.74Z</time></trkpt><trkpt lat="44.0887303" lon="7.8734597"><ele>922.0</ele><time>2026-04-30T13:24:46.781Z</time></trkpt><trkpt lat="44.0890934" lon="7.8736993"><ele>919.5</ele><time>2026-04-30T13:24:48.88Z</time></trkpt><trkpt lat="44.0892812" lon="7.8737569"><ele>917.0</ele><time>2026-04-30T13:24:49.878Z</time></trkpt><trkpt lat="44.0897185" lon="7.8737223"><ele>917.0</ele><time>2026-04-30T13:24:51.83Z</time></trkpt><trkpt lat="44.0898966" lon="7.8736951"><ele>917.0</ele><time>2026-04-30T13:24:52.607Z</time></trkpt><trkpt lat="44.0901981" lon="7.8736563"><ele>916.5</ele><time>2026-04-30T13:24:53.891Z</time></trkpt><trkpt lat="44.0906138" lon="7.8736072"><ele>916.0</ele><time>2026-04-30T13:24:55.643Z</time></trkpt><trkpt lat="44.0908466" lon="7.8735763"><ele>915.0</ele><time>2026-04-30T13:24:56.643Z</time></trkpt><trkpt lat="44.0910636" lon="7.8735557"><ele>914.0</ele><time>2026-04-30T13:24:57.587Z</time></trkpt><trkpt lat="44.0912965" lon="7.8735214"><ele>915.0</ele><time>2026-04-30T13:24:58.68Z</time></trkpt><trkpt lat="44.0916737" lon="7.8733703"><ele>916.0</ele><time>2026-04-30T13:25:00.622Z</time></trkpt><trkpt lat="44.0920329" lon="7.8731508"><ele>916.0</ele><time>2026-04-30T13:25:02.654Z</time></trkpt><trkpt lat="44.0922082" lon="7.8731185"><ele>916.0</ele><time>2026-04-30T13:25:03.581Z</time></trkpt><trkpt lat="44.0924148" lon="7.8731397"><ele>916.0</ele><time>2026-04-30T13:25:04.612Z</time></trkpt><trkpt lat="44.0926207" lon="7.8731924"><ele>914.0</ele><time>2026-04-30T13:25:05.625Z</time></trkpt><trkpt lat="44.0928171" lon="7.8732139"><ele>912.0</ele><time>2026-04-30T13:25:06.573Z</time></trkpt><trkpt lat="44.0930624" lon="7.8731821"><ele>910.0</ele><time>2026-04-30T13:25:07.742Z</time></trkpt><trkpt lat="44.0934417" lon="7.8729282"><ele>909.5</ele><time>2026-04-30T13:25:09.579Z</time></trkpt><trkpt lat="44.0936471" lon="7.8727957"><ele>909.0</ele><time>2026-04-30T13:25:10.624Z</time></trkpt><trkpt lat="44.0941149" lon="7.8726042"><ele>909.0</ele><time>2026-04-30T13:25:12.762Z</time></trkpt><trkpt lat="44.094521" lon="7.8724647"><ele>909.0</ele><time>2026-04-30T13:25:14.78Z</time></trkpt><trkpt lat="44.0946165" lon="7.8724218"><ele>909.0</ele><time>2026-04-30T13:25:15.725Z</time></trkpt><trkpt lat="44.0947377" lon="7.872385"><ele>909.0</ele><time>2026-04-30T13:25:16.668Z</time></trkpt><trkpt lat="44.0949256" lon="7.8723244"><ele>909.0</ele><time>2026-04-30T13:25:17.764Z</time></trkpt><trkpt lat="44.0950992" lon="7.8722859"><ele>907.0</ele><time>2026-04-30T13:25:18.71Z</time></trkpt><trkpt lat="44.0953119" lon="7.8722417"><ele>905.0</ele><time>2026-04-30T13:25:19.777Z</time></trkpt><trkpt lat="44.0957263" lon="7.8721256"><ele>903.0</ele><time>2026-04-30T13:25:21.782Z</time></trkpt><trkpt lat="44.0961235" lon="7.8720037"><ele>901.0</ele><time>2026-04-30T13:25:23.689Z</time></trkpt><trkpt lat="44.0963238" lon="7.8719442"><ele>901.0</ele><time>2026-04-30T13:25:24.597Z</time></trkpt><trkpt lat="44.0965669" lon="7.8718713"><ele>901.0</ele><time>2026-04-30T13:25:25.692Z</time></trkpt><trkpt lat="44.0968022" lon="7.8718023"><ele>900.5</ele><time>2026-04-30T13:25:26.725Z</time></trkpt><trkpt lat="44.0970332" lon="7.8717285"><ele>900.0</ele><time>2026-04-30T13:25:27.722Z</time></trkpt><trkpt lat="44.0973083" lon="7.871641"><ele>895.0</ele><time>2026-04-30T13:25:28.913Z</time></trkpt><trkpt lat="44.0977587" lon="7.8715001"><ele>895.0</ele><time>2026-04-30T13:25:30.856Z</time></trkpt><trkpt lat="44.0982134" lon="7.8713517"><ele>893.5</ele><time>2026-04-30T13:25:32.869Z</time></trkpt><trkpt lat="44.0985946" lon="7.8712129"><ele>892.0</ele><time>2026-04-30T13:25:34.687Z</time></trkpt><trkpt lat="44.0987888" lon="7.8711415"><ele>891.0</ele><time>2026-04-30T13:25:35.698Z</time></trkpt><trkpt lat="44.0991383" lon="7.8710914"><ele>890.0</ele><time>2026-04-30T13:25:37.535Z</time></trkpt><trkpt lat="44.0993456" lon="7.8711374"><ele>890.0</ele><time>2026-04-30T13:25:38.614Z</time></trkpt><trkpt lat="44.0995257" lon="7.8711902"><ele>890.0</ele><time>2026-04-30T13:25:39.554Z</time></trkpt><trkpt lat="44.0997307" lon="7.8712236"><ele>890.0</ele><time>2026-04-30T13:25:40.59Z</time></trkpt><trkpt lat="44.0999466" lon="7.8712175"><ele>888.0</ele><time>2026-04-30T13:25:41.592Z</time></trkpt><trkpt lat="44.100171" lon="7.8711729"><ele>886.0</ele><time>2026-04-30T13:25:42.583Z</time></trkpt><trkpt lat="44.1004114" lon="7.8711243"><ele>886.0</ele><time>2026-04-30T13:25:43.632Z</time></trkpt><trkpt lat="44.1006369" lon="7.8710817"><ele>886.0</ele><time>2026-04-30T13:25:44.593Z</time></trkpt><trkpt lat="44.1008775" lon="7.8710236"><ele>886.0</ele><time>2026-04-30T13:25:45.588Z</time></trkpt><trkpt lat="44.1011054" lon="7.8709663"><ele>886.0</ele><time>2026-04-30T13:25:46.562Z</time></trkpt><trkpt lat="44.1013459" lon="7.8708959"><ele>888.5</ele><time>2026-04-30T13:25:47.577Z</time></trkpt><trkpt lat="44.1016037" lon="7.8708255"><ele>891.0</ele><time>2026-04-30T13:25:48.641Z</time></trkpt><trkpt lat="44.1018523" lon="7.8707584"><ele>891.0</ele><time>2026-04-30T13:25:49.567Z</time></trkpt><trkpt lat="44.1020884" lon="7.8706929"><ele>891.0</ele><time>2026-04-30T13:25:50.563Z</time></trkpt><trkpt lat="44.1023234" lon="7.8706314"><ele>888.0</ele><time>2026-04-30T13:25:51.595Z</time></trkpt><trkpt lat="44.1025384" lon="7.8705807"><ele>885.0</ele><time>2026-04-30T13:25:52.564Z</time></trkpt><trkpt lat="44.1027918" lon="7.8705385"><ele>885.0</ele><time>2026-04-30T13:25:53.687Z</time></trkpt><trkpt lat="44.1031776" lon="7.8705693"><ele>885.0</ele><time>2026-04-30T13:25:55.356Z</time></trkpt><trkpt lat="44.1034219" lon="7.8706475"><ele>884.3333333333333</ele><time>2026-04-30T13:25:56.523Z</time></trkpt><trkpt lat="44.1036366" lon="7.8707281"><ele>883.6666666666666</ele><time>2026-04-30T13:25:57.556Z</time></trkpt><trkpt lat="44.1038419" lon="7.8708037"><ele>883.0</ele><time>2026-04-30T13:25:58.573Z</time></trkpt><trkpt lat="44.1040555" lon="7.8708644"><ele>882.0</ele><time>2026-04-30T13:25:59.597Z</time></trkpt><trkpt lat="44.1042419" lon="7.8709083"><ele>881.0</ele><time>2026-04-30T13:26:00.557Z</time></trkpt><trkpt lat="44.1044392" lon="7.8709388"><ele>880.0</ele><time>2026-04-30T13:26:01.596Z</time></trkpt><trkpt lat="44.1046313" lon="7.8709561"><ele>877.5</ele><time>2026-04-30T13:26:02.642Z</time></trkpt><trkpt lat="44.1049565" lon="7.8709646"><ele>875.0</ele><time>2026-04-30T13:26:04.571Z</time></trkpt><trkpt lat="44.105119" lon="7.870966"><ele>875.0</ele><time>2026-04-30T13:26:05.619Z</time></trkpt><trkpt lat="44.1054018" lon="7.8709633"><ele>875.0</ele><time>2026-04-30T13:26:07.493Z</time></trkpt><trkpt lat="44.1055723" lon="7.8709668"><ele>875.0</ele><time>2026-04-30T13:26:08.576Z</time></trkpt><trkpt lat="44.1057448" lon="7.8709759"><ele>875.0</ele><time>2026-04-30T13:26:09.683Z</time></trkpt><trkpt lat="44.1060654" lon="7.8710308"><ele>873.6666666666667</ele><time>2026-04-30T13:26:11.609Z</time></trkpt><trkpt lat="44.1062266" lon="7.8710706"><ele>872.3333333333333</ele><time>2026-04-30T13:26:12.613Z</time></trkpt><trkpt lat="44.1063939" lon="7.8711312"><ele>871.0</ele><time>2026-04-30T13:26:13.693Z</time></trkpt><trkpt lat="44.1066824" lon="7.8712411"><ele>871.0</ele><time>2026-04-30T13:26:15.662Z</time></trkpt><trkpt lat="44.1068305" lon="7.8712737"><ele>871.0</ele><time>2026-04-30T13:26:16.655Z</time></trkpt><trkpt lat="44.1069736" lon="7.8712776"><ele>871.0</ele><time>2026-04-30T13:26:17.654Z</time></trkpt><trkpt lat="44.1070982" lon="7.8712541"><ele>871.0</ele><time>2026-04-30T13:26:18.594Z</time></trkpt><trkpt lat="44.1072286" lon="7.8711999"><ele>871.0</ele><time>2026-04-30T13:26:19.6Z</time></trkpt><trkpt lat="44.1073798" lon="7.871107"><ele>871.0</ele><time>2026-04-30T13:26:20.798Z</time></trkpt><trkpt lat="44.1076358" lon="7.8710124"><ele>871.0</ele><time>2026-04-30T13:26:22.677Z</time></trkpt><trkpt lat="44.1079216" lon="7.8709876"><ele>870.0</ele><time>2026-04-30T13:26:24.77Z</time></trkpt><trkpt lat="44.1080526" lon="7.8709561"><ele>869.0</ele><time>2026-04-30T13:26:25.709Z</time></trkpt><trkpt lat="44.1081817" lon="7.8709141"><ele>868.0</ele><time>2026-04-30T13:26:26.748Z</time></trkpt><trkpt lat="44.1084126" lon="7.8707815"><ele>867.0</ele><time>2026-04-30T13:26:28.675Z</time></trkpt><trkpt lat="44.1085268" lon="7.8707124"><ele>866.0</ele><time>2026-04-30T13:26:29.644Z</time></trkpt><trkpt lat="44.1086536" lon="7.8706184"><ele>865.0</ele><time>2026-04-30T13:26:30.812Z</time></trkpt><trkpt lat="44.1088154" lon="7.870411"><ele>865.0</ele><time>2026-04-30T13:26:32.59Z</time></trkpt><trkpt lat="44.1088921" lon="7.8702877"><ele>865.0</ele><time>2026-04-30T13:26:33.556Z</time></trkpt><trkpt lat="44.1089734" lon="7.8701454"><ele>865.0</ele><time>2026-04-30T13:26:34.619Z</time></trkpt><trkpt lat="44.1090511" lon="7.8700072"><ele>865.0</ele><time>2026-04-30T13:26:35.614Z</time></trkpt><trkpt lat="44.1091202" lon="7.8698906"><ele>866.0</ele><time>2026-04-30T13:26:36.542Z</time></trkpt><trkpt lat="44.1091888" lon="7.869777"><ele>867.0</ele><time>2026-04-30T13:26:37.453Z</time></trkpt><trkpt lat="44.109277" lon="7.8696471"><ele>868.0</ele><time>2026-04-30T13:26:38.552Z</time></trkpt><trkpt lat="44.1093654" lon="7.869553"><ele>869.0</ele><time>2026-04-30T13:26:39.537Z</time></trkpt><trkpt lat="44.109468" lon="7.8694703"><ele>869.0</ele><time>2026-04-30T13:26:40.564Z</time></trkpt><trkpt lat="44.1095884" lon="7.8694169"><ele>869.0</ele><time>2026-04-30T13:26:41.626Z</time></trkpt><trkpt lat="44.109831" lon="7.8694208"><ele>869.0</ele><time>2026-04-30T13:26:43.696Z</time></trkpt><trkpt lat="44.1099371" lon="7.869441"><ele>868.75</ele><time>2026-04-30T13:26:44.657Z</time></trkpt><trkpt lat="44.1100528" lon="7.8694465"><ele>868.5</ele><time>2026-04-30T13:26:45.678Z</time></trkpt><trkpt lat="44.1101557" lon="7.8694286"><ele>868.25</ele><time>2026-04-30T13:26:46.608Z</time></trkpt><trkpt lat="44.1102757" lon="7.8693901"><ele>868.0</ele><time>2026-04-30T13:26:47.648Z</time></trkpt><trkpt lat="44.1103966" lon="7.8693409"><ele>868.0</ele><time>2026-04-30T13:26:48.631Z</time></trkpt><trkpt lat="44.1105241" lon="7.8692897"><ele>868.0</ele><time>2026-04-30T13:26:49.67Z</time></trkpt><trkpt lat="44.1106574" lon="7.8692416"><ele>868.0</ele><time>2026-04-30T13:26:50.648Z</time></trkpt><trkpt lat="44.1107838" lon="7.8691905"><ele>868.0</ele><time>2026-04-30T13:26:51.641Z</time></trkpt><trkpt lat="44.1109238" lon="7.8691433"><ele>867.3333333333333</ele><time>2026-04-30T13:26:52.682Z</time></trkpt><trkpt lat="44.1111864" lon="7.8690953"><ele>866.6666666666667</ele><time>2026-04-30T13:26:54.678Z</time></trkpt><trkpt lat="44.1113285" lon="7.8691166"><ele>866.0</ele><time>2026-04-30T13:26:55.755Z</time></trkpt><trkpt lat="44.1115836" lon="7.8691888"><ele>864.5</ele><time>2026-04-30T13:26:57.7Z</time></trkpt><trkpt lat="44.1117017" lon="7.8692227"><ele>863.0</ele><time>2026-04-30T13:26:58.653Z</time></trkpt><trkpt lat="44.1118217" lon="7.8692541"><ele>861.5</ele><time>2026-04-30T13:26:59.669Z</time></trkpt><trkpt lat="44.1119378" lon="7.8692715"><ele>860.0</ele><time>2026-04-30T13:27:00.67Z</time></trkpt><trkpt lat="44.1120708" lon="7.869254"><ele>860.0</ele><time>2026-04-30T13:27:01.712Z</time></trkpt><trkpt lat="44.1123324" lon="7.8691564"><ele>860.0</ele><time>2026-04-30T13:27:03.71Z</time></trkpt><trkpt lat="44.1125768" lon="7.8691214"><ele>858.6666666666667</ele><time>2026-04-30T13:27:05.58Z</time></trkpt><trkpt lat="44.1127339" lon="7.8690764"><ele>857.3333333333333</ele><time>2026-04-30T13:27:06.739Z</time></trkpt><trkpt lat="44.1129736" lon="7.8689335"><ele>856.0</ele><time>2026-04-30T13:27:08.67Z</time></trkpt><trkpt lat="44.1130936" lon="7.8688453"><ele>856.0</ele><time>2026-04-30T13:27:09.711Z</time></trkpt><trkpt lat="44.1132136" lon="7.868743"><ele>856.0</ele><time>2026-04-30T13:27:10.757Z</time></trkpt><trkpt lat="44.1134562" lon="7.8685494"><ele>856.0</ele><time>2026-04-30T13:27:12.814Z</time></trkpt><trkpt lat="44.1137098" lon="7.8684654"><ele>858.6666666666666</ele><time>2026-04-30T13:27:14.612Z</time></trkpt><trkpt lat="44.1139511" lon="7.868436"><ele>861.3333333333333</ele><time>2026-04-30T13:27:16.471Z</time></trkpt><trkpt lat="44.1140952" lon="7.8684392"><ele>864.0</ele><time>2026-04-30T13:27:17.602Z</time></trkpt><trkpt lat="44.1142239" lon="7.8684359"><ele>856.0</ele><time>2026-04-30T13:27:18.583Z</time></trkpt><trkpt lat="44.1143504" lon="7.8683921"><ele>848.0</ele><time>2026-04-30T13:27:19.557Z</time></trkpt><trkpt lat="44.1144954" lon="7.8682915"><ele>840.0</ele><time>2026-04-30T13:27:20.778Z</time></trkpt><trkpt lat="44.1147151" lon="7.8680844"><ele>840.0</ele><time>2026-04-30T13:27:22.73Z</time></trkpt><trkpt lat="44.1148376" lon="7.8679949"><ele>840.0</ele><time>2026-04-30T13:27:23.657Z</time></trkpt><trkpt lat="44.1149669" lon="7.8679135"><ele>840.0</ele><time>2026-04-30T13:27:24.568Z</time></trkpt><trkpt lat="44.1152595" lon="7.8677806"><ele>839.0</ele><time>2026-04-30T13:27:26.615Z</time></trkpt><trkpt lat="44.1154035" lon="7.8677348"><ele>838.0</ele><time>2026-04-30T13:27:27.631Z</time></trkpt><trkpt lat="44.1155561" lon="7.8676964"><ele>837.0</ele><time>2026-04-30T13:27:28.663Z</time></trkpt><trkpt lat="44.11569" lon="7.8676662"><ele>836.0</ele><time>2026-04-30T13:27:29.599Z</time></trkpt><trkpt lat="44.1158326" lon="7.8676351"><ele>837.6666666666667</ele><time>2026-04-30T13:27:30.546Z</time></trkpt><trkpt lat="44.1159944" lon="7.8676003"><ele>839.3333333333333</ele><time>2026-04-30T13:27:31.669Z</time></trkpt><trkpt lat="44.1161321" lon="7.8675797"><ele>841.0</ele><time>2026-04-30T13:27:32.614Z</time></trkpt><trkpt lat="44.1162952" lon="7.8675744"><ele>841.0</ele><time>2026-04-30T13:27:33.746Z</time></trkpt><trkpt lat="44.1164318" lon="7.8675869"><ele>841.0</ele><time>2026-04-30T13:27:34.687Z</time></trkpt><trkpt lat="44.1165784" lon="7.8676"><ele>841.0</ele><time>2026-04-30T13:27:35.671Z</time></trkpt><trkpt lat="44.1167269" lon="7.8676096"><ele>841.0</ele><time>2026-04-30T13:27:36.682Z</time></trkpt><trkpt lat="44.1170219" lon="7.8675979"><ele>839.0</ele><time>2026-04-30T13:27:38.721Z</time></trkpt><trkpt lat="44.1171576" lon="7.8675773"><ele>837.0</ele><time>2026-04-30T13:27:39.711Z</time></trkpt><trkpt lat="44.1172826" lon="7.8675454"><ele>835.0</ele><time>2026-04-30T13:27:40.721Z</time></trkpt><trkpt lat="44.1173873" lon="7.8675097"><ele>833.0</ele><time>2026-04-30T13:27:41.708Z</time></trkpt><trkpt lat="44.1175419" lon="7.8674641"><ele>830.0</ele><time>2026-04-30T13:27:43.069Z</time></trkpt><trkpt lat="44.1176643" lon="7.8675493"><ele>827.0</ele><time>2026-04-30T13:27:44.688Z</time></trkpt><trkpt lat="44.1177925" lon="7.8676756"><ele>824.0</ele><time>2026-04-30T13:27:46.697Z</time></trkpt><trkpt lat="44.1178628" lon="7.8677353"><ele>821.0</ele><time>2026-04-30T13:27:47.779Z</time></trkpt><trkpt lat="44.1179888" lon="7.8678492"><ele>819.5999999999999</ele><time>2026-04-30T13:27:49.573Z</time></trkpt><trkpt lat="44.1181064" lon="7.8679486"><ele>818.2</ele><time>2026-04-30T13:27:51.556Z</time></trkpt><trkpt lat="44.1181584" lon="7.8680099"><ele>816.8</ele><time>2026-04-30T13:27:52.61Z</time></trkpt><trkpt lat="44.1181923" lon="7.8680964"><ele>815.4000000000001</ele><time>2026-04-30T13:27:53.555Z</time></trkpt><trkpt lat="44.1181941" lon="7.8681944"><ele>814.0</ele><time>2026-04-30T13:27:54.531Z</time></trkpt><trkpt lat="44.1181446" lon="7.8683978"><ele>814.0</ele><time>2026-04-30T13:27:56.475Z</time></trkpt><trkpt lat="44.1181253" lon="7.8685046"><ele>814.0</ele><time>2026-04-30T13:27:57.39Z</time></trkpt><trkpt lat="44.1180975" lon="7.8686361"><ele>814.0</ele><time>2026-04-30T13:27:58.458Z</time></trkpt><trkpt lat="44.1180721" lon="7.8687602"><ele>814.0</ele><time>2026-04-30T13:27:59.383Z</time></trkpt><trkpt lat="44.1180408" lon="7.8689142"><ele>814.0</ele><time>2026-04-30T13:28:00.44Z</time></trkpt><trkpt lat="44.1180078" lon="7.8690782"><ele>814.0</ele><time>2026-04-30T13:28:01.503Z</time></trkpt><trkpt lat="44.1179805" lon="7.8692289"><ele>814.0</ele><time>2026-04-30T13:28:02.442Z</time></trkpt><trkpt lat="44.1179453" lon="7.8694049"><ele>814.0</ele><time>2026-04-30T13:28:03.534Z</time></trkpt><trkpt lat="44.1178961" lon="7.8696988"><ele>813.0</ele><time>2026-04-30T13:28:05.377Z</time></trkpt><trkpt lat="44.117877" lon="7.8698579"><ele>812.0</ele><time>2026-04-30T13:28:06.416Z</time></trkpt><trkpt lat="44.1178842" lon="7.8699964"><ele>811.0</ele><time>2026-04-30T13:28:07.346Z</time></trkpt><trkpt lat="44.1179216" lon="7.8701631"><ele>810.0</ele><time>2026-04-30T13:28:08.433Z</time></trkpt><trkpt lat="44.1179714" lon="7.8703135"><ele>809.75</ele><time>2026-04-30T13:28:09.395Z</time></trkpt><trkpt lat="44.1180292" lon="7.8704709"><ele>809.5</ele><time>2026-04-30T13:28:10.393Z</time></trkpt><trkpt lat="44.118084" lon="7.8706246"><ele>809.25</ele><time>2026-04-30T13:28:11.389Z</time></trkpt><trkpt lat="44.1181404" lon="7.8707994"><ele>809.0</ele><time>2026-04-30T13:28:12.478Z</time></trkpt><trkpt lat="44.1181835" lon="7.8709563"><ele>810.5</ele><time>2026-04-30T13:28:13.406Z</time></trkpt><trkpt lat="44.1182254" lon="7.8711364"><ele>812.0</ele><time>2026-04-30T13:28:14.409Z</time></trkpt><trkpt lat="44.118258" lon="7.8713143"><ele>813.5</ele><time>2026-04-30T13:28:15.382Z</time></trkpt><trkpt lat="44.1182843" lon="7.8714901"><ele>815.0</ele><time>2026-04-30T13:28:16.391Z</time></trkpt><trkpt lat="44.1182974" lon="7.8716495"><ele>814.3333333333334</ele><time>2026-04-30T13:28:17.338Z</time></trkpt><trkpt lat="44.1182824" lon="7.8718648"><ele>813.6666666666667</ele><time>2026-04-30T13:28:18.567Z</time></trkpt><trkpt lat="44.1182295" lon="7.8722508"><ele>813.0</ele><time>2026-04-30T13:28:20.64Z</time></trkpt><trkpt lat="44.1182023" lon="7.8726154"><ele>812.75</ele><time>2026-04-30T13:28:22.479Z</time></trkpt><trkpt lat="44.1182051" lon="7.8728384"><ele>812.5</ele><time>2026-04-30T13:28:23.554Z</time></trkpt><trkpt lat="44.1182121" lon="7.8730453"><ele>812.25</ele><time>2026-04-30T13:28:24.588Z</time></trkpt><trkpt lat="44.1182267" lon="7.8732363"><ele>812.0</ele><time>2026-04-30T13:28:25.587Z</time></trkpt><trkpt lat="44.118269" lon="7.8736356"><ele>811.5</ele><time>2026-04-30T13:28:27.6Z</time></trkpt><trkpt lat="44.1183637" lon="7.8740477"><ele>811.0</ele><time>2026-04-30T13:28:29.659Z</time></trkpt><trkpt lat="44.1184402" lon="7.8742701"><ele>808.0</ele><time>2026-04-30T13:28:30.743Z</time></trkpt><trkpt lat="44.1185905" lon="7.8746834"><ele>805.0</ele><time>2026-04-30T13:28:32.631Z</time></trkpt><trkpt lat="44.1186602" lon="7.874881"><ele>803.0</ele><time>2026-04-30T13:28:33.531Z</time></trkpt><trkpt lat="44.1187468" lon="7.8751298"><ele>801.0</ele><time>2026-04-30T13:28:34.692Z</time></trkpt><trkpt lat="44.1188889" lon="7.8755405"><ele>801.0</ele><time>2026-04-30T13:28:36.706Z</time></trkpt><trkpt lat="44.1189501" lon="7.8757287"><ele>801.0</ele><time>2026-04-30T13:28:37.685Z</time></trkpt><trkpt lat="44.118981" lon="7.8759526"><ele>801.0</ele><time>2026-04-30T13:28:38.795Z</time></trkpt><trkpt lat="44.1189886" lon="7.8761545"><ele>801.0</ele><time>2026-04-30T13:28:39.739Z</time></trkpt><trkpt lat="44.1189634" lon="7.8763459"><ele>801.0</ele><time>2026-04-30T13:28:40.65Z</time></trkpt><trkpt lat="44.1189168" lon="7.8765367"><ele>801.0</ele><time>2026-04-30T13:28:41.631Z</time></trkpt><trkpt lat="44.1187911" lon="7.8768517"><ele>800.3333333333333</ele><time>2026-04-30T13:28:43.495Z</time></trkpt><trkpt lat="44.1187287" lon="7.8770307"><ele>799.6666666666666</ele><time>2026-04-30T13:28:44.577Z</time></trkpt><trkpt lat="44.1186833" lon="7.8773671"><ele>799.0</ele><time>2026-04-30T13:28:46.402Z</time></trkpt><trkpt lat="44.1186992" lon="7.8775514"><ele>798.3333333333333</ele><time>2026-04-30T13:28:47.344Z</time></trkpt><trkpt lat="44.1187412" lon="7.8777479"><ele>797.6666666666667</ele><time>2026-04-30T13:28:48.364Z</time></trkpt><trkpt lat="44.1188039" lon="7.8779567"><ele>797.0</ele><time>2026-04-30T13:28:49.415Z</time></trkpt><trkpt lat="44.1188804" lon="7.8782066"><ele>796.6666666666667</ele><time>2026-04-30T13:28:50.513Z</time></trkpt><trkpt lat="44.118952" lon="7.878445"><ele>796.3333333333333</ele><time>2026-04-30T13:28:51.461Z</time></trkpt><trkpt lat="44.1190332" lon="7.8787491"><ele>796.0</ele><time>2026-04-30T13:28:52.537Z</time></trkpt><trkpt lat="44.1191005" lon="7.8790553"><ele>799.3333333333333</ele><time>2026-04-30T13:28:53.576Z</time></trkpt><trkpt lat="44.119147" lon="7.8793134"><ele>802.6666666666667</ele><time>2026-04-30T13:28:54.495Z</time></trkpt><trkpt lat="44.1192034" lon="7.8796027"><ele>806.0</ele><time>2026-04-30T13:28:55.583Z</time></trkpt><trkpt lat="44.119247" lon="7.8798499"><ele>803.0</ele><time>2026-04-30T13:28:56.507Z</time></trkpt><trkpt lat="44.1192895" lon="7.8801119"><ele>800.0</ele><time>2026-04-30T13:28:57.528Z</time></trkpt><trkpt lat="44.1193359" lon="7.8803318"><ele>797.0</ele><time>2026-04-30T13:28:58.463Z</time></trkpt><trkpt lat="44.1193925" lon="7.8805767"><ele>797.0</ele><time>2026-04-30T13:28:59.551Z</time></trkpt><trkpt lat="44.1194529" lon="7.8807976"><ele>797.0</ele><time>2026-04-30T13:29:00.575Z</time></trkpt><trkpt lat="44.1195236" lon="7.8809996"><ele>797.0</ele><time>2026-04-30T13:29:01.549Z</time></trkpt><trkpt lat="44.1196021" lon="7.8812052"><ele>795.6666666666667</ele><time>2026-04-30T13:29:02.568Z</time></trkpt><trkpt lat="44.1196936" lon="7.8814336"><ele>794.3333333333333</ele><time>2026-04-30T13:29:03.72Z</time></trkpt><trkpt lat="44.119767" lon="7.8816117"><ele>793.0</ele><time>2026-04-30T13:29:04.628Z</time></trkpt><trkpt lat="44.1198464" lon="7.8817948"><ele>794.5</ele><time>2026-04-30T13:29:05.597Z</time></trkpt><trkpt lat="44.1199487" lon="7.8819985"><ele>796.0</ele><time>2026-04-30T13:29:06.72Z</time></trkpt><trkpt lat="44.1201801" lon="7.8823154"><ele>796.0</ele><time>2026-04-30T13:29:08.736Z</time></trkpt><trkpt lat="44.1204033" lon="7.8825857"><ele>796.0</ele><time>2026-04-30T13:29:10.672Z</time></trkpt><trkpt lat="44.1205175" lon="7.882724"><ele>796.0</ele><time>2026-04-30T13:29:11.718Z</time></trkpt><trkpt lat="44.1206168" lon="7.8828647"><ele>795.0</ele><time>2026-04-30T13:29:12.661Z</time></trkpt><trkpt lat="44.1207026" lon="7.8830242"><ele>794.0</ele><time>2026-04-30T13:29:13.608Z</time></trkpt><trkpt lat="44.120776" lon="7.8832125"><ele>793.0</ele><time>2026-04-30T13:29:14.605Z</time></trkpt><trkpt lat="44.1208397" lon="7.8834244"><ele>799.5</ele><time>2026-04-30T13:29:15.7Z</time></trkpt><trkpt lat="44.1209343" lon="7.8838585"><ele>806.0</ele><time>2026-04-30T13:29:17.779Z</time></trkpt><trkpt lat="44.1209605" lon="7.8840513"><ele>803.0</ele><time>2026-04-30T13:29:18.705Z</time></trkpt><trkpt lat="44.1210105" lon="7.8844958"><ele>800.0</ele><time>2026-04-30T13:29:20.801Z</time></trkpt><trkpt lat="44.1210791" lon="7.8848792"><ele>794.5</ele><time>2026-04-30T13:29:22.579Z</time></trkpt><trkpt lat="44.1211405" lon="7.8851622"><ele>789.0</ele><time>2026-04-30T13:29:23.834Z</time></trkpt><trkpt lat="44.1212701" lon="7.8855592"><ele>789.5</ele><time>2026-04-30T13:29:25.72Z</time></trkpt><trkpt lat="44.1213846" lon="7.8859664"><ele>790.0</ele><time>2026-04-30T13:29:27.609Z</time></trkpt><trkpt lat="44.1214223" lon="7.8861944"><ele>790.0</ele><time>2026-04-30T13:29:28.619Z</time></trkpt><trkpt lat="44.1214678" lon="7.8866216"><ele>790.0</ele><time>2026-04-30T13:29:30.542Z</time></trkpt><trkpt lat="44.1214823" lon="7.886867"><ele>789.0</ele><time>2026-04-30T13:29:31.602Z</time></trkpt><trkpt lat="44.1214771" lon="7.8870901"><ele>788.0</ele><time>2026-04-30T13:29:32.557Z</time></trkpt><trkpt lat="44.1214649" lon="7.8873215"><ele>787.0</ele><time>2026-04-30T13:29:33.527Z</time></trkpt><trkpt lat="44.1214432" lon="7.8875899"><ele>787.0</ele><time>2026-04-30T13:29:34.643Z</time></trkpt><trkpt lat="44.1214295" lon="7.8877934"><ele>787.0</ele><time>2026-04-30T13:29:35.477Z</time></trkpt><trkpt lat="44.1214124" lon="7.8880339"><ele>787.0</ele><time>2026-04-30T13:29:36.477Z</time></trkpt><trkpt lat="44.1213901" lon="7.8883162"><ele>786.0</ele><time>2026-04-30T13:29:37.66Z</time></trkpt><trkpt lat="44.1213718" lon="7.8885527"><ele>785.0</ele><time>2026-04-30T13:29:38.637Z</time></trkpt><trkpt lat="44.1213544" lon="7.8887868"><ele>784.0</ele><time>2026-04-30T13:29:39.625Z</time></trkpt><trkpt lat="44.1213409" lon="7.8890378"><ele>782.0</ele><time>2026-04-30T13:29:40.703Z</time></trkpt><trkpt lat="44.1213306" lon="7.8894889"><ele>780.0</ele><time>2026-04-30T13:29:42.726Z</time></trkpt><trkpt lat="44.1213487" lon="7.8896895"><ele>780.0</ele><time>2026-04-30T13:29:43.698Z</time></trkpt><trkpt lat="44.1213705" lon="7.8898844"><ele>780.0</ele><time>2026-04-30T13:29:44.685Z</time></trkpt><trkpt lat="44.1213953" lon="7.8902378"><ele>780.0</ele><time>2026-04-30T13:29:46.59Z</time></trkpt><trkpt lat="44.1213904" lon="7.8904089"><ele>779.75</ele><time>2026-04-30T13:29:47.542Z</time></trkpt><trkpt lat="44.1213759" lon="7.890574"><ele>779.5</ele><time>2026-04-30T13:29:48.483Z</time></trkpt><trkpt lat="44.121355" lon="7.8907393"><ele>779.25</ele><time>2026-04-30T13:29:49.474Z</time></trkpt><trkpt lat="44.1213313" lon="7.890899"><ele>779.0</ele><time>2026-04-30T13:29:50.501Z</time></trkpt><trkpt lat="44.1213293" lon="7.8910493"><ele>779.0</ele><time>2026-04-30T13:29:51.489Z</time></trkpt><trkpt lat="44.121363" lon="7.8912013"><ele>779.0</ele><time>2026-04-30T13:29:52.496Z</time></trkpt><trkpt lat="44.1214345" lon="7.8913386"><ele>779.0</ele><time>2026-04-30T13:29:53.563Z</time></trkpt><trkpt lat="44.1215106" lon="7.8914533"><ele>779.0</ele><time>2026-04-30T13:29:54.552Z</time></trkpt><trkpt lat="44.1215866" lon="7.8915645"><ele>780.3333333333334</ele><time>2026-04-30T13:29:55.617Z</time></trkpt><trkpt lat="44.1216552" lon="7.8916735"><ele>781.6666666666667</ele><time>2026-04-30T13:29:56.583Z</time></trkpt><trkpt lat="44.1218" lon="7.8919249"><ele>783.0</ele><time>2026-04-30T13:29:58.559Z</time></trkpt><trkpt lat="44.121867" lon="7.8920736"><ele>783.0</ele><time>2026-04-30T13:29:59.577Z</time></trkpt><trkpt lat="44.12197" lon="7.8923964"><ele>783.0</ele><time>2026-04-30T13:30:01.657Z</time></trkpt><trkpt lat="44.1220059" lon="7.892525"><ele>783.0</ele><time>2026-04-30T13:30:02.514Z</time></trkpt><trkpt lat="44.1220471" lon="7.8926864"><ele>781.0</ele><time>2026-04-30T13:30:03.591Z</time></trkpt><trkpt lat="44.1221249" lon="7.8929852"><ele>779.0</ele><time>2026-04-30T13:30:05.549Z</time></trkpt><trkpt lat="44.1221677" lon="7.8931298"><ele>777.0</ele><time>2026-04-30T13:30:06.562Z</time></trkpt><trkpt lat="44.1222208" lon="7.8932548"><ele>775.0</ele><time>2026-04-30T13:30:07.507Z</time></trkpt><trkpt lat="44.1223142" lon="7.8933743"><ele>775.3333333333333</ele><time>2026-04-30T13:30:08.613Z</time></trkpt><trkpt lat="44.1224261" lon="7.8934594"><ele>775.6666666666667</ele><time>2026-04-30T13:30:09.622Z</time></trkpt><trkpt lat="44.1227114" lon="7.8936021"><ele>776.0</ele><time>2026-04-30T13:30:11.56Z</time></trkpt><trkpt lat="44.1231111" lon="7.8937698"><ele>777.5</ele><time>2026-04-30T13:30:13.598Z</time></trkpt><trkpt lat="44.123328" lon="7.8938799"><ele>779.0</ele><time>2026-04-30T13:30:14.606Z</time></trkpt><trkpt lat="44.1237417" lon="7.8941361"><ele>779.0</ele><time>2026-04-30T13:30:16.583Z</time></trkpt><trkpt lat="44.1239436" lon="7.8942383"><ele>779.0</ele><time>2026-04-30T13:30:17.55Z</time></trkpt><trkpt lat="44.1241745" lon="7.8943382"><ele>778.0</ele><time>2026-04-30T13:30:18.662Z</time></trkpt><trkpt lat="44.1243645" lon="7.8944195"><ele>777.0</ele><time>2026-04-30T13:30:19.581Z</time></trkpt><trkpt lat="44.12454" lon="7.8945133"><ele>776.0</ele><time>2026-04-30T13:30:20.497Z</time></trkpt><trkpt lat="44.1247336" lon="7.8946332"><ele>777.6666666666667</ele><time>2026-04-30T13:30:21.501Z</time></trkpt><trkpt lat="44.1249107" lon="7.8947534"><ele>779.3333333333333</ele><time>2026-04-30T13:30:22.505Z</time></trkpt><trkpt lat="44.1250923" lon="7.8948888"><ele>781.0</ele><time>2026-04-30T13:30:23.594Z</time></trkpt><trkpt lat="44.1252354" lon="7.8950255"><ele>780.6666666666666</ele><time>2026-04-30T13:30:24.576Z</time></trkpt><trkpt lat="44.1253901" lon="7.8951729"><ele>780.3333333333333</ele><time>2026-04-30T13:30:25.569Z</time></trkpt><trkpt lat="44.1255854" lon="7.8953338"><ele>780.0</ele><time>2026-04-30T13:30:26.715Z</time></trkpt><trkpt lat="44.1257854" lon="7.895492"><ele>780.0</ele><time>2026-04-30T13:30:27.763Z</time></trkpt><trkpt lat="44.1261429" lon="7.8958297"><ele>780.0</ele><time>2026-04-30T13:30:29.591Z</time></trkpt><trkpt lat="44.1263957" lon="7.8960625"><ele>778.5</ele><time>2026-04-30T13:30:30.826Z</time></trkpt><trkpt lat="44.1267811" lon="7.8963515"><ele>777.0</ele><time>2026-04-30T13:30:32.567Z</time></trkpt><trkpt lat="44.127015" lon="7.8964969"><ele>777.0</ele><time>2026-04-30T13:30:33.594Z</time></trkpt><trkpt lat="44.1273531" lon="7.8966639"><ele>777.0</ele><time>2026-04-30T13:30:34.976Z</time></trkpt><trkpt lat="44.1277276" lon="7.896806"><ele>779.5</ele><time>2026-04-30T13:30:36.682Z</time></trkpt><trkpt lat="44.1279753" lon="7.8968425"><ele>782.0</ele><time>2026-04-30T13:30:37.615Z</time></trkpt><trkpt lat="44.1282943" lon="7.8968678"><ele>782.0</ele><time>2026-04-30T13:30:38.746Z</time></trkpt><trkpt lat="44.1288091" lon="7.896855"><ele>779.0</ele><time>2026-04-30T13:30:40.634Z</time></trkpt><trkpt lat="44.1291105" lon="7.8968498"><ele>776.0</ele><time>2026-04-30T13:30:41.764Z</time></trkpt><trkpt lat="44.1295686" lon="7.8968804"><ele>776.0</ele><time>2026-04-30T13:30:43.731Z</time></trkpt><trkpt lat="44.1297793" lon="7.8969508"><ele>776.0</ele><time>2026-04-30T13:30:44.675Z</time></trkpt><trkpt lat="44.1300073" lon="7.8970957"><ele>776.0</ele><time>2026-04-30T13:30:45.731Z</time></trkpt><trkpt lat="44.1302122" lon="7.8973107"><ele>776.0</ele><time>2026-04-30T13:30:46.794Z</time></trkpt><trkpt lat="44.1305003" lon="7.8978644"><ele>774.0</ele><time>2026-04-30T13:30:48.785Z</time></trkpt><trkpt lat="44.130866" lon="7.8983405"><ele>765.0</ele><time>2026-04-30T13:30:50.799Z</time></trkpt><trkpt lat="44.1313478" lon="7.898646"><ele>765.0</ele><time>2026-04-30T13:30:52.761Z</time></trkpt><trkpt lat="44.1316304" lon="7.8988037"><ele>765.0</ele><time>2026-04-30T13:30:53.86Z</time></trkpt><trkpt lat="44.1321448" lon="7.899103"><ele>756.0</ele><time>2026-04-30T13:30:55.896Z</time></trkpt><trkpt lat="44.1326209" lon="7.8993393"><ele>756.0</ele><time>2026-04-30T13:30:57.805Z</time></trkpt><trkpt lat="44.1328245" lon="7.8994271"><ele>756.0</ele><time>2026-04-30T13:30:58.705Z</time></trkpt><trkpt lat="44.1330499" lon="7.8995118"><ele>756.0</ele><time>2026-04-30T13:30:59.751Z</time></trkpt><trkpt lat="44.1332633" lon="7.8995783"><ele>758.5</ele><time>2026-04-30T13:31:00.783Z</time></trkpt><trkpt lat="44.1334923" lon="7.8996436"><ele>761.0</ele><time>2026-04-30T13:31:01.971Z</time></trkpt><trkpt lat="44.1338001" lon="7.899772"><ele>761.0</ele><time>2026-04-30T13:31:03.702Z</time></trkpt><trkpt lat="44.1339752" lon="7.899853"><ele>761.0</ele><time>2026-04-30T13:31:04.709Z</time></trkpt><trkpt lat="44.1341438" lon="7.8999494"><ele>761.0</ele><time>2026-04-30T13:31:05.822Z</time></trkpt><trkpt lat="44.1344273" lon="7.9001403"><ele>757.5</ele><time>2026-04-30T13:31:07.882Z</time></trkpt><trkpt lat="44.1347282" lon="7.9002591"><ele>754.0</ele><time>2026-04-30T13:31:09.882Z</time></trkpt><trkpt lat="44.135002" lon="7.9003061"><ele>754.0</ele><time>2026-04-30T13:31:11.814Z</time></trkpt><trkpt lat="44.1352822" lon="7.9003004"><ele>754.0</ele><time>2026-04-30T13:31:13.803Z</time></trkpt><trkpt lat="44.135447" lon="7.9003384"><ele>754.0</ele><time>2026-04-30T13:31:14.866Z</time></trkpt><trkpt lat="44.135714" lon="7.9004814"><ele>755.3333333333334</ele><time>2026-04-30T13:31:16.784Z</time></trkpt><trkpt lat="44.1358409" lon="7.9005583"><ele>756.6666666666666</ele><time>2026-04-30T13:31:17.775Z</time></trkpt><trkpt lat="44.1359712" lon="7.9006452"><ele>758.0</ele><time>2026-04-30T13:31:18.752Z</time></trkpt><trkpt lat="44.1362383" lon="7.900803"><ele>752.5</ele><time>2026-04-30T13:31:20.911Z</time></trkpt><trkpt lat="44.1364488" lon="7.9009827"><ele>747.0</ele><time>2026-04-30T13:31:22.848Z</time></trkpt><trkpt lat="44.1366733" lon="7.9010712"><ele>747.0</ele><time>2026-04-30T13:31:24.832Z</time></trkpt><trkpt lat="44.1367703" lon="7.9010668"><ele>747.0</ele><time>2026-04-30T13:31:25.533Z</time></trkpt><trkpt lat="44.1369289" lon="7.9010415"><ele>747.0</ele><time>2026-04-30T13:31:26.687Z</time></trkpt><trkpt lat="44.1370727" lon="7.90103"><ele>747.0</ele><time>2026-04-30T13:31:27.714Z</time></trkpt><trkpt lat="44.1372045" lon="7.9010356"><ele>747.0</ele><time>2026-04-30T13:31:28.623Z</time></trkpt><trkpt lat="44.1373572" lon="7.9010646"><ele>747.0</ele><time>2026-04-30T13:31:29.866Z</time></trkpt><trkpt lat="44.1376217" lon="7.9011106"><ele>747.0</ele><time>2026-04-30T13:31:31.901Z</time></trkpt><trkpt lat="44.1378548" lon="7.9010734"><ele>746.6666666666666</ele><time>2026-04-30T13:31:33.821Z</time></trkpt><trkpt lat="44.1379625" lon="7.9010577"><ele>746.3333333333333</ele><time>2026-04-30T13:31:34.721Z</time></trkpt><trkpt lat="44.1380988" lon="7.9010485"><ele>746.0</ele><time>2026-04-30T13:31:35.854Z</time></trkpt><trkpt lat="44.1383447" lon="7.9010654"><ele>746.0</ele><time>2026-04-30T13:31:37.982Z</time></trkpt><trkpt lat="44.1385185" lon="7.9010358"><ele>746.0</ele><time>2026-04-30T13:31:39.564Z</time></trkpt><trkpt lat="44.1386552" lon="7.9009768"><ele>746.0</ele><time>2026-04-30T13:31:40.804Z</time></trkpt><trkpt lat="44.138754" lon="7.900908"><ele>746.0</ele><time>2026-04-30T13:31:41.78Z</time></trkpt><trkpt lat="44.1388707" lon="7.9008474"><ele>745.0</ele><time>2026-04-30T13:31:42.817Z</time></trkpt><trkpt lat="44.1389829" lon="7.9008267"><ele>744.0</ele><time>2026-04-30T13:31:43.746Z</time></trkpt><trkpt lat="44.1391271" lon="7.9008429"><ele>743.0</ele><time>2026-04-30T13:31:44.91Z</time></trkpt><trkpt lat="44.1393731" lon="7.9009836"><ele>743.0</ele><time>2026-04-30T13:31:46.839Z</time></trkpt><trkpt lat="44.1395048" lon="7.9010281"><ele>743.0</ele><time>2026-04-30T13:31:47.7Z</time></trkpt><trkpt lat="44.1397042" lon="7.9010718"><ele>743.0</ele><time>2026-04-30T13:31:48.861Z</time></trkpt><trkpt lat="44.1400021" lon="7.9011541"><ele>745.0</ele><time>2026-04-30T13:31:50.703Z</time></trkpt><trkpt lat="44.1401332" lon="7.9012076"><ele>747.0</ele><time>2026-04-30T13:31:51.622Z</time></trkpt><trkpt lat="44.1404079" lon="7.9013455"><ele>749.0</ele><time>2026-04-30T13:31:53.678Z</time></trkpt><trkpt lat="44.1405164" lon="7.90143"><ele>749.0</ele><time>2026-04-30T13:31:54.58Z</time></trkpt><trkpt lat="44.1406228" lon="7.9015295"><ele>749.0</ele><time>2026-04-30T13:31:55.509Z</time></trkpt><trkpt lat="44.1407637" lon="7.9016729"><ele>749.0</ele><time>2026-04-30T13:31:56.678Z</time></trkpt><trkpt lat="44.1410118" lon="7.9019274"><ele>747.0</ele><time>2026-04-30T13:31:58.598Z</time></trkpt><trkpt lat="44.1411326" lon="7.9020563"><ele>745.0</ele><time>2026-04-30T13:31:59.508Z</time></trkpt><trkpt lat="44.1412738" lon="7.9022082"><ele>743.0</ele><time>2026-04-30T13:32:00.559Z</time></trkpt><trkpt lat="44.1414194" lon="7.9023744"><ele>743.5</ele><time>2026-04-30T13:32:01.661Z</time></trkpt><trkpt lat="44.1417257" lon="7.9026997"><ele>744.0</ele><time>2026-04-30T13:32:03.572Z</time></trkpt><trkpt lat="44.1418762" lon="7.9028643"><ele>744.0</ele><time>2026-04-30T13:32:04.421Z</time></trkpt><trkpt lat="44.1420885" lon="7.9031072"><ele>744.0</ele><time>2026-04-30T13:32:05.6Z</time></trkpt><trkpt lat="44.1422625" lon="7.9033122"><ele>743.5</ele><time>2026-04-30T13:32:06.581Z</time></trkpt><trkpt lat="44.1424544" lon="7.9035267"><ele>743.0</ele><time>2026-04-30T13:32:07.618Z</time></trkpt><trkpt lat="44.1426309" lon="7.9037236"><ele>743.0</ele><time>2026-04-30T13:32:08.567Z</time></trkpt><trkpt lat="44.1428283" lon="7.9039331"><ele>743.0</ele><time>2026-04-30T13:32:09.614Z</time></trkpt><trkpt lat="44.1429968" lon="7.9041202"><ele>742.0</ele><time>2026-04-30T13:32:10.533Z</time></trkpt><trkpt lat="44.1432119" lon="7.9043563"><ele>741.0</ele><time>2026-04-30T13:32:11.695Z</time></trkpt><trkpt lat="44.1435992" lon="7.9047758"><ele>741.5</ele><time>2026-04-30T13:32:13.803Z</time></trkpt><trkpt lat="44.1439401" lon="7.9051464"><ele>742.0</ele><time>2026-04-30T13:32:15.684Z</time></trkpt><trkpt lat="44.1441302" lon="7.905358"><ele>742.0</ele><time>2026-04-30T13:32:16.769Z</time></trkpt><trkpt lat="44.1444167" lon="7.9056784"><ele>742.0</ele><time>2026-04-30T13:32:18.507Z</time></trkpt><trkpt lat="44.1447523" lon="7.9061046"><ele>744.3333333333334</ele><time>2026-04-30T13:32:20.716Z</time></trkpt><trkpt lat="44.1448798" lon="7.9063709"><ele>746.6666666666666</ele><time>2026-04-30T13:32:21.723Z</time></trkpt><trkpt lat="44.1449967" lon="7.9066236"><ele>749.0</ele><time>2026-04-30T13:32:22.642Z</time></trkpt><trkpt lat="44.1451252" lon="7.9069126"><ele>742.0</ele><time>2026-04-30T13:32:23.667Z</time></trkpt><trkpt lat="44.1452674" lon="7.9072291"><ele>735.0</ele><time>2026-04-30T13:32:24.796Z</time></trkpt><trkpt lat="44.1455103" lon="7.9077753"><ele>734.0</ele><time>2026-04-30T13:32:26.816Z</time></trkpt><trkpt lat="44.1457421" lon="7.9082855"><ele>733.0</ele><time>2026-04-30T13:32:28.744Z</time></trkpt><trkpt lat="44.1458937" lon="7.9086045"><ele>733.0</ele><time>2026-04-30T13:32:29.993Z</time></trkpt><trkpt lat="44.1460987" lon="7.9089862"><ele>733.0</ele><time>2026-04-30T13:32:31.551Z</time></trkpt><trkpt lat="44.1464155" lon="7.9094205"><ele>734.3333333333334</ele><time>2026-04-30T13:32:33.663Z</time></trkpt><trkpt lat="44.1465831" lon="7.9095969"><ele>735.6666666666666</ele><time>2026-04-30T13:32:34.742Z</time></trkpt><trkpt lat="44.1467311" lon="7.9097013"><ele>737.0</ele><time>2026-04-30T13:32:35.644Z</time></trkpt><trkpt lat="44.1470433" lon="7.9098139"><ele>737.0</ele><time>2026-04-30T13:32:37.353Z</time></trkpt><trkpt lat="44.1472789" lon="7.9098225"><ele>737.0</ele><time>2026-04-30T13:32:38.601Z</time></trkpt><trkpt lat="44.1474415" lon="7.9098093"><ele>737.0</ele><time>2026-04-30T13:32:39.555Z</time></trkpt><trkpt lat="44.1476414" lon="7.909793"><ele>736.6666666666666</ele><time>2026-04-30T13:32:40.818Z</time></trkpt><trkpt lat="44.1478875" lon="7.9098917"><ele>736.3333333333334</ele><time>2026-04-30T13:32:42.689Z</time></trkpt><trkpt lat="44.1479893" lon="7.9100065"><ele>736.0</ele><time>2026-04-30T13:32:43.597Z</time></trkpt><trkpt lat="44.1480887" lon="7.910171"><ele>736.0</ele><time>2026-04-30T13:32:44.618Z</time></trkpt><trkpt lat="44.1481685" lon="7.9103097"><ele>736.0</ele><time>2026-04-30T13:32:45.56Z</time></trkpt><trkpt lat="44.1482438" lon="7.9104566"><ele>736.0</ele><time>2026-04-30T13:32:46.685Z</time></trkpt><trkpt lat="44.1482812" lon="7.9105984"><ele>736.0</ele><time>2026-04-30T13:32:47.697Z</time></trkpt><trkpt lat="44.1482842" lon="7.9107596"><ele>735.6666666666667</ele><time>2026-04-30T13:32:48.707Z</time></trkpt><trkpt lat="44.1482581" lon="7.9109315"><ele>735.3333333333334</ele><time>2026-04-30T13:32:49.719Z</time></trkpt><trkpt lat="44.1481987" lon="7.9111323"><ele>735.0</ele><time>2026-04-30T13:32:50.821Z</time></trkpt><trkpt lat="44.1481175" lon="7.9114611"><ele>735.0</ele><time>2026-04-30T13:32:52.561Z</time></trkpt><trkpt lat="44.1480836" lon="7.9116458"><ele>735.0</ele><time>2026-04-30T13:32:53.589Z</time></trkpt><trkpt lat="44.1480579" lon="7.9118268"><ele>735.0</ele><time>2026-04-30T13:32:54.587Z</time></trkpt><trkpt lat="44.1480406" lon="7.9120138"><ele>735.0</ele><time>2026-04-30T13:32:55.606Z</time></trkpt><trkpt lat="44.1480233" lon="7.9121746"><ele>734.0</ele><time>2026-04-30T13:32:56.545Z</time></trkpt><trkpt lat="44.1480078" lon="7.9123518"><ele>733.0</ele><time>2026-04-30T13:32:57.621Z</time></trkpt><trkpt lat="44.1479977" lon="7.9125192"><ele>732.0</ele><time>2026-04-30T13:32:58.659Z</time></trkpt><trkpt lat="44.1479581" lon="7.9128543"><ele>732.0</ele><time>2026-04-30T13:33:00.723Z</time></trkpt><trkpt lat="44.1478805" lon="7.9131243"><ele>732.0</ele><time>2026-04-30T13:33:02.509Z</time></trkpt><trkpt lat="44.1478233" lon="7.9132678"><ele>732.0</ele><time>2026-04-30T13:33:03.549Z</time></trkpt><trkpt lat="44.1477573" lon="7.9134297"><ele>730.5</ele><time>2026-04-30T13:33:04.742Z</time></trkpt><trkpt lat="44.14767" lon="7.9136882"><ele>729.0</ele><time>2026-04-30T13:33:06.557Z</time></trkpt><trkpt lat="44.147642" lon="7.9138387"><ele>727.5</ele><time>2026-04-30T13:33:07.592Z</time></trkpt><trkpt lat="44.1476352" lon="7.9139811"><ele>726.0</ele><time>2026-04-30T13:33:08.571Z</time></trkpt><trkpt lat="44.1476466" lon="7.91412"><ele>725.0</ele><time>2026-04-30T13:33:09.595Z</time></trkpt><trkpt lat="44.1477477" lon="7.9143442"><ele>724.0</ele><time>2026-04-30T13:33:11.624Z</time></trkpt><trkpt lat="44.1478262" lon="7.9144175"><ele>723.0</ele><time>2026-04-30T13:33:12.566Z</time></trkpt><trkpt lat="44.1480183" lon="7.9144736"><ele>723.0</ele><time>2026-04-30T13:33:14.596Z</time></trkpt><trkpt lat="44.1481148" lon="7.9144769"><ele>723.0</ele><time>2026-04-30T13:33:15.526Z</time></trkpt><trkpt lat="44.1482428" lon="7.9144756"><ele>723.0</ele><time>2026-04-30T13:33:16.633Z</time></trkpt><trkpt lat="44.1483578" lon="7.9144689"><ele>723.0</ele><time>2026-04-30T13:33:17.552Z</time></trkpt><trkpt lat="44.1484881" lon="7.9144625"><ele>722.5</ele><time>2026-04-30T13:33:18.539Z</time></trkpt><trkpt lat="44.1486255" lon="7.9144499"><ele>722.0</ele><time>2026-04-30T13:33:19.55Z</time></trkpt><trkpt lat="44.1487724" lon="7.9144323"><ele>721.5</ele><time>2026-04-30T13:33:20.605Z</time></trkpt><trkpt lat="44.1489245" lon="7.9144011"><ele>721.0</ele><time>2026-04-30T13:33:21.72Z</time></trkpt><trkpt lat="44.1490486" lon="7.9143657"><ele>720.3333333333334</ele><time>2026-04-30T13:33:22.666Z</time></trkpt><trkpt lat="44.1491726" lon="7.9143287"><ele>719.6666666666666</ele><time>2026-04-30T13:33:23.654Z</time></trkpt><trkpt lat="44.1493223" lon="7.9142854"><ele>719.0</ele><time>2026-04-30T13:33:24.901Z</time></trkpt><trkpt lat="44.1495359" lon="7.9142197"><ele>719.75</ele><time>2026-04-30T13:33:26.666Z</time></trkpt><trkpt lat="44.1496625" lon="7.9141787"><ele>720.5</ele><time>2026-04-30T13:33:27.702Z</time></trkpt><trkpt lat="44.1497839" lon="7.9141231"><ele>721.25</ele><time>2026-04-30T13:33:28.756Z</time></trkpt><trkpt lat="44.1498785" lon="7.9140628"><ele>722.0</ele><time>2026-04-30T13:33:29.671Z</time></trkpt><trkpt lat="44.1499817" lon="7.9140007"><ele>722.0</ele><time>2026-04-30T13:33:30.656Z</time></trkpt><trkpt lat="44.1501012" lon="7.9139157"><ele>722.0</ele><time>2026-04-30T13:33:31.836Z</time></trkpt><trkpt lat="44.1502022" lon="7.913807"><ele>722.0</ele><time>2026-04-30T13:33:32.942Z</time></trkpt><trkpt lat="44.1503266" lon="7.9135807"><ele>722.0</ele><time>2026-04-30T13:33:34.614Z</time></trkpt><trkpt lat="44.1503926" lon="7.913453"><ele>722.0</ele><time>2026-04-30T13:33:35.585Z</time></trkpt><trkpt lat="44.1504559" lon="7.9133351"><ele>722.0</ele><time>2026-04-30T13:33:36.508Z</time></trkpt><trkpt lat="44.1505314" lon="7.9132029"><ele>722.0</ele><time>2026-04-30T13:33:37.537Z</time></trkpt><trkpt lat="44.150611" lon="7.9130776"><ele>721.0</ele><time>2026-04-30T13:33:38.555Z</time></trkpt><trkpt lat="44.1506879" lon="7.9129606"><ele>720.0</ele><time>2026-04-30T13:33:39.519Z</time></trkpt><trkpt lat="44.1507685" lon="7.9128413"><ele>719.0</ele><time>2026-04-30T13:33:40.516Z</time></trkpt><trkpt lat="44.1508495" lon="7.9127235"><ele>718.0</ele><time>2026-04-30T13:33:41.491Z</time></trkpt><trkpt lat="44.1509463" lon="7.912596"><ele>720.75</ele><time>2026-04-30T13:33:42.586Z</time></trkpt><trkpt lat="44.1510394" lon="7.9124847"><ele>723.5</ele><time>2026-04-30T13:33:43.578Z</time></trkpt><trkpt lat="44.1511349" lon="7.9123874"><ele>726.25</ele><time>2026-04-30T13:33:44.554Z</time></trkpt><trkpt lat="44.1512433" lon="7.9123097"><ele>729.0</ele><time>2026-04-30T13:33:45.545Z</time></trkpt><trkpt lat="44.151352" lon="7.9122647"><ele>729.0</ele><time>2026-04-30T13:33:46.447Z</time></trkpt><trkpt lat="44.1514921" lon="7.9122378"><ele>729.0</ele><time>2026-04-30T13:33:47.547Z</time></trkpt><trkpt lat="44.1516108" lon="7.9122315"><ele>729.0</ele><time>2026-04-30T13:33:48.468Z</time></trkpt><trkpt lat="44.1517587" lon="7.9122284"><ele>729.0</ele><time>2026-04-30T13:33:49.499Z</time></trkpt><trkpt lat="44.1519378" lon="7.9122175"><ele>725.6666666666666</ele><time>2026-04-30T13:33:50.583Z</time></trkpt><trkpt lat="44.1521354" lon="7.9122001"><ele>722.3333333333333</ele><time>2026-04-30T13:33:51.614Z</time></trkpt><trkpt lat="44.1523356" lon="7.9121801"><ele>719.0</ele><time>2026-04-30T13:33:52.592Z</time></trkpt><trkpt lat="44.1525487" lon="7.9121605"><ele>719.0</ele><time>2026-04-30T13:33:53.654Z</time></trkpt><trkpt lat="44.1528956" lon="7.9121431"><ele>719.0</ele><time>2026-04-30T13:33:55.545Z</time></trkpt><trkpt lat="44.1530768" lon="7.912157"><ele>719.0</ele><time>2026-04-30T13:33:56.672Z</time></trkpt><trkpt lat="44.1533501" lon="7.9122511"><ele>719.0</ele><time>2026-04-30T13:33:58.63Z</time></trkpt><trkpt lat="44.1534854" lon="7.9123402"><ele>719.0</ele><time>2026-04-30T13:33:59.698Z</time></trkpt><trkpt lat="44.1537035" lon="7.9125382"><ele>719.3333333333333</ele><time>2026-04-30T13:34:01.543Z</time></trkpt><trkpt lat="44.1538368" lon="7.9126942"><ele>719.6666666666666</ele><time>2026-04-30T13:34:02.75Z</time></trkpt><trkpt lat="44.1539358" lon="7.9128383"><ele>720.0</ele><time>2026-04-30T13:34:03.686Z</time></trkpt><trkpt lat="44.1540464" lon="7.913021"><ele>720.0</ele><time>2026-04-30T13:34:04.759Z</time></trkpt><trkpt lat="44.1541394" lon="7.9131979"><ele>720.0</ele><time>2026-04-30T13:34:05.691Z</time></trkpt><trkpt lat="44.154314" lon="7.9135863"><ele>717.6666666666666</ele><time>2026-04-30T13:34:07.657Z</time></trkpt><trkpt lat="44.1543873" lon="7.9137768"><ele>715.3333333333333</ele><time>2026-04-30T13:34:08.573Z</time></trkpt><trkpt lat="44.1544607" lon="7.9139917"><ele>713.0</ele><time>2026-04-30T13:34:09.605Z</time></trkpt><trkpt lat="44.1545338" lon="7.9142244"><ele>711.5</ele><time>2026-04-30T13:34:10.685Z</time></trkpt><trkpt lat="44.1546554" lon="7.9146563"><ele>710.0</ele><time>2026-04-30T13:34:12.602Z</time></trkpt><trkpt lat="44.1547073" lon="7.9148601"><ele>709.3333333333333</ele><time>2026-04-30T13:34:13.524Z</time></trkpt><trkpt lat="44.1547633" lon="7.9150739"><ele>708.6666666666666</ele><time>2026-04-30T13:34:14.481Z</time></trkpt><trkpt lat="44.1548336" lon="7.9153362"><ele>708.0</ele><time>2026-04-30T13:34:15.634Z</time></trkpt><trkpt lat="44.1549382" lon="7.9157414"><ele>710.25</ele><time>2026-04-30T13:34:17.581Z</time></trkpt><trkpt lat="44.1549909" lon="7.9159461"><ele>712.5</ele><time>2026-04-30T13:34:18.664Z</time></trkpt><trkpt lat="44.1550333" lon="7.9161156"><ele>714.75</ele><time>2026-04-30T13:34:19.625Z</time></trkpt><trkpt lat="44.1550718" lon="7.9162803"><ele>717.0</ele><time>2026-04-30T13:34:20.59Z</time></trkpt><trkpt lat="44.1550959" lon="7.916441"><ele>717.0</ele><time>2026-04-30T13:34:21.584Z</time></trkpt><trkpt lat="44.1550998" lon="7.9165966"><ele>717.0</ele><time>2026-04-30T13:34:22.619Z</time></trkpt><trkpt lat="44.1550778" lon="7.9167494"><ele>717.0</ele><time>2026-04-30T13:34:23.625Z</time></trkpt><trkpt lat="44.1549979" lon="7.9170949"><ele>715.0</ele><time>2026-04-30T13:34:25.517Z</time></trkpt><trkpt lat="44.1549602" lon="7.9173713"><ele>713.0</ele><time>2026-04-30T13:34:26.634Z</time></trkpt><trkpt lat="44.1548766" lon="7.917938"><ele>709.0</ele><time>2026-04-30T13:34:28.59Z</time></trkpt><trkpt lat="44.1548255" lon="7.9182409"><ele>705.0</ele><time>2026-04-30T13:34:29.558Z</time></trkpt><trkpt lat="44.1547757" lon="7.9185658"><ele>705.0</ele><time>2026-04-30T13:34:30.55Z</time></trkpt><trkpt lat="44.1547296" lon="7.918897"><ele>705.0</ele><time>2026-04-30T13:34:31.545Z</time></trkpt><trkpt lat="44.1546891" lon="7.9192794"><ele>704.0</ele><time>2026-04-30T13:34:32.618Z</time></trkpt><trkpt lat="44.1546588" lon="7.9196129"><ele>703.0</ele><time>2026-04-30T13:34:33.532Z</time></trkpt><trkpt lat="44.1546313" lon="7.9200284"><ele>698.0</ele><time>2026-04-30T13:34:34.679Z</time></trkpt><trkpt lat="44.1546243" lon="7.920702"><ele>698.5</ele><time>2026-04-30T13:34:36.596Z</time></trkpt><trkpt lat="44.1546421" lon="7.9210737"><ele>699.0</ele><time>2026-04-30T13:34:37.64Z</time></trkpt><trkpt lat="44.1546768" lon="7.9214373"><ele>698.5</ele><time>2026-04-30T13:34:38.654Z</time></trkpt><trkpt lat="44.1547197" lon="7.921778"><ele>698.0</ele><time>2026-04-30T13:34:39.603Z</time></trkpt><trkpt lat="44.1547717" lon="7.9221297"><ele>698.0</ele><time>2026-04-30T13:34:40.585Z</time></trkpt><trkpt lat="44.1548265" lon="7.9224815"><ele>698.0</ele><time>2026-04-30T13:34:41.575Z</time></trkpt><trkpt lat="44.1549352" lon="7.9231793"><ele>697.5</ele><time>2026-04-30T13:34:43.549Z</time></trkpt><trkpt lat="44.1549883" lon="7.9235216"><ele>697.0</ele><time>2026-04-30T13:34:44.51Z</time></trkpt><trkpt lat="44.1550977" lon="7.9242511"><ele>696.5</ele><time>2026-04-30T13:34:46.537Z</time></trkpt><trkpt lat="44.1551567" lon="7.9246383"><ele>696.0</ele><time>2026-04-30T13:34:47.599Z</time></trkpt><trkpt lat="44.1552162" lon="7.9250147"><ele>695.0</ele><time>2026-04-30T13:34:48.622Z</time></trkpt><trkpt lat="44.1552737" lon="7.9253744"><ele>694.0</ele><time>2026-04-30T13:34:49.596Z</time></trkpt><trkpt lat="44.1553369" lon="7.9257698"><ele>696.0</ele><time>2026-04-30T13:34:50.656Z</time></trkpt><trkpt lat="44.1554546" lon="7.9264851"><ele>695.5</ele><time>2026-04-30T13:34:52.538Z</time></trkpt><trkpt lat="44.15552" lon="7.9268848"><ele>695.0</ele><time>2026-04-30T13:34:53.577Z</time></trkpt><trkpt lat="44.1556466" lon="7.92765"><ele>695.0</ele><time>2026-04-30T13:34:55.535Z</time></trkpt><trkpt lat="44.1557159" lon="7.9280742"><ele>695.0</ele><time>2026-04-30T13:34:56.608Z</time></trkpt><trkpt lat="44.1557785" lon="7.9284549"><ele>692.5</ele><time>2026-04-30T13:34:57.559Z</time></trkpt><trkpt lat="44.1558491" lon="7.9288751"><ele>690.0</ele><time>2026-04-30T13:34:58.609Z</time></trkpt><trkpt lat="44.1559811" lon="7.9296839"><ele>690.0</ele><time>2026-04-30T13:35:00.621Z</time></trkpt><trkpt lat="44.1560402" lon="7.9300469"><ele>690.0</ele><time>2026-04-30T13:35:01.537Z</time></trkpt><trkpt lat="44.1560997" lon="7.9304168"><ele>689.5</ele><time>2026-04-30T13:35:02.475Z</time></trkpt><trkpt lat="44.1561704" lon="7.9308657"><ele>689.0</ele><time>2026-04-30T13:35:03.63Z</time></trkpt><trkpt lat="44.1562784" lon="7.9315784"><ele>688.5</ele><time>2026-04-30T13:35:05.578Z</time></trkpt><trkpt lat="44.1563429" lon="7.9319672"><ele>688.0</ele><time>2026-04-30T13:35:06.672Z</time></trkpt><trkpt lat="44.1563977" lon="7.9322905"><ele>687.0</ele><time>2026-04-30T13:35:07.576Z</time></trkpt><trkpt lat="44.1565274" lon="7.9330322"><ele>687.0</ele><time>2026-04-30T13:35:09.632Z</time></trkpt><trkpt lat="44.1565915" lon="7.9333955"><ele>687.0</ele><time>2026-04-30T13:35:10.615Z</time></trkpt><trkpt lat="44.1566501" lon="7.9337393"><ele>687.0</ele><time>2026-04-30T13:35:11.55Z</time></trkpt><trkpt lat="44.156717" lon="7.9341288"><ele>687.0</ele><time>2026-04-30T13:35:12.596Z</time></trkpt><trkpt lat="44.156784" lon="7.9345174"><ele>686.5</ele><time>2026-04-30T13:35:13.652Z</time></trkpt><trkpt lat="44.1568403" lon="7.9348471"><ele>686.0</ele><time>2026-04-30T13:35:14.557Z</time></trkpt><trkpt lat="44.1569038" lon="7.9352334"><ele>687.0</ele><time>2026-04-30T13:35:15.625Z</time></trkpt><trkpt lat="44.1569778" lon="7.9359054"><ele>687.0</ele><time>2026-04-30T13:35:17.489Z</time></trkpt><trkpt lat="44.1570045" lon="7.9363287"><ele>687.0</ele><time>2026-04-30T13:35:18.618Z</time></trkpt><trkpt lat="44.1570295" lon="7.9366996"><ele>686.5</ele><time>2026-04-30T13:35:19.595Z</time></trkpt><trkpt lat="44.1570514" lon="7.9370742"><ele>686.0</ele><time>2026-04-30T13:35:20.576Z</time></trkpt><trkpt lat="44.1570832" lon="7.9375052"><ele>685.5</ele><time>2026-04-30T13:35:21.692Z</time></trkpt><trkpt lat="44.1571209" lon="7.9378817"><ele>685.0</ele><time>2026-04-30T13:35:22.66Z</time></trkpt><trkpt lat="44.1572051" lon="7.9386202"><ele>685.0</ele><time>2026-04-30T13:35:24.562Z</time></trkpt><trkpt lat="44.1572566" lon="7.9390422"><ele>685.0</ele><time>2026-04-30T13:35:25.638Z</time></trkpt><trkpt lat="44.1573045" lon="7.9394218"><ele>682.0</ele><time>2026-04-30T13:35:26.601Z</time></trkpt><trkpt lat="44.1573592" lon="7.9398178"><ele>679.0</ele><time>2026-04-30T13:35:27.614Z</time></trkpt><trkpt lat="44.1574182" lon="7.9402285"><ele>678.0</ele><time>2026-04-30T13:35:28.675Z</time></trkpt><trkpt lat="44.1575201" lon="7.940942"><ele>678.0</ele><time>2026-04-30T13:35:30.53Z</time></trkpt><trkpt lat="44.1575826" lon="7.9413656"><ele>678.0</ele><time>2026-04-30T13:35:31.636Z</time></trkpt><trkpt lat="44.1576361" lon="7.9417346"><ele>676.0</ele><time>2026-04-30T13:35:32.606Z</time></trkpt><trkpt lat="44.157688" lon="7.9420861"><ele>674.0</ele><time>2026-04-30T13:35:33.55Z</time></trkpt><trkpt lat="44.1577388" lon="7.9424391"><ele>673.5</ele><time>2026-04-30T13:35:34.542Z</time></trkpt><trkpt lat="44.1577933" lon="7.9428129"><ele>673.0</ele><time>2026-04-30T13:35:35.651Z</time></trkpt><trkpt lat="44.1578587" lon="7.9434223"><ele>672.6666666666667</ele><time>2026-04-30T13:35:37.626Z</time></trkpt><trkpt lat="44.1578778" lon="7.9436948"><ele>672.3333333333334</ele><time>2026-04-30T13:35:38.57Z</time></trkpt><trkpt lat="44.15789" lon="7.943955"><ele>672.0</ele><time>2026-04-30T13:35:39.516Z</time></trkpt><trkpt lat="44.1579029" lon="7.9442226"><ele>673.5</ele><time>2026-04-30T13:35:40.568Z</time></trkpt><trkpt lat="44.1579375" lon="7.9444719"><ele>675.0</ele><time>2026-04-30T13:35:41.65Z</time></trkpt><trkpt lat="44.1580684" lon="7.9448528"><ele>676.0</ele><time>2026-04-30T13:35:43.647Z</time></trkpt><trkpt lat="44.1582242" lon="7.9451218"><ele>677.0</ele><time>2026-04-30T13:35:45.53Z</time></trkpt><trkpt lat="44.1582772" lon="7.9452793"><ele>678.0</ele><time>2026-04-30T13:35:46.651Z</time></trkpt><trkpt lat="44.1583143" lon="7.945571"><ele>678.0</ele><time>2026-04-30T13:35:48.479Z</time></trkpt><trkpt lat="44.1583284" lon="7.9457344"><ele>678.0</ele><time>2026-04-30T13:35:49.564Z</time></trkpt><trkpt lat="44.1583368" lon="7.9458949"><ele>678.0</ele><time>2026-04-30T13:35:50.548Z</time></trkpt><trkpt lat="44.1583528" lon="7.9460642"><ele>678.0</ele><time>2026-04-30T13:35:51.576Z</time></trkpt><trkpt lat="44.1583668" lon="7.9462297"><ele>678.3333333333334</ele><time>2026-04-30T13:35:52.547Z</time></trkpt><trkpt lat="44.1583832" lon="7.9464291"><ele>678.6666666666667</ele><time>2026-04-30T13:35:53.642Z</time></trkpt><trkpt lat="44.1584033" lon="7.9467696"><ele>679.0</ele><time>2026-04-30T13:35:55.583Z</time></trkpt><trkpt lat="44.1584208" lon="7.9471394"><ele>679.0</ele><time>2026-04-30T13:35:57.529Z</time></trkpt><trkpt lat="44.1584262" lon="7.9473516"><ele>679.0</ele><time>2026-04-30T13:35:58.506Z</time></trkpt><trkpt lat="44.1584346" lon="7.9476297"><ele>679.0</ele><time>2026-04-30T13:35:59.614Z</time></trkpt><trkpt lat="44.1584308" lon="7.9478992"><ele>678.3333333333334</ele><time>2026-04-30T13:36:00.57Z</time></trkpt><trkpt lat="44.1584189" lon="7.9481887"><ele>677.6666666666666</ele><time>2026-04-30T13:36:01.566Z</time></trkpt><trkpt lat="44.1583971" lon="7.9484842"><ele>677.0</ele><time>2026-04-30T13:36:02.52Z</time></trkpt><trkpt lat="44.1583768" lon="7.9488266"><ele>684.0</ele><time>2026-04-30T13:36:03.604Z</time></trkpt><trkpt lat="44.158342" lon="7.9494605"><ele>684.0</ele><time>2026-04-30T13:36:05.595Z</time></trkpt><trkpt lat="44.1583243" lon="7.9497873"><ele>684.0</ele><time>2026-04-30T13:36:06.594Z</time></trkpt><trkpt lat="44.1583091" lon="7.9500901"><ele>686.5</ele><time>2026-04-30T13:36:07.513Z</time></trkpt><trkpt lat="44.1582901" lon="7.9504431"><ele>689.0</ele><time>2026-04-30T13:36:08.597Z</time></trkpt><trkpt lat="44.1582719" lon="7.9507765"><ele>685.5</ele><time>2026-04-30T13:36:09.604Z</time></trkpt><trkpt lat="44.1582587" lon="7.9510796"><ele>682.0</ele><time>2026-04-30T13:36:10.506Z</time></trkpt><trkpt lat="44.1582555" lon="7.9514438"><ele>680.5</ele><time>2026-04-30T13:36:11.552Z</time></trkpt><trkpt lat="44.1582702" lon="7.9518027"><ele>679.0</ele><time>2026-04-30T13:36:12.558Z</time></trkpt><trkpt lat="44.1582767" lon="7.9521308"><ele>679.0</ele><time>2026-04-30T13:36:13.474Z</time></trkpt><trkpt lat="44.1582806" lon="7.9525201"><ele>679.0</ele><time>2026-04-30T13:36:14.576Z</time></trkpt><trkpt lat="44.1582735" lon="7.9528543"><ele>677.0</ele><time>2026-04-30T13:36:15.57Z</time></trkpt><trkpt lat="44.1582756" lon="7.9532025"><ele>675.0</ele><time>2026-04-30T13:36:16.559Z</time></trkpt><trkpt lat="44.1582796" lon="7.9535738"><ele>674.5</ele><time>2026-04-30T13:36:17.615Z</time></trkpt><trkpt lat="44.1582849" lon="7.9539298"><ele>674.0</ele><time>2026-04-30T13:36:18.658Z</time></trkpt><trkpt lat="44.1582881" lon="7.9542278"><ele>674.0</ele><time>2026-04-30T13:36:19.559Z</time></trkpt><trkpt lat="44.1582879" lon="7.954568"><ele>674.0</ele><time>2026-04-30T13:36:20.651Z</time></trkpt><trkpt lat="44.1582889" lon="7.9548579"><ele>673.0</ele><time>2026-04-30T13:36:21.615Z</time></trkpt><trkpt lat="44.1582946" lon="7.9551464"><ele>672.0</ele><time>2026-04-30T13:36:22.564Z</time></trkpt><trkpt lat="44.1583224" lon="7.955449"><ele>671.0</ele><time>2026-04-30T13:36:23.55Z</time></trkpt><trkpt lat="44.1583773" lon="7.9557456"><ele>669.0</ele><time>2026-04-30T13:36:24.53Z</time></trkpt><trkpt lat="44.1584613" lon="7.956031"><ele>667.0</ele><time>2026-04-30T13:36:25.535Z</time></trkpt><trkpt lat="44.1585811" lon="7.9563006"><ele>665.0</ele><time>2026-04-30T13:36:26.58Z</time></trkpt><trkpt lat="44.1587282" lon="7.9565391"><ele>664.0</ele><time>2026-04-30T13:36:27.596Z</time></trkpt><trkpt lat="44.159056" lon="7.9569915"><ele>664.0</ele><time>2026-04-30T13:36:29.518Z</time></trkpt><trkpt lat="44.1592548" lon="7.9572682"><ele>664.0</ele><time>2026-04-30T13:36:30.644Z</time></trkpt><trkpt lat="44.1596085" lon="7.9577443"><ele>675.0</ele><time>2026-04-30T13:36:32.59Z</time></trkpt><trkpt lat="44.1599266" lon="7.9582057"><ele>669.0</ele><time>2026-04-30T13:36:34.42Z</time></trkpt><trkpt lat="44.1600775" lon="7.9585369"><ele>663.0</ele><time>2026-04-30T13:36:35.555Z</time></trkpt><trkpt lat="44.1601904" lon="7.9588406"><ele>663.0</ele><time>2026-04-30T13:36:36.541Z</time></trkpt><trkpt lat="44.1602827" lon="7.9591416"><ele>663.0</ele><time>2026-04-30T13:36:37.479Z</time></trkpt><trkpt lat="44.1603859" lon="7.959464"><ele>663.0</ele><time>2026-04-30T13:36:38.536Z</time></trkpt><trkpt lat="44.1604454" lon="7.9597585"><ele>663.0</ele><time>2026-04-30T13:36:39.441Z</time></trkpt><trkpt lat="44.1604784" lon="7.9601175"><ele>663.0</ele><time>2026-04-30T13:36:40.489Z</time></trkpt><trkpt lat="44.1604779" lon="7.9605267"><ele>663.0</ele><time>2026-04-30T13:36:41.625Z</time></trkpt><trkpt lat="44.1604198" lon="7.9612177"><ele>662.0</ele><time>2026-04-30T13:36:43.5Z</time></trkpt><trkpt lat="44.1603747" lon="7.9616019"><ele>661.0</ele><time>2026-04-30T13:36:44.57Z</time></trkpt><trkpt lat="44.1603407" lon="7.9619569"><ele>661.5</ele><time>2026-04-30T13:36:45.542Z</time></trkpt><trkpt lat="44.1603273" lon="7.9623265"><ele>662.0</ele><time>2026-04-30T13:36:46.543Z</time></trkpt><trkpt lat="44.1603462" lon="7.9627056"><ele>662.0</ele><time>2026-04-30T13:36:47.557Z</time></trkpt><trkpt lat="44.1603972" lon="7.9630991"><ele>662.0</ele><time>2026-04-30T13:36:48.608Z</time></trkpt><trkpt lat="44.1604645" lon="7.9634467"><ele>665.0</ele><time>2026-04-30T13:36:49.561Z</time></trkpt><trkpt lat="44.160542" lon="7.9637966"><ele>668.0</ele><time>2026-04-30T13:36:50.59Z</time></trkpt><trkpt lat="44.1606183" lon="7.9640793"><ele>663.0</ele><time>2026-04-30T13:36:51.499Z</time></trkpt><trkpt lat="44.1607372" lon="7.9643805"><ele>658.0</ele><time>2026-04-30T13:36:52.53Z</time></trkpt><trkpt lat="44.1609602" lon="7.9649678"><ele>656.3333333333334</ele><time>2026-04-30T13:36:54.531Z</time></trkpt><trkpt lat="44.1610549" lon="7.9652722"><ele>654.6666666666666</ele><time>2026-04-30T13:36:55.587Z</time></trkpt><trkpt lat="44.1611296" lon="7.9655414"><ele>653.0</ele><time>2026-04-30T13:36:56.585Z</time></trkpt><trkpt lat="44.1612155" lon="7.9657633"><ele>653.0</ele><time>2026-04-30T13:36:57.488Z</time></trkpt><trkpt lat="44.1613551" lon="7.9659986"><ele>653.0</ele><time>2026-04-30T13:36:58.602Z</time></trkpt><trkpt lat="44.1614986" lon="7.9661864"><ele>653.0</ele><time>2026-04-30T13:36:59.614Z</time></trkpt><trkpt lat="44.161622" lon="7.9663789"><ele>657.0</ele><time>2026-04-30T13:37:00.547Z</time></trkpt><trkpt lat="44.1617215" lon="7.9666429"><ele>661.0</ele><time>2026-04-30T13:37:01.572Z</time></trkpt><trkpt lat="44.1617813" lon="7.9669172"><ele>665.0</ele><time>2026-04-30T13:37:02.485Z</time></trkpt><trkpt lat="44.1618367" lon="7.9672768"><ele>661.5</ele><time>2026-04-30T13:37:03.58Z</time></trkpt><trkpt lat="44.1618795" lon="7.9676095"><ele>658.0</ele><time>2026-04-30T13:37:04.591Z</time></trkpt><trkpt lat="44.1619094" lon="7.9679046"><ele>658.0</ele><time>2026-04-30T13:37:05.526Z</time></trkpt><trkpt lat="44.1619264" lon="7.9681976"><ele>658.0</ele><time>2026-04-30T13:37:06.507Z</time></trkpt><trkpt lat="44.1619796" lon="7.9685219"><ele>655.0</ele><time>2026-04-30T13:37:07.609Z</time></trkpt><trkpt lat="44.1621621" lon="7.9691265"><ele>652.5</ele><time>2026-04-30T13:37:09.616Z</time></trkpt><trkpt lat="44.1622652" lon="7.9694343"><ele>650.0</ele><time>2026-04-30T13:37:10.601Z</time></trkpt><trkpt lat="44.1623522" lon="7.9697348"><ele>650.3333333333333</ele><time>2026-04-30T13:37:11.614Z</time></trkpt><trkpt lat="44.1624333" lon="7.9700017"><ele>650.6666666666666</ele><time>2026-04-30T13:37:12.586Z</time></trkpt><trkpt lat="44.1625219" lon="7.9702527"><ele>651.0</ele><time>2026-04-30T13:37:13.577Z</time></trkpt><trkpt lat="44.1626395" lon="7.9704649"><ele>651.0</ele><time>2026-04-30T13:37:14.518Z</time></trkpt><trkpt lat="44.1627899" lon="7.9706698"><ele>651.0</ele><time>2026-04-30T13:37:15.527Z</time></trkpt><trkpt lat="44.1629674" lon="7.9708752"><ele>651.0</ele><time>2026-04-30T13:37:16.629Z</time></trkpt><trkpt lat="44.1631374" lon="7.9710448"><ele>650.5</ele><time>2026-04-30T13:37:17.599Z</time></trkpt><trkpt lat="44.1633336" lon="7.9712353"><ele>650.0</ele><time>2026-04-30T13:37:18.683Z</time></trkpt><trkpt lat="44.1637131" lon="7.9715892"><ele>648.5</ele><time>2026-04-30T13:37:20.682Z</time></trkpt><trkpt lat="44.1640604" lon="7.9718735"><ele>647.0</ele><time>2026-04-30T13:37:22.535Z</time></trkpt><trkpt lat="44.1642709" lon="7.9719845"><ele>647.0</ele><time>2026-04-30T13:37:23.586Z</time></trkpt><trkpt lat="44.1644884" lon="7.9720676"><ele>647.0</ele><time>2026-04-30T13:37:24.606Z</time></trkpt><trkpt lat="44.1646912" lon="7.972126"><ele>647.0</ele><time>2026-04-30T13:37:25.515Z</time></trkpt><trkpt lat="44.1649002" lon="7.972185"><ele>648.0</ele><time>2026-04-30T13:37:26.418Z</time></trkpt><trkpt lat="44.1651903" lon="7.9722688"><ele>649.0</ele><time>2026-04-30T13:37:27.621Z</time></trkpt><trkpt lat="44.1654319" lon="7.9723334"><ele>649.0</ele><time>2026-04-30T13:37:28.594Z</time></trkpt><trkpt lat="44.16567" lon="7.9724023"><ele>649.0</ele><time>2026-04-30T13:37:29.539Z</time></trkpt><trkpt lat="44.1659052" lon="7.9724692"><ele>646.5</ele><time>2026-04-30T13:37:30.462Z</time></trkpt><trkpt lat="44.1661901" lon="7.9725469"><ele>644.0</ele><time>2026-04-30T13:37:31.583Z</time></trkpt><trkpt lat="44.1664333" lon="7.9726206"><ele>645.3333333333333</ele><time>2026-04-30T13:37:32.605Z</time></trkpt><trkpt lat="44.1666713" lon="7.9727129"><ele>646.6666666666666</ele><time>2026-04-30T13:37:33.674Z</time></trkpt><trkpt lat="44.1668526" lon="7.9728207"><ele>648.0</ele><time>2026-04-30T13:37:34.579Z</time></trkpt><trkpt lat="44.167052" lon="7.9729859"><ele>643.0</ele><time>2026-04-30T13:37:35.607Z</time></trkpt><trkpt lat="44.1673848" lon="7.9734293"><ele>643.0</ele><time>2026-04-30T13:37:37.602Z</time></trkpt><trkpt lat="44.1675184" lon="7.9736692"><ele>643.0</ele><time>2026-04-30T13:37:38.566Z</time></trkpt><trkpt lat="44.1676567" lon="7.9739017"><ele>643.0</ele><time>2026-04-30T13:37:39.541Z</time></trkpt><trkpt lat="44.167838" lon="7.9741235"><ele>643.0</ele><time>2026-04-30T13:37:40.586Z</time></trkpt><trkpt lat="44.1680342" lon="7.9743024"><ele>643.0</ele><time>2026-04-30T13:37:41.531Z</time></trkpt><trkpt lat="44.1682594" lon="7.9744901"><ele>643.0</ele><time>2026-04-30T13:37:42.535Z</time></trkpt><trkpt lat="44.1684982" lon="7.9746872"><ele>643.0</ele><time>2026-04-30T13:37:43.557Z</time></trkpt><trkpt lat="44.1687323" lon="7.9748877"><ele>640.0</ele><time>2026-04-30T13:37:44.581Z</time></trkpt><trkpt lat="44.1689411" lon="7.9750634"><ele>637.0</ele><time>2026-04-30T13:37:45.506Z</time></trkpt><trkpt lat="44.1691776" lon="7.9752617"><ele>637.0</ele><time>2026-04-30T13:37:46.552Z</time></trkpt><trkpt lat="44.1693968" lon="7.9754454"><ele>637.0</ele><time>2026-04-30T13:37:47.516Z</time></trkpt><trkpt lat="44.1696345" lon="7.9756464"><ele>637.0</ele><time>2026-04-30T13:37:48.594Z</time></trkpt><trkpt lat="44.1698467" lon="7.975824"><ele>637.0</ele><time>2026-04-30T13:37:49.583Z</time></trkpt><trkpt lat="44.170235" lon="7.9761512"><ele>636.0</ele><time>2026-04-30T13:37:51.478Z</time></trkpt><trkpt lat="44.1704515" lon="7.9763198"><ele>635.0</ele><time>2026-04-30T13:37:52.575Z</time></trkpt><trkpt lat="44.1706565" lon="7.9764474"><ele>636.0</ele><time>2026-04-30T13:37:53.581Z</time></trkpt><trkpt lat="44.1708714" lon="7.9765334"><ele>637.0</ele><time>2026-04-30T13:37:54.562Z</time></trkpt><trkpt lat="44.1711018" lon="7.9765918"><ele>637.0</ele><time>2026-04-30T13:37:55.517Z</time></trkpt><trkpt lat="44.1713868" lon="7.976642"><ele>637.0</ele><time>2026-04-30T13:37:56.641Z</time></trkpt><trkpt lat="44.1716349" lon="7.9766943"><ele>633.0</ele><time>2026-04-30T13:37:57.584Z</time></trkpt><trkpt lat="44.1718999" lon="7.9767726"><ele>629.0</ele><time>2026-04-30T13:37:58.569Z</time></trkpt><trkpt lat="44.1721751" lon="7.9768731"><ele>629.0</ele><time>2026-04-30T13:37:59.601Z</time></trkpt><trkpt lat="44.1724584" lon="7.9770011"><ele>629.0</ele><time>2026-04-30T13:38:00.696Z</time></trkpt><trkpt lat="44.1729309" lon="7.9772685"><ele>629.0</ele><time>2026-04-30T13:38:02.631Z</time></trkpt><trkpt lat="44.1731385" lon="7.9774126"><ele>629.0</ele><time>2026-04-30T13:38:03.514Z</time></trkpt><trkpt lat="44.1733798" lon="7.9775954"><ele>630.0</ele><time>2026-04-30T13:38:04.572Z</time></trkpt><trkpt lat="44.1735847" lon="7.9777563"><ele>631.0</ele><time>2026-04-30T13:38:05.482Z</time></trkpt><trkpt lat="44.1738246" lon="7.9779481"><ele>632.5</ele><time>2026-04-30T13:38:06.559Z</time></trkpt><trkpt lat="44.1740497" lon="7.9781299"><ele>634.0</ele><time>2026-04-30T13:38:07.563Z</time></trkpt><trkpt lat="44.1742999" lon="7.9783438"><ele>629.0</ele><time>2026-04-30T13:38:08.717Z</time></trkpt><trkpt lat="44.1746762" lon="7.9787249"><ele>629.0</ele><time>2026-04-30T13:38:10.504Z</time></trkpt><trkpt lat="44.1748997" lon="7.9789857"><ele>629.0</ele><time>2026-04-30T13:38:11.602Z</time></trkpt><trkpt lat="44.1750811" lon="7.9792229"><ele>629.0</ele><time>2026-04-30T13:38:12.567Z</time></trkpt><trkpt lat="44.1752486" lon="7.9794699"><ele>629.0</ele><time>2026-04-30T13:38:13.538Z</time></trkpt><trkpt lat="44.1754033" lon="7.9797301"><ele>629.0</ele><time>2026-04-30T13:38:14.581Z</time></trkpt><trkpt lat="44.1755198" lon="7.9799564"><ele>629.0</ele><time>2026-04-30T13:38:15.516Z</time></trkpt><trkpt lat="44.1756321" lon="7.9801916"><ele>629.0</ele><time>2026-04-30T13:38:16.559Z</time></trkpt><trkpt lat="44.1757427" lon="7.9803977"><ele>628.0</ele><time>2026-04-30T13:38:17.555Z</time></trkpt><trkpt lat="44.1758911" lon="7.9806002"><ele>627.0</ele><time>2026-04-30T13:38:18.659Z</time></trkpt><trkpt lat="44.1760375" lon="7.9807397"><ele>626.0</ele><time>2026-04-30T13:38:19.583Z</time></trkpt><trkpt lat="44.1764034" lon="7.9809019"><ele>626.6666666666666</ele><time>2026-04-30T13:38:21.651Z</time></trkpt><trkpt lat="44.1765899" lon="7.9809031"><ele>627.3333333333334</ele><time>2026-04-30T13:38:22.597Z</time></trkpt><trkpt lat="44.176817" lon="7.980894"><ele>628.0</ele><time>2026-04-30T13:38:23.676Z</time></trkpt><trkpt lat="44.1772372" lon="7.9809091"><ele>627.0</ele><time>2026-04-30T13:38:25.562Z</time></trkpt><trkpt lat="44.1774866" lon="7.9809551"><ele>626.0</ele><time>2026-04-30T13:38:26.651Z</time></trkpt><trkpt lat="44.1777065" lon="7.9810237"><ele>626.0</ele><time>2026-04-30T13:38:27.6Z</time></trkpt><trkpt lat="44.1779728" lon="7.9811243"><ele>626.0</ele><time>2026-04-30T13:38:28.726Z</time></trkpt><trkpt lat="44.1782146" lon="7.9812167"><ele>627.0</ele><time>2026-04-30T13:38:29.708Z</time></trkpt><trkpt lat="44.1784738" lon="7.9813151"><ele>628.0</ele><time>2026-04-30T13:38:30.761Z</time></trkpt><trkpt lat="44.1789411" lon="7.9815046"><ele>635.0</ele><time>2026-04-30T13:38:32.716Z</time></trkpt><trkpt lat="44.1794597" lon="7.9816726"><ele>624.0</ele><time>2026-04-30T13:38:34.776Z</time></trkpt><trkpt lat="44.1799221" lon="7.9818923"><ele>624.0</ele><time>2026-04-30T13:38:36.817Z</time></trkpt><trkpt lat="44.1802637" lon="7.9821232"><ele>624.0</ele><time>2026-04-30T13:38:38.515Z</time></trkpt><trkpt lat="44.1804487" lon="7.982291"><ele>624.0</ele><time>2026-04-30T13:38:39.559Z</time></trkpt><trkpt lat="44.1806354" lon="7.9824747"><ele>624.0</ele><time>2026-04-30T13:38:40.585Z</time></trkpt><trkpt lat="44.1809926" lon="7.9829004"><ele>622.5</ele><time>2026-04-30T13:38:42.579Z</time></trkpt><trkpt lat="44.1811636" lon="7.983141"><ele>621.0</ele><time>2026-04-30T13:38:43.555Z</time></trkpt><trkpt lat="44.1813631" lon="7.9833993"><ele>623.0</ele><time>2026-04-30T13:38:44.565Z</time></trkpt><trkpt lat="44.1815299" lon="7.9836759"><ele>625.0</ele><time>2026-04-30T13:38:45.587Z</time></trkpt><trkpt lat="44.1819005" lon="7.9842332"><ele>617.0</ele><time>2026-04-30T13:38:47.622Z</time></trkpt><trkpt lat="44.1822639" lon="7.9847853"><ele>619.0</ele><time>2026-04-30T13:38:49.612Z</time></trkpt><trkpt lat="44.1824388" lon="7.9850552"><ele>621.0</ele><time>2026-04-30T13:38:50.575Z</time></trkpt><trkpt lat="44.182618" lon="7.9853398"><ele>618.0</ele><time>2026-04-30T13:38:51.587Z</time></trkpt><trkpt lat="44.1829091" lon="7.9858869"><ele>618.0</ele><time>2026-04-30T13:38:53.433Z</time></trkpt><trkpt lat="44.1830438" lon="7.986189"><ele>618.0</ele><time>2026-04-30T13:38:54.405Z</time></trkpt><trkpt lat="44.1831708" lon="7.9865187"><ele>620.5</ele><time>2026-04-30T13:38:55.438Z</time></trkpt><trkpt lat="44.1832716" lon="7.9868332"><ele>623.0</ele><time>2026-04-30T13:38:56.401Z</time></trkpt><trkpt lat="44.18336" lon="7.9871563"><ele>619.0</ele><time>2026-04-30T13:38:57.364Z</time></trkpt><trkpt lat="44.1834406" lon="7.9875174"><ele>615.0</ele><time>2026-04-30T13:38:58.445Z</time></trkpt><trkpt lat="44.1834965" lon="7.9878599"><ele>615.0</ele><time>2026-04-30T13:38:59.473Z</time></trkpt><trkpt lat="44.183522" lon="7.9882067"><ele>615.0</ele><time>2026-04-30T13:39:00.532Z</time></trkpt><trkpt lat="44.1835322" lon="7.988534"><ele>615.0</ele><time>2026-04-30T13:39:01.562Z</time></trkpt><trkpt lat="44.1835394" lon="7.9891575"><ele>615.0</ele><time>2026-04-30T13:39:03.514Z</time></trkpt><trkpt lat="44.1835461" lon="7.9894749"><ele>614.0</ele><time>2026-04-30T13:39:04.492Z</time></trkpt><trkpt lat="44.183568" lon="7.9898037"><ele>613.0</ele><time>2026-04-30T13:39:05.525Z</time></trkpt><trkpt lat="44.1836369" lon="7.9901334"><ele>612.5</ele><time>2026-04-30T13:39:06.536Z</time></trkpt><trkpt lat="44.1837487" lon="7.9904968"><ele>612.0</ele><time>2026-04-30T13:39:07.664Z</time></trkpt><trkpt lat="44.1838623" lon="7.9907838"><ele>611.0</ele><time>2026-04-30T13:39:08.576Z</time></trkpt><trkpt lat="44.1839876" lon="7.9910673"><ele>610.0</ele><time>2026-04-30T13:39:09.51Z</time></trkpt><trkpt lat="44.1841404" lon="7.9914249"><ele>613.0</ele><time>2026-04-30T13:39:10.685Z</time></trkpt><trkpt lat="44.1843389" lon="7.9920058"><ele>613.0</ele><time>2026-04-30T13:39:12.632Z</time></trkpt><trkpt lat="44.1844265" lon="7.9922684"><ele>613.0</ele><time>2026-04-30T13:39:13.556Z</time></trkpt><trkpt lat="44.1845517" lon="7.9925441"><ele>613.0</ele><time>2026-04-30T13:39:14.558Z</time></trkpt><trkpt lat="44.1846872" lon="7.9927974"><ele>614.0</ele><time>2026-04-30T13:39:15.544Z</time></trkpt><trkpt lat="44.1848512" lon="7.9930503"><ele>615.0</ele><time>2026-04-30T13:39:16.587Z</time></trkpt><trkpt lat="44.1850137" lon="7.9932557"><ele>614.0</ele><time>2026-04-30T13:39:17.562Z</time></trkpt><trkpt lat="44.185202" lon="7.9934342"><ele>613.0</ele><time>2026-04-30T13:39:18.569Z</time></trkpt><trkpt lat="44.1854534" lon="7.9936215"><ele>615.5</ele><time>2026-04-30T13:39:19.683Z</time></trkpt><trkpt lat="44.1857713" lon="7.9939466"><ele>618.0</ele><time>2026-04-30T13:39:21.419Z</time></trkpt><trkpt lat="44.185937" lon="7.9941284"><ele>616.3333333333334</ele><time>2026-04-30T13:39:22.469Z</time></trkpt><trkpt lat="44.1860829" lon="7.994307"><ele>614.6666666666667</ele><time>2026-04-30T13:39:23.525Z</time></trkpt><trkpt lat="44.1862305" lon="7.9945065"><ele>613.0</ele><time>2026-04-30T13:39:24.662Z</time></trkpt><trkpt lat="44.1864863" lon="7.9948411"><ele>612.6666666666667</ele><time>2026-04-30T13:39:26.465Z</time></trkpt><trkpt lat="44.1866481" lon="7.9950361"><ele>612.3333333333334</ele><time>2026-04-30T13:39:27.505Z</time></trkpt><trkpt lat="44.1868002" lon="7.9952306"><ele>612.0</ele><time>2026-04-30T13:39:28.512Z</time></trkpt><trkpt lat="44.1869531" lon="7.9954455"><ele>612.0</ele><time>2026-04-30T13:39:29.579Z</time></trkpt><trkpt lat="44.1870855" lon="7.9956686"><ele>612.0</ele><time>2026-04-30T13:39:30.531Z</time></trkpt><trkpt lat="44.1872116" lon="7.9959462"><ele>612.0</ele><time>2026-04-30T13:39:31.478Z</time></trkpt><trkpt lat="44.1872703" lon="7.9962637"><ele>611.0</ele><time>2026-04-30T13:39:32.553Z</time></trkpt><trkpt lat="44.1873252" lon="7.9965894"><ele>610.0</ele><time>2026-04-30T13:39:33.64Z</time></trkpt><trkpt lat="44.1873983" lon="7.9968941"><ele>609.0</ele><time>2026-04-30T13:39:34.634Z</time></trkpt><trkpt lat="44.1874698" lon="7.9971967"><ele>608.0</ele><time>2026-04-30T13:39:35.587Z</time></trkpt><trkpt lat="44.1875461" lon="7.9975267"><ele>607.5</ele><time>2026-04-30T13:39:36.615Z</time></trkpt><trkpt lat="44.1876369" lon="7.9978765"><ele>607.0</ele><time>2026-04-30T13:39:37.695Z</time></trkpt><trkpt lat="44.1877924" lon="7.9984283"><ele>606.0</ele><time>2026-04-30T13:39:39.561Z</time></trkpt><trkpt lat="44.18788" lon="7.9986807"><ele>605.0</ele><time>2026-04-30T13:39:40.485Z</time></trkpt><trkpt lat="44.1880214" lon="7.9990085"><ele>604.5</ele><time>2026-04-30T13:39:41.747Z</time></trkpt><trkpt lat="44.1882718" lon="7.9994667"><ele>604.0</ele><time>2026-04-30T13:39:43.559Z</time></trkpt><trkpt lat="44.1884463" lon="7.9997391"><ele>604.0</ele><time>2026-04-30T13:39:44.6Z</time></trkpt><trkpt lat="44.1886026" lon="7.9999982"><ele>604.0</ele><time>2026-04-30T13:39:45.617Z</time></trkpt><trkpt lat="44.1887441" lon="8.0002745"><ele>604.0</ele><time>2026-04-30T13:39:46.646Z</time></trkpt><trkpt lat="44.1888605" lon="8.0005365"><ele>604.0</ele><time>2026-04-30T13:39:47.553Z</time></trkpt><trkpt lat="44.1889745" lon="8.0008712"><ele>603.5</ele><time>2026-04-30T13:39:48.604Z</time></trkpt><trkpt lat="44.1889976" lon="8.0011937"><ele>603.0</ele><time>2026-04-30T13:39:49.579Z</time></trkpt><trkpt lat="44.1890524" lon="8.001525"><ele>608.5</ele><time>2026-04-30T13:39:50.556Z</time></trkpt><trkpt lat="44.1891007" lon="8.0018526"><ele>614.0</ele><time>2026-04-30T13:39:51.541Z</time></trkpt><trkpt lat="44.1891446" lon="8.0022199"><ele>613.0</ele><time>2026-04-30T13:39:52.665Z</time></trkpt><trkpt lat="44.189175" lon="8.0025504"><ele>612.0</ele><time>2026-04-30T13:39:53.696Z</time></trkpt><trkpt lat="44.1892482" lon="8.0031829"><ele>612.0</ele><time>2026-04-30T13:39:55.6Z</time></trkpt><trkpt lat="44.189369" lon="8.0037991"><ele>612.0</ele><time>2026-04-30T13:39:57.502Z</time></trkpt><trkpt lat="44.1894719" lon="8.0041524"><ele>612.0</ele><time>2026-04-30T13:39:58.598Z</time></trkpt><trkpt lat="44.1895651" lon="8.0044439"><ele>608.0</ele><time>2026-04-30T13:39:59.519Z</time></trkpt><trkpt lat="44.1896801" lon="8.0047879"><ele>604.0</ele><time>2026-04-30T13:40:00.622Z</time></trkpt><trkpt lat="44.1897703" lon="8.0050753"><ele>606.0</ele><time>2026-04-30T13:40:01.542Z</time></trkpt><trkpt lat="44.1898656" lon="8.0054252"><ele>608.0</ele><time>2026-04-30T13:40:02.655Z</time></trkpt><trkpt lat="44.1899918" lon="8.0059891"><ele>608.0</ele><time>2026-04-30T13:40:04.431Z</time></trkpt><trkpt lat="44.1900635" lon="8.0063349"><ele>608.0</ele><time>2026-04-30T13:40:05.515Z</time></trkpt><trkpt lat="44.1901368" lon="8.006693"><ele>604.5</ele><time>2026-04-30T13:40:06.681Z</time></trkpt><trkpt lat="44.1902486" lon="8.0072478"><ele>601.0</ele><time>2026-04-30T13:40:08.567Z</time></trkpt><trkpt lat="44.1903141" lon="8.0075607"><ele>599.0</ele><time>2026-04-30T13:40:09.645Z</time></trkpt><trkpt lat="44.1904707" lon="8.0080963"><ele>597.0</ele><time>2026-04-30T13:40:11.627Z</time></trkpt><trkpt lat="44.1905816" lon="8.0083337"><ele>601.3333333333334</ele><time>2026-04-30T13:40:12.582Z</time></trkpt><trkpt lat="44.1907229" lon="8.0085704"><ele>605.6666666666667</ele><time>2026-04-30T13:40:13.616Z</time></trkpt><trkpt lat="44.1908706" lon="8.0087662"><ele>610.0</ele><time>2026-04-30T13:40:14.584Z</time></trkpt><trkpt lat="44.1910335" lon="8.0089521"><ele>610.0</ele><time>2026-04-30T13:40:15.579Z</time></trkpt><trkpt lat="44.1912047" lon="8.0091146"><ele>610.0</ele><time>2026-04-30T13:40:16.545Z</time></trkpt><trkpt lat="44.1914097" lon="8.0092764"><ele>610.0</ele><time>2026-04-30T13:40:17.647Z</time></trkpt><trkpt lat="44.1915927" lon="8.0093981"><ele>608.0</ele><time>2026-04-30T13:40:18.587Z</time></trkpt><trkpt lat="44.1918025" lon="8.0095146"><ele>606.0</ele><time>2026-04-30T13:40:19.616Z</time></trkpt><trkpt lat="44.1919994" lon="8.0096038"><ele>604.0</ele><time>2026-04-30T13:40:20.552Z</time></trkpt><trkpt lat="44.1922132" lon="8.0096947"><ele>613.5</ele><time>2026-04-30T13:40:21.558Z</time></trkpt><trkpt lat="44.1924357" lon="8.0097906"><ele>623.0</ele><time>2026-04-30T13:40:22.604Z</time></trkpt><trkpt lat="44.192647" lon="8.0098826"><ele>623.0</ele><time>2026-04-30T13:40:23.577Z</time></trkpt><trkpt lat="44.1928527" lon="8.0099731"><ele>623.0</ele><time>2026-04-30T13:40:24.539Z</time></trkpt><trkpt lat="44.1930814" lon="8.0100722"><ele>617.3333333333333</ele><time>2026-04-30T13:40:25.605Z</time></trkpt><trkpt lat="44.1932726" lon="8.0101571"><ele>611.6666666666666</ele><time>2026-04-30T13:40:26.51Z</time></trkpt><trkpt lat="44.1934817" lon="8.0102463"><ele>606.0</ele><time>2026-04-30T13:40:27.501Z</time></trkpt><trkpt lat="44.1936993" lon="8.0103421"><ele>606.0</ele><time>2026-04-30T13:40:28.541Z</time></trkpt><trkpt lat="44.1939104" lon="8.0104322"><ele>606.0</ele><time>2026-04-30T13:40:29.564Z</time></trkpt><trkpt lat="44.1940955" lon="8.0105137"><ele>606.0</ele><time>2026-04-30T13:40:30.467Z</time></trkpt><trkpt lat="44.1943125" lon="8.0106094"><ele>603.6666666666666</ele><time>2026-04-30T13:40:31.542Z</time></trkpt><trkpt lat="44.1945042" lon="8.0106917"><ele>601.3333333333333</ele><time>2026-04-30T13:40:32.51Z</time></trkpt><trkpt lat="44.1947112" lon="8.0107819"><ele>599.0</ele><time>2026-04-30T13:40:33.559Z</time></trkpt><trkpt lat="44.1949237" lon="8.0108742"><ele>599.0</ele><time>2026-04-30T13:40:34.62Z</time></trkpt><trkpt lat="44.1951234" lon="8.0109629"><ele>599.0</ele><time>2026-04-30T13:40:35.61Z</time></trkpt><trkpt lat="44.1953173" lon="8.0110473"><ele>599.0</ele><time>2026-04-30T13:40:36.575Z</time></trkpt><trkpt lat="44.1955065" lon="8.011119"><ele>606.0</ele><time>2026-04-30T13:40:37.511Z</time></trkpt><trkpt lat="44.1957515" lon="8.0112003"><ele>613.0</ele><time>2026-04-30T13:40:38.693Z</time></trkpt><trkpt lat="44.1961626" lon="8.0113282"><ele>613.0</ele><time>2026-04-30T13:40:40.604Z</time></trkpt><trkpt lat="44.1963841" lon="8.0113898"><ele>613.0</ele><time>2026-04-30T13:40:41.619Z</time></trkpt><trkpt lat="44.1966068" lon="8.0114443"><ele>615.3333333333334</ele><time>2026-04-30T13:40:42.63Z</time></trkpt><trkpt lat="44.1968204" lon="8.0114907"><ele>617.6666666666666</ele><time>2026-04-30T13:40:43.585Z</time></trkpt><trkpt lat="44.1970378" lon="8.0115332"><ele>620.0</ele><time>2026-04-30T13:40:44.563Z</time></trkpt><trkpt lat="44.1972601" lon="8.0115814"><ele>622.6666666666666</ele><time>2026-04-30T13:40:45.573Z</time></trkpt><trkpt lat="44.1974781" lon="8.0116404"><ele>625.3333333333334</ele><time>2026-04-30T13:40:46.587Z</time></trkpt><trkpt lat="44.1976944" lon="8.0117079"><ele>628.0</ele><time>2026-04-30T13:40:47.628Z</time></trkpt><trkpt lat="44.1978792" lon="8.0117717"><ele>617.3333333333334</ele><time>2026-04-30T13:40:48.562Z</time></trkpt><trkpt lat="44.1980669" lon="8.011843"><ele>606.6666666666666</ele><time>2026-04-30T13:40:49.571Z</time></trkpt><trkpt lat="44.1982599" lon="8.0119183"><ele>596.0</ele><time>2026-04-30T13:40:50.675Z</time></trkpt><trkpt lat="44.1984142" lon="8.0119793"><ele>596.0</ele><time>2026-04-30T13:40:51.638Z</time></trkpt><trkpt lat="44.1985699" lon="8.0120417"><ele>596.0</ele><time>2026-04-30T13:40:52.673Z</time></trkpt><trkpt lat="44.1988304" lon="8.0121472"><ele>596.0</ele><time>2026-04-30T13:40:54.567Z</time></trkpt><trkpt lat="44.1989784" lon="8.0122081"><ele>596.0</ele><time>2026-04-30T13:40:55.651Z</time></trkpt><trkpt lat="44.1991077" lon="8.0122622"><ele>596.0</ele><time>2026-04-30T13:40:56.562Z</time></trkpt><trkpt lat="44.1992451" lon="8.0123182"><ele>596.0</ele><time>2026-04-30T13:40:57.558Z</time></trkpt><trkpt lat="44.1993855" lon="8.0123771"><ele>596.0</ele><time>2026-04-30T13:40:58.642Z</time></trkpt><trkpt lat="44.1996166" lon="8.0124756"><ele>593.25</ele><time>2026-04-30T13:41:00.593Z</time></trkpt><trkpt lat="44.1997392" lon="8.0125261"><ele>590.5</ele><time>2026-04-30T13:41:01.576Z</time></trkpt><trkpt lat="44.1998658" lon="8.0125792"><ele>587.75</ele><time>2026-04-30T13:41:02.569Z</time></trkpt><trkpt lat="44.1999908" lon="8.0126218"><ele>585.0</ele><time>2026-04-30T13:41:03.526Z</time></trkpt><trkpt lat="44.2001313" lon="8.0126784"><ele>585.0</ele><time>2026-04-30T13:41:04.625Z</time></trkpt><trkpt lat="44.2002795" lon="8.0127414"><ele>585.0</ele><time>2026-04-30T13:41:05.734Z</time></trkpt><trkpt lat="44.2005313" lon="8.0128353"><ele>585.0</ele><time>2026-04-30T13:41:07.4Z</time></trkpt><trkpt lat="44.2007362" lon="8.012908"><ele>585.0</ele><time>2026-04-30T13:41:08.6Z</time></trkpt><trkpt lat="44.2009229" lon="8.0129725"><ele>585.0</ele><time>2026-04-30T13:41:09.671Z</time></trkpt><trkpt lat="44.201093" lon="8.0130328"><ele>585.0</ele><time>2026-04-30T13:41:10.674Z</time></trkpt><trkpt lat="44.2012504" lon="8.0130969"><ele>585.0</ele><time>2026-04-30T13:41:11.634Z</time></trkpt><trkpt lat="44.2015822" lon="8.013234"><ele>585.0</ele><time>2026-04-30T13:41:13.66Z</time></trkpt><trkpt lat="44.2018791" lon="8.0133586"><ele>585.0</ele><time>2026-04-30T13:41:15.672Z</time></trkpt><trkpt lat="44.2021291" lon="8.0134738"><ele>585.0</ele><time>2026-04-30T13:41:17.548Z</time></trkpt><trkpt lat="44.2022772" lon="8.013537"><ele>585.0</ele><time>2026-04-30T13:41:18.557Z</time></trkpt><trkpt lat="44.2024295" lon="8.0135959"><ele>585.0</ele><time>2026-04-30T13:41:19.541Z</time></trkpt><trkpt lat="44.2025638" lon="8.0136509"><ele>585.0</ele><time>2026-04-30T13:41:20.47Z</time></trkpt><trkpt lat="44.2027368" lon="8.0137211"><ele>585.0</ele><time>2026-04-30T13:41:21.656Z</time></trkpt><trkpt lat="44.202872" lon="8.0137785"><ele>585.0</ele><time>2026-04-30T13:41:22.599Z</time></trkpt><trkpt lat="44.2030043" lon="8.0138345"><ele>585.0</ele><time>2026-04-30T13:41:23.577Z</time></trkpt><trkpt lat="44.2031357" lon="8.0138916"><ele>585.0</ele><time>2026-04-30T13:41:24.613Z</time></trkpt><trkpt lat="44.2032486" lon="8.0139401"><ele>585.0</ele><time>2026-04-30T13:41:25.524Z</time></trkpt><trkpt lat="44.2033805" lon="8.0139952"><ele>585.0</ele><time>2026-04-30T13:41:26.6Z</time></trkpt><trkpt lat="44.2034957" lon="8.0140439"><ele>585.0</ele><time>2026-04-30T13:41:27.639Z</time></trkpt><trkpt lat="44.2036041" lon="8.0140882"><ele>585.0</ele><time>2026-04-30T13:41:28.614Z</time></trkpt><trkpt lat="44.2037227" lon="8.0141374"><ele>585.0</ele><time>2026-04-30T13:41:29.664Z</time></trkpt><trkpt lat="44.2038231" lon="8.014178"><ele>584.75</ele><time>2026-04-30T13:41:30.569Z</time></trkpt><trkpt lat="44.2039361" lon="8.0142222"><ele>584.5</ele><time>2026-04-30T13:41:31.603Z</time></trkpt><trkpt lat="44.2040552" lon="8.0142731"><ele>584.25</ele><time>2026-04-30T13:41:32.775Z</time></trkpt><trkpt lat="44.2042029" lon="8.0143331"><ele>584.0</ele><time>2026-04-30T13:41:34.531Z</time></trkpt><trkpt lat="44.204272" lon="8.0143627"><ele>584.5</ele><time>2026-04-30T13:41:35.571Z</time></trkpt><trkpt lat="44.2043339" lon="8.0143889"><ele>585.0</ele><time>2026-04-30T13:41:36.538Z</time></trkpt><trkpt lat="44.2044879" lon="8.0144518"><ele>585.5</ele><time>2026-04-30T13:41:38.603Z</time></trkpt><trkpt lat="44.2046569" lon="8.014524"><ele>586.0</ele><time>2026-04-30T13:41:40.73Z</time></trkpt><trkpt lat="44.204732" lon="8.0145529"><ele>586.0</ele><time>2026-04-30T13:41:41.634Z</time></trkpt><trkpt lat="44.2048228" lon="8.0145954"><ele>586.0</ele><time>2026-04-30T13:41:42.65Z</time></trkpt><trkpt lat="44.2049286" lon="8.0146275"><ele>586.0</ele><time>2026-04-30T13:41:43.728Z</time></trkpt><trkpt lat="44.2051425" lon="8.0146494"><ele>586.0</ele><time>2026-04-30T13:41:45.698Z</time></trkpt><trkpt lat="44.2052726" lon="8.0146741"><ele>586.0</ele><time>2026-04-30T13:41:46.827Z</time></trkpt><trkpt lat="44.2053899" lon="8.0146871"><ele>586.0</ele><time>2026-04-30T13:41:47.776Z</time></trkpt><trkpt lat="44.2056297" lon="8.0147018"><ele>586.0</ele><time>2026-04-30T13:41:49.604Z</time></trkpt><trkpt lat="44.2058017" lon="8.0147136"><ele>585.0</ele><time>2026-04-30T13:41:50.848Z</time></trkpt><trkpt lat="44.2060865" lon="8.0147318"><ele>584.0</ele><time>2026-04-30T13:41:52.871Z</time></trkpt><trkpt lat="44.206215" lon="8.0147257"><ele>583.0</ele><time>2026-04-30T13:41:53.799Z</time></trkpt><trkpt lat="44.2063456" lon="8.0147301"><ele>581.0</ele><time>2026-04-30T13:41:54.731Z</time></trkpt><trkpt lat="44.2066474" lon="8.0147469"><ele>579.0</ele><time>2026-04-30T13:41:56.921Z</time></trkpt><trkpt lat="44.2069243" lon="8.0147639"><ele>579.0</ele><time>2026-04-30T13:41:58.917Z</time></trkpt><trkpt lat="44.2070636" lon="8.0147692"><ele>579.0</ele><time>2026-04-30T13:41:59.897Z</time></trkpt><trkpt lat="44.2071955" lon="8.014777"><ele>579.0</ele><time>2026-04-30T13:42:00.814Z</time></trkpt><trkpt lat="44.2074343" lon="8.0148008"><ele>578.6666666666666</ele><time>2026-04-30T13:42:02.619Z</time></trkpt><trkpt lat="44.2075798" lon="8.0148043"><ele>578.3333333333333</ele><time>2026-04-30T13:42:03.719Z</time></trkpt><trkpt lat="44.20784" lon="8.0148171"><ele>578.0</ele><time>2026-04-30T13:42:05.615Z</time></trkpt><trkpt lat="44.2081044" lon="8.0148414"><ele>577.75</ele><time>2026-04-30T13:42:07.623Z</time></trkpt><trkpt lat="44.2082362" lon="8.0148527"><ele>577.5</ele><time>2026-04-30T13:42:08.579Z</time></trkpt><trkpt lat="44.2083743" lon="8.0148606"><ele>577.25</ele><time>2026-04-30T13:42:09.553Z</time></trkpt><trkpt lat="44.208535" lon="8.0148717"><ele>577.0</ele><time>2026-04-30T13:42:10.628Z</time></trkpt><trkpt lat="44.2086947" lon="8.0148882"><ele>577.0</ele><time>2026-04-30T13:42:11.629Z</time></trkpt><trkpt lat="44.2089901" lon="8.0149138"><ele>577.0</ele><time>2026-04-30T13:42:13.582Z</time></trkpt><trkpt lat="44.2091335" lon="8.0149255"><ele>577.0</ele><time>2026-04-30T13:42:14.54Z</time></trkpt><trkpt lat="44.2092903" lon="8.0149385"><ele>577.0</ele><time>2026-04-30T13:42:15.586Z</time></trkpt><trkpt lat="44.2094456" lon="8.0149415"><ele>577.0</ele><time>2026-04-30T13:42:16.621Z</time></trkpt><trkpt lat="44.2096009" lon="8.014925"><ele>577.0</ele><time>2026-04-30T13:42:17.624Z</time></trkpt><trkpt lat="44.2099155" lon="8.0148364"><ele>576.6666666666667</ele><time>2026-04-30T13:42:19.638Z</time></trkpt><trkpt lat="44.2100678" lon="8.0147825"><ele>576.3333333333334</ele><time>2026-04-30T13:42:20.62Z</time></trkpt><trkpt lat="44.2102228" lon="8.0147218"><ele>576.0</ele><time>2026-04-30T13:42:21.64Z</time></trkpt><trkpt lat="44.2103843" lon="8.0146614"><ele>576.0</ele><time>2026-04-30T13:42:22.659Z</time></trkpt><trkpt lat="44.2105395" lon="8.0146006"><ele>576.0</ele><time>2026-04-30T13:42:23.575Z</time></trkpt><trkpt lat="44.210732" lon="8.0145319"><ele>576.0</ele><time>2026-04-30T13:42:24.662Z</time></trkpt><trkpt lat="44.2111139" lon="8.0144098"><ele>575.0</ele><time>2026-04-30T13:42:26.647Z</time></trkpt><trkpt lat="44.2112857" lon="8.0143723"><ele>574.0</ele><time>2026-04-30T13:42:27.555Z</time></trkpt><trkpt lat="44.2115168" lon="8.0143369"><ele>573.0</ele><time>2026-04-30T13:42:28.757Z</time></trkpt><trkpt lat="44.2119152" lon="8.0143346"><ele>572.5</ele><time>2026-04-30T13:42:30.674Z</time></trkpt><trkpt lat="44.2121228" lon="8.0143447"><ele>572.0</ele><time>2026-04-30T13:42:31.685Z</time></trkpt><trkpt lat="44.2125221" lon="8.0143743"><ele>571.5</ele><time>2026-04-30T13:42:33.685Z</time></trkpt><trkpt lat="44.2129211" lon="8.0144069"><ele>571.0</ele><time>2026-04-30T13:42:35.573Z</time></trkpt><trkpt lat="44.2131673" lon="8.0144261"><ele>571.0</ele><time>2026-04-30T13:42:36.679Z</time></trkpt><trkpt lat="44.2135763" lon="8.0144543"><ele>571.0</ele><time>2026-04-30T13:42:38.558Z</time></trkpt><trkpt lat="44.2138125" lon="8.0144721"><ele>570.0</ele><time>2026-04-30T13:42:39.654Z</time></trkpt><trkpt lat="44.2142434" lon="8.0144996"><ele>569.0</ele><time>2026-04-30T13:42:41.646Z</time></trkpt><trkpt lat="44.214472" lon="8.0145154"><ele>568.5</ele><time>2026-04-30T13:42:42.692Z</time></trkpt><trkpt lat="44.2148928" lon="8.014541"><ele>568.0</ele><time>2026-04-30T13:42:44.606Z</time></trkpt><trkpt lat="44.2151245" lon="8.0145534"><ele>568.0</ele><time>2026-04-30T13:42:45.653Z</time></trkpt><trkpt lat="44.2153335" lon="8.0145664"><ele>568.0</ele><time>2026-04-30T13:42:46.566Z</time></trkpt><trkpt lat="44.2155562" lon="8.0145829"><ele>568.0</ele><time>2026-04-30T13:42:47.518Z</time></trkpt><trkpt lat="44.2158116" lon="8.0146094"><ele>567.3333333333334</ele><time>2026-04-30T13:42:48.667Z</time></trkpt><trkpt lat="44.2160354" lon="8.0146266"><ele>566.6666666666666</ele><time>2026-04-30T13:42:49.64Z</time></trkpt><trkpt lat="44.216254" lon="8.0146416"><ele>566.0</ele><time>2026-04-30T13:42:50.586Z</time></trkpt><trkpt lat="44.2164754" lon="8.0146596"><ele>565.5</ele><time>2026-04-30T13:42:51.572Z</time></trkpt><trkpt lat="44.216722" lon="8.0146797"><ele>565.0</ele><time>2026-04-30T13:42:52.651Z</time></trkpt><trkpt lat="44.2171861" lon="8.0147108"><ele>565.0</ele><time>2026-04-30T13:42:54.675Z</time></trkpt><trkpt lat="44.2174356" lon="8.014727"><ele>565.0</ele><time>2026-04-30T13:42:55.682Z</time></trkpt><trkpt lat="44.2176768" lon="8.0147345"><ele>565.0</ele><time>2026-04-30T13:42:56.585Z</time></trkpt><trkpt lat="44.2179801" lon="8.0147401"><ele>565.0</ele><time>2026-04-30T13:42:57.682Z</time></trkpt><trkpt lat="44.2182577" lon="8.014753"><ele>565.0</ele><time>2026-04-30T13:42:58.661Z</time></trkpt><trkpt lat="44.2185578" lon="8.0147748"><ele>565.0</ele><time>2026-04-30T13:42:59.683Z</time></trkpt><trkpt lat="44.2188525" lon="8.0148105"><ele>564.5</ele><time>2026-04-30T13:43:00.679Z</time></trkpt><trkpt lat="44.2191272" lon="8.0148466"><ele>564.0</ele><time>2026-04-30T13:43:01.613Z</time></trkpt><trkpt lat="44.2194409" lon="8.0148746"><ele>565.0</ele><time>2026-04-30T13:43:02.681Z</time></trkpt><trkpt lat="44.2199836" lon="8.0149199"><ele>565.0</ele><time>2026-04-30T13:43:04.665Z</time></trkpt><trkpt lat="44.2202503" lon="8.0149385"><ele>565.0</ele><time>2026-04-30T13:43:05.644Z</time></trkpt><trkpt lat="44.22051" lon="8.0149573"><ele>565.5</ele><time>2026-04-30T13:43:06.596Z</time></trkpt><trkpt lat="44.2207553" lon="8.014974"><ele>566.0</ele><time>2026-04-30T13:43:07.498Z</time></trkpt><trkpt lat="44.2210595" lon="8.0149936"><ele>564.0</ele><time>2026-04-30T13:43:08.596Z</time></trkpt><trkpt lat="44.2213602" lon="8.0150154"><ele>562.0</ele><time>2026-04-30T13:43:09.676Z</time></trkpt><trkpt lat="44.2216466" lon="8.0150356"><ele>561.0</ele><time>2026-04-30T13:43:10.726Z</time></trkpt><trkpt lat="44.2221439" lon="8.0150695"><ele>560.5</ele><time>2026-04-30T13:43:12.627Z</time></trkpt><trkpt lat="44.2223981" lon="8.0150862"><ele>560.0</ele><time>2026-04-30T13:43:13.659Z</time></trkpt><trkpt lat="44.2226297" lon="8.0150961"><ele>560.0</ele><time>2026-04-30T13:43:14.632Z</time></trkpt><trkpt lat="44.2228614" lon="8.0151093"><ele>560.0</ele><time>2026-04-30T13:43:15.667Z</time></trkpt><trkpt lat="44.2230597" lon="8.0151216"><ele>560.0</ele><time>2026-04-30T13:43:16.573Z</time></trkpt><trkpt lat="44.2232594" lon="8.0151339"><ele>560.5</ele><time>2026-04-30T13:43:17.497Z</time></trkpt><trkpt lat="44.22352" lon="8.0151506"><ele>561.0</ele><time>2026-04-30T13:43:18.69Z</time></trkpt><trkpt lat="44.2239623" lon="8.015169"><ele>561.0</ele><time>2026-04-30T13:43:20.659Z</time></trkpt><trkpt lat="44.2241919" lon="8.0151817"><ele>561.0</ele><time>2026-04-30T13:43:21.653Z</time></trkpt><trkpt lat="44.2244381" lon="8.0152029"><ele>560.5</ele><time>2026-04-30T13:43:22.707Z</time></trkpt><trkpt lat="44.2248696" lon="8.0152606"><ele>560.0</ele><time>2026-04-30T13:43:24.595Z</time></trkpt><trkpt lat="44.2250739" lon="8.0152979"><ele>560.0</ele><time>2026-04-30T13:43:25.553Z</time></trkpt><trkpt lat="44.225312" lon="8.0153447"><ele>560.0</ele><time>2026-04-30T13:43:26.658Z</time></trkpt><trkpt lat="44.2255123" lon="8.0153889"><ele>560.0</ele><time>2026-04-30T13:43:27.608Z</time></trkpt><trkpt lat="44.225918" lon="8.015519"><ele>566.0</ele><time>2026-04-30T13:43:29.626Z</time></trkpt><trkpt lat="44.2261113" lon="8.0155953"><ele>572.0</ele><time>2026-04-30T13:43:30.702Z</time></trkpt><trkpt lat="44.2264484" lon="8.0157334"><ele>570.0</ele><time>2026-04-30T13:43:32.67Z</time></trkpt><trkpt lat="44.2266226" lon="8.0158106"><ele>568.0</ele><time>2026-04-30T13:43:33.699Z</time></trkpt><trkpt lat="44.2267742" lon="8.0158842"><ele>566.0</ele><time>2026-04-30T13:43:34.638Z</time></trkpt><trkpt lat="44.2269451" lon="8.0159678"><ele>566.0</ele><time>2026-04-30T13:43:35.727Z</time></trkpt><trkpt lat="44.2270901" lon="8.0160455"><ele>566.0</ele><time>2026-04-30T13:43:36.69Z</time></trkpt><trkpt lat="44.2272217" lon="8.0161233"><ele>566.0</ele><time>2026-04-30T13:43:37.614Z</time></trkpt><trkpt lat="44.2273771" lon="8.0162174"><ele>569.3333333333333</ele><time>2026-04-30T13:43:38.781Z</time></trkpt><trkpt lat="44.2276229" lon="8.0163657"><ele>572.6666666666666</ele><time>2026-04-30T13:43:40.635Z</time></trkpt><trkpt lat="44.2277544" lon="8.0164468"><ele>576.0</ele><time>2026-04-30T13:43:41.646Z</time></trkpt><trkpt lat="44.227882" lon="8.0165284"><ele>576.0</ele><time>2026-04-30T13:43:42.64Z</time></trkpt><trkpt lat="44.2280143" lon="8.0166153"><ele>576.0</ele><time>2026-04-30T13:43:43.706Z</time></trkpt><trkpt lat="44.2281509" lon="8.0167062"><ele>576.0</ele><time>2026-04-30T13:43:44.805Z</time></trkpt><trkpt lat="44.2282794" lon="8.0167851"><ele>576.0</ele><time>2026-04-30T13:43:45.79Z</time></trkpt><trkpt lat="44.2284129" lon="8.0168708"><ele>572.0</ele><time>2026-04-30T13:43:46.83Z</time></trkpt><trkpt lat="44.2286447" lon="8.0170204"><ele>568.0</ele><time>2026-04-30T13:43:48.699Z</time></trkpt><trkpt lat="44.228767" lon="8.017098"><ele>564.0</ele><time>2026-04-30T13:43:49.634Z</time></trkpt><trkpt lat="44.2289014" lon="8.0171769"><ele>565.0</ele><time>2026-04-30T13:43:50.622Z</time></trkpt><trkpt lat="44.2290404" lon="8.0172468"><ele>566.0</ele><time>2026-04-30T13:43:51.623Z</time></trkpt><trkpt lat="44.2291738" lon="8.0173017"><ele>567.0</ele><time>2026-04-30T13:43:52.569Z</time></trkpt><trkpt lat="44.2293094" lon="8.017349"><ele>568.0</ele><time>2026-04-30T13:43:53.521Z</time></trkpt><trkpt lat="44.2294713" lon="8.0173942"><ele>568.0</ele><time>2026-04-30T13:43:54.622Z</time></trkpt><trkpt lat="44.2296231" lon="8.0174271"><ele>568.0</ele><time>2026-04-30T13:43:55.642Z</time></trkpt><trkpt lat="44.2297736" lon="8.0174478"><ele>568.0</ele><time>2026-04-30T13:43:56.641Z</time></trkpt><trkpt lat="44.2300908" lon="8.0174537"><ele>570.5</ele><time>2026-04-30T13:43:58.659Z</time></trkpt><trkpt lat="44.2302556" lon="8.0174414"><ele>573.0</ele><time>2026-04-30T13:43:59.694Z</time></trkpt><trkpt lat="44.2305657" lon="8.0173654"><ele>572.0</ele><time>2026-04-30T13:44:01.689Z</time></trkpt><trkpt lat="44.2307228" lon="8.0173127"><ele>571.0</ele><time>2026-04-30T13:44:02.688Z</time></trkpt><trkpt lat="44.2308769" lon="8.0172488"><ele>570.0</ele><time>2026-04-30T13:44:03.641Z</time></trkpt><trkpt lat="44.2310144" lon="8.0171772"><ele>570.0</ele><time>2026-04-30T13:44:04.562Z</time></trkpt><trkpt lat="44.2312013" lon="8.0170679"><ele>570.0</ele><time>2026-04-30T13:44:05.794Z</time></trkpt><trkpt lat="44.2313673" lon="8.0169543"><ele>570.0</ele><time>2026-04-30T13:44:06.92Z</time></trkpt><trkpt lat="44.2317254" lon="8.0166996"><ele>570.3333333333334</ele><time>2026-04-30T13:44:08.822Z</time></trkpt><trkpt lat="44.2318637" lon="8.0165953"><ele>570.6666666666667</ele><time>2026-04-30T13:44:09.529Z</time></trkpt><trkpt lat="44.2321206" lon="8.0164363"><ele>571.0</ele><time>2026-04-30T13:44:10.721Z</time></trkpt><trkpt lat="44.2323689" lon="8.0162985"><ele>565.5</ele><time>2026-04-30T13:44:11.848Z</time></trkpt><trkpt lat="44.2325631" lon="8.0161558"><ele>560.0</ele><time>2026-04-30T13:44:12.796Z</time></trkpt><trkpt lat="44.2329553" lon="8.0158916"><ele>558.6666666666666</ele><time>2026-04-30T13:44:14.713Z</time></trkpt><trkpt lat="44.2331537" lon="8.0157542"><ele>557.3333333333334</ele><time>2026-04-30T13:44:15.713Z</time></trkpt><trkpt lat="44.233357" lon="8.0156153"><ele>556.0</ele><time>2026-04-30T13:44:16.749Z</time></trkpt><trkpt lat="44.2335898" lon="8.0154715"><ele>553.5</ele><time>2026-04-30T13:44:17.895Z</time></trkpt><trkpt lat="44.2339863" lon="8.0152836"><ele>551.0</ele><time>2026-04-30T13:44:19.771Z</time></trkpt><trkpt lat="44.2343729" lon="8.0151794"><ele>551.0</ele><time>2026-04-30T13:44:21.586Z</time></trkpt><trkpt lat="44.2346101" lon="8.015138"><ele>551.0</ele><time>2026-04-30T13:44:22.661Z</time></trkpt><trkpt lat="44.2348277" lon="8.01512"><ele>550.5</ele><time>2026-04-30T13:44:23.568Z</time></trkpt><trkpt lat="44.2350905" lon="8.0151245"><ele>550.0</ele><time>2026-04-30T13:44:24.631Z</time></trkpt><trkpt lat="44.2353224" lon="8.0151443"><ele>548.0</ele><time>2026-04-30T13:44:25.604Z</time></trkpt><trkpt lat="44.2357588" lon="8.0151817"><ele>546.0</ele><time>2026-04-30T13:44:27.551Z</time></trkpt><trkpt lat="44.2359664" lon="8.0151892"><ele>546.0</ele><time>2026-04-30T13:44:28.526Z</time></trkpt><trkpt lat="44.2361788" lon="8.015199"><ele>546.0</ele><time>2026-04-30T13:44:29.534Z</time></trkpt><trkpt lat="44.2363661" lon="8.0152054"><ele>546.0</ele><time>2026-04-30T13:44:30.475Z</time></trkpt><trkpt lat="44.2365777" lon="8.0152124"><ele>546.5</ele><time>2026-04-30T13:44:31.572Z</time></trkpt><trkpt lat="44.2367784" lon="8.0152241"><ele>547.0</ele><time>2026-04-30T13:44:32.64Z</time></trkpt><trkpt lat="44.2371548" lon="8.01526"><ele>546.6666666666667</ele><time>2026-04-30T13:44:34.575Z</time></trkpt><trkpt lat="44.2373351" lon="8.0152995"><ele>546.3333333333334</ele><time>2026-04-30T13:44:35.551Z</time></trkpt><trkpt lat="44.2375207" lon="8.0153651"><ele>546.0</ele><time>2026-04-30T13:44:36.61Z</time></trkpt><trkpt lat="44.2376838" lon="8.015434"><ele>546.0</ele><time>2026-04-30T13:44:37.57Z</time></trkpt><trkpt lat="44.2378424" lon="8.0155239"><ele>546.0</ele><time>2026-04-30T13:44:38.56Z</time></trkpt><trkpt lat="44.2380213" lon="8.0156473"><ele>546.0</ele><time>2026-04-30T13:44:39.653Z</time></trkpt><trkpt lat="44.2381739" lon="8.015775"><ele>546.5</ele><time>2026-04-30T13:44:40.641Z</time></trkpt><trkpt lat="44.2383246" lon="8.0159204"><ele>547.0</ele><time>2026-04-30T13:44:41.661Z</time></trkpt><trkpt lat="44.2385691" lon="8.0162054"><ele>547.0</ele><time>2026-04-30T13:44:43.431Z</time></trkpt><trkpt lat="44.2387354" lon="8.0164347"><ele>547.0</ele><time>2026-04-30T13:44:44.713Z</time></trkpt><trkpt lat="44.238936" lon="8.0167848"><ele>547.0</ele><time>2026-04-30T13:44:46.561Z</time></trkpt><trkpt lat="44.2390374" lon="8.016994"><ele>547.0</ele><time>2026-04-30T13:44:47.619Z</time></trkpt><trkpt lat="44.2391234" lon="8.0171971"><ele>547.0</ele><time>2026-04-30T13:44:48.629Z</time></trkpt><trkpt lat="44.2392082" lon="8.0174261"><ele>547.5</ele><time>2026-04-30T13:44:49.755Z</time></trkpt><trkpt lat="44.2393249" lon="8.0178532"><ele>548.0</ele><time>2026-04-30T13:44:51.727Z</time></trkpt><trkpt lat="44.2394141" lon="8.0182423"><ele>548.0</ele><time>2026-04-30T13:44:53.486Z</time></trkpt><trkpt lat="44.2394845" lon="8.0184979"><ele>548.0</ele><time>2026-04-30T13:44:54.602Z</time></trkpt><trkpt lat="44.2395747" lon="8.0187504"><ele>548.0</ele><time>2026-04-30T13:44:55.656Z</time></trkpt><trkpt lat="44.2397921" lon="8.0192441"><ele>548.6666666666666</ele><time>2026-04-30T13:44:57.655Z</time></trkpt><trkpt lat="44.2399118" lon="8.0195008"><ele>549.3333333333334</ele><time>2026-04-30T13:44:58.647Z</time></trkpt><trkpt lat="44.2400205" lon="8.0197593"><ele>550.0</ele><time>2026-04-30T13:44:59.59Z</time></trkpt><trkpt lat="44.2401346" lon="8.0200464"><ele>550.0</ele><time>2026-04-30T13:45:00.611Z</time></trkpt><trkpt lat="44.2402526" lon="8.0203299"><ele>550.0</ele><time>2026-04-30T13:45:01.687Z</time></trkpt><trkpt lat="44.2404759" lon="8.0207568"><ele>550.0</ele><time>2026-04-30T13:45:03.521Z</time></trkpt><trkpt lat="44.2406314" lon="8.0209858"><ele>550.0</ele><time>2026-04-30T13:45:04.606Z</time></trkpt><trkpt lat="44.2408078" lon="8.0211952"><ele>550.0</ele><time>2026-04-30T13:45:05.635Z</time></trkpt><trkpt lat="44.2409925" lon="8.0213304"><ele>550.0</ele><time>2026-04-30T13:45:06.646Z</time></trkpt><trkpt lat="44.241426" lon="8.0214709"><ele>549.5</ele><time>2026-04-30T13:45:08.449Z</time></trkpt><trkpt lat="44.2416809" lon="8.0215871"><ele>549.0</ele><time>2026-04-30T13:45:09.592Z</time></trkpt><trkpt lat="44.2418851" lon="8.0216715"><ele>549.0</ele><time>2026-04-30T13:45:10.534Z</time></trkpt><trkpt lat="44.2421194" lon="8.021732"><ele>549.0</ele><time>2026-04-30T13:45:11.583Z</time></trkpt><trkpt lat="44.2423861" lon="8.0217522"><ele>550.0</ele><time>2026-04-30T13:45:12.676Z</time></trkpt><trkpt lat="44.2429001" lon="8.021729"><ele>548.0</ele><time>2026-04-30T13:45:14.733Z</time></trkpt><trkpt lat="44.2433814" lon="8.0217125"><ele>548.0</ele><time>2026-04-30T13:45:16.627Z</time></trkpt><trkpt lat="44.2436137" lon="8.0217111"><ele>548.0</ele><time>2026-04-30T13:45:17.563Z</time></trkpt><trkpt lat="44.2438686" lon="8.0217059"><ele>548.0</ele><time>2026-04-30T13:45:18.587Z</time></trkpt><trkpt lat="44.2441145" lon="8.0216991"><ele>548.0</ele><time>2026-04-30T13:45:19.567Z</time></trkpt><trkpt lat="44.2443529" lon="8.0216914"><ele>548.0</ele><time>2026-04-30T13:45:20.527Z</time></trkpt><trkpt lat="44.2446015" lon="8.0216846"><ele>548.0</ele><time>2026-04-30T13:45:21.539Z</time></trkpt><trkpt lat="44.2448355" lon="8.0216797"><ele>548.0</ele><time>2026-04-30T13:45:22.509Z</time></trkpt><trkpt lat="44.245115" lon="8.0216702"><ele>548.0</ele><time>2026-04-30T13:45:23.7Z</time></trkpt><trkpt lat="44.2455536" lon="8.0216579"><ele>554.5</ele><time>2026-04-30T13:45:25.538Z</time></trkpt><trkpt lat="44.2457997" lon="8.0216485"><ele>561.0</ele><time>2026-04-30T13:45:26.598Z</time></trkpt><trkpt lat="44.246022" lon="8.021639"><ele>561.0</ele><time>2026-04-30T13:45:27.566Z</time></trkpt><trkpt lat="44.2462856" lon="8.0216332"><ele>561.0</ele><time>2026-04-30T13:45:28.663Z</time></trkpt><trkpt lat="44.2465184" lon="8.021627"><ele>557.5</ele><time>2026-04-30T13:45:29.621Z</time></trkpt><trkpt lat="44.2467598" lon="8.021619"><ele>554.0</ele><time>2026-04-30T13:45:30.615Z</time></trkpt><trkpt lat="44.247008" lon="8.0216109"><ele>551.0</ele><time>2026-04-30T13:45:31.654Z</time></trkpt><trkpt lat="44.2474344" lon="8.0216032"><ele>548.0</ele><time>2026-04-30T13:45:33.413Z</time></trkpt><trkpt lat="44.2477345" lon="8.0215956"><ele>548.0</ele><time>2026-04-30T13:45:34.611Z</time></trkpt><trkpt lat="44.2480007" lon="8.0215899"><ele>548.0</ele><time>2026-04-30T13:45:35.674Z</time></trkpt><trkpt lat="44.2484862" lon="8.0215778"><ele>544.0</ele><time>2026-04-30T13:45:37.6Z</time></trkpt><trkpt lat="44.2489338" lon="8.0215742"><ele>540.0</ele><time>2026-04-30T13:45:39.493Z</time></trkpt><trkpt lat="44.2491834" lon="8.0215687"><ele>540.0</ele><time>2026-04-30T13:45:40.683Z</time></trkpt><trkpt lat="44.2495166" lon="8.0215624"><ele>540.0</ele><time>2026-04-30T13:45:42.447Z</time></trkpt><trkpt lat="44.2497119" lon="8.0215591"><ele>542.0</ele><time>2026-04-30T13:45:43.611Z</time></trkpt><trkpt lat="44.2498633" lon="8.0215515"><ele>544.0</ele><time>2026-04-30T13:45:44.565Z</time></trkpt><trkpt lat="44.2500072" lon="8.0215476"><ele>546.0</ele><time>2026-04-30T13:45:45.53Z</time></trkpt><trkpt lat="44.2501617" lon="8.0215432"><ele>546.0</ele><time>2026-04-30T13:45:46.635Z</time></trkpt><trkpt lat="44.2502948" lon="8.0215383"><ele>546.0</ele><time>2026-04-30T13:45:47.645Z</time></trkpt><trkpt lat="44.250422" lon="8.0215341"><ele>546.0</ele><time>2026-04-30T13:45:48.682Z</time></trkpt><trkpt lat="44.2505322" lon="8.0215291"><ele>546.0</ele><time>2026-04-30T13:45:49.635Z</time></trkpt><trkpt lat="44.250641" lon="8.0215246"><ele>546.25</ele><time>2026-04-30T13:45:50.66Z</time></trkpt><trkpt lat="44.2507379" lon="8.0215208"><ele>546.5</ele><time>2026-04-30T13:45:51.666Z</time></trkpt><trkpt lat="44.2509114" lon="8.0215051"><ele>546.75</ele><time>2026-04-30T13:45:53.636Z</time></trkpt><trkpt lat="44.2510012" lon="8.0214911"><ele>547.0</ele><time>2026-04-30T13:45:54.561Z</time></trkpt><trkpt lat="44.2511113" lon="8.0214656"><ele>547.0</ele><time>2026-04-30T13:45:55.629Z</time></trkpt><trkpt lat="44.2512267" lon="8.0214295"><ele>547.0</ele><time>2026-04-30T13:45:56.67Z</time></trkpt><trkpt lat="44.2514368" lon="8.0213191"><ele>547.0</ele><time>2026-04-30T13:45:58.624Z</time></trkpt><trkpt lat="44.251554" lon="8.0212423"><ele>546.5</ele><time>2026-04-30T13:45:59.678Z</time></trkpt><trkpt lat="44.2516496" lon="8.0211721"><ele>546.0</ele><time>2026-04-30T13:46:00.579Z</time></trkpt><trkpt lat="44.2517447" lon="8.0210983"><ele>545.5</ele><time>2026-04-30T13:46:01.504Z</time></trkpt><trkpt lat="44.2518533" lon="8.0210215"><ele>545.0</ele><time>2026-04-30T13:46:02.562Z</time></trkpt><trkpt lat="44.2519695" lon="8.020946"><ele>545.0</ele><time>2026-04-30T13:46:03.609Z</time></trkpt><trkpt lat="44.2520919" lon="8.0208595"><ele>545.0</ele><time>2026-04-30T13:46:04.698Z</time></trkpt><trkpt lat="44.252321" lon="8.0207103"><ele>545.0</ele><time>2026-04-30T13:46:06.704Z</time></trkpt><trkpt lat="44.2525488" lon="8.0205922"><ele>550.25</ele><time>2026-04-30T13:46:08.519Z</time></trkpt><trkpt lat="44.2526893" lon="8.0205394"><ele>555.5</ele><time>2026-04-30T13:46:09.559Z</time></trkpt><trkpt lat="44.2528274" lon="8.0204904"><ele>560.75</ele><time>2026-04-30T13:46:10.569Z</time></trkpt><trkpt lat="44.2529629" lon="8.0204446"><ele>566.0</ele><time>2026-04-30T13:46:11.575Z</time></trkpt><trkpt lat="44.2531066" lon="8.0204017"><ele>565.3333333333333</ele><time>2026-04-30T13:46:12.62Z</time></trkpt><trkpt lat="44.2532352" lon="8.0203688"><ele>564.6666666666666</ele><time>2026-04-30T13:46:13.534Z</time></trkpt><trkpt lat="44.2534012" lon="8.0203341"><ele>564.0</ele><time>2026-04-30T13:46:14.671Z</time></trkpt><trkpt lat="44.2536783" lon="8.0202859"><ele>564.0</ele><time>2026-04-30T13:46:16.549Z</time></trkpt><trkpt lat="44.2538352" lon="8.0202573"><ele>564.0</ele><time>2026-04-30T13:46:17.618Z</time></trkpt><trkpt lat="44.2541226" lon="8.0202067"><ele>564.0</ele><time>2026-04-30T13:46:19.528Z</time></trkpt><trkpt lat="44.2542814" lon="8.0201771"><ele>559.6666666666666</ele><time>2026-04-30T13:46:20.589Z</time></trkpt><trkpt lat="44.2544273" lon="8.0201497"><ele>555.3333333333333</ele><time>2026-04-30T13:46:21.584Z</time></trkpt><trkpt lat="44.2545689" lon="8.0201276"><ele>551.0</ele><time>2026-04-30T13:46:22.563Z</time></trkpt><trkpt lat="44.2547288" lon="8.020111"><ele>548.5</ele><time>2026-04-30T13:46:23.65Z</time></trkpt><trkpt lat="44.2548711" lon="8.0201036"><ele>546.0</ele><time>2026-04-30T13:46:24.621Z</time></trkpt><trkpt lat="44.2550125" lon="8.0201047"><ele>543.5</ele><time>2026-04-30T13:46:25.652Z</time></trkpt><trkpt lat="44.2551387" lon="8.0201092"><ele>541.0</ele><time>2026-04-30T13:46:26.63Z</time></trkpt><trkpt lat="44.2552706" lon="8.020115"><ele>541.0</ele><time>2026-04-30T13:46:27.711Z</time></trkpt><trkpt lat="44.2554982" lon="8.0201378"><ele>541.0</ele><time>2026-04-30T13:46:29.601Z</time></trkpt><trkpt lat="44.2556322" lon="8.0201726"><ele>541.0</ele><time>2026-04-30T13:46:30.697Z</time></trkpt><trkpt lat="44.2558634" lon="8.0202817"><ele>541.3333333333334</ele><time>2026-04-30T13:46:32.68Z</time></trkpt><trkpt lat="44.2560752" lon="8.0204055"><ele>541.6666666666666</ele><time>2026-04-30T13:46:34.633Z</time></trkpt><trkpt lat="44.2561939" lon="8.0204738"><ele>542.0</ele><time>2026-04-30T13:46:35.647Z</time></trkpt><trkpt lat="44.2563144" lon="8.0205445"><ele>544.0</ele><time>2026-04-30T13:46:36.625Z</time></trkpt><trkpt lat="44.2565622" lon="8.0207107"><ele>546.0</ele><time>2026-04-30T13:46:38.684Z</time></trkpt><trkpt lat="44.2566644" lon="8.0207856"><ele>548.0</ele><time>2026-04-30T13:46:39.605Z</time></trkpt><trkpt lat="44.2568055" lon="8.0208892"><ele>543.6666666666666</ele><time>2026-04-30T13:46:40.801Z</time></trkpt><trkpt lat="44.2570178" lon="8.0210387"><ele>539.3333333333334</ele><time>2026-04-30T13:46:42.51Z</time></trkpt><trkpt lat="44.2571576" lon="8.0211266"><ele>535.0</ele><time>2026-04-30T13:46:43.626Z</time></trkpt><trkpt lat="44.257278" lon="8.0212072"><ele>536.75</ele><time>2026-04-30T13:46:44.599Z</time></trkpt><trkpt lat="44.2573996" lon="8.0212836"><ele>538.5</ele><time>2026-04-30T13:46:45.583Z</time></trkpt><trkpt lat="44.2575097" lon="8.0213541"><ele>540.25</ele><time>2026-04-30T13:46:46.503Z</time></trkpt><trkpt lat="44.2576465" lon="8.0214455"><ele>542.0</ele><time>2026-04-30T13:46:47.685Z</time></trkpt><trkpt lat="44.2578593" lon="8.0216063"><ele>541.3333333333333</ele><time>2026-04-30T13:46:49.654Z</time></trkpt><trkpt lat="44.2579682" lon="8.0217147"><ele>540.6666666666666</ele><time>2026-04-30T13:46:50.663Z</time></trkpt><trkpt lat="44.2581524" lon="8.0219363"><ele>540.0</ele><time>2026-04-30T13:46:52.617Z</time></trkpt><trkpt lat="44.258244" lon="8.0220583"><ele>540.0</ele><time>2026-04-30T13:46:53.662Z</time></trkpt><trkpt lat="44.2584309" lon="8.0223029"><ele>540.0</ele><time>2026-04-30T13:46:55.67Z</time></trkpt><trkpt lat="44.2586167" lon="8.0225509"><ele>539.5</ele><time>2026-04-30T13:46:57.619Z</time></trkpt><trkpt lat="44.2587231" lon="8.022688"><ele>539.0</ele><time>2026-04-30T13:46:58.662Z</time></trkpt><trkpt lat="44.2588274" lon="8.0228268"><ele>538.5</ele><time>2026-04-30T13:46:59.711Z</time></trkpt><trkpt lat="44.258921" lon="8.022948"><ele>538.0</ele><time>2026-04-30T13:47:00.638Z</time></trkpt><trkpt lat="44.2591355" lon="8.0232215"><ele>535.0</ele><time>2026-04-30T13:47:02.715Z</time></trkpt><trkpt lat="44.2593728" lon="8.02345"><ele>532.0</ele><time>2026-04-30T13:47:04.677Z</time></trkpt><trkpt lat="44.2595165" lon="8.0235521"><ele>529.0</ele><time>2026-04-30T13:47:05.75Z</time></trkpt><trkpt lat="44.2596436" lon="8.0236304"><ele>534.0</ele><time>2026-04-30T13:47:06.711Z</time></trkpt><trkpt lat="44.2599133" lon="8.0237965"><ele>539.0</ele><time>2026-04-30T13:47:08.734Z</time></trkpt><trkpt lat="44.2601808" lon="8.0239701"><ele>539.0</ele><time>2026-04-30T13:47:10.68Z</time></trkpt><trkpt lat="44.2603136" lon="8.0240572"><ele>539.0</ele><time>2026-04-30T13:47:11.663Z</time></trkpt><trkpt lat="44.260445" lon="8.0241422"><ele>539.0</ele><time>2026-04-30T13:47:12.626Z</time></trkpt><trkpt lat="44.2605854" lon="8.0242332"><ele>539.0</ele><time>2026-04-30T13:47:13.633Z</time></trkpt><trkpt lat="44.2607342" lon="8.02433"><ele>535.3333333333333</ele><time>2026-04-30T13:47:14.697Z</time></trkpt><trkpt lat="44.2608788" lon="8.0244204"><ele>531.6666666666666</ele><time>2026-04-30T13:47:15.668Z</time></trkpt><trkpt lat="44.2610217" lon="8.0245122"><ele>528.0</ele><time>2026-04-30T13:47:16.622Z</time></trkpt><trkpt lat="44.2611784" lon="8.0246097"><ele>528.0</ele><time>2026-04-30T13:47:17.644Z</time></trkpt><trkpt lat="44.2613191" lon="8.0246989"><ele>528.0</ele><time>2026-04-30T13:47:18.574Z</time></trkpt><trkpt lat="44.2614808" lon="8.0248045"><ele>528.0</ele><time>2026-04-30T13:47:19.639Z</time></trkpt><trkpt lat="44.2617899" lon="8.0249968"><ele>528.3333333333334</ele><time>2026-04-30T13:47:21.627Z</time></trkpt><trkpt lat="44.26196" lon="8.0251007"><ele>528.6666666666667</ele><time>2026-04-30T13:47:22.707Z</time></trkpt><trkpt lat="44.2621301" lon="8.0252073"><ele>529.0</ele><time>2026-04-30T13:47:23.781Z</time></trkpt><trkpt lat="44.2624429" lon="8.0253937"><ele>529.0</ele><time>2026-04-30T13:47:25.691Z</time></trkpt><trkpt lat="44.2626128" lon="8.0255017"><ele>529.0</ele><time>2026-04-30T13:47:26.715Z</time></trkpt><trkpt lat="44.2627683" lon="8.0256017"><ele>529.0</ele><time>2026-04-30T13:47:27.65Z</time></trkpt><trkpt lat="44.2629175" lon="8.0256906"><ele>529.0</ele><time>2026-04-30T13:47:28.518Z</time></trkpt><trkpt lat="44.2631168" lon="8.0258055"><ele>529.0</ele><time>2026-04-30T13:47:29.571Z</time></trkpt><trkpt lat="44.2633463" lon="8.0259392"><ele>529.0</ele><time>2026-04-30T13:47:30.655Z</time></trkpt><trkpt lat="44.2635617" lon="8.0260699"><ele>529.0</ele><time>2026-04-30T13:47:31.609Z</time></trkpt><trkpt lat="44.2637866" lon="8.0262058"><ele>529.0</ele><time>2026-04-30T13:47:32.557Z</time></trkpt><trkpt lat="44.2640602" lon="8.0263824"><ele>529.0</ele><time>2026-04-30T13:47:33.7Z</time></trkpt><trkpt lat="44.2643017" lon="8.0265561"><ele>528.0</ele><time>2026-04-30T13:47:34.691Z</time></trkpt><trkpt lat="44.2645318" lon="8.026719"><ele>527.0</ele><time>2026-04-30T13:47:35.612Z</time></trkpt><trkpt lat="44.2648031" lon="8.0269026"><ele>527.0</ele><time>2026-04-30T13:47:36.675Z</time></trkpt><trkpt lat="44.2650599" lon="8.0270541"><ele>527.0</ele><time>2026-04-30T13:47:37.651Z</time></trkpt><trkpt lat="44.2653247" lon="8.0272207"><ele>527.0</ele><time>2026-04-30T13:47:38.673Z</time></trkpt><trkpt lat="44.2655827" lon="8.0273857"><ele>527.0</ele><time>2026-04-30T13:47:39.676Z</time></trkpt><trkpt lat="44.2658271" lon="8.0275412"><ele>524.5</ele><time>2026-04-30T13:47:40.649Z</time></trkpt><trkpt lat="44.2660844" lon="8.0277027"><ele>522.0</ele><time>2026-04-30T13:47:41.663Z</time></trkpt><trkpt lat="44.2663176" lon="8.0278489"><ele>521.0</ele><time>2026-04-30T13:47:42.576Z</time></trkpt><trkpt lat="44.2666015" lon="8.0280273"><ele>520.0</ele><time>2026-04-30T13:47:43.705Z</time></trkpt><trkpt lat="44.2670862" lon="8.0283276"><ele>519.0</ele><time>2026-04-30T13:47:45.636Z</time></trkpt><trkpt lat="44.2673377" lon="8.0284817"><ele>518.0</ele><time>2026-04-30T13:47:46.636Z</time></trkpt><trkpt lat="44.2675982" lon="8.0286443"><ele>518.0</ele><time>2026-04-30T13:47:47.689Z</time></trkpt><trkpt lat="44.2680862" lon="8.0289485"><ele>516.0</ele><time>2026-04-30T13:47:49.663Z</time></trkpt><trkpt lat="44.2685741" lon="8.0292553"><ele>519.0</ele><time>2026-04-30T13:47:51.674Z</time></trkpt><trkpt lat="44.2690548" lon="8.0295579"><ele>519.0</ele><time>2026-04-30T13:47:53.633Z</time></trkpt><trkpt lat="44.269309" lon="8.0296914"><ele>519.0</ele><time>2026-04-30T13:47:54.646Z</time></trkpt><trkpt lat="44.2695945" lon="8.0297984"><ele>525.0</ele><time>2026-04-30T13:47:55.746Z</time></trkpt><trkpt lat="44.2701116" lon="8.0299562"><ele>521.0</ele><time>2026-04-30T13:47:57.637Z</time></trkpt><trkpt lat="44.2706562" lon="8.0301153"><ele>521.0</ele><time>2026-04-30T13:47:59.587Z</time></trkpt><trkpt lat="44.2709452" lon="8.0301998"><ele>521.0</ele><time>2026-04-30T13:48:00.627Z</time></trkpt><trkpt lat="44.271228" lon="8.0302818"><ele>520.0</ele><time>2026-04-30T13:48:01.643Z</time></trkpt><trkpt lat="44.2715019" lon="8.030361"><ele>519.0</ele><time>2026-04-30T13:48:02.619Z</time></trkpt><trkpt lat="44.2718173" lon="8.0304488"><ele>522.0</ele><time>2026-04-30T13:48:03.748Z</time></trkpt><trkpt lat="44.2723375" lon="8.0305982"><ele>522.0</ele><time>2026-04-30T13:48:05.633Z</time></trkpt><trkpt lat="44.272588" lon="8.03067"><ele>522.0</ele><time>2026-04-30T13:48:06.565Z</time></trkpt><trkpt lat="44.2728424" lon="8.030745"><ele>522.0</ele><time>2026-04-30T13:48:07.585Z</time></trkpt><trkpt lat="44.2730631" lon="8.0308076"><ele>522.0</ele><time>2026-04-30T13:48:08.546Z</time></trkpt><trkpt lat="44.2732984" lon="8.030873"><ele>523.0</ele><time>2026-04-30T13:48:09.619Z</time></trkpt><trkpt lat="44.2735102" lon="8.0309428"><ele>524.0</ele><time>2026-04-30T13:48:10.65Z</time></trkpt><trkpt lat="44.2736744" lon="8.0310231"><ele>525.0</ele><time>2026-04-30T13:48:11.565Z</time></trkpt><trkpt lat="44.273838" lon="8.0311716"><ele>528.3333333333334</ele><time>2026-04-30T13:48:12.62Z</time></trkpt><trkpt lat="44.273972" lon="8.0313687"><ele>531.6666666666667</ele><time>2026-04-30T13:48:13.578Z</time></trkpt><trkpt lat="44.2741099" lon="8.0316358"><ele>535.0</ele><time>2026-04-30T13:48:14.596Z</time></trkpt><trkpt lat="44.2742338" lon="8.0319395"><ele>519.0</ele><time>2026-04-30T13:48:15.643Z</time></trkpt><trkpt lat="44.274496" lon="8.0325448"><ele>519.0</ele><time>2026-04-30T13:48:17.761Z</time></trkpt><trkpt lat="44.2747686" lon="8.0330351"><ele>519.0</ele><time>2026-04-30T13:48:19.644Z</time></trkpt><trkpt lat="44.2749149" lon="8.0332336"><ele>521.0</ele><time>2026-04-30T13:48:20.569Z</time></trkpt><trkpt lat="44.2751109" lon="8.033426"><ele>523.0</ele><time>2026-04-30T13:48:21.619Z</time></trkpt><trkpt lat="44.2755274" lon="8.0338178"><ele>520.0</ele><time>2026-04-30T13:48:23.724Z</time></trkpt><trkpt lat="44.2758462" lon="8.0341384"><ele>517.0</ele><time>2026-04-30T13:48:25.62Z</time></trkpt><trkpt lat="44.2762091" lon="8.0343152"><ele>517.5</ele><time>2026-04-30T13:48:27.543Z</time></trkpt><trkpt lat="44.2764445" lon="8.0343351"><ele>518.0</ele><time>2026-04-30T13:48:28.595Z</time></trkpt><trkpt lat="44.2766923" lon="8.0343374"><ele>518.0</ele><time>2026-04-30T13:48:29.631Z</time></trkpt><trkpt lat="44.2769629" lon="8.0343428"><ele>518.0</ele><time>2026-04-30T13:48:30.703Z</time></trkpt><trkpt lat="44.2774384" lon="8.0343699"><ele>515.5</ele><time>2026-04-30T13:48:32.595Z</time></trkpt><trkpt lat="44.2776739" lon="8.03438"><ele>513.0</ele><time>2026-04-30T13:48:33.511Z</time></trkpt><trkpt lat="44.2779531" lon="8.0343935"><ele>512.0</ele><time>2026-04-30T13:48:34.601Z</time></trkpt><trkpt lat="44.2781959" lon="8.0344018"><ele>511.0</ele><time>2026-04-30T13:48:35.614Z</time></trkpt><trkpt lat="44.278613" lon="8.0344366"><ele>511.0</ele><time>2026-04-30T13:48:37.549Z</time></trkpt><trkpt lat="44.2787952" lon="8.0345047"><ele>511.0</ele><time>2026-04-30T13:48:38.542Z</time></trkpt><trkpt lat="44.2789572" lon="8.0346066"><ele>511.0</ele><time>2026-04-30T13:48:39.575Z</time></trkpt><trkpt lat="44.2792262" lon="8.0348761"><ele>509.6666666666667</ele><time>2026-04-30T13:48:41.588Z</time></trkpt><trkpt lat="44.2793852" lon="8.0350388"><ele>508.33333333333337</ele><time>2026-04-30T13:48:42.614Z</time></trkpt><trkpt lat="44.2795525" lon="8.0351878"><ele>507.0</ele><time>2026-04-30T13:48:43.659Z</time></trkpt><trkpt lat="44.2796963" lon="8.0352794"><ele>507.0</ele><time>2026-04-30T13:48:44.608Z</time></trkpt><trkpt lat="44.2799317" lon="8.0352683"><ele>507.0</ele><time>2026-04-30T13:48:45.609Z</time></trkpt><trkpt lat="44.2803781" lon="8.0349991"><ele>508.0</ele><time>2026-04-30T13:48:47.672Z</time></trkpt><trkpt lat="44.2806028" lon="8.0348184"><ele>509.0</ele><time>2026-04-30T13:48:48.653Z</time></trkpt><trkpt lat="44.2808182" lon="8.0346487"><ele>509.0</ele><time>2026-04-30T13:48:49.563Z</time></trkpt><trkpt lat="44.2810646" lon="8.0344547"><ele>509.0</ele><time>2026-04-30T13:48:50.636Z</time></trkpt><trkpt lat="44.2812953" lon="8.0342569"><ele>530.0</ele><time>2026-04-30T13:48:51.626Z</time></trkpt><trkpt lat="44.2817584" lon="8.0338196"><ele>530.0</ele><time>2026-04-30T13:48:53.635Z</time></trkpt><trkpt lat="44.2820121" lon="8.0335824"><ele>530.0</ele><time>2026-04-30T13:48:54.731Z</time></trkpt><trkpt lat="44.2824703" lon="8.0332024"><ele>533.0</ele><time>2026-04-30T13:48:56.682Z</time></trkpt><trkpt lat="44.2829459" lon="8.0328915"><ele>510.0</ele><time>2026-04-30T13:48:58.629Z</time></trkpt><trkpt lat="44.2834542" lon="8.0327304"><ele>510.0</ele><time>2026-04-30T13:49:00.553Z</time></trkpt><trkpt lat="44.2837487" lon="8.0327056"><ele>510.0</ele><time>2026-04-30T13:49:01.663Z</time></trkpt><trkpt lat="44.2842401" lon="8.0327998"><ele>511.0</ele><time>2026-04-30T13:49:03.561Z</time></trkpt><trkpt lat="44.2845332" lon="8.0328263"><ele>512.0</ele><time>2026-04-30T13:49:04.698Z</time></trkpt><trkpt lat="44.2847598" lon="8.0327916"><ele>512.0</ele><time>2026-04-30T13:49:05.603Z</time></trkpt><trkpt lat="44.2850243" lon="8.0327428"><ele>512.0</ele><time>2026-04-30T13:49:06.708Z</time></trkpt><trkpt lat="44.2852418" lon="8.0327588"><ele>513.0</ele><time>2026-04-30T13:49:07.637Z</time></trkpt><trkpt lat="44.2857057" lon="8.0328842"><ele>513.0</ele><time>2026-04-30T13:49:09.49Z</time></trkpt><trkpt lat="44.2860167" lon="8.0329964"><ele>513.0</ele><time>2026-04-30T13:49:10.702Z</time></trkpt><trkpt lat="44.2862841" lon="8.0330778"><ele>516.0</ele><time>2026-04-30T13:49:11.651Z</time></trkpt><trkpt lat="44.2865477" lon="8.0331563"><ele>519.0</ele><time>2026-04-30T13:49:12.609Z</time></trkpt><trkpt lat="44.2869134" lon="8.0332438"><ele>519.0</ele><time>2026-04-30T13:49:13.885Z</time></trkpt><trkpt lat="44.287185" lon="8.0333033"><ele>519.0</ele><time>2026-04-30T13:49:14.863Z</time></trkpt><trkpt lat="44.2874438" lon="8.0333679"><ele>503.0</ele><time>2026-04-30T13:49:15.792Z</time></trkpt><trkpt lat="44.28797" lon="8.0335733"><ele>505.0</ele><time>2026-04-30T13:49:17.701Z</time></trkpt><trkpt lat="44.288261" lon="8.0337324"><ele>507.0</ele><time>2026-04-30T13:49:18.783Z</time></trkpt><trkpt lat="44.2885347" lon="8.0338837"><ele>505.0</ele><time>2026-04-30T13:49:19.788Z</time></trkpt><trkpt lat="44.2890605" lon="8.0341112"><ele>500.5</ele><time>2026-04-30T13:49:21.673Z</time></trkpt><trkpt lat="44.289313" lon="8.0342082"><ele>496.0</ele><time>2026-04-30T13:49:22.589Z</time></trkpt><trkpt lat="44.2896279" lon="8.0343311"><ele>497.0</ele><time>2026-04-30T13:49:23.72Z</time></trkpt><trkpt lat="44.2901859" lon="8.0345667"><ele>499.0</ele><time>2026-04-30T13:49:25.726Z</time></trkpt><trkpt lat="44.2907214" lon="8.0347893"><ele>499.0</ele><time>2026-04-30T13:49:27.677Z</time></trkpt><trkpt lat="44.2909806" lon="8.0348972"><ele>499.0</ele><time>2026-04-30T13:49:28.623Z</time></trkpt><trkpt lat="44.2912722" lon="8.0350152"><ele>496.0</ele><time>2026-04-30T13:49:29.678Z</time></trkpt><trkpt lat="44.2917935" lon="8.0352387"><ele>496.0</ele><time>2026-04-30T13:49:31.587Z</time></trkpt><trkpt lat="44.2920686" lon="8.0353534"><ele>496.0</ele><time>2026-04-30T13:49:32.583Z</time></trkpt><trkpt lat="44.2923283" lon="8.0354583"><ele>497.0</ele><time>2026-04-30T13:49:33.523Z</time></trkpt><trkpt lat="44.2926221" lon="8.035574"><ele>498.0</ele><time>2026-04-30T13:49:34.624Z</time></trkpt><trkpt lat="44.2928693" lon="8.0356706"><ele>497.0</ele><time>2026-04-30T13:49:35.61Z</time></trkpt><trkpt lat="44.2931092" lon="8.0357631"><ele>496.0</ele><time>2026-04-30T13:49:36.625Z</time></trkpt><trkpt lat="44.2933603" lon="8.0358631"><ele>496.0</ele><time>2026-04-30T13:49:37.752Z</time></trkpt><trkpt lat="44.2937098" lon="8.0361095"><ele>496.0</ele><time>2026-04-30T13:49:39.505Z</time></trkpt><trkpt lat="44.2938939" lon="8.0363251"><ele>495.5</ele><time>2026-04-30T13:49:40.518Z</time></trkpt><trkpt lat="44.2940685" lon="8.0366057"><ele>495.0</ele><time>2026-04-30T13:49:41.602Z</time></trkpt><trkpt lat="44.2942044" lon="8.0368565"><ele>495.0</ele><time>2026-04-30T13:49:42.555Z</time></trkpt><trkpt lat="44.2944404" lon="8.0372807"><ele>495.0</ele><time>2026-04-30T13:49:44.58Z</time></trkpt><trkpt lat="44.2945321" lon="8.0374325"><ele>495.0</ele><time>2026-04-30T13:49:45.58Z</time></trkpt><trkpt lat="44.2945938" lon="8.0375531"><ele>495.0</ele><time>2026-04-30T13:49:46.646Z</time></trkpt><trkpt lat="44.2946471" lon="8.0376466"><ele>495.0</ele><time>2026-04-30T13:49:47.652Z</time></trkpt><trkpt lat="44.2946851" lon="8.03772"><ele>495.0</ele><time>2026-04-30T13:49:48.555Z</time></trkpt><trkpt lat="44.2947299" lon="8.0377966"><ele>495.0</ele><time>2026-04-30T13:49:49.641Z</time></trkpt><trkpt lat="44.2948104" lon="8.0379322"><ele>495.0</ele><time>2026-04-30T13:49:51.764Z</time></trkpt><trkpt lat="44.2948754" lon="8.038034"><ele>495.0</ele><time>2026-04-30T13:49:53.582Z</time></trkpt><trkpt lat="44.2949178" lon="8.0381061"><ele>495.0</ele><time>2026-04-30T13:49:54.67Z</time></trkpt><trkpt lat="44.294961" lon="8.0381795"><ele>495.0</ele><time>2026-04-30T13:49:55.638Z</time></trkpt><trkpt lat="44.2950528" lon="8.0383355"><ele>495.0</ele><time>2026-04-30T13:49:57.501Z</time></trkpt><trkpt lat="44.2951025" lon="8.0384236"><ele>494.25</ele><time>2026-04-30T13:49:58.517Z</time></trkpt><trkpt lat="44.2951563" lon="8.0385296"><ele>493.5</ele><time>2026-04-30T13:49:59.606Z</time></trkpt><trkpt lat="44.2952173" lon="8.0386511"><ele>492.75</ele><time>2026-04-30T13:50:00.706Z</time></trkpt><trkpt lat="44.2953226" lon="8.038873"><ele>492.0</ele><time>2026-04-30T13:50:02.534Z</time></trkpt><trkpt lat="44.2954024" lon="8.0390253"><ele>491.5</ele><time>2026-04-30T13:50:03.653Z</time></trkpt><trkpt lat="44.2954745" lon="8.0391596"><ele>491.0</ele><time>2026-04-30T13:50:04.659Z</time></trkpt><trkpt lat="44.2955441" lon="8.0392881"><ele>490.5</ele><time>2026-04-30T13:50:05.63Z</time></trkpt><trkpt lat="44.2956169" lon="8.0394215"><ele>490.0</ele><time>2026-04-30T13:50:06.712Z</time></trkpt><trkpt lat="44.2956768" lon="8.0395327"><ele>490.5</ele><time>2026-04-30T13:50:07.661Z</time></trkpt><trkpt lat="44.295731" lon="8.0396336"><ele>491.0</ele><time>2026-04-30T13:50:08.511Z</time></trkpt><trkpt lat="44.2958075" lon="8.0397805"><ele>491.5</ele><time>2026-04-30T13:50:09.674Z</time></trkpt><trkpt lat="44.295929" lon="8.0400388"><ele>492.0</ele><time>2026-04-30T13:50:11.517Z</time></trkpt><trkpt lat="44.2959939" lon="8.0402056"><ele>492.0</ele><time>2026-04-30T13:50:12.639Z</time></trkpt><trkpt lat="44.2960495" lon="8.0403423"><ele>492.0</ele><time>2026-04-30T13:50:13.552Z</time></trkpt><trkpt lat="44.2961125" lon="8.0405001"><ele>492.0</ele><time>2026-04-30T13:50:14.597Z</time></trkpt><trkpt lat="44.2961727" lon="8.0406654"><ele>492.0</ele><time>2026-04-30T13:50:15.599Z</time></trkpt><trkpt lat="44.296237" lon="8.0408394"><ele>490.66666666666663</ele><time>2026-04-30T13:50:16.641Z</time></trkpt><trkpt lat="44.296355" lon="8.0411715"><ele>489.3333333333333</ele><time>2026-04-30T13:50:18.655Z</time></trkpt><trkpt lat="44.2964205" lon="8.0413311"><ele>488.0</ele><time>2026-04-30T13:50:19.622Z</time></trkpt><trkpt lat="44.2964942" lon="8.0414979"><ele>489.5</ele><time>2026-04-30T13:50:20.619Z</time></trkpt><trkpt lat="44.296561" lon="8.041643"><ele>491.0</ele><time>2026-04-30T13:50:21.518Z</time></trkpt><trkpt lat="44.2966579" lon="8.0418174"><ele>492.5</ele><time>2026-04-30T13:50:22.66Z</time></trkpt><trkpt lat="44.2967444" lon="8.0419423"><ele>494.0</ele><time>2026-04-30T13:50:23.571Z</time></trkpt><trkpt lat="44.2968604" lon="8.0420848"><ele>494.0</ele><time>2026-04-30T13:50:24.67Z</time></trkpt><trkpt lat="44.2970805" lon="8.0423064"><ele>494.0</ele><time>2026-04-30T13:50:26.593Z</time></trkpt><trkpt lat="44.2972149" lon="8.0424147"><ele>494.0</ele><time>2026-04-30T13:50:27.698Z</time></trkpt><trkpt lat="44.297336" lon="8.042493"><ele>493.3333333333333</ele><time>2026-04-30T13:50:28.653Z</time></trkpt><trkpt lat="44.2975795" lon="8.0426256"><ele>492.66666666666663</ele><time>2026-04-30T13:50:30.602Z</time></trkpt><trkpt lat="44.2977005" lon="8.0426901"><ele>492.0</ele><time>2026-04-30T13:50:31.615Z</time></trkpt><trkpt lat="44.2978129" lon="8.0427664"><ele>492.0</ele><time>2026-04-30T13:50:32.612Z</time></trkpt><trkpt lat="44.2979197" lon="8.0428503"><ele>492.0</ele><time>2026-04-30T13:50:33.584Z</time></trkpt><trkpt lat="44.2980377" lon="8.0429563"><ele>492.0</ele><time>2026-04-30T13:50:34.681Z</time></trkpt><trkpt lat="44.2982418" lon="8.0431467"><ele>492.25</ele><time>2026-04-30T13:50:36.569Z</time></trkpt><trkpt lat="44.2983506" lon="8.043251"><ele>492.5</ele><time>2026-04-30T13:50:37.591Z</time></trkpt><trkpt lat="44.2984551" lon="8.0433666"><ele>492.75</ele><time>2026-04-30T13:50:38.613Z</time></trkpt><trkpt lat="44.2985496" lon="8.0434925"><ele>493.0</ele><time>2026-04-30T13:50:39.625Z</time></trkpt><trkpt lat="44.2986348" lon="8.0436239"><ele>492.0</ele><time>2026-04-30T13:50:40.58Z</time></trkpt><trkpt lat="44.2987169" lon="8.0437846"><ele>491.0</ele><time>2026-04-30T13:50:41.646Z</time></trkpt><trkpt lat="44.2988485" lon="8.0440829"><ele>490.0</ele><time>2026-04-30T13:50:43.591Z</time></trkpt><trkpt lat="44.2989136" lon="8.0442226"><ele>490.0</ele><time>2026-04-30T13:50:44.562Z</time></trkpt><trkpt lat="44.2989832" lon="8.0443834"><ele>490.0</ele><time>2026-04-30T13:50:45.66Z</time></trkpt><trkpt lat="44.2990557" lon="8.0445343"><ele>490.0</ele><time>2026-04-30T13:50:46.677Z</time></trkpt><trkpt lat="44.2991962" lon="8.0448036"><ele>490.0</ele><time>2026-04-30T13:50:48.593Z</time></trkpt><trkpt lat="44.2992655" lon="8.0449143"><ele>490.0</ele><time>2026-04-30T13:50:49.543Z</time></trkpt><trkpt lat="44.2993802" lon="8.0450252"><ele>490.0</ele><time>2026-04-30T13:50:50.656Z</time></trkpt><trkpt lat="44.2995039" lon="8.0450921"><ele>490.0</ele><time>2026-04-30T13:50:51.633Z</time></trkpt><trkpt lat="44.2996601" lon="8.0451381"><ele>489.6666666666667</ele><time>2026-04-30T13:50:52.745Z</time></trkpt><trkpt lat="44.2998825" lon="8.0451426"><ele>489.33333333333337</ele><time>2026-04-30T13:50:54.603Z</time></trkpt><trkpt lat="44.3000195" lon="8.0451117"><ele>489.0</ele><time>2026-04-30T13:50:55.652Z</time></trkpt><trkpt lat="44.3001386" lon="8.0450516"><ele>489.0</ele><time>2026-04-30T13:50:56.642Z</time></trkpt><trkpt lat="44.3002574" lon="8.0449793"><ele>489.0</ele><time>2026-04-30T13:50:57.613Z</time></trkpt><trkpt lat="44.3003705" lon="8.0449024"><ele>489.0</ele><time>2026-04-30T13:50:58.672Z</time></trkpt><trkpt lat="44.3004874" lon="8.0448268"><ele>489.0</ele><time>2026-04-30T13:50:59.673Z</time></trkpt><trkpt lat="44.3005943" lon="8.0447672"><ele>490.0</ele><time>2026-04-30T13:51:00.625Z</time></trkpt><trkpt lat="44.3006976" lon="8.0447085"><ele>491.0</ele><time>2026-04-30T13:51:01.59Z</time></trkpt><trkpt lat="44.3008149" lon="8.0446439"><ele>492.0</ele><time>2026-04-30T13:51:02.626Z</time></trkpt><trkpt lat="44.3009317" lon="8.0445762"><ele>493.0</ele><time>2026-04-30T13:51:03.68Z</time></trkpt><trkpt lat="44.3010356" lon="8.0445247"><ele>493.0</ele><time>2026-04-30T13:51:04.709Z</time></trkpt><trkpt lat="44.3011345" lon="8.0444756"><ele>493.0</ele><time>2026-04-30T13:51:05.665Z</time></trkpt><trkpt lat="44.3012334" lon="8.0444272"><ele>493.0</ele><time>2026-04-30T13:51:06.631Z</time></trkpt><trkpt lat="44.3013341" lon="8.0443795"><ele>493.0</ele><time>2026-04-30T13:51:07.676Z</time></trkpt><trkpt lat="44.3015322" lon="8.0442939"><ele>493.0</ele><time>2026-04-30T13:51:09.639Z</time></trkpt><trkpt lat="44.3017433" lon="8.0442633"><ele>493.0</ele><time>2026-04-30T13:51:11.708Z</time></trkpt><trkpt lat="44.3018399" lon="8.0442701"><ele>493.0</ele><time>2026-04-30T13:51:12.646Z</time></trkpt><trkpt lat="44.3020568" lon="8.0443351"><ele>493.0</ele><time>2026-04-30T13:51:14.639Z</time></trkpt><trkpt lat="44.3021486" lon="8.0443691"><ele>492.99999999999994</ele><time>2026-04-30T13:51:15.548Z</time></trkpt><trkpt lat="44.3022617" lon="8.04441"><ele>492.99999999999994</ele><time>2026-04-30T13:51:16.658Z</time></trkpt><trkpt lat="44.3023599" lon="8.0444438"><ele>493.0</ele><time>2026-04-30T13:51:17.582Z</time></trkpt><trkpt lat="44.3024795" lon="8.0444869"><ele>493.0</ele><time>2026-04-30T13:51:18.729Z</time></trkpt><trkpt lat="44.3026992" lon="8.04456"><ele>493.33333333333337</ele><time>2026-04-30T13:51:20.667Z</time></trkpt><trkpt lat="44.3029436" lon="8.0446476"><ele>493.66666666666663</ele><time>2026-04-30T13:51:22.586Z</time></trkpt><trkpt lat="44.3030495" lon="8.0446931"><ele>494.0</ele><time>2026-04-30T13:51:23.503Z</time></trkpt><trkpt lat="44.3031631" lon="8.0447539"><ele>494.0</ele><time>2026-04-30T13:51:24.624Z</time></trkpt><trkpt lat="44.3032476" lon="8.0447838"><ele>494.0</ele><time>2026-04-30T13:51:25.586Z</time></trkpt><trkpt lat="44.3033375" lon="8.0448214"><ele>494.0</ele><time>2026-04-30T13:51:26.634Z</time></trkpt><trkpt lat="44.3034446" lon="8.0448655"><ele>494.0</ele><time>2026-04-30T13:51:27.798Z</time></trkpt><trkpt lat="44.3036502" lon="8.0449448"><ele>493.0</ele><time>2026-04-30T13:51:29.883Z</time></trkpt><trkpt lat="44.3038589" lon="8.0450236"><ele>492.0</ele><time>2026-04-30T13:51:31.826Z</time></trkpt><trkpt lat="44.3039772" lon="8.045067"><ele>491.0</ele><time>2026-04-30T13:51:32.888Z</time></trkpt><trkpt lat="44.3042197" lon="8.045148"><ele>490.0</ele><time>2026-04-30T13:51:34.987Z</time></trkpt><trkpt lat="44.3044062" lon="8.0452346"><ele>489.0</ele><time>2026-04-30T13:51:36.743Z</time></trkpt><trkpt lat="44.3045246" lon="8.0452795"><ele>488.0</ele><time>2026-04-30T13:51:37.827Z</time></trkpt><trkpt lat="44.3047334" lon="8.0453553"><ele>487.3333333333333</ele><time>2026-04-30T13:51:39.861Z</time></trkpt><trkpt lat="44.304939" lon="8.0454344"><ele>486.66666666666663</ele><time>2026-04-30T13:51:41.919Z</time></trkpt><trkpt lat="44.3051445" lon="8.0455124"><ele>486.0</ele><time>2026-04-30T13:51:43.885Z</time></trkpt><trkpt lat="44.3052393" lon="8.0455475"><ele>486.0</ele><time>2026-04-30T13:51:44.822Z</time></trkpt><trkpt lat="44.3053601" lon="8.0455928"><ele>486.0</ele><time>2026-04-30T13:51:45.984Z</time></trkpt><trkpt lat="44.3055642" lon="8.0456657"><ele>486.0</ele><time>2026-04-30T13:51:47.901Z</time></trkpt><trkpt lat="44.3057727" lon="8.045747"><ele>486.0</ele><time>2026-04-30T13:51:49.873Z</time></trkpt><trkpt lat="44.3059927" lon="8.0458359"><ele>486.0</ele><time>2026-04-30T13:51:51.797Z</time></trkpt><trkpt lat="44.3060991" lon="8.0458756"><ele>486.0</ele><time>2026-04-30T13:51:52.728Z</time></trkpt><trkpt lat="44.3062184" lon="8.0459187"><ele>486.0</ele><time>2026-04-30T13:51:53.818Z</time></trkpt><trkpt lat="44.3063298" lon="8.045966"><ele>486.0</ele><time>2026-04-30T13:51:54.838Z</time></trkpt><trkpt lat="44.3065557" lon="8.0460503"><ele>486.0</ele><time>2026-04-30T13:51:56.9Z</time></trkpt><trkpt lat="44.3067391" lon="8.0461167"><ele>486.25</ele><time>2026-04-30T13:51:58.689Z</time></trkpt><trkpt lat="44.3068444" lon="8.0461562"><ele>486.5</ele><time>2026-04-30T13:51:59.725Z</time></trkpt><trkpt lat="44.3069654" lon="8.0462049"><ele>486.75</ele><time>2026-04-30T13:52:00.929Z</time></trkpt><trkpt lat="44.3071492" lon="8.0462738"><ele>487.0</ele><time>2026-04-30T13:52:02.817Z</time></trkpt><trkpt lat="44.3073592" lon="8.0463556"><ele>488.0</ele><time>2026-04-30T13:52:04.825Z</time></trkpt><trkpt lat="44.3074937" lon="8.0464042"><ele>489.0</ele><time>2026-04-30T13:52:06.008Z</time></trkpt><trkpt lat="44.307611" lon="8.0464465"><ele>490.0</ele><time>2026-04-30T13:52:06.977Z</time></trkpt><trkpt lat="44.3078426" lon="8.046539"><ele>488.33333333333337</ele><time>2026-04-30T13:52:08.916Z</time></trkpt><trkpt lat="44.3080901" lon="8.0466357"><ele>486.66666666666663</ele><time>2026-04-30T13:52:10.869Z</time></trkpt><trkpt lat="44.3082279" lon="8.0466898"><ele>485.0</ele><time>2026-04-30T13:52:11.941Z</time></trkpt><trkpt lat="44.3084873" lon="8.0467845"><ele>485.0</ele><time>2026-04-30T13:52:13.941Z</time></trkpt><trkpt lat="44.308577" lon="8.0468166"><ele>485.0</ele><time>2026-04-30T13:52:14.622Z</time></trkpt><trkpt lat="44.3087777" lon="8.0468917"><ele>485.0</ele><time>2026-04-30T13:52:15.966Z</time></trkpt><trkpt lat="44.3090972" lon="8.046994"><ele>484.66666666666663</ele><time>2026-04-30T13:52:17.615Z</time></trkpt><trkpt lat="44.3092981" lon="8.0470715"><ele>484.33333333333337</ele><time>2026-04-30T13:52:18.597Z</time></trkpt><trkpt lat="44.3095147" lon="8.0471577"><ele>484.0</ele><time>2026-04-30T13:52:19.639Z</time></trkpt><trkpt lat="44.3096985" lon="8.047241"><ele>485.5</ele><time>2026-04-30T13:52:20.614Z</time></trkpt><trkpt lat="44.3098952" lon="8.0473296"><ele>487.0</ele><time>2026-04-30T13:52:21.672Z</time></trkpt><trkpt lat="44.3102537" lon="8.0474726"><ele>485.6666666666667</ele><time>2026-04-30T13:52:23.614Z</time></trkpt><trkpt lat="44.3104305" lon="8.0475411"><ele>484.33333333333337</ele><time>2026-04-30T13:52:24.584Z</time></trkpt><trkpt lat="44.3106057" lon="8.0476099"><ele>483.0</ele><time>2026-04-30T13:52:25.57Z</time></trkpt><trkpt lat="44.3108009" lon="8.047684"><ele>483.0</ele><time>2026-04-30T13:52:26.68Z</time></trkpt><trkpt lat="44.3109599" lon="8.0477446"><ele>483.0</ele><time>2026-04-30T13:52:27.608Z</time></trkpt><trkpt lat="44.3111166" lon="8.0478029"><ele>483.0</ele><time>2026-04-30T13:52:28.526Z</time></trkpt><trkpt lat="44.3112807" lon="8.0478651"><ele>482.66666666666663</ele><time>2026-04-30T13:52:29.486Z</time></trkpt><trkpt lat="44.3114474" lon="8.0479267"><ele>482.3333333333333</ele><time>2026-04-30T13:52:30.472Z</time></trkpt><trkpt lat="44.3116491" lon="8.0480018"><ele>482.0</ele><time>2026-04-30T13:52:31.669Z</time></trkpt><trkpt lat="44.3118088" lon="8.0480605"><ele>482.0</ele><time>2026-04-30T13:52:32.632Z</time></trkpt><trkpt lat="44.311958" lon="8.0481166"><ele>482.0</ele><time>2026-04-30T13:52:33.557Z</time></trkpt><trkpt lat="44.3121349" lon="8.048184"><ele>482.0</ele><time>2026-04-30T13:52:34.634Z</time></trkpt><trkpt lat="44.3124486" lon="8.0483044"><ele>481.0</ele><time>2026-04-30T13:52:36.503Z</time></trkpt><trkpt lat="44.3126359" lon="8.0483738"><ele>480.0</ele><time>2026-04-30T13:52:37.612Z</time></trkpt><trkpt lat="44.3127989" lon="8.0484318"><ele>479.0</ele><time>2026-04-30T13:52:38.57Z</time></trkpt><trkpt lat="44.3131336" lon="8.0485635"><ele>478.66666666666663</ele><time>2026-04-30T13:52:40.597Z</time></trkpt><trkpt lat="44.3132926" lon="8.048626"><ele>478.33333333333337</ele><time>2026-04-30T13:52:41.594Z</time></trkpt><trkpt lat="44.3134597" lon="8.0486892"><ele>478.0</ele><time>2026-04-30T13:52:42.639Z</time></trkpt><trkpt lat="44.31363" lon="8.0487534"><ele>477.5</ele><time>2026-04-30T13:52:43.674Z</time></trkpt><trkpt lat="44.3139572" lon="8.0488764"><ele>477.0</ele><time>2026-04-30T13:52:45.636Z</time></trkpt><trkpt lat="44.3141086" lon="8.0489343"><ele>477.0</ele><time>2026-04-30T13:52:46.538Z</time></trkpt><trkpt lat="44.3142974" lon="8.0490063"><ele>477.0</ele><time>2026-04-30T13:52:47.641Z</time></trkpt><trkpt lat="44.3146052" lon="8.0491205"><ele>477.66666666666663</ele><time>2026-04-30T13:52:49.372Z</time></trkpt><trkpt lat="44.3148036" lon="8.049196"><ele>478.3333333333333</ele><time>2026-04-30T13:52:50.481Z</time></trkpt><trkpt lat="44.3149829" lon="8.0492665"><ele>479.0</ele><time>2026-04-30T13:52:51.504Z</time></trkpt><trkpt lat="44.3151565" lon="8.0493336"><ele>479.0</ele><time>2026-04-30T13:52:52.472Z</time></trkpt><trkpt lat="44.3153355" lon="8.0494004"><ele>479.0</ele><time>2026-04-30T13:52:53.449Z</time></trkpt><trkpt lat="44.315531" lon="8.0494755"><ele>479.0</ele><time>2026-04-30T13:52:54.539Z</time></trkpt><trkpt lat="44.315701" lon="8.0495396"><ele>479.66666666666663</ele><time>2026-04-30T13:52:55.488Z</time></trkpt><trkpt lat="44.3158896" lon="8.0496108"><ele>480.33333333333337</ele><time>2026-04-30T13:52:56.537Z</time></trkpt><trkpt lat="44.31609" lon="8.0496869"><ele>481.0</ele><time>2026-04-30T13:52:57.653Z</time></trkpt><trkpt lat="44.3164456" lon="8.0498244"><ele>481.0</ele><time>2026-04-30T13:52:59.688Z</time></trkpt><trkpt lat="44.3167379" lon="8.0499379"><ele>481.0</ele><time>2026-04-30T13:53:01.404Z</time></trkpt><trkpt lat="44.3169163" lon="8.0500047"><ele>480.33333333333337</ele><time>2026-04-30T13:53:02.439Z</time></trkpt><trkpt lat="44.3171264" lon="8.0500857"><ele>479.66666666666663</ele><time>2026-04-30T13:53:03.681Z</time></trkpt><trkpt lat="44.3172908" lon="8.0501495"><ele>479.0</ele><time>2026-04-30T13:53:04.701Z</time></trkpt><trkpt lat="44.3174666" lon="8.0502179"><ele>478.5</ele><time>2026-04-30T13:53:05.784Z</time></trkpt><trkpt lat="44.3177694" lon="8.0503327"><ele>478.0</ele><time>2026-04-30T13:53:07.631Z</time></trkpt><trkpt lat="44.3179062" lon="8.0503853"><ele>478.5</ele><time>2026-04-30T13:53:08.474Z</time></trkpt><trkpt lat="44.318106" lon="8.0504619"><ele>479.0</ele><time>2026-04-30T13:53:09.719Z</time></trkpt><trkpt lat="44.3184217" lon="8.0505759"><ele>479.0</ele><time>2026-04-30T13:53:11.654Z</time></trkpt><trkpt lat="44.3185958" lon="8.0506351"><ele>479.0</ele><time>2026-04-30T13:53:12.692Z</time></trkpt><trkpt lat="44.3189501" lon="8.0507467"><ele>477.0</ele><time>2026-04-30T13:53:14.738Z</time></trkpt><trkpt lat="44.3191197" lon="8.0507931"><ele>475.0</ele><time>2026-04-30T13:53:15.692Z</time></trkpt><trkpt lat="44.3194778" lon="8.0508758"><ele>475.0</ele><time>2026-04-30T13:53:17.651Z</time></trkpt><trkpt lat="44.3196721" lon="8.0509172"><ele>475.0</ele><time>2026-04-30T13:53:18.714Z</time></trkpt><trkpt lat="44.3200299" lon="8.0509953"><ele>474.0</ele><time>2026-04-30T13:53:20.641Z</time></trkpt><trkpt lat="44.320217" lon="8.0510375"><ele>473.0</ele><time>2026-04-30T13:53:21.664Z</time></trkpt><trkpt lat="44.3206055" lon="8.0511262"><ele>472.0</ele><time>2026-04-30T13:53:23.755Z</time></trkpt><trkpt lat="44.3210148" lon="8.0512023"><ele>471.0</ele><time>2026-04-30T13:53:25.642Z</time></trkpt><trkpt lat="44.321242" lon="8.0512612"><ele>473.0</ele><time>2026-04-30T13:53:26.633Z</time></trkpt><trkpt lat="44.3217265" lon="8.0513863"><ele>473.0</ele><time>2026-04-30T13:53:28.654Z</time></trkpt><trkpt lat="44.3219856" lon="8.0514406"><ele>473.0</ele><time>2026-04-30T13:53:29.688Z</time></trkpt><trkpt lat="44.3225024" lon="8.0515586"><ele>471.5</ele><time>2026-04-30T13:53:31.675Z</time></trkpt><trkpt lat="44.3227935" lon="8.0516268"><ele>470.0</ele><time>2026-04-30T13:53:32.795Z</time></trkpt><trkpt lat="44.3232646" lon="8.0517399"><ele>469.5</ele><time>2026-04-30T13:53:34.645Z</time></trkpt><trkpt lat="44.3234995" lon="8.0517934"><ele>469.0</ele><time>2026-04-30T13:53:35.565Z</time></trkpt><trkpt lat="44.3237871" lon="8.0518605"><ele>468.0</ele><time>2026-04-30T13:53:36.703Z</time></trkpt><trkpt lat="44.3242848" lon="8.0519795"><ele>466.0</ele><time>2026-04-30T13:53:38.711Z</time></trkpt><trkpt lat="44.3247408" lon="8.0520815"><ele>466.0</ele><time>2026-04-30T13:53:40.504Z</time></trkpt><trkpt lat="44.3250797" lon="8.0521577"><ele>466.0</ele><time>2026-04-30T13:53:41.818Z</time></trkpt><trkpt lat="44.3252413" lon="8.0521928"><ele>466.0</ele><time>2026-04-30T13:53:42.434Z</time></trkpt><trkpt lat="44.3255243" lon="8.052257"><ele>466.0</ele><time>2026-04-30T13:53:43.512Z</time></trkpt><trkpt lat="44.3258108" lon="8.0523213"><ele>465.0</ele><time>2026-04-30T13:53:44.604Z</time></trkpt><trkpt lat="44.3260795" lon="8.052382"><ele>464.0</ele><time>2026-04-30T13:53:45.618Z</time></trkpt><trkpt lat="44.3263434" lon="8.0524407"><ele>464.0</ele><time>2026-04-30T13:53:46.621Z</time></trkpt><trkpt lat="44.3266275" lon="8.0525035"><ele>464.0</ele><time>2026-04-30T13:53:47.711Z</time></trkpt><trkpt lat="44.3268697" lon="8.0525576"><ele>464.0</ele><time>2026-04-30T13:53:48.638Z</time></trkpt><trkpt lat="44.3271166" lon="8.0526107"><ele>464.0</ele><time>2026-04-30T13:53:49.567Z</time></trkpt><trkpt lat="44.3274107" lon="8.0526754"><ele>464.0</ele><time>2026-04-30T13:53:50.67Z</time></trkpt><trkpt lat="44.3276949" lon="8.0527411"><ele>464.0</ele><time>2026-04-30T13:53:51.749Z</time></trkpt><trkpt lat="44.328177" lon="8.0528514"><ele>464.0</ele><time>2026-04-30T13:53:53.577Z</time></trkpt><trkpt lat="44.3284297" lon="8.0529064"><ele>464.0</ele><time>2026-04-30T13:53:54.523Z</time></trkpt><trkpt lat="44.3286988" lon="8.0529667"><ele>464.5</ele><time>2026-04-30T13:53:55.533Z</time></trkpt><trkpt lat="44.3289948" lon="8.053032"><ele>465.0</ele><time>2026-04-30T13:53:56.645Z</time></trkpt><trkpt lat="44.3292434" lon="8.0530858"><ele>465.0</ele><time>2026-04-30T13:53:57.583Z</time></trkpt><trkpt lat="44.3294998" lon="8.0531411"><ele>465.0</ele><time>2026-04-30T13:53:58.535Z</time></trkpt><trkpt lat="44.3298041" lon="8.0532076"><ele>464.5</ele><time>2026-04-30T13:53:59.642Z</time></trkpt><trkpt lat="44.3300682" lon="8.0532688"><ele>464.0</ele><time>2026-04-30T13:54:00.598Z</time></trkpt><trkpt lat="44.3303678" lon="8.0533362"><ele>463.0</ele><time>2026-04-30T13:54:01.674Z</time></trkpt><trkpt lat="44.3306454" lon="8.0533975"><ele>462.0</ele><time>2026-04-30T13:54:02.677Z</time></trkpt><trkpt lat="44.3309274" lon="8.0534611"><ele>462.0</ele><time>2026-04-30T13:54:03.704Z</time></trkpt><trkpt lat="44.3311765" lon="8.0535154"><ele>462.0</ele><time>2026-04-30T13:54:04.615Z</time></trkpt><trkpt lat="44.3314558" lon="8.053582"><ele>462.5</ele><time>2026-04-30T13:54:05.641Z</time></trkpt><trkpt lat="44.3317623" lon="8.0536532"><ele>463.0</ele><time>2026-04-30T13:54:06.78Z</time></trkpt><trkpt lat="44.3322134" lon="8.0537531"><ele>465.5</ele><time>2026-04-30T13:54:08.441Z</time></trkpt><trkpt lat="44.3325057" lon="8.0538183"><ele>468.0</ele><time>2026-04-30T13:54:09.486Z</time></trkpt><trkpt lat="44.332767" lon="8.0538739"><ele>468.0</ele><time>2026-04-30T13:54:10.429Z</time></trkpt><trkpt lat="44.3330241" lon="8.0539268"><ele>468.0</ele><time>2026-04-30T13:54:11.357Z</time></trkpt><trkpt lat="44.3332947" lon="8.0539871"><ele>467.0</ele><time>2026-04-30T13:54:12.363Z</time></trkpt><trkpt lat="44.3336219" lon="8.0540797"><ele>466.0</ele><time>2026-04-30T13:54:13.609Z</time></trkpt><trkpt lat="44.3338613" lon="8.0541823"><ele>466.0</ele><time>2026-04-30T13:54:14.528Z</time></trkpt><trkpt lat="44.334121" lon="8.0543267"><ele>466.0</ele><time>2026-04-30T13:54:15.564Z</time></trkpt><trkpt lat="44.3343581" lon="8.0545013"><ele>466.0</ele><time>2026-04-30T13:54:16.552Z</time></trkpt><trkpt lat="44.3345759" lon="8.0546939"><ele>466.0</ele><time>2026-04-30T13:54:17.513Z</time></trkpt><trkpt lat="44.3347931" lon="8.0548946"><ele>464.0</ele><time>2026-04-30T13:54:18.494Z</time></trkpt><trkpt lat="44.3352002" lon="8.0552912"><ele>464.0</ele><time>2026-04-30T13:54:20.535Z</time></trkpt><trkpt lat="44.3353817" lon="8.0554615"><ele>464.0</ele><time>2026-04-30T13:54:21.573Z</time></trkpt><trkpt lat="44.3355638" lon="8.055632"><ele>464.0</ele><time>2026-04-30T13:54:22.681Z</time></trkpt><trkpt lat="44.3357159" lon="8.0557745"><ele>463.0</ele><time>2026-04-30T13:54:23.658Z</time></trkpt><trkpt lat="44.3360164" lon="8.0560576"><ele>462.0</ele><time>2026-04-30T13:54:25.686Z</time></trkpt><trkpt lat="44.3362841" lon="8.0563105"><ele>462.33333333333337</ele><time>2026-04-30T13:54:27.529Z</time></trkpt><trkpt lat="44.3364161" lon="8.0564353"><ele>462.6666666666667</ele><time>2026-04-30T13:54:28.518Z</time></trkpt><trkpt lat="44.3365522" lon="8.0565628"><ele>463.0</ele><time>2026-04-30T13:54:29.613Z</time></trkpt><trkpt lat="44.3366665" lon="8.0566744"><ele>463.0</ele><time>2026-04-30T13:54:30.53Z</time></trkpt><trkpt lat="44.3368058" lon="8.056796"><ele>463.0</ele><time>2026-04-30T13:54:31.642Z</time></trkpt><trkpt lat="44.3369253" lon="8.056904"><ele>463.0</ele><time>2026-04-30T13:54:32.619Z</time></trkpt><trkpt lat="44.3370333" lon="8.0570034"><ele>463.0</ele><time>2026-04-30T13:54:33.542Z</time></trkpt><trkpt lat="44.337137" lon="8.0570999"><ele>462.5</ele><time>2026-04-30T13:54:34.453Z</time></trkpt><trkpt lat="44.3372649" lon="8.0572179"><ele>462.0</ele><time>2026-04-30T13:54:35.605Z</time></trkpt><trkpt lat="44.3374259" lon="8.0573576"><ele>461.5</ele><time>2026-04-30T13:54:37.658Z</time></trkpt><trkpt lat="44.33749" lon="8.0574007"><ele>461.0</ele><time>2026-04-30T13:54:39.558Z</time></trkpt><trkpt lat="44.3375937" lon="8.057499"><ele>460.5</ele><time>2026-04-30T13:54:43.477Z</time></trkpt><trkpt lat="44.337676" lon="8.0575727"><ele>460.0</ele><time>2026-04-30T13:54:44.582Z</time></trkpt><trkpt lat="44.3377738" lon="8.0576607"><ele>459.5</ele><time>2026-04-30T13:54:45.549Z</time></trkpt><trkpt lat="44.3378922" lon="8.0577736"><ele>459.0</ele><time>2026-04-30T13:54:46.567Z</time></trkpt><trkpt lat="44.3380266" lon="8.0578985"><ele>459.66666666666663</ele><time>2026-04-30T13:54:47.555Z</time></trkpt><trkpt lat="44.3381671" lon="8.0580258"><ele>460.3333333333333</ele><time>2026-04-30T13:54:48.514Z</time></trkpt><trkpt lat="44.3383317" lon="8.058179"><ele>461.0</ele><time>2026-04-30T13:54:49.592Z</time></trkpt><trkpt lat="44.3384741" lon="8.0583125"><ele>462.0</ele><time>2026-04-30T13:54:50.51Z</time></trkpt><trkpt lat="44.3386506" lon="8.0584783"><ele>463.0</ele><time>2026-04-30T13:54:51.596Z</time></trkpt><trkpt lat="44.3388106" lon="8.0586359"><ele>464.0</ele><time>2026-04-30T13:54:52.595Z</time></trkpt><trkpt lat="44.3389759" lon="8.0587929"><ele>464.0</ele><time>2026-04-30T13:54:53.629Z</time></trkpt><trkpt lat="44.3391306" lon="8.0589367"><ele>464.0</ele><time>2026-04-30T13:54:54.619Z</time></trkpt><trkpt lat="44.3392814" lon="8.0590672"><ele>464.0</ele><time>2026-04-30T13:54:55.563Z</time></trkpt><trkpt lat="44.3394545" lon="8.0592065"><ele>466.0</ele><time>2026-04-30T13:54:56.621Z</time></trkpt><trkpt lat="44.339623" lon="8.0593271"><ele>468.0</ele><time>2026-04-30T13:54:57.68Z</time></trkpt><trkpt lat="44.3398915" lon="8.0595091"><ele>468.0</ele><time>2026-04-30T13:54:59.535Z</time></trkpt><trkpt lat="44.3400299" lon="8.0595994"><ele>468.0</ele><time>2026-04-30T13:55:00.537Z</time></trkpt><trkpt lat="44.3401574" lon="8.0596837"><ele>468.0</ele><time>2026-04-30T13:55:01.49Z</time></trkpt><trkpt lat="44.340294" lon="8.059777"><ele>468.0</ele><time>2026-04-30T13:55:02.588Z</time></trkpt><trkpt lat="44.3404033" lon="8.0598554"><ele>468.0</ele><time>2026-04-30T13:55:03.539Z</time></trkpt><trkpt lat="44.3405139" lon="8.0599337"><ele>468.0</ele><time>2026-04-30T13:55:04.555Z</time></trkpt><trkpt lat="44.3406366" lon="8.0600186"><ele>468.0</ele><time>2026-04-30T13:55:05.704Z</time></trkpt><trkpt lat="44.3408389" lon="8.0601571"><ele>468.0</ele><time>2026-04-30T13:55:07.564Z</time></trkpt><trkpt lat="44.340962" lon="8.0602441"><ele>468.0</ele><time>2026-04-30T13:55:08.692Z</time></trkpt><trkpt lat="44.3410613" lon="8.0603146"><ele>468.0</ele><time>2026-04-30T13:55:09.598Z</time></trkpt><trkpt lat="44.3411724" lon="8.0603911"><ele>468.0</ele><time>2026-04-30T13:55:10.613Z</time></trkpt><trkpt lat="44.3412833" lon="8.0604678"><ele>466.5</ele><time>2026-04-30T13:55:11.597Z</time></trkpt><trkpt lat="44.341387" lon="8.0605434"><ele>465.0</ele><time>2026-04-30T13:55:12.541Z</time></trkpt><trkpt lat="44.341498" lon="8.0606189"><ele>463.5</ele><time>2026-04-30T13:55:13.565Z</time></trkpt><trkpt lat="44.3416163" lon="8.0607017"><ele>462.0</ele><time>2026-04-30T13:55:14.645Z</time></trkpt><trkpt lat="44.3418373" lon="8.060855"><ele>462.0</ele><time>2026-04-30T13:55:16.596Z</time></trkpt><trkpt lat="44.3419497" lon="8.0609288"><ele>462.0</ele><time>2026-04-30T13:55:17.551Z</time></trkpt><trkpt lat="44.3420497" lon="8.0610056"><ele>462.0</ele><time>2026-04-30T13:55:18.481Z</time></trkpt><trkpt lat="44.3421641" lon="8.0610988"><ele>462.0</ele><time>2026-04-30T13:55:19.578Z</time></trkpt><trkpt lat="44.3422649" lon="8.0611809"><ele>466.0</ele><time>2026-04-30T13:55:20.561Z</time></trkpt><trkpt lat="44.3423754" lon="8.0612822"><ele>470.0</ele><time>2026-04-30T13:55:21.704Z</time></trkpt><trkpt lat="44.342553" lon="8.0614491"><ele>474.0</ele><time>2026-04-30T13:55:23.548Z</time></trkpt><trkpt lat="44.3426657" lon="8.0615521"><ele>471.0</ele><time>2026-04-30T13:55:24.628Z</time></trkpt><trkpt lat="44.3427801" lon="8.0616596"><ele>468.0</ele><time>2026-04-30T13:55:25.701Z</time></trkpt><trkpt lat="44.3429806" lon="8.0618419"><ele>465.0</ele><time>2026-04-30T13:55:27.591Z</time></trkpt><trkpt lat="44.3430816" lon="8.0619315"><ele>465.0</ele><time>2026-04-30T13:55:28.542Z</time></trkpt><trkpt lat="44.3431906" lon="8.0620288"><ele>465.0</ele><time>2026-04-30T13:55:29.585Z</time></trkpt><trkpt lat="44.3432928" lon="8.0621139"><ele>465.0</ele><time>2026-04-30T13:55:30.589Z</time></trkpt><trkpt lat="44.3433978" lon="8.0621918"><ele>465.0</ele><time>2026-04-30T13:55:31.645Z</time></trkpt><trkpt lat="44.3434912" lon="8.0622471"><ele>465.0</ele><time>2026-04-30T13:55:32.551Z</time></trkpt><trkpt lat="44.3436012" lon="8.0622927"><ele>465.0</ele><time>2026-04-30T13:55:33.575Z</time></trkpt><trkpt lat="44.3437036" lon="8.0623148"><ele>465.0</ele><time>2026-04-30T13:55:34.509Z</time></trkpt><trkpt lat="44.3438231" lon="8.0623129"><ele>465.0</ele><time>2026-04-30T13:55:35.563Z</time></trkpt><trkpt lat="44.3440504" lon="8.0622338"><ele>463.5</ele><time>2026-04-30T13:55:37.67Z</time></trkpt><trkpt lat="44.3441462" lon="8.0621556"><ele>462.0</ele><time>2026-04-30T13:55:38.657Z</time></trkpt><trkpt lat="44.3442267" lon="8.0620564"><ele>460.5</ele><time>2026-04-30T13:55:39.578Z</time></trkpt><trkpt lat="44.3443111" lon="8.0619188"><ele>459.0</ele><time>2026-04-30T13:55:40.666Z</time></trkpt><trkpt lat="44.3443802" lon="8.061782"><ele>459.0</ele><time>2026-04-30T13:55:41.683Z</time></trkpt><trkpt lat="44.3444387" lon="8.0616519"><ele>459.0</ele><time>2026-04-30T13:55:42.6Z</time></trkpt><trkpt lat="44.3445037" lon="8.0615065"><ele>459.0</ele><time>2026-04-30T13:55:43.582Z</time></trkpt><trkpt lat="44.3445693" lon="8.0613563"><ele>459.0</ele><time>2026-04-30T13:55:44.566Z</time></trkpt><trkpt lat="44.3446353" lon="8.0612073"><ele>460.33333333333337</ele><time>2026-04-30T13:55:45.568Z</time></trkpt><trkpt lat="44.3446996" lon="8.0610648"><ele>461.6666666666667</ele><time>2026-04-30T13:55:46.531Z</time></trkpt><trkpt lat="44.3447797" lon="8.0608892"><ele>463.0</ele><time>2026-04-30T13:55:47.738Z</time></trkpt><trkpt lat="44.3449051" lon="8.0606337"><ele>460.79999999999995</ele><time>2026-04-30T13:55:49.635Z</time></trkpt><trkpt lat="44.3449679" lon="8.0605056"><ele>458.59999999999997</ele><time>2026-04-30T13:55:50.62Z</time></trkpt><trkpt lat="44.3450202" lon="8.0603913"><ele>456.40000000000003</ele><time>2026-04-30T13:55:51.553Z</time></trkpt><trkpt lat="44.3450758" lon="8.0602723"><ele>454.20000000000005</ele><time>2026-04-30T13:55:52.578Z</time></trkpt><trkpt lat="44.3451353" lon="8.0601654"><ele>452.0</ele><time>2026-04-30T13:55:53.61Z</time></trkpt><trkpt lat="44.345205" lon="8.0600779"><ele>452.0</ele><time>2026-04-30T13:55:54.558Z</time></trkpt><trkpt lat="44.3453021" lon="8.0599897"><ele>452.0</ele><time>2026-04-30T13:55:55.661Z</time></trkpt><trkpt lat="44.3453991" lon="8.0599261"><ele>452.0</ele><time>2026-04-30T13:55:56.672Z</time></trkpt><trkpt lat="44.3455925" lon="8.0598394"><ele>452.0</ele><time>2026-04-30T13:55:58.715Z</time></trkpt><trkpt lat="44.3456729" lon="8.0598007"><ele>450.75</ele><time>2026-04-30T13:55:59.616Z</time></trkpt><trkpt lat="44.3457846" lon="8.0597436"><ele>449.5</ele><time>2026-04-30T13:56:00.721Z</time></trkpt><trkpt lat="44.3459706" lon="8.0596563"><ele>448.25</ele><time>2026-04-30T13:56:02.636Z</time></trkpt><trkpt lat="44.3460669" lon="8.0595999"><ele>447.0</ele><time>2026-04-30T13:56:03.63Z</time></trkpt><trkpt lat="44.34616" lon="8.0595349"><ele>447.0</ele><time>2026-04-30T13:56:04.643Z</time></trkpt><trkpt lat="44.3462507" lon="8.0594647"><ele>447.00000000000006</ele><time>2026-04-30T13:56:05.579Z</time></trkpt><trkpt lat="44.3463391" lon="8.059382"><ele>447.00000000000006</ele><time>2026-04-30T13:56:06.556Z</time></trkpt><trkpt lat="44.3464338" lon="8.0592928"><ele>447.0</ele><time>2026-04-30T13:56:07.602Z</time></trkpt><trkpt lat="44.3465232" lon="8.0592086"><ele>447.0</ele><time>2026-04-30T13:56:08.598Z</time></trkpt><trkpt lat="44.3466101" lon="8.059125"><ele>448.25</ele><time>2026-04-30T13:56:09.499Z</time></trkpt><trkpt lat="44.3467089" lon="8.059021"><ele>449.5</ele><time>2026-04-30T13:56:10.564Z</time></trkpt><trkpt lat="44.3468017" lon="8.0589298"><ele>450.75</ele><time>2026-04-30T13:56:11.534Z</time></trkpt><trkpt lat="44.3468972" lon="8.0588341"><ele>452.0</ele><time>2026-04-30T13:56:12.575Z</time></trkpt><trkpt lat="44.3469921" lon="8.0587385"><ele>452.0</ele><time>2026-04-30T13:56:13.68Z</time></trkpt><trkpt lat="44.347117" lon="8.0586084"><ele>452.0</ele><time>2026-04-30T13:56:15.546Z</time></trkpt><trkpt lat="44.3471874" lon="8.0585343"><ele>452.0</ele><time>2026-04-30T13:56:16.586Z</time></trkpt><trkpt lat="44.347327" lon="8.0583914"><ele>452.0</ele><time>2026-04-30T13:56:18.712Z</time></trkpt><trkpt lat="44.347439" lon="8.0582739"><ele>451.8</ele><time>2026-04-30T13:56:20.528Z</time></trkpt><trkpt lat="44.3475003" lon="8.0582119"><ele>451.6</ele><time>2026-04-30T13:56:21.632Z</time></trkpt><trkpt lat="44.3475602" lon="8.058149"><ele>451.40000000000003</ele><time>2026-04-30T13:56:22.694Z</time></trkpt><trkpt lat="44.347675" lon="8.0580437"><ele>451.20000000000005</ele><time>2026-04-30T13:56:24.634Z</time></trkpt><trkpt lat="44.3478017" lon="8.0579266"><ele>451.0</ele><time>2026-04-30T13:56:27.411Z</time></trkpt><trkpt lat="44.3478841" lon="8.057847"><ele>451.0</ele><time>2026-04-30T13:56:29.724Z</time></trkpt><trkpt lat="44.3479428" lon="8.0577864"><ele>451.0</ele><time>2026-04-30T13:56:31.468Z</time></trkpt><trkpt lat="44.3479972" lon="8.0577358"><ele>451.0</ele><time>2026-04-30T13:56:33.507Z</time></trkpt><trkpt lat="44.3480603" lon="8.0576695"><ele>451.0</ele><time>2026-04-30T13:56:36.549Z</time></trkpt><trkpt lat="44.3481121" lon="8.0576108"><ele>451.0</ele><time>2026-04-30T13:56:40.548Z</time></trkpt><trkpt lat="44.3481635" lon="8.0575543"><ele>451.0</ele><time>2026-04-30T13:56:43.642Z</time></trkpt><trkpt lat="44.3482155" lon="8.057495"><ele>451.0</ele><time>2026-04-30T13:56:47.584Z</time></trkpt><trkpt lat="44.3482654" lon="8.0574244"><ele>451.4</ele><time>2026-04-30T13:56:52.516Z</time></trkpt><trkpt lat="44.3483157" lon="8.0573122"><ele>451.8</ele><time>2026-04-30T13:57:05.519Z</time></trkpt><trkpt lat="44.3483912" lon="8.0571638"><ele>452.19999999999993</ele><time>2026-04-30T13:57:07.639Z</time></trkpt><trkpt lat="44.3484398" lon="8.0570834"><ele>452.59999999999997</ele><time>2026-04-30T13:57:08.606Z</time></trkpt><trkpt lat="44.3484888" lon="8.0569911"><ele>453.0</ele><time>2026-04-30T13:57:09.634Z</time></trkpt><trkpt lat="44.3485781" lon="8.0568416"><ele>453.0</ele><time>2026-04-30T13:57:11.508Z</time></trkpt><trkpt lat="44.3486304" lon="8.0567658"><ele>452.99999999999994</ele><time>2026-04-30T13:57:12.526Z</time></trkpt><trkpt lat="44.3486894" lon="8.0566963"><ele>452.99999999999994</ele><time>2026-04-30T13:57:13.607Z</time></trkpt><trkpt lat="44.3487664" lon="8.0566301"><ele>453.0</ele><time>2026-04-30T13:57:14.748Z</time></trkpt><trkpt lat="44.3489362" lon="8.0565193"><ele>453.0</ele><time>2026-04-30T13:57:16.633Z</time></trkpt><trkpt lat="44.3490321" lon="8.0564736"><ele>452.75</ele><time>2026-04-30T13:57:17.565Z</time></trkpt><trkpt lat="44.3491566" lon="8.0564484"><ele>452.5</ele><time>2026-04-30T13:57:18.665Z</time></trkpt><trkpt lat="44.3492816" lon="8.0564457"><ele>452.25</ele><time>2026-04-30T13:57:19.684Z</time></trkpt><trkpt lat="44.3494025" lon="8.0564613"><ele>452.0</ele><time>2026-04-30T13:57:20.625Z</time></trkpt><trkpt lat="44.3495395" lon="8.0564724"><ele>453.5</ele><time>2026-04-30T13:57:21.613Z</time></trkpt><trkpt lat="44.3497089" lon="8.0564758"><ele>455.0</ele><time>2026-04-30T13:57:22.653Z</time></trkpt><trkpt lat="44.3500785" lon="8.0564256"><ele>455.0</ele><time>2026-04-30T13:57:24.607Z</time></trkpt><trkpt lat="44.3502677" lon="8.056381"><ele>455.0</ele><time>2026-04-30T13:57:25.56Z</time></trkpt><trkpt lat="44.3505299" lon="8.0563146"><ele>455.0</ele><time>2026-04-30T13:57:26.716Z</time></trkpt><trkpt lat="44.350749" lon="8.0562493"><ele>455.0</ele><time>2026-04-30T13:57:27.635Z</time></trkpt><trkpt lat="44.3510228" lon="8.0561787"><ele>462.0</ele><time>2026-04-30T13:57:28.718Z</time></trkpt><trkpt lat="44.3515331" lon="8.0560735"><ele>462.0</ele><time>2026-04-30T13:57:30.643Z</time></trkpt><trkpt lat="44.3517797" lon="8.0560309"><ele>462.0</ele><time>2026-04-30T13:57:31.619Z</time></trkpt><trkpt lat="44.3520325" lon="8.0559729"><ele>465.0</ele><time>2026-04-30T13:57:32.617Z</time></trkpt><trkpt lat="44.3522791" lon="8.0559145"><ele>468.0</ele><time>2026-04-30T13:57:33.647Z</time></trkpt><trkpt lat="44.3525151" lon="8.0558567"><ele>468.0</ele><time>2026-04-30T13:57:34.676Z</time></trkpt><trkpt lat="44.352764" lon="8.0558048"><ele>468.0</ele><time>2026-04-30T13:57:35.719Z</time></trkpt><trkpt lat="44.3532065" lon="8.0556764"><ele>465.5</ele><time>2026-04-30T13:57:37.612Z</time></trkpt><trkpt lat="44.3536007" lon="8.0555267"><ele>463.0</ele><time>2026-04-30T13:57:39.591Z</time></trkpt><trkpt lat="44.3537741" lon="8.0553881"><ele>460.0</ele><time>2026-04-30T13:57:40.655Z</time></trkpt><trkpt lat="44.3538843" lon="8.0552137"><ele>457.0</ele><time>2026-04-30T13:57:41.562Z</time></trkpt><trkpt lat="44.3539944" lon="8.0550153"><ele>454.0</ele><time>2026-04-30T13:57:42.538Z</time></trkpt><trkpt lat="44.3541204" lon="8.0548217"><ele>454.0</ele><time>2026-04-30T13:57:43.574Z</time></trkpt><trkpt lat="44.3542783" lon="8.0546795"><ele>454.0</ele><time>2026-04-30T13:57:44.606Z</time></trkpt><trkpt lat="44.3544712" lon="8.0545876"><ele>454.0</ele><time>2026-04-30T13:57:45.621Z</time></trkpt><trkpt lat="44.3546565" lon="8.0545057"><ele>461.0</ele><time>2026-04-30T13:57:46.548Z</time></trkpt><trkpt lat="44.3548927" lon="8.0544006"><ele>468.0</ele><time>2026-04-30T13:57:47.677Z</time></trkpt><trkpt lat="44.355299" lon="8.054189"><ele>449.0</ele><time>2026-04-30T13:57:49.663Z</time></trkpt><trkpt lat="44.355712" lon="8.0539279"><ele>449.0</ele><time>2026-04-30T13:57:51.617Z</time></trkpt><trkpt lat="44.356101" lon="8.0536722"><ele>449.0</ele><time>2026-04-30T13:57:53.513Z</time></trkpt><trkpt lat="44.3563021" lon="8.0535013"><ele>450.0</ele><time>2026-04-30T13:57:54.633Z</time></trkpt><trkpt lat="44.3565806" lon="8.053156"><ele>451.0</ele><time>2026-04-30T13:57:56.528Z</time></trkpt><trkpt lat="44.3567289" lon="8.053009"><ele>451.0</ele><time>2026-04-30T13:57:57.554Z</time></trkpt><trkpt lat="44.3568978" lon="8.0529142"><ele>451.0</ele><time>2026-04-30T13:57:58.569Z</time></trkpt><trkpt lat="44.3570779" lon="8.0528827"><ele>451.0</ele><time>2026-04-30T13:57:59.63Z</time></trkpt><trkpt lat="44.357414" lon="8.0530343"><ele>451.33333333333337</ele><time>2026-04-30T13:58:01.62Z</time></trkpt><trkpt lat="44.3575691" lon="8.0531823"><ele>451.66666666666663</ele><time>2026-04-30T13:58:02.538Z</time></trkpt><trkpt lat="44.3577475" lon="8.0533887"><ele>452.0</ele><time>2026-04-30T13:58:03.556Z</time></trkpt><trkpt lat="44.3579373" lon="8.0536152"><ele>451.5</ele><time>2026-04-30T13:58:04.585Z</time></trkpt><trkpt lat="44.3581227" lon="8.0538323"><ele>451.0</ele><time>2026-04-30T13:58:05.563Z</time></trkpt><trkpt lat="44.3583293" lon="8.0540449"><ele>453.5</ele><time>2026-04-30T13:58:06.525Z</time></trkpt><trkpt lat="44.3585647" lon="8.0543017"><ele>456.0</ele><time>2026-04-30T13:58:07.619Z</time></trkpt><trkpt lat="44.3587795" lon="8.0545282"><ele>455.0</ele><time>2026-04-30T13:58:08.6Z</time></trkpt><trkpt lat="44.3590318" lon="8.0548041"><ele>454.0</ele><time>2026-04-30T13:58:09.749Z</time></trkpt><trkpt lat="44.3594429" lon="8.0552237"><ele>454.0</ele><time>2026-04-30T13:58:11.639Z</time></trkpt><trkpt lat="44.3596859" lon="8.0554278"><ele>454.0</ele><time>2026-04-30T13:58:12.593Z</time></trkpt><trkpt lat="44.3599515" lon="8.0556491"><ele>456.5</ele><time>2026-04-30T13:58:13.581Z</time></trkpt><trkpt lat="44.3602378" lon="8.055888"><ele>459.0</ele><time>2026-04-30T13:58:14.616Z</time></trkpt><trkpt lat="44.360497" lon="8.0561069"><ele>447.5</ele><time>2026-04-30T13:58:15.559Z</time></trkpt><trkpt lat="44.3607918" lon="8.0563489"><ele>436.0</ele><time>2026-04-30T13:58:16.63Z</time></trkpt><trkpt lat="44.361059" lon="8.0565664"><ele>438.5</ele><time>2026-04-30T13:58:17.585Z</time></trkpt><trkpt lat="44.3613407" lon="8.0568013"><ele>441.0</ele><time>2026-04-30T13:58:18.608Z</time></trkpt><trkpt lat="44.3616171" lon="8.0570343"><ele>473.0</ele><time>2026-04-30T13:58:19.622Z</time></trkpt><trkpt lat="44.3621319" lon="8.0574709"><ele>457.0</ele><time>2026-04-30T13:58:21.602Z</time></trkpt><trkpt lat="44.3623531" lon="8.0576612"><ele>441.0</ele><time>2026-04-30T13:58:22.511Z</time></trkpt><trkpt lat="44.3625947" lon="8.0578682"><ele>441.0</ele><time>2026-04-30T13:58:23.56Z</time></trkpt><trkpt lat="44.3628258" lon="8.0580627"><ele>441.0</ele><time>2026-04-30T13:58:24.67Z</time></trkpt><trkpt lat="44.3632055" lon="8.0582848"><ele>447.5</ele><time>2026-04-30T13:58:26.588Z</time></trkpt><trkpt lat="44.363575" lon="8.0583222"><ele>454.0</ele><time>2026-04-30T13:58:28.425Z</time></trkpt><trkpt lat="44.3638237" lon="8.0582252"><ele>430.0</ele><time>2026-04-30T13:58:29.525Z</time></trkpt><trkpt lat="44.3643102" lon="8.0580365"><ele>430.0</ele><time>2026-04-30T13:58:31.563Z</time></trkpt><trkpt lat="44.3645379" lon="8.057938"><ele>430.0</ele><time>2026-04-30T13:58:32.511Z</time></trkpt><trkpt lat="44.3647723" lon="8.0578052"><ele>429.0</ele><time>2026-04-30T13:58:33.565Z</time></trkpt><trkpt lat="44.3649664" lon="8.0576658"><ele>428.0</ele><time>2026-04-30T13:58:34.494Z</time></trkpt><trkpt lat="44.3651957" lon="8.0574459"><ele>428.0</ele><time>2026-04-30T13:58:35.755Z</time></trkpt><trkpt lat="44.3654468" lon="8.0569761"><ele>428.0</ele><time>2026-04-30T13:58:37.631Z</time></trkpt><trkpt lat="44.3655501" lon="8.0566504"><ele>436.0</ele><time>2026-04-30T13:58:38.674Z</time></trkpt><trkpt lat="44.3656527" lon="8.0563161"><ele>444.0</ele><time>2026-04-30T13:58:39.682Z</time></trkpt><trkpt lat="44.3657549" lon="8.0559975"><ele>432.0</ele><time>2026-04-30T13:58:40.629Z</time></trkpt><trkpt lat="44.3659775" lon="8.0553205"><ele>429.5</ele><time>2026-04-30T13:58:42.566Z</time></trkpt><trkpt lat="44.3661061" lon="8.0549307"><ele>427.0</ele><time>2026-04-30T13:58:43.682Z</time></trkpt><trkpt lat="44.3661977" lon="8.0546265"><ele>427.0</ele><time>2026-04-30T13:58:44.543Z</time></trkpt><trkpt lat="44.3662887" lon="8.0542727"><ele>427.0</ele><time>2026-04-30T13:58:45.497Z</time></trkpt><trkpt lat="44.366378" lon="8.0538768"><ele>438.5</ele><time>2026-04-30T13:58:46.543Z</time></trkpt><trkpt lat="44.3664516" lon="8.053477"><ele>450.0</ele><time>2026-04-30T13:58:47.597Z</time></trkpt><trkpt lat="44.3665186" lon="8.0530467"><ele>443.0</ele><time>2026-04-30T13:58:48.719Z</time></trkpt><trkpt lat="44.3666179" lon="8.052335"><ele>443.0</ele><time>2026-04-30T13:58:50.633Z</time></trkpt><trkpt lat="44.3666632" lon="8.052006"><ele>443.0</ele><time>2026-04-30T13:58:51.582Z</time></trkpt><trkpt lat="44.3666869" lon="8.0516307"><ele>442.0</ele><time>2026-04-30T13:58:52.665Z</time></trkpt><trkpt lat="44.3666756" lon="8.0509616"><ele>445.0</ele><time>2026-04-30T13:58:54.536Z</time></trkpt><trkpt lat="44.366655" lon="8.0505488"><ele>448.0</ele><time>2026-04-30T13:58:55.665Z</time></trkpt><trkpt lat="44.3666358" lon="8.050194"><ele>448.5</ele><time>2026-04-30T13:58:56.616Z</time></trkpt><trkpt lat="44.3666141" lon="8.049822"><ele>449.0</ele><time>2026-04-30T13:58:57.608Z</time></trkpt><trkpt lat="44.3665976" lon="8.049407"><ele>448.0</ele><time>2026-04-30T13:58:58.706Z</time></trkpt><trkpt lat="44.3666" lon="8.0490259"><ele>447.0</ele><time>2026-04-30T13:58:59.671Z</time></trkpt><trkpt lat="44.3666313" lon="8.0486048"><ele>444.5</ele><time>2026-04-30T13:59:00.698Z</time></trkpt><trkpt lat="44.3666788" lon="8.0481752"><ele>442.0</ele><time>2026-04-30T13:59:01.722Z</time></trkpt><trkpt lat="44.3667101" lon="8.047836"><ele>441.5</ele><time>2026-04-30T13:59:02.525Z</time></trkpt><trkpt lat="44.3667176" lon="8.0473079"><ele>441.0</ele><time>2026-04-30T13:59:03.768Z</time></trkpt><trkpt lat="44.3666964" lon="8.0464955"><ele>437.5</ele><time>2026-04-30T13:59:05.808Z</time></trkpt><trkpt lat="44.3666899" lon="8.0461635"><ele>434.0</ele><time>2026-04-30T13:59:06.724Z</time></trkpt><trkpt lat="44.3666621" lon="8.0458045"><ele>435.0</ele><time>2026-04-30T13:59:07.781Z</time></trkpt><trkpt lat="44.3665655" lon="8.0452216"><ele>436.0</ele><time>2026-04-30T13:59:09.712Z</time></trkpt><trkpt lat="44.3665335" lon="8.0449481"><ele>432.0</ele><time>2026-04-30T13:59:10.744Z</time></trkpt><trkpt lat="44.366572" lon="8.0444215"><ele>428.0</ele><time>2026-04-30T13:59:12.781Z</time></trkpt><trkpt lat="44.3665983" lon="8.0441117"><ele>430.5</ele><time>2026-04-30T13:59:13.857Z</time></trkpt><trkpt lat="44.3668503" lon="8.0436866"><ele>433.0</ele><time>2026-04-30T13:59:15.886Z</time></trkpt><trkpt lat="44.3672538" lon="8.0434783"><ele>404.0</ele><time>2026-04-30T13:59:17.876Z</time></trkpt><trkpt lat="44.3677085" lon="8.0432876"><ele>418.0</ele><time>2026-04-30T13:59:19.559Z</time></trkpt><trkpt lat="44.3680268" lon="8.0430898"><ele>432.0</ele><time>2026-04-30T13:59:20.709Z</time></trkpt><trkpt lat="44.3682856" lon="8.0429013"><ele>432.0</ele><time>2026-04-30T13:59:21.666Z</time></trkpt><trkpt lat="44.3684655" lon="8.0426969"><ele>432.0</ele><time>2026-04-30T13:59:22.61Z</time></trkpt><trkpt lat="44.3686488" lon="8.0424628"><ele>438.0</ele><time>2026-04-30T13:59:23.564Z</time></trkpt><trkpt lat="44.3688652" lon="8.0422015"><ele>444.0</ele><time>2026-04-30T13:59:24.614Z</time></trkpt><trkpt lat="44.3690475" lon="8.0419658"><ele>444.0</ele><time>2026-04-30T13:59:25.567Z</time></trkpt><trkpt lat="44.3692245" lon="8.0417158"><ele>444.0</ele><time>2026-04-30T13:59:26.506Z</time></trkpt><trkpt lat="44.3693943" lon="8.0413762"><ele>440.5</ele><time>2026-04-30T13:59:27.546Z</time></trkpt><trkpt lat="44.3695835" lon="8.0410404"><ele>437.0</ele><time>2026-04-30T13:59:28.621Z</time></trkpt><trkpt lat="44.3699217" lon="8.040493"><ele>437.0</ele><time>2026-04-30T13:59:30.532Z</time></trkpt><trkpt lat="44.3701103" lon="8.040224"><ele>437.0</ele><time>2026-04-30T13:59:31.643Z</time></trkpt><trkpt lat="44.370265" lon="8.0400078"><ele>436.0</ele><time>2026-04-30T13:59:32.625Z</time></trkpt><trkpt lat="44.3704268" lon="8.0398275"><ele>435.0</ele><time>2026-04-30T13:59:33.643Z</time></trkpt><trkpt lat="44.370598" lon="8.0397051"><ele>434.0</ele><time>2026-04-30T13:59:34.642Z</time></trkpt><trkpt lat="44.3707927" lon="8.0396394"><ele>434.0</ele><time>2026-04-30T13:59:35.607Z</time></trkpt><trkpt lat="44.370986" lon="8.0396181"><ele>434.0</ele><time>2026-04-30T13:59:36.567Z</time></trkpt><trkpt lat="44.3712149" lon="8.0396511"><ele>434.0</ele><time>2026-04-30T13:59:37.573Z</time></trkpt><trkpt lat="44.3714741" lon="8.0397076"><ele>434.5</ele><time>2026-04-30T13:59:38.664Z</time></trkpt><trkpt lat="44.3717179" lon="8.0397597"><ele>435.0</ele><time>2026-04-30T13:59:39.646Z</time></trkpt><trkpt lat="44.3719591" lon="8.039816"><ele>434.0</ele><time>2026-04-30T13:59:40.631Z</time></trkpt><trkpt lat="44.3722009" lon="8.039871"><ele>433.0</ele><time>2026-04-30T13:59:41.622Z</time></trkpt><trkpt lat="44.3724568" lon="8.0399346"><ele>435.0</ele><time>2026-04-30T13:59:42.658Z</time></trkpt><trkpt lat="44.3726856" lon="8.0399907"><ele>437.0</ele><time>2026-04-30T13:59:43.603Z</time></trkpt><trkpt lat="44.3729426" lon="8.0400612"><ele>436.66666666666663</ele><time>2026-04-30T13:59:44.702Z</time></trkpt><trkpt lat="44.3731775" lon="8.0401295"><ele>436.33333333333337</ele><time>2026-04-30T13:59:45.695Z</time></trkpt><trkpt lat="44.3733829" lon="8.0401823"><ele>436.0</ele><time>2026-04-30T13:59:46.627Z</time></trkpt><trkpt lat="44.3735933" lon="8.0402379"><ele>436.0</ele><time>2026-04-30T13:59:47.592Z</time></trkpt><trkpt lat="44.3738129" lon="8.0402981"><ele>436.0</ele><time>2026-04-30T13:59:48.633Z</time></trkpt><trkpt lat="44.3740243" lon="8.0403515"><ele>436.0</ele><time>2026-04-30T13:59:49.658Z</time></trkpt><trkpt lat="44.3742306" lon="8.0404039"><ele>436.0</ele><time>2026-04-30T13:59:50.684Z</time></trkpt><trkpt lat="44.3744365" lon="8.040456"><ele>436.0</ele><time>2026-04-30T13:59:51.796Z</time></trkpt><trkpt lat="44.3747087" lon="8.040536"><ele>436.0</ele><time>2026-04-30T13:59:53.675Z</time></trkpt><trkpt lat="44.3748911" lon="8.0405931"><ele>436.0</ele><time>2026-04-30T13:59:55.632Z</time></trkpt><trkpt lat="44.3749425" lon="8.0406773"><ele>436.0</ele><time>2026-04-30T13:59:58.669Z</time></trkpt><trkpt lat="44.3750576" lon="8.0407502"><ele>436.0</ele><time>2026-04-30T14:00:04.564Z</time></trkpt><trkpt lat="44.3751496" lon="8.0407708"><ele>436.0</ele><time>2026-04-30T14:00:06.628Z</time></trkpt><trkpt lat="44.375237" lon="8.04079"><ele>436.0</ele><time>2026-04-30T14:00:09.641Z</time></trkpt><trkpt lat="44.3752649" lon="8.0406962"><ele>436.0</ele><time>2026-04-30T14:07:33.496Z</time></trkpt><trkpt lat="44.3753642" lon="8.040712"><ele>436.0</ele><time>2026-04-30T14:07:35.556Z</time></trkpt><trkpt lat="44.3755265" lon="8.0407583"><ele>436.0</ele><time>2026-04-30T14:07:37.524Z</time></trkpt><trkpt lat="44.3756254" lon="8.0407861"><ele>437.0</ele><time>2026-04-30T14:07:38.527Z</time></trkpt><trkpt lat="44.3757289" lon="8.0408176"><ele>438.0</ele><time>2026-04-30T14:07:39.491Z</time></trkpt><trkpt lat="44.3758421" lon="8.0408545"><ele>439.0</ele><time>2026-04-30T14:07:40.508Z</time></trkpt><trkpt lat="44.3759635" lon="8.04089"><ele>440.0</ele><time>2026-04-30T14:07:41.52Z</time></trkpt><trkpt lat="44.3760789" lon="8.0409215"><ele>440.0</ele><time>2026-04-30T14:07:42.466Z</time></trkpt><trkpt lat="44.3762152" lon="8.0409583"><ele>440.0</ele><time>2026-04-30T14:07:43.526Z</time></trkpt><trkpt lat="44.3763464" lon="8.04099"><ele>440.0</ele><time>2026-04-30T14:07:44.541Z</time></trkpt><trkpt lat="44.3764602" lon="8.0410202"><ele>440.0</ele><time>2026-04-30T14:07:45.474Z</time></trkpt><trkpt lat="44.376589" lon="8.0410577"><ele>439.75</ele><time>2026-04-30T14:07:46.557Z</time></trkpt><trkpt lat="44.3766954" lon="8.0410894"><ele>439.5</ele><time>2026-04-30T14:07:47.459Z</time></trkpt><trkpt lat="44.3768267" lon="8.0411222"><ele>439.25</ele><time>2026-04-30T14:07:48.645Z</time></trkpt><trkpt lat="44.3769996" lon="8.0411757"><ele>439.0</ele><time>2026-04-30T14:07:50.448Z</time></trkpt><trkpt lat="44.3770713" lon="8.0411959"><ele>439.0</ele><time>2026-04-30T14:07:51.497Z</time></trkpt><trkpt lat="44.3771407" lon="8.0412109"><ele>439.0</ele><time>2026-04-30T14:07:53.493Z</time></trkpt><trkpt lat="44.3772983" lon="8.0412715"><ele>439.0</ele><time>2026-04-30T14:07:58.553Z</time></trkpt><trkpt lat="44.3773796" lon="8.0413422"><ele>439.0</ele><time>2026-04-30T14:08:00.524Z</time></trkpt><trkpt lat="44.3774844" lon="8.0413521"><ele>439.0</ele><time>2026-04-30T14:08:02.531Z</time></trkpt><trkpt lat="44.3775831" lon="8.0411897"><ele>438.75</ele><time>2026-04-30T14:08:05.525Z</time></trkpt><trkpt lat="44.3775637" lon="8.0410064"><ele>438.5</ele><time>2026-04-30T14:08:07.449Z</time></trkpt><trkpt lat="44.3775174" lon="8.0408871"><ele>438.25</ele><time>2026-04-30T14:08:08.592Z</time></trkpt><trkpt lat="44.3774347" lon="8.0406705"><ele>438.0</ele><time>2026-04-30T14:08:10.571Z</time></trkpt><trkpt lat="44.377398" lon="8.0405534"><ele>438.0</ele><time>2026-04-30T14:08:11.496Z</time></trkpt><trkpt lat="44.3773645" lon="8.0404245"><ele>437.99999999999994</ele><time>2026-04-30T14:08:12.572Z</time></trkpt><trkpt lat="44.3773302" lon="8.0402935"><ele>437.99999999999994</ele><time>2026-04-30T14:08:13.539Z</time></trkpt><trkpt lat="44.3772958" lon="8.0401561"><ele>438.0</ele><time>2026-04-30T14:08:14.546Z</time></trkpt><trkpt lat="44.3772561" lon="8.0399994"><ele>438.0</ele><time>2026-04-30T14:08:15.527Z</time></trkpt><trkpt lat="44.3772183" lon="8.0398383"><ele>437.25</ele><time>2026-04-30T14:08:16.515Z</time></trkpt><trkpt lat="44.3771731" lon="8.0396517"><ele>436.5</ele><time>2026-04-30T14:08:17.565Z</time></trkpt><trkpt lat="44.377126" lon="8.0394572"><ele>435.75</ele><time>2026-04-30T14:08:18.573Z</time></trkpt><trkpt lat="44.377077" lon="8.0392536"><ele>435.0</ele><time>2026-04-30T14:08:19.584Z</time></trkpt><trkpt lat="44.3770272" lon="8.0390486"><ele>434.25</ele><time>2026-04-30T14:08:20.617Z</time></trkpt><trkpt lat="44.3769856" lon="8.0388787"><ele>433.5</ele><time>2026-04-30T14:08:21.532Z</time></trkpt><trkpt lat="44.3769378" lon="8.0386755"><ele>432.75</ele><time>2026-04-30T14:08:22.536Z</time></trkpt><trkpt lat="44.3768917" lon="8.0384969"><ele>432.0</ele><time>2026-04-30T14:08:23.436Z</time></trkpt><trkpt lat="44.3768426" lon="8.038283"><ele>431.5</ele><time>2026-04-30T14:08:24.555Z</time></trkpt><trkpt lat="44.376803" lon="8.0380991"><ele>431.0</ele><time>2026-04-30T14:08:25.501Z</time></trkpt><trkpt lat="44.3767686" lon="8.0379001"><ele>430.5</ele><time>2026-04-30T14:08:26.534Z</time></trkpt><trkpt lat="44.3767456" lon="8.0376961"><ele>430.0</ele><time>2026-04-30T14:08:27.566Z</time></trkpt><trkpt lat="44.3767413" lon="8.0375142"><ele>429.0</ele><time>2026-04-30T14:08:28.466Z</time></trkpt><trkpt lat="44.3767472" lon="8.0373115"><ele>428.0</ele><time>2026-04-30T14:08:29.468Z</time></trkpt><trkpt lat="44.3767744" lon="8.0371037"><ele>427.0</ele><time>2026-04-30T14:08:30.513Z</time></trkpt><trkpt lat="44.3768139" lon="8.0368983"><ele>426.0</ele><time>2026-04-30T14:08:31.536Z</time></trkpt><trkpt lat="44.3768613" lon="8.0367184"><ele>424.33333333333337</ele><time>2026-04-30T14:08:32.45Z</time></trkpt><trkpt lat="44.3769248" lon="8.0365087"><ele>422.6666666666667</ele><time>2026-04-30T14:08:33.521Z</time></trkpt><trkpt lat="44.377" lon="8.0362967"><ele>421.0</ele><time>2026-04-30T14:08:34.636Z</time></trkpt><trkpt lat="44.377127" lon="8.0359611"><ele>421.0</ele><time>2026-04-30T14:08:36.453Z</time></trkpt><trkpt lat="44.3771951" lon="8.0357811"><ele>421.0</ele><time>2026-04-30T14:08:37.461Z</time></trkpt><trkpt lat="44.3772789" lon="8.0355622"><ele>421.0</ele><time>2026-04-30T14:08:38.672Z</time></trkpt><trkpt lat="44.377418" lon="8.0352053"><ele>421.0</ele><time>2026-04-30T14:08:40.596Z</time></trkpt><trkpt lat="44.3774863" lon="8.0350287"><ele>421.0</ele><time>2026-04-30T14:08:41.55Z</time></trkpt><trkpt lat="44.3775579" lon="8.0348393"><ele>421.0</ele><time>2026-04-30T14:08:42.559Z</time></trkpt><trkpt lat="44.3776972" lon="8.0344745"><ele>420.0</ele><time>2026-04-30T14:08:44.472Z</time></trkpt><trkpt lat="44.3777727" lon="8.0342754"><ele>419.0</ele><time>2026-04-30T14:08:45.524Z</time></trkpt><trkpt lat="44.3778553" lon="8.0340599"><ele>418.0</ele><time>2026-04-30T14:08:46.677Z</time></trkpt><trkpt lat="44.3779916" lon="8.033695"><ele>418.0</ele><time>2026-04-30T14:08:48.538Z</time></trkpt><trkpt lat="44.3780663" lon="8.0335025"><ele>418.0</ele><time>2026-04-30T14:08:49.518Z</time></trkpt><trkpt lat="44.3781536" lon="8.033275"><ele>418.0</ele><time>2026-04-30T14:08:50.673Z</time></trkpt><trkpt lat="44.3782274" lon="8.0330871"><ele>418.0</ele><time>2026-04-30T14:08:51.621Z</time></trkpt><trkpt lat="44.3783829" lon="8.0326723"><ele>418.0</ele><time>2026-04-30T14:08:53.589Z</time></trkpt><trkpt lat="44.3785384" lon="8.0322788"><ele>417.33333333333337</ele><time>2026-04-30T14:08:55.481Z</time></trkpt><trkpt lat="44.3786233" lon="8.0320717"><ele>416.66666666666663</ele><time>2026-04-30T14:08:56.505Z</time></trkpt><trkpt lat="44.3787034" lon="8.0318758"><ele>416.0</ele><time>2026-04-30T14:08:57.49Z</time></trkpt><trkpt lat="44.3787829" lon="8.0316738"><ele>413.66666666666663</ele><time>2026-04-30T14:08:58.546Z</time></trkpt><trkpt lat="44.3788534" lon="8.0314987"><ele>411.33333333333337</ele><time>2026-04-30T14:08:59.461Z</time></trkpt><trkpt lat="44.3789407" lon="8.031311"><ele>409.0</ele><time>2026-04-30T14:09:00.512Z</time></trkpt><trkpt lat="44.3790399" lon="8.0311504"><ele>409.0</ele><time>2026-04-30T14:09:01.492Z</time></trkpt><trkpt lat="44.3791842" lon="8.030994"><ele>409.0</ele><time>2026-04-30T14:09:02.628Z</time></trkpt><trkpt lat="44.3794628" lon="8.0308198"><ele>408.0</ele><time>2026-04-30T14:09:04.526Z</time></trkpt><trkpt lat="44.3796295" lon="8.0307618"><ele>407.0</ele><time>2026-04-30T14:09:05.639Z</time></trkpt><trkpt lat="44.3799028" lon="8.0307113"><ele>406.0</ele><time>2026-04-30T14:09:07.418Z</time></trkpt><trkpt lat="44.3800576" lon="8.0307053"><ele>404.0</ele><time>2026-04-30T14:09:08.439Z</time></trkpt><trkpt lat="44.3802081" lon="8.0307093"><ele>402.0</ele><time>2026-04-30T14:09:09.478Z</time></trkpt><trkpt lat="44.380351" lon="8.0307174"><ele>400.0</ele><time>2026-04-30T14:09:10.482Z</time></trkpt><trkpt lat="44.3804854" lon="8.0307324"><ele>398.0</ele><time>2026-04-30T14:09:11.479Z</time></trkpt><trkpt lat="44.3806122" lon="8.030764"><ele>397.0</ele><time>2026-04-30T14:09:12.473Z</time></trkpt><trkpt lat="44.3807313" lon="8.0308519"><ele>396.0</ele><time>2026-04-30T14:09:13.496Z</time></trkpt><trkpt lat="44.3808487" lon="8.0309759"><ele>395.0</ele><time>2026-04-30T14:09:14.464Z</time></trkpt><trkpt lat="44.3809372" lon="8.0311496"><ele>394.0</ele><time>2026-04-30T14:09:15.499Z</time></trkpt><trkpt lat="44.3810165" lon="8.0313113"><ele>394.0</ele><time>2026-04-30T14:09:16.448Z</time></trkpt><trkpt lat="44.3810933" lon="8.0314717"><ele>394.0</ele><time>2026-04-30T14:09:17.471Z</time></trkpt><trkpt lat="44.3811634" lon="8.031626"><ele>394.0</ele><time>2026-04-30T14:09:18.481Z</time></trkpt><trkpt lat="44.381236" lon="8.0317802"><ele>394.0</ele><time>2026-04-30T14:09:19.468Z</time></trkpt><trkpt lat="44.3813162" lon="8.0319463"><ele>393.5</ele><time>2026-04-30T14:09:20.525Z</time></trkpt><trkpt lat="44.3813829" lon="8.0320981"><ele>393.0</ele><time>2026-04-30T14:09:21.459Z</time></trkpt><trkpt lat="44.3814583" lon="8.0322661"><ele>392.5</ele><time>2026-04-30T14:09:22.495Z</time></trkpt><trkpt lat="44.3815293" lon="8.0324256"><ele>392.0</ele><time>2026-04-30T14:09:23.464Z</time></trkpt><trkpt lat="44.3816256" lon="8.0326413"><ele>392.0</ele><time>2026-04-30T14:09:24.774Z</time></trkpt><trkpt lat="44.3817509" lon="8.0329066"><ele>392.0</ele><time>2026-04-30T14:09:26.566Z</time></trkpt><trkpt lat="44.3819188" lon="8.0330889"><ele>392.0</ele><time>2026-04-30T14:09:28.537Z</time></trkpt><trkpt lat="44.3820182" lon="8.0331235"><ele>392.0</ele><time>2026-04-30T14:09:29.528Z</time></trkpt><trkpt lat="44.3821146" lon="8.033112"><ele>392.0</ele><time>2026-04-30T14:09:30.491Z</time></trkpt><trkpt lat="44.3822007" lon="8.0330597"><ele>392.0</ele><time>2026-04-30T14:09:31.445Z</time></trkpt><trkpt lat="44.3822701" lon="8.0329652"><ele>392.0</ele><time>2026-04-30T14:09:32.485Z</time></trkpt><trkpt lat="44.3823163" lon="8.0328464"><ele>392.0</ele><time>2026-04-30T14:09:33.491Z</time></trkpt><trkpt lat="44.382335" lon="8.032716"><ele>389.6</ele><time>2026-04-30T14:09:34.482Z</time></trkpt><trkpt lat="44.3823355" lon="8.0325737"><ele>387.20000000000005</ele><time>2026-04-30T14:09:35.45Z</time></trkpt><trkpt lat="44.3823245" lon="8.0324142"><ele>384.8</ele><time>2026-04-30T14:09:36.459Z</time></trkpt><trkpt lat="44.3823134" lon="8.0322538"><ele>382.4</ele><time>2026-04-30T14:09:37.454Z</time></trkpt><trkpt lat="44.3823091" lon="8.0320999"><ele>380.0</ele><time>2026-04-30T14:09:38.479Z</time></trkpt><trkpt lat="44.3823117" lon="8.0319632"><ele>379.5</ele><time>2026-04-30T14:09:39.483Z</time></trkpt><trkpt lat="44.3823236" lon="8.0318456"><ele>379.0</ele><time>2026-04-30T14:09:40.483Z</time></trkpt><trkpt lat="44.382354" lon="8.0317382"><ele>378.5</ele><time>2026-04-30T14:09:41.478Z</time></trkpt><trkpt lat="44.3823943" lon="8.0316489"><ele>378.0</ele><time>2026-04-30T14:09:42.502Z</time></trkpt><trkpt lat="44.3824293" lon="8.0315353"><ele>377.5</ele><time>2026-04-30T14:09:43.629Z</time></trkpt><trkpt lat="44.382435" lon="8.0314346"><ele>377.0</ele><time>2026-04-30T14:09:44.559Z</time></trkpt><trkpt lat="44.3824272" lon="8.0313175"><ele>376.8</ele><time>2026-04-30T14:09:45.519Z</time></trkpt><trkpt lat="44.3824224" lon="8.0311758"><ele>376.6</ele><time>2026-04-30T14:09:46.53Z</time></trkpt><trkpt lat="44.3824386" lon="8.0310446"><ele>376.40000000000003</ele><time>2026-04-30T14:09:47.474Z</time></trkpt><trkpt lat="44.3824653" lon="8.0308998"><ele>376.20000000000005</ele><time>2026-04-30T14:09:48.497Z</time></trkpt><trkpt lat="44.3824914" lon="8.0307471"><ele>376.0</ele><time>2026-04-30T14:09:49.552Z</time></trkpt><trkpt lat="44.3825173" lon="8.0306057"><ele>375.75</ele><time>2026-04-30T14:09:50.479Z</time></trkpt><trkpt lat="44.382548" lon="8.0304473"><ele>375.5</ele><time>2026-04-30T14:09:51.548Z</time></trkpt><trkpt lat="44.3825763" lon="8.030298"><ele>375.25</ele><time>2026-04-30T14:09:52.516Z</time></trkpt><trkpt lat="44.3826069" lon="8.0301444"><ele>375.0</ele><time>2026-04-30T14:09:53.49Z</time></trkpt><trkpt lat="44.3826369" lon="8.0299855"><ele>375.75</ele><time>2026-04-30T14:09:54.557Z</time></trkpt><trkpt lat="44.3826633" lon="8.0298393"><ele>376.5</ele><time>2026-04-30T14:09:55.479Z</time></trkpt><trkpt lat="44.3826965" lon="8.0296681"><ele>377.25</ele><time>2026-04-30T14:09:56.554Z</time></trkpt><trkpt lat="44.3827309" lon="8.0294946"><ele>378.0</ele><time>2026-04-30T14:09:57.594Z</time></trkpt><trkpt lat="44.3827908" lon="8.0291583"><ele>378.6666666666667</ele><time>2026-04-30T14:09:59.462Z</time></trkpt><trkpt lat="44.3828254" lon="8.0289562"><ele>379.33333333333337</ele><time>2026-04-30T14:10:00.497Z</time></trkpt><trkpt lat="44.3828582" lon="8.0287304"><ele>380.0</ele><time>2026-04-30T14:10:01.515Z</time></trkpt><trkpt lat="44.3829008" lon="8.0284499"><ele>379.5</ele><time>2026-04-30T14:10:02.668Z</time></trkpt><trkpt lat="44.3829942" lon="8.0279733"><ele>379.0</ele><time>2026-04-30T14:10:04.514Z</time></trkpt><trkpt lat="44.3830477" lon="8.0277055"><ele>379.3333333333333</ele><time>2026-04-30T14:10:05.52Z</time></trkpt><trkpt lat="44.383099" lon="8.0274488"><ele>379.6666666666667</ele><time>2026-04-30T14:10:06.528Z</time></trkpt><trkpt lat="44.3831451" lon="8.0272091"><ele>380.0</ele><time>2026-04-30T14:10:07.481Z</time></trkpt><trkpt lat="44.383203" lon="8.0269105"><ele>380.0</ele><time>2026-04-30T14:10:08.663Z</time></trkpt><trkpt lat="44.3833006" lon="8.0264372"><ele>380.0</ele><time>2026-04-30T14:10:10.559Z</time></trkpt><trkpt lat="44.3833585" lon="8.0262008"><ele>380.0</ele><time>2026-04-30T14:10:11.559Z</time></trkpt><trkpt lat="44.3835687" lon="8.0258253"><ele>380.0</ele><time>2026-04-30T14:10:13.631Z</time></trkpt><trkpt lat="44.3838405" lon="8.0256709"><ele>388.0</ele><time>2026-04-30T14:10:15.421Z</time></trkpt><trkpt lat="44.384022" lon="8.0256596"><ele>396.0</ele><time>2026-04-30T14:10:16.458Z</time></trkpt><trkpt lat="44.3842146" lon="8.0257092"><ele>404.0</ele><time>2026-04-30T14:10:17.484Z</time></trkpt><trkpt lat="44.3843843" lon="8.0257833"><ele>402.5</ele><time>2026-04-30T14:10:18.398Z</time></trkpt><trkpt lat="44.3845924" lon="8.0259112"><ele>401.0</ele><time>2026-04-30T14:10:19.554Z</time></trkpt><trkpt lat="44.3848814" lon="8.0261873"><ele>401.0</ele><time>2026-04-30T14:10:21.458Z</time></trkpt><trkpt lat="44.3850069" lon="8.0263558"><ele>401.0</ele><time>2026-04-30T14:10:22.479Z</time></trkpt><trkpt lat="44.3851076" lon="8.0265079"><ele>401.0</ele><time>2026-04-30T14:10:23.444Z</time></trkpt><trkpt lat="44.3851994" lon="8.0266734"><ele>398.4</ele><time>2026-04-30T14:10:24.532Z</time></trkpt><trkpt lat="44.3852502" lon="8.0268226"><ele>395.8</ele><time>2026-04-30T14:10:25.503Z</time></trkpt><trkpt lat="44.3852881" lon="8.026962"><ele>393.2</ele><time>2026-04-30T14:10:26.498Z</time></trkpt><trkpt lat="44.3853337" lon="8.0270649"><ele>390.59999999999997</ele><time>2026-04-30T14:10:27.472Z</time></trkpt><trkpt lat="44.3853906" lon="8.0271545"><ele>388.0</ele><time>2026-04-30T14:10:28.586Z</time></trkpt><trkpt lat="44.3854677" lon="8.0272491"><ele>389.83333333333337</ele><time>2026-04-30T14:10:30.543Z</time></trkpt><trkpt lat="44.3855676" lon="8.027363"><ele>391.6666666666667</ele><time>2026-04-30T14:10:32.523Z</time></trkpt><trkpt lat="44.3856215" lon="8.0274121"><ele>393.5</ele><time>2026-04-30T14:10:33.516Z</time></trkpt><trkpt lat="44.385684" lon="8.0274372"><ele>395.33333333333337</ele><time>2026-04-30T14:10:34.574Z</time></trkpt><trkpt lat="44.3857843" lon="8.0273757"><ele>397.1666666666667</ele><time>2026-04-30T14:10:36.505Z</time></trkpt><trkpt lat="44.3858099" lon="8.027288"><ele>399.0</ele><time>2026-04-30T14:10:37.582Z</time></trkpt><trkpt lat="44.3858058" lon="8.0271775"><ele>399.0</ele><time>2026-04-30T14:10:38.592Z</time></trkpt><trkpt lat="44.3857921" lon="8.0270617"><ele>399.0</ele><time>2026-04-30T14:10:39.617Z</time></trkpt><trkpt lat="44.3857899" lon="8.026951"><ele>399.0</ele><time>2026-04-30T14:10:40.522Z</time></trkpt><trkpt lat="44.385789" lon="8.0268016"><ele>399.0</ele><time>2026-04-30T14:10:41.676Z</time></trkpt><trkpt lat="44.3857903" lon="8.0266884"><ele>399.0</ele><time>2026-04-30T14:10:42.577Z</time></trkpt><trkpt lat="44.3857896" lon="8.026547"><ele>401.66666666666663</ele><time>2026-04-30T14:10:43.612Z</time></trkpt><trkpt lat="44.3858095" lon="8.0262793"><ele>404.3333333333333</ele><time>2026-04-30T14:10:45.479Z</time></trkpt><trkpt lat="44.385831" lon="8.0261005"><ele>407.0</ele><time>2026-04-30T14:10:46.662Z</time></trkpt><trkpt lat="44.3858649" lon="8.0257574"><ele>408.3333333333333</ele><time>2026-04-30T14:10:48.47Z</time></trkpt><trkpt lat="44.3858818" lon="8.0255408"><ele>409.66666666666663</ele><time>2026-04-30T14:10:49.48Z</time></trkpt><trkpt lat="44.3859062" lon="8.0253015"><ele>411.0</ele><time>2026-04-30T14:10:50.484Z</time></trkpt><trkpt lat="44.3859362" lon="8.0250365"><ele>411.66666666666663</ele><time>2026-04-30T14:10:51.516Z</time></trkpt><trkpt lat="44.3859651" lon="8.024771"><ele>412.3333333333333</ele><time>2026-04-30T14:10:52.498Z</time></trkpt><trkpt lat="44.3859897" lon="8.0245013"><ele>413.0</ele><time>2026-04-30T14:10:53.476Z</time></trkpt><trkpt lat="44.3860196" lon="8.0242049"><ele>413.3333333333333</ele><time>2026-04-30T14:10:54.552Z</time></trkpt><trkpt lat="44.386049" lon="8.023937"><ele>413.66666666666663</ele><time>2026-04-30T14:10:55.501Z</time></trkpt><trkpt lat="44.3860768" lon="8.0236406"><ele>414.0</ele><time>2026-04-30T14:10:56.542Z</time></trkpt><trkpt lat="44.3861006" lon="8.0233731"><ele>414.33333333333337</ele><time>2026-04-30T14:10:57.494Z</time></trkpt><trkpt lat="44.3861287" lon="8.023088"><ele>414.6666666666667</ele><time>2026-04-30T14:10:58.54Z</time></trkpt><trkpt lat="44.3861541" lon="8.0228297"><ele>415.0</ele><time>2026-04-30T14:10:59.487Z</time></trkpt><trkpt lat="44.3861841" lon="8.0225253"><ele>415.0</ele><time>2026-04-30T14:11:00.606Z</time></trkpt><trkpt lat="44.3862346" lon="8.022009"><ele>415.0</ele><time>2026-04-30T14:11:02.5Z</time></trkpt><trkpt lat="44.3862613" lon="8.021738"><ele>414.6666666666667</ele><time>2026-04-30T14:11:03.486Z</time></trkpt><trkpt lat="44.3862895" lon="8.0214549"><ele>414.33333333333337</ele><time>2026-04-30T14:11:04.48Z</time></trkpt><trkpt lat="44.3863183" lon="8.0211665"><ele>414.0</ele><time>2026-04-30T14:11:05.483Z</time></trkpt><trkpt lat="44.3863447" lon="8.0208542"><ele>414.0</ele><time>2026-04-30T14:11:06.553Z</time></trkpt><trkpt lat="44.3863697" lon="8.0205631"><ele>414.0</ele><time>2026-04-30T14:11:07.531Z</time></trkpt><trkpt lat="44.3863988" lon="8.020239"><ele>414.0</ele><time>2026-04-30T14:11:08.563Z</time></trkpt><trkpt lat="44.3864256" lon="8.0199352"><ele>414.0</ele><time>2026-04-30T14:11:09.513Z</time></trkpt><trkpt lat="44.3864566" lon="8.0196"><ele>414.0</ele><time>2026-04-30T14:11:10.557Z</time></trkpt><trkpt lat="44.3864842" lon="8.0192998"><ele>414.0</ele><time>2026-04-30T14:11:11.491Z</time></trkpt><trkpt lat="44.3865155" lon="8.018981"><ele>414.0</ele><time>2026-04-30T14:11:12.486Z</time></trkpt><trkpt lat="44.386552" lon="8.0186103"><ele>414.0</ele><time>2026-04-30T14:11:13.646Z</time></trkpt><trkpt lat="44.3865789" lon="8.0183303"><ele>414.0</ele><time>2026-04-30T14:11:14.528Z</time></trkpt><trkpt lat="44.3866092" lon="8.0180208"><ele>414.0</ele><time>2026-04-30T14:11:15.498Z</time></trkpt><trkpt lat="44.3866379" lon="8.0177117"><ele>414.0</ele><time>2026-04-30T14:11:16.459Z</time></trkpt><trkpt lat="44.3866718" lon="8.0173763"><ele>414.0</ele><time>2026-04-30T14:11:17.523Z</time></trkpt><trkpt lat="44.3867041" lon="8.0170438"><ele>414.0</ele><time>2026-04-30T14:11:18.587Z</time></trkpt><trkpt lat="44.3867369" lon="8.0167225"><ele>414.0</ele><time>2026-04-30T14:11:19.61Z</time></trkpt><trkpt lat="44.3867672" lon="8.0164064"><ele>414.0</ele><time>2026-04-30T14:11:20.601Z</time></trkpt><trkpt lat="44.3867955" lon="8.0160803"><ele>414.0</ele><time>2026-04-30T14:11:21.597Z</time></trkpt><trkpt lat="44.3868521" lon="8.015453"><ele>414.0</ele><time>2026-04-30T14:11:23.522Z</time></trkpt><trkpt lat="44.3868821" lon="8.0151046"><ele>414.0</ele><time>2026-04-30T14:11:24.574Z</time></trkpt><trkpt lat="44.3869102" lon="8.0148063"><ele>413.5</ele><time>2026-04-30T14:11:25.478Z</time></trkpt><trkpt lat="44.3869428" lon="8.0144624"><ele>413.0</ele><time>2026-04-30T14:11:26.524Z</time></trkpt><trkpt lat="44.3869734" lon="8.0141537"><ele>413.0</ele><time>2026-04-30T14:11:27.488Z</time></trkpt><trkpt lat="44.3870102" lon="8.0137763"><ele>413.0</ele><time>2026-04-30T14:11:28.706Z</time></trkpt><trkpt lat="44.3870349" lon="8.013508"><ele>412.66666666666663</ele><time>2026-04-30T14:11:29.637Z</time></trkpt><trkpt lat="44.3870587" lon="8.0132515"><ele>412.33333333333337</ele><time>2026-04-30T14:11:30.572Z</time></trkpt><trkpt lat="44.3870837" lon="8.0129994"><ele>412.0</ele><time>2026-04-30T14:11:31.498Z</time></trkpt><trkpt lat="44.3871105" lon="8.0127173"><ele>412.33333333333337</ele><time>2026-04-30T14:11:32.545Z</time></trkpt><trkpt lat="44.3871375" lon="8.0124606"><ele>412.66666666666663</ele><time>2026-04-30T14:11:33.577Z</time></trkpt><trkpt lat="44.3871593" lon="8.012238"><ele>413.0</ele><time>2026-04-30T14:11:34.515Z</time></trkpt><trkpt lat="44.3871807" lon="8.0120149"><ele>412.66666666666663</ele><time>2026-04-30T14:11:35.498Z</time></trkpt><trkpt lat="44.3872051" lon="8.0117891"><ele>412.33333333333337</ele><time>2026-04-30T14:11:36.546Z</time></trkpt><trkpt lat="44.3872324" lon="8.0115709"><ele>412.0</ele><time>2026-04-30T14:11:37.58Z</time></trkpt><trkpt lat="44.387266" lon="8.0113606"><ele>412.0</ele><time>2026-04-30T14:11:38.537Z</time></trkpt><trkpt lat="44.3873155" lon="8.0111531"><ele>412.0</ele><time>2026-04-30T14:11:39.516Z</time></trkpt><trkpt lat="44.3873822" lon="8.0109384"><ele>412.0</ele><time>2026-04-30T14:11:40.54Z</time></trkpt><trkpt lat="44.3874606" lon="8.0107451"><ele>415.0</ele><time>2026-04-30T14:11:41.475Z</time></trkpt><trkpt lat="44.3875591" lon="8.0105439"><ele>418.0</ele><time>2026-04-30T14:11:42.489Z</time></trkpt><trkpt lat="44.3876758" lon="8.0103559"><ele>421.0</ele><time>2026-04-30T14:11:43.525Z</time></trkpt><trkpt lat="44.3878061" lon="8.0101809"><ele>421.0</ele><time>2026-04-30T14:11:44.551Z</time></trkpt><trkpt lat="44.3879379" lon="8.010033"><ele>421.0</ele><time>2026-04-30T14:11:45.476Z</time></trkpt><trkpt lat="44.3880957" lon="8.0098708"><ele>421.0</ele><time>2026-04-30T14:11:46.538Z</time></trkpt><trkpt lat="44.3882392" lon="8.0097233"><ele>422.0</ele><time>2026-04-30T14:11:47.507Z</time></trkpt><trkpt lat="44.3883905" lon="8.0095625"><ele>423.0</ele><time>2026-04-30T14:11:48.542Z</time></trkpt><trkpt lat="44.388536" lon="8.0094149"><ele>424.0</ele><time>2026-04-30T14:11:49.538Z</time></trkpt><trkpt lat="44.3886795" lon="8.0092709"><ele>424.33333333333337</ele><time>2026-04-30T14:11:50.523Z</time></trkpt><trkpt lat="44.388822" lon="8.009117"><ele>424.66666666666663</ele><time>2026-04-30T14:11:51.525Z</time></trkpt><trkpt lat="44.3889635" lon="8.0089566"><ele>425.0</ele><time>2026-04-30T14:11:52.525Z</time></trkpt><trkpt lat="44.389103" lon="8.0087766"><ele>425.0</ele><time>2026-04-30T14:11:53.568Z</time></trkpt><trkpt lat="44.389229" lon="8.008612"><ele>425.0</ele><time>2026-04-30T14:11:54.472Z</time></trkpt><trkpt lat="44.3893936" lon="8.0083956"><ele>425.0</ele><time>2026-04-30T14:11:55.577Z</time></trkpt><trkpt lat="44.3895199" lon="8.0082261"><ele>425.0</ele><time>2026-04-30T14:11:56.528Z</time></trkpt><trkpt lat="44.3896462" lon="8.0080624"><ele>425.0</ele><time>2026-04-30T14:11:57.552Z</time></trkpt><trkpt lat="44.3897529" lon="8.007923"><ele>425.0</ele><time>2026-04-30T14:11:58.522Z</time></trkpt><trkpt lat="44.3898611" lon="8.0077769"><ele>425.0</ele><time>2026-04-30T14:11:59.575Z</time></trkpt><trkpt lat="44.3899565" lon="8.0076529"><ele>425.0</ele><time>2026-04-30T14:12:00.49Z</time></trkpt><trkpt lat="44.3900608" lon="8.0075163"><ele>425.0</ele><time>2026-04-30T14:12:01.499Z</time></trkpt><trkpt lat="44.3901705" lon="8.0073741"><ele>425.0</ele><time>2026-04-30T14:12:02.521Z</time></trkpt><trkpt lat="44.3902812" lon="8.0072291"><ele>425.0</ele><time>2026-04-30T14:12:03.567Z</time></trkpt><trkpt lat="44.3903766" lon="8.0071057"><ele>425.0</ele><time>2026-04-30T14:12:04.531Z</time></trkpt><trkpt lat="44.3904963" lon="8.0069571"><ele>425.0</ele><time>2026-04-30T14:12:05.636Z</time></trkpt><trkpt lat="44.3907087" lon="8.0066842"><ele>425.0</ele><time>2026-04-30T14:12:07.568Z</time></trkpt><trkpt lat="44.3908115" lon="8.0065498"><ele>425.0</ele><time>2026-04-30T14:12:08.539Z</time></trkpt><trkpt lat="44.3909163" lon="8.006415"><ele>425.0</ele><time>2026-04-30T14:12:09.496Z</time></trkpt><trkpt lat="44.3910322" lon="8.0062614"><ele>425.0</ele><time>2026-04-30T14:12:10.552Z</time></trkpt><trkpt lat="44.3911399" lon="8.0061193"><ele>425.0</ele><time>2026-04-30T14:12:11.51Z</time></trkpt><trkpt lat="44.3912495" lon="8.0059765"><ele>425.0</ele><time>2026-04-30T14:12:12.501Z</time></trkpt><trkpt lat="44.3913571" lon="8.0058323"><ele>425.0</ele><time>2026-04-30T14:12:13.486Z</time></trkpt><trkpt lat="44.3914743" lon="8.0056697"><ele>424.75</ele><time>2026-04-30T14:12:14.561Z</time></trkpt><trkpt lat="44.3915741" lon="8.0055114"><ele>424.5</ele><time>2026-04-30T14:12:15.564Z</time></trkpt><trkpt lat="44.3916623" lon="8.0053492"><ele>424.25</ele><time>2026-04-30T14:12:16.533Z</time></trkpt><trkpt lat="44.3917429" lon="8.0051777"><ele>424.0</ele><time>2026-04-30T14:12:17.526Z</time></trkpt><trkpt lat="44.3918139" lon="8.0050081"><ele>424.33333333333337</ele><time>2026-04-30T14:12:18.517Z</time></trkpt><trkpt lat="44.3918771" lon="8.0048361"><ele>424.66666666666663</ele><time>2026-04-30T14:12:19.544Z</time></trkpt><trkpt lat="44.3919324" lon="8.0046651"><ele>425.0</ele><time>2026-04-30T14:12:20.567Z</time></trkpt><trkpt lat="44.3920405" lon="8.0043365"><ele>425.0</ele><time>2026-04-30T14:12:22.582Z</time></trkpt><trkpt lat="44.3920902" lon="8.0041834"><ele>425.0</ele><time>2026-04-30T14:12:23.528Z</time></trkpt><trkpt lat="44.3921431" lon="8.0040138"><ele>425.0</ele><time>2026-04-30T14:12:24.558Z</time></trkpt><trkpt lat="44.3921952" lon="8.0038443"><ele>425.0</ele><time>2026-04-30T14:12:25.538Z</time></trkpt><trkpt lat="44.3922567" lon="8.0036751"><ele>424.0</ele><time>2026-04-30T14:12:26.523Z</time></trkpt><trkpt lat="44.3923213" lon="8.0034847"><ele>423.0</ele><time>2026-04-30T14:12:27.542Z</time></trkpt><trkpt lat="44.3923884" lon="8.0032793"><ele>422.0</ele><time>2026-04-30T14:12:28.609Z</time></trkpt><trkpt lat="44.3924487" lon="8.0031034"><ele>421.3333333333333</ele><time>2026-04-30T14:12:29.527Z</time></trkpt><trkpt lat="44.3925123" lon="8.002898"><ele>420.66666666666663</ele><time>2026-04-30T14:12:30.565Z</time></trkpt><trkpt lat="44.3925705" lon="8.0027028"><ele>420.0</ele><time>2026-04-30T14:12:31.574Z</time></trkpt><trkpt lat="44.3926201" lon="8.0024964"><ele>419.33333333333337</ele><time>2026-04-30T14:12:32.628Z</time></trkpt><trkpt lat="44.392657" lon="8.0022968"><ele>418.6666666666667</ele><time>2026-04-30T14:12:33.573Z</time></trkpt><trkpt lat="44.3926931" lon="8.0020938"><ele>418.0</ele><time>2026-04-30T14:12:34.52Z</time></trkpt><trkpt lat="44.3927363" lon="8.0018637"><ele>418.33333333333337</ele><time>2026-04-30T14:12:35.504Z</time></trkpt><trkpt lat="44.3927761" lon="8.0016157"><ele>418.66666666666663</ele><time>2026-04-30T14:12:36.465Z</time></trkpt><trkpt lat="44.3928247" lon="8.0013099"><ele>419.0</ele><time>2026-04-30T14:12:37.537Z</time></trkpt><trkpt lat="44.3928816" lon="8.0009929"><ele>419.0</ele><time>2026-04-30T14:12:38.57Z</time></trkpt><trkpt lat="44.3929438" lon="8.000698"><ele>419.0</ele><time>2026-04-30T14:12:39.52Z</time></trkpt><trkpt lat="44.3930048" lon="8.000389"><ele>419.0</ele><time>2026-04-30T14:12:40.503Z</time></trkpt><trkpt lat="44.3930675" lon="8.0000477"><ele>418.5</ele><time>2026-04-30T14:12:41.559Z</time></trkpt><trkpt lat="44.3931306" lon="7.999706"><ele>418.0</ele><time>2026-04-30T14:12:42.589Z</time></trkpt><trkpt lat="44.3931985" lon="7.9993979"><ele>418.0</ele><time>2026-04-30T14:12:43.528Z</time></trkpt><trkpt lat="44.3932887" lon="7.9990729"><ele>418.0</ele><time>2026-04-30T14:12:44.571Z</time></trkpt><trkpt lat="44.3933902" lon="7.9987916"><ele>418.0</ele><time>2026-04-30T14:12:45.537Z</time></trkpt><trkpt lat="44.3935194" lon="7.9984691"><ele>418.0</ele><time>2026-04-30T14:12:46.646Z</time></trkpt><trkpt lat="44.3937505" lon="7.9979212"><ele>418.5</ele><time>2026-04-30T14:12:48.566Z</time></trkpt><trkpt lat="44.3938575" lon="7.9976495"><ele>419.0</ele><time>2026-04-30T14:12:49.507Z</time></trkpt><trkpt lat="44.3939682" lon="7.9973558"><ele>419.0</ele><time>2026-04-30T14:12:50.529Z</time></trkpt><trkpt lat="44.394072" lon="7.9970678"><ele>419.0</ele><time>2026-04-30T14:12:51.532Z</time></trkpt><trkpt lat="44.3941647" lon="7.9968133"><ele>419.0</ele><time>2026-04-30T14:12:52.457Z</time></trkpt><trkpt lat="44.3942859" lon="7.996474"><ele>419.5</ele><time>2026-04-30T14:12:53.682Z</time></trkpt><trkpt lat="44.3944682" lon="7.9959629"><ele>420.0</ele><time>2026-04-30T14:12:55.528Z</time></trkpt><trkpt lat="44.3945774" lon="7.9956655"><ele>420.0</ele><time>2026-04-30T14:12:56.605Z</time></trkpt><trkpt lat="44.3946659" lon="7.9954062"><ele>420.0</ele><time>2026-04-30T14:12:57.526Z</time></trkpt><trkpt lat="44.3947638" lon="7.995119"><ele>420.0</ele><time>2026-04-30T14:12:58.502Z</time></trkpt><trkpt lat="44.3948691" lon="7.9947979"><ele>419.0</ele><time>2026-04-30T14:12:59.508Z</time></trkpt><trkpt lat="44.3949811" lon="7.994465"><ele>418.0</ele><time>2026-04-30T14:13:00.547Z</time></trkpt><trkpt lat="44.3950961" lon="7.9941482"><ele>418.0</ele><time>2026-04-30T14:13:01.53Z</time></trkpt><trkpt lat="44.3952226" lon="7.9938187"><ele>418.0</ele><time>2026-04-30T14:13:02.585Z</time></trkpt><trkpt lat="44.3954497" lon="7.9932294"><ele>417.5</ele><time>2026-04-30T14:13:04.526Z</time></trkpt><trkpt lat="44.3955602" lon="7.9929261"><ele>417.0</ele><time>2026-04-30T14:13:05.494Z</time></trkpt><trkpt lat="44.3956703" lon="7.9926273"><ele>418.0</ele><time>2026-04-30T14:13:06.457Z</time></trkpt><trkpt lat="44.3958068" lon="7.9922692"><ele>419.0</ele><time>2026-04-30T14:13:07.621Z</time></trkpt><trkpt lat="44.3959136" lon="7.991975"><ele>419.0</ele><time>2026-04-30T14:13:08.57Z</time></trkpt><trkpt lat="44.3960568" lon="7.991646"><ele>419.0</ele><time>2026-04-30T14:13:09.688Z</time></trkpt><trkpt lat="44.3963387" lon="7.9911422"><ele>419.0</ele><time>2026-04-30T14:13:11.633Z</time></trkpt><trkpt lat="44.3964789" lon="7.9909348"><ele>419.0</ele><time>2026-04-30T14:13:12.534Z</time></trkpt><trkpt lat="44.3966138" lon="7.9907191"><ele>419.0</ele><time>2026-04-30T14:13:13.454Z</time></trkpt><trkpt lat="44.3967583" lon="7.9904664"><ele>418.66666666666663</ele><time>2026-04-30T14:13:14.563Z</time></trkpt><trkpt lat="44.3968693" lon="7.9902444"><ele>418.33333333333337</ele><time>2026-04-30T14:13:15.515Z</time></trkpt><trkpt lat="44.3969773" lon="7.9899977"><ele>418.0</ele><time>2026-04-30T14:13:16.519Z</time></trkpt><trkpt lat="44.3970667" lon="7.989731"><ele>417.6666666666667</ele><time>2026-04-30T14:13:17.558Z</time></trkpt><trkpt lat="44.3971315" lon="7.9894718"><ele>417.33333333333337</ele><time>2026-04-30T14:13:18.512Z</time></trkpt><trkpt lat="44.3971844" lon="7.9891775"><ele>417.0</ele><time>2026-04-30T14:13:19.572Z</time></trkpt><trkpt lat="44.3972349" lon="7.9888846"><ele>416.66666666666663</ele><time>2026-04-30T14:13:20.596Z</time></trkpt><trkpt lat="44.3972846" lon="7.9886399"><ele>416.3333333333333</ele><time>2026-04-30T14:13:21.509Z</time></trkpt><trkpt lat="44.3973374" lon="7.9883607"><ele>416.0</ele><time>2026-04-30T14:13:22.58Z</time></trkpt><trkpt lat="44.3973801" lon="7.9881127"><ele>415.66666666666663</ele><time>2026-04-30T14:13:23.525Z</time></trkpt><trkpt lat="44.397428" lon="7.9878346"><ele>415.33333333333337</ele><time>2026-04-30T14:13:24.572Z</time></trkpt><trkpt lat="44.3974684" lon="7.9875986"><ele>415.0</ele><time>2026-04-30T14:13:25.484Z</time></trkpt><trkpt lat="44.3975168" lon="7.9873324"><ele>415.6666666666667</ele><time>2026-04-30T14:13:26.53Z</time></trkpt><trkpt lat="44.3975668" lon="7.9870616"><ele>416.33333333333337</ele><time>2026-04-30T14:13:27.611Z</time></trkpt><trkpt lat="44.3976075" lon="7.9868391"><ele>417.0</ele><time>2026-04-30T14:13:28.515Z</time></trkpt><trkpt lat="44.3976532" lon="7.9865923"><ele>418.0</ele><time>2026-04-30T14:13:29.551Z</time></trkpt><trkpt lat="44.3976932" lon="7.9863644"><ele>419.0</ele><time>2026-04-30T14:13:30.553Z</time></trkpt><trkpt lat="44.3977374" lon="7.9861048"><ele>420.0</ele><time>2026-04-30T14:13:31.705Z</time></trkpt><trkpt lat="44.3978062" lon="7.9857417"><ele>420.0</ele><time>2026-04-30T14:13:33.576Z</time></trkpt><trkpt lat="44.3978351" lon="7.9855817"><ele>420.0</ele><time>2026-04-30T14:13:34.477Z</time></trkpt><trkpt lat="44.3978626" lon="7.9854235"><ele>420.0</ele><time>2026-04-30T14:13:35.502Z</time></trkpt><trkpt lat="44.3978878" lon="7.985252"><ele>420.0</ele><time>2026-04-30T14:13:36.493Z</time></trkpt><trkpt lat="44.3979202" lon="7.9850452"><ele>419.75</ele><time>2026-04-30T14:13:37.552Z</time></trkpt><trkpt lat="44.3979576" lon="7.9848451"><ele>419.5</ele><time>2026-04-30T14:13:38.541Z</time></trkpt><trkpt lat="44.3979929" lon="7.9846589"><ele>419.25</ele><time>2026-04-30T14:13:39.557Z</time></trkpt><trkpt lat="44.3980231" lon="7.9845007"><ele>419.0</ele><time>2026-04-30T14:13:40.504Z</time></trkpt><trkpt lat="44.3980507" lon="7.9843515"><ele>418.5</ele><time>2026-04-30T14:13:41.541Z</time></trkpt><trkpt lat="44.3980753" lon="7.9842174"><ele>418.0</ele><time>2026-04-30T14:13:42.568Z</time></trkpt><trkpt lat="44.3980961" lon="7.9840888"><ele>417.5</ele><time>2026-04-30T14:13:43.495Z</time></trkpt><trkpt lat="44.3981134" lon="7.9839277"><ele>417.0</ele><time>2026-04-30T14:13:44.539Z</time></trkpt><trkpt lat="44.3981341" lon="7.9837226"><ele>417.0</ele><time>2026-04-30T14:13:45.71Z</time></trkpt><trkpt lat="44.3981537" lon="7.9833605"><ele>417.0</ele><time>2026-04-30T14:13:47.546Z</time></trkpt><trkpt lat="44.3981636" lon="7.9831582"><ele>417.0</ele><time>2026-04-30T14:13:48.571Z</time></trkpt><trkpt lat="44.3981733" lon="7.9829713"><ele>417.0</ele><time>2026-04-30T14:13:49.519Z</time></trkpt><trkpt lat="44.3981847" lon="7.9827506"><ele>417.0</ele><time>2026-04-30T14:13:50.611Z</time></trkpt><trkpt lat="44.3981941" lon="7.9825665"><ele>417.0</ele><time>2026-04-30T14:13:51.51Z</time></trkpt><trkpt lat="44.3982056" lon="7.9823399"><ele>417.0</ele><time>2026-04-30T14:13:52.579Z</time></trkpt><trkpt lat="44.398218" lon="7.9821132"><ele>417.0</ele><time>2026-04-30T14:13:53.583Z</time></trkpt><trkpt lat="44.398231" lon="7.9818943"><ele>417.0</ele><time>2026-04-30T14:13:54.52Z</time></trkpt><trkpt lat="44.3982445" lon="7.9816557"><ele>417.33333333333337</ele><time>2026-04-30T14:13:55.535Z</time></trkpt><trkpt lat="44.3982564" lon="7.9814239"><ele>417.6666666666667</ele><time>2026-04-30T14:13:56.502Z</time></trkpt><trkpt lat="44.3982697" lon="7.9811658"><ele>418.0</ele><time>2026-04-30T14:13:57.585Z</time></trkpt><trkpt lat="44.3982817" lon="7.9809398"><ele>418.0</ele><time>2026-04-30T14:13:58.529Z</time></trkpt><trkpt lat="44.3982951" lon="7.9807015"><ele>418.0</ele><time>2026-04-30T14:13:59.507Z</time></trkpt><trkpt lat="44.3983072" lon="7.9804276"><ele>418.0</ele><time>2026-04-30T14:14:00.589Z</time></trkpt><trkpt lat="44.3983181" lon="7.9801956"><ele>419.33333333333337</ele><time>2026-04-30T14:14:01.492Z</time></trkpt><trkpt lat="44.39833" lon="7.9799259"><ele>420.66666666666663</ele><time>2026-04-30T14:14:02.536Z</time></trkpt><trkpt lat="44.3983415" lon="7.979682"><ele>422.0</ele><time>2026-04-30T14:14:03.534Z</time></trkpt><trkpt lat="44.3983524" lon="7.9794456"><ele>422.0</ele><time>2026-04-30T14:14:04.55Z</time></trkpt><trkpt lat="44.3983629" lon="7.9792145"><ele>422.0</ele><time>2026-04-30T14:14:05.543Z</time></trkpt><trkpt lat="44.3983731" lon="7.978991"><ele>422.0</ele><time>2026-04-30T14:14:06.515Z</time></trkpt><trkpt lat="44.3983851" lon="7.9787558"><ele>422.66666666666663</ele><time>2026-04-30T14:14:07.559Z</time></trkpt><trkpt lat="44.3984137" lon="7.9785435"><ele>423.33333333333337</ele><time>2026-04-30T14:14:08.497Z</time></trkpt><trkpt lat="44.3984704" lon="7.9783075"><ele>424.0</ele><time>2026-04-30T14:14:09.555Z</time></trkpt><trkpt lat="44.3985517" lon="7.9781029"><ele>424.0</ele><time>2026-04-30T14:14:10.577Z</time></trkpt><trkpt lat="44.3986472" lon="7.9779435"><ele>424.0</ele><time>2026-04-30T14:14:11.49Z</time></trkpt><trkpt lat="44.3987717" lon="7.9777929"><ele>424.0</ele><time>2026-04-30T14:14:12.48Z</time></trkpt><trkpt lat="44.3989242" lon="7.9776696"><ele>424.33333333333337</ele><time>2026-04-30T14:14:13.527Z</time></trkpt><trkpt lat="44.3990801" lon="7.9775678"><ele>424.66666666666663</ele><time>2026-04-30T14:14:14.551Z</time></trkpt><trkpt lat="44.3992273" lon="7.9774784"><ele>425.0</ele><time>2026-04-30T14:14:15.505Z</time></trkpt><trkpt lat="44.3993688" lon="7.977384"><ele>425.0</ele><time>2026-04-30T14:14:16.453Z</time></trkpt><trkpt lat="44.3995309" lon="7.9772718"><ele>425.0</ele><time>2026-04-30T14:14:17.537Z</time></trkpt><trkpt lat="44.3996844" lon="7.9771695"><ele>425.0</ele><time>2026-04-30T14:14:18.536Z</time></trkpt><trkpt lat="44.3998435" lon="7.9770575"><ele>424.66666666666663</ele><time>2026-04-30T14:14:19.586Z</time></trkpt><trkpt lat="44.4000024" lon="7.9769522"><ele>424.33333333333337</ele><time>2026-04-30T14:14:20.58Z</time></trkpt><trkpt lat="44.400165" lon="7.9768377"><ele>424.0</ele><time>2026-04-30T14:14:21.659Z</time></trkpt><trkpt lat="44.400405" lon="7.9766274"><ele>422.33333333333337</ele><time>2026-04-30T14:14:23.528Z</time></trkpt><trkpt lat="44.4005042" lon="7.9764854"><ele>420.66666666666663</ele><time>2026-04-30T14:14:24.501Z</time></trkpt><trkpt lat="44.4005899" lon="7.9762876"><ele>419.0</ele><time>2026-04-30T14:14:25.573Z</time></trkpt><trkpt lat="44.4006478" lon="7.9760984"><ele>419.5</ele><time>2026-04-30T14:14:26.481Z</time></trkpt><trkpt lat="44.4007133" lon="7.9758378"><ele>420.0</ele><time>2026-04-30T14:14:27.689Z</time></trkpt><trkpt lat="44.4008269" lon="7.9754077"><ele>420.0</ele><time>2026-04-30T14:14:29.568Z</time></trkpt><trkpt lat="44.4008822" lon="7.9751898"><ele>420.0</ele><time>2026-04-30T14:14:30.574Z</time></trkpt><trkpt lat="44.4009378" lon="7.9749715"><ele>420.0</ele><time>2026-04-30T14:14:31.668Z</time></trkpt><trkpt lat="44.4009803" lon="7.9748023"><ele>420.5</ele><time>2026-04-30T14:14:32.584Z</time></trkpt><trkpt lat="44.4010149" lon="7.9746446"><ele>421.0</ele><time>2026-04-30T14:14:33.497Z</time></trkpt><trkpt lat="44.4010503" lon="7.97446"><ele>421.5</ele><time>2026-04-30T14:14:34.644Z</time></trkpt><trkpt lat="44.4011063" lon="7.9742976"><ele>422.0</ele><time>2026-04-30T14:14:36.5Z</time></trkpt><trkpt lat="44.4011435" lon="7.9741904"><ele>422.75</ele><time>2026-04-30T14:14:37.546Z</time></trkpt><trkpt lat="44.4011967" lon="7.9741045"><ele>423.5</ele><time>2026-04-30T14:14:38.652Z</time></trkpt><trkpt lat="44.401312" lon="7.9739448"><ele>424.25</ele><time>2026-04-30T14:14:40.521Z</time></trkpt><trkpt lat="44.4013864" lon="7.9738462"><ele>425.0</ele><time>2026-04-30T14:14:41.499Z</time></trkpt><trkpt lat="44.4014815" lon="7.9737353"><ele>422.0</ele><time>2026-04-30T14:14:42.574Z</time></trkpt><trkpt lat="44.4015704" lon="7.973632"><ele>419.0</ele><time>2026-04-30T14:14:43.699Z</time></trkpt><trkpt lat="44.4016686" lon="7.9735412"><ele>416.0</ele><time>2026-04-30T14:14:44.725Z</time></trkpt><trkpt lat="44.401862" lon="7.9733754"><ele>416.3333333333333</ele><time>2026-04-30T14:14:46.591Z</time></trkpt><trkpt lat="44.4019827" lon="7.9732729"><ele>416.66666666666663</ele><time>2026-04-30T14:14:47.639Z</time></trkpt><trkpt lat="44.4022137" lon="7.9730624"><ele>417.0</ele><time>2026-04-30T14:14:49.475Z</time></trkpt><trkpt lat="44.4023636" lon="7.9729147"><ele>416.33333333333337</ele><time>2026-04-30T14:14:50.48Z</time></trkpt><trkpt lat="44.4025381" lon="7.9727501"><ele>415.6666666666667</ele><time>2026-04-30T14:14:51.516Z</time></trkpt><trkpt lat="44.402725" lon="7.9725845"><ele>415.0</ele><time>2026-04-30T14:14:52.521Z</time></trkpt><trkpt lat="44.4029532" lon="7.9724065"><ele>413.0</ele><time>2026-04-30T14:14:53.616Z</time></trkpt><trkpt lat="44.4033626" lon="7.97209"><ele>413.0</ele><time>2026-04-30T14:14:55.519Z</time></trkpt><trkpt lat="44.4035943" lon="7.9719193"><ele>413.0</ele><time>2026-04-30T14:14:56.566Z</time></trkpt><trkpt lat="44.4038031" lon="7.9717676"><ele>412.0</ele><time>2026-04-30T14:14:57.498Z</time></trkpt><trkpt lat="44.404039" lon="7.9715973"><ele>411.0</ele><time>2026-04-30T14:14:58.538Z</time></trkpt><trkpt lat="44.4042712" lon="7.9714372"><ele>411.0</ele><time>2026-04-30T14:14:59.539Z</time></trkpt><trkpt lat="44.4045084" lon="7.9712725"><ele>411.0</ele><time>2026-04-30T14:15:00.544Z</time></trkpt><trkpt lat="44.4047485" lon="7.971105"><ele>410.5</ele><time>2026-04-30T14:15:01.568Z</time></trkpt><trkpt lat="44.4049786" lon="7.9709303"><ele>410.0</ele><time>2026-04-30T14:15:02.545Z</time></trkpt><trkpt lat="44.4052381" lon="7.9707164"><ele>407.0</ele><time>2026-04-30T14:15:03.654Z</time></trkpt><trkpt lat="44.4056797" lon="7.97033"><ele>407.0</ele><time>2026-04-30T14:15:05.516Z</time></trkpt><trkpt lat="44.4059182" lon="7.9701237"><ele>407.0</ele><time>2026-04-30T14:15:06.509Z</time></trkpt><trkpt lat="44.4061816" lon="7.9698962"><ele>406.5</ele><time>2026-04-30T14:15:07.604Z</time></trkpt><trkpt lat="44.4064105" lon="7.9696981"><ele>406.0</ele><time>2026-04-30T14:15:08.555Z</time></trkpt><trkpt lat="44.4066632" lon="7.9694778"><ele>406.0</ele><time>2026-04-30T14:15:09.598Z</time></trkpt><trkpt lat="44.4069024" lon="7.9692673"><ele>406.0</ele><time>2026-04-30T14:15:10.597Z</time></trkpt><trkpt lat="44.4071621" lon="7.9690511"><ele>403.5</ele><time>2026-04-30T14:15:11.678Z</time></trkpt><trkpt lat="44.4073851" lon="7.9688647"><ele>401.0</ele><time>2026-04-30T14:15:12.613Z</time></trkpt><trkpt lat="44.407831" lon="7.9684887"><ele>399.5</ele><time>2026-04-30T14:15:14.516Z</time></trkpt><trkpt lat="44.4080613" lon="7.9682824"><ele>398.0</ele><time>2026-04-30T14:15:15.545Z</time></trkpt><trkpt lat="44.4082594" lon="7.9680818"><ele>398.0</ele><time>2026-04-30T14:15:16.509Z</time></trkpt><trkpt lat="44.4084385" lon="7.9678592"><ele>398.0</ele><time>2026-04-30T14:15:17.534Z</time></trkpt><trkpt lat="44.4085949" lon="7.9676227"><ele>398.3333333333333</ele><time>2026-04-30T14:15:18.555Z</time></trkpt><trkpt lat="44.4087328" lon="7.9673722"><ele>398.66666666666663</ele><time>2026-04-30T14:15:19.576Z</time></trkpt><trkpt lat="44.4088399" lon="7.9671282"><ele>399.0</ele><time>2026-04-30T14:15:20.523Z</time></trkpt><trkpt lat="44.4089361" lon="7.9668503"><ele>396.5</ele><time>2026-04-30T14:15:21.538Z</time></trkpt><trkpt lat="44.4090117" lon="7.9665598"><ele>394.0</ele><time>2026-04-30T14:15:22.514Z</time></trkpt><trkpt lat="44.4090841" lon="7.966255"><ele>394.0</ele><time>2026-04-30T14:15:23.51Z</time></trkpt><trkpt lat="44.4091494" lon="7.9659675"><ele>394.0</ele><time>2026-04-30T14:15:24.494Z</time></trkpt><trkpt lat="44.4092202" lon="7.9656643"><ele>394.0</ele><time>2026-04-30T14:15:25.512Z</time></trkpt><trkpt lat="44.4093109" lon="7.9653624"><ele>393.6666666666667</ele><time>2026-04-30T14:15:26.546Z</time></trkpt><trkpt lat="44.4094232" lon="7.9650856"><ele>393.33333333333337</ele><time>2026-04-30T14:15:27.533Z</time></trkpt><trkpt lat="44.4095609" lon="7.9648574"><ele>393.0</ele><time>2026-04-30T14:15:28.472Z</time></trkpt><trkpt lat="44.4097379" lon="7.9646627"><ele>393.0</ele><time>2026-04-30T14:15:29.463Z</time></trkpt><trkpt lat="44.4099405" lon="7.9644794"><ele>393.0</ele><time>2026-04-30T14:15:30.484Z</time></trkpt><trkpt lat="44.4101395" lon="7.9643126"><ele>388.5</ele><time>2026-04-30T14:15:31.46Z</time></trkpt><trkpt lat="44.4103463" lon="7.9641379"><ele>384.0</ele><time>2026-04-30T14:15:32.521Z</time></trkpt><trkpt lat="44.4105369" lon="7.9639939"><ele>384.0</ele><time>2026-04-30T14:15:33.501Z</time></trkpt><trkpt lat="44.4107598" lon="7.9638763"><ele>384.0</ele><time>2026-04-30T14:15:34.568Z</time></trkpt><trkpt lat="44.4109571" lon="7.9638118"><ele>384.0</ele><time>2026-04-30T14:15:35.485Z</time></trkpt><trkpt lat="44.4111694" lon="7.9637887"><ele>381.0</ele><time>2026-04-30T14:15:36.507Z</time></trkpt><trkpt lat="44.4113884" lon="7.9638039"><ele>378.0</ele><time>2026-04-30T14:15:37.476Z</time></trkpt><trkpt lat="44.4116276" lon="7.9638399"><ele>378.0</ele><time>2026-04-30T14:15:38.487Z</time></trkpt><trkpt lat="44.4118894" lon="7.9638889"><ele>378.0</ele><time>2026-04-30T14:15:39.547Z</time></trkpt><trkpt lat="44.412119" lon="7.9639095"><ele>374.0</ele><time>2026-04-30T14:15:40.486Z</time></trkpt><trkpt lat="44.4123716" lon="7.9639372"><ele>370.0</ele><time>2026-04-30T14:15:41.481Z</time></trkpt><trkpt lat="44.4126072" lon="7.9639577"><ele>370.0</ele><time>2026-04-30T14:15:42.468Z</time></trkpt><trkpt lat="44.4128369" lon="7.9639783"><ele>370.0</ele><time>2026-04-30T14:15:43.51Z</time></trkpt><trkpt lat="44.4130653" lon="7.9639701"><ele>367.66666666666663</ele><time>2026-04-30T14:15:44.513Z</time></trkpt><trkpt lat="44.413278" lon="7.9639445"><ele>365.3333333333333</ele><time>2026-04-30T14:15:45.471Z</time></trkpt><trkpt lat="44.4135027" lon="7.9638917"><ele>363.0</ele><time>2026-04-30T14:15:46.484Z</time></trkpt><trkpt lat="44.4137196" lon="7.9638047"><ele>361.5</ele><time>2026-04-30T14:15:47.438Z</time></trkpt><trkpt lat="44.4139459" lon="7.9636651"><ele>360.0</ele><time>2026-04-30T14:15:48.439Z</time></trkpt><trkpt lat="44.4141914" lon="7.9634778"><ele>359.5</ele><time>2026-04-30T14:15:49.478Z</time></trkpt><trkpt lat="44.4144236" lon="7.9632614"><ele>359.0</ele><time>2026-04-30T14:15:50.449Z</time></trkpt><trkpt lat="44.4146729" lon="7.962996"><ele>357.0</ele><time>2026-04-30T14:15:51.51Z</time></trkpt><trkpt lat="44.4149353" lon="7.9627327"><ele>355.0</ele><time>2026-04-30T14:15:52.608Z</time></trkpt><trkpt lat="44.4153826" lon="7.9622703"><ele>350.5</ele><time>2026-04-30T14:15:54.501Z</time></trkpt><trkpt lat="44.4156157" lon="7.9620317"><ele>346.0</ele><time>2026-04-30T14:15:55.482Z</time></trkpt><trkpt lat="44.4158623" lon="7.9617824"><ele>345.5</ele><time>2026-04-30T14:15:56.535Z</time></trkpt><trkpt lat="44.4160975" lon="7.9615369"><ele>345.0</ele><time>2026-04-30T14:15:57.559Z</time></trkpt><trkpt lat="44.4163027" lon="7.9613254"><ele>345.0</ele><time>2026-04-30T14:15:58.46Z</time></trkpt><trkpt lat="44.4165431" lon="7.9610817"><ele>345.0</ele><time>2026-04-30T14:15:59.506Z</time></trkpt><trkpt lat="44.4167681" lon="7.9608585"><ele>345.0</ele><time>2026-04-30T14:16:00.502Z</time></trkpt><trkpt lat="44.4169986" lon="7.9606234"><ele>345.0</ele><time>2026-04-30T14:16:01.555Z</time></trkpt><trkpt lat="44.4172021" lon="7.9604182"><ele>344.0</ele><time>2026-04-30T14:16:02.5Z</time></trkpt><trkpt lat="44.4174347" lon="7.9602124"><ele>343.0</ele><time>2026-04-30T14:16:03.559Z</time></trkpt><trkpt lat="44.4176501" lon="7.9600785"><ele>345.0</ele><time>2026-04-30T14:16:04.493Z</time></trkpt><trkpt lat="44.4179095" lon="7.9599672"><ele>347.0</ele><time>2026-04-30T14:16:05.544Z</time></trkpt><trkpt lat="44.4181723" lon="7.9599025"><ele>347.0</ele><time>2026-04-30T14:16:06.571Z</time></trkpt><trkpt lat="44.4184199" lon="7.9598689"><ele>347.0</ele><time>2026-04-30T14:16:07.499Z</time></trkpt><trkpt lat="44.4187017" lon="7.9598762"><ele>348.5</ele><time>2026-04-30T14:16:08.562Z</time></trkpt><trkpt lat="44.4189467" lon="7.9599129"><ele>350.0</ele><time>2026-04-30T14:16:09.507Z</time></trkpt><trkpt lat="44.4192113" lon="7.9599753"><ele>345.5</ele><time>2026-04-30T14:16:10.499Z</time></trkpt><trkpt lat="44.4194581" lon="7.9600388"><ele>341.0</ele><time>2026-04-30T14:16:11.442Z</time></trkpt><trkpt lat="44.4197375" lon="7.9601002"><ele>341.0</ele><time>2026-04-30T14:16:12.484Z</time></trkpt><trkpt lat="44.4200132" lon="7.9601585"><ele>341.0</ele><time>2026-04-30T14:16:13.507Z</time></trkpt><trkpt lat="44.4203038" lon="7.9602178"><ele>342.5</ele><time>2026-04-30T14:16:14.569Z</time></trkpt><trkpt lat="44.4205748" lon="7.9602771"><ele>344.0</ele><time>2026-04-30T14:16:15.558Z</time></trkpt><trkpt lat="44.420875" lon="7.960342"><ele>344.0</ele><time>2026-04-30T14:16:16.632Z</time></trkpt><trkpt lat="44.4211113" lon="7.9603938"><ele>344.0</ele><time>2026-04-30T14:16:17.509Z</time></trkpt><trkpt lat="44.4213784" lon="7.9604487"><ele>346.5</ele><time>2026-04-30T14:16:18.485Z</time></trkpt><trkpt lat="44.4216439" lon="7.9605052"><ele>349.0</ele><time>2026-04-30T14:16:19.437Z</time></trkpt><trkpt lat="44.4219329" lon="7.9605707"><ele>352.0</ele><time>2026-04-30T14:16:20.491Z</time></trkpt><trkpt lat="44.4222061" lon="7.9606292"><ele>355.0</ele><time>2026-04-30T14:16:21.496Z</time></trkpt><trkpt lat="44.4224875" lon="7.9606868"><ele>355.0</ele><time>2026-04-30T14:16:22.53Z</time></trkpt><trkpt lat="44.4227598" lon="7.9607445"><ele>355.0</ele><time>2026-04-30T14:16:23.588Z</time></trkpt><trkpt lat="44.4229875" lon="7.9607949"><ele>356.0</ele><time>2026-04-30T14:16:24.535Z</time></trkpt><trkpt lat="44.4232773" lon="7.9608447"><ele>357.0</ele><time>2026-04-30T14:16:25.726Z</time></trkpt><trkpt lat="44.4237337" lon="7.9608231"><ele>359.0</ele><time>2026-04-30T14:16:27.577Z</time></trkpt><trkpt lat="44.4239944" lon="7.9607584"><ele>361.0</ele><time>2026-04-30T14:16:28.61Z</time></trkpt><trkpt lat="44.4242348" lon="7.96067"><ele>361.0</ele><time>2026-04-30T14:16:29.582Z</time></trkpt><trkpt lat="44.4244943" lon="7.9605429"><ele>361.0</ele><time>2026-04-30T14:16:30.66Z</time></trkpt><trkpt lat="44.4247133" lon="7.9603931"><ele>360.0</ele><time>2026-04-30T14:16:31.618Z</time></trkpt><trkpt lat="44.424931" lon="7.9602048"><ele>359.0</ele><time>2026-04-30T14:16:32.633Z</time></trkpt><trkpt lat="44.4251359" lon="7.9599931"><ele>359.0</ele><time>2026-04-30T14:16:33.636Z</time></trkpt><trkpt lat="44.4253269" lon="7.9597525"><ele>359.0</ele><time>2026-04-30T14:16:34.639Z</time></trkpt><trkpt lat="44.4255" lon="7.9594898"><ele>355.5</ele><time>2026-04-30T14:16:35.712Z</time></trkpt><trkpt lat="44.4257414" lon="7.9590055"><ele>352.0</ele><time>2026-04-30T14:16:37.465Z</time></trkpt><trkpt lat="44.4258613" lon="7.9586718"><ele>349.5</ele><time>2026-04-30T14:16:38.55Z</time></trkpt><trkpt lat="44.4259687" lon="7.9583145"><ele>347.0</ele><time>2026-04-30T14:16:39.648Z</time></trkpt><trkpt lat="44.4261297" lon="7.9577056"><ele>344.5</ele><time>2026-04-30T14:16:41.447Z</time></trkpt><trkpt lat="44.4262303" lon="7.9573438"><ele>342.0</ele><time>2026-04-30T14:16:42.544Z</time></trkpt><trkpt lat="44.4263152" lon="7.9570056"><ele>329.0</ele><time>2026-04-30T14:16:43.564Z</time></trkpt><trkpt lat="44.4264382" lon="7.9563721"><ele>329.0</ele><time>2026-04-30T14:16:45.472Z</time></trkpt><trkpt lat="44.4264783" lon="7.955977"><ele>329.0</ele><time>2026-04-30T14:16:46.582Z</time></trkpt><trkpt lat="44.4264932" lon="7.9552801"><ele>332.0</ele><time>2026-04-30T14:16:48.528Z</time></trkpt><trkpt lat="44.4264756" lon="7.9549094"><ele>335.0</ele><time>2026-04-30T14:16:49.616Z</time></trkpt><trkpt lat="44.4264001" lon="7.9542767"><ele>333.5</ele><time>2026-04-30T14:16:51.497Z</time></trkpt><trkpt lat="44.4263419" lon="7.953942"><ele>332.0</ele><time>2026-04-30T14:16:52.511Z</time></trkpt><trkpt lat="44.4262695" lon="7.9535988"><ele>334.0</ele><time>2026-04-30T14:16:53.529Z</time></trkpt><trkpt lat="44.4261892" lon="7.9532592"><ele>336.0</ele><time>2026-04-30T14:16:54.54Z</time></trkpt><trkpt lat="44.4261092" lon="7.9529237"><ele>336.0</ele><time>2026-04-30T14:16:55.536Z</time></trkpt><trkpt lat="44.4260308" lon="7.9525924"><ele>336.0</ele><time>2026-04-30T14:16:56.527Z</time></trkpt><trkpt lat="44.4259625" lon="7.9522771"><ele>337.5</ele><time>2026-04-30T14:16:57.45Z</time></trkpt><trkpt lat="44.4258814" lon="7.9519078"><ele>339.0</ele><time>2026-04-30T14:16:58.514Z</time></trkpt><trkpt lat="44.4258005" lon="7.9515553"><ele>341.0</ele><time>2026-04-30T14:16:59.514Z</time></trkpt><trkpt lat="44.4257221" lon="7.9512329"><ele>343.0</ele><time>2026-04-30T14:17:00.444Z</time></trkpt><trkpt lat="44.4256431" lon="7.9508574"><ele>344.5</ele><time>2026-04-30T14:17:01.517Z</time></trkpt><trkpt lat="44.4255712" lon="7.9505118"><ele>346.0</ele><time>2026-04-30T14:17:02.502Z</time></trkpt><trkpt lat="44.4255013" lon="7.9501355"><ele>344.0</ele><time>2026-04-30T14:17:03.543Z</time></trkpt><trkpt lat="44.42546" lon="7.9497891"><ele>342.0</ele><time>2026-04-30T14:17:04.471Z</time></trkpt><trkpt lat="44.4254186" lon="7.9493206"><ele>342.0</ele><time>2026-04-30T14:17:05.689Z</time></trkpt><trkpt lat="44.4254307" lon="7.9486233"><ele>342.0</ele><time>2026-04-30T14:17:07.528Z</time></trkpt><trkpt lat="44.4254662" lon="7.9482151"><ele>342.0</ele><time>2026-04-30T14:17:08.612Z</time></trkpt><trkpt lat="44.4255784" lon="7.9475185"><ele>341.5</ele><time>2026-04-30T14:17:10.498Z</time></trkpt><trkpt lat="44.4256685" lon="7.9471392"><ele>341.0</ele><time>2026-04-30T14:17:11.556Z</time></trkpt><trkpt lat="44.4257751" lon="7.9467868"><ele>339.0</ele><time>2026-04-30T14:17:12.572Z</time></trkpt><trkpt lat="44.4258923" lon="7.946468"><ele>337.0</ele><time>2026-04-30T14:17:13.49Z</time></trkpt><trkpt lat="44.4260366" lon="7.9461114"><ele>334.0</ele><time>2026-04-30T14:17:14.562Z</time></trkpt><trkpt lat="44.4263001" lon="7.9454901"><ele>332.0</ele><time>2026-04-30T14:17:16.473Z</time></trkpt><trkpt lat="44.4264447" lon="7.9451502"><ele>330.0</ele><time>2026-04-30T14:17:17.505Z</time></trkpt><trkpt lat="44.4265876" lon="7.9448085"><ele>330.0</ele><time>2026-04-30T14:17:18.557Z</time></trkpt><trkpt lat="44.4267319" lon="7.9444633"><ele>330.0</ele><time>2026-04-30T14:17:19.647Z</time></trkpt><trkpt lat="44.426963" lon="7.943881"><ele>331.0</ele><time>2026-04-30T14:17:21.453Z</time></trkpt><trkpt lat="44.4270749" lon="7.943528"><ele>332.0</ele><time>2026-04-30T14:17:22.491Z</time></trkpt><trkpt lat="44.42716" lon="7.9431793"><ele>332.0</ele><time>2026-04-30T14:17:23.465Z</time></trkpt><trkpt lat="44.4272309" lon="7.942789"><ele>332.0</ele><time>2026-04-30T14:17:24.499Z</time></trkpt><trkpt lat="44.427281" lon="7.9423926"><ele>335.5</ele><time>2026-04-30T14:17:25.538Z</time></trkpt><trkpt lat="44.4273102" lon="7.9420086"><ele>339.0</ele><time>2026-04-30T14:17:26.516Z</time></trkpt><trkpt lat="44.4273204" lon="7.9416379"><ele>340.0</ele><time>2026-04-30T14:17:27.461Z</time></trkpt><trkpt lat="44.4273022" lon="7.9411776"><ele>341.0</ele><time>2026-04-30T14:17:28.621Z</time></trkpt><trkpt lat="44.4272084" lon="7.9404223"><ele>341.5</ele><time>2026-04-30T14:17:30.564Z</time></trkpt><trkpt lat="44.4271391" lon="7.9400578"><ele>342.0</ele><time>2026-04-30T14:17:31.516Z</time></trkpt><trkpt lat="44.4270493" lon="7.9396875"><ele>344.0</ele><time>2026-04-30T14:17:32.489Z</time></trkpt><trkpt lat="44.4269334" lon="7.9392832"><ele>346.0</ele><time>2026-04-30T14:17:33.55Z</time></trkpt><trkpt lat="44.4268108" lon="7.9389109"><ele>346.5</ele><time>2026-04-30T14:17:34.537Z</time></trkpt><trkpt lat="44.4266634" lon="7.9385252"><ele>347.0</ele><time>2026-04-30T14:17:35.581Z</time></trkpt><trkpt lat="44.4265078" lon="7.9381713"><ele>345.0</ele><time>2026-04-30T14:17:36.579Z</time></trkpt><trkpt lat="44.4263334" lon="7.9378167"><ele>343.0</ele><time>2026-04-30T14:17:37.623Z</time></trkpt><trkpt lat="44.4261367" lon="7.9374873"><ele>343.0</ele><time>2026-04-30T14:17:38.638Z</time></trkpt><trkpt lat="44.4259498" lon="7.9372114"><ele>343.0</ele><time>2026-04-30T14:17:39.553Z</time></trkpt><trkpt lat="44.4257125" lon="7.9369016"><ele>343.5</ele><time>2026-04-30T14:17:40.633Z</time></trkpt><trkpt lat="44.4254668" lon="7.936615"><ele>344.0</ele><time>2026-04-30T14:17:41.691Z</time></trkpt><trkpt lat="44.4252514" lon="7.9363982"><ele>344.0</ele><time>2026-04-30T14:17:42.599Z</time></trkpt><trkpt lat="44.424758" lon="7.9359983"><ele>342.5</ele><time>2026-04-30T14:17:44.578Z</time></trkpt><trkpt lat="44.4245271" lon="7.9358536"><ele>341.0</ele><time>2026-04-30T14:17:45.494Z</time></trkpt><trkpt lat="44.424275" lon="7.93571"><ele>341.0</ele><time>2026-04-30T14:17:46.516Z</time></trkpt><trkpt lat="44.42404" lon="7.9356038"><ele>341.0</ele><time>2026-04-30T14:17:47.487Z</time></trkpt><trkpt lat="44.4237918" lon="7.9355175"><ele>340.5</ele><time>2026-04-30T14:17:48.499Z</time></trkpt><trkpt lat="44.4235292" lon="7.9354414"><ele>340.0</ele><time>2026-04-30T14:17:49.543Z</time></trkpt><trkpt lat="44.4232526" lon="7.9353752"><ele>347.0</ele><time>2026-04-30T14:17:50.622Z</time></trkpt><trkpt lat="44.42275" lon="7.935228"><ele>347.0</ele><time>2026-04-30T14:17:52.595Z</time></trkpt><trkpt lat="44.4225162" lon="7.9351407"><ele>347.0</ele><time>2026-04-30T14:17:53.513Z</time></trkpt><trkpt lat="44.4222671" lon="7.9350213"><ele>343.0</ele><time>2026-04-30T14:17:54.503Z</time></trkpt><trkpt lat="44.4220061" lon="7.9348679"><ele>339.0</ele><time>2026-04-30T14:17:55.516Z</time></trkpt><trkpt lat="44.4217531" lon="7.9346948"><ele>339.0</ele><time>2026-04-30T14:17:56.504Z</time></trkpt><trkpt lat="44.4214967" lon="7.9345"><ele>339.0</ele><time>2026-04-30T14:17:57.502Z</time></trkpt><trkpt lat="44.4212232" lon="7.9342937"><ele>337.5</ele><time>2026-04-30T14:17:58.565Z</time></trkpt><trkpt lat="44.4209777" lon="7.934106"><ele>336.0</ele><time>2026-04-30T14:17:59.528Z</time></trkpt><trkpt lat="44.4207408" lon="7.9339187"><ele>346.5</ele><time>2026-04-30T14:18:00.484Z</time></trkpt><trkpt lat="44.4204816" lon="7.93372"><ele>357.0</ele><time>2026-04-30T14:18:01.52Z</time></trkpt><trkpt lat="44.4202385" lon="7.933551"><ele>344.5</ele><time>2026-04-30T14:18:02.485Z</time></trkpt><trkpt lat="44.4199619" lon="7.933388"><ele>332.0</ele><time>2026-04-30T14:18:03.575Z</time></trkpt><trkpt lat="44.4197094" lon="7.933275"><ele>336.5</ele><time>2026-04-30T14:18:04.483Z</time></trkpt><trkpt lat="44.4194335" lon="7.9331785"><ele>341.0</ele><time>2026-04-30T14:18:05.437Z</time></trkpt><trkpt lat="44.4191224" lon="7.9330935"><ele>341.0</ele><time>2026-04-30T14:18:06.507Z</time></trkpt><trkpt lat="44.4188369" lon="7.933028"><ele>341.0</ele><time>2026-04-30T14:18:07.548Z</time></trkpt><trkpt lat="44.4185824" lon="7.9329696"><ele>342.5</ele><time>2026-04-30T14:18:08.466Z</time></trkpt><trkpt lat="44.4183004" lon="7.932871"><ele>344.0</ele><time>2026-04-30T14:18:09.5Z</time></trkpt><trkpt lat="44.4180359" lon="7.9327374"><ele>344.5</ele><time>2026-04-30T14:18:10.503Z</time></trkpt><trkpt lat="44.4177766" lon="7.93258"><ele>345.0</ele><time>2026-04-30T14:18:11.532Z</time></trkpt><trkpt lat="44.4175596" lon="7.9324173"><ele>345.0</ele><time>2026-04-30T14:18:12.454Z</time></trkpt><trkpt lat="44.4173179" lon="7.9322002"><ele>345.0</ele><time>2026-04-30T14:18:13.516Z</time></trkpt><trkpt lat="44.4171134" lon="7.9319778"><ele>342.0</ele><time>2026-04-30T14:18:14.459Z</time></trkpt><trkpt lat="44.416898" lon="7.9317075"><ele>339.0</ele><time>2026-04-30T14:18:15.496Z</time></trkpt><trkpt lat="44.4166994" lon="7.9314438"><ele>339.0</ele><time>2026-04-30T14:18:16.47Z</time></trkpt><trkpt lat="44.4165106" lon="7.9311814"><ele>339.0</ele><time>2026-04-30T14:18:17.442Z</time></trkpt><trkpt lat="44.4163116" lon="7.9308752"><ele>346.5</ele><time>2026-04-30T14:18:18.529Z</time></trkpt><trkpt lat="44.416156" lon="7.930575"><ele>354.0</ele><time>2026-04-30T14:18:19.514Z</time></trkpt><trkpt lat="44.416033" lon="7.9302621"><ele>344.5</ele><time>2026-04-30T14:18:20.469Z</time></trkpt><trkpt lat="44.4159237" lon="7.9299111"><ele>335.0</ele><time>2026-04-30T14:18:21.511Z</time></trkpt><trkpt lat="44.4158458" lon="7.9295533"><ele>332.0</ele><time>2026-04-30T14:18:22.51Z</time></trkpt><trkpt lat="44.4157744" lon="7.9291831"><ele>329.0</ele><time>2026-04-30T14:18:23.499Z</time></trkpt><trkpt lat="44.415709" lon="7.9288082"><ele>329.0</ele><time>2026-04-30T14:18:24.517Z</time></trkpt><trkpt lat="44.4156544" lon="7.9284548"><ele>329.0</ele><time>2026-04-30T14:18:25.484Z</time></trkpt><trkpt lat="44.4156083" lon="7.928068"><ele>330.0</ele><time>2026-04-30T14:18:26.524Z</time></trkpt><trkpt lat="44.4155663" lon="7.9277137"><ele>331.0</ele><time>2026-04-30T14:18:27.488Z</time></trkpt><trkpt lat="44.4155224" lon="7.9273429"><ele>342.5</ele><time>2026-04-30T14:18:28.483Z</time></trkpt><trkpt lat="44.415479" lon="7.9269594"><ele>354.0</ele><time>2026-04-30T14:18:29.496Z</time></trkpt><trkpt lat="44.4154318" lon="7.9265449"><ele>354.0</ele><time>2026-04-30T14:18:30.603Z</time></trkpt><trkpt lat="44.4153987" lon="7.9261714"><ele>354.0</ele><time>2026-04-30T14:18:31.591Z</time></trkpt><trkpt lat="44.4153763" lon="7.9257711"><ele>348.5</ele><time>2026-04-30T14:18:32.639Z</time></trkpt><trkpt lat="44.4153717" lon="7.9253885"><ele>343.0</ele><time>2026-04-30T14:18:33.655Z</time></trkpt><trkpt lat="44.4153904" lon="7.9250157"><ele>342.5</ele><time>2026-04-30T14:18:34.63Z</time></trkpt><trkpt lat="44.4154232" lon="7.9246516"><ele>342.0</ele><time>2026-04-30T14:18:35.607Z</time></trkpt><trkpt lat="44.4154711" lon="7.9242583"><ele>331.5</ele><time>2026-04-30T14:18:36.635Z</time></trkpt><trkpt lat="44.4155332" lon="7.9238828"><ele>321.0</ele><time>2026-04-30T14:18:37.633Z</time></trkpt><trkpt lat="44.4156133" lon="7.9234944"><ele>324.0</ele><time>2026-04-30T14:18:38.694Z</time></trkpt><trkpt lat="44.4158171" lon="7.9227874"><ele>328.0</ele><time>2026-04-30T14:18:40.561Z</time></trkpt><trkpt lat="44.4159493" lon="7.922451"><ele>332.0</ele><time>2026-04-30T14:18:41.532Z</time></trkpt><trkpt lat="44.416114" lon="7.9221204"><ele>332.0</ele><time>2026-04-30T14:18:42.513Z</time></trkpt><trkpt lat="44.4162908" lon="7.9218154"><ele>332.0</ele><time>2026-04-30T14:18:43.481Z</time></trkpt><trkpt lat="44.4165018" lon="7.9215075"><ele>327.5</ele><time>2026-04-30T14:18:44.516Z</time></trkpt><trkpt lat="44.4167595" lon="7.9211977"><ele>323.0</ele><time>2026-04-30T14:18:45.628Z</time></trkpt><trkpt lat="44.4172525" lon="7.9207649"><ele>323.0</ele><time>2026-04-30T14:18:47.511Z</time></trkpt><trkpt lat="44.417534" lon="7.9205691"><ele>323.0</ele><time>2026-04-30T14:18:48.512Z</time></trkpt><trkpt lat="44.4178347" lon="7.9203804"><ele>325.0</ele><time>2026-04-30T14:18:49.562Z</time></trkpt><trkpt lat="44.4181592" lon="7.9201763"><ele>327.0</ele><time>2026-04-30T14:18:50.722Z</time></trkpt><trkpt lat="44.4186345" lon="7.9198556"><ele>321.0</ele><time>2026-04-30T14:18:52.47Z</time></trkpt><trkpt lat="44.4189115" lon="7.919651"><ele>315.0</ele><time>2026-04-30T14:18:53.514Z</time></trkpt><trkpt lat="44.4191715" lon="7.9194357"><ele>319.0</ele><time>2026-04-30T14:18:54.527Z</time></trkpt><trkpt lat="44.4194223" lon="7.9192175"><ele>323.0</ele><time>2026-04-30T14:18:55.521Z</time></trkpt><trkpt lat="44.4196724" lon="7.9189981"><ele>323.0</ele><time>2026-04-30T14:18:56.531Z</time></trkpt><trkpt lat="44.419915" lon="7.9188098"><ele>323.0</ele><time>2026-04-30T14:18:57.49Z</time></trkpt><trkpt lat="44.4201759" lon="7.9186448"><ele>323.0</ele><time>2026-04-30T14:18:58.467Z</time></trkpt><trkpt lat="44.4204684" lon="7.9185063"><ele>323.0</ele><time>2026-04-30T14:18:59.512Z</time></trkpt><trkpt lat="44.420757" lon="7.9184064"><ele>325.5</ele><time>2026-04-30T14:19:00.49Z</time></trkpt><trkpt lat="44.4210387" lon="7.9183342"><ele>328.0</ele><time>2026-04-30T14:19:01.425Z</time></trkpt><trkpt lat="44.4213495" lon="7.9182597"><ele>329.5</ele><time>2026-04-30T14:19:02.466Z</time></trkpt><trkpt lat="44.4216702" lon="7.9181848"><ele>331.0</ele><time>2026-04-30T14:19:03.535Z</time></trkpt><trkpt lat="44.421952" lon="7.9181021"><ele>337.0</ele><time>2026-04-30T14:19:04.489Z</time></trkpt><trkpt lat="44.4222274" lon="7.9180019"><ele>343.0</ele><time>2026-04-30T14:19:05.425Z</time></trkpt><trkpt lat="44.4225233" lon="7.9178789"><ele>343.0</ele><time>2026-04-30T14:19:06.439Z</time></trkpt><trkpt lat="44.4228357" lon="7.9177345"><ele>343.0</ele><time>2026-04-30T14:19:07.523Z</time></trkpt><trkpt lat="44.4231025" lon="7.9176097"><ele>332.5</ele><time>2026-04-30T14:19:08.463Z</time></trkpt><trkpt lat="44.4234126" lon="7.9174689"><ele>322.0</ele><time>2026-04-30T14:19:09.551Z</time></trkpt><trkpt lat="44.4237023" lon="7.9173461"><ele>320.0</ele><time>2026-04-30T14:19:10.602Z</time></trkpt><trkpt lat="44.4241618" lon="7.9171672"><ele>320.0</ele><time>2026-04-30T14:19:12.469Z</time></trkpt><trkpt lat="44.4244107" lon="7.9170831"><ele>320.0</ele><time>2026-04-30T14:19:13.485Z</time></trkpt><trkpt lat="44.4246668" lon="7.9170146"><ele>316.0</ele><time>2026-04-30T14:19:14.507Z</time></trkpt><trkpt lat="44.4249104" lon="7.9169546"><ele>312.0</ele><time>2026-04-30T14:19:15.453Z</time></trkpt><trkpt lat="44.4251981" lon="7.9168825"><ele>312.0</ele><time>2026-04-30T14:19:16.537Z</time></trkpt><trkpt lat="44.4254627" lon="7.9168218"><ele>312.0</ele><time>2026-04-30T14:19:17.501Z</time></trkpt><trkpt lat="44.4257283" lon="7.9167627"><ele>309.5</ele><time>2026-04-30T14:19:18.467Z</time></trkpt><trkpt lat="44.4260268" lon="7.9166968"><ele>307.0</ele><time>2026-04-30T14:19:19.559Z</time></trkpt><trkpt lat="44.4263274" lon="7.9166296"><ele>307.0</ele><time>2026-04-30T14:19:20.693Z</time></trkpt><trkpt lat="44.4267783" lon="7.9165227"><ele>307.0</ele><time>2026-04-30T14:19:22.51Z</time></trkpt><trkpt lat="44.4269965" lon="7.9164546"><ele>307.0</ele><time>2026-04-30T14:19:23.52Z</time></trkpt><trkpt lat="44.4271984" lon="7.916344"><ele>307.0</ele><time>2026-04-30T14:19:24.529Z</time></trkpt><trkpt lat="44.4273803" lon="7.91618"><ele>312.5</ele><time>2026-04-30T14:19:25.504Z</time></trkpt><trkpt lat="44.4275687" lon="7.9159533"><ele>318.0</ele><time>2026-04-30T14:19:26.552Z</time></trkpt><trkpt lat="44.4277331" lon="7.9157028"><ele>318.5</ele><time>2026-04-30T14:19:27.545Z</time></trkpt><trkpt lat="44.4278751" lon="7.9154414"><ele>319.0</ele><time>2026-04-30T14:19:28.514Z</time></trkpt><trkpt lat="44.4279866" lon="7.9151523"><ele>326.66666666666663</ele><time>2026-04-30T14:19:29.53Z</time></trkpt><trkpt lat="44.4280528" lon="7.9148674"><ele>334.3333333333333</ele><time>2026-04-30T14:19:30.458Z</time></trkpt><trkpt lat="44.428095" lon="7.9145828"><ele>342.0</ele><time>2026-04-30T14:19:31.433Z</time></trkpt><trkpt lat="44.4281112" lon="7.9142848"><ele>342.3333333333333</ele><time>2026-04-30T14:19:32.527Z</time></trkpt><trkpt lat="44.4281037" lon="7.9140102"><ele>342.66666666666663</ele><time>2026-04-30T14:19:33.501Z</time></trkpt><trkpt lat="44.4280939" lon="7.9137653"><ele>343.0</ele><time>2026-04-30T14:19:34.467Z</time></trkpt><trkpt lat="44.4280871" lon="7.9135348"><ele>344.0</ele><time>2026-04-30T14:19:35.462Z</time></trkpt><trkpt lat="44.42809" lon="7.9133237"><ele>345.0</ele><time>2026-04-30T14:19:36.452Z</time></trkpt><trkpt lat="44.4281041" lon="7.9131281"><ele>346.0</ele><time>2026-04-30T14:19:37.475Z</time></trkpt><trkpt lat="44.4281266" lon="7.9129334"><ele>347.0</ele><time>2026-04-30T14:19:38.457Z</time></trkpt><trkpt lat="44.4281559" lon="7.9127296"><ele>347.6666666666667</ele><time>2026-04-30T14:19:39.41Z</time></trkpt><trkpt lat="44.428193" lon="7.9124884"><ele>348.3333333333333</ele><time>2026-04-30T14:19:40.451Z</time></trkpt><trkpt lat="44.4282262" lon="7.9122678"><ele>349.0</ele><time>2026-04-30T14:19:41.48Z</time></trkpt><trkpt lat="44.4282587" lon="7.9120724"><ele>349.0</ele><time>2026-04-30T14:19:42.458Z</time></trkpt><trkpt lat="44.4282818" lon="7.9118713"><ele>349.0</ele><time>2026-04-30T14:19:43.461Z</time></trkpt><trkpt lat="44.4282918" lon="7.9116509"><ele>349.0</ele><time>2026-04-30T14:19:44.431Z</time></trkpt><trkpt lat="44.4282991" lon="7.9113898"><ele>348.75</ele><time>2026-04-30T14:19:45.635Z</time></trkpt><trkpt lat="44.4282975" lon="7.9111948"><ele>348.5</ele><time>2026-04-30T14:19:46.615Z</time></trkpt><trkpt lat="44.4282891" lon="7.9110158"><ele>348.25</ele><time>2026-04-30T14:19:47.428Z</time></trkpt><trkpt lat="44.4282737" lon="7.9107909"><ele>348.0</ele><time>2026-04-30T14:19:48.484Z</time></trkpt><trkpt lat="44.428251" lon="7.9105942"><ele>348.0</ele><time>2026-04-30T14:19:49.466Z</time></trkpt><trkpt lat="44.4282042" lon="7.9103629"><ele>348.0</ele><time>2026-04-30T14:19:50.542Z</time></trkpt><trkpt lat="44.4281429" lon="7.9101377"><ele>348.0</ele><time>2026-04-30T14:19:51.481Z</time></trkpt><trkpt lat="44.4280612" lon="7.9098849"><ele>351.0</ele><time>2026-04-30T14:19:52.486Z</time></trkpt><trkpt lat="44.4279774" lon="7.9096359"><ele>354.0</ele><time>2026-04-30T14:19:53.492Z</time></trkpt><trkpt lat="44.4279062" lon="7.9094037"><ele>357.0</ele><time>2026-04-30T14:19:54.529Z</time></trkpt><trkpt lat="44.4278626" lon="7.9092168"><ele>353.20000000000005</ele><time>2026-04-30T14:19:55.514Z</time></trkpt><trkpt lat="44.4278374" lon="7.9090765"><ele>349.4</ele><time>2026-04-30T14:19:56.484Z</time></trkpt><trkpt lat="44.427812" lon="7.9089532"><ele>345.6</ele><time>2026-04-30T14:19:57.45Z</time></trkpt><trkpt lat="44.4277862" lon="7.9088266"><ele>341.79999999999995</ele><time>2026-04-30T14:19:58.494Z</time></trkpt><trkpt lat="44.4277619" lon="7.9086913"><ele>338.0</ele><time>2026-04-30T14:19:59.652Z</time></trkpt><trkpt lat="44.4277273" lon="7.9084699"><ele>339.0</ele><time>2026-04-30T14:20:01.538Z</time></trkpt><trkpt lat="44.4277099" lon="7.9083462"><ele>340.0</ele><time>2026-04-30T14:20:02.603Z</time></trkpt><trkpt lat="44.427697" lon="7.9081089"><ele>341.0</ele><time>2026-04-30T14:20:04.521Z</time></trkpt><trkpt lat="44.4277173" lon="7.9079858"><ele>342.0</ele><time>2026-04-30T14:20:05.515Z</time></trkpt><trkpt lat="44.4277502" lon="7.907871"><ele>343.0</ele><time>2026-04-30T14:20:06.466Z</time></trkpt><trkpt lat="44.4277959" lon="7.9077493"><ele>343.0</ele><time>2026-04-30T14:20:07.534Z</time></trkpt><trkpt lat="44.4278432" lon="7.9076422"><ele>343.0</ele><time>2026-04-30T14:20:08.583Z</time></trkpt><trkpt lat="44.4278967" lon="7.9075536"><ele>343.0</ele><time>2026-04-30T14:20:09.581Z</time></trkpt><trkpt lat="44.4279503" lon="7.9074606"><ele>343.0</ele><time>2026-04-30T14:20:10.52Z</time></trkpt><trkpt lat="44.4280169" lon="7.9073775"><ele>343.0</ele><time>2026-04-30T14:20:11.523Z</time></trkpt><trkpt lat="44.4280949" lon="7.9073086"><ele>343.0</ele><time>2026-04-30T14:20:12.533Z</time></trkpt><trkpt lat="44.4281806" lon="7.9072617"><ele>346.2</ele><time>2026-04-30T14:20:13.543Z</time></trkpt><trkpt lat="44.4282674" lon="7.9072336"><ele>349.4</ele><time>2026-04-30T14:20:14.531Z</time></trkpt><trkpt lat="44.4283604" lon="7.9072247"><ele>352.59999999999997</ele><time>2026-04-30T14:20:15.5Z</time></trkpt><trkpt lat="44.4284579" lon="7.907235"><ele>355.79999999999995</ele><time>2026-04-30T14:20:16.495Z</time></trkpt><trkpt lat="44.4285675" lon="7.9072688"><ele>359.0</ele><time>2026-04-30T14:20:17.486Z</time></trkpt><trkpt lat="44.4286783" lon="7.9073299"><ele>359.0</ele><time>2026-04-30T14:20:18.583Z</time></trkpt><trkpt lat="44.4287684" lon="7.9074118"><ele>359.0</ele><time>2026-04-30T14:20:19.686Z</time></trkpt><trkpt lat="44.4289098" lon="7.9076175"><ele>359.0</ele><time>2026-04-30T14:20:21.541Z</time></trkpt><trkpt lat="44.4289843" lon="7.9077473"><ele>359.0</ele><time>2026-04-30T14:20:22.522Z</time></trkpt><trkpt lat="44.4290606" lon="7.9078819"><ele>359.5</ele><time>2026-04-30T14:20:23.544Z</time></trkpt><trkpt lat="44.4291374" lon="7.908009"><ele>360.0</ele><time>2026-04-30T14:20:24.508Z</time></trkpt><trkpt lat="44.4292265" lon="7.9081536"><ele>360.5</ele><time>2026-04-30T14:20:25.574Z</time></trkpt><trkpt lat="44.4293081" lon="7.9082912"><ele>361.0</ele><time>2026-04-30T14:20:26.571Z</time></trkpt><trkpt lat="44.4293892" lon="7.9084291"><ele>361.3333333333333</ele><time>2026-04-30T14:20:27.549Z</time></trkpt><trkpt lat="44.4294833" lon="7.9085785"><ele>361.6666666666667</ele><time>2026-04-30T14:20:28.635Z</time></trkpt><trkpt lat="44.4296588" lon="7.9088493"><ele>362.0</ele><time>2026-04-30T14:20:30.536Z</time></trkpt><trkpt lat="44.4297557" lon="7.9090053"><ele>362.0</ele><time>2026-04-30T14:20:31.641Z</time></trkpt><trkpt lat="44.4298347" lon="7.9091338"><ele>362.0</ele><time>2026-04-30T14:20:32.541Z</time></trkpt><trkpt lat="44.4299245" lon="7.9092768"><ele>362.0</ele><time>2026-04-30T14:20:33.592Z</time></trkpt><trkpt lat="44.4300123" lon="7.909422"><ele>362.0</ele><time>2026-04-30T14:20:34.64Z</time></trkpt><trkpt lat="44.4300957" lon="7.9095487"><ele>362.75</ele><time>2026-04-30T14:20:35.582Z</time></trkpt><trkpt lat="44.4301891" lon="7.9096616"><ele>363.5</ele><time>2026-04-30T14:20:36.514Z</time></trkpt><trkpt lat="44.430295" lon="7.9097684"><ele>364.25</ele><time>2026-04-30T14:20:37.516Z</time></trkpt><trkpt lat="44.4304134" lon="7.9098675"><ele>365.0</ele><time>2026-04-30T14:20:38.578Z</time></trkpt><trkpt lat="44.4305207" lon="7.9099467"><ele>365.25</ele><time>2026-04-30T14:20:39.515Z</time></trkpt><trkpt lat="44.4306487" lon="7.9100193"><ele>365.5</ele><time>2026-04-30T14:20:40.572Z</time></trkpt><trkpt lat="44.4307843" lon="7.9100785"><ele>365.75</ele><time>2026-04-30T14:20:41.595Z</time></trkpt><trkpt lat="44.4309012" lon="7.9101125"><ele>366.0</ele><time>2026-04-30T14:20:42.521Z</time></trkpt><trkpt lat="44.4310281" lon="7.9101331"><ele>367.5</ele><time>2026-04-30T14:20:43.49Z</time></trkpt><trkpt lat="44.4311671" lon="7.9101375"><ele>369.0</ele><time>2026-04-30T14:20:44.557Z</time></trkpt><trkpt lat="44.4313016" lon="7.9101308"><ele>370.5</ele><time>2026-04-30T14:20:45.528Z</time></trkpt><trkpt lat="44.4314321" lon="7.9101241"><ele>372.0</ele><time>2026-04-30T14:20:46.493Z</time></trkpt><trkpt lat="44.4315847" lon="7.9101149"><ele>373.0</ele><time>2026-04-30T14:20:47.599Z</time></trkpt><trkpt lat="44.4317048" lon="7.9101022"><ele>374.0</ele><time>2026-04-30T14:20:48.538Z</time></trkpt><trkpt lat="44.4318643" lon="7.9100736"><ele>375.0</ele><time>2026-04-30T14:20:49.687Z</time></trkpt><trkpt lat="44.4321044" lon="7.9099838"><ele>372.75</ele><time>2026-04-30T14:20:51.546Z</time></trkpt><trkpt lat="44.4322225" lon="7.909919"><ele>370.5</ele><time>2026-04-30T14:20:52.483Z</time></trkpt><trkpt lat="44.4323388" lon="7.9098466"><ele>368.25</ele><time>2026-04-30T14:20:53.453Z</time></trkpt><trkpt lat="44.4324598" lon="7.9097548"><ele>366.0</ele><time>2026-04-30T14:20:54.507Z</time></trkpt><trkpt lat="44.4325721" lon="7.9096507"><ele>366.0</ele><time>2026-04-30T14:20:55.518Z</time></trkpt><trkpt lat="44.4326691" lon="7.9095267"><ele>366.0</ele><time>2026-04-30T14:20:56.493Z</time></trkpt><trkpt lat="44.432766" lon="7.9093724"><ele>366.0</ele><time>2026-04-30T14:20:57.504Z</time></trkpt><trkpt lat="44.4328747" lon="7.9091921"><ele>366.0</ele><time>2026-04-30T14:20:58.533Z</time></trkpt><trkpt lat="44.4329881" lon="7.9090015"><ele>365.6666666666667</ele><time>2026-04-30T14:20:59.532Z</time></trkpt><trkpt lat="44.4330975" lon="7.9088259"><ele>365.33333333333337</ele><time>2026-04-30T14:21:00.528Z</time></trkpt><trkpt lat="44.4331967" lon="7.9086646"><ele>365.0</ele><time>2026-04-30T14:21:01.542Z</time></trkpt><trkpt lat="44.4332892" lon="7.9085146"><ele>361.75</ele><time>2026-04-30T14:21:02.567Z</time></trkpt><trkpt lat="44.4333699" lon="7.9083731"><ele>358.5</ele><time>2026-04-30T14:21:03.543Z</time></trkpt><trkpt lat="44.4334465" lon="7.9082431"><ele>355.25</ele><time>2026-04-30T14:21:04.501Z</time></trkpt><trkpt lat="44.4335261" lon="7.9081129"><ele>352.0</ele><time>2026-04-30T14:21:05.447Z</time></trkpt><trkpt lat="44.4336131" lon="7.9079697"><ele>352.0</ele><time>2026-04-30T14:21:06.506Z</time></trkpt><trkpt lat="44.4336946" lon="7.907838"><ele>352.0</ele><time>2026-04-30T14:21:07.507Z</time></trkpt><trkpt lat="44.4337806" lon="7.9077106"><ele>352.0</ele><time>2026-04-30T14:21:08.498Z</time></trkpt><trkpt lat="44.4338797" lon="7.9075788"><ele>352.0</ele><time>2026-04-30T14:21:09.501Z</time></trkpt><trkpt lat="44.4339836" lon="7.907452"><ele>350.5</ele><time>2026-04-30T14:21:10.482Z</time></trkpt><trkpt lat="44.4341028" lon="7.907321"><ele>349.0</ele><time>2026-04-30T14:21:11.566Z</time></trkpt><trkpt lat="44.4342128" lon="7.907217"><ele>347.5</ele><time>2026-04-30T14:21:12.547Z</time></trkpt><trkpt lat="44.4343226" lon="7.9071147"><ele>346.0</ele><time>2026-04-30T14:21:13.541Z</time></trkpt><trkpt lat="44.4344276" lon="7.9070146"><ele>346.0</ele><time>2026-04-30T14:21:14.458Z</time></trkpt><trkpt lat="44.4345572" lon="7.9068899"><ele>346.0</ele><time>2026-04-30T14:21:15.57Z</time></trkpt><trkpt lat="44.4346696" lon="7.906785"><ele>346.0</ele><time>2026-04-30T14:21:16.494Z</time></trkpt><trkpt lat="44.4347871" lon="7.9066701"><ele>346.0</ele><time>2026-04-30T14:21:17.502Z</time></trkpt><trkpt lat="44.4348971" lon="7.9065554"><ele>343.75</ele><time>2026-04-30T14:21:18.493Z</time></trkpt><trkpt lat="44.4350067" lon="7.9064506"><ele>341.5</ele><time>2026-04-30T14:21:19.467Z</time></trkpt><trkpt lat="44.4351192" lon="7.9063463"><ele>339.25</ele><time>2026-04-30T14:21:20.521Z</time></trkpt><trkpt lat="44.4352339" lon="7.9062374"><ele>337.0</ele><time>2026-04-30T14:21:21.555Z</time></trkpt><trkpt lat="44.4353528" lon="7.9061388"><ele>335.25</ele><time>2026-04-30T14:21:22.55Z</time></trkpt><trkpt lat="44.4354772" lon="7.9060475"><ele>333.5</ele><time>2026-04-30T14:21:23.534Z</time></trkpt><trkpt lat="44.435605" lon="7.905971"><ele>331.75</ele><time>2026-04-30T14:21:24.506Z</time></trkpt><trkpt lat="44.4357456" lon="7.9059052"><ele>330.0</ele><time>2026-04-30T14:21:25.516Z</time></trkpt><trkpt lat="44.4358788" lon="7.9058485"><ele>329.25</ele><time>2026-04-30T14:21:26.485Z</time></trkpt><trkpt lat="44.4360184" lon="7.905792"><ele>328.5</ele><time>2026-04-30T14:21:27.526Z</time></trkpt><trkpt lat="44.4361529" lon="7.9057307"><ele>327.75</ele><time>2026-04-30T14:21:28.533Z</time></trkpt><trkpt lat="44.4362789" lon="7.9056736"><ele>327.0</ele><time>2026-04-30T14:21:29.471Z</time></trkpt><trkpt lat="44.4364033" lon="7.9056175"><ele>329.0</ele><time>2026-04-30T14:21:30.418Z</time></trkpt><trkpt lat="44.4365471" lon="7.9055517"><ele>331.0</ele><time>2026-04-30T14:21:31.498Z</time></trkpt><trkpt lat="44.4366692" lon="7.9054981"><ele>333.0</ele><time>2026-04-30T14:21:32.401Z</time></trkpt><trkpt lat="44.4368261" lon="7.9054247"><ele>335.0</ele><time>2026-04-30T14:21:33.545Z</time></trkpt><trkpt lat="44.4369621" lon="7.9053609"><ele>335.0</ele><time>2026-04-30T14:21:34.501Z</time></trkpt><trkpt lat="44.4371078" lon="7.9052958"><ele>335.0</ele><time>2026-04-30T14:21:35.533Z</time></trkpt><trkpt lat="44.437241" lon="7.9052378"><ele>335.0</ele><time>2026-04-30T14:21:36.487Z</time></trkpt><trkpt lat="44.4373779" lon="7.9051812"><ele>335.0</ele><time>2026-04-30T14:21:37.479Z</time></trkpt><trkpt lat="44.4375338" lon="7.9051092"><ele>334.6666666666667</ele><time>2026-04-30T14:21:38.659Z</time></trkpt><trkpt lat="44.4377566" lon="7.9049946"><ele>334.3333333333333</ele><time>2026-04-30T14:21:40.458Z</time></trkpt><trkpt lat="44.437881" lon="7.9049225"><ele>334.0</ele><time>2026-04-30T14:21:41.486Z</time></trkpt><trkpt lat="44.4380058" lon="7.9048321"><ele>334.0</ele><time>2026-04-30T14:21:42.497Z</time></trkpt><trkpt lat="44.4381284" lon="7.9047317"><ele>334.0</ele><time>2026-04-30T14:21:43.485Z</time></trkpt><trkpt lat="44.4382472" lon="7.904621"><ele>334.0</ele><time>2026-04-30T14:21:44.477Z</time></trkpt><trkpt lat="44.4383606" lon="7.9044996"><ele>334.0</ele><time>2026-04-30T14:21:45.518Z</time></trkpt><trkpt lat="44.4384621" lon="7.9043754"><ele>334.0</ele><time>2026-04-30T14:21:46.517Z</time></trkpt><trkpt lat="44.4385585" lon="7.9042494"><ele>334.0</ele><time>2026-04-30T14:21:47.463Z</time></trkpt><trkpt lat="44.4386663" lon="7.9040881"><ele>334.0</ele><time>2026-04-30T14:21:48.534Z</time></trkpt><trkpt lat="44.438749" lon="7.9039405"><ele>334.0</ele><time>2026-04-30T14:21:49.475Z</time></trkpt><trkpt lat="44.4388398" lon="7.9037475"><ele>332.66666666666663</ele><time>2026-04-30T14:21:50.505Z</time></trkpt><trkpt lat="44.4389289" lon="7.9035247"><ele>331.3333333333333</ele><time>2026-04-30T14:21:51.504Z</time></trkpt><trkpt lat="44.4390349" lon="7.9032724"><ele>330.0</ele><time>2026-04-30T14:21:52.517Z</time></trkpt><trkpt lat="44.4391626" lon="7.9030051"><ele>326.0</ele><time>2026-04-30T14:21:53.549Z</time></trkpt><trkpt lat="44.4392898" lon="7.9027454"><ele>322.0</ele><time>2026-04-30T14:21:54.494Z</time></trkpt><trkpt lat="44.4394235" lon="7.9024777"><ele>320.5</ele><time>2026-04-30T14:21:55.496Z</time></trkpt><trkpt lat="44.4395716" lon="7.9021962"><ele>319.0</ele><time>2026-04-30T14:21:56.537Z</time></trkpt><trkpt lat="44.4397001" lon="7.9019235"><ele>315.0</ele><time>2026-04-30T14:21:57.463Z</time></trkpt><trkpt lat="44.4398448" lon="7.9016142"><ele>311.0</ele><time>2026-04-30T14:21:58.516Z</time></trkpt><trkpt lat="44.4399804" lon="7.9013147"><ele>311.0</ele><time>2026-04-30T14:21:59.521Z</time></trkpt><trkpt lat="44.440117" lon="7.9010128"><ele>311.0</ele><time>2026-04-30T14:22:00.535Z</time></trkpt><trkpt lat="44.4402393" lon="7.9007231"><ele>307.0</ele><time>2026-04-30T14:22:01.488Z</time></trkpt><trkpt lat="44.4403612" lon="7.9004033"><ele>303.0</ele><time>2026-04-30T14:22:02.507Z</time></trkpt><trkpt lat="44.4404651" lon="7.9000802"><ele>303.5</ele><time>2026-04-30T14:22:03.502Z</time></trkpt><trkpt lat="44.4405548" lon="7.8997453"><ele>304.0</ele><time>2026-04-30T14:22:04.509Z</time></trkpt><trkpt lat="44.4406298" lon="7.8994254"><ele>300.0</ele><time>2026-04-30T14:22:05.468Z</time></trkpt><trkpt lat="44.4406936" lon="7.8990769"><ele>296.0</ele><time>2026-04-30T14:22:06.487Z</time></trkpt><trkpt lat="44.4407435" lon="7.8987404"><ele>294.0</ele><time>2026-04-30T14:22:07.473Z</time></trkpt><trkpt lat="44.4407864" lon="7.8983871"><ele>292.0</ele><time>2026-04-30T14:22:08.502Z</time></trkpt><trkpt lat="44.4408166" lon="7.8980334"><ele>292.0</ele><time>2026-04-30T14:22:09.555Z</time></trkpt><trkpt lat="44.4408425" lon="7.897722"><ele>292.0</ele><time>2026-04-30T14:22:10.482Z</time></trkpt><trkpt lat="44.4408709" lon="7.8973837"><ele>292.66666666666663</ele><time>2026-04-30T14:22:11.505Z</time></trkpt><trkpt lat="44.4408946" lon="7.8970681"><ele>293.3333333333333</ele><time>2026-04-30T14:22:12.507Z</time></trkpt><trkpt lat="44.440919" lon="7.8967786"><ele>294.0</ele><time>2026-04-30T14:22:13.478Z</time></trkpt><trkpt lat="44.440945" lon="7.8964615"><ele>294.0</ele><time>2026-04-30T14:22:14.548Z</time></trkpt><trkpt lat="44.4409671" lon="7.8961773"><ele>294.0</ele><time>2026-04-30T14:22:15.54Z</time></trkpt><trkpt lat="44.4409907" lon="7.8958972"><ele>294.0</ele><time>2026-04-30T14:22:16.509Z</time></trkpt><trkpt lat="44.4410159" lon="7.8956214"><ele>294.0</ele><time>2026-04-30T14:22:17.512Z</time></trkpt><trkpt lat="44.4410393" lon="7.8953788"><ele>294.0</ele><time>2026-04-30T14:22:18.464Z</time></trkpt><trkpt lat="44.441065" lon="7.8951216"><ele>294.0</ele><time>2026-04-30T14:22:19.577Z</time></trkpt><trkpt lat="44.4410878" lon="7.8949266"><ele>294.0</ele><time>2026-04-30T14:22:20.517Z</time></trkpt><trkpt lat="44.4411129" lon="7.8947322"><ele>294.0</ele><time>2026-04-30T14:22:21.516Z</time></trkpt><trkpt lat="44.441141" lon="7.8945451"><ele>294.0</ele><time>2026-04-30T14:22:22.573Z</time></trkpt><trkpt lat="44.4411658" lon="7.894397"><ele>294.0</ele><time>2026-04-30T14:22:23.554Z</time></trkpt><trkpt lat="44.4411823" lon="7.8942515"><ele>293.0</ele><time>2026-04-30T14:22:24.489Z</time></trkpt><trkpt lat="44.441204" lon="7.8940558"><ele>292.0</ele><time>2026-04-30T14:22:25.54Z</time></trkpt><trkpt lat="44.4412127" lon="7.8938557"><ele>291.0</ele><time>2026-04-30T14:22:26.476Z</time></trkpt><trkpt lat="44.4412271" lon="7.8936198"><ele>290.3333333333333</ele><time>2026-04-30T14:22:27.503Z</time></trkpt><trkpt lat="44.4412506" lon="7.8933906"><ele>289.66666666666663</ele><time>2026-04-30T14:22:28.412Z</time></trkpt><trkpt lat="44.4412949" lon="7.8931203"><ele>289.0</ele><time>2026-04-30T14:22:29.425Z</time></trkpt><trkpt lat="44.4413491" lon="7.8928188"><ele>290.3333333333333</ele><time>2026-04-30T14:22:30.52Z</time></trkpt><trkpt lat="44.4414143" lon="7.8925625"><ele>291.6666666666667</ele><time>2026-04-30T14:22:31.488Z</time></trkpt><trkpt lat="44.4415133" lon="7.8922977"><ele>293.0</ele><time>2026-04-30T14:22:32.551Z</time></trkpt><trkpt lat="44.4416273" lon="7.8920965"><ele>293.0</ele><time>2026-04-30T14:22:33.491Z</time></trkpt><trkpt lat="44.4417991" lon="7.8919"><ele>293.0</ele><time>2026-04-30T14:22:34.694Z</time></trkpt><trkpt lat="44.4420976" lon="7.8917087"><ele>293.0</ele><time>2026-04-30T14:22:36.568Z</time></trkpt><trkpt lat="44.4423971" lon="7.8916665"><ele>293.0</ele><time>2026-04-30T14:22:38.464Z</time></trkpt><trkpt lat="44.4425591" lon="7.8916959"><ele>293.0</ele><time>2026-04-30T14:22:39.526Z</time></trkpt><trkpt lat="44.4426985" lon="7.8917411"><ele>293.0</ele><time>2026-04-30T14:22:40.452Z</time></trkpt><trkpt lat="44.4428548" lon="7.8918142"><ele>293.0</ele><time>2026-04-30T14:22:41.59Z</time></trkpt><trkpt lat="44.4429627" lon="7.891887"><ele>293.0</ele><time>2026-04-30T14:22:42.535Z</time></trkpt><trkpt lat="44.4430758" lon="7.891956"><ele>292.25</ele><time>2026-04-30T14:22:43.501Z</time></trkpt><trkpt lat="44.4431918" lon="7.8920293"><ele>291.5</ele><time>2026-04-30T14:22:44.549Z</time></trkpt><trkpt lat="44.4432935" lon="7.8920951"><ele>290.75</ele><time>2026-04-30T14:22:45.517Z</time></trkpt><trkpt lat="44.4434191" lon="7.8921765"><ele>290.0</ele><time>2026-04-30T14:22:46.644Z</time></trkpt><trkpt lat="44.4435188" lon="7.8922402"><ele>290.0</ele><time>2026-04-30T14:22:47.538Z</time></trkpt><trkpt lat="44.4436394" lon="7.8923226"><ele>290.0</ele><time>2026-04-30T14:22:48.562Z</time></trkpt><trkpt lat="44.4437923" lon="7.892426"><ele>290.0</ele><time>2026-04-30T14:22:49.637Z</time></trkpt><trkpt lat="44.4440924" lon="7.892646"><ele>289.0</ele><time>2026-04-30T14:22:51.536Z</time></trkpt><trkpt lat="44.4442599" lon="7.8927948"><ele>288.0</ele><time>2026-04-30T14:22:52.548Z</time></trkpt><trkpt lat="44.4444166" lon="7.8929621"><ele>287.0</ele><time>2026-04-30T14:22:53.537Z</time></trkpt><trkpt lat="44.4445655" lon="7.8931557"><ele>286.5</ele><time>2026-04-30T14:22:54.497Z</time></trkpt><trkpt lat="44.4447049" lon="7.8933804"><ele>286.0</ele><time>2026-04-30T14:22:55.531Z</time></trkpt><trkpt lat="44.4448583" lon="7.8936875"><ele>285.5</ele><time>2026-04-30T14:22:56.754Z</time></trkpt><trkpt lat="44.44506" lon="7.8941458"><ele>285.0</ele><time>2026-04-30T14:22:58.459Z</time></trkpt><trkpt lat="44.4451779" lon="7.8944291"><ele>284.0</ele><time>2026-04-30T14:22:59.516Z</time></trkpt><trkpt lat="44.4452869" lon="7.8946988"><ele>283.0</ele><time>2026-04-30T14:23:00.521Z</time></trkpt><trkpt lat="44.4453956" lon="7.8949705"><ele>282.0</ele><time>2026-04-30T14:23:01.521Z</time></trkpt><trkpt lat="44.445502" lon="7.8952373"><ele>285.3333333333333</ele><time>2026-04-30T14:23:02.522Z</time></trkpt><trkpt lat="44.4456012" lon="7.8954835"><ele>288.66666666666663</ele><time>2026-04-30T14:23:03.482Z</time></trkpt><trkpt lat="44.4457038" lon="7.8957404"><ele>292.0</ele><time>2026-04-30T14:23:04.569Z</time></trkpt><trkpt lat="44.4457979" lon="7.8959457"><ele>292.0</ele><time>2026-04-30T14:23:05.555Z</time></trkpt><trkpt lat="44.4459091" lon="7.8961111"><ele>292.0</ele><time>2026-04-30T14:23:06.491Z</time></trkpt><trkpt lat="44.446063" lon="7.8962657"><ele>292.0</ele><time>2026-04-30T14:23:07.591Z</time></trkpt><trkpt lat="44.4462088" lon="7.8963545"><ele>293.66666666666663</ele><time>2026-04-30T14:23:08.505Z</time></trkpt><trkpt lat="44.4463983" lon="7.8964027"><ele>295.3333333333333</ele><time>2026-04-30T14:23:09.65Z</time></trkpt><trkpt lat="44.4465531" lon="7.8963985"><ele>297.0</ele><time>2026-04-30T14:23:10.566Z</time></trkpt><trkpt lat="44.446704" lon="7.8963683"><ele>297.0</ele><time>2026-04-30T14:23:11.496Z</time></trkpt><trkpt lat="44.4468529" lon="7.8963204"><ele>297.0</ele><time>2026-04-30T14:23:12.505Z</time></trkpt><trkpt lat="44.4469868" lon="7.8962754"><ele>297.0</ele><time>2026-04-30T14:23:13.562Z</time></trkpt><trkpt lat="44.4471263" lon="7.8962304"><ele>297.0</ele><time>2026-04-30T14:23:14.754Z</time></trkpt><trkpt lat="44.4473518" lon="7.8961431"><ele>297.6666666666667</ele><time>2026-04-30T14:23:16.488Z</time></trkpt><trkpt lat="44.4475303" lon="7.8960765"><ele>298.33333333333337</ele><time>2026-04-30T14:23:17.542Z</time></trkpt><trkpt lat="44.4477267" lon="7.896008"><ele>299.0</ele><time>2026-04-30T14:23:18.578Z</time></trkpt><trkpt lat="44.4479051" lon="7.8959416"><ele>297.33333333333337</ele><time>2026-04-30T14:23:19.522Z</time></trkpt><trkpt lat="44.4481037" lon="7.8958658"><ele>295.6666666666667</ele><time>2026-04-30T14:23:20.507Z</time></trkpt><trkpt lat="44.4483223" lon="7.8957896"><ele>294.0</ele><time>2026-04-30T14:23:21.568Z</time></trkpt><trkpt lat="44.4485281" lon="7.8957232"><ele>294.0</ele><time>2026-04-30T14:23:22.56Z</time></trkpt><trkpt lat="44.4487293" lon="7.8956497"><ele>294.0</ele><time>2026-04-30T14:23:23.502Z</time></trkpt><trkpt lat="44.4489276" lon="7.895576"><ele>294.0</ele><time>2026-04-30T14:23:24.491Z</time></trkpt><trkpt lat="44.4491345" lon="7.8954806"><ele>293.0</ele><time>2026-04-30T14:23:25.504Z</time></trkpt><trkpt lat="44.4493381" lon="7.8953528"><ele>292.0</ele><time>2026-04-30T14:23:26.519Z</time></trkpt><trkpt lat="44.4495426" lon="7.8951826"><ele>291.0</ele><time>2026-04-30T14:23:27.59Z</time></trkpt><trkpt lat="44.4497161" lon="7.8949947"><ele>290.0</ele><time>2026-04-30T14:23:28.566Z</time></trkpt><trkpt lat="44.4498725" lon="7.8948018"><ele>289.0</ele><time>2026-04-30T14:23:29.502Z</time></trkpt><trkpt lat="44.4500526" lon="7.8945826"><ele>289.0</ele><time>2026-04-30T14:23:30.558Z</time></trkpt><trkpt lat="44.4502129" lon="7.8943865"><ele>289.0</ele><time>2026-04-30T14:23:31.48Z</time></trkpt><trkpt lat="44.4503939" lon="7.8941585"><ele>285.5</ele><time>2026-04-30T14:23:32.52Z</time></trkpt><trkpt lat="44.4505524" lon="7.8939703"><ele>282.0</ele><time>2026-04-30T14:23:33.46Z</time></trkpt><trkpt lat="44.450748" lon="7.8937282"><ele>282.0</ele><time>2026-04-30T14:23:34.659Z</time></trkpt><trkpt lat="44.4510437" lon="7.8933619"><ele>282.0</ele><time>2026-04-30T14:23:36.491Z</time></trkpt><trkpt lat="44.4512131" lon="7.8931654"><ele>282.0</ele><time>2026-04-30T14:23:37.526Z</time></trkpt><trkpt lat="44.4513718" lon="7.8929948"><ele>282.0</ele><time>2026-04-30T14:23:38.542Z</time></trkpt><trkpt lat="44.4515201" lon="7.8928648"><ele>282.0</ele><time>2026-04-30T14:23:39.505Z</time></trkpt><trkpt lat="44.4516905" lon="7.892744"><ele>282.0</ele><time>2026-04-30T14:23:40.516Z</time></trkpt><trkpt lat="44.4518872" lon="7.8926319"><ele>282.0</ele><time>2026-04-30T14:23:41.578Z</time></trkpt><trkpt lat="44.4520878" lon="7.8925463"><ele>282.0</ele><time>2026-04-30T14:23:42.539Z</time></trkpt><trkpt lat="44.4522997" lon="7.8924706"><ele>281.0</ele><time>2026-04-30T14:23:43.528Z</time></trkpt><trkpt lat="44.4525155" lon="7.8923963"><ele>280.0</ele><time>2026-04-30T14:23:44.494Z</time></trkpt><trkpt lat="44.4527376" lon="7.8923187"><ele>279.0</ele><time>2026-04-30T14:23:45.467Z</time></trkpt><trkpt lat="44.4529812" lon="7.892229"><ele>278.0</ele><time>2026-04-30T14:23:46.548Z</time></trkpt><trkpt lat="44.4532001" lon="7.892154"><ele>278.0</ele><time>2026-04-30T14:23:47.492Z</time></trkpt><trkpt lat="44.4534499" lon="7.8920693"><ele>278.0</ele><time>2026-04-30T14:23:48.542Z</time></trkpt><trkpt lat="44.4536796" lon="7.8919866"><ele>280.5</ele><time>2026-04-30T14:23:49.548Z</time></trkpt><trkpt lat="44.4539106" lon="7.8919072"><ele>283.0</ele><time>2026-04-30T14:23:50.544Z</time></trkpt><trkpt lat="44.4541288" lon="7.8918342"><ele>282.5</ele><time>2026-04-30T14:23:51.509Z</time></trkpt><trkpt lat="44.454389" lon="7.8917458"><ele>282.0</ele><time>2026-04-30T14:23:52.681Z</time></trkpt><trkpt lat="44.4546068" lon="7.8916685"><ele>283.5</ele><time>2026-04-30T14:23:53.646Z</time></trkpt><trkpt lat="44.4548223" lon="7.8915953"><ele>285.0</ele><time>2026-04-30T14:23:54.577Z</time></trkpt><trkpt lat="44.4550578" lon="7.891516"><ele>285.0</ele><time>2026-04-30T14:23:55.577Z</time></trkpt><trkpt lat="44.4552849" lon="7.891438"><ele>285.0</ele><time>2026-04-30T14:23:56.545Z</time></trkpt><trkpt lat="44.4555566" lon="7.8913365"><ele>283.5</ele><time>2026-04-30T14:23:57.71Z</time></trkpt><trkpt lat="44.4559764" lon="7.8911919"><ele>282.0</ele><time>2026-04-30T14:23:59.479Z</time></trkpt><trkpt lat="44.4562143" lon="7.8911095"><ele>279.0</ele><time>2026-04-30T14:24:00.504Z</time></trkpt><trkpt lat="44.4564956" lon="7.8910102"><ele>276.0</ele><time>2026-04-30T14:24:01.722Z</time></trkpt><trkpt lat="44.4568822" lon="7.8908745"><ele>276.0</ele><time>2026-04-30T14:24:03.535Z</time></trkpt><trkpt lat="44.4570955" lon="7.8908005"><ele>276.0</ele><time>2026-04-30T14:24:04.549Z</time></trkpt><trkpt lat="44.4572978" lon="7.8907296"><ele>276.0</ele><time>2026-04-30T14:24:05.5Z</time></trkpt><trkpt lat="44.4575059" lon="7.8906564"><ele>275.0</ele><time>2026-04-30T14:24:06.492Z</time></trkpt><trkpt lat="44.4577052" lon="7.8905857"><ele>274.0</ele><time>2026-04-30T14:24:07.484Z</time></trkpt><trkpt lat="44.4579075" lon="7.8905169"><ele>273.0</ele><time>2026-04-30T14:24:08.494Z</time></trkpt><trkpt lat="44.4581175" lon="7.8904438"><ele>273.0</ele><time>2026-04-30T14:24:09.533Z</time></trkpt><trkpt lat="44.4583213" lon="7.8903724"><ele>273.0</ele><time>2026-04-30T14:24:10.53Z</time></trkpt><trkpt lat="44.4585391" lon="7.8902997"><ele>273.0</ele><time>2026-04-30T14:24:11.628Z</time></trkpt><trkpt lat="44.4589004" lon="7.8901615"><ele>274.3333333333333</ele><time>2026-04-30T14:24:13.51Z</time></trkpt><trkpt lat="44.4590947" lon="7.8900682"><ele>275.66666666666663</ele><time>2026-04-30T14:24:14.518Z</time></trkpt><trkpt lat="44.4592906" lon="7.88995"><ele>277.0</ele><time>2026-04-30T14:24:15.559Z</time></trkpt><trkpt lat="44.4594551" lon="7.889833"><ele>277.0</ele><time>2026-04-30T14:24:16.462Z</time></trkpt><trkpt lat="44.4596482" lon="7.8896769"><ele>277.0</ele><time>2026-04-30T14:24:17.509Z</time></trkpt><trkpt lat="44.4598133" lon="7.8895296"><ele>277.0</ele><time>2026-04-30T14:24:18.433Z</time></trkpt><trkpt lat="44.459998" lon="7.8893411"><ele>277.66666666666663</ele><time>2026-04-30T14:24:19.525Z</time></trkpt><trkpt lat="44.4601849" lon="7.8891332"><ele>278.3333333333333</ele><time>2026-04-30T14:24:20.663Z</time></trkpt><trkpt lat="44.4603312" lon="7.8889569"><ele>279.0</ele><time>2026-04-30T14:24:21.571Z</time></trkpt><trkpt lat="44.4604825" lon="7.888776"><ele>279.0</ele><time>2026-04-30T14:24:22.516Z</time></trkpt><trkpt lat="44.4606397" lon="7.8885818"><ele>279.0</ele><time>2026-04-30T14:24:23.495Z</time></trkpt><trkpt lat="44.4607937" lon="7.88839"><ele>279.0</ele><time>2026-04-30T14:24:24.473Z</time></trkpt><trkpt lat="44.4609675" lon="7.888181"><ele>279.0</ele><time>2026-04-30T14:24:25.555Z</time></trkpt><trkpt lat="44.4611321" lon="7.8879786"><ele>279.0</ele><time>2026-04-30T14:24:26.557Z</time></trkpt><trkpt lat="44.4612862" lon="7.887786"><ele>279.0</ele><time>2026-04-30T14:24:27.532Z</time></trkpt><trkpt lat="44.4614849" lon="7.8875472"><ele>280.5</ele><time>2026-04-30T14:24:28.739Z</time></trkpt><trkpt lat="44.4617802" lon="7.8871887"><ele>282.0</ele><time>2026-04-30T14:24:30.541Z</time></trkpt><trkpt lat="44.4619427" lon="7.8869887"><ele>282.0</ele><time>2026-04-30T14:24:31.562Z</time></trkpt><trkpt lat="44.4620927" lon="7.8868025"><ele>282.0</ele><time>2026-04-30T14:24:32.521Z</time></trkpt><trkpt lat="44.4622475" lon="7.8866128"><ele>282.0</ele><time>2026-04-30T14:24:33.484Z</time></trkpt><trkpt lat="44.4624066" lon="7.8864081"><ele>283.3333333333333</ele><time>2026-04-30T14:24:34.502Z</time></trkpt><trkpt lat="44.4625696" lon="7.8862041"><ele>284.66666666666663</ele><time>2026-04-30T14:24:35.537Z</time></trkpt><trkpt lat="44.462723" lon="7.8860198"><ele>286.0</ele><time>2026-04-30T14:24:36.49Z</time></trkpt><trkpt lat="44.4628873" lon="7.8858241"><ele>281.66666666666663</ele><time>2026-04-30T14:24:37.494Z</time></trkpt><trkpt lat="44.4630711" lon="7.8856143"><ele>277.3333333333333</ele><time>2026-04-30T14:24:38.575Z</time></trkpt><trkpt lat="44.4632338" lon="7.885441"><ele>273.0</ele><time>2026-04-30T14:24:39.48Z</time></trkpt><trkpt lat="44.4634352" lon="7.8852481"><ele>274.5</ele><time>2026-04-30T14:24:40.564Z</time></trkpt><trkpt lat="44.4636144" lon="7.8850927"><ele>276.0</ele><time>2026-04-30T14:24:41.506Z</time></trkpt><trkpt lat="44.4638267" lon="7.8849309"><ele>276.5</ele><time>2026-04-30T14:24:42.561Z</time></trkpt><trkpt lat="44.4640214" lon="7.884796"><ele>277.0</ele><time>2026-04-30T14:24:43.501Z</time></trkpt><trkpt lat="44.4642632" lon="7.8846487"><ele>276.0</ele><time>2026-04-30T14:24:44.628Z</time></trkpt><trkpt lat="44.4646575" lon="7.8844482"><ele>275.0</ele><time>2026-04-30T14:24:46.465Z</time></trkpt><trkpt lat="44.464904" lon="7.8843468"><ele>275.0</ele><time>2026-04-30T14:24:47.596Z</time></trkpt><trkpt lat="44.4651077" lon="7.884276"><ele>275.0</ele><time>2026-04-30T14:24:48.518Z</time></trkpt><trkpt lat="44.4653451" lon="7.8842081"><ele>276.6666666666667</ele><time>2026-04-30T14:24:49.575Z</time></trkpt><trkpt lat="44.4655713" lon="7.8841556"><ele>278.3333333333333</ele><time>2026-04-30T14:24:50.584Z</time></trkpt><trkpt lat="44.4657749" lon="7.8841218"><ele>280.0</ele><time>2026-04-30T14:24:51.505Z</time></trkpt><trkpt lat="44.466001" lon="7.8840992"><ele>280.0</ele><time>2026-04-30T14:24:52.549Z</time></trkpt><trkpt lat="44.4662157" lon="7.8840911"><ele>280.0</ele><time>2026-04-30T14:24:53.553Z</time></trkpt><trkpt lat="44.4664141" lon="7.8840946"><ele>280.0</ele><time>2026-04-30T14:24:54.495Z</time></trkpt><trkpt lat="44.466628" lon="7.8841101"><ele>281.66666666666663</ele><time>2026-04-30T14:24:55.509Z</time></trkpt><trkpt lat="44.4668416" lon="7.8841384"><ele>283.3333333333333</ele><time>2026-04-30T14:24:56.541Z</time></trkpt><trkpt lat="44.4670522" lon="7.8841754"><ele>285.0</ele><time>2026-04-30T14:24:57.548Z</time></trkpt><trkpt lat="44.4672643" lon="7.8842252"><ele>285.0</ele><time>2026-04-30T14:24:58.561Z</time></trkpt><trkpt lat="44.4674637" lon="7.8842849"><ele>285.0</ele><time>2026-04-30T14:24:59.563Z</time></trkpt><trkpt lat="44.4676568" lon="7.8843483"><ele>285.0</ele><time>2026-04-30T14:25:00.544Z</time></trkpt><trkpt lat="44.4678602" lon="7.8844255"><ele>285.0</ele><time>2026-04-30T14:25:01.569Z</time></trkpt><trkpt lat="44.4680469" lon="7.8845082"><ele>285.0</ele><time>2026-04-30T14:25:02.511Z</time></trkpt><trkpt lat="44.4682516" lon="7.8846175"><ele>285.0</ele><time>2026-04-30T14:25:03.581Z</time></trkpt><trkpt lat="44.4684396" lon="7.8847375"><ele>285.0</ele><time>2026-04-30T14:25:04.58Z</time></trkpt><trkpt lat="44.4686107" lon="7.8848552"><ele>285.0</ele><time>2026-04-30T14:25:05.509Z</time></trkpt><trkpt lat="44.4687997" lon="7.8849942"><ele>285.0</ele><time>2026-04-30T14:25:06.542Z</time></trkpt><trkpt lat="44.468984" lon="7.8851472"><ele>285.3333333333333</ele><time>2026-04-30T14:25:07.575Z</time></trkpt><trkpt lat="44.4691632" lon="7.8853063"><ele>285.66666666666663</ele><time>2026-04-30T14:25:08.55Z</time></trkpt><trkpt lat="44.4693585" lon="7.8854946"><ele>286.0</ele><time>2026-04-30T14:25:09.629Z</time></trkpt><trkpt lat="44.4695366" lon="7.8856717"><ele>286.0</ele><time>2026-04-30T14:25:10.579Z</time></trkpt><trkpt lat="44.4697094" lon="7.8858631"><ele>286.0</ele><time>2026-04-30T14:25:11.494Z</time></trkpt><trkpt lat="44.4698838" lon="7.8860797"><ele>286.3333333333333</ele><time>2026-04-30T14:25:12.486Z</time></trkpt><trkpt lat="44.4700588" lon="7.8863238"><ele>286.6666666666667</ele><time>2026-04-30T14:25:13.591Z</time></trkpt><trkpt lat="44.4701991" lon="7.8865276"><ele>287.0</ele><time>2026-04-30T14:25:14.509Z</time></trkpt><trkpt lat="44.470354" lon="7.8867529"><ele>286.33333333333337</ele><time>2026-04-30T14:25:15.557Z</time></trkpt><trkpt lat="44.4704949" lon="7.8869516"><ele>285.6666666666667</ele><time>2026-04-30T14:25:16.543Z</time></trkpt><trkpt lat="44.4706361" lon="7.8871449"><ele>285.0</ele><time>2026-04-30T14:25:17.547Z</time></trkpt><trkpt lat="44.4707761" lon="7.8873356"><ele>285.0</ele><time>2026-04-30T14:25:18.537Z</time></trkpt><trkpt lat="44.4709261" lon="7.8875342"><ele>285.0</ele><time>2026-04-30T14:25:19.537Z</time></trkpt><trkpt lat="44.4711024" lon="7.8877384"><ele>285.0</ele><time>2026-04-30T14:25:20.566Z</time></trkpt><trkpt lat="44.4712941" lon="7.8879417"><ele>283.0</ele><time>2026-04-30T14:25:21.565Z</time></trkpt><trkpt lat="44.4714948" lon="7.8881455"><ele>281.0</ele><time>2026-04-30T14:25:22.534Z</time></trkpt><trkpt lat="44.4717085" lon="7.8883621"><ele>280.0</ele><time>2026-04-30T14:25:23.532Z</time></trkpt><trkpt lat="44.4719222" lon="7.888557"><ele>279.0</ele><time>2026-04-30T14:25:24.519Z</time></trkpt><trkpt lat="44.4721492" lon="7.8887422"><ele>279.0</ele><time>2026-04-30T14:25:25.553Z</time></trkpt><trkpt lat="44.4723696" lon="7.8888947"><ele>279.0</ele><time>2026-04-30T14:25:26.551Z</time></trkpt><trkpt lat="44.4725887" lon="7.8890304"><ele>279.0</ele><time>2026-04-30T14:25:27.527Z</time></trkpt><trkpt lat="44.472818" lon="7.8891608"><ele>279.0</ele><time>2026-04-30T14:25:28.556Z</time></trkpt><trkpt lat="44.4730341" lon="7.8892649"><ele>278.3333333333333</ele><time>2026-04-30T14:25:29.529Z</time></trkpt><trkpt lat="44.4732372" lon="7.8893556"><ele>277.66666666666663</ele><time>2026-04-30T14:25:30.503Z</time></trkpt><trkpt lat="44.473429" lon="7.8894285"><ele>277.0</ele><time>2026-04-30T14:25:31.506Z</time></trkpt><trkpt lat="44.4736152" lon="7.8894913"><ele>277.3333333333333</ele><time>2026-04-30T14:25:32.527Z</time></trkpt><trkpt lat="44.4737902" lon="7.8895397"><ele>277.6666666666667</ele><time>2026-04-30T14:25:33.509Z</time></trkpt><trkpt lat="44.4739745" lon="7.8895834"><ele>278.0</ele><time>2026-04-30T14:25:34.584Z</time></trkpt><trkpt lat="44.4743156" lon="7.8896491"><ele>278.0</ele><time>2026-04-30T14:25:36.509Z</time></trkpt><trkpt lat="44.4745071" lon="7.889673"><ele>278.0</ele><time>2026-04-30T14:25:37.537Z</time></trkpt><trkpt lat="44.4747035" lon="7.889687"><ele>278.0</ele><time>2026-04-30T14:25:38.559Z</time></trkpt><trkpt lat="44.4748793" lon="7.8896932"><ele>277.33333333333337</ele><time>2026-04-30T14:25:39.48Z</time></trkpt><trkpt lat="44.4750535" lon="7.8896944"><ele>276.6666666666667</ele><time>2026-04-30T14:25:40.42Z</time></trkpt><trkpt lat="44.4752454" lon="7.8896894"><ele>276.0</ele><time>2026-04-30T14:25:41.447Z</time></trkpt><trkpt lat="44.4754515" lon="7.8896739"><ele>275.0</ele><time>2026-04-30T14:25:42.464Z</time></trkpt><trkpt lat="44.4756716" lon="7.8896565"><ele>274.0</ele><time>2026-04-30T14:25:43.466Z</time></trkpt><trkpt lat="44.4759066" lon="7.8896613"><ele>274.0</ele><time>2026-04-30T14:25:44.494Z</time></trkpt><trkpt lat="44.4761304" lon="7.8896876"><ele>274.0</ele><time>2026-04-30T14:25:45.506Z</time></trkpt><trkpt lat="44.4763539" lon="7.8897281"><ele>274.0</ele><time>2026-04-30T14:25:46.545Z</time></trkpt><trkpt lat="44.4765637" lon="7.889773"><ele>274.0</ele><time>2026-04-30T14:25:47.574Z</time></trkpt><trkpt lat="44.476942" lon="7.8898898"><ele>274.3333333333333</ele><time>2026-04-30T14:25:49.515Z</time></trkpt><trkpt lat="44.4771333" lon="7.8899588"><ele>274.6666666666667</ele><time>2026-04-30T14:25:50.508Z</time></trkpt><trkpt lat="44.4773121" lon="7.8900281"><ele>275.0</ele><time>2026-04-30T14:25:51.471Z</time></trkpt><trkpt lat="44.4774896" lon="7.8900954"><ele>275.33333333333337</ele><time>2026-04-30T14:25:52.491Z</time></trkpt><trkpt lat="44.4776796" lon="7.8901683"><ele>275.6666666666667</ele><time>2026-04-30T14:25:53.616Z</time></trkpt><trkpt lat="44.4778319" lon="7.8902232"><ele>276.0</ele><time>2026-04-30T14:25:54.528Z</time></trkpt><trkpt lat="44.4780103" lon="7.8902783"><ele>275.0</ele><time>2026-04-30T14:25:55.568Z</time></trkpt><trkpt lat="44.478171" lon="7.890321"><ele>274.0</ele><time>2026-04-30T14:25:56.552Z</time></trkpt><trkpt lat="44.4783262" lon="7.8903451"><ele>273.0</ele><time>2026-04-30T14:25:57.501Z</time></trkpt><trkpt lat="44.4784876" lon="7.8903606"><ele>273.0</ele><time>2026-04-30T14:25:58.53Z</time></trkpt><trkpt lat="44.4786227" lon="7.8903512"><ele>273.0</ele><time>2026-04-30T14:25:59.474Z</time></trkpt><trkpt lat="44.4787574" lon="7.8903337"><ele>273.0</ele><time>2026-04-30T14:26:00.508Z</time></trkpt><trkpt lat="44.4788894" lon="7.8903054"><ele>273.0</ele><time>2026-04-30T14:26:01.572Z</time></trkpt><trkpt lat="44.4789951" lon="7.8902765"><ele>273.2</ele><time>2026-04-30T14:26:02.53Z</time></trkpt><trkpt lat="44.4791015" lon="7.8902554"><ele>273.4</ele><time>2026-04-30T14:26:03.539Z</time></trkpt><trkpt lat="44.4791963" lon="7.8902597"><ele>273.59999999999997</ele><time>2026-04-30T14:26:04.548Z</time></trkpt><trkpt lat="44.479293" lon="7.8902785"><ele>273.8</ele><time>2026-04-30T14:26:05.494Z</time></trkpt><trkpt lat="44.4794058" lon="7.8902981"><ele>274.0</ele><time>2026-04-30T14:26:06.576Z</time></trkpt><trkpt lat="44.4794941" lon="7.8902746"><ele>274.0</ele><time>2026-04-30T14:26:07.501Z</time></trkpt><trkpt lat="44.4795868" lon="7.8901974"><ele>274.0</ele><time>2026-04-30T14:26:08.517Z</time></trkpt><trkpt lat="44.4796678" lon="7.8901041"><ele>274.0</ele><time>2026-04-30T14:26:09.497Z</time></trkpt><trkpt lat="44.479772" lon="7.8900292"><ele>274.0</ele><time>2026-04-30T14:26:10.496Z</time></trkpt><trkpt lat="44.4798984" lon="7.8899706"><ele>274.0</ele><time>2026-04-30T14:26:11.561Z</time></trkpt><trkpt lat="44.4800084" lon="7.8899394"><ele>274.0</ele><time>2026-04-30T14:26:12.539Z</time></trkpt><trkpt lat="44.4801345" lon="7.8899228"><ele>274.0</ele><time>2026-04-30T14:26:13.519Z</time></trkpt><trkpt lat="44.4802665" lon="7.8899136"><ele>274.0</ele><time>2026-04-30T14:26:14.53Z</time></trkpt><trkpt lat="44.4804028" lon="7.8899159"><ele>274.3333333333333</ele><time>2026-04-30T14:26:15.494Z</time></trkpt><trkpt lat="44.4805512" lon="7.8899298"><ele>274.6666666666667</ele><time>2026-04-30T14:26:16.575Z</time></trkpt><trkpt lat="44.48082" lon="7.8899919"><ele>275.0</ele><time>2026-04-30T14:26:18.507Z</time></trkpt><trkpt lat="44.4809626" lon="7.8900522"><ele>274.75</ele><time>2026-04-30T14:26:19.502Z</time></trkpt><trkpt lat="44.4811055" lon="7.8901313"><ele>274.5</ele><time>2026-04-30T14:26:20.526Z</time></trkpt><trkpt lat="44.4812332" lon="7.8902198"><ele>274.25</ele><time>2026-04-30T14:26:21.515Z</time></trkpt><trkpt lat="44.4813557" lon="7.8903176"><ele>274.0</ele><time>2026-04-30T14:26:22.51Z</time></trkpt><trkpt lat="44.4814745" lon="7.8904296"><ele>274.5</ele><time>2026-04-30T14:26:23.506Z</time></trkpt><trkpt lat="44.4815927" lon="7.890555"><ele>275.0</ele><time>2026-04-30T14:26:24.518Z</time></trkpt><trkpt lat="44.4816973" lon="7.8906975"><ele>275.5</ele><time>2026-04-30T14:26:25.55Z</time></trkpt><trkpt lat="44.4817886" lon="7.8908506"><ele>276.0</ele><time>2026-04-30T14:26:26.509Z</time></trkpt><trkpt lat="44.481878" lon="7.8910248"><ele>274.6666666666667</ele><time>2026-04-30T14:26:27.517Z</time></trkpt><trkpt lat="44.4819545" lon="7.8912015"><ele>273.33333333333337</ele><time>2026-04-30T14:26:28.447Z</time></trkpt><trkpt lat="44.482034" lon="7.8914124"><ele>272.0</ele><time>2026-04-30T14:26:29.484Z</time></trkpt><trkpt lat="44.4821058" lon="7.8916232"><ele>276.0</ele><time>2026-04-30T14:26:30.498Z</time></trkpt><trkpt lat="44.4821802" lon="7.8918459"><ele>280.0</ele><time>2026-04-30T14:26:31.524Z</time></trkpt><trkpt lat="44.4822588" lon="7.8920747"><ele>284.0</ele><time>2026-04-30T14:26:32.506Z</time></trkpt><trkpt lat="44.4823499" lon="7.8923416"><ele>280.5</ele><time>2026-04-30T14:26:33.557Z</time></trkpt><trkpt lat="44.4824494" lon="7.8925988"><ele>277.0</ele><time>2026-04-30T14:26:34.47Z</time></trkpt><trkpt lat="44.4825598" lon="7.8929133"><ele>277.0</ele><time>2026-04-30T14:26:35.496Z</time></trkpt><trkpt lat="44.4826642" lon="7.8932437"><ele>277.0</ele><time>2026-04-30T14:26:36.506Z</time></trkpt><trkpt lat="44.4827654" lon="7.8935718"><ele>275.3333333333333</ele><time>2026-04-30T14:26:37.493Z</time></trkpt><trkpt lat="44.4828628" lon="7.8938611"><ele>273.6666666666667</ele><time>2026-04-30T14:26:38.471Z</time></trkpt><trkpt lat="44.4829525" lon="7.8941226"><ele>272.0</ele><time>2026-04-30T14:26:39.445Z</time></trkpt><trkpt lat="44.4830325" lon="7.8943727"><ele>276.33333333333337</ele><time>2026-04-30T14:26:40.45Z</time></trkpt><trkpt lat="44.4831084" lon="7.8946037"><ele>280.6666666666667</ele><time>2026-04-30T14:26:41.449Z</time></trkpt><trkpt lat="44.4831829" lon="7.8948259"><ele>285.0</ele><time>2026-04-30T14:26:42.471Z</time></trkpt><trkpt lat="44.483261" lon="7.8950512"><ele>283.0</ele><time>2026-04-30T14:26:43.497Z</time></trkpt><trkpt lat="44.4833316" lon="7.8952605"><ele>281.0</ele><time>2026-04-30T14:26:44.437Z</time></trkpt><trkpt lat="44.4834244" lon="7.895531"><ele>279.0</ele><time>2026-04-30T14:26:45.556Z</time></trkpt><trkpt lat="44.4835027" lon="7.8957621"><ele>279.3333333333333</ele><time>2026-04-30T14:26:46.507Z</time></trkpt><trkpt lat="44.4835796" lon="7.8959861"><ele>279.66666666666663</ele><time>2026-04-30T14:26:47.499Z</time></trkpt><trkpt lat="44.4836515" lon="7.8961973"><ele>280.0</ele><time>2026-04-30T14:26:48.453Z</time></trkpt><trkpt lat="44.4837382" lon="7.8964502"><ele>282.0</ele><time>2026-04-30T14:26:49.542Z</time></trkpt><trkpt lat="44.483818" lon="7.8966793"><ele>284.0</ele><time>2026-04-30T14:26:50.484Z</time></trkpt><trkpt lat="44.4839097" lon="7.8969282"><ele>286.0</ele><time>2026-04-30T14:26:51.501Z</time></trkpt><trkpt lat="44.4840086" lon="7.8971747"><ele>286.0</ele><time>2026-04-30T14:26:52.508Z</time></trkpt><trkpt lat="44.4841129" lon="7.8974"><ele>286.0</ele><time>2026-04-30T14:26:53.437Z</time></trkpt><trkpt lat="44.4842677" lon="7.8976946"><ele>286.0</ele><time>2026-04-30T14:26:54.673Z</time></trkpt><trkpt lat="44.4844155" lon="7.8979447"><ele>286.0</ele><time>2026-04-30T14:26:55.766Z</time></trkpt><trkpt lat="44.4846771" lon="7.8983298"><ele>283.66666666666663</ele><time>2026-04-30T14:26:57.516Z</time></trkpt><trkpt lat="44.4848391" lon="7.8985423"><ele>281.3333333333333</ele><time>2026-04-30T14:26:58.544Z</time></trkpt><trkpt lat="44.4849944" lon="7.8987351"><ele>279.0</ele><time>2026-04-30T14:26:59.526Z</time></trkpt><trkpt lat="44.4851522" lon="7.8989257"><ele>279.0</ele><time>2026-04-30T14:27:00.514Z</time></trkpt><trkpt lat="44.4853093" lon="7.8991156"><ele>279.0</ele><time>2026-04-30T14:27:01.517Z</time></trkpt><trkpt lat="44.4854698" lon="7.8993088"><ele>279.0</ele><time>2026-04-30T14:27:02.571Z</time></trkpt><trkpt lat="44.4856107" lon="7.8994753"><ele>279.3333333333333</ele><time>2026-04-30T14:27:03.511Z</time></trkpt><trkpt lat="44.4857505" lon="7.8996408"><ele>279.66666666666663</ele><time>2026-04-30T14:27:04.51Z</time></trkpt><trkpt lat="44.4858707" lon="7.8997873"><ele>280.0</ele><time>2026-04-30T14:27:05.486Z</time></trkpt><trkpt lat="44.4860059" lon="7.8999403"><ele>280.0</ele><time>2026-04-30T14:27:06.585Z</time></trkpt><trkpt lat="44.4861188" lon="7.9000615"><ele>280.0</ele><time>2026-04-30T14:27:07.536Z</time></trkpt><trkpt lat="44.4862263" lon="7.9001724"><ele>280.0</ele><time>2026-04-30T14:27:08.581Z</time></trkpt><trkpt lat="44.4863125" lon="7.9002556"><ele>280.0</ele><time>2026-04-30T14:27:09.553Z</time></trkpt><trkpt lat="44.4863885" lon="7.9003129"><ele>280.85714285714283</ele><time>2026-04-30T14:27:10.49Z</time></trkpt><trkpt lat="44.486446" lon="7.9003571"><ele>281.7142857142857</ele><time>2026-04-30T14:27:11.495Z</time></trkpt><trkpt lat="44.4864943" lon="7.9004141"><ele>282.57142857142856</ele><time>2026-04-30T14:27:12.524Z</time></trkpt><trkpt lat="44.4865406" lon="7.9004929"><ele>283.42857142857144</ele><time>2026-04-30T14:27:13.486Z</time></trkpt><trkpt lat="44.4865916" lon="7.9005636"><ele>284.2857142857143</ele><time>2026-04-30T14:27:14.467Z</time></trkpt><trkpt lat="44.4866601" lon="7.9006287"><ele>285.1428571428571</ele><time>2026-04-30T14:27:15.56Z</time></trkpt><trkpt lat="44.4867293" lon="7.9006594"><ele>286.0</ele><time>2026-04-30T14:27:16.554Z</time></trkpt><trkpt lat="44.4868083" lon="7.9007023"><ele>286.0</ele><time>2026-04-30T14:27:17.554Z</time></trkpt><trkpt lat="44.4868907" lon="7.9007738"><ele>286.0</ele><time>2026-04-30T14:27:18.565Z</time></trkpt><trkpt lat="44.4870345" lon="7.9009683"><ele>286.0</ele><time>2026-04-30T14:27:20.487Z</time></trkpt><trkpt lat="44.4871089" lon="7.9010828"><ele>286.0</ele><time>2026-04-30T14:27:21.496Z</time></trkpt><trkpt lat="44.4872075" lon="7.9012171"><ele>287.3333333333333</ele><time>2026-04-30T14:27:22.538Z</time></trkpt><trkpt lat="44.487323" lon="7.90137"><ele>288.6666666666667</ele><time>2026-04-30T14:27:23.533Z</time></trkpt><trkpt lat="44.4874579" lon="7.90156"><ele>290.0</ele><time>2026-04-30T14:27:24.567Z</time></trkpt><trkpt lat="44.4875978" lon="7.9017267"><ele>288.33333333333337</ele><time>2026-04-30T14:27:25.483Z</time></trkpt><trkpt lat="44.4877705" lon="7.9019203"><ele>286.6666666666667</ele><time>2026-04-30T14:27:26.539Z</time></trkpt><trkpt lat="44.487938" lon="7.9020859"><ele>285.0</ele><time>2026-04-30T14:27:27.51Z</time></trkpt><trkpt lat="44.4881201" lon="7.9022526"><ele>285.0</ele><time>2026-04-30T14:27:28.496Z</time></trkpt><trkpt lat="44.4883313" lon="7.9024378"><ele>285.0</ele><time>2026-04-30T14:27:29.541Z</time></trkpt><trkpt lat="44.4885416" lon="7.9026139"><ele>285.0</ele><time>2026-04-30T14:27:30.557Z</time></trkpt><trkpt lat="44.4887492" lon="7.9027861"><ele>285.0</ele><time>2026-04-30T14:27:31.537Z</time></trkpt><trkpt lat="44.4889761" lon="7.9029803"><ele>285.0</ele><time>2026-04-30T14:27:32.548Z</time></trkpt><trkpt lat="44.4892095" lon="7.9031764"><ele>285.0</ele><time>2026-04-30T14:27:33.568Z</time></trkpt><trkpt lat="44.4894195" lon="7.9033635"><ele>283.5</ele><time>2026-04-30T14:27:34.518Z</time></trkpt><trkpt lat="44.4896584" lon="7.9035753"><ele>282.0</ele><time>2026-04-30T14:27:35.59Z</time></trkpt><trkpt lat="44.4898893" lon="7.9037789"><ele>282.0</ele><time>2026-04-30T14:27:36.617Z</time></trkpt><trkpt lat="44.4903191" lon="7.9041543"><ele>279.0</ele><time>2026-04-30T14:27:38.547Z</time></trkpt><trkpt lat="44.4905494" lon="7.9043579"><ele>276.0</ele><time>2026-04-30T14:27:39.568Z</time></trkpt><trkpt lat="44.4907793" lon="7.9045539"><ele>276.0</ele><time>2026-04-30T14:27:40.56Z</time></trkpt><trkpt lat="44.4910186" lon="7.9047628"><ele>276.0</ele><time>2026-04-30T14:27:41.601Z</time></trkpt><trkpt lat="44.4912352" lon="7.9049482"><ele>272.0</ele><time>2026-04-30T14:27:42.534Z</time></trkpt><trkpt lat="44.4914781" lon="7.9051566"><ele>268.0</ele><time>2026-04-30T14:27:43.586Z</time></trkpt><trkpt lat="44.4916896" lon="7.9053356"><ele>268.0</ele><time>2026-04-30T14:27:44.506Z</time></trkpt><trkpt lat="44.4919312" lon="7.9055423"><ele>268.0</ele><time>2026-04-30T14:27:45.558Z</time></trkpt><trkpt lat="44.4921557" lon="7.9057317"><ele>268.0</ele><time>2026-04-30T14:27:46.526Z</time></trkpt><trkpt lat="44.4924009" lon="7.9059279"><ele>268.0</ele><time>2026-04-30T14:27:47.559Z</time></trkpt><trkpt lat="44.4926407" lon="7.9061021"><ele>268.0</ele><time>2026-04-30T14:27:48.541Z</time></trkpt><trkpt lat="44.492908" lon="7.9062761"><ele>268.0</ele><time>2026-04-30T14:27:49.614Z</time></trkpt><trkpt lat="44.4931376" lon="7.9064021"><ele>266.5</ele><time>2026-04-30T14:27:50.514Z</time></trkpt><trkpt lat="44.4933987" lon="7.9065244"><ele>265.0</ele><time>2026-04-30T14:27:51.519Z</time></trkpt><trkpt lat="44.4936661" lon="7.9066337"><ele>262.5</ele><time>2026-04-30T14:27:52.516Z</time></trkpt><trkpt lat="44.4939726" lon="7.9067437"><ele>260.0</ele><time>2026-04-30T14:27:53.612Z</time></trkpt><trkpt lat="44.4945314" lon="7.9068689"><ele>259.5</ele><time>2026-04-30T14:27:55.518Z</time></trkpt><trkpt lat="44.4948488" lon="7.906908"><ele>259.0</ele><time>2026-04-30T14:27:56.582Z</time></trkpt><trkpt lat="44.4951323" lon="7.9069183"><ele>258.0</ele><time>2026-04-30T14:27:57.541Z</time></trkpt><trkpt lat="44.4954321" lon="7.9069092"><ele>257.0</ele><time>2026-04-30T14:27:58.568Z</time></trkpt><trkpt lat="44.4957273" lon="7.9068781"><ele>257.0</ele><time>2026-04-30T14:27:59.591Z</time></trkpt><trkpt lat="44.4959992" lon="7.9068351"><ele>257.0</ele><time>2026-04-30T14:28:00.537Z</time></trkpt><trkpt lat="44.4962728" lon="7.9067798"><ele>256.0</ele><time>2026-04-30T14:28:01.498Z</time></trkpt><trkpt lat="44.4965756" lon="7.9067071"><ele>255.0</ele><time>2026-04-30T14:28:02.574Z</time></trkpt><trkpt lat="44.4968575" lon="7.9066351"><ele>255.0</ele><time>2026-04-30T14:28:03.581Z</time></trkpt><trkpt lat="44.4971146" lon="7.9065623"><ele>255.0</ele><time>2026-04-30T14:28:04.513Z</time></trkpt><trkpt lat="44.4973983" lon="7.9064869"><ele>255.0</ele><time>2026-04-30T14:28:05.54Z</time></trkpt><trkpt lat="44.4976563" lon="7.9064207"><ele>255.0</ele><time>2026-04-30T14:28:06.479Z</time></trkpt><trkpt lat="44.497944" lon="7.906351"><ele>253.0</ele><time>2026-04-30T14:28:07.526Z</time></trkpt><trkpt lat="44.4982218" lon="7.9062844"><ele>251.0</ele><time>2026-04-30T14:28:08.558Z</time></trkpt><trkpt lat="44.4984778" lon="7.9062234"><ele>251.0</ele><time>2026-04-30T14:28:09.541Z</time></trkpt><trkpt lat="44.4987198" lon="7.9061667"><ele>251.0</ele><time>2026-04-30T14:28:10.493Z</time></trkpt><trkpt lat="44.4989752" lon="7.906098"><ele>256.0</ele><time>2026-04-30T14:28:11.538Z</time></trkpt><trkpt lat="44.499218" lon="7.9060286"><ele>261.0</ele><time>2026-04-30T14:28:12.542Z</time></trkpt><trkpt lat="44.499458" lon="7.9059631"><ele>259.0</ele><time>2026-04-30T14:28:13.505Z</time></trkpt><trkpt lat="44.4997144" lon="7.905894"><ele>257.0</ele><time>2026-04-30T14:28:14.499Z</time></trkpt><trkpt lat="44.4999971" lon="7.9058239"><ele>257.0</ele><time>2026-04-30T14:28:15.585Z</time></trkpt><trkpt lat="44.5002593" lon="7.9057603"><ele>257.0</ele><time>2026-04-30T14:28:16.578Z</time></trkpt><trkpt lat="44.5005186" lon="7.9056947"><ele>257.5</ele><time>2026-04-30T14:28:17.532Z</time></trkpt><trkpt lat="44.5008072" lon="7.905617"><ele>258.0</ele><time>2026-04-30T14:28:18.55Z</time></trkpt><trkpt lat="44.5010962" lon="7.9055372"><ele>256.5</ele><time>2026-04-30T14:28:19.546Z</time></trkpt><trkpt lat="44.5013694" lon="7.905469"><ele>255.0</ele><time>2026-04-30T14:28:20.495Z</time></trkpt><trkpt lat="44.5017103" lon="7.9053883"><ele>253.0</ele><time>2026-04-30T14:28:21.663Z</time></trkpt><trkpt lat="44.5022572" lon="7.9052551"><ele>253.0</ele><time>2026-04-30T14:28:23.545Z</time></trkpt><trkpt lat="44.5025461" lon="7.9051852"><ele>253.0</ele><time>2026-04-30T14:28:24.55Z</time></trkpt><trkpt lat="44.5028151" lon="7.9051166"><ele>253.5</ele><time>2026-04-30T14:28:25.501Z</time></trkpt><trkpt lat="44.5030927" lon="7.9050439"><ele>254.0</ele><time>2026-04-30T14:28:26.498Z</time></trkpt><trkpt lat="44.5033845" lon="7.9049647"><ele>254.0</ele><time>2026-04-30T14:28:27.546Z</time></trkpt><trkpt lat="44.5036583" lon="7.9048904"><ele>254.0</ele><time>2026-04-30T14:28:28.555Z</time></trkpt><trkpt lat="44.5039203" lon="7.9048294"><ele>251.5</ele><time>2026-04-30T14:28:29.487Z</time></trkpt><trkpt lat="44.5041985" lon="7.9047579"><ele>249.0</ele><time>2026-04-30T14:28:30.526Z</time></trkpt><trkpt lat="44.5044827" lon="7.9046857"><ele>247.5</ele><time>2026-04-30T14:28:31.579Z</time></trkpt><trkpt lat="44.5047417" lon="7.904622"><ele>246.0</ele><time>2026-04-30T14:28:32.54Z</time></trkpt><trkpt lat="44.5050106" lon="7.9045555"><ele>246.0</ele><time>2026-04-30T14:28:33.537Z</time></trkpt><trkpt lat="44.5052864" lon="7.904484"><ele>246.0</ele><time>2026-04-30T14:28:34.561Z</time></trkpt><trkpt lat="44.5055325" lon="7.9044136"><ele>249.5</ele><time>2026-04-30T14:28:35.485Z</time></trkpt><trkpt lat="44.5057921" lon="7.9043455"><ele>253.0</ele><time>2026-04-30T14:28:36.472Z</time></trkpt><trkpt lat="44.5061006" lon="7.9042642"><ele>256.5</ele><time>2026-04-30T14:28:37.633Z</time></trkpt><trkpt lat="44.5063429" lon="7.9042016"><ele>260.0</ele><time>2026-04-30T14:28:38.558Z</time></trkpt><trkpt lat="44.5065932" lon="7.9041362"><ele>260.0</ele><time>2026-04-30T14:28:39.498Z</time></trkpt><trkpt lat="44.506844" lon="7.90407"><ele>260.0</ele><time>2026-04-30T14:28:40.433Z</time></trkpt><trkpt lat="44.5071298" lon="7.9040005"><ele>260.0</ele><time>2026-04-30T14:28:41.52Z</time></trkpt><trkpt lat="44.5074101" lon="7.903925"><ele>260.0</ele><time>2026-04-30T14:28:42.663Z</time></trkpt><trkpt lat="44.5078396" lon="7.903821"><ele>259.6666666666667</ele><time>2026-04-30T14:28:44.558Z</time></trkpt><trkpt lat="44.5080525" lon="7.903765"><ele>259.3333333333333</ele><time>2026-04-30T14:28:45.566Z</time></trkpt><trkpt lat="44.508253" lon="7.9037146"><ele>259.0</ele><time>2026-04-30T14:28:46.518Z</time></trkpt><trkpt lat="44.5084806" lon="7.9036635"><ele>259.0</ele><time>2026-04-30T14:28:47.541Z</time></trkpt><trkpt lat="44.5087175" lon="7.9036093"><ele>259.0</ele><time>2026-04-30T14:28:48.564Z</time></trkpt><trkpt lat="44.5089564" lon="7.9035604"><ele>253.5</ele><time>2026-04-30T14:28:49.561Z</time></trkpt><trkpt lat="44.5092203" lon="7.9035005"><ele>248.0</ele><time>2026-04-30T14:28:50.65Z</time></trkpt><trkpt lat="44.5094718" lon="7.9034398"><ele>245.5</ele><time>2026-04-30T14:28:51.664Z</time></trkpt><trkpt lat="44.5096985" lon="7.9033823"><ele>243.0</ele><time>2026-04-30T14:28:52.561Z</time></trkpt><trkpt lat="44.5100101" lon="7.9032969"><ele>243.0</ele><time>2026-04-30T14:28:53.803Z</time></trkpt><trkpt lat="44.5102425" lon="7.90323"><ele>243.0</ele><time>2026-04-30T14:28:54.708Z</time></trkpt><trkpt lat="44.5104957" lon="7.9031589"><ele>238.0</ele><time>2026-04-30T14:28:55.691Z</time></trkpt><trkpt lat="44.5109749" lon="7.9030294"><ele>238.0</ele><time>2026-04-30T14:28:57.568Z</time></trkpt><trkpt lat="44.5112246" lon="7.9029652"><ele>238.0</ele><time>2026-04-30T14:28:58.543Z</time></trkpt><trkpt lat="44.5114838" lon="7.9028979"><ele>239.5</ele><time>2026-04-30T14:28:59.558Z</time></trkpt><trkpt lat="44.5117551" lon="7.9028289"><ele>241.0</ele><time>2026-04-30T14:29:00.616Z</time></trkpt><trkpt lat="44.5122462" lon="7.9027119"><ele>242.5</ele><time>2026-04-30T14:29:02.575Z</time></trkpt><trkpt lat="44.5124906" lon="7.9026516"><ele>244.0</ele><time>2026-04-30T14:29:03.544Z</time></trkpt><trkpt lat="44.5127661" lon="7.9025781"><ele>244.5</ele><time>2026-04-30T14:29:04.635Z</time></trkpt><trkpt lat="44.5130124" lon="7.9025085"><ele>245.0</ele><time>2026-04-30T14:29:05.592Z</time></trkpt><trkpt lat="44.5132653" lon="7.9024374"><ele>245.0</ele><time>2026-04-30T14:29:06.566Z</time></trkpt><trkpt lat="44.5135186" lon="7.9023706"><ele>245.0</ele><time>2026-04-30T14:29:07.539Z</time></trkpt><trkpt lat="44.5137938" lon="7.9023008"><ele>246.0</ele><time>2026-04-30T14:29:08.588Z</time></trkpt><trkpt lat="44.514102" lon="7.9022246"><ele>247.0</ele><time>2026-04-30T14:29:09.75Z</time></trkpt><trkpt lat="44.5145674" lon="7.9021069"><ele>246.5</ele><time>2026-04-30T14:29:11.485Z</time></trkpt><trkpt lat="44.5148558" lon="7.9020314"><ele>246.0</ele><time>2026-04-30T14:29:12.572Z</time></trkpt><trkpt lat="44.5151073" lon="7.9019655"><ele>246.0</ele><time>2026-04-30T14:29:13.516Z</time></trkpt><trkpt lat="44.515393" lon="7.901892"><ele>246.0</ele><time>2026-04-30T14:29:14.587Z</time></trkpt><trkpt lat="44.5156458" lon="7.9018247"><ele>243.5</ele><time>2026-04-30T14:29:15.535Z</time></trkpt><trkpt lat="44.5159244" lon="7.9017554"><ele>241.0</ele><time>2026-04-30T14:29:16.545Z</time></trkpt><trkpt lat="44.5161762" lon="7.9016898"><ele>238.5</ele><time>2026-04-30T14:29:17.48Z</time></trkpt><trkpt lat="44.5164503" lon="7.9016186"><ele>236.0</ele><time>2026-04-30T14:29:18.5Z</time></trkpt><trkpt lat="44.516721" lon="7.9015491"><ele>236.0</ele><time>2026-04-30T14:29:19.524Z</time></trkpt><trkpt lat="44.5169679" lon="7.9014861"><ele>236.0</ele><time>2026-04-30T14:29:20.461Z</time></trkpt><trkpt lat="44.5172561" lon="7.9014148"><ele>235.0</ele><time>2026-04-30T14:29:21.542Z</time></trkpt><trkpt lat="44.5175096" lon="7.901352"><ele>234.0</ele><time>2026-04-30T14:29:22.502Z</time></trkpt><trkpt lat="44.5177873" lon="7.9012796"><ele>238.0</ele><time>2026-04-30T14:29:23.568Z</time></trkpt><trkpt lat="44.5180412" lon="7.9012103"><ele>242.0</ele><time>2026-04-30T14:29:24.537Z</time></trkpt><trkpt lat="44.518314" lon="7.9011414"><ele>242.0</ele><time>2026-04-30T14:29:25.557Z</time></trkpt><trkpt lat="44.5185877" lon="7.9010722"><ele>242.0</ele><time>2026-04-30T14:29:26.602Z</time></trkpt><trkpt lat="44.5190953" lon="7.9009447"><ele>242.0</ele><time>2026-04-30T14:29:28.511Z</time></trkpt><trkpt lat="44.5193671" lon="7.9008732"><ele>242.0</ele><time>2026-04-30T14:29:29.518Z</time></trkpt><trkpt lat="44.5196342" lon="7.9008018"><ele>242.0</ele><time>2026-04-30T14:29:30.515Z</time></trkpt><trkpt lat="44.5198994" lon="7.9007353"><ele>242.0</ele><time>2026-04-30T14:29:31.502Z</time></trkpt><trkpt lat="44.5202001" lon="7.9006569"><ele>241.5</ele><time>2026-04-30T14:29:32.613Z</time></trkpt><trkpt lat="44.5204443" lon="7.9005943"><ele>241.0</ele><time>2026-04-30T14:29:33.516Z</time></trkpt><trkpt lat="44.5207296" lon="7.9005203"><ele>241.0</ele><time>2026-04-30T14:29:34.571Z</time></trkpt><trkpt lat="44.520995" lon="7.9004557"><ele>241.0</ele><time>2026-04-30T14:29:35.581Z</time></trkpt><trkpt lat="44.5213189" lon="7.9003811"><ele>241.0</ele><time>2026-04-30T14:29:36.809Z</time></trkpt><trkpt lat="44.5217769" lon="7.9002983"><ele>241.0</ele><time>2026-04-30T14:29:38.583Z</time></trkpt><trkpt lat="44.5220152" lon="7.9002636"><ele>241.0</ele><time>2026-04-30T14:29:39.515Z</time></trkpt><trkpt lat="44.5223075" lon="7.9002249"><ele>241.5</ele><time>2026-04-30T14:29:40.631Z</time></trkpt><trkpt lat="44.5225572" lon="7.900195"><ele>242.0</ele><time>2026-04-30T14:29:41.61Z</time></trkpt><trkpt lat="44.5227873" lon="7.9001691"><ele>242.0</ele><time>2026-04-30T14:29:42.587Z</time></trkpt><trkpt lat="44.5230103" lon="7.9001463"><ele>242.0</ele><time>2026-04-30T14:29:43.582Z</time></trkpt><trkpt lat="44.5232253" lon="7.9001292"><ele>242.0</ele><time>2026-04-30T14:29:44.546Z</time></trkpt><trkpt lat="44.5234285" lon="7.9001144"><ele>242.0</ele><time>2026-04-30T14:29:45.511Z</time></trkpt><trkpt lat="44.5236482" lon="7.9001061"><ele>242.0</ele><time>2026-04-30T14:29:46.55Z</time></trkpt><trkpt lat="44.5238622" lon="7.9000973"><ele>242.0</ele><time>2026-04-30T14:29:47.543Z</time></trkpt><trkpt lat="44.5240756" lon="7.9000954"><ele>242.0</ele><time>2026-04-30T14:29:48.562Z</time></trkpt><trkpt lat="44.5243195" lon="7.9000896"><ele>242.0</ele><time>2026-04-30T14:29:49.711Z</time></trkpt><trkpt lat="44.5247035" lon="7.90008"><ele>242.0</ele><time>2026-04-30T14:29:51.56Z</time></trkpt><trkpt lat="44.524938" lon="7.9000724"><ele>242.0</ele><time>2026-04-30T14:29:52.601Z</time></trkpt><trkpt lat="44.5251602" lon="7.9000646"><ele>243.0</ele><time>2026-04-30T14:29:53.552Z</time></trkpt><trkpt lat="44.5254001" lon="7.9000492"><ele>244.0</ele><time>2026-04-30T14:29:54.564Z</time></trkpt><trkpt lat="44.5256374" lon="7.9000406"><ele>244.0</ele><time>2026-04-30T14:29:55.505Z</time></trkpt><trkpt lat="44.5259517" lon="7.9000369"><ele>244.0</ele><time>2026-04-30T14:29:56.707Z</time></trkpt><trkpt lat="44.5264563" lon="7.900031"><ele>243.5</ele><time>2026-04-30T14:29:58.56Z</time></trkpt><trkpt lat="44.5267088" lon="7.9000326"><ele>243.0</ele><time>2026-04-30T14:29:59.525Z</time></trkpt><trkpt lat="44.526969" lon="7.900033"><ele>246.0</ele><time>2026-04-30T14:30:00.544Z</time></trkpt><trkpt lat="44.5272161" lon="7.900036"><ele>249.0</ele><time>2026-04-30T14:30:01.553Z</time></trkpt><trkpt lat="44.5274496" lon="7.9000339"><ele>249.0</ele><time>2026-04-30T14:30:02.571Z</time></trkpt><trkpt lat="44.5276435" lon="7.9000297"><ele>249.0</ele><time>2026-04-30T14:30:03.511Z</time></trkpt><trkpt lat="44.5278371" lon="7.9000258"><ele>249.0</ele><time>2026-04-30T14:30:04.457Z</time></trkpt><trkpt lat="44.5280436" lon="7.9000251"><ele>250.66666666666669</ele><time>2026-04-30T14:30:05.495Z</time></trkpt><trkpt lat="44.5282591" lon="7.9000276"><ele>252.33333333333334</ele><time>2026-04-30T14:30:06.528Z</time></trkpt><trkpt lat="44.5284661" lon="7.9000279"><ele>254.0</ele><time>2026-04-30T14:30:07.475Z</time></trkpt><trkpt lat="44.528697" lon="7.9000225"><ele>251.5</ele><time>2026-04-30T14:30:08.483Z</time></trkpt><trkpt lat="44.5289538" lon="7.9000155"><ele>249.0</ele><time>2026-04-30T14:30:09.544Z</time></trkpt><trkpt lat="44.529202" lon="7.9000099"><ele>249.0</ele><time>2026-04-30T14:30:10.555Z</time></trkpt><trkpt lat="44.5294615" lon="7.900007"><ele>249.0</ele><time>2026-04-30T14:30:11.588Z</time></trkpt><trkpt lat="44.5297079" lon="7.9000043"><ele>250.0</ele><time>2026-04-30T14:30:12.57Z</time></trkpt><trkpt lat="44.5299464" lon="7.9000011"><ele>251.0</ele><time>2026-04-30T14:30:13.519Z</time></trkpt><trkpt lat="44.530215" lon="7.8999974"><ele>251.0</ele><time>2026-04-30T14:30:14.522Z</time></trkpt><trkpt lat="44.5304934" lon="7.8999962"><ele>251.0</ele><time>2026-04-30T14:30:15.548Z</time></trkpt><trkpt lat="44.5307594" lon="7.8999913"><ele>251.0</ele><time>2026-04-30T14:30:16.53Z</time></trkpt><trkpt lat="44.5310158" lon="7.8999823"><ele>251.0</ele><time>2026-04-30T14:30:17.457Z</time></trkpt><trkpt lat="44.5312996" lon="7.8999774"><ele>251.0</ele><time>2026-04-30T14:30:18.474Z</time></trkpt><trkpt lat="44.5316009" lon="7.899971"><ele>251.0</ele><time>2026-04-30T14:30:19.549Z</time></trkpt><trkpt lat="44.5318923" lon="7.8999656"><ele>251.0</ele><time>2026-04-30T14:30:20.575Z</time></trkpt><trkpt lat="44.5321806" lon="7.8999581"><ele>251.0</ele><time>2026-04-30T14:30:21.618Z</time></trkpt><trkpt lat="44.5324253" lon="7.8999557"><ele>251.0</ele><time>2026-04-30T14:30:22.49Z</time></trkpt><trkpt lat="44.5327027" lon="7.8999515"><ele>251.0</ele><time>2026-04-30T14:30:23.466Z</time></trkpt><trkpt lat="44.5330078" lon="7.8999442"><ele>250.0</ele><time>2026-04-30T14:30:24.567Z</time></trkpt><trkpt lat="44.5332688" lon="7.8999411"><ele>249.0</ele><time>2026-04-30T14:30:25.489Z</time></trkpt><trkpt lat="44.5336149" lon="7.8999339"><ele>248.0</ele><time>2026-04-30T14:30:26.686Z</time></trkpt><trkpt lat="44.5341444" lon="7.8999252"><ele>248.0</ele><time>2026-04-30T14:30:28.555Z</time></trkpt><trkpt lat="44.5344367" lon="7.8999189"><ele>248.0</ele><time>2026-04-30T14:30:29.577Z</time></trkpt><trkpt lat="44.5347181" lon="7.8999154"><ele>249.0</ele><time>2026-04-30T14:30:30.554Z</time></trkpt><trkpt lat="44.5350134" lon="7.8999097"><ele>250.0</ele><time>2026-04-30T14:30:31.582Z</time></trkpt><trkpt lat="44.5353015" lon="7.8999066"><ele>250.5</ele><time>2026-04-30T14:30:32.554Z</time></trkpt><trkpt lat="44.5355876" lon="7.8998998"><ele>251.0</ele><time>2026-04-30T14:30:33.548Z</time></trkpt><trkpt lat="44.5358813" lon="7.8998918"><ele>249.5</ele><time>2026-04-30T14:30:34.573Z</time></trkpt><trkpt lat="44.5362205" lon="7.8998846"><ele>248.0</ele><time>2026-04-30T14:30:35.752Z</time></trkpt><trkpt lat="44.5367331" lon="7.8998726"><ele>248.0</ele><time>2026-04-30T14:30:37.537Z</time></trkpt><trkpt lat="44.537048" lon="7.8998576"><ele>248.0</ele><time>2026-04-30T14:30:38.646Z</time></trkpt><trkpt lat="44.5373124" lon="7.8998368"><ele>247.5</ele><time>2026-04-30T14:30:39.563Z</time></trkpt><trkpt lat="44.5376095" lon="7.8998001"><ele>247.0</ele><time>2026-04-30T14:30:40.601Z</time></trkpt><trkpt lat="44.537886" lon="7.8997475"><ele>247.0</ele><time>2026-04-30T14:30:41.561Z</time></trkpt><trkpt lat="44.5381591" lon="7.8996893"><ele>247.0</ele><time>2026-04-30T14:30:42.505Z</time></trkpt><trkpt lat="44.5384862" lon="7.8996006"><ele>242.0</ele><time>2026-04-30T14:30:43.652Z</time></trkpt><trkpt lat="44.5390109" lon="7.8994315"><ele>242.0</ele><time>2026-04-30T14:30:45.515Z</time></trkpt><trkpt lat="44.5392702" lon="7.899352"><ele>242.0</ele><time>2026-04-30T14:30:46.445Z</time></trkpt><trkpt lat="44.53956" lon="7.8992548"><ele>239.5</ele><time>2026-04-30T14:30:47.501Z</time></trkpt><trkpt lat="44.5398476" lon="7.8991651"><ele>237.0</ele><time>2026-04-30T14:30:48.55Z</time></trkpt><trkpt lat="44.5401205" lon="7.8990806"><ele>234.5</ele><time>2026-04-30T14:30:49.545Z</time></trkpt><trkpt lat="44.5404206" lon="7.8989845"><ele>232.0</ele><time>2026-04-30T14:30:50.629Z</time></trkpt><trkpt lat="44.54098" lon="7.8988055"><ele>231.5</ele><time>2026-04-30T14:30:52.599Z</time></trkpt><trkpt lat="44.5412866" lon="7.8987182"><ele>231.0</ele><time>2026-04-30T14:30:53.66Z</time></trkpt><trkpt lat="44.5415546" lon="7.898641"><ele>231.0</ele><time>2026-04-30T14:30:54.608Z</time></trkpt><trkpt lat="44.5418119" lon="7.8985661"><ele>231.0</ele><time>2026-04-30T14:30:55.528Z</time></trkpt><trkpt lat="44.5421118" lon="7.898475"><ele>231.0</ele><time>2026-04-30T14:30:56.593Z</time></trkpt><trkpt lat="44.5424028" lon="7.8983849"><ele>231.0</ele><time>2026-04-30T14:30:57.622Z</time></trkpt><trkpt lat="44.5426894" lon="7.8982964"><ele>231.5</ele><time>2026-04-30T14:30:58.619Z</time></trkpt><trkpt lat="44.5429828" lon="7.8982055"><ele>232.0</ele><time>2026-04-30T14:30:59.64Z</time></trkpt><trkpt lat="44.5432869" lon="7.8981115"><ele>229.0</ele><time>2026-04-30T14:31:00.696Z</time></trkpt><trkpt lat="44.5438943" lon="7.8979182"><ele>229.0</ele><time>2026-04-30T14:31:02.828Z</time></trkpt><trkpt lat="44.5444094" lon="7.8977608"><ele>229.0</ele><time>2026-04-30T14:31:04.637Z</time></trkpt><trkpt lat="44.5449427" lon="7.8975979"><ele>229.0</ele><time>2026-04-30T14:31:06.497Z</time></trkpt><trkpt lat="44.5452458" lon="7.897505"><ele>229.0</ele><time>2026-04-30T14:31:07.557Z</time></trkpt><trkpt lat="44.5455287" lon="7.8974179"><ele>229.0</ele><time>2026-04-30T14:31:08.553Z</time></trkpt><trkpt lat="44.5457959" lon="7.8973334"><ele>229.0</ele><time>2026-04-30T14:31:09.501Z</time></trkpt><trkpt lat="44.5460855" lon="7.8972447"><ele>229.0</ele><time>2026-04-30T14:31:10.522Z</time></trkpt><trkpt lat="44.5463882" lon="7.8971567"><ele>229.0</ele><time>2026-04-30T14:31:11.576Z</time></trkpt><trkpt lat="44.546672" lon="7.8970705"><ele>229.0</ele><time>2026-04-30T14:31:12.571Z</time></trkpt><trkpt lat="44.5469327" lon="7.8969897"><ele>229.0</ele><time>2026-04-30T14:31:13.48Z</time></trkpt><trkpt lat="44.5472219" lon="7.8969058"><ele>229.0</ele><time>2026-04-30T14:31:14.5Z</time></trkpt><trkpt lat="44.5475395" lon="7.8968226"><ele>229.0</ele><time>2026-04-30T14:31:15.623Z</time></trkpt><trkpt lat="44.5477955" lon="7.8967738"><ele>230.5</ele><time>2026-04-30T14:31:16.534Z</time></trkpt><trkpt lat="44.5480774" lon="7.8967339"><ele>232.0</ele><time>2026-04-30T14:31:17.563Z</time></trkpt><trkpt lat="44.548338" lon="7.8967177"><ele>232.0</ele><time>2026-04-30T14:31:18.539Z</time></trkpt><trkpt lat="44.548596" lon="7.8967074"><ele>232.0</ele><time>2026-04-30T14:31:19.572Z</time></trkpt><trkpt lat="44.5488177" lon="7.8967087"><ele>233.0</ele><time>2026-04-30T14:31:20.511Z</time></trkpt><trkpt lat="44.5490442" lon="7.8967217"><ele>234.0</ele><time>2026-04-30T14:31:21.511Z</time></trkpt><trkpt lat="44.5492761" lon="7.8967401"><ele>232.0</ele><time>2026-04-30T14:31:22.567Z</time></trkpt><trkpt lat="44.5494852" lon="7.8967623"><ele>230.0</ele><time>2026-04-30T14:31:23.577Z</time></trkpt><trkpt lat="44.5497208" lon="7.8967937"><ele>228.0</ele><time>2026-04-30T14:31:24.803Z</time></trkpt><trkpt lat="44.5500307" lon="7.8968569"><ele>228.0</ele><time>2026-04-30T14:31:26.565Z</time></trkpt><trkpt lat="44.5501948" lon="7.8968953"><ele>228.0</ele><time>2026-04-30T14:31:27.541Z</time></trkpt><trkpt lat="44.5503675" lon="7.8969277"><ele>228.0</ele><time>2026-04-30T14:31:28.526Z</time></trkpt><trkpt lat="44.5505487" lon="7.8969624"><ele>230.0</ele><time>2026-04-30T14:31:29.526Z</time></trkpt><trkpt lat="44.5507278" lon="7.8970019"><ele>232.0</ele><time>2026-04-30T14:31:30.545Z</time></trkpt><trkpt lat="44.5509118" lon="7.8970334"><ele>234.0</ele><time>2026-04-30T14:31:31.557Z</time></trkpt><trkpt lat="44.5510938" lon="7.8970602"><ele>237.5</ele><time>2026-04-30T14:31:32.537Z</time></trkpt><trkpt lat="44.5512844" lon="7.8970896"><ele>241.0</ele><time>2026-04-30T14:31:33.587Z</time></trkpt><trkpt lat="44.5516304" lon="7.8971513"><ele>241.0</ele><time>2026-04-30T14:31:35.511Z</time></trkpt><trkpt lat="44.5518181" lon="7.8971801"><ele>241.0</ele><time>2026-04-30T14:31:36.538Z</time></trkpt><trkpt lat="44.5519904" lon="7.8972089"><ele>241.0</ele><time>2026-04-30T14:31:37.512Z</time></trkpt><trkpt lat="44.5521854" lon="7.8972413"><ele>241.66666666666666</ele><time>2026-04-30T14:31:38.627Z</time></trkpt><trkpt lat="44.552342" lon="7.8972692"><ele>242.33333333333331</ele><time>2026-04-30T14:31:39.551Z</time></trkpt><trkpt lat="44.5525135" lon="7.8972978"><ele>243.0</ele><time>2026-04-30T14:31:40.559Z</time></trkpt><trkpt lat="44.552672" lon="7.8973266"><ele>243.0</ele><time>2026-04-30T14:31:41.475Z</time></trkpt><trkpt lat="44.5528689" lon="7.8973624"><ele>243.0</ele><time>2026-04-30T14:31:42.592Z</time></trkpt><trkpt lat="44.5530374" lon="7.8973932"><ele>243.0</ele><time>2026-04-30T14:31:43.537Z</time></trkpt><trkpt lat="44.5532363" lon="7.8974279"><ele>246.0</ele><time>2026-04-30T14:31:44.691Z</time></trkpt><trkpt lat="44.5535331" lon="7.897478"><ele>249.0</ele><time>2026-04-30T14:31:46.477Z</time></trkpt><trkpt lat="44.5537166" lon="7.8975102"><ele>249.33333333333331</ele><time>2026-04-30T14:31:47.565Z</time></trkpt><trkpt lat="44.5538758" lon="7.8975358"><ele>249.66666666666666</ele><time>2026-04-30T14:31:48.505Z</time></trkpt><trkpt lat="44.5540471" lon="7.8975654"><ele>250.0</ele><time>2026-04-30T14:31:49.484Z</time></trkpt><trkpt lat="44.5542217" lon="7.8975973"><ele>248.0</ele><time>2026-04-30T14:31:50.504Z</time></trkpt><trkpt lat="44.5543993" lon="7.8976296"><ele>246.0</ele><time>2026-04-30T14:31:51.55Z</time></trkpt><trkpt lat="44.5545661" lon="7.8976607"><ele>244.0</ele><time>2026-04-30T14:31:52.523Z</time></trkpt><trkpt lat="44.5547428" lon="7.8976879"><ele>244.0</ele><time>2026-04-30T14:31:53.562Z</time></trkpt><trkpt lat="44.5549435" lon="7.8977185"><ele>244.0</ele><time>2026-04-30T14:31:54.75Z</time></trkpt><trkpt lat="44.5552478" lon="7.8977576"><ele>243.33333333333331</ele><time>2026-04-30T14:31:56.537Z</time></trkpt><trkpt lat="44.5554149" lon="7.8977709"><ele>242.66666666666669</ele><time>2026-04-30T14:31:57.529Z</time></trkpt><trkpt lat="44.5556049" lon="7.8977772"><ele>242.0</ele><time>2026-04-30T14:31:58.638Z</time></trkpt><trkpt lat="44.5558027" lon="7.8977805"><ele>242.0</ele><time>2026-04-30T14:31:59.776Z</time></trkpt><trkpt lat="44.5559643" lon="7.8977767"><ele>242.0</ele><time>2026-04-30T14:32:00.716Z</time></trkpt><trkpt lat="44.5562883" lon="7.8977599"><ele>241.66666666666669</ele><time>2026-04-30T14:32:02.567Z</time></trkpt><trkpt lat="44.55647" lon="7.8977435"><ele>241.33333333333331</ele><time>2026-04-30T14:32:03.558Z</time></trkpt><trkpt lat="44.5566514" lon="7.8977171"><ele>241.0</ele><time>2026-04-30T14:32:04.491Z</time></trkpt><trkpt lat="44.5568696" lon="7.8976769"><ele>240.66666666666666</ele><time>2026-04-30T14:32:05.561Z</time></trkpt><trkpt lat="44.5570828" lon="7.8976298"><ele>240.33333333333331</ele><time>2026-04-30T14:32:06.549Z</time></trkpt><trkpt lat="44.5573088" lon="7.8975803"><ele>240.0</ele><time>2026-04-30T14:32:07.539Z</time></trkpt><trkpt lat="44.5575376" lon="7.8975415"><ele>239.66666666666669</ele><time>2026-04-30T14:32:08.531Z</time></trkpt><trkpt lat="44.5577662" lon="7.8975166"><ele>239.33333333333334</ele><time>2026-04-30T14:32:09.532Z</time></trkpt><trkpt lat="44.5579809" lon="7.8974923"><ele>239.0</ele><time>2026-04-30T14:32:10.512Z</time></trkpt><trkpt lat="44.5582027" lon="7.8974626"><ele>239.0</ele><time>2026-04-30T14:32:11.578Z</time></trkpt><trkpt lat="44.5583991" lon="7.8974283"><ele>239.0</ele><time>2026-04-30T14:32:12.567Z</time></trkpt><trkpt lat="44.5586013" lon="7.8973926"><ele>239.0</ele><time>2026-04-30T14:32:13.606Z</time></trkpt><trkpt lat="44.5587686" lon="7.897364"><ele>238.33333333333334</ele><time>2026-04-30T14:32:14.487Z</time></trkpt><trkpt lat="44.5589501" lon="7.8973307"><ele>237.66666666666669</ele><time>2026-04-30T14:32:15.472Z</time></trkpt><trkpt lat="44.5591476" lon="7.8972971"><ele>237.0</ele><time>2026-04-30T14:32:16.542Z</time></trkpt><trkpt lat="44.5593593" lon="7.8972602"><ele>234.0</ele><time>2026-04-30T14:32:17.672Z</time></trkpt><trkpt lat="44.5595355" lon="7.8972295"><ele>231.0</ele><time>2026-04-30T14:32:18.625Z</time></trkpt><trkpt lat="44.5598702" lon="7.8971727"><ele>231.0</ele><time>2026-04-30T14:32:20.509Z</time></trkpt><trkpt lat="44.560057" lon="7.8971397"><ele>231.0</ele><time>2026-04-30T14:32:21.602Z</time></trkpt><trkpt lat="44.560219" lon="7.8971124"><ele>231.0</ele><time>2026-04-30T14:32:22.534Z</time></trkpt><trkpt lat="44.5603907" lon="7.8970792"><ele>230.66666666666669</ele><time>2026-04-30T14:32:23.514Z</time></trkpt><trkpt lat="44.5605763" lon="7.897046"><ele>230.33333333333334</ele><time>2026-04-30T14:32:24.596Z</time></trkpt><trkpt lat="44.5607524" lon="7.8970175"><ele>230.0</ele><time>2026-04-30T14:32:25.597Z</time></trkpt><trkpt lat="44.560911" lon="7.8969895"><ele>230.0</ele><time>2026-04-30T14:32:26.536Z</time></trkpt><trkpt lat="44.5610692" lon="7.8969648"><ele>230.0</ele><time>2026-04-30T14:32:27.48Z</time></trkpt><trkpt lat="44.5612491" lon="7.8969388"><ele>230.0</ele><time>2026-04-30T14:32:28.513Z</time></trkpt><trkpt lat="44.5614351" lon="7.8969097"><ele>228.5</ele><time>2026-04-30T14:32:29.544Z</time></trkpt><trkpt lat="44.5616185" lon="7.8968784"><ele>227.0</ele><time>2026-04-30T14:32:30.587Z</time></trkpt><trkpt lat="44.5619413" lon="7.8968194"><ele>227.66666666666669</ele><time>2026-04-30T14:32:32.488Z</time></trkpt><trkpt lat="44.5621161" lon="7.8967896"><ele>228.33333333333331</ele><time>2026-04-30T14:32:33.531Z</time></trkpt><trkpt lat="44.5622897" lon="7.8967616"><ele>229.0</ele><time>2026-04-30T14:32:34.541Z</time></trkpt><trkpt lat="44.5624593" lon="7.8967391"><ele>229.0</ele><time>2026-04-30T14:32:35.554Z</time></trkpt><trkpt lat="44.5626141" lon="7.8967205"><ele>229.0</ele><time>2026-04-30T14:32:36.483Z</time></trkpt><trkpt lat="44.5627836" lon="7.8967022"><ele>229.0</ele><time>2026-04-30T14:32:37.544Z</time></trkpt><trkpt lat="44.5629555" lon="7.8966839"><ele>228.0</ele><time>2026-04-30T14:32:38.711Z</time></trkpt><trkpt lat="44.5632081" lon="7.8966828"><ele>227.0</ele><time>2026-04-30T14:32:40.546Z</time></trkpt><trkpt lat="44.5633356" lon="7.8966902"><ele>226.0</ele><time>2026-04-30T14:32:41.551Z</time></trkpt><trkpt lat="44.5634683" lon="7.8967056"><ele>226.0</ele><time>2026-04-30T14:32:42.692Z</time></trkpt><trkpt lat="44.5636484" lon="7.8967275"><ele>226.00000000000003</ele><time>2026-04-30T14:32:44.563Z</time></trkpt><trkpt lat="44.5637227" lon="7.8967403"><ele>226.00000000000003</ele><time>2026-04-30T14:32:45.563Z</time></trkpt><trkpt lat="44.5637849" lon="7.896757"><ele>226.0</ele><time>2026-04-30T14:32:46.5Z</time></trkpt><trkpt lat="44.5638636" lon="7.8967878"><ele>226.0</ele><time>2026-04-30T14:32:47.553Z</time></trkpt><trkpt lat="44.5639333" lon="7.8968429"><ele>225.99999999999997</ele><time>2026-04-30T14:32:48.547Z</time></trkpt><trkpt lat="44.563994" lon="7.8969196"><ele>226.0</ele><time>2026-04-30T14:32:49.59Z</time></trkpt><trkpt lat="44.5640543" lon="7.8969903"><ele>226.0</ele><time>2026-04-30T14:32:50.523Z</time></trkpt><trkpt lat="44.5641196" lon="7.8970494"><ele>226.0</ele><time>2026-04-30T14:32:51.53Z</time></trkpt><trkpt lat="44.5641896" lon="7.8970874"><ele>225.99999999999997</ele><time>2026-04-30T14:32:52.555Z</time></trkpt><trkpt lat="44.5642644" lon="7.8971027"><ele>226.0</ele><time>2026-04-30T14:32:53.571Z</time></trkpt><trkpt lat="44.5643407" lon="7.8970789"><ele>225.99999999999997</ele><time>2026-04-30T14:32:54.589Z</time></trkpt><trkpt lat="44.5644098" lon="7.8970305"><ele>226.0</ele><time>2026-04-30T14:32:55.543Z</time></trkpt><trkpt lat="44.5644741" lon="7.8969652"><ele>226.0</ele><time>2026-04-30T14:32:56.528Z</time></trkpt><trkpt lat="44.5645346" lon="7.8969036"><ele>226.0</ele><time>2026-04-30T14:32:57.516Z</time></trkpt><trkpt lat="44.5646049" lon="7.8968508"><ele>225.99999999999997</ele><time>2026-04-30T14:32:58.528Z</time></trkpt><trkpt lat="44.5646927" lon="7.8968282"><ele>226.0</ele><time>2026-04-30T14:32:59.532Z</time></trkpt><trkpt lat="44.564786" lon="7.8968406"><ele>226.20000000000002</ele><time>2026-04-30T14:33:00.519Z</time></trkpt><trkpt lat="44.5648815" lon="7.896872"><ele>226.40000000000003</ele><time>2026-04-30T14:33:01.497Z</time></trkpt><trkpt lat="44.5649733" lon="7.8969126"><ele>226.6</ele><time>2026-04-30T14:33:02.475Z</time></trkpt><trkpt lat="44.5650784" lon="7.8969717"><ele>226.8</ele><time>2026-04-30T14:33:03.514Z</time></trkpt><trkpt lat="44.5651909" lon="7.8970402"><ele>227.0</ele><time>2026-04-30T14:33:04.502Z</time></trkpt><trkpt lat="44.5653022" lon="7.8971183"><ele>226.5</ele><time>2026-04-30T14:33:05.534Z</time></trkpt><trkpt lat="44.5654219" lon="7.8972038"><ele>226.0</ele><time>2026-04-30T14:33:06.534Z</time></trkpt><trkpt lat="44.5655587" lon="7.8973057"><ele>225.5</ele><time>2026-04-30T14:33:07.562Z</time></trkpt><trkpt lat="44.5656891" lon="7.8974004"><ele>225.0</ele><time>2026-04-30T14:33:08.567Z</time></trkpt><trkpt lat="44.5658166" lon="7.8974956"><ele>225.0</ele><time>2026-04-30T14:33:09.556Z</time></trkpt><trkpt lat="44.565942" lon="7.8975932"><ele>225.0</ele><time>2026-04-30T14:33:10.506Z</time></trkpt><trkpt lat="44.5660907" lon="7.8977141"><ele>225.0</ele><time>2026-04-30T14:33:11.594Z</time></trkpt><trkpt lat="44.5662263" lon="7.8978275"><ele>225.0</ele><time>2026-04-30T14:33:12.54Z</time></trkpt><trkpt lat="44.5663638" lon="7.8979522"><ele>225.0</ele><time>2026-04-30T14:33:13.508Z</time></trkpt><trkpt lat="44.5665166" lon="7.898096"><ele>225.0</ele><time>2026-04-30T14:33:14.551Z</time></trkpt><trkpt lat="44.5666643" lon="7.898253"><ele>224.0</ele><time>2026-04-30T14:33:15.644Z</time></trkpt><trkpt lat="44.5669044" lon="7.8985487"><ele>223.0</ele><time>2026-04-30T14:33:17.532Z</time></trkpt><trkpt lat="44.5670572" lon="7.8987501"><ele>223.0</ele><time>2026-04-30T14:33:18.73Z</time></trkpt><trkpt lat="44.567282" lon="7.8990853"><ele>223.0</ele><time>2026-04-30T14:33:20.533Z</time></trkpt><trkpt lat="44.5674046" lon="7.8992713"><ele>222.66666666666666</ele><time>2026-04-30T14:33:21.529Z</time></trkpt><trkpt lat="44.5675345" lon="7.8994679"><ele>222.33333333333331</ele><time>2026-04-30T14:33:22.566Z</time></trkpt><trkpt lat="44.5676732" lon="7.8996674"><ele>222.0</ele><time>2026-04-30T14:33:23.597Z</time></trkpt><trkpt lat="44.5677984" lon="7.8998595"><ele>222.33333333333331</ele><time>2026-04-30T14:33:24.598Z</time></trkpt><trkpt lat="44.5679257" lon="7.9000501"><ele>222.66666666666666</ele><time>2026-04-30T14:33:25.602Z</time></trkpt><trkpt lat="44.5680401" lon="7.9002251"><ele>223.0</ele><time>2026-04-30T14:33:26.525Z</time></trkpt><trkpt lat="44.5681629" lon="7.9004117"><ele>223.33333333333331</ele><time>2026-04-30T14:33:27.502Z</time></trkpt><trkpt lat="44.5682907" lon="7.9006043"><ele>223.66666666666669</ele><time>2026-04-30T14:33:28.502Z</time></trkpt><trkpt lat="44.5684212" lon="7.9008031"><ele>224.0</ele><time>2026-04-30T14:33:29.541Z</time></trkpt><trkpt lat="44.5685509" lon="7.9009904"><ele>224.0</ele><time>2026-04-30T14:33:30.559Z</time></trkpt><trkpt lat="44.5686752" lon="7.9011708"><ele>224.0</ele><time>2026-04-30T14:33:31.536Z</time></trkpt><trkpt lat="44.5688115" lon="7.9013699"><ele>224.0</ele><time>2026-04-30T14:33:32.601Z</time></trkpt><trkpt lat="44.5689128" lon="7.9015571"><ele>223.0</ele><time>2026-04-30T14:33:33.512Z</time></trkpt><trkpt lat="44.5690373" lon="7.9017542"><ele>222.0</ele><time>2026-04-30T14:33:34.537Z</time></trkpt><trkpt lat="44.5691539" lon="7.9019504"><ele>221.0</ele><time>2026-04-30T14:33:35.57Z</time></trkpt><trkpt lat="44.5692679" lon="7.9021292"><ele>221.0</ele><time>2026-04-30T14:33:36.553Z</time></trkpt><trkpt lat="44.5693874" lon="7.9023137"><ele>221.0</ele><time>2026-04-30T14:33:37.576Z</time></trkpt><trkpt lat="44.5694968" lon="7.9024924"><ele>221.0</ele><time>2026-04-30T14:33:38.539Z</time></trkpt><trkpt lat="44.5696378" lon="7.9027154"><ele>221.0</ele><time>2026-04-30T14:33:39.707Z</time></trkpt><trkpt lat="44.5698557" lon="7.903052"><ele>221.0</ele><time>2026-04-30T14:33:41.515Z</time></trkpt><trkpt lat="44.5699819" lon="7.9032413"><ele>219.66666666666669</ele><time>2026-04-30T14:33:42.535Z</time></trkpt><trkpt lat="44.5700967" lon="7.9034166"><ele>218.33333333333331</ele><time>2026-04-30T14:33:43.47Z</time></trkpt><trkpt lat="44.5702248" lon="7.9036158"><ele>217.0</ele><time>2026-04-30T14:33:44.545Z</time></trkpt><trkpt lat="44.5703404" lon="7.903792"><ele>217.0</ele><time>2026-04-30T14:33:45.515Z</time></trkpt><trkpt lat="44.570461" lon="7.9039797"><ele>217.0</ele><time>2026-04-30T14:33:46.552Z</time></trkpt><trkpt lat="44.5705756" lon="7.9041548"><ele>217.0</ele><time>2026-04-30T14:33:47.527Z</time></trkpt><trkpt lat="44.5706949" lon="7.9043396"><ele>217.0</ele><time>2026-04-30T14:33:48.559Z</time></trkpt><trkpt lat="44.570806" lon="7.9045127"><ele>217.0</ele><time>2026-04-30T14:33:49.534Z</time></trkpt><trkpt lat="44.5709237" lon="7.9046873"><ele>217.0</ele><time>2026-04-30T14:33:50.529Z</time></trkpt><trkpt lat="44.5710442" lon="7.904867"><ele>217.0</ele><time>2026-04-30T14:33:51.521Z</time></trkpt><trkpt lat="44.5711698" lon="7.9050556"><ele>217.0</ele><time>2026-04-30T14:33:52.571Z</time></trkpt><trkpt lat="44.57128" lon="7.9052238"><ele>217.0</ele><time>2026-04-30T14:33:53.494Z</time></trkpt><trkpt lat="44.5714035" lon="7.9054163"><ele>217.33333333333331</ele><time>2026-04-30T14:33:54.506Z</time></trkpt><trkpt lat="44.5715313" lon="7.9056113"><ele>217.66666666666669</ele><time>2026-04-30T14:33:55.546Z</time></trkpt><trkpt lat="44.5716537" lon="7.905796"><ele>218.0</ele><time>2026-04-30T14:33:56.545Z</time></trkpt><trkpt lat="44.5717789" lon="7.9059926"><ele>218.0</ele><time>2026-04-30T14:33:57.588Z</time></trkpt><trkpt lat="44.5718984" lon="7.906179"><ele>218.0</ele><time>2026-04-30T14:33:58.587Z</time></trkpt><trkpt lat="44.5720097" lon="7.9063567"><ele>218.0</ele><time>2026-04-30T14:33:59.532Z</time></trkpt><trkpt lat="44.5721329" lon="7.9065472"><ele>218.0</ele><time>2026-04-30T14:34:00.577Z</time></trkpt><trkpt lat="44.5722466" lon="7.906719"><ele>218.0</ele><time>2026-04-30T14:34:01.506Z</time></trkpt><trkpt lat="44.5723673" lon="7.9069053"><ele>218.0</ele><time>2026-04-30T14:34:02.494Z</time></trkpt><trkpt lat="44.5724995" lon="7.9071068"><ele>218.0</ele><time>2026-04-30T14:34:03.54Z</time></trkpt><trkpt lat="44.5726247" lon="7.9072991"><ele>218.0</ele><time>2026-04-30T14:34:04.55Z</time></trkpt><trkpt lat="44.5727471" lon="7.9074808"><ele>218.0</ele><time>2026-04-30T14:34:05.511Z</time></trkpt><trkpt lat="44.5728784" lon="7.9076739"><ele>218.33333333333334</ele><time>2026-04-30T14:34:06.537Z</time></trkpt><trkpt lat="44.5730101" lon="7.907848"><ele>218.66666666666669</ele><time>2026-04-30T14:34:07.541Z</time></trkpt><trkpt lat="44.5731475" lon="7.9080153"><ele>219.0</ele><time>2026-04-30T14:34:08.55Z</time></trkpt><trkpt lat="44.5732902" lon="7.9081725"><ele>219.0</ele><time>2026-04-30T14:34:09.548Z</time></trkpt><trkpt lat="44.5734318" lon="7.9083129"><ele>219.0</ele><time>2026-04-30T14:34:10.495Z</time></trkpt><trkpt lat="44.5735904" lon="7.908468"><ele>219.0</ele><time>2026-04-30T14:34:11.601Z</time></trkpt><trkpt lat="44.5737232" lon="7.9085898"><ele>218.33333333333331</ele><time>2026-04-30T14:34:12.514Z</time></trkpt><trkpt lat="44.5738856" lon="7.9087253"><ele>217.66666666666666</ele><time>2026-04-30T14:34:13.563Z</time></trkpt><trkpt lat="44.574027" lon="7.9088348"><ele>217.0</ele><time>2026-04-30T14:34:14.481Z</time></trkpt><trkpt lat="44.5741939" lon="7.9089522"><ele>217.0</ele><time>2026-04-30T14:34:15.536Z</time></trkpt><trkpt lat="44.5743442" lon="7.909049"><ele>217.0</ele><time>2026-04-30T14:34:16.493Z</time></trkpt><trkpt lat="44.5744965" lon="7.9091315"><ele>217.0</ele><time>2026-04-30T14:34:17.439Z</time></trkpt><trkpt lat="44.5746663" lon="7.9092137"><ele>217.33333333333331</ele><time>2026-04-30T14:34:18.482Z</time></trkpt><trkpt lat="44.5748312" lon="7.9092849"><ele>217.66666666666669</ele><time>2026-04-30T14:34:19.476Z</time></trkpt><trkpt lat="44.5750192" lon="7.9093545"><ele>218.0</ele><time>2026-04-30T14:34:20.585Z</time></trkpt><trkpt lat="44.5751978" lon="7.9094085"><ele>218.0</ele><time>2026-04-30T14:34:21.621Z</time></trkpt><trkpt lat="44.575358" lon="7.9094465"><ele>218.0</ele><time>2026-04-30T14:34:22.543Z</time></trkpt><trkpt lat="44.5755391" lon="7.9094801"><ele>218.0</ele><time>2026-04-30T14:34:23.568Z</time></trkpt><trkpt lat="44.5757053" lon="7.9095011"><ele>218.0</ele><time>2026-04-30T14:34:24.505Z</time></trkpt><trkpt lat="44.5759149" lon="7.9095154"><ele>218.0</ele><time>2026-04-30T14:34:25.713Z</time></trkpt><trkpt lat="44.5762298" lon="7.9095154"><ele>218.0</ele><time>2026-04-30T14:34:27.502Z</time></trkpt><trkpt lat="44.5763965" lon="7.9095083"><ele>218.0</ele><time>2026-04-30T14:34:28.456Z</time></trkpt><trkpt lat="44.5765804" lon="7.9095039"><ele>218.0</ele><time>2026-04-30T14:34:29.501Z</time></trkpt><trkpt lat="44.5767797" lon="7.9095015"><ele>218.0</ele><time>2026-04-30T14:34:30.61Z</time></trkpt><trkpt lat="44.5769558" lon="7.9094983"><ele>218.0</ele><time>2026-04-30T14:34:31.584Z</time></trkpt><trkpt lat="44.5771164" lon="7.9094947"><ele>218.0</ele><time>2026-04-30T14:34:32.493Z</time></trkpt><trkpt lat="44.5773079" lon="7.9094888"><ele>217.66666666666669</ele><time>2026-04-30T14:34:33.586Z</time></trkpt><trkpt lat="44.5774872" lon="7.9094867"><ele>217.33333333333331</ele><time>2026-04-30T14:34:34.592Z</time></trkpt><trkpt lat="44.5776492" lon="7.9094854"><ele>217.0</ele><time>2026-04-30T14:34:35.507Z</time></trkpt><trkpt lat="44.5778275" lon="7.9094795"><ele>216.33333333333331</ele><time>2026-04-30T14:34:36.517Z</time></trkpt><trkpt lat="44.5780008" lon="7.9094733"><ele>215.66666666666669</ele><time>2026-04-30T14:34:37.498Z</time></trkpt><trkpt lat="44.5781808" lon="7.9094641"><ele>215.0</ele><time>2026-04-30T14:34:38.543Z</time></trkpt><trkpt lat="44.5783697" lon="7.9094568"><ele>218.5</ele><time>2026-04-30T14:34:39.671Z</time></trkpt><trkpt lat="44.5786854" lon="7.9094433"><ele>222.0</ele><time>2026-04-30T14:34:41.518Z</time></trkpt><trkpt lat="44.5788617" lon="7.9094337"><ele>222.0</ele><time>2026-04-30T14:34:42.568Z</time></trkpt><trkpt lat="44.5790088" lon="7.9094206"><ele>222.0</ele><time>2026-04-30T14:34:43.465Z</time></trkpt><trkpt lat="44.5791846" lon="7.9093956"><ele>222.0</ele><time>2026-04-30T14:34:44.536Z</time></trkpt><trkpt lat="44.5793587" lon="7.9093612"><ele>221.66666666666669</ele><time>2026-04-30T14:34:45.61Z</time></trkpt><trkpt lat="44.5796427" lon="7.909288"><ele>221.33333333333334</ele><time>2026-04-30T14:34:47.511Z</time></trkpt><trkpt lat="44.5797749" lon="7.9092519"><ele>221.0</ele><time>2026-04-30T14:34:48.521Z</time></trkpt><trkpt lat="44.5798917" lon="7.9092175"><ele>221.0</ele><time>2026-04-30T14:34:49.501Z</time></trkpt><trkpt lat="44.5800134" lon="7.9091841"><ele>221.00000000000003</ele><time>2026-04-30T14:34:50.588Z</time></trkpt><trkpt lat="44.5801188" lon="7.9091531"><ele>221.00000000000003</ele><time>2026-04-30T14:34:51.509Z</time></trkpt><trkpt lat="44.5802379" lon="7.9091165"><ele>221.0</ele><time>2026-04-30T14:34:52.619Z</time></trkpt><trkpt lat="44.5803194" lon="7.9090887"><ele>221.0</ele><time>2026-04-30T14:34:53.523Z</time></trkpt><trkpt lat="44.5803948" lon="7.909062"><ele>221.8</ele><time>2026-04-30T14:34:54.5Z</time></trkpt><trkpt lat="44.5804591" lon="7.9090394"><ele>222.60000000000002</ele><time>2026-04-30T14:34:55.48Z</time></trkpt><trkpt lat="44.5805854" lon="7.9090194"><ele>223.4</ele><time>2026-04-30T14:34:57.514Z</time></trkpt><trkpt lat="44.5806507" lon="7.9090514"><ele>224.2</ele><time>2026-04-30T14:34:58.495Z</time></trkpt><trkpt lat="44.5806879" lon="7.9092115"><ele>225.0</ele><time>2026-04-30T14:35:00.47Z</time></trkpt><trkpt lat="44.5806688" lon="7.9093479"><ele>225.25</ele><time>2026-04-30T14:35:01.575Z</time></trkpt><trkpt lat="44.5806313" lon="7.9094768"><ele>225.5</ele><time>2026-04-30T14:35:02.537Z</time></trkpt><trkpt lat="44.5805785" lon="7.9096176"><ele>225.75</ele><time>2026-04-30T14:35:03.493Z</time></trkpt><trkpt lat="44.5805043" lon="7.9097566"><ele>226.0</ele><time>2026-04-30T14:35:04.493Z</time></trkpt><trkpt lat="44.5804044" lon="7.9099006"><ele>226.25</ele><time>2026-04-30T14:35:05.585Z</time></trkpt><trkpt lat="44.580309" lon="7.9100157"><ele>226.5</ele><time>2026-04-30T14:35:06.5Z</time></trkpt><trkpt lat="44.5802006" lon="7.9101447"><ele>226.75</ele><time>2026-04-30T14:35:07.489Z</time></trkpt><trkpt lat="44.580075" lon="7.9102988"><ele>227.0</ele><time>2026-04-30T14:35:08.577Z</time></trkpt><trkpt lat="44.5798521" lon="7.9105839"><ele>227.0</ele><time>2026-04-30T14:35:10.524Z</time></trkpt><trkpt lat="44.5797564" lon="7.9107064"><ele>227.0</ele><time>2026-04-30T14:35:11.514Z</time></trkpt><trkpt lat="44.579648" lon="7.9108474"><ele>227.0</ele><time>2026-04-30T14:35:12.646Z</time></trkpt><trkpt lat="44.5794669" lon="7.9110817"><ele>227.25</ele><time>2026-04-30T14:35:14.465Z</time></trkpt><trkpt lat="44.5793475" lon="7.9112282"><ele>227.5</ele><time>2026-04-30T14:35:15.523Z</time></trkpt><trkpt lat="44.5792348" lon="7.9113601"><ele>227.75</ele><time>2026-04-30T14:35:16.506Z</time></trkpt><trkpt lat="44.5791324" lon="7.9114838"><ele>228.0</ele><time>2026-04-30T14:35:17.494Z</time></trkpt><trkpt lat="44.5790369" lon="7.9116001"><ele>228.0</ele><time>2026-04-30T14:35:18.493Z</time></trkpt><trkpt lat="44.5789373" lon="7.9117253"><ele>228.0</ele><time>2026-04-30T14:35:19.61Z</time></trkpt><trkpt lat="44.5787757" lon="7.9119236"><ele>228.0</ele><time>2026-04-30T14:35:21.56Z</time></trkpt><trkpt lat="44.5786981" lon="7.9120203"><ele>228.0</ele><time>2026-04-30T14:35:22.508Z</time></trkpt><trkpt lat="44.5786109" lon="7.912127"><ele>228.0</ele><time>2026-04-30T14:35:23.553Z</time></trkpt><trkpt lat="44.5785366" lon="7.9122184"><ele>228.0</ele><time>2026-04-30T14:35:24.469Z</time></trkpt><trkpt lat="44.5784523" lon="7.9123221"><ele>228.0</ele><time>2026-04-30T14:35:25.495Z</time></trkpt><trkpt lat="44.5783756" lon="7.91242"><ele>228.0</ele><time>2026-04-30T14:35:26.475Z</time></trkpt><trkpt lat="44.578296" lon="7.9125222"><ele>229.5</ele><time>2026-04-30T14:35:27.496Z</time></trkpt><trkpt lat="44.578216" lon="7.9126294"><ele>231.0</ele><time>2026-04-30T14:35:28.513Z</time></trkpt><trkpt lat="44.5781294" lon="7.912736"><ele>232.5</ele><time>2026-04-30T14:35:29.501Z</time></trkpt><trkpt lat="44.5780296" lon="7.9128512"><ele>234.0</ele><time>2026-04-30T14:35:30.518Z</time></trkpt><trkpt lat="44.5779256" lon="7.91297"><ele>234.0</ele><time>2026-04-30T14:35:31.52Z</time></trkpt><trkpt lat="44.5778273" lon="7.9130892"><ele>234.0</ele><time>2026-04-30T14:35:32.506Z</time></trkpt><trkpt lat="44.5777314" lon="7.9132158"><ele>234.0</ele><time>2026-04-30T14:35:33.523Z</time></trkpt><trkpt lat="44.5776421" lon="7.9133385"><ele>234.0</ele><time>2026-04-30T14:35:34.509Z</time></trkpt><trkpt lat="44.5775562" lon="7.9134562"><ele>234.0</ele><time>2026-04-30T14:35:35.527Z</time></trkpt><trkpt lat="44.5774692" lon="7.9135719"><ele>233.99999999999997</ele><time>2026-04-30T14:35:36.578Z</time></trkpt><trkpt lat="44.5773909" lon="7.9136739"><ele>233.99999999999997</ele><time>2026-04-30T14:35:37.541Z</time></trkpt><trkpt lat="44.5773096" lon="7.9137793"><ele>234.0</ele><time>2026-04-30T14:35:38.565Z</time></trkpt><trkpt lat="44.5772309" lon="7.9138756"><ele>234.0</ele><time>2026-04-30T14:35:39.541Z</time></trkpt><trkpt lat="44.5771494" lon="7.913976"><ele>234.0</ele><time>2026-04-30T14:35:40.559Z</time></trkpt><trkpt lat="44.5770705" lon="7.914074"><ele>233.99999999999997</ele><time>2026-04-30T14:35:41.513Z</time></trkpt><trkpt lat="44.5769844" lon="7.9141808"><ele>233.99999999999997</ele><time>2026-04-30T14:35:42.544Z</time></trkpt><trkpt lat="44.5768994" lon="7.9142853"><ele>234.0</ele><time>2026-04-30T14:35:43.526Z</time></trkpt><trkpt lat="44.5768146" lon="7.9143959"><ele>234.0</ele><time>2026-04-30T14:35:44.492Z</time></trkpt><trkpt lat="44.5767152" lon="7.9145237"><ele>233.25</ele><time>2026-04-30T14:35:45.551Z</time></trkpt><trkpt lat="44.5766181" lon="7.9146443"><ele>232.5</ele><time>2026-04-30T14:35:46.517Z</time></trkpt><trkpt lat="44.5765054" lon="7.9147783"><ele>231.75</ele><time>2026-04-30T14:35:47.524Z</time></trkpt><trkpt lat="44.5763805" lon="7.9149317"><ele>231.0</ele><time>2026-04-30T14:35:48.542Z</time></trkpt><trkpt lat="44.5762483" lon="7.9150949"><ele>230.66666666666669</ele><time>2026-04-30T14:35:49.565Z</time></trkpt><trkpt lat="44.5761235" lon="7.915248"><ele>230.33333333333334</ele><time>2026-04-30T14:35:50.515Z</time></trkpt><trkpt lat="44.5759953" lon="7.9154052"><ele>230.0</ele><time>2026-04-30T14:35:51.494Z</time></trkpt><trkpt lat="44.5758688" lon="7.9155647"><ele>230.0</ele><time>2026-04-30T14:35:52.462Z</time></trkpt><trkpt lat="44.5757277" lon="7.9157402"><ele>230.0</ele><time>2026-04-30T14:35:53.506Z</time></trkpt><trkpt lat="44.5755937" lon="7.9159108"><ele>230.0</ele><time>2026-04-30T14:35:54.508Z</time></trkpt><trkpt lat="44.5754509" lon="7.9160929"><ele>228.5</ele><time>2026-04-30T14:35:55.633Z</time></trkpt><trkpt lat="44.5751945" lon="7.9163831"><ele>227.0</ele><time>2026-04-30T14:35:57.515Z</time></trkpt><trkpt lat="44.5750365" lon="7.9164908"><ele>227.0</ele><time>2026-04-30T14:35:58.513Z</time></trkpt><trkpt lat="44.5748558" lon="7.9165521"><ele>227.0</ele><time>2026-04-30T14:35:59.552Z</time></trkpt><trkpt lat="44.5746853" lon="7.9165874"><ele>227.0</ele><time>2026-04-30T14:36:00.524Z</time></trkpt><trkpt lat="44.5745114" lon="7.9166129"><ele>227.0</ele><time>2026-04-30T14:36:01.561Z</time></trkpt><trkpt lat="44.5743751" lon="7.9166409"><ele>227.0</ele><time>2026-04-30T14:36:02.487Z</time></trkpt><trkpt lat="44.5742194" lon="7.9166652"><ele>227.0</ele><time>2026-04-30T14:36:03.708Z</time></trkpt><trkpt lat="44.5740391" lon="7.9167018"><ele>227.0</ele><time>2026-04-30T14:36:05.511Z</time></trkpt><trkpt lat="44.5739679" lon="7.9167185"><ele>227.0</ele><time>2026-04-30T14:36:06.512Z</time></trkpt><trkpt lat="44.5738743" lon="7.9167402"><ele>227.0</ele><time>2026-04-30T14:36:08.503Z</time></trkpt><trkpt lat="44.5738041" lon="7.9167499"><ele>227.0</ele><time>2026-04-30T14:36:12.522Z</time></trkpt><trkpt lat="44.5737217" lon="7.9168845"><ele>227.0</ele><time>2026-04-30T14:36:16.426Z</time></trkpt><trkpt lat="44.5736434" lon="7.9169464"><ele>228.0</ele><time>2026-04-30T14:36:17.505Z</time></trkpt><trkpt lat="44.5735459" lon="7.916989"><ele>229.0</ele><time>2026-04-30T14:36:18.55Z</time></trkpt><trkpt lat="44.5734462" lon="7.9170333"><ele>230.0</ele><time>2026-04-30T14:36:19.481Z</time></trkpt><trkpt lat="44.5733294" lon="7.9170807"><ele>231.0</ele><time>2026-04-30T14:36:20.519Z</time></trkpt><trkpt lat="44.5732334" lon="7.9171372"><ele>232.0</ele><time>2026-04-30T14:36:21.545Z</time></trkpt><trkpt lat="44.5731625" lon="7.9172059"><ele>231.99999999999997</ele><time>2026-04-30T14:36:22.482Z</time></trkpt><trkpt lat="44.5731155" lon="7.9173211"><ele>232.0</ele><time>2026-04-30T14:36:23.537Z</time></trkpt><trkpt lat="44.5731066" lon="7.9174534"><ele>232.0</ele><time>2026-04-30T14:36:24.516Z</time></trkpt><trkpt lat="44.5731101" lon="7.9175801"><ele>232.0</ele><time>2026-04-30T14:36:25.504Z</time></trkpt><trkpt lat="44.5731065" lon="7.9176939"><ele>231.99999999999997</ele><time>2026-04-30T14:36:26.498Z</time></trkpt><trkpt lat="44.5730668" lon="7.9177682"><ele>232.0</ele><time>2026-04-30T14:36:27.5Z</time></trkpt><trkpt lat="44.5729929" lon="7.9178222"><ele>233.75</ele><time>2026-04-30T14:36:28.502Z</time></trkpt><trkpt lat="44.5729007" lon="7.9178343"><ele>235.5</ele><time>2026-04-30T14:36:29.482Z</time></trkpt><trkpt lat="44.5727864" lon="7.9178841"><ele>237.25</ele><time>2026-04-30T14:36:30.537Z</time></trkpt><trkpt lat="44.5726924" lon="7.9179773"><ele>239.0</ele><time>2026-04-30T14:36:31.502Z</time></trkpt><trkpt lat="44.5726044" lon="7.9181102"><ele>239.0</ele><time>2026-04-30T14:36:32.492Z</time></trkpt><trkpt lat="44.5725215" lon="7.9182708"><ele>239.0</ele><time>2026-04-30T14:36:33.496Z</time></trkpt><trkpt lat="44.5724305" lon="7.9184323"><ele>239.0</ele><time>2026-04-30T14:36:34.514Z</time></trkpt><trkpt lat="44.5723281" lon="7.9186008"><ele>239.0</ele><time>2026-04-30T14:36:35.514Z</time></trkpt><trkpt lat="44.572209" lon="7.9187427"><ele>241.33333333333334</ele><time>2026-04-30T14:36:36.632Z</time></trkpt><trkpt lat="44.5720801" lon="7.9188331"><ele>243.66666666666669</ele><time>2026-04-30T14:36:37.563Z</time></trkpt><trkpt lat="44.5719253" lon="7.9189212"><ele>246.0</ele><time>2026-04-30T14:36:38.578Z</time></trkpt><trkpt lat="44.5717899" lon="7.9189983"><ele>247.0</ele><time>2026-04-30T14:36:39.483Z</time></trkpt><trkpt lat="44.5716435" lon="7.9190869"><ele>248.0</ele><time>2026-04-30T14:36:40.495Z</time></trkpt><trkpt lat="44.5714994" lon="7.9191587"><ele>249.0</ele><time>2026-04-30T14:36:41.476Z</time></trkpt><trkpt lat="44.5713383" lon="7.919188"><ele>249.0</ele><time>2026-04-30T14:36:42.505Z</time></trkpt><trkpt lat="44.5711711" lon="7.9191703"><ele>249.0</ele><time>2026-04-30T14:36:43.616Z</time></trkpt><trkpt lat="44.5710537" lon="7.9191413"><ele>249.0</ele><time>2026-04-30T14:36:44.533Z</time></trkpt><trkpt lat="44.5709452" lon="7.9191225"><ele>249.0</ele><time>2026-04-30T14:36:45.513Z</time></trkpt><trkpt lat="44.5708409" lon="7.9191404"><ele>249.0</ele><time>2026-04-30T14:36:46.498Z</time></trkpt><trkpt lat="44.5707436" lon="7.9191981"><ele>248.99999999999997</ele><time>2026-04-30T14:36:47.52Z</time></trkpt><trkpt lat="44.5706756" lon="7.9193002"><ele>248.99999999999997</ele><time>2026-04-30T14:36:48.486Z</time></trkpt><trkpt lat="44.5706503" lon="7.9194279"><ele>249.0</ele><time>2026-04-30T14:36:49.517Z</time></trkpt><trkpt lat="44.5706675" lon="7.9195633"><ele>249.0</ele><time>2026-04-30T14:36:50.448Z</time></trkpt><trkpt lat="44.5707062" lon="7.9197297"><ele>251.5</ele><time>2026-04-30T14:36:51.493Z</time></trkpt><trkpt lat="44.5707677" lon="7.9198806"><ele>254.0</ele><time>2026-04-30T14:36:52.489Z</time></trkpt><trkpt lat="44.570864" lon="7.9200349"><ele>256.5</ele><time>2026-04-30T14:36:53.545Z</time></trkpt><trkpt lat="44.5709763" lon="7.9201834"><ele>259.0</ele><time>2026-04-30T14:36:54.558Z</time></trkpt><trkpt lat="44.5710867" lon="7.9203488"><ele>260.66666666666663</ele><time>2026-04-30T14:36:55.554Z</time></trkpt><trkpt lat="44.5712" lon="7.9205091"><ele>262.3333333333333</ele><time>2026-04-30T14:36:56.51Z</time></trkpt><trkpt lat="44.5712978" lon="7.9206861"><ele>264.0</ele><time>2026-04-30T14:36:57.493Z</time></trkpt><trkpt lat="44.5714036" lon="7.9208769"><ele>265.6666666666667</ele><time>2026-04-30T14:36:58.544Z</time></trkpt><trkpt lat="44.5715077" lon="7.9210605"><ele>267.33333333333337</ele><time>2026-04-30T14:36:59.534Z</time></trkpt><trkpt lat="44.5716115" lon="7.921245"><ele>269.0</ele><time>2026-04-30T14:37:00.554Z</time></trkpt><trkpt lat="44.5717125" lon="7.9214201"><ele>269.0</ele><time>2026-04-30T14:37:01.519Z</time></trkpt><trkpt lat="44.5718214" lon="7.9215969"><ele>269.0</ele><time>2026-04-30T14:37:02.519Z</time></trkpt><trkpt lat="44.5719384" lon="7.9217604"><ele>269.0</ele><time>2026-04-30T14:37:03.515Z</time></trkpt><trkpt lat="44.5720644" lon="7.9219242"><ele>271.6666666666667</ele><time>2026-04-30T14:37:04.542Z</time></trkpt><trkpt lat="44.5721889" lon="7.9220705"><ele>274.3333333333333</ele><time>2026-04-30T14:37:05.496Z</time></trkpt><trkpt lat="44.5723093" lon="7.9222255"><ele>277.0</ele><time>2026-04-30T14:37:06.467Z</time></trkpt><trkpt lat="44.5724531" lon="7.9224203"><ele>280.3333333333333</ele><time>2026-04-30T14:37:07.603Z</time></trkpt><trkpt lat="44.5725702" lon="7.9225819"><ele>283.6666666666667</ele><time>2026-04-30T14:37:08.547Z</time></trkpt><trkpt lat="44.5726823" lon="7.9227514"><ele>287.0</ele><time>2026-04-30T14:37:09.547Z</time></trkpt><trkpt lat="44.5727859" lon="7.9229202"><ele>287.6666666666667</ele><time>2026-04-30T14:37:10.522Z</time></trkpt><trkpt lat="44.5728978" lon="7.9230893"><ele>288.3333333333333</ele><time>2026-04-30T14:37:11.522Z</time></trkpt><trkpt lat="44.5730239" lon="7.9232505"><ele>289.0</ele><time>2026-04-30T14:37:12.485Z</time></trkpt><trkpt lat="44.5731941" lon="7.9234342"><ele>289.0</ele><time>2026-04-30T14:37:13.563Z</time></trkpt><trkpt lat="44.5733593" lon="7.9236116"><ele>289.0</ele><time>2026-04-30T14:37:14.492Z</time></trkpt><trkpt lat="44.5735518" lon="7.9238359"><ele>287.3333333333333</ele><time>2026-04-30T14:37:15.558Z</time></trkpt><trkpt lat="44.5737219" lon="7.9240519"><ele>285.6666666666667</ele><time>2026-04-30T14:37:16.514Z</time></trkpt><trkpt lat="44.5738813" lon="7.9242576"><ele>284.0</ele><time>2026-04-30T14:37:17.515Z</time></trkpt><trkpt lat="44.5740093" lon="7.924468"><ele>284.0</ele><time>2026-04-30T14:37:18.458Z</time></trkpt><trkpt lat="44.574128" lon="7.9247499"><ele>284.0</ele><time>2026-04-30T14:37:19.652Z</time></trkpt><trkpt lat="44.5742601" lon="7.9252218"><ele>284.6666666666667</ele><time>2026-04-30T14:37:21.546Z</time></trkpt><trkpt lat="44.5743617" lon="7.9254048"><ele>285.3333333333333</ele><time>2026-04-30T14:37:22.486Z</time></trkpt><trkpt lat="44.574527" lon="7.925582"><ele>286.0</ele><time>2026-04-30T14:37:23.54Z</time></trkpt><trkpt lat="44.5747192" lon="7.9257248"><ele>287.0</ele><time>2026-04-30T14:37:24.552Z</time></trkpt><trkpt lat="44.574921" lon="7.9258911"><ele>288.0</ele><time>2026-04-30T14:37:25.673Z</time></trkpt><trkpt lat="44.5752203" lon="7.9262409"><ele>292.3333333333333</ele><time>2026-04-30T14:37:27.535Z</time></trkpt><trkpt lat="44.5753646" lon="7.926474"><ele>296.66666666666663</ele><time>2026-04-30T14:37:28.544Z</time></trkpt><trkpt lat="44.575473" lon="7.9267078"><ele>301.0</ele><time>2026-04-30T14:37:29.505Z</time></trkpt><trkpt lat="44.5755807" lon="7.9269514"><ele>302.66666666666663</ele><time>2026-04-30T14:37:30.508Z</time></trkpt><trkpt lat="44.575688" lon="7.9271956"><ele>304.3333333333333</ele><time>2026-04-30T14:37:31.534Z</time></trkpt><trkpt lat="44.5757935" lon="7.9274037"><ele>306.0</ele><time>2026-04-30T14:37:32.528Z</time></trkpt><trkpt lat="44.5759059" lon="7.9275761"><ele>306.6666666666667</ele><time>2026-04-30T14:37:33.502Z</time></trkpt><trkpt lat="44.5760521" lon="7.9277179"><ele>307.33333333333337</ele><time>2026-04-30T14:37:34.5Z</time></trkpt><trkpt lat="44.5762126" lon="7.9278426"><ele>308.0</ele><time>2026-04-30T14:37:35.524Z</time></trkpt><trkpt lat="44.5763717" lon="7.9279493"><ele>308.6666666666667</ele><time>2026-04-30T14:37:36.516Z</time></trkpt><trkpt lat="44.576517" lon="7.9280471"><ele>309.3333333333333</ele><time>2026-04-30T14:37:37.507Z</time></trkpt><trkpt lat="44.5766438" lon="7.9281367"><ele>310.0</ele><time>2026-04-30T14:37:38.615Z</time></trkpt><trkpt lat="44.576814" lon="7.9282843"><ele>310.4</ele><time>2026-04-30T14:37:40.53Z</time></trkpt><trkpt lat="44.5768747" lon="7.9283982"><ele>310.8</ele><time>2026-04-30T14:37:41.471Z</time></trkpt><trkpt lat="44.5769285" lon="7.9285201"><ele>311.2</ele><time>2026-04-30T14:37:42.47Z</time></trkpt><trkpt lat="44.5769777" lon="7.9286604"><ele>311.6</ele><time>2026-04-30T14:37:43.485Z</time></trkpt><trkpt lat="44.5770272" lon="7.9288034"><ele>312.0</ele><time>2026-04-30T14:37:44.452Z</time></trkpt><trkpt lat="44.5770889" lon="7.9289652"><ele>312.0</ele><time>2026-04-30T14:37:45.547Z</time></trkpt><trkpt lat="44.5771493" lon="7.9291245"><ele>312.0</ele><time>2026-04-30T14:37:46.551Z</time></trkpt><trkpt lat="44.5772166" lon="7.9293073"><ele>312.0</ele><time>2026-04-30T14:37:47.556Z</time></trkpt><trkpt lat="44.5772939" lon="7.9295102"><ele>312.0</ele><time>2026-04-30T14:37:48.613Z</time></trkpt><trkpt lat="44.5773719" lon="7.9297318"><ele>310.5</ele><time>2026-04-30T14:37:49.693Z</time></trkpt><trkpt lat="44.57747" lon="7.9301463"><ele>309.0</ele><time>2026-04-30T14:37:51.519Z</time></trkpt><trkpt lat="44.5775001" lon="7.9303814"><ele>309.0</ele><time>2026-04-30T14:37:52.531Z</time></trkpt><trkpt lat="44.5775109" lon="7.9306051"><ele>309.0</ele><time>2026-04-30T14:37:53.457Z</time></trkpt><trkpt lat="44.5775135" lon="7.9308655"><ele>309.0</ele><time>2026-04-30T14:37:54.521Z</time></trkpt><trkpt lat="44.5775146" lon="7.9311335"><ele>310.3333333333333</ele><time>2026-04-30T14:37:55.594Z</time></trkpt><trkpt lat="44.5775147" lon="7.931369"><ele>311.66666666666663</ele><time>2026-04-30T14:37:56.552Z</time></trkpt><trkpt lat="44.5775157" lon="7.9316178"><ele>313.0</ele><time>2026-04-30T14:37:57.561Z</time></trkpt><trkpt lat="44.5775172" lon="7.9318623"><ele>313.3333333333333</ele><time>2026-04-30T14:37:58.545Z</time></trkpt><trkpt lat="44.5775292" lon="7.9321232"><ele>313.6666666666667</ele><time>2026-04-30T14:37:59.586Z</time></trkpt><trkpt lat="44.5775618" lon="7.9323711"><ele>314.0</ele><time>2026-04-30T14:38:00.591Z</time></trkpt><trkpt lat="44.5776405" lon="7.9326328"><ele>314.0</ele><time>2026-04-30T14:38:01.667Z</time></trkpt><trkpt lat="44.5776964" lon="7.9328466"><ele>314.0</ele><time>2026-04-30T14:38:02.575Z</time></trkpt><trkpt lat="44.5777564" lon="7.9331224"><ele>314.0</ele><time>2026-04-30T14:38:03.723Z</time></trkpt><trkpt lat="44.5778271" lon="7.9335947"><ele>318.0</ele><time>2026-04-30T14:38:05.546Z</time></trkpt><trkpt lat="44.5778579" lon="7.9338528"><ele>322.0</ele><time>2026-04-30T14:38:06.534Z</time></trkpt><trkpt lat="44.5778877" lon="7.9341228"><ele>326.0</ele><time>2026-04-30T14:38:07.629Z</time></trkpt><trkpt lat="44.5779112" lon="7.9343552"><ele>326.5</ele><time>2026-04-30T14:38:08.607Z</time></trkpt><trkpt lat="44.577929" lon="7.9348611"><ele>327.0</ele><time>2026-04-30T14:38:10.567Z</time></trkpt><trkpt lat="44.5779202" lon="7.9351417"><ele>328.3333333333333</ele><time>2026-04-30T14:38:11.608Z</time></trkpt><trkpt lat="44.5779091" lon="7.9353888"><ele>329.66666666666663</ele><time>2026-04-30T14:38:12.578Z</time></trkpt><trkpt lat="44.5778912" lon="7.9356274"><ele>331.0</ele><time>2026-04-30T14:38:13.559Z</time></trkpt><trkpt lat="44.5778558" lon="7.9358793"><ele>329.0</ele><time>2026-04-30T14:38:14.556Z</time></trkpt><trkpt lat="44.5778069" lon="7.9361449"><ele>327.0</ele><time>2026-04-30T14:38:15.567Z</time></trkpt><trkpt lat="44.5777475" lon="7.9364013"><ele>325.0</ele><time>2026-04-30T14:38:16.543Z</time></trkpt><trkpt lat="44.5776895" lon="7.9366457"><ele>325.66666666666663</ele><time>2026-04-30T14:38:17.544Z</time></trkpt><trkpt lat="44.5776363" lon="7.9368691"><ele>326.3333333333333</ele><time>2026-04-30T14:38:18.516Z</time></trkpt><trkpt lat="44.5775823" lon="7.9370949"><ele>327.0</ele><time>2026-04-30T14:38:19.55Z</time></trkpt><trkpt lat="44.5775168" lon="7.937348"><ele>328.5</ele><time>2026-04-30T14:38:20.679Z</time></trkpt><trkpt lat="44.5774583" lon="7.9377932"><ele>330.0</ele><time>2026-04-30T14:38:22.538Z</time></trkpt><trkpt lat="44.5774711" lon="7.9380442"><ele>330.0</ele><time>2026-04-30T14:38:23.614Z</time></trkpt><trkpt lat="44.5775016" lon="7.9382534"><ele>330.0</ele><time>2026-04-30T14:38:24.554Z</time></trkpt><trkpt lat="44.5775534" lon="7.9384623"><ele>330.0</ele><time>2026-04-30T14:38:25.594Z</time></trkpt><trkpt lat="44.5776396" lon="7.9386251"><ele>330.3333333333333</ele><time>2026-04-30T14:38:26.517Z</time></trkpt><trkpt lat="44.5777732" lon="7.9387842"><ele>330.66666666666663</ele><time>2026-04-30T14:38:27.58Z</time></trkpt><trkpt lat="44.5779105" lon="7.9389185"><ele>331.0</ele><time>2026-04-30T14:38:28.537Z</time></trkpt><trkpt lat="44.5780601" lon="7.9390542"><ele>331.66666666666663</ele><time>2026-04-30T14:38:29.553Z</time></trkpt><trkpt lat="44.5782156" lon="7.9391826"><ele>332.3333333333333</ele><time>2026-04-30T14:38:30.594Z</time></trkpt><trkpt lat="44.5783608" lon="7.9392997"><ele>333.0</ele><time>2026-04-30T14:38:31.602Z</time></trkpt><trkpt lat="44.578521" lon="7.9394177"><ele>335.5</ele><time>2026-04-30T14:38:32.67Z</time></trkpt><trkpt lat="44.5788066" lon="7.9396614"><ele>338.0</ele><time>2026-04-30T14:38:34.518Z</time></trkpt><trkpt lat="44.5789529" lon="7.9398385"><ele>338.0</ele><time>2026-04-30T14:38:35.529Z</time></trkpt><trkpt lat="44.5790675" lon="7.9400267"><ele>338.0</ele><time>2026-04-30T14:38:36.492Z</time></trkpt><trkpt lat="44.5791923" lon="7.9402435"><ele>338.0</ele><time>2026-04-30T14:38:37.587Z</time></trkpt><trkpt lat="44.5793297" lon="7.9404237"><ele>338.0</ele><time>2026-04-30T14:38:38.587Z</time></trkpt><trkpt lat="44.5794808" lon="7.9405685"><ele>338.0</ele><time>2026-04-30T14:38:39.601Z</time></trkpt><trkpt lat="44.5796418" lon="7.9406879"><ele>338.0</ele><time>2026-04-30T14:38:40.595Z</time></trkpt><trkpt lat="44.5798098" lon="7.9408286"><ele>340.0</ele><time>2026-04-30T14:38:41.675Z</time></trkpt><trkpt lat="44.579956" lon="7.9409381"><ele>342.0</ele><time>2026-04-30T14:38:42.579Z</time></trkpt><trkpt lat="44.58012" lon="7.941055"><ele>344.0</ele><time>2026-04-30T14:38:43.561Z</time></trkpt><trkpt lat="44.580302" lon="7.9411562"><ele>345.0</ele><time>2026-04-30T14:38:44.571Z</time></trkpt><trkpt lat="44.5805314" lon="7.9412449"><ele>346.0</ele><time>2026-04-30T14:38:45.76Z</time></trkpt><trkpt lat="44.5808981" lon="7.9413377"><ele>346.0</ele><time>2026-04-30T14:38:47.537Z</time></trkpt><trkpt lat="44.5810952" lon="7.9413964"><ele>346.0</ele><time>2026-04-30T14:38:48.532Z</time></trkpt><trkpt lat="44.5813131" lon="7.9414642"><ele>346.0</ele><time>2026-04-30T14:38:49.609Z</time></trkpt><trkpt lat="44.581503" lon="7.9415214"><ele>345.3333333333333</ele><time>2026-04-30T14:38:50.553Z</time></trkpt><trkpt lat="44.5817084" lon="7.9415904"><ele>344.6666666666667</ele><time>2026-04-30T14:38:51.565Z</time></trkpt><trkpt lat="44.5818962" lon="7.9416558"><ele>344.0</ele><time>2026-04-30T14:38:52.518Z</time></trkpt><trkpt lat="44.5820798" lon="7.9417158"><ele>343.6666666666667</ele><time>2026-04-30T14:38:53.558Z</time></trkpt><trkpt lat="44.5822589" lon="7.9417747"><ele>343.3333333333333</ele><time>2026-04-30T14:38:54.594Z</time></trkpt><trkpt lat="44.5824079" lon="7.941854"><ele>343.0</ele><time>2026-04-30T14:38:55.536Z</time></trkpt><trkpt lat="44.5825632" lon="7.9419737"><ele>343.0</ele><time>2026-04-30T14:38:56.546Z</time></trkpt><trkpt lat="44.5826855" lon="7.9421258"><ele>343.0</ele><time>2026-04-30T14:38:57.521Z</time></trkpt><trkpt lat="44.5827983" lon="7.9423082"><ele>343.0</ele><time>2026-04-30T14:38:58.522Z</time></trkpt><trkpt lat="44.582895" lon="7.9425099"><ele>346.0</ele><time>2026-04-30T14:38:59.485Z</time></trkpt><trkpt lat="44.5829952" lon="7.9427222"><ele>349.0</ele><time>2026-04-30T14:39:00.552Z</time></trkpt><trkpt lat="44.5830864" lon="7.9429226"><ele>352.0</ele><time>2026-04-30T14:39:01.565Z</time></trkpt><trkpt lat="44.5831642" lon="7.9431317"><ele>352.0</ele><time>2026-04-30T14:39:02.551Z</time></trkpt><trkpt lat="44.5832296" lon="7.943354"><ele>352.0</ele><time>2026-04-30T14:39:03.569Z</time></trkpt><trkpt lat="44.5832731" lon="7.9435548"><ele>352.0</ele><time>2026-04-30T14:39:04.565Z</time></trkpt><trkpt lat="44.5833137" lon="7.9437782"><ele>352.3333333333333</ele><time>2026-04-30T14:39:05.631Z</time></trkpt><trkpt lat="44.5833699" lon="7.9441228"><ele>352.6666666666667</ele><time>2026-04-30T14:39:07.536Z</time></trkpt><trkpt lat="44.5834174" lon="7.9442753"><ele>353.0</ele><time>2026-04-30T14:39:08.5Z</time></trkpt><trkpt lat="44.5834862" lon="7.9444002"><ele>354.0</ele><time>2026-04-30T14:39:09.481Z</time></trkpt><trkpt lat="44.5836254" lon="7.9445171"><ele>355.0</ele><time>2026-04-30T14:39:10.726Z</time></trkpt><trkpt lat="44.5838666" lon="7.9447024"><ele>356.0</ele><time>2026-04-30T14:39:12.502Z</time></trkpt><trkpt lat="44.5839836" lon="7.9448717"><ele>351.33333333333337</ele><time>2026-04-30T14:39:13.524Z</time></trkpt><trkpt lat="44.584085" lon="7.9450772"><ele>346.6666666666667</ele><time>2026-04-30T14:39:14.627Z</time></trkpt><trkpt lat="44.5841685" lon="7.9452534"><ele>342.0</ele><time>2026-04-30T14:39:15.565Z</time></trkpt><trkpt lat="44.5842646" lon="7.945415"><ele>342.0</ele><time>2026-04-30T14:39:16.461Z</time></trkpt><trkpt lat="44.584399" lon="7.9455702"><ele>342.0</ele><time>2026-04-30T14:39:17.526Z</time></trkpt><trkpt lat="44.5845344" lon="7.9456852"><ele>342.0</ele><time>2026-04-30T14:39:18.492Z</time></trkpt><trkpt lat="44.584674" lon="7.9458048"><ele>346.3333333333333</ele><time>2026-04-30T14:39:19.531Z</time></trkpt><trkpt lat="44.5848049" lon="7.9459255"><ele>350.66666666666663</ele><time>2026-04-30T14:39:20.568Z</time></trkpt><trkpt lat="44.5849196" lon="7.9460858"><ele>355.0</ele><time>2026-04-30T14:39:21.601Z</time></trkpt><trkpt lat="44.5849941" lon="7.9462691"><ele>355.0</ele><time>2026-04-30T14:39:22.511Z</time></trkpt><trkpt lat="44.5850396" lon="7.9464832"><ele>355.0</ele><time>2026-04-30T14:39:23.506Z</time></trkpt><trkpt lat="44.5850708" lon="7.946713"><ele>355.0</ele><time>2026-04-30T14:39:24.511Z</time></trkpt><trkpt lat="44.5851" lon="7.9469635"><ele>354.66666666666663</ele><time>2026-04-30T14:39:25.533Z</time></trkpt><trkpt lat="44.5851186" lon="7.9471919"><ele>354.3333333333333</ele><time>2026-04-30T14:39:26.533Z</time></trkpt><trkpt lat="44.5851413" lon="7.94743"><ele>354.0</ele><time>2026-04-30T14:39:27.576Z</time></trkpt><trkpt lat="44.5851595" lon="7.9476646"><ele>354.0</ele><time>2026-04-30T14:39:28.568Z</time></trkpt><trkpt lat="44.5851597" lon="7.9479251"><ele>354.0</ele><time>2026-04-30T14:39:29.643Z</time></trkpt><trkpt lat="44.5851384" lon="7.9483962"><ele>354.6666666666667</ele><time>2026-04-30T14:39:31.553Z</time></trkpt><trkpt lat="44.58513" lon="7.9486217"><ele>355.33333333333337</ele><time>2026-04-30T14:39:32.486Z</time></trkpt><trkpt lat="44.5851161" lon="7.9488673"><ele>356.0</ele><time>2026-04-30T14:39:33.598Z</time></trkpt><trkpt lat="44.585111" lon="7.9490756"><ele>356.75</ele><time>2026-04-30T14:39:34.634Z</time></trkpt><trkpt lat="44.5851031" lon="7.9493861"><ele>357.5</ele><time>2026-04-30T14:39:36.659Z</time></trkpt><trkpt lat="44.5851001" lon="7.9495041"><ele>358.25</ele><time>2026-04-30T14:39:37.563Z</time></trkpt><trkpt lat="44.5851026" lon="7.9496252"><ele>359.0</ele><time>2026-04-30T14:39:38.608Z</time></trkpt><trkpt lat="44.5850898" lon="7.9497851"><ele>359.0</ele><time>2026-04-30T14:39:40.529Z</time></trkpt><trkpt lat="44.5851661" lon="7.9498828"><ele>359.0</ele><time>2026-04-30T14:39:42.556Z</time></trkpt><trkpt lat="44.5852313" lon="7.9498686"><ele>359.0</ele><time>2026-04-30T14:39:43.539Z</time></trkpt><trkpt lat="44.5853274" lon="7.9498357"><ele>359.0</ele><time>2026-04-30T14:39:44.576Z</time></trkpt><trkpt lat="44.5854254" lon="7.9498286"><ele>359.0</ele><time>2026-04-30T14:39:45.49Z</time></trkpt><trkpt lat="44.585569" lon="7.9498373"><ele>361.75</ele><time>2026-04-30T14:39:46.58Z</time></trkpt><trkpt lat="44.5856933" lon="7.9498351"><ele>364.5</ele><time>2026-04-30T14:39:47.519Z</time></trkpt><trkpt lat="44.5858161" lon="7.94982"><ele>367.25</ele><time>2026-04-30T14:39:48.495Z</time></trkpt><trkpt lat="44.5859426" lon="7.9497801"><ele>370.0</ele><time>2026-04-30T14:39:49.486Z</time></trkpt><trkpt lat="44.5860765" lon="7.9497063"><ele>374.0</ele><time>2026-04-30T14:39:50.534Z</time></trkpt><trkpt lat="44.5862186" lon="7.9495979"><ele>378.0</ele><time>2026-04-30T14:39:51.695Z</time></trkpt><trkpt lat="44.5864326" lon="7.9494277"><ele>382.0</ele><time>2026-04-30T14:39:53.512Z</time></trkpt><trkpt lat="44.5865514" lon="7.9493597"><ele>382.0</ele><time>2026-04-30T14:39:54.46Z</time></trkpt><trkpt lat="44.5866797" lon="7.9493288"><ele>382.0</ele><time>2026-04-30T14:39:55.48Z</time></trkpt><trkpt lat="44.5868006" lon="7.949336"><ele>382.0</ele><time>2026-04-30T14:39:56.494Z</time></trkpt><trkpt lat="44.5869355" lon="7.9493742"><ele>382.0</ele><time>2026-04-30T14:39:57.556Z</time></trkpt><trkpt lat="44.5870747" lon="7.949476"><ele>379.0</ele><time>2026-04-30T14:39:58.538Z</time></trkpt><trkpt lat="44.5871723" lon="7.949592"><ele>376.0</ele><time>2026-04-30T14:39:59.535Z</time></trkpt><trkpt lat="44.5872363" lon="7.9497862"><ele>373.0</ele><time>2026-04-30T14:40:00.456Z</time></trkpt><trkpt lat="44.5873471" lon="7.9499708"><ele>375.3333333333333</ele><time>2026-04-30T14:40:01.461Z</time></trkpt><trkpt lat="44.5874512" lon="7.9501515"><ele>377.6666666666667</ele><time>2026-04-30T14:40:02.454Z</time></trkpt><trkpt lat="44.5875625" lon="7.9503331"><ele>380.0</ele><time>2026-04-30T14:40:03.485Z</time></trkpt><trkpt lat="44.5876697" lon="7.9505001"><ele>380.0</ele><time>2026-04-30T14:40:04.465Z</time></trkpt><trkpt lat="44.5877783" lon="7.950677"><ele>380.0</ele><time>2026-04-30T14:40:05.488Z</time></trkpt><trkpt lat="44.5878929" lon="7.9508574"><ele>380.0</ele><time>2026-04-30T14:40:06.527Z</time></trkpt><trkpt lat="44.5880067" lon="7.9510302"><ele>380.0</ele><time>2026-04-30T14:40:07.505Z</time></trkpt><trkpt lat="44.5881225" lon="7.9512048"><ele>380.0</ele><time>2026-04-30T14:40:08.532Z</time></trkpt><trkpt lat="44.5882222" lon="7.951362"><ele>380.0</ele><time>2026-04-30T14:40:09.508Z</time></trkpt><trkpt lat="44.5883139" lon="7.9515162"><ele>380.0</ele><time>2026-04-30T14:40:10.479Z</time></trkpt><trkpt lat="44.5884059" lon="7.9516798"><ele>380.0</ele><time>2026-04-30T14:40:11.592Z</time></trkpt><trkpt lat="44.5884954" lon="7.9518216"><ele>380.0</ele><time>2026-04-30T14:40:12.793Z</time></trkpt><trkpt lat="44.5886666" lon="7.9519531"><ele>379.5</ele><time>2026-04-30T14:40:14.538Z</time></trkpt><trkpt lat="44.5887387" lon="7.9519237"><ele>379.0</ele><time>2026-04-30T14:40:15.482Z</time></trkpt><trkpt lat="44.5889141" lon="7.9518428"><ele>378.5</ele><time>2026-04-30T14:40:16.504Z</time></trkpt><trkpt lat="44.589048" lon="7.9517726"><ele>378.0</ele><time>2026-04-30T14:40:17.555Z</time></trkpt><trkpt lat="44.589178" lon="7.9517029"><ele>378.0</ele><time>2026-04-30T14:40:18.573Z</time></trkpt><trkpt lat="44.5892977" lon="7.9516436"><ele>378.0</ele><time>2026-04-30T14:40:19.505Z</time></trkpt><trkpt lat="44.5894449" lon="7.9515911"><ele>378.0</ele><time>2026-04-30T14:40:20.532Z</time></trkpt><trkpt lat="44.5896077" lon="7.9515625"><ele>378.0</ele><time>2026-04-30T14:40:21.537Z</time></trkpt><trkpt lat="44.589794" lon="7.9515579"><ele>378.0</ele><time>2026-04-30T14:40:22.525Z</time></trkpt><trkpt lat="44.5899472" lon="7.9515931"><ele>378.0</ele><time>2026-04-30T14:40:23.456Z</time></trkpt><trkpt lat="44.5901346" lon="7.9516755"><ele>378.0</ele><time>2026-04-30T14:40:24.507Z</time></trkpt><trkpt lat="44.5903125" lon="7.9517639"><ele>382.33333333333337</ele><time>2026-04-30T14:40:25.604Z</time></trkpt><trkpt lat="44.5905653" lon="7.9519814"><ele>386.6666666666667</ele><time>2026-04-30T14:40:27.528Z</time></trkpt><trkpt lat="44.5906673" lon="7.9520979"><ele>391.0</ele><time>2026-04-30T14:40:28.504Z</time></trkpt><trkpt lat="44.5907733" lon="7.9522133"><ele>391.0</ele><time>2026-04-30T14:40:29.577Z</time></trkpt><trkpt lat="44.5908865" lon="7.9522997"><ele>391.0</ele><time>2026-04-30T14:40:30.566Z</time></trkpt><trkpt lat="44.5910036" lon="7.952345"><ele>391.0</ele><time>2026-04-30T14:40:31.503Z</time></trkpt><trkpt lat="44.5911385" lon="7.9523649"><ele>391.0</ele><time>2026-04-30T14:40:32.539Z</time></trkpt><trkpt lat="44.591252" lon="7.9523005"><ele>391.0</ele><time>2026-04-30T14:40:33.47Z</time></trkpt><trkpt lat="44.5913653" lon="7.9521615"><ele>391.0</ele><time>2026-04-30T14:40:34.511Z</time></trkpt><trkpt lat="44.5914684" lon="7.9520022"><ele>391.0</ele><time>2026-04-30T14:40:35.491Z</time></trkpt><trkpt lat="44.5915677" lon="7.9518367"><ele>388.0</ele><time>2026-04-30T14:40:36.53Z</time></trkpt><trkpt lat="44.5916776" lon="7.951647"><ele>385.0</ele><time>2026-04-30T14:40:37.559Z</time></trkpt><trkpt lat="44.5917762" lon="7.9514773"><ele>382.0</ele><time>2026-04-30T14:40:38.521Z</time></trkpt><trkpt lat="44.5918577" lon="7.9513294"><ele>382.0</ele><time>2026-04-30T14:40:39.509Z</time></trkpt><trkpt lat="44.5919259" lon="7.9511982"><ele>382.0</ele><time>2026-04-30T14:40:40.476Z</time></trkpt><trkpt lat="44.5919816" lon="7.9510771"><ele>382.0</ele><time>2026-04-30T14:40:41.436Z</time></trkpt><trkpt lat="44.5920424" lon="7.9509334"><ele>382.0</ele><time>2026-04-30T14:40:42.47Z</time></trkpt><trkpt lat="44.5920933" lon="7.9507877"><ele>379.75</ele><time>2026-04-30T14:40:43.52Z</time></trkpt><trkpt lat="44.5921383" lon="7.950672"><ele>377.5</ele><time>2026-04-30T14:40:44.515Z</time></trkpt><trkpt lat="44.5921862" lon="7.9505632"><ele>375.25</ele><time>2026-04-30T14:40:45.53Z</time></trkpt><trkpt lat="44.592242" lon="7.9504231"><ele>373.0</ele><time>2026-04-30T14:40:46.618Z</time></trkpt><trkpt lat="44.5923664" lon="7.9500959"><ele>373.66666666666663</ele><time>2026-04-30T14:40:48.563Z</time></trkpt><trkpt lat="44.5924353" lon="7.9499048"><ele>374.3333333333333</ele><time>2026-04-30T14:40:49.535Z</time></trkpt><trkpt lat="44.592516" lon="7.949695"><ele>375.0</ele><time>2026-04-30T14:40:50.511Z</time></trkpt><trkpt lat="44.5925981" lon="7.9494871"><ele>375.0</ele><time>2026-04-30T14:40:51.457Z</time></trkpt><trkpt lat="44.5927024" lon="7.9492525"><ele>375.0</ele><time>2026-04-30T14:40:52.509Z</time></trkpt><trkpt lat="44.5928043" lon="7.9490213"><ele>375.0</ele><time>2026-04-30T14:40:53.544Z</time></trkpt><trkpt lat="44.5928892" lon="7.9488089"><ele>374.3333333333333</ele><time>2026-04-30T14:40:54.495Z</time></trkpt><trkpt lat="44.592984" lon="7.948569"><ele>373.66666666666663</ele><time>2026-04-30T14:40:55.58Z</time></trkpt><trkpt lat="44.5930624" lon="7.9483666"><ele>373.0</ele><time>2026-04-30T14:40:56.514Z</time></trkpt><trkpt lat="44.593139" lon="7.948161"><ele>373.0</ele><time>2026-04-30T14:40:57.486Z</time></trkpt><trkpt lat="44.5932135" lon="7.9479659"><ele>373.0</ele><time>2026-04-30T14:40:58.491Z</time></trkpt><trkpt lat="44.5932926" lon="7.9477686"><ele>373.0</ele><time>2026-04-30T14:40:59.499Z</time></trkpt><trkpt lat="44.5933806" lon="7.9475781"><ele>371.75</ele><time>2026-04-30T14:41:00.512Z</time></trkpt><trkpt lat="44.5934905" lon="7.9474079"><ele>370.5</ele><time>2026-04-30T14:41:01.599Z</time></trkpt><trkpt lat="44.5936138" lon="7.9472935"><ele>369.25</ele><time>2026-04-30T14:41:02.569Z</time></trkpt><trkpt lat="44.593736" lon="7.9472253"><ele>368.0</ele><time>2026-04-30T14:41:03.502Z</time></trkpt><trkpt lat="44.5938926" lon="7.9472004"><ele>368.0</ele><time>2026-04-30T14:41:04.492Z</time></trkpt><trkpt lat="44.594072" lon="7.9472032"><ele>368.0</ele><time>2026-04-30T14:41:05.635Z</time></trkpt><trkpt lat="44.5943373" lon="7.9472056"><ele>368.0</ele><time>2026-04-30T14:41:07.493Z</time></trkpt><trkpt lat="44.5944907" lon="7.9471701"><ele>364.33333333333337</ele><time>2026-04-30T14:41:08.549Z</time></trkpt><trkpt lat="44.5946267" lon="7.9470755"><ele>360.6666666666667</ele><time>2026-04-30T14:41:09.531Z</time></trkpt><trkpt lat="44.5947476" lon="7.9469277"><ele>357.0</ele><time>2026-04-30T14:41:10.569Z</time></trkpt><trkpt lat="44.5948557" lon="7.946768"><ele>361.0</ele><time>2026-04-30T14:41:11.532Z</time></trkpt><trkpt lat="44.5949678" lon="7.9466125"><ele>365.0</ele><time>2026-04-30T14:41:12.515Z</time></trkpt><trkpt lat="44.5951038" lon="7.9464644"><ele>369.0</ele><time>2026-04-30T14:41:13.545Z</time></trkpt><trkpt lat="44.5952588" lon="7.9463475"><ele>366.0</ele><time>2026-04-30T14:41:14.546Z</time></trkpt><trkpt lat="44.5954304" lon="7.9462415"><ele>363.0</ele><time>2026-04-30T14:41:15.555Z</time></trkpt><trkpt lat="44.595628" lon="7.9461308"><ele>360.0</ele><time>2026-04-30T14:41:16.565Z</time></trkpt><trkpt lat="44.596068" lon="7.9459087"><ele>363.0</ele><time>2026-04-30T14:41:18.534Z</time></trkpt><trkpt lat="44.5963025" lon="7.9457996"><ele>366.0</ele><time>2026-04-30T14:41:19.556Z</time></trkpt><trkpt lat="44.5965459" lon="7.9456924"><ele>366.0</ele><time>2026-04-30T14:41:20.566Z</time></trkpt><trkpt lat="44.5967696" lon="7.9455899"><ele>366.0</ele><time>2026-04-30T14:41:21.506Z</time></trkpt><trkpt lat="44.596996" lon="7.9454814"><ele>361.6666666666667</ele><time>2026-04-30T14:41:22.556Z</time></trkpt><trkpt lat="44.5972086" lon="7.9453833"><ele>357.33333333333337</ele><time>2026-04-30T14:41:23.581Z</time></trkpt><trkpt lat="44.5973843" lon="7.945293"><ele>353.0</ele><time>2026-04-30T14:41:24.577Z</time></trkpt><trkpt lat="44.5975293" lon="7.945185"><ele>351.33333333333337</ele><time>2026-04-30T14:41:25.54Z</time></trkpt><trkpt lat="44.5976541" lon="7.9450187"><ele>349.6666666666667</ele><time>2026-04-30T14:41:26.547Z</time></trkpt><trkpt lat="44.5977574" lon="7.9448076"><ele>348.0</ele><time>2026-04-30T14:41:27.504Z</time></trkpt><trkpt lat="44.5978393" lon="7.9445222"><ele>355.0</ele><time>2026-04-30T14:41:28.649Z</time></trkpt><trkpt lat="44.5980101" lon="7.944103"><ele>362.0</ele><time>2026-04-30T14:41:30.566Z</time></trkpt><trkpt lat="44.5981332" lon="7.9439567"><ele>362.0</ele><time>2026-04-30T14:41:31.508Z</time></trkpt><trkpt lat="44.5982903" lon="7.9438456"><ele>362.0</ele><time>2026-04-30T14:41:32.503Z</time></trkpt><trkpt lat="44.5984829" lon="7.9437896"><ele>362.0</ele><time>2026-04-30T14:41:33.504Z</time></trkpt><trkpt lat="44.5986675" lon="7.9437736"><ele>361.5</ele><time>2026-04-30T14:41:34.484Z</time></trkpt><trkpt lat="44.5988279" lon="7.9437604"><ele>361.0</ele><time>2026-04-30T14:41:35.476Z</time></trkpt><trkpt lat="44.5989775" lon="7.9437085"><ele>360.5</ele><time>2026-04-30T14:41:36.559Z</time></trkpt><trkpt lat="44.5990771" lon="7.9436137"><ele>360.0</ele><time>2026-04-30T14:41:37.576Z</time></trkpt><trkpt lat="44.599168" lon="7.9432825"><ele>362.0</ele><time>2026-04-30T14:41:39.56Z</time></trkpt><trkpt lat="44.5991484" lon="7.9430666"><ele>364.0</ele><time>2026-04-30T14:41:40.522Z</time></trkpt><trkpt lat="44.5991194" lon="7.942817"><ele>366.0</ele><time>2026-04-30T14:41:41.596Z</time></trkpt><trkpt lat="44.5990942" lon="7.9425781"><ele>363.0</ele><time>2026-04-30T14:41:42.531Z</time></trkpt><trkpt lat="44.599072" lon="7.9423121"><ele>360.0</ele><time>2026-04-30T14:41:43.514Z</time></trkpt><trkpt lat="44.5990503" lon="7.9420522"><ele>357.0</ele><time>2026-04-30T14:41:44.479Z</time></trkpt><trkpt lat="44.5990336" lon="7.9417683"><ele>357.0</ele><time>2026-04-30T14:41:45.51Z</time></trkpt><trkpt lat="44.5990265" lon="7.9414749"><ele>357.0</ele><time>2026-04-30T14:41:46.602Z</time></trkpt><trkpt lat="44.5990371" lon="7.9412036"><ele>357.0</ele><time>2026-04-30T14:41:47.584Z</time></trkpt><trkpt lat="44.5991212" lon="7.9407098"><ele>357.0</ele><time>2026-04-30T14:41:49.502Z</time></trkpt><trkpt lat="44.5992037" lon="7.9404428"><ele>357.0</ele><time>2026-04-30T14:41:50.545Z</time></trkpt><trkpt lat="44.5992995" lon="7.9401449"><ele>357.0</ele><time>2026-04-30T14:41:51.638Z</time></trkpt><trkpt lat="44.5993727" lon="7.9399023"><ele>357.0</ele><time>2026-04-30T14:41:52.611Z</time></trkpt><trkpt lat="44.5994444" lon="7.9396632"><ele>357.0</ele><time>2026-04-30T14:41:53.614Z</time></trkpt><trkpt lat="44.5996223" lon="7.939251"><ele>354.3333333333333</ele><time>2026-04-30T14:41:55.596Z</time></trkpt><trkpt lat="44.5997426" lon="7.9390992"><ele>351.66666666666663</ele><time>2026-04-30T14:41:56.567Z</time></trkpt><trkpt lat="44.5998917" lon="7.9389987"><ele>349.0</ele><time>2026-04-30T14:41:57.514Z</time></trkpt><trkpt lat="44.6000729" lon="7.9389504"><ele>349.0</ele><time>2026-04-30T14:41:58.511Z</time></trkpt><trkpt lat="44.6002567" lon="7.9389474"><ele>349.0</ele><time>2026-04-30T14:41:59.49Z</time></trkpt><trkpt lat="44.6004511" lon="7.9390076"><ele>349.0</ele><time>2026-04-30T14:42:00.545Z</time></trkpt><trkpt lat="44.6006253" lon="7.9391396"><ele>347.66666666666663</ele><time>2026-04-30T14:42:01.524Z</time></trkpt><trkpt lat="44.600792" lon="7.9393142"><ele>346.3333333333333</ele><time>2026-04-30T14:42:02.509Z</time></trkpt><trkpt lat="44.6009806" lon="7.9395019"><ele>345.0</ele><time>2026-04-30T14:42:03.504Z</time></trkpt><trkpt lat="44.6011682" lon="7.9396915"><ele>345.0</ele><time>2026-04-30T14:42:04.5Z</time></trkpt><trkpt lat="44.6013605" lon="7.9398901"><ele>345.0</ele><time>2026-04-30T14:42:05.499Z</time></trkpt><trkpt lat="44.6015589" lon="7.9400913"><ele>339.5</ele><time>2026-04-30T14:42:06.523Z</time></trkpt><trkpt lat="44.6017522" lon="7.9402942"><ele>334.0</ele><time>2026-04-30T14:42:07.521Z</time></trkpt><trkpt lat="44.6019268" lon="7.9404803"><ele>336.0</ele><time>2026-04-30T14:42:08.494Z</time></trkpt><trkpt lat="44.602107" lon="7.9406573"><ele>338.0</ele><time>2026-04-30T14:42:09.529Z</time></trkpt><trkpt lat="44.6022793" lon="7.9407927"><ele>340.0</ele><time>2026-04-30T14:42:10.533Z</time></trkpt><trkpt lat="44.6024723" lon="7.9408906"><ele>335.3333333333333</ele><time>2026-04-30T14:42:11.544Z</time></trkpt><trkpt lat="44.602682" lon="7.9409421"><ele>330.6666666666667</ele><time>2026-04-30T14:42:12.562Z</time></trkpt><trkpt lat="44.6028824" lon="7.9409798"><ele>326.0</ele><time>2026-04-30T14:42:13.477Z</time></trkpt><trkpt lat="44.6031152" lon="7.9410259"><ele>325.0</ele><time>2026-04-30T14:42:14.548Z</time></trkpt><trkpt lat="44.6033176" lon="7.9410646"><ele>324.0</ele><time>2026-04-30T14:42:15.531Z</time></trkpt><trkpt lat="44.6035287" lon="7.941108"><ele>323.0</ele><time>2026-04-30T14:42:16.595Z</time></trkpt><trkpt lat="44.6036972" lon="7.9411361"><ele>322.0</ele><time>2026-04-30T14:42:17.507Z</time></trkpt><trkpt lat="44.6038656" lon="7.9411406"><ele>321.0</ele><time>2026-04-30T14:42:18.493Z</time></trkpt><trkpt lat="44.6040312" lon="7.9411074"><ele>320.0</ele><time>2026-04-30T14:42:19.499Z</time></trkpt><trkpt lat="44.6042072" lon="7.9410193"><ele>320.0</ele><time>2026-04-30T14:42:20.587Z</time></trkpt><trkpt lat="44.6043521" lon="7.9408937"><ele>320.0</ele><time>2026-04-30T14:42:21.502Z</time></trkpt><trkpt lat="44.6045444" lon="7.9406762"><ele>320.0</ele><time>2026-04-30T14:42:22.721Z</time></trkpt><trkpt lat="44.604833" lon="7.940347"><ele>320.5</ele><time>2026-04-30T14:42:24.468Z</time></trkpt><trkpt lat="44.604998" lon="7.9401486"><ele>321.0</ele><time>2026-04-30T14:42:25.444Z</time></trkpt><trkpt lat="44.6051825" lon="7.9399404"><ele>318.6666666666667</ele><time>2026-04-30T14:42:26.495Z</time></trkpt><trkpt lat="44.6053561" lon="7.9397351"><ele>316.33333333333337</ele><time>2026-04-30T14:42:27.542Z</time></trkpt><trkpt lat="44.6055023" lon="7.9395593"><ele>314.0</ele><time>2026-04-30T14:42:28.483Z</time></trkpt><trkpt lat="44.6056521" lon="7.9393988"><ele>314.0</ele><time>2026-04-30T14:42:29.458Z</time></trkpt><trkpt lat="44.6058409" lon="7.9392608"><ele>314.0</ele><time>2026-04-30T14:42:30.639Z</time></trkpt><trkpt lat="44.6062095" lon="7.9391677"><ele>317.0</ele><time>2026-04-30T14:42:32.472Z</time></trkpt><trkpt lat="44.6064131" lon="7.9391406"><ele>320.0</ele><time>2026-04-30T14:42:33.509Z</time></trkpt><trkpt lat="44.6066073" lon="7.9391348"><ele>323.0</ele><time>2026-04-30T14:42:34.533Z</time></trkpt><trkpt lat="44.6067817" lon="7.9391791"><ele>322.0</ele><time>2026-04-30T14:42:35.49Z</time></trkpt><trkpt lat="44.6069436" lon="7.9392436"><ele>321.0</ele><time>2026-04-30T14:42:36.482Z</time></trkpt><trkpt lat="44.6071015" lon="7.939322"><ele>320.0</ele><time>2026-04-30T14:42:37.501Z</time></trkpt><trkpt lat="44.6072528" lon="7.9394083"><ele>320.0</ele><time>2026-04-30T14:42:38.518Z</time></trkpt><trkpt lat="44.6073821" lon="7.9395165"><ele>320.0</ele><time>2026-04-30T14:42:39.551Z</time></trkpt><trkpt lat="44.607473" lon="7.9396518"><ele>320.0</ele><time>2026-04-30T14:42:40.465Z</time></trkpt><trkpt lat="44.6075644" lon="7.9398363"><ele>320.0</ele><time>2026-04-30T14:42:41.551Z</time></trkpt><trkpt lat="44.6076164" lon="7.9400152"><ele>317.0</ele><time>2026-04-30T14:42:42.503Z</time></trkpt><trkpt lat="44.6076595" lon="7.9402229"><ele>314.0</ele><time>2026-04-30T14:42:43.491Z</time></trkpt><trkpt lat="44.6077134" lon="7.9404307"><ele>311.0</ele><time>2026-04-30T14:42:44.484Z</time></trkpt><trkpt lat="44.6077634" lon="7.9406086"><ele>308.0</ele><time>2026-04-30T14:42:45.457Z</time></trkpt><trkpt lat="44.6078084" lon="7.940788"><ele>308.25</ele><time>2026-04-30T14:42:46.473Z</time></trkpt><trkpt lat="44.607859" lon="7.9409846"><ele>308.5</ele><time>2026-04-30T14:42:47.505Z</time></trkpt><trkpt lat="44.6079109" lon="7.941153"><ele>308.75</ele><time>2026-04-30T14:42:48.47Z</time></trkpt><trkpt lat="44.6079712" lon="7.9412955"><ele>309.0</ele><time>2026-04-30T14:42:49.506Z</time></trkpt><trkpt lat="44.608059" lon="7.9413834"><ele>309.0</ele><time>2026-04-30T14:42:50.576Z</time></trkpt><trkpt lat="44.6081454" lon="7.9414088"><ele>309.0</ele><time>2026-04-30T14:42:51.545Z</time></trkpt><trkpt lat="44.6082634" lon="7.9413724"><ele>309.0</ele><time>2026-04-30T14:42:52.52Z</time></trkpt><trkpt lat="44.6083472" lon="7.9412668"><ele>309.0</ele><time>2026-04-30T14:42:53.514Z</time></trkpt><trkpt lat="44.6084303" lon="7.9411092"><ele>309.0</ele><time>2026-04-30T14:42:54.57Z</time></trkpt><trkpt lat="44.6084889" lon="7.9409223"><ele>309.0</ele><time>2026-04-30T14:42:55.614Z</time></trkpt><trkpt lat="44.6085316" lon="7.9407392"><ele>309.0</ele><time>2026-04-30T14:42:56.578Z</time></trkpt><trkpt lat="44.608601" lon="7.9405499"><ele>309.0</ele><time>2026-04-30T14:42:57.623Z</time></trkpt><trkpt lat="44.6086987" lon="7.9404156"><ele>307.5</ele><time>2026-04-30T14:42:58.632Z</time></trkpt><trkpt lat="44.6088185" lon="7.9403205"><ele>306.0</ele><time>2026-04-30T14:42:59.612Z</time></trkpt><trkpt lat="44.6089654" lon="7.9402745"><ele>304.5</ele><time>2026-04-30T14:43:00.62Z</time></trkpt><trkpt lat="44.6091139" lon="7.9402733"><ele>303.0</ele><time>2026-04-30T14:43:01.581Z</time></trkpt><trkpt lat="44.6092692" lon="7.9402997"><ele>303.0</ele><time>2026-04-30T14:43:02.556Z</time></trkpt><trkpt lat="44.6094605" lon="7.9403321"><ele>303.0</ele><time>2026-04-30T14:43:03.727Z</time></trkpt><trkpt lat="44.6096172" lon="7.9403508"><ele>303.0</ele><time>2026-04-30T14:43:04.657Z</time></trkpt><trkpt lat="44.6097468" lon="7.9403525"><ele>303.75</ele><time>2026-04-30T14:43:05.463Z</time></trkpt><trkpt lat="44.6098842" lon="7.9403516"><ele>304.5</ele><time>2026-04-30T14:43:06.487Z</time></trkpt><trkpt lat="44.6100136" lon="7.9403421"><ele>305.25</ele><time>2026-04-30T14:43:07.515Z</time></trkpt><trkpt lat="44.6101427" lon="7.9403324"><ele>306.0</ele><time>2026-04-30T14:43:08.48Z</time></trkpt><trkpt lat="44.6102788" lon="7.9403283"><ele>306.0</ele><time>2026-04-30T14:43:09.487Z</time></trkpt><trkpt lat="44.6104157" lon="7.9403201"><ele>306.0</ele><time>2026-04-30T14:43:10.49Z</time></trkpt><trkpt lat="44.6105621" lon="7.9403123"><ele>306.0</ele><time>2026-04-30T14:43:11.489Z</time></trkpt><trkpt lat="44.6107052" lon="7.9403019"><ele>306.0</ele><time>2026-04-30T14:43:12.443Z</time></trkpt><trkpt lat="44.610857" lon="7.9402869"><ele>306.0</ele><time>2026-04-30T14:43:13.518Z</time></trkpt><trkpt lat="44.6110126" lon="7.9402733"><ele>306.0</ele><time>2026-04-30T14:43:14.519Z</time></trkpt><trkpt lat="44.6111535" lon="7.9402571"><ele>306.0</ele><time>2026-04-30T14:43:15.511Z</time></trkpt><trkpt lat="44.6112997" lon="7.9402586"><ele>306.0</ele><time>2026-04-30T14:43:16.577Z</time></trkpt><trkpt lat="44.6114398" lon="7.9402968"><ele>306.5</ele><time>2026-04-30T14:43:17.615Z</time></trkpt><trkpt lat="44.6115646" lon="7.9403529"><ele>307.0</ele><time>2026-04-30T14:43:18.562Z</time></trkpt><trkpt lat="44.61171" lon="7.9404135"><ele>307.5</ele><time>2026-04-30T14:43:19.657Z</time></trkpt><trkpt lat="44.611839" lon="7.9404769"><ele>308.0</ele><time>2026-04-30T14:43:20.652Z</time></trkpt><trkpt lat="44.6119848" lon="7.9405483"><ele>308.0</ele><time>2026-04-30T14:43:21.707Z</time></trkpt><trkpt lat="44.6121204" lon="7.9406167"><ele>308.0</ele><time>2026-04-30T14:43:22.656Z</time></trkpt><trkpt lat="44.6122448" lon="7.9406774"><ele>308.0</ele><time>2026-04-30T14:43:23.623Z</time></trkpt><trkpt lat="44.6123867" lon="7.9407393"><ele>308.0</ele><time>2026-04-30T14:43:24.816Z</time></trkpt><trkpt lat="44.6125845" lon="7.9408138"><ele>308.0</ele><time>2026-04-30T14:43:26.615Z</time></trkpt><trkpt lat="44.6126947" lon="7.9408481"><ele>308.0</ele><time>2026-04-30T14:43:27.622Z</time></trkpt><trkpt lat="44.6128111" lon="7.9408773"><ele>308.0</ele><time>2026-04-30T14:43:28.619Z</time></trkpt><trkpt lat="44.6129556" lon="7.9409053"><ele>308.0</ele><time>2026-04-30T14:43:29.757Z</time></trkpt><trkpt lat="44.6130879" lon="7.9409255"><ele>306.75</ele><time>2026-04-30T14:43:30.711Z</time></trkpt><trkpt lat="44.6131971" lon="7.94094"><ele>305.5</ele><time>2026-04-30T14:43:31.488Z</time></trkpt><trkpt lat="44.6133354" lon="7.9409527"><ele>304.25</ele><time>2026-04-30T14:43:32.535Z</time></trkpt><trkpt lat="44.6134661" lon="7.9409625"><ele>303.0</ele><time>2026-04-30T14:43:33.541Z</time></trkpt><trkpt lat="44.6135865" lon="7.9409713"><ele>305.1666666666667</ele><time>2026-04-30T14:43:34.524Z</time></trkpt><trkpt lat="44.6136879" lon="7.9409784"><ele>307.3333333333333</ele><time>2026-04-30T14:43:35.483Z</time></trkpt><trkpt lat="44.6137844" lon="7.9409846"><ele>309.5</ele><time>2026-04-30T14:43:36.49Z</time></trkpt><trkpt lat="44.6138709" lon="7.9409914"><ele>311.66666666666663</ele><time>2026-04-30T14:43:37.541Z</time></trkpt><trkpt lat="44.613943" lon="7.9409957"><ele>313.8333333333333</ele><time>2026-04-30T14:43:38.669Z</time></trkpt><trkpt lat="44.614007" lon="7.9410181"><ele>316.0</ele><time>2026-04-30T14:43:41.534Z</time></trkpt><trkpt lat="44.6140826" lon="7.9410079"><ele>316.0</ele><time>2026-04-30T14:44:30.575Z</time></trkpt><trkpt lat="44.6141491" lon="7.9410011"><ele>316.0</ele><time>2026-04-30T14:44:33.555Z</time></trkpt><trkpt lat="44.614232" lon="7.9410077"><ele>316.0</ele><time>2026-04-30T14:44:36.55Z</time></trkpt><trkpt lat="44.6142995" lon="7.941017"><ele>316.0</ele><time>2026-04-30T14:44:39.562Z</time></trkpt><trkpt lat="44.6143796" lon="7.9410439"><ele>316.0</ele><time>2026-04-30T14:44:41.588Z</time></trkpt><trkpt lat="44.614502" lon="7.9411033"><ele>316.0</ele><time>2026-04-30T14:44:43.582Z</time></trkpt><trkpt lat="44.6145688" lon="7.9411433"><ele>317.20000000000005</ele><time>2026-04-30T14:44:44.502Z</time></trkpt><trkpt lat="44.6146494" lon="7.9411934"><ele>318.40000000000003</ele><time>2026-04-30T14:44:45.516Z</time></trkpt><trkpt lat="44.6147319" lon="7.9412395"><ele>319.6</ele><time>2026-04-30T14:44:46.543Z</time></trkpt><trkpt lat="44.6148132" lon="7.9412855"><ele>320.8</ele><time>2026-04-30T14:44:47.524Z</time></trkpt><trkpt lat="44.6149066" lon="7.9413353"><ele>322.0</ele><time>2026-04-30T14:44:48.532Z</time></trkpt><trkpt lat="44.6150015" lon="7.9414019"><ele>322.0</ele><time>2026-04-30T14:44:49.565Z</time></trkpt><trkpt lat="44.615092" lon="7.9414894"><ele>322.0</ele><time>2026-04-30T14:44:50.545Z</time></trkpt><trkpt lat="44.6151823" lon="7.9416094"><ele>322.0</ele><time>2026-04-30T14:44:51.547Z</time></trkpt><trkpt lat="44.6152716" lon="7.9417556"><ele>322.0</ele><time>2026-04-30T14:44:52.566Z</time></trkpt><trkpt lat="44.6154232" lon="7.9420906"><ele>319.0</ele><time>2026-04-30T14:44:54.511Z</time></trkpt><trkpt lat="44.6154991" lon="7.9422763"><ele>316.0</ele><time>2026-04-30T14:44:55.574Z</time></trkpt><trkpt lat="44.6155681" lon="7.9424345"><ele>313.0</ele><time>2026-04-30T14:44:56.512Z</time></trkpt><trkpt lat="44.6156509" lon="7.9426117"><ele>310.0</ele><time>2026-04-30T14:44:57.566Z</time></trkpt><trkpt lat="44.6157326" lon="7.9427556"><ele>310.0</ele><time>2026-04-30T14:44:58.508Z</time></trkpt><trkpt lat="44.6158427" lon="7.9428983"><ele>310.0</ele><time>2026-04-30T14:44:59.545Z</time></trkpt><trkpt lat="44.615956" lon="7.9430081"><ele>310.0</ele><time>2026-04-30T14:45:00.488Z</time></trkpt><trkpt lat="44.6160812" lon="7.9430962"><ele>310.0</ele><time>2026-04-30T14:45:01.462Z</time></trkpt><trkpt lat="44.6162157" lon="7.9431931"><ele>308.25</ele><time>2026-04-30T14:45:02.571Z</time></trkpt><trkpt lat="44.616336" lon="7.9432813"><ele>306.5</ele><time>2026-04-30T14:45:03.582Z</time></trkpt><trkpt lat="44.6164525" lon="7.9433834"><ele>304.75</ele><time>2026-04-30T14:45:04.498Z</time></trkpt><trkpt lat="44.6165835" lon="7.9435229"><ele>303.0</ele><time>2026-04-30T14:45:05.574Z</time></trkpt><trkpt lat="44.616695" lon="7.9436682"><ele>303.0</ele><time>2026-04-30T14:45:06.568Z</time></trkpt><trkpt lat="44.6167812" lon="7.9438075"><ele>303.0</ele><time>2026-04-30T14:45:07.472Z</time></trkpt><trkpt lat="44.6168878" lon="7.9439903"><ele>303.0</ele><time>2026-04-30T14:45:08.523Z</time></trkpt><trkpt lat="44.616985" lon="7.9441558"><ele>301.5</ele><time>2026-04-30T14:45:09.539Z</time></trkpt><trkpt lat="44.6170853" lon="7.9443091"><ele>300.0</ele><time>2026-04-30T14:45:10.608Z</time></trkpt><trkpt lat="44.6171818" lon="7.9444499"><ele>298.5</ele><time>2026-04-30T14:45:11.572Z</time></trkpt><trkpt lat="44.6172996" lon="7.9446003"><ele>297.0</ele><time>2026-04-30T14:45:12.623Z</time></trkpt><trkpt lat="44.6174139" lon="7.9447416"><ele>297.0</ele><time>2026-04-30T14:45:13.591Z</time></trkpt><trkpt lat="44.6175406" lon="7.9448951"><ele>297.0</ele><time>2026-04-30T14:45:14.58Z</time></trkpt><trkpt lat="44.6176643" lon="7.9450378"><ele>297.0</ele><time>2026-04-30T14:45:15.55Z</time></trkpt><trkpt lat="44.61779" lon="7.9451901"><ele>295.0</ele><time>2026-04-30T14:45:16.543Z</time></trkpt><trkpt lat="44.617939" lon="7.9453658"><ele>293.0</ele><time>2026-04-30T14:45:17.679Z</time></trkpt><trkpt lat="44.6180489" lon="7.9454989"><ele>291.0</ele><time>2026-04-30T14:45:18.59Z</time></trkpt><trkpt lat="44.6181768" lon="7.9456423"><ele>291.0</ele><time>2026-04-30T14:45:19.623Z</time></trkpt><trkpt lat="44.6183087" lon="7.9457635"><ele>291.0</ele><time>2026-04-30T14:45:20.62Z</time></trkpt><trkpt lat="44.6186035" lon="7.9459268"><ele>289.3333333333333</ele><time>2026-04-30T14:45:22.541Z</time></trkpt><trkpt lat="44.6187665" lon="7.9459931"><ele>287.66666666666663</ele><time>2026-04-30T14:45:23.584Z</time></trkpt><trkpt lat="44.6189145" lon="7.9460554"><ele>286.0</ele><time>2026-04-30T14:45:24.579Z</time></trkpt><trkpt lat="44.6190716" lon="7.9461278"><ele>286.0</ele><time>2026-04-30T14:45:25.567Z</time></trkpt><trkpt lat="44.6192139" lon="7.9461924"><ele>286.0</ele><time>2026-04-30T14:45:26.518Z</time></trkpt><trkpt lat="44.6193737" lon="7.9462663"><ele>286.0</ele><time>2026-04-30T14:45:27.548Z</time></trkpt><trkpt lat="44.6195266" lon="7.9463548"><ele>283.3333333333333</ele><time>2026-04-30T14:45:28.53Z</time></trkpt><trkpt lat="44.6196728" lon="7.9464663"><ele>280.6666666666667</ele><time>2026-04-30T14:45:29.529Z</time></trkpt><trkpt lat="44.6198022" lon="7.946583"><ele>278.0</ele><time>2026-04-30T14:45:30.447Z</time></trkpt><trkpt lat="44.6199648" lon="7.9467502"><ele>278.0</ele><time>2026-04-30T14:45:31.606Z</time></trkpt><trkpt lat="44.62008" lon="7.9469018"><ele>278.0</ele><time>2026-04-30T14:45:32.595Z</time></trkpt><trkpt lat="44.6201787" lon="7.9470613"><ele>278.0</ele><time>2026-04-30T14:45:33.573Z</time></trkpt><trkpt lat="44.6202733" lon="7.9472203"><ele>274.33333333333337</ele><time>2026-04-30T14:45:34.532Z</time></trkpt><trkpt lat="44.620359" lon="7.9473903"><ele>270.6666666666667</ele><time>2026-04-30T14:45:35.532Z</time></trkpt><trkpt lat="44.6204445" lon="7.947563"><ele>267.0</ele><time>2026-04-30T14:45:36.543Z</time></trkpt><trkpt lat="44.620532" lon="7.9477387"><ele>267.0</ele><time>2026-04-30T14:45:37.564Z</time></trkpt><trkpt lat="44.6206207" lon="7.9479125"><ele>267.0</ele><time>2026-04-30T14:45:38.587Z</time></trkpt><trkpt lat="44.620699" lon="7.9480759"><ele>267.0</ele><time>2026-04-30T14:45:39.533Z</time></trkpt><trkpt lat="44.6207796" lon="7.9482398"><ele>267.0</ele><time>2026-04-30T14:45:40.544Z</time></trkpt><trkpt lat="44.6208558" lon="7.9484032"><ele>265.25</ele><time>2026-04-30T14:45:41.531Z</time></trkpt><trkpt lat="44.6209383" lon="7.9485776"><ele>263.5</ele><time>2026-04-30T14:45:42.538Z</time></trkpt><trkpt lat="44.6210186" lon="7.9487543"><ele>261.75</ele><time>2026-04-30T14:45:43.556Z</time></trkpt><trkpt lat="44.6210993" lon="7.9489154"><ele>260.0</ele><time>2026-04-30T14:45:44.563Z</time></trkpt><trkpt lat="44.6211991" lon="7.9490925"><ele>257.33333333333337</ele><time>2026-04-30T14:45:45.671Z</time></trkpt><trkpt lat="44.6214033" lon="7.9493287"><ele>254.66666666666669</ele><time>2026-04-30T14:45:47.59Z</time></trkpt><trkpt lat="44.6215363" lon="7.9494126"><ele>252.0</ele><time>2026-04-30T14:45:48.599Z</time></trkpt><trkpt lat="44.6216816" lon="7.9494679"><ele>252.0</ele><time>2026-04-30T14:45:49.604Z</time></trkpt><trkpt lat="44.6218477" lon="7.9494996"><ele>252.0</ele><time>2026-04-30T14:45:50.742Z</time></trkpt><trkpt lat="44.6221082" lon="7.9495566"><ele>252.0</ele><time>2026-04-30T14:45:52.575Z</time></trkpt><trkpt lat="44.6222368" lon="7.9496253"><ele>252.0</ele><time>2026-04-30T14:45:53.491Z</time></trkpt><trkpt lat="44.6223744" lon="7.9497324"><ele>252.0</ele><time>2026-04-30T14:45:54.525Z</time></trkpt><trkpt lat="44.6224895" lon="7.9498637"><ele>252.0</ele><time>2026-04-30T14:45:55.505Z</time></trkpt><trkpt lat="44.6225956" lon="7.9500212"><ele>253.33333333333331</ele><time>2026-04-30T14:45:56.585Z</time></trkpt><trkpt lat="44.6226774" lon="7.9501744"><ele>254.66666666666666</ele><time>2026-04-30T14:45:57.556Z</time></trkpt><trkpt lat="44.622753" lon="7.9503515"><ele>256.0</ele><time>2026-04-30T14:45:58.64Z</time></trkpt><trkpt lat="44.6228849" lon="7.9506444"><ele>254.25</ele><time>2026-04-30T14:46:00.467Z</time></trkpt><trkpt lat="44.6229555" lon="7.950797"><ele>252.5</ele><time>2026-04-30T14:46:01.507Z</time></trkpt><trkpt lat="44.6230147" lon="7.9509353"><ele>250.75</ele><time>2026-04-30T14:46:02.511Z</time></trkpt><trkpt lat="44.6230699" lon="7.951068"><ele>249.0</ele><time>2026-04-30T14:46:03.532Z</time></trkpt><trkpt lat="44.6231236" lon="7.9511895"><ele>249.0</ele><time>2026-04-30T14:46:04.605Z</time></trkpt><trkpt lat="44.62317" lon="7.9512995"><ele>249.0</ele><time>2026-04-30T14:46:05.538Z</time></trkpt><trkpt lat="44.6232279" lon="7.9514327"><ele>249.0</ele><time>2026-04-30T14:46:06.544Z</time></trkpt><trkpt lat="44.6232838" lon="7.9515818"><ele>249.0</ele><time>2026-04-30T14:46:07.507Z</time></trkpt><trkpt lat="44.6233505" lon="7.951806"><ele>248.66666666666669</ele><time>2026-04-30T14:46:08.673Z</time></trkpt><trkpt lat="44.6234043" lon="7.9520217"><ele>248.33333333333334</ele><time>2026-04-30T14:46:09.769Z</time></trkpt><trkpt lat="44.6235023" lon="7.9523468"><ele>248.0</ele><time>2026-04-30T14:46:11.522Z</time></trkpt><trkpt lat="44.6235954" lon="7.9525277"><ele>245.0</ele><time>2026-04-30T14:46:12.516Z</time></trkpt><trkpt lat="44.6237044" lon="7.9526815"><ele>242.0</ele><time>2026-04-30T14:46:13.485Z</time></trkpt><trkpt lat="44.6238726" lon="7.9528863"><ele>239.0</ele><time>2026-04-30T14:46:14.612Z</time></trkpt><trkpt lat="44.6240222" lon="7.9530842"><ele>239.0</ele><time>2026-04-30T14:46:15.54Z</time></trkpt><trkpt lat="44.6241684" lon="7.9532852"><ele>239.0</ele><time>2026-04-30T14:46:16.54Z</time></trkpt><trkpt lat="44.6243145" lon="7.9534933"><ele>239.0</ele><time>2026-04-30T14:46:17.615Z</time></trkpt><trkpt lat="44.6244279" lon="7.9536653"><ele>236.0</ele><time>2026-04-30T14:46:18.571Z</time></trkpt><trkpt lat="44.6245469" lon="7.9538376"><ele>233.0</ele><time>2026-04-30T14:46:19.574Z</time></trkpt><trkpt lat="44.6246636" lon="7.9540066"><ele>230.0</ele><time>2026-04-30T14:46:20.587Z</time></trkpt><trkpt lat="44.6247693" lon="7.9541499"><ele>228.66666666666669</ele><time>2026-04-30T14:46:21.486Z</time></trkpt><trkpt lat="44.6248925" lon="7.9543092"><ele>227.33333333333331</ele><time>2026-04-30T14:46:22.515Z</time></trkpt><trkpt lat="44.6250278" lon="7.9544498"><ele>226.0</ele><time>2026-04-30T14:46:23.553Z</time></trkpt><trkpt lat="44.6251815" lon="7.9545905"><ele>223.5</ele><time>2026-04-30T14:46:24.604Z</time></trkpt><trkpt lat="44.6253219" lon="7.9547043"><ele>221.0</ele><time>2026-04-30T14:46:25.588Z</time></trkpt><trkpt lat="44.6255854" lon="7.9548886"><ele>221.0</ele><time>2026-04-30T14:46:27.541Z</time></trkpt><trkpt lat="44.6257319" lon="7.9549827"><ele>221.0</ele><time>2026-04-30T14:46:28.72Z</time></trkpt><trkpt lat="44.6259731" lon="7.9551399"><ele>221.0</ele><time>2026-04-30T14:46:30.606Z</time></trkpt><trkpt lat="44.626098" lon="7.9552376"><ele>220.25</ele><time>2026-04-30T14:46:31.546Z</time></trkpt><trkpt lat="44.6262078" lon="7.9553569"><ele>219.5</ele><time>2026-04-30T14:46:32.529Z</time></trkpt><trkpt lat="44.6263136" lon="7.9555045"><ele>218.75</ele><time>2026-04-30T14:46:33.562Z</time></trkpt><trkpt lat="44.6263927" lon="7.9556527"><ele>218.0</ele><time>2026-04-30T14:46:34.518Z</time></trkpt><trkpt lat="44.6264819" lon="7.9558289"><ele>217.5</ele><time>2026-04-30T14:46:35.57Z</time></trkpt><trkpt lat="44.6265519" lon="7.9559889"><ele>217.0</ele><time>2026-04-30T14:46:36.51Z</time></trkpt><trkpt lat="44.6266272" lon="7.9561763"><ele>216.5</ele><time>2026-04-30T14:46:37.597Z</time></trkpt><trkpt lat="44.6266868" lon="7.956333"><ele>216.0</ele><time>2026-04-30T14:46:38.55Z</time></trkpt><trkpt lat="44.6267533" lon="7.9564976"><ele>216.0</ele><time>2026-04-30T14:46:39.542Z</time></trkpt><trkpt lat="44.6268333" lon="7.9566587"><ele>216.0</ele><time>2026-04-30T14:46:40.523Z</time></trkpt><trkpt lat="44.6269319" lon="7.9568445"><ele>216.0</ele><time>2026-04-30T14:46:41.604Z</time></trkpt><trkpt lat="44.6271505" lon="7.957145"><ele>216.0</ele><time>2026-04-30T14:46:43.574Z</time></trkpt><trkpt lat="44.6273057" lon="7.9572899"><ele>216.0</ele><time>2026-04-30T14:46:44.693Z</time></trkpt><trkpt lat="44.6275767" lon="7.9575431"><ele>216.33333333333331</ele><time>2026-04-30T14:46:46.567Z</time></trkpt><trkpt lat="44.6276969" lon="7.9576513"><ele>216.66666666666666</ele><time>2026-04-30T14:46:47.56Z</time></trkpt><trkpt lat="44.6278363" lon="7.9577742"><ele>217.0</ele><time>2026-04-30T14:46:48.581Z</time></trkpt><trkpt lat="44.6279858" lon="7.9579081"><ele>216.0</ele><time>2026-04-30T14:46:49.521Z</time></trkpt><trkpt lat="44.6281399" lon="7.9580595"><ele>215.0</ele><time>2026-04-30T14:46:50.575Z</time></trkpt><trkpt lat="44.6282671" lon="7.9581952"><ele>214.0</ele><time>2026-04-30T14:46:51.51Z</time></trkpt><trkpt lat="44.6283893" lon="7.9583267"><ele>214.0</ele><time>2026-04-30T14:46:52.548Z</time></trkpt><trkpt lat="44.6285125" lon="7.9584484"><ele>214.0</ele><time>2026-04-30T14:46:53.558Z</time></trkpt><trkpt lat="44.6286269" lon="7.9585587"><ele>214.0</ele><time>2026-04-30T14:46:54.524Z</time></trkpt><trkpt lat="44.6287468" lon="7.9586715"><ele>214.0</ele><time>2026-04-30T14:46:55.477Z</time></trkpt><trkpt lat="44.6289048" lon="7.9588233"><ele>214.0</ele><time>2026-04-30T14:46:56.59Z</time></trkpt><trkpt lat="44.6290409" lon="7.9589563"><ele>214.0</ele><time>2026-04-30T14:46:57.545Z</time></trkpt><trkpt lat="44.6291978" lon="7.9591044"><ele>214.0</ele><time>2026-04-30T14:46:58.687Z</time></trkpt><trkpt lat="44.6294629" lon="7.959363"><ele>212.66666666666666</ele><time>2026-04-30T14:47:00.624Z</time></trkpt><trkpt lat="44.6295972" lon="7.9594932"><ele>211.33333333333331</ele><time>2026-04-30T14:47:01.551Z</time></trkpt><trkpt lat="44.6297522" lon="7.9596408"><ele>210.0</ele><time>2026-04-30T14:47:02.607Z</time></trkpt><trkpt lat="44.6298995" lon="7.9597854"><ele>210.0</ele><time>2026-04-30T14:47:03.624Z</time></trkpt><trkpt lat="44.6300273" lon="7.9599132"><ele>210.0</ele><time>2026-04-30T14:47:04.533Z</time></trkpt><trkpt lat="44.6301815" lon="7.9600639"><ele>210.0</ele><time>2026-04-30T14:47:05.62Z</time></trkpt><trkpt lat="44.630316" lon="7.9601911"><ele>210.0</ele><time>2026-04-30T14:47:06.568Z</time></trkpt><trkpt lat="44.6304464" lon="7.960317"><ele>210.0</ele><time>2026-04-30T14:47:07.493Z</time></trkpt><trkpt lat="44.6305994" lon="7.9604665"><ele>210.0</ele><time>2026-04-30T14:47:08.577Z</time></trkpt><trkpt lat="44.6307376" lon="7.9605975"><ele>210.0</ele><time>2026-04-30T14:47:09.56Z</time></trkpt><trkpt lat="44.6308871" lon="7.9607386"><ele>210.0</ele><time>2026-04-30T14:47:10.638Z</time></trkpt><trkpt lat="44.6310154" lon="7.9608592"><ele>210.0</ele><time>2026-04-30T14:47:11.566Z</time></trkpt><trkpt lat="44.6311482" lon="7.9609946"><ele>209.66666666666669</ele><time>2026-04-30T14:47:12.578Z</time></trkpt><trkpt lat="44.6312601" lon="7.9611342"><ele>209.33333333333334</ele><time>2026-04-30T14:47:13.54Z</time></trkpt><trkpt lat="44.6313623" lon="7.9613136"><ele>209.0</ele><time>2026-04-30T14:47:14.587Z</time></trkpt><trkpt lat="44.6314398" lon="7.9614923"><ele>209.0</ele><time>2026-04-30T14:47:15.565Z</time></trkpt><trkpt lat="44.6314985" lon="7.9617047"><ele>209.0</ele><time>2026-04-30T14:47:16.624Z</time></trkpt><trkpt lat="44.6315309" lon="7.9619002"><ele>209.0</ele><time>2026-04-30T14:47:17.541Z</time></trkpt><trkpt lat="44.631554" lon="7.9621335"><ele>209.0</ele><time>2026-04-30T14:47:18.586Z</time></trkpt><trkpt lat="44.6315591" lon="7.9623688"><ele>209.0</ele><time>2026-04-30T14:47:19.595Z</time></trkpt><trkpt lat="44.6315568" lon="7.9625833"><ele>209.0</ele><time>2026-04-30T14:47:20.507Z</time></trkpt><trkpt lat="44.631548" lon="7.9628313"><ele>209.0</ele><time>2026-04-30T14:47:21.575Z</time></trkpt><trkpt lat="44.6315439" lon="7.9630404"><ele>209.0</ele><time>2026-04-30T14:47:22.48Z</time></trkpt><trkpt lat="44.6315373" lon="7.9633039"><ele>209.0</ele><time>2026-04-30T14:47:23.617Z</time></trkpt><trkpt lat="44.6315277" lon="7.96376"><ele>209.33333333333334</ele><time>2026-04-30T14:47:25.558Z</time></trkpt><trkpt lat="44.6315432" lon="7.9639978"><ele>209.66666666666669</ele><time>2026-04-30T14:47:26.561Z</time></trkpt><trkpt lat="44.6315749" lon="7.9642384"><ele>210.0</ele><time>2026-04-30T14:47:27.554Z</time></trkpt><trkpt lat="44.6316161" lon="7.9644702"><ele>210.66666666666669</ele><time>2026-04-30T14:47:28.512Z</time></trkpt><trkpt lat="44.6316774" lon="7.9647194"><ele>211.33333333333334</ele><time>2026-04-30T14:47:29.582Z</time></trkpt><trkpt lat="44.6317496" lon="7.9649421"><ele>212.0</ele><time>2026-04-30T14:47:30.55Z</time></trkpt><trkpt lat="44.6318368" lon="7.9651554"><ele>211.0</ele><time>2026-04-30T14:47:31.537Z</time></trkpt><trkpt lat="44.6319373" lon="7.9653624"><ele>210.0</ele><time>2026-04-30T14:47:32.521Z</time></trkpt><trkpt lat="44.6320523" lon="7.9655603"><ele>209.0</ele><time>2026-04-30T14:47:33.561Z</time></trkpt><trkpt lat="44.6321739" lon="7.9657406"><ele>210.33333333333334</ele><time>2026-04-30T14:47:34.576Z</time></trkpt><trkpt lat="44.632291" lon="7.9658733"><ele>211.66666666666669</ele><time>2026-04-30T14:47:35.556Z</time></trkpt><trkpt lat="44.632425" lon="7.9660096"><ele>213.0</ele><time>2026-04-30T14:47:36.522Z</time></trkpt><trkpt lat="44.632608" lon="7.9661689"><ele>210.5</ele><time>2026-04-30T14:47:37.664Z</time></trkpt><trkpt lat="44.6329783" lon="7.9664486"><ele>208.0</ele><time>2026-04-30T14:47:39.51Z</time></trkpt><trkpt lat="44.6331689" lon="7.9666161"><ele>208.5</ele><time>2026-04-30T14:47:40.446Z</time></trkpt><trkpt lat="44.6333847" lon="7.9667998"><ele>209.0</ele><time>2026-04-30T14:47:41.477Z</time></trkpt><trkpt lat="44.6335912" lon="7.9669691"><ele>210.0</ele><time>2026-04-30T14:47:42.493Z</time></trkpt><trkpt lat="44.6337878" lon="7.9671245"><ele>211.0</ele><time>2026-04-30T14:47:43.458Z</time></trkpt><trkpt lat="44.633994" lon="7.9672905"><ele>211.0</ele><time>2026-04-30T14:47:44.541Z</time></trkpt><trkpt lat="44.6341811" lon="7.9674383"><ele>211.0</ele><time>2026-04-30T14:47:45.549Z</time></trkpt><trkpt lat="44.6343681" lon="7.967588"><ele>211.0</ele><time>2026-04-30T14:47:46.571Z</time></trkpt><trkpt lat="44.6345612" lon="7.9677393"><ele>210.0</ele><time>2026-04-30T14:47:47.554Z</time></trkpt><trkpt lat="44.6347665" lon="7.9679044"><ele>209.0</ele><time>2026-04-30T14:47:48.547Z</time></trkpt><trkpt lat="44.6349996" lon="7.968093"><ele>209.0</ele><time>2026-04-30T14:47:49.615Z</time></trkpt><trkpt lat="44.6352036" lon="7.9682591"><ele>209.0</ele><time>2026-04-30T14:47:50.552Z</time></trkpt><trkpt lat="44.6354256" lon="7.9684391"><ele>209.5</ele><time>2026-04-30T14:47:51.587Z</time></trkpt><trkpt lat="44.6356216" lon="7.9685965"><ele>210.0</ele><time>2026-04-30T14:47:52.512Z</time></trkpt><trkpt lat="44.6358451" lon="7.9687754"><ele>210.0</ele><time>2026-04-30T14:47:53.555Z</time></trkpt><trkpt lat="44.6360603" lon="7.9689501"><ele>210.0</ele><time>2026-04-30T14:47:54.577Z</time></trkpt><trkpt lat="44.6362606" lon="7.969113"><ele>209.5</ele><time>2026-04-30T14:47:55.535Z</time></trkpt><trkpt lat="44.6364612" lon="7.9692737"><ele>209.0</ele><time>2026-04-30T14:47:56.506Z</time></trkpt><trkpt lat="44.6366542" lon="7.9694276"><ele>209.0</ele><time>2026-04-30T14:47:57.468Z</time></trkpt><trkpt lat="44.6368555" lon="7.9695839"><ele>209.0</ele><time>2026-04-30T14:47:58.485Z</time></trkpt><trkpt lat="44.6370582" lon="7.9697486"><ele>208.33333333333334</ele><time>2026-04-30T14:47:59.538Z</time></trkpt><trkpt lat="44.6372562" lon="7.9699093"><ele>207.66666666666669</ele><time>2026-04-30T14:48:00.576Z</time></trkpt><trkpt lat="44.6374286" lon="7.970048"><ele>207.0</ele><time>2026-04-30T14:48:01.51Z</time></trkpt><trkpt lat="44.6376211" lon="7.9702047"><ele>207.0</ele><time>2026-04-30T14:48:02.555Z</time></trkpt><trkpt lat="44.6377985" lon="7.9703476"><ele>207.0</ele><time>2026-04-30T14:48:03.577Z</time></trkpt><trkpt lat="44.637958" lon="7.9704742"><ele>207.0</ele><time>2026-04-30T14:48:04.503Z</time></trkpt><trkpt lat="44.6381334" lon="7.9706109"><ele>206.33333333333331</ele><time>2026-04-30T14:48:05.53Z</time></trkpt><trkpt lat="44.6382994" lon="7.9707449"><ele>205.66666666666666</ele><time>2026-04-30T14:48:06.564Z</time></trkpt><trkpt lat="44.638465" lon="7.9708739"><ele>205.0</ele><time>2026-04-30T14:48:07.57Z</time></trkpt><trkpt lat="44.6386253" lon="7.9710005"><ele>205.66666666666666</ele><time>2026-04-30T14:48:08.565Z</time></trkpt><trkpt lat="44.6387968" lon="7.9711395"><ele>206.33333333333331</ele><time>2026-04-30T14:48:09.686Z</time></trkpt><trkpt lat="44.6389289" lon="7.9712487"><ele>207.0</ele><time>2026-04-30T14:48:10.589Z</time></trkpt><trkpt lat="44.6390811" lon="7.9713764"><ele>207.0</ele><time>2026-04-30T14:48:11.687Z</time></trkpt><trkpt lat="44.6393119" lon="7.9715716"><ele>207.0</ele><time>2026-04-30T14:48:13.516Z</time></trkpt><trkpt lat="44.6394404" lon="7.9716809"><ele>207.0</ele><time>2026-04-30T14:48:14.573Z</time></trkpt><trkpt lat="44.6395527" lon="7.9717724"><ele>206.0</ele><time>2026-04-30T14:48:15.526Z</time></trkpt><trkpt lat="44.6396716" lon="7.9718736"><ele>205.0</ele><time>2026-04-30T14:48:16.572Z</time></trkpt><trkpt lat="44.6397895" lon="7.9719719"><ele>204.0</ele><time>2026-04-30T14:48:17.57Z</time></trkpt><trkpt lat="44.6399265" lon="7.9720866"><ele>203.0</ele><time>2026-04-30T14:48:18.636Z</time></trkpt><trkpt lat="44.6402213" lon="7.9723128"><ele>202.0</ele><time>2026-04-30T14:48:20.721Z</time></trkpt><trkpt lat="44.640501" lon="7.9725349"><ele>201.0</ele><time>2026-04-30T14:48:22.796Z</time></trkpt><trkpt lat="44.6407467" lon="7.9727327"><ele>201.0</ele><time>2026-04-30T14:48:24.586Z</time></trkpt><trkpt lat="44.6408714" lon="7.9728358"><ele>201.0</ele><time>2026-04-30T14:48:25.555Z</time></trkpt><trkpt lat="44.6410014" lon="7.9729401"><ele>201.0</ele><time>2026-04-30T14:48:26.539Z</time></trkpt><trkpt lat="44.6411432" lon="7.9730517"><ele>200.66666666666669</ele><time>2026-04-30T14:48:27.549Z</time></trkpt><trkpt lat="44.641287" lon="7.9731637"><ele>200.33333333333334</ele><time>2026-04-30T14:48:28.52Z</time></trkpt><trkpt lat="44.6414471" lon="7.973285"><ele>200.0</ele><time>2026-04-30T14:48:29.538Z</time></trkpt><trkpt lat="44.6416222" lon="7.9734194"><ele>200.0</ele><time>2026-04-30T14:48:30.564Z</time></trkpt><trkpt lat="44.6417955" lon="7.9735598"><ele>200.0</ele><time>2026-04-30T14:48:31.551Z</time></trkpt><trkpt lat="44.6419639" lon="7.9736985"><ele>200.0</ele><time>2026-04-30T14:48:32.507Z</time></trkpt><trkpt lat="44.6421524" lon="7.9738443"><ele>199.66666666666669</ele><time>2026-04-30T14:48:33.568Z</time></trkpt><trkpt lat="44.6423403" lon="7.9739795"><ele>199.33333333333331</ele><time>2026-04-30T14:48:34.587Z</time></trkpt><trkpt lat="44.6425213" lon="7.9740919"><ele>199.0</ele><time>2026-04-30T14:48:35.565Z</time></trkpt><trkpt lat="44.6427086" lon="7.9741859"><ele>199.0</ele><time>2026-04-30T14:48:36.569Z</time></trkpt><trkpt lat="44.6428917" lon="7.9742527"><ele>199.0</ele><time>2026-04-30T14:48:37.489Z</time></trkpt><trkpt lat="44.6431241" lon="7.9743139"><ele>199.0</ele><time>2026-04-30T14:48:38.554Z</time></trkpt><trkpt lat="44.643395" lon="7.9743618"><ele>198.0</ele><time>2026-04-30T14:48:39.687Z</time></trkpt><trkpt lat="44.643915" lon="7.974457"><ele>198.0</ele><time>2026-04-30T14:48:41.69Z</time></trkpt><trkpt lat="44.6441676" lon="7.9745141"><ele>198.0</ele><time>2026-04-30T14:48:42.594Z</time></trkpt><trkpt lat="44.6444441" lon="7.9745792"><ele>200.0</ele><time>2026-04-30T14:48:43.565Z</time></trkpt><trkpt lat="44.6447331" lon="7.9746488"><ele>202.0</ele><time>2026-04-30T14:48:44.553Z</time></trkpt><trkpt lat="44.6449978" lon="7.9747126"><ele>201.0</ele><time>2026-04-30T14:48:45.466Z</time></trkpt><trkpt lat="44.6453119" lon="7.9747847"><ele>200.0</ele><time>2026-04-30T14:48:46.542Z</time></trkpt><trkpt lat="44.645599" lon="7.9748465"><ele>200.0</ele><time>2026-04-30T14:48:47.539Z</time></trkpt><trkpt lat="44.6458798" lon="7.9749086"><ele>200.0</ele><time>2026-04-30T14:48:48.507Z</time></trkpt><trkpt lat="44.646176" lon="7.974973"><ele>200.0</ele><time>2026-04-30T14:48:49.527Z</time></trkpt><trkpt lat="44.6464982" lon="7.9750432"><ele>200.0</ele><time>2026-04-30T14:48:50.649Z</time></trkpt><trkpt lat="44.6467656" lon="7.9750983"><ele>198.5</ele><time>2026-04-30T14:48:51.607Z</time></trkpt><trkpt lat="44.6470333" lon="7.9751526"><ele>197.0</ele><time>2026-04-30T14:48:52.559Z</time></trkpt><trkpt lat="44.647307" lon="7.9752089"><ele>197.0</ele><time>2026-04-30T14:48:53.526Z</time></trkpt><trkpt lat="44.6475972" lon="7.9752756"><ele>197.0</ele><time>2026-04-30T14:48:54.561Z</time></trkpt><trkpt lat="44.6478758" lon="7.9753376"><ele>196.5</ele><time>2026-04-30T14:48:55.559Z</time></trkpt><trkpt lat="44.6481537" lon="7.9754006"><ele>196.0</ele><time>2026-04-30T14:48:56.563Z</time></trkpt><trkpt lat="44.6484352" lon="7.975468"><ele>196.0</ele><time>2026-04-30T14:48:57.59Z</time></trkpt><trkpt lat="44.6487081" lon="7.9755311"><ele>196.0</ele><time>2026-04-30T14:48:58.59Z</time></trkpt><trkpt lat="44.6489723" lon="7.975594"><ele>196.0</ele><time>2026-04-30T14:48:59.552Z</time></trkpt><trkpt lat="44.6492396" lon="7.9756551"><ele>196.0</ele><time>2026-04-30T14:49:00.535Z</time></trkpt><trkpt lat="44.6494971" lon="7.9757137"><ele>195.5</ele><time>2026-04-30T14:49:01.506Z</time></trkpt><trkpt lat="44.6497616" lon="7.9757686"><ele>195.0</ele><time>2026-04-30T14:49:02.546Z</time></trkpt><trkpt lat="44.6499917" lon="7.97582"><ele>195.0</ele><time>2026-04-30T14:49:03.465Z</time></trkpt><trkpt lat="44.6502518" lon="7.9758791"><ele>195.0</ele><time>2026-04-30T14:49:04.519Z</time></trkpt><trkpt lat="44.6504907" lon="7.9759403"><ele>194.0</ele><time>2026-04-30T14:49:05.529Z</time></trkpt><trkpt lat="44.6507232" lon="7.975994"><ele>193.0</ele><time>2026-04-30T14:49:06.521Z</time></trkpt><trkpt lat="44.6509636" lon="7.9760434"><ele>193.0</ele><time>2026-04-30T14:49:07.555Z</time></trkpt><trkpt lat="44.6511883" lon="7.9760927"><ele>193.0</ele><time>2026-04-30T14:49:08.546Z</time></trkpt><trkpt lat="44.6514206" lon="7.9761462"><ele>193.0</ele><time>2026-04-30T14:49:09.588Z</time></trkpt><trkpt lat="44.65165" lon="7.9761935"><ele>193.0</ele><time>2026-04-30T14:49:10.609Z</time></trkpt><trkpt lat="44.651846" lon="7.9762313"><ele>193.0</ele><time>2026-04-30T14:49:11.515Z</time></trkpt><trkpt lat="44.6520766" lon="7.976281"><ele>193.33333333333331</ele><time>2026-04-30T14:49:12.609Z</time></trkpt><trkpt lat="44.652269" lon="7.9763247"><ele>193.66666666666669</ele><time>2026-04-30T14:49:13.558Z</time></trkpt><trkpt lat="44.6524846" lon="7.9763714"><ele>194.0</ele><time>2026-04-30T14:49:14.596Z</time></trkpt><trkpt lat="44.6526841" lon="7.9764164"><ele>194.66666666666669</ele><time>2026-04-30T14:49:15.533Z</time></trkpt><trkpt lat="44.6529071" lon="7.9764643"><ele>195.33333333333331</ele><time>2026-04-30T14:49:16.578Z</time></trkpt><trkpt lat="44.6531135" lon="7.9765108"><ele>196.0</ele><time>2026-04-30T14:49:17.593Z</time></trkpt><trkpt lat="44.6533056" lon="7.9765521"><ele>196.0</ele><time>2026-04-30T14:49:18.545Z</time></trkpt><trkpt lat="44.6534993" lon="7.9765952"><ele>196.0</ele><time>2026-04-30T14:49:19.531Z</time></trkpt><trkpt lat="44.6537113" lon="7.9766392"><ele>196.0</ele><time>2026-04-30T14:49:20.593Z</time></trkpt><trkpt lat="44.6539056" lon="7.9766818"><ele>195.33333333333331</ele><time>2026-04-30T14:49:21.583Z</time></trkpt><trkpt lat="44.6541001" lon="7.9767235"><ele>194.66666666666669</ele><time>2026-04-30T14:49:22.594Z</time></trkpt><trkpt lat="44.6542943" lon="7.9767639"><ele>194.0</ele><time>2026-04-30T14:49:23.587Z</time></trkpt><trkpt lat="44.654503" lon="7.9768078"><ele>193.66666666666669</ele><time>2026-04-30T14:49:24.638Z</time></trkpt><trkpt lat="44.6546922" lon="7.9768449"><ele>193.33333333333331</ele><time>2026-04-30T14:49:25.591Z</time></trkpt><trkpt lat="44.6548754" lon="7.9768847"><ele>193.0</ele><time>2026-04-30T14:49:26.531Z</time></trkpt><trkpt lat="44.6550847" lon="7.9769322"><ele>193.0</ele><time>2026-04-30T14:49:27.623Z</time></trkpt><trkpt lat="44.6552654" lon="7.9769743"><ele>193.0</ele><time>2026-04-30T14:49:28.572Z</time></trkpt><trkpt lat="44.6554642" lon="7.9770203"><ele>193.0</ele><time>2026-04-30T14:49:29.592Z</time></trkpt><trkpt lat="44.6556618" lon="7.9770653"><ele>193.0</ele><time>2026-04-30T14:49:30.623Z</time></trkpt><trkpt lat="44.655846" lon="7.9771062"><ele>193.0</ele><time>2026-04-30T14:49:31.581Z</time></trkpt><trkpt lat="44.6560433" lon="7.9771527"><ele>193.0</ele><time>2026-04-30T14:49:32.638Z</time></trkpt><trkpt lat="44.6562175" lon="7.9771951"><ele>192.33333333333331</ele><time>2026-04-30T14:49:33.578Z</time></trkpt><trkpt lat="44.6564117" lon="7.9772388"><ele>191.66666666666666</ele><time>2026-04-30T14:49:34.61Z</time></trkpt><trkpt lat="44.6566003" lon="7.9772815"><ele>191.0</ele><time>2026-04-30T14:49:35.603Z</time></trkpt><trkpt lat="44.6567719" lon="7.9773245"><ele>191.0</ele><time>2026-04-30T14:49:36.539Z</time></trkpt><trkpt lat="44.6569582" lon="7.9773668"><ele>191.0</ele><time>2026-04-30T14:49:37.62Z</time></trkpt><trkpt lat="44.6571223" lon="7.977404"><ele>191.0</ele><time>2026-04-30T14:49:38.602Z</time></trkpt><trkpt lat="44.6572979" lon="7.9774448"><ele>191.0</ele><time>2026-04-30T14:49:39.623Z</time></trkpt><trkpt lat="44.657461" lon="7.9774823"><ele>191.0</ele><time>2026-04-30T14:49:40.549Z</time></trkpt><trkpt lat="44.6576304" lon="7.9775247"><ele>191.0</ele><time>2026-04-30T14:49:41.507Z</time></trkpt><trkpt lat="44.6578173" lon="7.9775663"><ele>192.66666666666666</ele><time>2026-04-30T14:49:42.545Z</time></trkpt><trkpt lat="44.6580141" lon="7.977612"><ele>194.33333333333331</ele><time>2026-04-30T14:49:43.648Z</time></trkpt><trkpt lat="44.6581835" lon="7.97765"><ele>196.0</ele><time>2026-04-30T14:49:44.582Z</time></trkpt><trkpt lat="44.6583673" lon="7.9776904"><ele>196.0</ele><time>2026-04-30T14:49:45.575Z</time></trkpt><trkpt lat="44.6585652" lon="7.9777332"><ele>196.0</ele><time>2026-04-30T14:49:46.582Z</time></trkpt><trkpt lat="44.6587601" lon="7.9777731"><ele>196.0</ele><time>2026-04-30T14:49:47.551Z</time></trkpt><trkpt lat="44.658959" lon="7.9778141"><ele>195.66666666666666</ele><time>2026-04-30T14:49:48.553Z</time></trkpt><trkpt lat="44.6591414" lon="7.977854"><ele>195.33333333333331</ele><time>2026-04-30T14:49:49.491Z</time></trkpt><trkpt lat="44.6593318" lon="7.9778979"><ele>195.0</ele><time>2026-04-30T14:49:50.514Z</time></trkpt><trkpt lat="44.6595257" lon="7.9779412"><ele>193.0</ele><time>2026-04-30T14:49:51.583Z</time></trkpt><trkpt lat="44.6597037" lon="7.9779796"><ele>191.0</ele><time>2026-04-30T14:49:52.555Z</time></trkpt><trkpt lat="44.6598862" lon="7.9780215"><ele>189.0</ele><time>2026-04-30T14:49:53.547Z</time></trkpt><trkpt lat="44.6600694" lon="7.9780625"><ele>189.0</ele><time>2026-04-30T14:49:54.54Z</time></trkpt><trkpt lat="44.6602602" lon="7.978105"><ele>189.0</ele><time>2026-04-30T14:49:55.583Z</time></trkpt><trkpt lat="44.6604348" lon="7.9781473"><ele>189.0</ele><time>2026-04-30T14:49:56.537Z</time></trkpt><trkpt lat="44.6606231" lon="7.9781944"><ele>188.66666666666666</ele><time>2026-04-30T14:49:57.611Z</time></trkpt><trkpt lat="44.6607937" lon="7.9782345"><ele>188.33333333333331</ele><time>2026-04-30T14:49:58.607Z</time></trkpt><trkpt lat="44.66096" lon="7.978274"><ele>188.0</ele><time>2026-04-30T14:49:59.57Z</time></trkpt><trkpt lat="44.6611413" lon="7.978318"><ele>188.0</ele><time>2026-04-30T14:50:00.571Z</time></trkpt><trkpt lat="44.6613066" lon="7.9783591"><ele>188.0</ele><time>2026-04-30T14:50:01.486Z</time></trkpt><trkpt lat="44.66149" lon="7.9784044"><ele>188.0</ele><time>2026-04-30T14:50:02.527Z</time></trkpt><trkpt lat="44.6616665" lon="7.9784514"><ele>188.0</ele><time>2026-04-30T14:50:03.541Z</time></trkpt><trkpt lat="44.6618568" lon="7.9785007"><ele>188.0</ele><time>2026-04-30T14:50:04.608Z</time></trkpt><trkpt lat="44.6620442" lon="7.9785369"><ele>188.0</ele><time>2026-04-30T14:50:05.563Z</time></trkpt><trkpt lat="44.6622406" lon="7.9785836"><ele>188.0</ele><time>2026-04-30T14:50:06.586Z</time></trkpt><trkpt lat="44.6624258" lon="7.9786381"><ele>188.0</ele><time>2026-04-30T14:50:07.55Z</time></trkpt><trkpt lat="44.662613" lon="7.9787038"><ele>188.0</ele><time>2026-04-30T14:50:08.516Z</time></trkpt><trkpt lat="44.6628099" lon="7.9787803"><ele>187.33333333333331</ele><time>2026-04-30T14:50:09.554Z</time></trkpt><trkpt lat="44.6630003" lon="7.9788688"><ele>186.66666666666666</ele><time>2026-04-30T14:50:10.611Z</time></trkpt><trkpt lat="44.6631659" lon="7.9789593"><ele>186.0</ele><time>2026-04-30T14:50:11.58Z</time></trkpt><trkpt lat="44.6633286" lon="7.9790544"><ele>186.0</ele><time>2026-04-30T14:50:12.529Z</time></trkpt><trkpt lat="44.6635129" lon="7.9791709"><ele>186.0</ele><time>2026-04-30T14:50:13.628Z</time></trkpt><trkpt lat="44.6636809" lon="7.9792814"><ele>186.0</ele><time>2026-04-30T14:50:14.64Z</time></trkpt><trkpt lat="44.6638388" lon="7.9793948"><ele>186.0</ele><time>2026-04-30T14:50:15.583Z</time></trkpt><trkpt lat="44.6640025" lon="7.9795132"><ele>186.0</ele><time>2026-04-30T14:50:16.623Z</time></trkpt><trkpt lat="44.6641529" lon="7.9796145"><ele>186.0</ele><time>2026-04-30T14:50:17.57Z</time></trkpt><trkpt lat="44.6643201" lon="7.9797288"><ele>186.0</ele><time>2026-04-30T14:50:18.597Z</time></trkpt><trkpt lat="44.6644731" lon="7.9798345"><ele>186.0</ele><time>2026-04-30T14:50:19.567Z</time></trkpt><trkpt lat="44.6646305" lon="7.9799501"><ele>186.0</ele><time>2026-04-30T14:50:20.641Z</time></trkpt><trkpt lat="44.6648856" lon="7.9801396"><ele>186.0</ele><time>2026-04-30T14:50:22.597Z</time></trkpt><trkpt lat="44.665009" lon="7.9802329"><ele>186.0</ele><time>2026-04-30T14:50:23.65Z</time></trkpt><trkpt lat="44.6651967" lon="7.9803807"><ele>186.0</ele><time>2026-04-30T14:50:25.534Z</time></trkpt><trkpt lat="44.6652687" lon="7.9804479"><ele>186.0</ele><time>2026-04-30T14:50:26.522Z</time></trkpt><trkpt lat="44.6653259" lon="7.9805146"><ele>186.0</ele><time>2026-04-30T14:50:27.52Z</time></trkpt><trkpt lat="44.6653775" lon="7.9806054"><ele>186.0</ele><time>2026-04-30T14:50:29.541Z</time></trkpt><trkpt lat="44.6654096" lon="7.9806878"><ele>186.0</ele><time>2026-04-30T14:50:31.52Z</time></trkpt><trkpt lat="44.6654352" lon="7.9807769"><ele>186.0</ele><time>2026-04-30T14:50:32.547Z</time></trkpt><trkpt lat="44.6654539" lon="7.9808786"><ele>186.0</ele><time>2026-04-30T14:50:33.489Z</time></trkpt><trkpt lat="44.6654498" lon="7.9810207"><ele>186.0</ele><time>2026-04-30T14:50:34.524Z</time></trkpt><trkpt lat="44.6654234" lon="7.9811896"><ele>186.0</ele><time>2026-04-30T14:50:35.546Z</time></trkpt><trkpt lat="44.6653828" lon="7.9813688"><ele>186.0</ele><time>2026-04-30T14:50:36.595Z</time></trkpt><trkpt lat="44.6653406" lon="7.9815272"><ele>186.0</ele><time>2026-04-30T14:50:37.52Z</time></trkpt><trkpt lat="44.6652872" lon="7.9817159"><ele>186.0</ele><time>2026-04-30T14:50:38.65Z</time></trkpt><trkpt lat="44.6652474" lon="7.9818587"><ele>186.8</ele><time>2026-04-30T14:50:39.56Z</time></trkpt><trkpt lat="44.6651987" lon="7.9820156"><ele>187.60000000000002</ele><time>2026-04-30T14:50:40.595Z</time></trkpt><trkpt lat="44.665158" lon="7.9821243"><ele>188.4</ele><time>2026-04-30T14:50:41.544Z</time></trkpt><trkpt lat="44.6651143" lon="7.9822373"><ele>189.2</ele><time>2026-04-30T14:50:42.538Z</time></trkpt><trkpt lat="44.6650744" lon="7.9823324"><ele>190.0</ele><time>2026-04-30T14:50:43.501Z</time></trkpt><trkpt lat="44.6650342" lon="7.9824661"><ele>190.0</ele><time>2026-04-30T14:50:45.601Z</time></trkpt><trkpt lat="44.6650236" lon="7.9825599"><ele>190.0</ele><time>2026-04-30T14:50:54.545Z</time></trkpt><trkpt lat="44.6650487" lon="7.9826411"><ele>190.0</ele><time>2026-04-30T14:50:56.568Z</time></trkpt><trkpt lat="44.6651024" lon="7.982696"><ele>190.0</ele><time>2026-04-30T14:50:57.637Z</time></trkpt><trkpt lat="44.6651756" lon="7.9827467"><ele>190.0</ele><time>2026-04-30T14:50:58.558Z</time></trkpt><trkpt lat="44.6652759" lon="7.9828105"><ele>190.0</ele><time>2026-04-30T14:50:59.565Z</time></trkpt><trkpt lat="44.6653856" lon="7.9828817"><ele>189.25</ele><time>2026-04-30T14:51:00.508Z</time></trkpt><trkpt lat="44.6655252" lon="7.9829739"><ele>188.5</ele><time>2026-04-30T14:51:01.611Z</time></trkpt><trkpt lat="44.6656464" lon="7.9830539"><ele>187.75</ele><time>2026-04-30T14:51:02.535Z</time></trkpt><trkpt lat="44.6657912" lon="7.9831512"><ele>187.0</ele><time>2026-04-30T14:51:03.561Z</time></trkpt><trkpt lat="44.6659425" lon="7.9832663"><ele>187.5</ele><time>2026-04-30T14:51:04.658Z</time></trkpt><trkpt lat="44.6661526" lon="7.9835273"><ele>188.0</ele><time>2026-04-30T14:51:06.611Z</time></trkpt><trkpt lat="44.6663144" lon="7.983848"><ele>188.0</ele><time>2026-04-30T14:51:08.528Z</time></trkpt><trkpt lat="44.6663898" lon="7.9840176"><ele>188.0</ele><time>2026-04-30T14:51:09.579Z</time></trkpt><trkpt lat="44.6664607" lon="7.9841758"><ele>188.0</ele><time>2026-04-30T14:51:10.589Z</time></trkpt><trkpt lat="44.6665197" lon="7.9843174"><ele>188.0</ele><time>2026-04-30T14:51:11.558Z</time></trkpt><trkpt lat="44.6665873" lon="7.9844812"><ele>188.0</ele><time>2026-04-30T14:51:12.626Z</time></trkpt><trkpt lat="44.6666592" lon="7.9846402"><ele>188.0</ele><time>2026-04-30T14:51:13.599Z</time></trkpt><trkpt lat="44.6667164" lon="7.9847749"><ele>188.0</ele><time>2026-04-30T14:51:14.54Z</time></trkpt><trkpt lat="44.666788" lon="7.9849379"><ele>188.0</ele><time>2026-04-30T14:51:15.628Z</time></trkpt><trkpt lat="44.6668555" lon="7.985082"><ele>188.0</ele><time>2026-04-30T14:51:16.631Z</time></trkpt><trkpt lat="44.6669279" lon="7.9852059"><ele>188.0</ele><time>2026-04-30T14:51:17.544Z</time></trkpt><trkpt lat="44.6670207" lon="7.9853392"><ele>188.0</ele><time>2026-04-30T14:51:18.588Z</time></trkpt><trkpt lat="44.6671149" lon="7.9854492"><ele>188.0</ele><time>2026-04-30T14:51:19.49Z</time></trkpt><trkpt lat="44.6672197" lon="7.9855595"><ele>187.66666666666666</ele><time>2026-04-30T14:51:20.519Z</time></trkpt><trkpt lat="44.6673346" lon="7.9856806"><ele>187.33333333333334</ele><time>2026-04-30T14:51:21.511Z</time></trkpt><trkpt lat="44.6674661" lon="7.9858221"><ele>187.0</ele><time>2026-04-30T14:51:22.503Z</time></trkpt><trkpt lat="44.6676123" lon="7.9859823"><ele>187.0</ele><time>2026-04-30T14:51:23.55Z</time></trkpt><trkpt lat="44.6677551" lon="7.9861538"><ele>187.0</ele><time>2026-04-30T14:51:24.592Z</time></trkpt><trkpt lat="44.6678873" lon="7.986314"><ele>187.0</ele><time>2026-04-30T14:51:25.557Z</time></trkpt><trkpt lat="44.668028" lon="7.986475"><ele>187.0</ele><time>2026-04-30T14:51:26.558Z</time></trkpt><trkpt lat="44.6681771" lon="7.9866314"><ele>187.0</ele><time>2026-04-30T14:51:27.561Z</time></trkpt><trkpt lat="44.6683345" lon="7.9867739"><ele>187.0</ele><time>2026-04-30T14:51:28.56Z</time></trkpt><trkpt lat="44.6685075" lon="7.9869"><ele>186.66666666666669</ele><time>2026-04-30T14:51:29.568Z</time></trkpt><trkpt lat="44.6686942" lon="7.986997"><ele>186.33333333333334</ele><time>2026-04-30T14:51:30.569Z</time></trkpt><trkpt lat="44.6688849" lon="7.9870557"><ele>186.0</ele><time>2026-04-30T14:51:31.55Z</time></trkpt><trkpt lat="44.6690975" lon="7.9870933"><ele>186.0</ele><time>2026-04-30T14:51:32.605Z</time></trkpt><trkpt lat="44.6693012" lon="7.9871297"><ele>186.0</ele><time>2026-04-30T14:51:33.605Z</time></trkpt><trkpt lat="44.6694881" lon="7.9871607"><ele>186.0</ele><time>2026-04-30T14:51:34.514Z</time></trkpt><trkpt lat="44.6696996" lon="7.9871974"><ele>185.5</ele><time>2026-04-30T14:51:35.522Z</time></trkpt><trkpt lat="44.6699237" lon="7.9872444"><ele>185.0</ele><time>2026-04-30T14:51:36.555Z</time></trkpt><trkpt lat="44.6701515" lon="7.9873191"><ele>184.0</ele><time>2026-04-30T14:51:37.582Z</time></trkpt><trkpt lat="44.6703689" lon="7.9874065"><ele>183.0</ele><time>2026-04-30T14:51:38.541Z</time></trkpt><trkpt lat="44.6705854" lon="7.9874939"><ele>184.0</ele><time>2026-04-30T14:51:39.53Z</time></trkpt><trkpt lat="44.6708175" lon="7.9876015"><ele>185.0</ele><time>2026-04-30T14:51:40.656Z</time></trkpt><trkpt lat="44.6710199" lon="7.9877161"><ele>185.0</ele><time>2026-04-30T14:51:41.624Z</time></trkpt><trkpt lat="44.671197" lon="7.9878602"><ele>185.0</ele><time>2026-04-30T14:51:42.582Z</time></trkpt><trkpt lat="44.6713764" lon="7.9880255"><ele>185.0</ele><time>2026-04-30T14:51:43.557Z</time></trkpt><trkpt lat="44.6715747" lon="7.9882054"><ele>184.33333333333331</ele><time>2026-04-30T14:51:44.622Z</time></trkpt><trkpt lat="44.6717623" lon="7.9883586"><ele>183.66666666666666</ele><time>2026-04-30T14:51:45.597Z</time></trkpt><trkpt lat="44.6719455" lon="7.9884726"><ele>183.0</ele><time>2026-04-30T14:51:46.514Z</time></trkpt><trkpt lat="44.6722025" lon="7.9886142"><ele>182.5</ele><time>2026-04-30T14:51:47.867Z</time></trkpt><trkpt lat="44.672515" lon="7.988788"><ele>182.0</ele><time>2026-04-30T14:51:49.544Z</time></trkpt><trkpt lat="44.6726839" lon="7.9888738"><ele>182.0</ele><time>2026-04-30T14:51:50.526Z</time></trkpt><trkpt lat="44.6728724" lon="7.9889548"><ele>182.0</ele><time>2026-04-30T14:51:51.623Z</time></trkpt><trkpt lat="44.6730239" lon="7.9890005"><ele>182.0</ele><time>2026-04-30T14:51:52.548Z</time></trkpt><trkpt lat="44.6731854" lon="7.989033"><ele>182.0</ele><time>2026-04-30T14:51:53.527Z</time></trkpt><trkpt lat="44.6733599" lon="7.9890473"><ele>182.0</ele><time>2026-04-30T14:51:54.558Z</time></trkpt><trkpt lat="44.6735304" lon="7.9890516"><ele>182.0</ele><time>2026-04-30T14:51:55.601Z</time></trkpt><trkpt lat="44.6736833" lon="7.9890547"><ele>182.5</ele><time>2026-04-30T14:51:56.569Z</time></trkpt><trkpt lat="44.6738323" lon="7.9890559"><ele>183.0</ele><time>2026-04-30T14:51:57.531Z</time></trkpt><trkpt lat="44.6739806" lon="7.9890617"><ele>183.5</ele><time>2026-04-30T14:51:58.559Z</time></trkpt><trkpt lat="44.6741295" lon="7.9890754"><ele>184.0</ele><time>2026-04-30T14:51:59.538Z</time></trkpt><trkpt lat="44.6742908" lon="7.9890956"><ele>184.0</ele><time>2026-04-30T14:52:00.624Z</time></trkpt><trkpt lat="44.6744277" lon="7.989125"><ele>184.0</ele><time>2026-04-30T14:52:01.567Z</time></trkpt><trkpt lat="44.6745768" lon="7.9891664"><ele>184.0</ele><time>2026-04-30T14:52:02.558Z</time></trkpt><trkpt lat="44.6747175" lon="7.9892199"><ele>184.0</ele><time>2026-04-30T14:52:03.532Z</time></trkpt><trkpt lat="44.6748838" lon="7.9893006"><ele>183.75</ele><time>2026-04-30T14:52:04.686Z</time></trkpt><trkpt lat="44.6750178" lon="7.989375"><ele>183.5</ele><time>2026-04-30T14:52:05.62Z</time></trkpt><trkpt lat="44.6751649" lon="7.9894645"><ele>183.25</ele><time>2026-04-30T14:52:06.654Z</time></trkpt><trkpt lat="44.6752814" lon="7.9895385"><ele>183.0</ele><time>2026-04-30T14:52:07.557Z</time></trkpt><trkpt lat="44.6754189" lon="7.9896252"><ele>182.66666666666666</ele><time>2026-04-30T14:52:08.546Z</time></trkpt><trkpt lat="44.6755896" lon="7.9897331"><ele>182.33333333333331</ele><time>2026-04-30T14:52:09.802Z</time></trkpt><trkpt lat="44.675801" lon="7.9898832"><ele>182.0</ele><time>2026-04-30T14:52:11.551Z</time></trkpt><trkpt lat="44.6759182" lon="7.9899676"><ele>182.0</ele><time>2026-04-30T14:52:12.606Z</time></trkpt><trkpt lat="44.6760228" lon="7.9900455"><ele>182.0</ele><time>2026-04-30T14:52:13.553Z</time></trkpt><trkpt lat="44.6761169" lon="7.9901157"><ele>182.0</ele><time>2026-04-30T14:52:14.563Z</time></trkpt><trkpt lat="44.676198" lon="7.9901729"><ele>182.0</ele><time>2026-04-30T14:52:15.553Z</time></trkpt><trkpt lat="44.6762659" lon="7.9902244"><ele>182.0</ele><time>2026-04-30T14:52:16.581Z</time></trkpt><trkpt lat="44.6763245" lon="7.9902683"><ele>181.83333333333331</ele><time>2026-04-30T14:52:17.518Z</time></trkpt><trkpt lat="44.6763892" lon="7.9903187"><ele>181.66666666666666</ele><time>2026-04-30T14:52:18.642Z</time></trkpt><trkpt lat="44.6764923" lon="7.9904135"><ele>181.5</ele><time>2026-04-30T14:52:20.521Z</time></trkpt><trkpt lat="44.676535" lon="7.9904812"><ele>181.33333333333334</ele><time>2026-04-30T14:52:21.578Z</time></trkpt><trkpt lat="44.6765986" lon="7.9906071"><ele>181.16666666666669</ele><time>2026-04-30T14:52:23.511Z</time></trkpt><trkpt lat="44.6766582" lon="7.9906547"><ele>181.0</ele><time>2026-04-30T14:52:24.551Z</time></trkpt><trkpt lat="44.6767288" lon="7.9907107"><ele>181.0</ele><time>2026-04-30T14:52:25.523Z</time></trkpt><trkpt lat="44.6768181" lon="7.9908079"><ele>181.0</ele><time>2026-04-30T14:52:26.53Z</time></trkpt><trkpt lat="44.6769049" lon="7.9909305"><ele>181.0</ele><time>2026-04-30T14:52:27.495Z</time></trkpt><trkpt lat="44.6770014" lon="7.9910977"><ele>181.0</ele><time>2026-04-30T14:52:28.6Z</time></trkpt><trkpt lat="44.6770846" lon="7.9912417"><ele>180.5</ele><time>2026-04-30T14:52:29.542Z</time></trkpt><trkpt lat="44.6771735" lon="7.9913918"><ele>180.0</ele><time>2026-04-30T14:52:30.596Z</time></trkpt><trkpt lat="44.67725" lon="7.9915295"><ele>179.5</ele><time>2026-04-30T14:52:31.575Z</time></trkpt><trkpt lat="44.6773362" lon="7.9916742"><ele>179.0</ele><time>2026-04-30T14:52:32.553Z</time></trkpt><trkpt lat="44.6774294" lon="7.9918308"><ele>179.0</ele><time>2026-04-30T14:52:33.508Z</time></trkpt><trkpt lat="44.6775226" lon="7.9919922"><ele>179.0</ele><time>2026-04-30T14:52:34.546Z</time></trkpt><trkpt lat="44.6776023" lon="7.9921375"><ele>179.0</ele><time>2026-04-30T14:52:35.566Z</time></trkpt><trkpt lat="44.6776731" lon="7.9922651"><ele>179.0</ele><time>2026-04-30T14:52:36.519Z</time></trkpt><trkpt lat="44.6777448" lon="7.9923964"><ele>178.75</ele><time>2026-04-30T14:52:37.548Z</time></trkpt><trkpt lat="44.6778255" lon="7.9925353"><ele>178.5</ele><time>2026-04-30T14:52:38.523Z</time></trkpt><trkpt lat="44.6779069" lon="7.9926833"><ele>178.25</ele><time>2026-04-30T14:52:39.553Z</time></trkpt><trkpt lat="44.6779856" lon="7.992827"><ele>178.0</ele><time>2026-04-30T14:52:40.571Z</time></trkpt><trkpt lat="44.6780638" lon="7.9929825"><ele>178.0</ele><time>2026-04-30T14:52:41.579Z</time></trkpt><trkpt lat="44.678136" lon="7.9931311"><ele>178.0</ele><time>2026-04-30T14:52:42.519Z</time></trkpt><trkpt lat="44.6782144" lon="7.9932889"><ele>178.0</ele><time>2026-04-30T14:52:43.521Z</time></trkpt><trkpt lat="44.678297" lon="7.993456"><ele>178.0</ele><time>2026-04-30T14:52:44.554Z</time></trkpt><trkpt lat="44.6783706" lon="7.9936061"><ele>178.0</ele><time>2026-04-30T14:52:45.474Z</time></trkpt><trkpt lat="44.6784526" lon="7.9937776"><ele>178.0</ele><time>2026-04-30T14:52:46.508Z</time></trkpt><trkpt lat="44.6785313" lon="7.9939446"><ele>178.0</ele><time>2026-04-30T14:52:47.497Z</time></trkpt><trkpt lat="44.6786141" lon="7.9941144"><ele>178.0</ele><time>2026-04-30T14:52:48.536Z</time></trkpt><trkpt lat="44.6786878" lon="7.9942739"><ele>178.75</ele><time>2026-04-30T14:52:49.511Z</time></trkpt><trkpt lat="44.6787647" lon="7.9944503"><ele>179.5</ele><time>2026-04-30T14:52:50.578Z</time></trkpt><trkpt lat="44.6788351" lon="7.9946044"><ele>180.25</ele><time>2026-04-30T14:52:51.546Z</time></trkpt><trkpt lat="44.6789099" lon="7.9947643"><ele>181.0</ele><time>2026-04-30T14:52:52.585Z</time></trkpt><trkpt lat="44.6789763" lon="7.9949036"><ele>181.0</ele><time>2026-04-30T14:52:53.519Z</time></trkpt><trkpt lat="44.6790504" lon="7.9950595"><ele>181.0</ele><time>2026-04-30T14:52:54.567Z</time></trkpt><trkpt lat="44.6791216" lon="7.995208"><ele>181.0</ele><time>2026-04-30T14:52:55.587Z</time></trkpt><trkpt lat="44.6791885" lon="7.9953508"><ele>181.0</ele><time>2026-04-30T14:52:56.535Z</time></trkpt><trkpt lat="44.6792653" lon="7.9955112"><ele>181.0</ele><time>2026-04-30T14:52:57.523Z</time></trkpt><trkpt lat="44.6793519" lon="7.9956871"><ele>181.0</ele><time>2026-04-30T14:52:58.559Z</time></trkpt><trkpt lat="44.6794363" lon="7.9958558"><ele>181.0</ele><time>2026-04-30T14:52:59.539Z</time></trkpt><trkpt lat="44.6795291" lon="7.9960337"><ele>181.0</ele><time>2026-04-30T14:53:00.585Z</time></trkpt><trkpt lat="44.679608" lon="7.9961919"><ele>181.0</ele><time>2026-04-30T14:53:01.499Z</time></trkpt><trkpt lat="44.6797006" lon="7.9963833"><ele>181.0</ele><time>2026-04-30T14:53:02.564Z</time></trkpt><trkpt lat="44.67979" lon="7.996567"><ele>180.33333333333334</ele><time>2026-04-30T14:53:03.603Z</time></trkpt><trkpt lat="44.6798838" lon="7.9967531"><ele>179.66666666666666</ele><time>2026-04-30T14:53:04.626Z</time></trkpt><trkpt lat="44.6799719" lon="7.9969356"><ele>179.0</ele><time>2026-04-30T14:53:05.59Z</time></trkpt><trkpt lat="44.6800503" lon="7.9971003"><ele>179.0</ele><time>2026-04-30T14:53:06.509Z</time></trkpt><trkpt lat="44.6801403" lon="7.9972819"><ele>179.0</ele><time>2026-04-30T14:53:07.576Z</time></trkpt><trkpt lat="44.6802167" lon="7.9974387"><ele>179.0</ele><time>2026-04-30T14:53:08.554Z</time></trkpt><trkpt lat="44.6802917" lon="7.997591"><ele>179.0</ele><time>2026-04-30T14:53:09.519Z</time></trkpt><trkpt lat="44.6803723" lon="7.9977584"><ele>178.33333333333331</ele><time>2026-04-30T14:53:10.583Z</time></trkpt><trkpt lat="44.6804594" lon="7.9979467"><ele>177.66666666666666</ele><time>2026-04-30T14:53:11.673Z</time></trkpt><trkpt lat="44.6805424" lon="7.9981123"><ele>177.0</ele><time>2026-04-30T14:53:12.584Z</time></trkpt><trkpt lat="44.6806264" lon="7.9982805"><ele>176.66666666666666</ele><time>2026-04-30T14:53:13.5Z</time></trkpt><trkpt lat="44.6807192" lon="7.9984757"><ele>176.33333333333331</ele><time>2026-04-30T14:53:14.556Z</time></trkpt><trkpt lat="44.6808136" lon="7.9986614"><ele>176.0</ele><time>2026-04-30T14:53:15.575Z</time></trkpt><trkpt lat="44.6808958" lon="7.9988349"><ele>176.0</ele><time>2026-04-30T14:53:16.542Z</time></trkpt><trkpt lat="44.6809809" lon="7.9990028"><ele>176.0</ele><time>2026-04-30T14:53:17.549Z</time></trkpt><trkpt lat="44.6810613" lon="7.9991563"><ele>176.0</ele><time>2026-04-30T14:53:18.557Z</time></trkpt><trkpt lat="44.6811376" lon="7.999307"><ele>176.0</ele><time>2026-04-30T14:53:19.617Z</time></trkpt><trkpt lat="44.681199" lon="7.9994335"><ele>176.25</ele><time>2026-04-30T14:53:20.573Z</time></trkpt><trkpt lat="44.6812588" lon="7.9995582"><ele>176.5</ele><time>2026-04-30T14:53:21.564Z</time></trkpt><trkpt lat="44.6813218" lon="7.9996898"><ele>176.75</ele><time>2026-04-30T14:53:22.687Z</time></trkpt><trkpt lat="44.6814159" lon="7.9998824"><ele>177.0</ele><time>2026-04-30T14:53:24.526Z</time></trkpt><trkpt lat="44.6814649" lon="7.9999839"><ele>177.0</ele><time>2026-04-30T14:53:25.602Z</time></trkpt><trkpt lat="44.6815033" lon="8.0000624"><ele>177.0</ele><time>2026-04-30T14:53:26.531Z</time></trkpt><trkpt lat="44.6815575" lon="8.0001626"><ele>177.0</ele><time>2026-04-30T14:53:27.617Z</time></trkpt><trkpt lat="44.6816205" lon="8.0002961"><ele>177.0</ele><time>2026-04-30T14:53:28.675Z</time></trkpt><trkpt lat="44.6816903" lon="8.0004502"><ele>177.0</ele><time>2026-04-30T14:53:29.659Z</time></trkpt><trkpt lat="44.6818536" lon="8.0007766"><ele>176.33333333333334</ele><time>2026-04-30T14:53:31.543Z</time></trkpt><trkpt lat="44.6819475" lon="8.0009636"><ele>175.66666666666669</ele><time>2026-04-30T14:53:32.53Z</time></trkpt><trkpt lat="44.6820474" lon="8.0011704"><ele>175.0</ele><time>2026-04-30T14:53:33.596Z</time></trkpt><trkpt lat="44.6821455" lon="8.0013668"><ele>175.0</ele><time>2026-04-30T14:53:34.578Z</time></trkpt><trkpt lat="44.6822439" lon="8.0015644"><ele>175.0</ele><time>2026-04-30T14:53:35.546Z</time></trkpt><trkpt lat="44.6823452" lon="8.0017723"><ele>175.0</ele><time>2026-04-30T14:53:36.541Z</time></trkpt><trkpt lat="44.6824502" lon="8.0019909"><ele>175.0</ele><time>2026-04-30T14:53:37.562Z</time></trkpt><trkpt lat="44.6825622" lon="8.0022206"><ele>175.0</ele><time>2026-04-30T14:53:38.601Z</time></trkpt><trkpt lat="44.6826732" lon="8.0024489"><ele>175.0</ele><time>2026-04-30T14:53:39.593Z</time></trkpt><trkpt lat="44.68278" lon="8.0026724"><ele>175.0</ele><time>2026-04-30T14:53:40.567Z</time></trkpt><trkpt lat="44.6828853" lon="8.0028927"><ele>175.0</ele><time>2026-04-30T14:53:41.541Z</time></trkpt><trkpt lat="44.6830076" lon="8.0031485"><ele>175.0</ele><time>2026-04-30T14:53:42.745Z</time></trkpt><trkpt lat="44.6831875" lon="8.0035332"><ele>175.0</ele><time>2026-04-30T14:53:44.726Z</time></trkpt><trkpt lat="44.6833167" lon="8.0038478"><ele>175.0</ele><time>2026-04-30T14:53:46.596Z</time></trkpt><trkpt lat="44.6833646" lon="8.0039804"><ele>175.0</ele><time>2026-04-30T14:53:47.505Z</time></trkpt><trkpt lat="44.6834115" lon="8.0041418"><ele>175.25</ele><time>2026-04-30T14:53:48.601Z</time></trkpt><trkpt lat="44.6834602" lon="8.0042816"><ele>175.5</ele><time>2026-04-30T14:53:49.548Z</time></trkpt><trkpt lat="44.6835361" lon="8.0044243"><ele>175.75</ele><time>2026-04-30T14:53:50.538Z</time></trkpt><trkpt lat="44.6836384" lon="8.0046048"><ele>176.0</ele><time>2026-04-30T14:53:51.721Z</time></trkpt><trkpt lat="44.683716" lon="8.004756"><ele>176.0</ele><time>2026-04-30T14:53:52.624Z</time></trkpt><trkpt lat="44.6838009" lon="8.0049223"><ele>176.0</ele><time>2026-04-30T14:53:53.657Z</time></trkpt><trkpt lat="44.6839351" lon="8.0051991"><ele>176.0</ele><time>2026-04-30T14:53:55.501Z</time></trkpt><trkpt lat="44.6840032" lon="8.0053549"><ele>176.5</ele><time>2026-04-30T14:53:56.627Z</time></trkpt><trkpt lat="44.6840523" lon="8.0054702"><ele>177.0</ele><time>2026-04-30T14:53:57.53Z</time></trkpt><trkpt lat="44.6840988" lon="8.0055853"><ele>177.5</ele><time>2026-04-30T14:53:58.557Z</time></trkpt><trkpt lat="44.6841397" lon="8.0056798"><ele>178.0</ele><time>2026-04-30T14:53:59.567Z</time></trkpt><trkpt lat="44.6841786" lon="8.00576"><ele>178.5</ele><time>2026-04-30T14:54:00.563Z</time></trkpt><trkpt lat="44.6842296" lon="8.0058764"><ele>179.0</ele><time>2026-04-30T14:54:02.555Z</time></trkpt><trkpt lat="44.6842787" lon="8.0060416"><ele>179.2</ele><time>2026-04-30T14:54:04.628Z</time></trkpt><trkpt lat="44.6842937" lon="8.0061276"><ele>179.39999999999998</ele><time>2026-04-30T14:54:05.671Z</time></trkpt><trkpt lat="44.6843339" lon="8.00631"><ele>179.6</ele><time>2026-04-30T14:54:07.576Z</time></trkpt><trkpt lat="44.6843586" lon="8.0064244"><ele>179.8</ele><time>2026-04-30T14:54:08.593Z</time></trkpt><trkpt lat="44.6843852" lon="8.0065388"><ele>180.0</ele><time>2026-04-30T14:54:09.522Z</time></trkpt><trkpt lat="44.684421" lon="8.0066863"><ele>179.0</ele><time>2026-04-30T14:54:10.602Z</time></trkpt><trkpt lat="44.6844583" lon="8.0068308"><ele>178.0</ele><time>2026-04-30T14:54:11.525Z</time></trkpt><trkpt lat="44.6844991" lon="8.0069912"><ele>177.0</ele><time>2026-04-30T14:54:12.526Z</time></trkpt><trkpt lat="44.6845396" lon="8.0071726"><ele>176.0</ele><time>2026-04-30T14:54:13.57Z</time></trkpt><trkpt lat="44.6845816" lon="8.0073505"><ele>176.66666666666666</ele><time>2026-04-30T14:54:14.558Z</time></trkpt><trkpt lat="44.6846289" lon="8.0075435"><ele>177.33333333333334</ele><time>2026-04-30T14:54:15.593Z</time></trkpt><trkpt lat="44.6846676" lon="8.0077355"><ele>178.0</ele><time>2026-04-30T14:54:16.598Z</time></trkpt><trkpt lat="44.6847522" lon="8.0081215"><ele>178.0</ele><time>2026-04-30T14:54:18.554Z</time></trkpt><trkpt lat="44.6847993" lon="8.0083256"><ele>178.0</ele><time>2026-04-30T14:54:19.596Z</time></trkpt><trkpt lat="44.6848466" lon="8.0085109"><ele>178.0</ele><time>2026-04-30T14:54:20.566Z</time></trkpt><trkpt lat="44.6849015" lon="8.0086957"><ele>178.0</ele><time>2026-04-30T14:54:21.563Z</time></trkpt><trkpt lat="44.6849603" lon="8.0088699"><ele>178.0</ele><time>2026-04-30T14:54:22.566Z</time></trkpt><trkpt lat="44.6850188" lon="8.0090311"><ele>178.0</ele><time>2026-04-30T14:54:23.515Z</time></trkpt><trkpt lat="44.685083" lon="8.0091963"><ele>178.0</ele><time>2026-04-30T14:54:24.576Z</time></trkpt><trkpt lat="44.6851347" lon="8.0093326"><ele>178.0</ele><time>2026-04-30T14:54:25.533Z</time></trkpt><trkpt lat="44.6851886" lon="8.0094638"><ele>177.8</ele><time>2026-04-30T14:54:26.522Z</time></trkpt><trkpt lat="44.6852412" lon="8.0095949"><ele>177.60000000000002</ele><time>2026-04-30T14:54:27.543Z</time></trkpt><trkpt lat="44.6852878" lon="8.0097181"><ele>177.39999999999998</ele><time>2026-04-30T14:54:28.567Z</time></trkpt><trkpt lat="44.6853328" lon="8.0098432"><ele>177.2</ele><time>2026-04-30T14:54:29.588Z</time></trkpt><trkpt lat="44.6853789" lon="8.0099622"><ele>177.0</ele><time>2026-04-30T14:54:30.522Z</time></trkpt><trkpt lat="44.6854332" lon="8.0100988"><ele>176.75</ele><time>2026-04-30T14:54:31.56Z</time></trkpt><trkpt lat="44.6854932" lon="8.0102412"><ele>176.5</ele><time>2026-04-30T14:54:32.542Z</time></trkpt><trkpt lat="44.6855549" lon="8.0103891"><ele>176.25</ele><time>2026-04-30T14:54:33.537Z</time></trkpt><trkpt lat="44.685617" lon="8.0105395"><ele>176.0</ele><time>2026-04-30T14:54:34.578Z</time></trkpt><trkpt lat="44.6856716" lon="8.0106726"><ele>176.0</ele><time>2026-04-30T14:54:35.582Z</time></trkpt><trkpt lat="44.6857297" lon="8.0108066"><ele>176.0</ele><time>2026-04-30T14:54:36.68Z</time></trkpt><trkpt lat="44.6858085" lon="8.0109991"><ele>176.0</ele><time>2026-04-30T14:54:38.547Z</time></trkpt><trkpt lat="44.6858459" lon="8.0110902"><ele>176.0</ele><time>2026-04-30T14:54:39.645Z</time></trkpt><trkpt lat="44.6859046" lon="8.0112312"><ele>176.0</ele><time>2026-04-30T14:54:41.51Z</time></trkpt><trkpt lat="44.6859372" lon="8.0113107"><ele>176.0</ele><time>2026-04-30T14:54:42.57Z</time></trkpt><trkpt lat="44.6859738" lon="8.0113952"><ele>176.0</ele><time>2026-04-30T14:54:43.624Z</time></trkpt><trkpt lat="44.6860074" lon="8.011482"><ele>176.0</ele><time>2026-04-30T14:54:44.567Z</time></trkpt><trkpt lat="44.6860459" lon="8.0115769"><ele>176.0</ele><time>2026-04-30T14:54:45.538Z</time></trkpt><trkpt lat="44.6860889" lon="8.011673"><ele>176.0</ele><time>2026-04-30T14:54:46.571Z</time></trkpt><trkpt lat="44.6861217" lon="8.0117671"><ele>176.0</ele><time>2026-04-30T14:54:47.577Z</time></trkpt><trkpt lat="44.6861544" lon="8.0118501"><ele>175.8</ele><time>2026-04-30T14:54:48.537Z</time></trkpt><trkpt lat="44.686183" lon="8.0119293"><ele>175.60000000000002</ele><time>2026-04-30T14:54:49.512Z</time></trkpt><trkpt lat="44.6862162" lon="8.012005"><ele>175.4</ele><time>2026-04-30T14:54:50.58Z</time></trkpt><trkpt lat="44.6862973" lon="8.0121818"><ele>175.2</ele><time>2026-04-30T14:54:53.526Z</time></trkpt><trkpt lat="44.6863484" lon="8.0122824"><ele>175.0</ele><time>2026-04-30T14:54:57.505Z</time></trkpt><trkpt lat="44.6864081" lon="8.0124495"><ele>174.8</ele><time>2026-04-30T14:54:59.53Z</time></trkpt><trkpt lat="44.6864589" lon="8.0125604"><ele>174.6</ele><time>2026-04-30T14:55:00.534Z</time></trkpt><trkpt lat="44.6865059" lon="8.0126678"><ele>174.39999999999998</ele><time>2026-04-30T14:55:01.559Z</time></trkpt><trkpt lat="44.6865463" lon="8.0127568"><ele>174.2</ele><time>2026-04-30T14:55:02.506Z</time></trkpt><trkpt lat="44.6866045" lon="8.0128753"><ele>174.0</ele><time>2026-04-30T14:55:03.605Z</time></trkpt><trkpt lat="44.6866629" lon="8.0129958"><ele>174.0</ele><time>2026-04-30T14:55:04.549Z</time></trkpt><trkpt lat="44.6867283" lon="8.0131382"><ele>174.0</ele><time>2026-04-30T14:55:05.57Z</time></trkpt><trkpt lat="44.6867949" lon="8.0132712"><ele>174.0</ele><time>2026-04-30T14:55:06.57Z</time></trkpt><trkpt lat="44.6868539" lon="8.0133942"><ele>174.0</ele><time>2026-04-30T14:55:07.535Z</time></trkpt><trkpt lat="44.6869106" lon="8.013515"><ele>174.0</ele><time>2026-04-30T14:55:08.516Z</time></trkpt><trkpt lat="44.6869619" lon="8.0136295"><ele>174.2</ele><time>2026-04-30T14:55:09.535Z</time></trkpt><trkpt lat="44.6870127" lon="8.0137318"><ele>174.39999999999998</ele><time>2026-04-30T14:55:10.535Z</time></trkpt><trkpt lat="44.6870659" lon="8.0138324"><ele>174.6</ele><time>2026-04-30T14:55:11.545Z</time></trkpt><trkpt lat="44.6871144" lon="8.0139277"><ele>174.8</ele><time>2026-04-30T14:55:12.621Z</time></trkpt><trkpt lat="44.6872008" lon="8.0140851"><ele>175.0</ele><time>2026-04-30T14:55:14.566Z</time></trkpt><trkpt lat="44.6872499" lon="8.014182"><ele>174.66666666666669</ele><time>2026-04-30T14:55:15.528Z</time></trkpt><trkpt lat="44.6872993" lon="8.0142909"><ele>174.33333333333334</ele><time>2026-04-30T14:55:16.572Z</time></trkpt><trkpt lat="44.6873367" lon="8.0143632"><ele>174.0</ele><time>2026-04-30T14:55:17.541Z</time></trkpt><trkpt lat="44.6873913" lon="8.0144783"><ele>173.66666666666666</ele><time>2026-04-30T14:55:19.532Z</time></trkpt><trkpt lat="44.6874392" lon="8.0145745"><ele>173.33333333333331</ele><time>2026-04-30T14:55:21.504Z</time></trkpt><trkpt lat="44.6874864" lon="8.014673"><ele>173.0</ele><time>2026-04-30T14:55:22.598Z</time></trkpt><trkpt lat="44.6875319" lon="8.0147681"><ele>173.0</ele><time>2026-04-30T14:55:23.537Z</time></trkpt><trkpt lat="44.687587" lon="8.0148832"><ele>173.0</ele><time>2026-04-30T14:55:24.522Z</time></trkpt><trkpt lat="44.6876451" lon="8.0150065"><ele>173.0</ele><time>2026-04-30T14:55:25.522Z</time></trkpt><trkpt lat="44.6876991" lon="8.0151188"><ele>173.0</ele><time>2026-04-30T14:55:26.524Z</time></trkpt><trkpt lat="44.6877633" lon="8.0152469"><ele>173.0</ele><time>2026-04-30T14:55:27.605Z</time></trkpt><trkpt lat="44.6878147" lon="8.0153538"><ele>173.16666666666666</ele><time>2026-04-30T14:55:28.534Z</time></trkpt><trkpt lat="44.6878654" lon="8.0154547"><ele>173.33333333333331</ele><time>2026-04-30T14:55:29.496Z</time></trkpt><trkpt lat="44.687909" lon="8.0155451"><ele>173.5</ele><time>2026-04-30T14:55:30.54Z</time></trkpt><trkpt lat="44.6879643" lon="8.0156545"><ele>173.66666666666666</ele><time>2026-04-30T14:55:32.529Z</time></trkpt><trkpt lat="44.6880045" lon="8.0157413"><ele>173.83333333333334</ele><time>2026-04-30T14:55:35.618Z</time></trkpt><trkpt lat="44.6880523" lon="8.0158381"><ele>174.0</ele><time>2026-04-30T14:55:38.556Z</time></trkpt><trkpt lat="44.6881322" lon="8.0160033"><ele>174.39999999999998</ele><time>2026-04-30T14:55:41.513Z</time></trkpt><trkpt lat="44.6881702" lon="8.016085"><ele>174.8</ele><time>2026-04-30T14:55:42.499Z</time></trkpt><trkpt lat="44.6882135" lon="8.0161716"><ele>175.2</ele><time>2026-04-30T14:55:43.489Z</time></trkpt><trkpt lat="44.6882846" lon="8.0163129"><ele>175.60000000000002</ele><time>2026-04-30T14:55:45.524Z</time></trkpt><trkpt lat="44.6883701" lon="8.0164699"><ele>176.0</ele><time>2026-04-30T14:55:47.49Z</time></trkpt><trkpt lat="44.688424" lon="8.0165749"><ele>175.83333333333331</ele><time>2026-04-30T14:55:48.515Z</time></trkpt><trkpt lat="44.6884719" lon="8.0166763"><ele>175.66666666666666</ele><time>2026-04-30T14:55:49.515Z</time></trkpt><trkpt lat="44.6885251" lon="8.0167701"><ele>175.5</ele><time>2026-04-30T14:55:50.542Z</time></trkpt><trkpt lat="44.6885753" lon="8.0168727"><ele>175.33333333333334</ele><time>2026-04-30T14:55:51.53Z</time></trkpt><trkpt lat="44.6886209" lon="8.0169857"><ele>175.16666666666669</ele><time>2026-04-30T14:55:52.548Z</time></trkpt><trkpt lat="44.6886657" lon="8.0170842"><ele>175.0</ele><time>2026-04-30T14:55:53.522Z</time></trkpt><trkpt lat="44.6887174" lon="8.0171988"><ele>175.0</ele><time>2026-04-30T14:55:54.594Z</time></trkpt><trkpt lat="44.6887734" lon="8.017317"><ele>175.0</ele><time>2026-04-30T14:55:55.593Z</time></trkpt><trkpt lat="44.6888319" lon="8.0174419"><ele>175.0</ele><time>2026-04-30T14:55:56.575Z</time></trkpt><trkpt lat="44.6888833" lon="8.0175604"><ele>175.0</ele><time>2026-04-30T14:55:57.496Z</time></trkpt><trkpt lat="44.6889515" lon="8.0177089"><ele>175.0</ele><time>2026-04-30T14:55:58.685Z</time></trkpt><trkpt lat="44.6890481" lon="8.0179475"><ele>175.0</ele><time>2026-04-30T14:56:00.525Z</time></trkpt><trkpt lat="44.6891027" lon="8.0180755"><ele>175.0</ele><time>2026-04-30T14:56:01.559Z</time></trkpt><trkpt lat="44.6891506" lon="8.0181937"><ele>175.0</ele><time>2026-04-30T14:56:02.523Z</time></trkpt><trkpt lat="44.6892037" lon="8.0183164"><ele>175.0</ele><time>2026-04-30T14:56:03.568Z</time></trkpt><trkpt lat="44.689241" lon="8.018417"><ele>175.0</ele><time>2026-04-30T14:56:04.583Z</time></trkpt><trkpt lat="44.6892788" lon="8.0185247"><ele>175.0</ele><time>2026-04-30T14:56:06.532Z</time></trkpt><trkpt lat="44.6893096" lon="8.0186099"><ele>175.0</ele><time>2026-04-30T14:56:08.55Z</time></trkpt><trkpt lat="44.6893451" lon="8.0187471"><ele>175.0</ele><time>2026-04-30T14:56:10.521Z</time></trkpt><trkpt lat="44.6893636" lon="8.0189164"><ele>175.0</ele><time>2026-04-30T14:56:12.701Z</time></trkpt><trkpt lat="44.689365" lon="8.0190511"><ele>175.0</ele><time>2026-04-30T14:56:14.478Z</time></trkpt><trkpt lat="44.6894426" lon="8.0191774"><ele>175.0</ele><time>2026-04-30T14:56:16.471Z</time></trkpt><trkpt lat="44.6895098" lon="8.0192163"><ele>175.0</ele><time>2026-04-30T14:56:17.556Z</time></trkpt><trkpt lat="44.6895723" lon="8.0192681"><ele>175.0</ele><time>2026-04-30T14:56:18.541Z</time></trkpt><trkpt lat="44.6896407" lon="8.0193492"><ele>175.0</ele><time>2026-04-30T14:56:19.511Z</time></trkpt><trkpt lat="44.6897065" lon="8.019443"><ele>175.0</ele><time>2026-04-30T14:56:20.486Z</time></trkpt><trkpt lat="44.6897762" lon="8.0195562"><ele>175.0</ele><time>2026-04-30T14:56:21.51Z</time></trkpt><trkpt lat="44.6898485" lon="8.0196669"><ele>175.0</ele><time>2026-04-30T14:56:22.526Z</time></trkpt><trkpt lat="44.6899262" lon="8.0197791"><ele>175.0</ele><time>2026-04-30T14:56:23.555Z</time></trkpt><trkpt lat="44.6900216" lon="8.0199132"><ele>175.0</ele><time>2026-04-30T14:56:24.618Z</time></trkpt><trkpt lat="44.6900993" lon="8.0200385"><ele>175.0</ele><time>2026-04-30T14:56:25.53Z</time></trkpt><trkpt lat="44.6901826" lon="8.0202048"><ele>175.0</ele><time>2026-04-30T14:56:26.57Z</time></trkpt><trkpt lat="44.6902608" lon="8.0203499"><ele>175.0</ele><time>2026-04-30T14:56:27.546Z</time></trkpt><trkpt lat="44.6903395" lon="8.0204938"><ele>175.0</ele><time>2026-04-30T14:56:28.653Z</time></trkpt><trkpt lat="44.6904722" lon="8.0207092"><ele>174.8</ele><time>2026-04-30T14:56:30.522Z</time></trkpt><trkpt lat="44.6905471" lon="8.0208391"><ele>174.6</ele><time>2026-04-30T14:56:31.62Z</time></trkpt><trkpt lat="44.6906086" lon="8.0209437"><ele>174.39999999999998</ele><time>2026-04-30T14:56:32.593Z</time></trkpt><trkpt lat="44.6906638" lon="8.0210476"><ele>174.2</ele><time>2026-04-30T14:56:33.676Z</time></trkpt><trkpt lat="44.6907159" lon="8.0211373"><ele>174.0</ele><time>2026-04-30T14:56:34.588Z</time></trkpt><trkpt lat="44.6907697" lon="8.0212338"><ele>174.0</ele><time>2026-04-30T14:56:35.531Z</time></trkpt><trkpt lat="44.6908254" lon="8.0213378"><ele>174.0</ele><time>2026-04-30T14:56:36.551Z</time></trkpt><trkpt lat="44.6908751" lon="8.0214227"><ele>174.0</ele><time>2026-04-30T14:56:37.539Z</time></trkpt><trkpt lat="44.6909234" lon="8.0215125"><ele>174.0</ele><time>2026-04-30T14:56:38.618Z</time></trkpt><trkpt lat="44.6909689" lon="8.0215992"><ele>174.0</ele><time>2026-04-30T14:56:39.558Z</time></trkpt><trkpt lat="44.691016" lon="8.0217017"><ele>174.0</ele><time>2026-04-30T14:56:40.516Z</time></trkpt><trkpt lat="44.6910628" lon="8.0218118"><ele>174.39999999999998</ele><time>2026-04-30T14:56:41.562Z</time></trkpt><trkpt lat="44.6911009" lon="8.0218904"><ele>174.8</ele><time>2026-04-30T14:56:42.502Z</time></trkpt><trkpt lat="44.6911329" lon="8.0219783"><ele>175.2</ele><time>2026-04-30T14:56:43.527Z</time></trkpt><trkpt lat="44.6911703" lon="8.0220551"><ele>175.60000000000002</ele><time>2026-04-30T14:56:44.518Z</time></trkpt><trkpt lat="44.6912345" lon="8.0222012"><ele>176.0</ele><time>2026-04-30T14:56:46.706Z</time></trkpt><trkpt lat="44.6913041" lon="8.0223492"><ele>176.0</ele><time>2026-04-30T14:56:48.561Z</time></trkpt><trkpt lat="44.6913367" lon="8.0224313"><ele>176.0</ele><time>2026-04-30T14:56:49.562Z</time></trkpt><trkpt lat="44.6913957" lon="8.0225453"><ele>176.0</ele><time>2026-04-30T14:56:51.514Z</time></trkpt><trkpt lat="44.6914379" lon="8.0226469"><ele>176.0</ele><time>2026-04-30T14:56:52.828Z</time></trkpt><trkpt lat="44.6914801" lon="8.0227258"><ele>176.0</ele><time>2026-04-30T14:56:55.518Z</time></trkpt><trkpt lat="44.6915475" lon="8.0228587"><ele>176.0</ele><time>2026-04-30T14:56:58.584Z</time></trkpt><trkpt lat="44.6915867" lon="8.0229346"><ele>176.16666666666666</ele><time>2026-04-30T14:56:59.573Z</time></trkpt><trkpt lat="44.6916269" lon="8.0230138"><ele>176.33333333333331</ele><time>2026-04-30T14:57:00.521Z</time></trkpt><trkpt lat="44.691674" lon="8.0231067"><ele>176.5</ele><time>2026-04-30T14:57:01.528Z</time></trkpt><trkpt lat="44.6917182" lon="8.0232012"><ele>176.66666666666666</ele><time>2026-04-30T14:57:02.501Z</time></trkpt><trkpt lat="44.6917628" lon="8.0232968"><ele>176.83333333333334</ele><time>2026-04-30T14:57:03.548Z</time></trkpt><trkpt lat="44.6918027" lon="8.0233823"><ele>177.0</ele><time>2026-04-30T14:57:04.548Z</time></trkpt><trkpt lat="44.6918404" lon="8.0234629"><ele>177.0</ele><time>2026-04-30T14:57:05.514Z</time></trkpt><trkpt lat="44.6918853" lon="8.0235596"><ele>177.0</ele><time>2026-04-30T14:57:06.505Z</time></trkpt><trkpt lat="44.6919287" lon="8.0236568"><ele>177.0</ele><time>2026-04-30T14:57:07.507Z</time></trkpt><trkpt lat="44.6919725" lon="8.0237524"><ele>177.0</ele><time>2026-04-30T14:57:08.528Z</time></trkpt><trkpt lat="44.6920129" lon="8.0238404"><ele>177.0</ele><time>2026-04-30T14:57:09.529Z</time></trkpt><trkpt lat="44.6920494" lon="8.0239192"><ele>177.0</ele><time>2026-04-30T14:57:10.512Z</time></trkpt><trkpt lat="44.6920835" lon="8.024003"><ele>176.71428571428572</ele><time>2026-04-30T14:57:11.563Z</time></trkpt><trkpt lat="44.6921231" lon="8.0240874"><ele>176.42857142857142</ele><time>2026-04-30T14:57:12.574Z</time></trkpt><trkpt lat="44.6921643" lon="8.0241751"><ele>176.14285714285714</ele><time>2026-04-30T14:57:13.527Z</time></trkpt><trkpt lat="44.6922019" lon="8.0242727"><ele>175.85714285714286</ele><time>2026-04-30T14:57:14.57Z</time></trkpt><trkpt lat="44.6922277" lon="8.0243721"><ele>175.57142857142856</ele><time>2026-04-30T14:57:15.534Z</time></trkpt><trkpt lat="44.6922554" lon="8.0244706"><ele>175.28571428571428</ele><time>2026-04-30T14:57:16.535Z</time></trkpt><trkpt lat="44.6922855" lon="8.0245577"><ele>175.0</ele><time>2026-04-30T14:57:17.538Z</time></trkpt><trkpt lat="44.6923499" lon="8.0247008"><ele>174.83333333333334</ele><time>2026-04-30T14:57:19.522Z</time></trkpt><trkpt lat="44.6923867" lon="8.02478"><ele>174.66666666666669</ele><time>2026-04-30T14:57:20.727Z</time></trkpt><trkpt lat="44.6924351" lon="8.0248884"><ele>174.5</ele><time>2026-04-30T14:57:22.509Z</time></trkpt><trkpt lat="44.6924963" lon="8.0250123"><ele>174.33333333333334</ele><time>2026-04-30T14:57:24.564Z</time></trkpt><trkpt lat="44.6925485" lon="8.0251274"><ele>174.16666666666666</ele><time>2026-04-30T14:57:26.534Z</time></trkpt><trkpt lat="44.6925905" lon="8.0252196"><ele>174.0</ele><time>2026-04-30T14:57:28.694Z</time></trkpt><trkpt lat="44.6926393" lon="8.0253337"><ele>174.0</ele><time>2026-04-30T14:57:31.554Z</time></trkpt><trkpt lat="44.6927002" lon="8.0254645"><ele>174.0</ele><time>2026-04-30T14:57:33.656Z</time></trkpt><trkpt lat="44.692767" lon="8.025578"><ele>174.0</ele><time>2026-04-30T14:57:36.754Z</time></trkpt><trkpt lat="44.6928461" lon="8.0257582"><ele>174.0</ele><time>2026-04-30T14:57:38.565Z</time></trkpt><trkpt lat="44.6928835" lon="8.0258349"><ele>174.0</ele><time>2026-04-30T14:57:39.521Z</time></trkpt><trkpt lat="44.6929158" lon="8.025917"><ele>173.83333333333334</ele><time>2026-04-30T14:57:40.503Z</time></trkpt><trkpt lat="44.692953" lon="8.0259959"><ele>173.66666666666666</ele><time>2026-04-30T14:57:41.508Z</time></trkpt><trkpt lat="44.6929931" lon="8.0260753"><ele>173.5</ele><time>2026-04-30T14:57:42.491Z</time></trkpt><trkpt lat="44.6930278" lon="8.0261518"><ele>173.33333333333331</ele><time>2026-04-30T14:57:43.511Z</time></trkpt><trkpt lat="44.6930896" lon="8.0262971"><ele>173.16666666666666</ele><time>2026-04-30T14:57:45.462Z</time></trkpt><trkpt lat="44.6931223" lon="8.0263778"><ele>173.0</ele><time>2026-04-30T14:57:46.634Z</time></trkpt><trkpt lat="44.6931661" lon="8.0264758"><ele>173.0</ele><time>2026-04-30T14:57:48.575Z</time></trkpt><trkpt lat="44.6932065" lon="8.0265575"><ele>173.0</ele><time>2026-04-30T14:57:50.515Z</time></trkpt><trkpt lat="44.6932891" lon="8.0267048"><ele>173.0</ele><time>2026-04-30T14:57:53.576Z</time></trkpt><trkpt lat="44.6933285" lon="8.0267907"><ele>173.0</ele><time>2026-04-30T14:57:55.587Z</time></trkpt><trkpt lat="44.6933627" lon="8.0268731"><ele>173.0</ele><time>2026-04-30T14:57:57.61Z</time></trkpt><trkpt lat="44.6934197" lon="8.0270134"><ele>173.14285714285714</ele><time>2026-04-30T14:58:00.66Z</time></trkpt><trkpt lat="44.6934548" lon="8.0271088"><ele>173.2857142857143</ele><time>2026-04-30T14:58:02.638Z</time></trkpt><trkpt lat="44.6934912" lon="8.0271932"><ele>173.42857142857144</ele><time>2026-04-30T14:58:04.649Z</time></trkpt><trkpt lat="44.6935274" lon="8.0272718"><ele>173.57142857142856</ele><time>2026-04-30T14:58:06.718Z</time></trkpt><trkpt lat="44.6935611" lon="8.0273483"><ele>173.71428571428572</ele><time>2026-04-30T14:58:08.531Z</time></trkpt><trkpt lat="44.693604" lon="8.0274445"><ele>173.85714285714286</ele><time>2026-04-30T14:58:10.522Z</time></trkpt><trkpt lat="44.6936415" lon="8.0275162"><ele>174.0</ele><time>2026-04-30T14:58:12.558Z</time></trkpt><trkpt lat="44.6936844" lon="8.027582"><ele>174.0</ele><time>2026-04-30T14:58:14.593Z</time></trkpt><trkpt lat="44.6937155" lon="8.0276609"><ele>174.0</ele><time>2026-04-30T14:58:17.562Z</time></trkpt><trkpt lat="44.6937508" lon="8.0277406"><ele>174.0</ele><time>2026-04-30T14:58:19.614Z</time></trkpt><trkpt lat="44.6938241" lon="8.0278764"><ele>174.0</ele><time>2026-04-30T14:58:22.576Z</time></trkpt><trkpt lat="44.6938782" lon="8.0279832"><ele>174.0</ele><time>2026-04-30T14:58:24.549Z</time></trkpt><trkpt lat="44.6939416" lon="8.0281233"><ele>174.0</ele><time>2026-04-30T14:58:26.558Z</time></trkpt><trkpt lat="44.6939801" lon="8.0281949"><ele>174.0</ele><time>2026-04-30T14:58:27.616Z</time></trkpt><trkpt lat="44.6940517" lon="8.0283465"><ele>174.0</ele><time>2026-04-30T14:58:29.61Z</time></trkpt><trkpt lat="44.6940882" lon="8.0284243"><ele>174.0</ele><time>2026-04-30T14:58:30.692Z</time></trkpt><trkpt lat="44.6941253" lon="8.0284972"><ele>174.0</ele><time>2026-04-30T14:58:31.759Z</time></trkpt><trkpt lat="44.6941905" lon="8.0286346"><ele>174.0</ele><time>2026-04-30T14:58:33.685Z</time></trkpt><trkpt lat="44.6942272" lon="8.0287157"><ele>174.0</ele><time>2026-04-30T14:58:34.681Z</time></trkpt><trkpt lat="44.6942917" lon="8.0288623"><ele>174.0</ele><time>2026-04-30T14:58:36.554Z</time></trkpt><trkpt lat="44.6943298" lon="8.0289446"><ele>174.0</ele><time>2026-04-30T14:58:37.611Z</time></trkpt><trkpt lat="44.6943988" lon="8.0290882"><ele>174.0</ele><time>2026-04-30T14:58:39.631Z</time></trkpt><trkpt lat="44.6944601" lon="8.0292268"><ele>174.0</ele><time>2026-04-30T14:58:41.65Z</time></trkpt><trkpt lat="44.6945216" lon="8.0293621"><ele>174.25</ele><time>2026-04-30T14:58:43.687Z</time></trkpt><trkpt lat="44.6945816" lon="8.0294896"><ele>174.5</ele><time>2026-04-30T14:58:45.713Z</time></trkpt><trkpt lat="44.6946285" lon="8.0296298"><ele>174.75</ele><time>2026-04-30T14:58:47.645Z</time></trkpt><trkpt lat="44.6946528" lon="8.0297228"><ele>175.0</ele><time>2026-04-30T14:58:48.706Z</time></trkpt><trkpt lat="44.6947462" lon="8.0299078"><ele>174.66666666666669</ele><time>2026-04-30T14:58:50.685Z</time></trkpt><trkpt lat="44.6947974" lon="8.0300007"><ele>174.33333333333334</ele><time>2026-04-30T14:58:51.601Z</time></trkpt><trkpt lat="44.6948519" lon="8.0301024"><ele>174.0</ele><time>2026-04-30T14:58:52.669Z</time></trkpt><trkpt lat="44.6948997" lon="8.0301863"><ele>173.66666666666666</ele><time>2026-04-30T14:58:53.613Z</time></trkpt><trkpt lat="44.6949611" lon="8.0302789"><ele>173.33333333333331</ele><time>2026-04-30T14:58:54.795Z</time></trkpt><trkpt lat="44.6950137" lon="8.0303552"><ele>173.0</ele><time>2026-04-30T14:58:55.812Z</time></trkpt><trkpt lat="44.6950786" lon="8.0305246"><ele>173.0</ele><time>2026-04-30T14:58:57.788Z</time></trkpt><trkpt lat="44.6951201" lon="8.0306031"><ele>173.0</ele><time>2026-04-30T14:58:58.722Z</time></trkpt><trkpt lat="44.6951602" lon="8.0306729"><ele>173.0</ele><time>2026-04-30T14:58:59.658Z</time></trkpt><trkpt lat="44.6952175" lon="8.0307806"><ele>173.0</ele><time>2026-04-30T14:59:01.666Z</time></trkpt><trkpt lat="44.6952841" lon="8.030934"><ele>173.0</ele><time>2026-04-30T14:59:05.642Z</time></trkpt><trkpt lat="44.6952913" lon="8.0310384"><ele>173.0</ele><time>2026-04-30T14:59:14.626Z</time></trkpt><trkpt lat="44.6953702" lon="8.0311439"><ele>172.83333333333331</ele><time>2026-04-30T14:59:17.526Z</time></trkpt><trkpt lat="44.6954225" lon="8.0312165"><ele>172.66666666666666</ele><time>2026-04-30T14:59:18.573Z</time></trkpt><trkpt lat="44.6954692" lon="8.031305"><ele>172.5</ele><time>2026-04-30T14:59:19.516Z</time></trkpt><trkpt lat="44.6955173" lon="8.0314075"><ele>172.33333333333334</ele><time>2026-04-30T14:59:20.521Z</time></trkpt><trkpt lat="44.6955663" lon="8.0315143"><ele>172.16666666666669</ele><time>2026-04-30T14:59:21.452Z</time></trkpt><trkpt lat="44.6956131" lon="8.031618"><ele>172.0</ele><time>2026-04-30T14:59:22.523Z</time></trkpt><trkpt lat="44.6956502" lon="8.0316978"><ele>172.00000000000003</ele><time>2026-04-30T14:59:23.484Z</time></trkpt><trkpt lat="44.6956957" lon="8.0317642"><ele>172.0</ele><time>2026-04-30T14:59:24.47Z</time></trkpt><trkpt lat="44.6957522" lon="8.0318325"><ele>172.0</ele><time>2026-04-30T14:59:25.508Z</time></trkpt><trkpt lat="44.6958109" lon="8.0318889"><ele>172.0</ele><time>2026-04-30T14:59:26.473Z</time></trkpt><trkpt lat="44.6958664" lon="8.0319461"><ele>172.0</ele><time>2026-04-30T14:59:27.474Z</time></trkpt><trkpt lat="44.6959265" lon="8.0320124"><ele>172.00000000000003</ele><time>2026-04-30T14:59:28.509Z</time></trkpt><trkpt lat="44.6959839" lon="8.0320803"><ele>172.0</ele><time>2026-04-30T14:59:29.488Z</time></trkpt><trkpt lat="44.6960392" lon="8.032156"><ele>171.83333333333334</ele><time>2026-04-30T14:59:30.519Z</time></trkpt><trkpt lat="44.6960937" lon="8.0322332"><ele>171.66666666666669</ele><time>2026-04-30T14:59:31.474Z</time></trkpt><trkpt lat="44.6961499" lon="8.0323188"><ele>171.5</ele><time>2026-04-30T14:59:32.556Z</time></trkpt><trkpt lat="44.6961966" lon="8.0323981"><ele>171.33333333333334</ele><time>2026-04-30T14:59:33.528Z</time></trkpt><trkpt lat="44.6962397" lon="8.0324852"><ele>171.16666666666666</ele><time>2026-04-30T14:59:34.572Z</time></trkpt><trkpt lat="44.6962751" lon="8.0325608"><ele>171.0</ele><time>2026-04-30T14:59:35.587Z</time></trkpt><trkpt lat="44.6963377" lon="8.0327184"><ele>171.0</ele><time>2026-04-30T14:59:37.72Z</time></trkpt><trkpt lat="44.6963902" lon="8.0328603"><ele>171.0</ele><time>2026-04-30T14:59:39.62Z</time></trkpt><trkpt lat="44.6964304" lon="8.0329623"><ele>171.0</ele><time>2026-04-30T14:59:41.649Z</time></trkpt><trkpt lat="44.6964672" lon="8.0330344"><ele>171.0</ele><time>2026-04-30T14:59:44.526Z</time></trkpt><trkpt lat="44.6965606" lon="8.0330394"><ele>171.0</ele><time>2026-04-30T15:00:01.564Z</time></trkpt><trkpt lat="44.6966683" lon="8.0329432"><ele>170.99999999999997</ele><time>2026-04-30T15:00:03.45Z</time></trkpt><trkpt lat="44.6966917" lon="8.0328604"><ele>171.0</ele><time>2026-04-30T15:00:04.511Z</time></trkpt><trkpt lat="44.6967112" lon="8.0327639"><ele>171.0</ele><time>2026-04-30T15:00:05.492Z</time></trkpt><trkpt lat="44.6967311" lon="8.0326667"><ele>171.0</ele><time>2026-04-30T15:00:06.52Z</time></trkpt><trkpt lat="44.6967642" lon="8.0325688"><ele>171.0</ele><time>2026-04-30T15:00:07.566Z</time></trkpt><trkpt lat="44.6968091" lon="8.032476"><ele>170.99999999999997</ele><time>2026-04-30T15:00:08.517Z</time></trkpt><trkpt lat="44.6968591" lon="8.0323923"><ele>171.0</ele><time>2026-04-30T15:00:09.471Z</time></trkpt><trkpt lat="44.6969262" lon="8.0323145"><ele>171.33333333333334</ele><time>2026-04-30T15:00:10.528Z</time></trkpt><trkpt lat="44.6969831" lon="8.0322491"><ele>171.66666666666666</ele><time>2026-04-30T15:00:11.527Z</time></trkpt><trkpt lat="44.6970551" lon="8.0321632"><ele>172.0</ele><time>2026-04-30T15:00:12.58Z</time></trkpt><trkpt lat="44.6971146" lon="8.0321059"><ele>172.33333333333331</ele><time>2026-04-30T15:00:13.489Z</time></trkpt><trkpt lat="44.6971813" lon="8.0320245"><ele>172.66666666666666</ele><time>2026-04-30T15:00:14.553Z</time></trkpt><trkpt lat="44.6972472" lon="8.0319571"><ele>173.0</ele><time>2026-04-30T15:00:15.575Z</time></trkpt><trkpt lat="44.6973048" lon="8.0318954"><ele>173.0</ele><time>2026-04-30T15:00:16.519Z</time></trkpt><trkpt lat="44.6973864" lon="8.0318113"><ele>173.0</ele><time>2026-04-30T15:00:17.795Z</time></trkpt><trkpt lat="44.6975025" lon="8.031698"><ele>173.0</ele><time>2026-04-30T15:00:19.533Z</time></trkpt><trkpt lat="44.6975671" lon="8.0316382"><ele>173.0</ele><time>2026-04-30T15:00:20.535Z</time></trkpt><trkpt lat="44.6976264" lon="8.0315849"><ele>173.0</ele><time>2026-04-30T15:00:21.474Z</time></trkpt><trkpt lat="44.6976809" lon="8.0315342"><ele>173.4</ele><time>2026-04-30T15:00:22.47Z</time></trkpt><trkpt lat="44.697789" lon="8.0314345"><ele>173.8</ele><time>2026-04-30T15:00:24.523Z</time></trkpt><trkpt lat="44.6978431" lon="8.0313803"><ele>174.2</ele><time>2026-04-30T15:00:25.537Z</time></trkpt><trkpt lat="44.6979339" lon="8.0312891"><ele>174.6</ele><time>2026-04-30T15:00:27.513Z</time></trkpt><trkpt lat="44.6980142" lon="8.0312132"><ele>175.0</ele><time>2026-04-30T15:00:29.499Z</time></trkpt><trkpt lat="44.6980832" lon="8.0311398"><ele>175.0</ele><time>2026-04-30T15:00:31.505Z</time></trkpt><trkpt lat="44.6981561" lon="8.0310603"><ele>175.0</ele><time>2026-04-30T15:00:34.571Z</time></trkpt><trkpt lat="44.6982301" lon="8.0309944"><ele>175.0</ele><time>2026-04-30T15:00:36.494Z</time></trkpt><trkpt lat="44.6982885" lon="8.030937"><ele>175.0</ele><time>2026-04-30T15:00:37.608Z</time></trkpt><trkpt lat="44.6983561" lon="8.0308746"><ele>175.0</ele><time>2026-04-30T15:00:38.62Z</time></trkpt><trkpt lat="44.698426" lon="8.0308143"><ele>175.0</ele><time>2026-04-30T15:00:39.609Z</time></trkpt><trkpt lat="44.6985037" lon="8.0307493"><ele>174.4</ele><time>2026-04-30T15:00:40.751Z</time></trkpt><trkpt lat="44.6986187" lon="8.0306426"><ele>173.8</ele><time>2026-04-30T15:00:42.551Z</time></trkpt><trkpt lat="44.6987216" lon="8.0305565"><ele>173.2</ele><time>2026-04-30T15:00:44.61Z</time></trkpt><trkpt lat="44.6987892" lon="8.0304892"><ele>172.6</ele><time>2026-04-30T15:00:46.714Z</time></trkpt><trkpt lat="44.6988632" lon="8.0304222"><ele>172.0</ele><time>2026-04-30T15:00:52.71Z</time></trkpt><trkpt lat="44.6989288" lon="8.0303756"><ele>172.0</ele><time>2026-04-30T15:00:56.703Z</time></trkpt><trkpt lat="44.6990087" lon="8.0303457"><ele>172.0</ele><time>2026-04-30T15:00:59.681Z</time></trkpt><trkpt lat="44.6990927" lon="8.0303022"><ele>172.0</ele><time>2026-04-30T15:01:01.749Z</time></trkpt><trkpt lat="44.6991182" lon="8.0302043"><ele>172.0</ele><time>2026-04-30T15:01:03.495Z</time></trkpt><trkpt lat="44.6990755" lon="8.0300995"><ele>172.0</ele><time>2026-04-30T15:01:05.557Z</time></trkpt><trkpt lat="44.6990225" lon="8.0300103"><ele>172.0</ele><time>2026-04-30T15:01:07.581Z</time></trkpt><trkpt lat="44.6989978" lon="8.0299112"><ele>171.16666666666669</ele><time>2026-04-30T15:01:09.555Z</time></trkpt><trkpt lat="44.6990297" lon="8.0298334"><ele>170.33333333333334</ele><time>2026-04-30T15:01:11.566Z</time></trkpt><trkpt lat="44.6991097" lon="8.0297779"><ele>169.5</ele><time>2026-04-30T15:01:13.535Z</time></trkpt><trkpt lat="44.6991883" lon="8.0297737"><ele>168.66666666666666</ele><time>2026-04-30T15:01:15.595Z</time></trkpt><trkpt lat="44.6991678" lon="8.0296809"><ele>167.83333333333331</ele><time>2026-04-30T15:01:23.685Z</time></trkpt><trkpt lat="44.6991041" lon="8.0297502"><ele>167.0</ele><time>2026-04-30T15:07:23.545Z</time></trkpt><trkpt lat="44.6990331" lon="8.0298238"><ele>167.0</ele><time>2026-04-30T15:07:25.541Z</time></trkpt><trkpt lat="44.698973" lon="8.0298704"><ele>167.0</ele><time>2026-04-30T15:07:39.48Z</time></trkpt><trkpt lat="44.6989102" lon="8.0298421"><ele>167.0</ele><time>2026-04-30T15:07:42.551Z</time></trkpt><trkpt lat="44.6988792" lon="8.0297481"><ele>167.0</ele><time>2026-04-30T15:09:36.516Z</time></trkpt><trkpt lat="44.6988464" lon="8.0296586"><ele>167.0</ele><time>2026-04-30T15:09:38.537Z</time></trkpt><trkpt lat="44.6988048" lon="8.0295302"><ele>167.0</ele><time>2026-04-30T15:09:40.52Z</time></trkpt><trkpt lat="44.6987601" lon="8.0293867"><ele>167.0</ele><time>2026-04-30T15:09:42.523Z</time></trkpt><trkpt lat="44.6987083" lon="8.0292235"><ele>167.0</ele><time>2026-04-30T15:09:44.601Z</time></trkpt><trkpt lat="44.6986738" lon="8.029123"><ele>167.0</ele><time>2026-04-30T15:09:45.564Z</time></trkpt><trkpt lat="44.6986358" lon="8.0290039"><ele>167.0</ele><time>2026-04-30T15:09:46.626Z</time></trkpt><trkpt lat="44.6986036" lon="8.0289052"><ele>167.0</ele><time>2026-04-30T15:09:47.605Z</time></trkpt><trkpt lat="44.6985795" lon="8.02881"><ele>167.0</ele><time>2026-04-30T15:09:48.654Z</time></trkpt><trkpt lat="44.6985496" lon="8.0287154"><ele>167.0</ele><time>2026-04-30T15:09:49.68Z</time></trkpt><trkpt lat="44.6985295" lon="8.0286278"><ele>167.0</ele><time>2026-04-30T15:09:50.651Z</time></trkpt><trkpt lat="44.6985222" lon="8.0285377"><ele>167.0</ele><time>2026-04-30T15:09:51.603Z</time></trkpt><trkpt lat="44.6985235" lon="8.0284068"><ele>167.0</ele><time>2026-04-30T15:09:53.581Z</time></trkpt><trkpt lat="44.6985896" lon="8.0283699"><ele>167.0</ele><time>2026-04-30T15:09:55.677Z</time></trkpt><trkpt lat="44.6986592" lon="8.0283751"><ele>167.0</ele><time>2026-04-30T15:09:56.627Z</time></trkpt><trkpt lat="44.6987685" lon="8.0283738"><ele>167.0</ele><time>2026-04-30T15:09:57.686Z</time></trkpt><trkpt lat="44.6988896" lon="8.0283718"><ele>167.0</ele><time>2026-04-30T15:09:58.682Z</time></trkpt><trkpt lat="44.6990407" lon="8.028364"><ele>167.0</ele><time>2026-04-30T15:09:59.791Z</time></trkpt><trkpt lat="44.6993059" lon="8.0283653"><ele>166.0</ele><time>2026-04-30T15:10:01.581Z</time></trkpt><trkpt lat="44.6994649" lon="8.0283593"><ele>165.0</ele><time>2026-04-30T15:10:02.589Z</time></trkpt><trkpt lat="44.6996225" lon="8.0283425"><ele>164.0</ele><time>2026-04-30T15:10:03.567Z</time></trkpt><trkpt lat="44.6997708" lon="8.0283143"><ele>164.66666666666666</ele><time>2026-04-30T15:10:04.501Z</time></trkpt><trkpt lat="44.6999342" lon="8.028283"><ele>165.33333333333334</ele><time>2026-04-30T15:10:05.601Z</time></trkpt><trkpt lat="44.7000657" lon="8.0282548"><ele>166.0</ele><time>2026-04-30T15:10:06.535Z</time></trkpt><trkpt lat="44.7002233" lon="8.0282176"><ele>166.33333333333334</ele><time>2026-04-30T15:10:07.726Z</time></trkpt><trkpt lat="44.7004528" lon="8.0282183"><ele>166.66666666666666</ele><time>2026-04-30T15:10:09.576Z</time></trkpt><trkpt lat="44.7005583" lon="8.0282786"><ele>167.0</ele><time>2026-04-30T15:10:10.543Z</time></trkpt><trkpt lat="44.7006622" lon="8.0283825"><ele>166.33333333333331</ele><time>2026-04-30T15:10:11.521Z</time></trkpt><trkpt lat="44.7007692" lon="8.0285407"><ele>165.66666666666666</ele><time>2026-04-30T15:10:12.625Z</time></trkpt><trkpt lat="44.7009337" lon="8.0288"><ele>165.0</ele><time>2026-04-30T15:10:14.498Z</time></trkpt><trkpt lat="44.7010337" lon="8.0288866"><ele>164.75</ele><time>2026-04-30T15:10:15.533Z</time></trkpt><trkpt lat="44.7011636" lon="8.0289301"><ele>164.5</ele><time>2026-04-30T15:10:16.549Z</time></trkpt><trkpt lat="44.7012797" lon="8.0289285"><ele>164.25</ele><time>2026-04-30T15:10:17.462Z</time></trkpt><trkpt lat="44.7014336" lon="8.0288835"><ele>164.0</ele><time>2026-04-30T15:10:18.564Z</time></trkpt><trkpt lat="44.701562" lon="8.0288356"><ele>164.0</ele><time>2026-04-30T15:10:19.497Z</time></trkpt><trkpt lat="44.7017176" lon="8.0287793"><ele>164.0</ele><time>2026-04-30T15:10:20.527Z</time></trkpt><trkpt lat="44.7018744" lon="8.0287159"><ele>164.0</ele><time>2026-04-30T15:10:21.556Z</time></trkpt><trkpt lat="44.7020205" lon="8.0286568"><ele>164.25</ele><time>2026-04-30T15:10:22.57Z</time></trkpt><trkpt lat="44.7021715" lon="8.0286017"><ele>164.5</ele><time>2026-04-30T15:10:23.573Z</time></trkpt><trkpt lat="44.702306" lon="8.0285485"><ele>164.75</ele><time>2026-04-30T15:10:24.507Z</time></trkpt><trkpt lat="44.7024504" lon="8.0284937"><ele>165.0</ele><time>2026-04-30T15:10:25.497Z</time></trkpt><trkpt lat="44.7026006" lon="8.028436"><ele>165.0</ele><time>2026-04-30T15:10:26.565Z</time></trkpt><trkpt lat="44.7027355" lon="8.0283848"><ele>165.0</ele><time>2026-04-30T15:10:27.579Z</time></trkpt><trkpt lat="44.7028396" lon="8.0283465"><ele>165.0</ele><time>2026-04-30T15:10:28.489Z</time></trkpt><trkpt lat="44.7029418" lon="8.0283034"><ele>165.0</ele><time>2026-04-30T15:10:29.55Z</time></trkpt><trkpt lat="44.7030221" lon="8.0282624"><ele>165.0</ele><time>2026-04-30T15:10:30.478Z</time></trkpt><trkpt lat="44.7031276" lon="8.0282122"><ele>165.25</ele><time>2026-04-30T15:10:31.538Z</time></trkpt><trkpt lat="44.7032425" lon="8.028153"><ele>165.5</ele><time>2026-04-30T15:10:32.674Z</time></trkpt><trkpt lat="44.7034126" lon="8.0280947"><ele>165.75</ele><time>2026-04-30T15:10:34.562Z</time></trkpt><trkpt lat="44.7034966" lon="8.028063"><ele>166.0</ele><time>2026-04-30T15:10:35.58Z</time></trkpt><trkpt lat="44.7035743" lon="8.0280374"><ele>165.75</ele><time>2026-04-30T15:10:36.622Z</time></trkpt><trkpt lat="44.7037004" lon="8.0280223"><ele>165.5</ele><time>2026-04-30T15:10:38.671Z</time></trkpt><trkpt lat="44.7038589" lon="8.028108"><ele>165.25</ele><time>2026-04-30T15:10:41.528Z</time></trkpt><trkpt lat="44.7039398" lon="8.0282534"><ele>165.0</ele><time>2026-04-30T15:10:43.5Z</time></trkpt><trkpt lat="44.7039968" lon="8.0283405"><ele>165.0</ele><time>2026-04-30T15:10:44.569Z</time></trkpt><trkpt lat="44.704065" lon="8.028385"><ele>165.0</ele><time>2026-04-30T15:10:45.655Z</time></trkpt><trkpt lat="44.7041721" lon="8.0284027"><ele>165.0</ele><time>2026-04-30T15:10:47.548Z</time></trkpt><trkpt lat="44.7042503" lon="8.028372"><ele>165.0</ele><time>2026-04-30T15:10:50.527Z</time></trkpt><trkpt lat="44.7043475" lon="8.0281673"><ele>165.0</ele><time>2026-04-30T15:11:01.543Z</time></trkpt><trkpt lat="44.7044248" lon="8.028056"><ele>164.66666666666666</ele><time>2026-04-30T15:11:03.603Z</time></trkpt><trkpt lat="44.7044854" lon="8.027989"><ele>164.33333333333334</ele><time>2026-04-30T15:11:05.571Z</time></trkpt><trkpt lat="44.7045339" lon="8.0279306"><ele>164.0</ele><time>2026-04-30T15:11:07.537Z</time></trkpt><trkpt lat="44.7045961" lon="8.0278239"><ele>163.66666666666669</ele><time>2026-04-30T15:11:10.555Z</time></trkpt><trkpt lat="44.7046584" lon="8.0277152"><ele>163.33333333333334</ele><time>2026-04-30T15:11:12.581Z</time></trkpt><trkpt lat="44.7047108" lon="8.027643"><ele>163.0</ele><time>2026-04-30T15:11:14.552Z</time></trkpt><trkpt lat="44.7047691" lon="8.0276009"><ele>163.0</ele><time>2026-04-30T15:11:16.564Z</time></trkpt><trkpt lat="44.7048469" lon="8.0275679"><ele>163.0</ele><time>2026-04-30T15:11:18.544Z</time></trkpt><trkpt lat="44.7049545" lon="8.0275433"><ele>163.0</ele><time>2026-04-30T15:11:20.611Z</time></trkpt><trkpt lat="44.7050642" lon="8.0275131"><ele>163.0</ele><time>2026-04-30T15:11:22.535Z</time></trkpt><trkpt lat="44.7051493" lon="8.0274952"><ele>163.0</ele><time>2026-04-30T15:11:24.52Z</time></trkpt><trkpt lat="44.7052511" lon="8.0274665"><ele>162.5</ele><time>2026-04-30T15:11:26.561Z</time></trkpt><trkpt lat="44.7053144" lon="8.0274465"><ele>162.0</ele><time>2026-04-30T15:11:27.604Z</time></trkpt><trkpt lat="44.7054422" lon="8.0274083"><ele>161.5</ele><time>2026-04-30T15:11:29.564Z</time></trkpt><trkpt lat="44.7055021" lon="8.027381"><ele>161.0</ele><time>2026-04-30T15:11:30.588Z</time></trkpt><trkpt lat="44.7056089" lon="8.0273437"><ele>160.5</ele><time>2026-04-30T15:11:32.566Z</time></trkpt><trkpt lat="44.7056851" lon="8.0273193"><ele>160.0</ele><time>2026-04-30T15:11:33.571Z</time></trkpt><trkpt lat="44.7057701" lon="8.0272944"><ele>160.0</ele><time>2026-04-30T15:11:34.53Z</time></trkpt><trkpt lat="44.7058809" lon="8.0272648"><ele>160.0</ele><time>2026-04-30T15:11:35.598Z</time></trkpt><trkpt lat="44.70611" lon="8.0272057"><ele>160.0</ele><time>2026-04-30T15:11:37.593Z</time></trkpt><trkpt lat="44.7062018" lon="8.0271822"><ele>160.0</ele><time>2026-04-30T15:11:38.493Z</time></trkpt><trkpt lat="44.706307" lon="8.0271566"><ele>161.66666666666669</ele><time>2026-04-30T15:11:39.522Z</time></trkpt><trkpt lat="44.7064152" lon="8.0271238"><ele>163.33333333333334</ele><time>2026-04-30T15:11:40.57Z</time></trkpt><trkpt lat="44.7065549" lon="8.0270847"><ele>165.0</ele><time>2026-04-30T15:11:41.786Z</time></trkpt><trkpt lat="44.7067552" lon="8.0270329"><ele>165.0</ele><time>2026-04-30T15:11:43.505Z</time></trkpt><trkpt lat="44.7068794" lon="8.027001"><ele>165.0</ele><time>2026-04-30T15:11:44.595Z</time></trkpt><trkpt lat="44.7069929" lon="8.0269641"><ele>165.0</ele><time>2026-04-30T15:11:45.533Z</time></trkpt><trkpt lat="44.7071277" lon="8.0269247"><ele>165.0</ele><time>2026-04-30T15:11:46.615Z</time></trkpt><trkpt lat="44.707237" lon="8.0268953"><ele>165.0</ele><time>2026-04-30T15:11:47.564Z</time></trkpt><trkpt lat="44.7073436" lon="8.0268726"><ele>165.0</ele><time>2026-04-30T15:11:48.57Z</time></trkpt><trkpt lat="44.7074459" lon="8.0268446"><ele>165.0</ele><time>2026-04-30T15:11:49.597Z</time></trkpt><trkpt lat="44.7075677" lon="8.0268095"><ele>165.0</ele><time>2026-04-30T15:11:50.838Z</time></trkpt><trkpt lat="44.7077212" lon="8.0267684"><ele>165.0</ele><time>2026-04-30T15:11:52.577Z</time></trkpt><trkpt lat="44.7077942" lon="8.0267499"><ele>165.0</ele><time>2026-04-30T15:11:54.538Z</time></trkpt><trkpt lat="44.7078761" lon="8.0267306"><ele>165.0</ele><time>2026-04-30T15:11:57.544Z</time></trkpt><trkpt lat="44.7080413" lon="8.0266815"><ele>165.0</ele><time>2026-04-30T15:11:59.627Z</time></trkpt><trkpt lat="44.7081424" lon="8.0266515"><ele>165.0</ele><time>2026-04-30T15:12:00.677Z</time></trkpt><trkpt lat="44.708248" lon="8.0266217"><ele>165.0</ele><time>2026-04-30T15:12:01.689Z</time></trkpt><trkpt lat="44.7083524" lon="8.0265886"><ele>165.0</ele><time>2026-04-30T15:12:02.678Z</time></trkpt><trkpt lat="44.7084544" lon="8.0265543"><ele>165.0</ele><time>2026-04-30T15:12:03.671Z</time></trkpt><trkpt lat="44.7085429" lon="8.0265287"><ele>165.0</ele><time>2026-04-30T15:12:04.656Z</time></trkpt><trkpt lat="44.708614" lon="8.026514"><ele>165.0</ele><time>2026-04-30T15:12:05.614Z</time></trkpt><trkpt lat="44.7087248" lon="8.0264839"><ele>165.4</ele><time>2026-04-30T15:12:07.565Z</time></trkpt><trkpt lat="44.7088364" lon="8.0264464"><ele>165.8</ele><time>2026-04-30T15:12:09.555Z</time></trkpt><trkpt lat="44.7089685" lon="8.0264253"><ele>166.2</ele><time>2026-04-30T15:12:11.582Z</time></trkpt><trkpt lat="44.7090326" lon="8.0264269"><ele>166.6</ele><time>2026-04-30T15:12:12.586Z</time></trkpt><trkpt lat="44.7091232" lon="8.0264496"><ele>167.0</ele><time>2026-04-30T15:12:14.52Z</time></trkpt><trkpt lat="44.7091997" lon="8.0264766"><ele>167.0</ele><time>2026-04-30T15:12:16.522Z</time></trkpt><trkpt lat="44.7092679" lon="8.026519"><ele>167.0</ele><time>2026-04-30T15:12:19.524Z</time></trkpt><trkpt lat="44.7093652" lon="8.0266341"><ele>167.0</ele><time>2026-04-30T15:12:21.572Z</time></trkpt><trkpt lat="44.7094357" lon="8.0266908"><ele>167.0</ele><time>2026-04-30T15:12:22.629Z</time></trkpt><trkpt lat="44.7095022" lon="8.0266928"><ele>167.0</ele><time>2026-04-30T15:12:23.574Z</time></trkpt><trkpt lat="44.7095643" lon="8.0266608"><ele>167.0</ele><time>2026-04-30T15:12:24.514Z</time></trkpt><trkpt lat="44.7096251" lon="8.0266022"><ele>167.2</ele><time>2026-04-30T15:12:25.573Z</time></trkpt><trkpt lat="44.7096593" lon="8.0265016"><ele>167.39999999999998</ele><time>2026-04-30T15:12:26.596Z</time></trkpt><trkpt lat="44.7096895" lon="8.0264014"><ele>167.60000000000002</ele><time>2026-04-30T15:12:27.498Z</time></trkpt><trkpt lat="44.7097329" lon="8.0262782"><ele>167.8</ele><time>2026-04-30T15:12:28.545Z</time></trkpt><trkpt lat="44.7097933" lon="8.0261731"><ele>168.0</ele><time>2026-04-30T15:12:29.507Z</time></trkpt><trkpt lat="44.7098919" lon="8.026098"><ele>168.0</ele><time>2026-04-30T15:12:30.525Z</time></trkpt><trkpt lat="44.7100237" lon="8.0260326"><ele>168.0</ele><time>2026-04-30T15:12:31.585Z</time></trkpt><trkpt lat="44.7101369" lon="8.02597"><ele>168.0</ele><time>2026-04-30T15:12:32.504Z</time></trkpt><trkpt lat="44.710257" lon="8.0258973"><ele>168.0</ele><time>2026-04-30T15:12:33.549Z</time></trkpt><trkpt lat="44.7103613" lon="8.0258303"><ele>167.25</ele><time>2026-04-30T15:12:34.552Z</time></trkpt><trkpt lat="44.7104541" lon="8.0257658"><ele>166.5</ele><time>2026-04-30T15:12:35.456Z</time></trkpt><trkpt lat="44.7105593" lon="8.0256917"><ele>165.75</ele><time>2026-04-30T15:12:36.534Z</time></trkpt><trkpt lat="44.7106591" lon="8.0256169"><ele>165.0</ele><time>2026-04-30T15:12:37.507Z</time></trkpt><trkpt lat="44.7107846" lon="8.025513"><ele>165.0</ele><time>2026-04-30T15:12:38.754Z</time></trkpt><trkpt lat="44.7109518" lon="8.0253628"><ele>165.0</ele><time>2026-04-30T15:12:40.657Z</time></trkpt><trkpt lat="44.7110228" lon="8.0252911"><ele>165.0</ele><time>2026-04-30T15:12:41.576Z</time></trkpt><trkpt lat="44.7111021" lon="8.0252036"><ele>165.0</ele><time>2026-04-30T15:12:42.559Z</time></trkpt><trkpt lat="44.7111838" lon="8.0251143"><ele>165.0</ele><time>2026-04-30T15:12:43.541Z</time></trkpt><trkpt lat="44.7112612" lon="8.0250251"><ele>165.0</ele><time>2026-04-30T15:12:44.548Z</time></trkpt><trkpt lat="44.7113353" lon="8.0249413"><ele>165.0</ele><time>2026-04-30T15:12:45.566Z</time></trkpt><trkpt lat="44.7113968" lon="8.0248623"><ele>165.0</ele><time>2026-04-30T15:12:46.499Z</time></trkpt><trkpt lat="44.711476" lon="8.0247529"><ele>165.0</ele><time>2026-04-30T15:12:47.589Z</time></trkpt><trkpt lat="44.7115386" lon="8.0246538"><ele>165.0</ele><time>2026-04-30T15:12:48.571Z</time></trkpt><trkpt lat="44.7116016" lon="8.0245615"><ele>165.0</ele><time>2026-04-30T15:12:49.579Z</time></trkpt><trkpt lat="44.7116653" lon="8.0244606"><ele>165.0</ele><time>2026-04-30T15:12:50.562Z</time></trkpt><trkpt lat="44.711731" lon="8.0243558"><ele>165.0</ele><time>2026-04-30T15:12:51.542Z</time></trkpt><trkpt lat="44.7118007" lon="8.0242415"><ele>165.0</ele><time>2026-04-30T15:12:52.533Z</time></trkpt><trkpt lat="44.7118629" lon="8.0241393"><ele>165.5</ele><time>2026-04-30T15:12:53.576Z</time></trkpt><trkpt lat="44.7119175" lon="8.0240487"><ele>166.0</ele><time>2026-04-30T15:12:54.562Z</time></trkpt><trkpt lat="44.7119735" lon="8.0239519"><ele>166.5</ele><time>2026-04-30T15:12:55.621Z</time></trkpt><trkpt lat="44.7120789" lon="8.0237467"><ele>167.0</ele><time>2026-04-30T15:12:57.566Z</time></trkpt><trkpt lat="44.7121406" lon="8.0236171"><ele>167.0</ele><time>2026-04-30T15:12:58.613Z</time></trkpt><trkpt lat="44.7122038" lon="8.0234931"><ele>167.0</ele><time>2026-04-30T15:12:59.605Z</time></trkpt><trkpt lat="44.7122663" lon="8.0233566"><ele>167.0</ele><time>2026-04-30T15:13:00.585Z</time></trkpt><trkpt lat="44.71233" lon="8.0231973"><ele>167.0</ele><time>2026-04-30T15:13:01.529Z</time></trkpt><trkpt lat="44.712405" lon="8.0230126"><ele>167.0</ele><time>2026-04-30T15:13:02.552Z</time></trkpt><trkpt lat="44.7124786" lon="8.0228151"><ele>167.0</ele><time>2026-04-30T15:13:03.696Z</time></trkpt><trkpt lat="44.7125279" lon="8.0226607"><ele>167.0</ele><time>2026-04-30T15:13:04.605Z</time></trkpt><trkpt lat="44.7125862" lon="8.0224959"><ele>167.0</ele><time>2026-04-30T15:13:05.634Z</time></trkpt><trkpt lat="44.7126948" lon="8.0221905"><ele>167.0</ele><time>2026-04-30T15:13:07.584Z</time></trkpt><trkpt lat="44.7127525" lon="8.0220277"><ele>167.0</ele><time>2026-04-30T15:13:08.683Z</time></trkpt><trkpt lat="44.7128116" lon="8.0218709"><ele>167.0</ele><time>2026-04-30T15:13:09.769Z</time></trkpt><trkpt lat="44.7128963" lon="8.0216214"><ele>167.0</ele><time>2026-04-30T15:13:11.551Z</time></trkpt><trkpt lat="44.7129447" lon="8.0214801"><ele>167.0</ele><time>2026-04-30T15:13:12.585Z</time></trkpt><trkpt lat="44.7129912" lon="8.0213448"><ele>167.0</ele><time>2026-04-30T15:13:13.636Z</time></trkpt><trkpt lat="44.7130373" lon="8.0212171"><ele>167.0</ele><time>2026-04-30T15:13:14.704Z</time></trkpt><trkpt lat="44.7131171" lon="8.0210061"><ele>167.0</ele><time>2026-04-30T15:13:16.529Z</time></trkpt><trkpt lat="44.7131641" lon="8.0208661"><ele>167.0</ele><time>2026-04-30T15:13:17.6Z</time></trkpt><trkpt lat="44.7132145" lon="8.0207274"><ele>167.0</ele><time>2026-04-30T15:13:18.593Z</time></trkpt><trkpt lat="44.7132677" lon="8.0205833"><ele>167.0</ele><time>2026-04-30T15:13:19.571Z</time></trkpt><trkpt lat="44.7133122" lon="8.0204476"><ele>167.0</ele><time>2026-04-30T15:13:20.497Z</time></trkpt><trkpt lat="44.7133707" lon="8.0202711"><ele>167.0</ele><time>2026-04-30T15:13:21.554Z</time></trkpt><trkpt lat="44.7134283" lon="8.0200981"><ele>167.0</ele><time>2026-04-30T15:13:22.56Z</time></trkpt><trkpt lat="44.7134901" lon="8.0199257"><ele>167.0</ele><time>2026-04-30T15:13:23.569Z</time></trkpt><trkpt lat="44.71355" lon="8.0197657"><ele>167.0</ele><time>2026-04-30T15:13:24.562Z</time></trkpt><trkpt lat="44.713602" lon="8.019618"><ele>167.0</ele><time>2026-04-30T15:13:25.558Z</time></trkpt><trkpt lat="44.7136534" lon="8.0194718"><ele>167.0</ele><time>2026-04-30T15:13:26.492Z</time></trkpt><trkpt lat="44.7137054" lon="8.0193136"><ele>167.0</ele><time>2026-04-30T15:13:27.455Z</time></trkpt><trkpt lat="44.7137591" lon="8.0191595"><ele>167.0</ele><time>2026-04-30T15:13:28.506Z</time></trkpt><trkpt lat="44.7138069" lon="8.0190049"><ele>167.0</ele><time>2026-04-30T15:13:29.568Z</time></trkpt><trkpt lat="44.7138457" lon="8.0188704"><ele>167.0</ele><time>2026-04-30T15:13:30.563Z</time></trkpt><trkpt lat="44.7138805" lon="8.0187274"><ele>167.0</ele><time>2026-04-30T15:13:31.525Z</time></trkpt><trkpt lat="44.7139172" lon="8.0185567"><ele>167.0</ele><time>2026-04-30T15:13:32.546Z</time></trkpt><trkpt lat="44.7139567" lon="8.018372"><ele>167.25</ele><time>2026-04-30T15:13:33.588Z</time></trkpt><trkpt lat="44.7139954" lon="8.0181873"><ele>167.5</ele><time>2026-04-30T15:13:34.61Z</time></trkpt><trkpt lat="44.7140301" lon="8.0180166"><ele>167.75</ele><time>2026-04-30T15:13:35.579Z</time></trkpt><trkpt lat="44.714058" lon="8.0178492"><ele>168.0</ele><time>2026-04-30T15:13:36.574Z</time></trkpt><trkpt lat="44.7140794" lon="8.0176889"><ele>168.0</ele><time>2026-04-30T15:13:37.501Z</time></trkpt><trkpt lat="44.7140959" lon="8.017502"><ele>168.0</ele><time>2026-04-30T15:13:38.598Z</time></trkpt><trkpt lat="44.7141138" lon="8.0173587"><ele>168.0</ele><time>2026-04-30T15:13:39.512Z</time></trkpt><trkpt lat="44.7141254" lon="8.0172034"><ele>168.0</ele><time>2026-04-30T15:13:40.579Z</time></trkpt><trkpt lat="44.7141325" lon="8.0170653"><ele>168.0</ele><time>2026-04-30T15:13:41.587Z</time></trkpt><trkpt lat="44.7141406" lon="8.0169462"><ele>168.0</ele><time>2026-04-30T15:13:42.531Z</time></trkpt><trkpt lat="44.7141472" lon="8.0168331"><ele>168.0</ele><time>2026-04-30T15:13:43.627Z</time></trkpt><trkpt lat="44.7141583" lon="8.0166907"><ele>168.0</ele><time>2026-04-30T15:13:45.59Z</time></trkpt><trkpt lat="44.714171" lon="8.0165107"><ele>168.0</ele><time>2026-04-30T15:13:47.573Z</time></trkpt><trkpt lat="44.7141701" lon="8.0163972"><ele>168.0</ele><time>2026-04-30T15:13:48.526Z</time></trkpt><trkpt lat="44.7141715" lon="8.0162682"><ele>168.0</ele><time>2026-04-30T15:13:49.572Z</time></trkpt><trkpt lat="44.7141775" lon="8.0161527"><ele>168.0</ele><time>2026-04-30T15:13:50.559Z</time></trkpt><trkpt lat="44.7141854" lon="8.0160464"><ele>168.0</ele><time>2026-04-30T15:13:51.574Z</time></trkpt><trkpt lat="44.7141955" lon="8.0159545"><ele>168.0</ele><time>2026-04-30T15:13:52.609Z</time></trkpt><trkpt lat="44.7142074" lon="8.0157992"><ele>168.0</ele><time>2026-04-30T15:13:54.538Z</time></trkpt><trkpt lat="44.7142241" lon="8.0157"><ele>168.0</ele><time>2026-04-30T15:13:55.534Z</time></trkpt><trkpt lat="44.7142545" lon="8.0155905"><ele>168.2</ele><time>2026-04-30T15:13:56.564Z</time></trkpt><trkpt lat="44.714287" lon="8.015475"><ele>168.4</ele><time>2026-04-30T15:13:57.528Z</time></trkpt><trkpt lat="44.7143272" lon="8.0153362"><ele>168.6</ele><time>2026-04-30T15:13:58.58Z</time></trkpt><trkpt lat="44.7143659" lon="8.015209"><ele>168.79999999999998</ele><time>2026-04-30T15:13:59.521Z</time></trkpt><trkpt lat="44.714412" lon="8.0150664"><ele>169.0</ele><time>2026-04-30T15:14:00.59Z</time></trkpt><trkpt lat="44.7144567" lon="8.0149718"><ele>169.16666666666669</ele><time>2026-04-30T15:14:01.553Z</time></trkpt><trkpt lat="44.7144929" lon="8.0148924"><ele>169.33333333333334</ele><time>2026-04-30T15:14:02.55Z</time></trkpt><trkpt lat="44.714557" lon="8.0147618"><ele>169.5</ele><time>2026-04-30T15:14:04.575Z</time></trkpt><trkpt lat="44.7146048" lon="8.0146798"><ele>169.66666666666666</ele><time>2026-04-30T15:14:05.571Z</time></trkpt><trkpt lat="44.7146679" lon="8.0145904"><ele>169.83333333333331</ele><time>2026-04-30T15:14:06.58Z</time></trkpt><trkpt lat="44.7147408" lon="8.0144926"><ele>170.0</ele><time>2026-04-30T15:14:07.613Z</time></trkpt><trkpt lat="44.7148011" lon="8.0144039"><ele>170.0</ele><time>2026-04-30T15:14:08.556Z</time></trkpt><trkpt lat="44.7148604" lon="8.0143104"><ele>170.0</ele><time>2026-04-30T15:14:09.55Z</time></trkpt><trkpt lat="44.7149183" lon="8.0142226"><ele>170.0</ele><time>2026-04-30T15:14:10.537Z</time></trkpt><trkpt lat="44.7149663" lon="8.0141433"><ele>170.0</ele><time>2026-04-30T15:14:11.605Z</time></trkpt><trkpt lat="44.7150293" lon="8.0140343"><ele>170.0</ele><time>2026-04-30T15:14:13.611Z</time></trkpt><trkpt lat="44.7151283" lon="8.0138994"><ele>170.0</ele><time>2026-04-30T15:14:15.515Z</time></trkpt><trkpt lat="44.7151834" lon="8.0138285"><ele>170.0</ele><time>2026-04-30T15:14:16.457Z</time></trkpt><trkpt lat="44.7152484" lon="8.0137406"><ele>170.0</ele><time>2026-04-30T15:14:17.533Z</time></trkpt><trkpt lat="44.7153107" lon="8.0136486"><ele>170.0</ele><time>2026-04-30T15:14:18.58Z</time></trkpt><trkpt lat="44.7153823" lon="8.0135497"><ele>170.0</ele><time>2026-04-30T15:14:19.63Z</time></trkpt><trkpt lat="44.7154478" lon="8.0134584"><ele>170.0</ele><time>2026-04-30T15:14:20.599Z</time></trkpt><trkpt lat="44.7155062" lon="8.013374"><ele>170.0</ele><time>2026-04-30T15:14:21.532Z</time></trkpt><trkpt lat="44.7155647" lon="8.0132874"><ele>170.0</ele><time>2026-04-30T15:14:22.602Z</time></trkpt><trkpt lat="44.7156214" lon="8.0132045"><ele>170.0</ele><time>2026-04-30T15:14:23.638Z</time></trkpt><trkpt lat="44.7156776" lon="8.0131245"><ele>170.0</ele><time>2026-04-30T15:14:24.598Z</time></trkpt><trkpt lat="44.7157314" lon="8.0130425"><ele>170.0</ele><time>2026-04-30T15:14:25.567Z</time></trkpt><trkpt lat="44.7157965" lon="8.0129491"><ele>170.0</ele><time>2026-04-30T15:14:26.615Z</time></trkpt><trkpt lat="44.7158585" lon="8.0128613"><ele>170.0</ele><time>2026-04-30T15:14:27.581Z</time></trkpt><trkpt lat="44.7159298" lon="8.0127587"><ele>170.0</ele><time>2026-04-30T15:14:28.716Z</time></trkpt><trkpt lat="44.7160381" lon="8.0125985"><ele>170.0</ele><time>2026-04-30T15:14:30.492Z</time></trkpt><trkpt lat="44.7161007" lon="8.0125093"><ele>170.0</ele><time>2026-04-30T15:14:31.549Z</time></trkpt><trkpt lat="44.7161683" lon="8.0124086"><ele>170.0</ele><time>2026-04-30T15:14:32.586Z</time></trkpt><trkpt lat="44.7162367" lon="8.012311"><ele>170.0</ele><time>2026-04-30T15:14:33.565Z</time></trkpt><trkpt lat="44.7163064" lon="8.0122102"><ele>170.0</ele><time>2026-04-30T15:14:34.501Z</time></trkpt><trkpt lat="44.7163817" lon="8.012104"><ele>170.0</ele><time>2026-04-30T15:14:35.542Z</time></trkpt><trkpt lat="44.7164575" lon="8.0119937"><ele>170.0</ele><time>2026-04-30T15:14:36.582Z</time></trkpt><trkpt lat="44.7165365" lon="8.0118793"><ele>170.0</ele><time>2026-04-30T15:14:37.624Z</time></trkpt><trkpt lat="44.7166083" lon="8.0117761"><ele>170.0</ele><time>2026-04-30T15:14:38.56Z</time></trkpt><trkpt lat="44.7166792" lon="8.0116759"><ele>170.0</ele><time>2026-04-30T15:14:39.528Z</time></trkpt><trkpt lat="44.7167523" lon="8.0115724"><ele>170.0</ele><time>2026-04-30T15:14:40.517Z</time></trkpt><trkpt lat="44.7168285" lon="8.0114635"><ele>170.0</ele><time>2026-04-30T15:14:41.536Z</time></trkpt><trkpt lat="44.7169064" lon="8.0113476"><ele>170.0</ele><time>2026-04-30T15:14:42.55Z</time></trkpt><trkpt lat="44.7169994" lon="8.0112052"><ele>170.25</ele><time>2026-04-30T15:14:43.551Z</time></trkpt><trkpt lat="44.7171015" lon="8.0110626"><ele>170.5</ele><time>2026-04-30T15:14:44.566Z</time></trkpt><trkpt lat="44.7171884" lon="8.0109524"><ele>170.75</ele><time>2026-04-30T15:14:45.507Z</time></trkpt><trkpt lat="44.7172738" lon="8.010845"><ele>171.0</ele><time>2026-04-30T15:14:46.567Z</time></trkpt><trkpt lat="44.7173449" lon="8.0107561"><ele>171.0</ele><time>2026-04-30T15:14:47.589Z</time></trkpt><trkpt lat="44.717406" lon="8.0106902"><ele>171.0</ele><time>2026-04-30T15:14:48.496Z</time></trkpt><trkpt lat="44.7174747" lon="8.0106327"><ele>171.0</ele><time>2026-04-30T15:14:49.574Z</time></trkpt><trkpt lat="44.7175943" lon="8.0106066"><ele>171.0</ele><time>2026-04-30T15:14:51.507Z</time></trkpt><trkpt lat="44.7176589" lon="8.0106244"><ele>171.0</ele><time>2026-04-30T15:14:52.491Z</time></trkpt><trkpt lat="44.7177252" lon="8.0106274"><ele>171.0</ele><time>2026-04-30T15:14:53.519Z</time></trkpt><trkpt lat="44.7177869" lon="8.0105876"><ele>171.0</ele><time>2026-04-30T15:14:54.692Z</time></trkpt><trkpt lat="44.7178818" lon="8.0104225"><ele>171.0</ele><time>2026-04-30T15:14:56.562Z</time></trkpt><trkpt lat="44.7179376" lon="8.0103418"><ele>171.0</ele><time>2026-04-30T15:14:57.535Z</time></trkpt><trkpt lat="44.7180146" lon="8.0102783"><ele>171.0</ele><time>2026-04-30T15:14:58.54Z</time></trkpt><trkpt lat="44.7181061" lon="8.0102505"><ele>171.0</ele><time>2026-04-30T15:14:59.49Z</time></trkpt><trkpt lat="44.7182308" lon="8.0102249"><ele>171.0</ele><time>2026-04-30T15:15:00.577Z</time></trkpt><trkpt lat="44.7183593" lon="8.010193"><ele>171.0</ele><time>2026-04-30T15:15:01.566Z</time></trkpt><trkpt lat="44.7185256" lon="8.0101574"><ele>171.0</ele><time>2026-04-30T15:15:02.682Z</time></trkpt><trkpt lat="44.7188377" lon="8.0100974"><ele>171.33333333333334</ele><time>2026-04-30T15:15:04.588Z</time></trkpt><trkpt lat="44.7189908" lon="8.0100683"><ele>171.66666666666669</ele><time>2026-04-30T15:15:05.55Z</time></trkpt><trkpt lat="44.7191397" lon="8.0100362"><ele>172.0</ele><time>2026-04-30T15:15:06.543Z</time></trkpt><trkpt lat="44.7192905" lon="8.0100088"><ele>172.0</ele><time>2026-04-30T15:15:07.527Z</time></trkpt><trkpt lat="44.7194461" lon="8.009978"><ele>172.0</ele><time>2026-04-30T15:15:08.592Z</time></trkpt><trkpt lat="44.7195859" lon="8.0099454"><ele>172.0</ele><time>2026-04-30T15:15:09.545Z</time></trkpt><trkpt lat="44.7197184" lon="8.0099214"><ele>172.0</ele><time>2026-04-30T15:15:10.491Z</time></trkpt><trkpt lat="44.7198554" lon="8.009892"><ele>172.0</ele><time>2026-04-30T15:15:11.562Z</time></trkpt><trkpt lat="44.7199873" lon="8.0098643"><ele>172.0</ele><time>2026-04-30T15:15:12.635Z</time></trkpt><trkpt lat="44.7201103" lon="8.0098374"><ele>172.0</ele><time>2026-04-30T15:15:13.665Z</time></trkpt><trkpt lat="44.7203208" lon="8.0097813"><ele>172.25</ele><time>2026-04-30T15:15:15.56Z</time></trkpt><trkpt lat="44.7204474" lon="8.0097527"><ele>172.5</ele><time>2026-04-30T15:15:16.523Z</time></trkpt><trkpt lat="44.7205836" lon="8.0097264"><ele>172.75</ele><time>2026-04-30T15:15:17.557Z</time></trkpt><trkpt lat="44.7207025" lon="8.0097084"><ele>173.0</ele><time>2026-04-30T15:15:18.606Z</time></trkpt><trkpt lat="44.7208033" lon="8.0096911"><ele>173.0</ele><time>2026-04-30T15:15:19.557Z</time></trkpt><trkpt lat="44.7208976" lon="8.0096655"><ele>173.0</ele><time>2026-04-30T15:15:20.519Z</time></trkpt><trkpt lat="44.7209803" lon="8.0096532"><ele>173.0</ele><time>2026-04-30T15:15:21.548Z</time></trkpt><trkpt lat="44.7210641" lon="8.0096621"><ele>173.0</ele><time>2026-04-30T15:15:22.788Z</time></trkpt><trkpt lat="44.7211791" lon="8.0097133"><ele>173.0</ele><time>2026-04-30T15:15:24.555Z</time></trkpt><trkpt lat="44.7212945" lon="8.0097011"><ele>173.4</ele><time>2026-04-30T15:15:26.499Z</time></trkpt><trkpt lat="44.721365" lon="8.0096485"><ele>173.8</ele><time>2026-04-30T15:15:27.553Z</time></trkpt><trkpt lat="44.7214496" lon="8.0095853"><ele>174.2</ele><time>2026-04-30T15:15:28.621Z</time></trkpt><trkpt lat="44.7215367" lon="8.0095376"><ele>174.6</ele><time>2026-04-30T15:15:29.573Z</time></trkpt><trkpt lat="44.7216421" lon="8.0095067"><ele>175.0</ele><time>2026-04-30T15:15:30.559Z</time></trkpt><trkpt lat="44.7217569" lon="8.0094782"><ele>175.0</ele><time>2026-04-30T15:15:31.535Z</time></trkpt><trkpt lat="44.7218913" lon="8.0094522"><ele>175.0</ele><time>2026-04-30T15:15:32.574Z</time></trkpt><trkpt lat="44.7220194" lon="8.0094218"><ele>175.0</ele><time>2026-04-30T15:15:33.567Z</time></trkpt><trkpt lat="44.7221549" lon="8.0093952"><ele>175.0</ele><time>2026-04-30T15:15:34.576Z</time></trkpt><trkpt lat="44.7222952" lon="8.0093636"><ele>175.25</ele><time>2026-04-30T15:15:35.575Z</time></trkpt><trkpt lat="44.7224142" lon="8.0093384"><ele>175.5</ele><time>2026-04-30T15:15:36.543Z</time></trkpt><trkpt lat="44.7225422" lon="8.0093094"><ele>175.75</ele><time>2026-04-30T15:15:37.576Z</time></trkpt><trkpt lat="44.7226699" lon="8.0092796"><ele>176.0</ele><time>2026-04-30T15:15:38.572Z</time></trkpt><trkpt lat="44.7228099" lon="8.0092384"><ele>176.0</ele><time>2026-04-30T15:15:39.551Z</time></trkpt><trkpt lat="44.7229614" lon="8.0092024"><ele>176.0</ele><time>2026-04-30T15:15:40.507Z</time></trkpt><trkpt lat="44.723135" lon="8.0091681"><ele>176.0</ele><time>2026-04-30T15:15:41.565Z</time></trkpt><trkpt lat="44.7233044" lon="8.0091362"><ele>177.25</ele><time>2026-04-30T15:15:42.59Z</time></trkpt><trkpt lat="44.7234513" lon="8.0091046"><ele>178.5</ele><time>2026-04-30T15:15:43.557Z</time></trkpt><trkpt lat="44.7236025" lon="8.0090716"><ele>179.75</ele><time>2026-04-30T15:15:44.598Z</time></trkpt><trkpt lat="44.7237349" lon="8.0090421"><ele>181.0</ele><time>2026-04-30T15:15:45.532Z</time></trkpt><trkpt lat="44.7238725" lon="8.0090126"><ele>181.0</ele><time>2026-04-30T15:15:46.539Z</time></trkpt><trkpt lat="44.7239973" lon="8.0089843"><ele>181.0</ele><time>2026-04-30T15:15:47.541Z</time></trkpt><trkpt lat="44.7241283" lon="8.0089582"><ele>181.0</ele><time>2026-04-30T15:15:48.529Z</time></trkpt><trkpt lat="44.7242825" lon="8.00892"><ele>181.0</ele><time>2026-04-30T15:15:49.547Z</time></trkpt><trkpt lat="44.7244506" lon="8.0088798"><ele>181.0</ele><time>2026-04-30T15:15:50.522Z</time></trkpt><trkpt lat="44.7246549" lon="8.0088385"><ele>181.0</ele><time>2026-04-30T15:15:51.603Z</time></trkpt><trkpt lat="44.7248511" lon="8.0088049"><ele>181.0</ele><time>2026-04-30T15:15:52.578Z</time></trkpt><trkpt lat="44.7250487" lon="8.0087681"><ele>180.66666666666669</ele><time>2026-04-30T15:15:53.568Z</time></trkpt><trkpt lat="44.7252516" lon="8.0087242"><ele>180.33333333333334</ele><time>2026-04-30T15:15:54.581Z</time></trkpt><trkpt lat="44.7254525" lon="8.008683"><ele>180.0</ele><time>2026-04-30T15:15:55.596Z</time></trkpt><trkpt lat="44.7256359" lon="8.0086412"><ele>180.0</ele><time>2026-04-30T15:15:56.541Z</time></trkpt><trkpt lat="44.7258198" lon="8.0085989"><ele>180.0</ele><time>2026-04-30T15:15:57.525Z</time></trkpt><trkpt lat="44.726004" lon="8.0085622"><ele>180.0</ele><time>2026-04-30T15:15:58.529Z</time></trkpt><trkpt lat="44.7261829" lon="8.0085204"><ele>179.33333333333334</ele><time>2026-04-30T15:15:59.542Z</time></trkpt><trkpt lat="44.726357" lon="8.008481"><ele>178.66666666666669</ele><time>2026-04-30T15:16:00.556Z</time></trkpt><trkpt lat="44.7265167" lon="8.0084429"><ele>178.0</ele><time>2026-04-30T15:16:01.504Z</time></trkpt><trkpt lat="44.7267062" lon="8.008402"><ele>178.0</ele><time>2026-04-30T15:16:02.599Z</time></trkpt><trkpt lat="44.7268752" lon="8.0083635"><ele>178.0</ele><time>2026-04-30T15:16:03.581Z</time></trkpt><trkpt lat="44.7270383" lon="8.0083266"><ele>178.0</ele><time>2026-04-30T15:16:04.564Z</time></trkpt><trkpt lat="44.7272111" lon="8.0082888"><ele>178.25</ele><time>2026-04-30T15:16:05.67Z</time></trkpt><trkpt lat="44.7273501" lon="8.0082595"><ele>178.5</ele><time>2026-04-30T15:16:06.593Z</time></trkpt><trkpt lat="44.7274953" lon="8.00823"><ele>178.75</ele><time>2026-04-30T15:16:07.586Z</time></trkpt><trkpt lat="44.7276357" lon="8.0081995"><ele>179.0</ele><time>2026-04-30T15:16:08.554Z</time></trkpt><trkpt lat="44.7277666" lon="8.008169"><ele>179.25</ele><time>2026-04-30T15:16:09.54Z</time></trkpt><trkpt lat="44.7278892" lon="8.00814"><ele>179.5</ele><time>2026-04-30T15:16:10.543Z</time></trkpt><trkpt lat="44.7280077" lon="8.0081134"><ele>179.75</ele><time>2026-04-30T15:16:11.582Z</time></trkpt><trkpt lat="44.7281115" lon="8.0080942"><ele>180.0</ele><time>2026-04-30T15:16:12.532Z</time></trkpt><trkpt lat="44.7282253" lon="8.0080717"><ele>180.0</ele><time>2026-04-30T15:16:13.625Z</time></trkpt><trkpt lat="44.7283188" lon="8.0080512"><ele>180.0</ele><time>2026-04-30T15:16:14.622Z</time></trkpt><trkpt lat="44.728398" lon="8.0080378"><ele>180.0</ele><time>2026-04-30T15:16:15.567Z</time></trkpt><trkpt lat="44.7284659" lon="8.0080242"><ele>180.0</ele><time>2026-04-30T15:16:16.569Z</time></trkpt><trkpt lat="44.7285988" lon="8.0080019"><ele>180.0</ele><time>2026-04-30T15:16:18.85Z</time></trkpt><trkpt lat="44.7286888" lon="8.0080004"><ele>180.2</ele><time>2026-04-30T15:16:20.609Z</time></trkpt><trkpt lat="44.7288048" lon="8.0080463"><ele>180.4</ele><time>2026-04-30T15:16:22.55Z</time></trkpt><trkpt lat="44.7288733" lon="8.0080914"><ele>180.60000000000002</ele><time>2026-04-30T15:16:23.606Z</time></trkpt><trkpt lat="44.728938" lon="8.0081188"><ele>180.8</ele><time>2026-04-30T15:16:24.529Z</time></trkpt><trkpt lat="44.7290702" lon="8.0080716"><ele>181.0</ele><time>2026-04-30T15:16:26.659Z</time></trkpt><trkpt lat="44.7291276" lon="8.0080062"><ele>181.0</ele><time>2026-04-30T15:16:27.579Z</time></trkpt><trkpt lat="44.7291805" lon="8.0079381"><ele>181.0</ele><time>2026-04-30T15:16:28.537Z</time></trkpt><trkpt lat="44.7292487" lon="8.0078861"><ele>181.0</ele><time>2026-04-30T15:16:29.536Z</time></trkpt><trkpt lat="44.7293302" lon="8.0078489"><ele>181.0</ele><time>2026-04-30T15:16:30.524Z</time></trkpt><trkpt lat="44.7294402" lon="8.0078107"><ele>181.0</ele><time>2026-04-30T15:16:31.606Z</time></trkpt><trkpt lat="44.729534" lon="8.0077851"><ele>181.0</ele><time>2026-04-30T15:16:32.522Z</time></trkpt><trkpt lat="44.7296402" lon="8.0077623"><ele>181.0</ele><time>2026-04-30T15:16:33.508Z</time></trkpt><trkpt lat="44.729808" lon="8.0077257"><ele>181.0</ele><time>2026-04-30T15:16:34.665Z</time></trkpt><trkpt lat="44.729961" lon="8.0076816"><ele>181.0</ele><time>2026-04-30T15:16:35.625Z</time></trkpt><trkpt lat="44.7301407" lon="8.0076504"><ele>182.0</ele><time>2026-04-30T15:16:36.59Z</time></trkpt><trkpt lat="44.7303448" lon="8.0076048"><ele>183.0</ele><time>2026-04-30T15:16:37.671Z</time></trkpt><trkpt lat="44.7307404" lon="8.0074079"><ele>183.0</ele><time>2026-04-30T15:16:39.548Z</time></trkpt><trkpt lat="44.7309358" lon="8.0072724"><ele>183.0</ele><time>2026-04-30T15:16:40.468Z</time></trkpt><trkpt lat="44.7311691" lon="8.0070948"><ele>184.5</ele><time>2026-04-30T15:16:41.571Z</time></trkpt><trkpt lat="44.7313728" lon="8.0069412"><ele>186.0</ele><time>2026-04-30T15:16:42.502Z</time></trkpt><trkpt lat="44.7315958" lon="8.0067766"><ele>186.0</ele><time>2026-04-30T15:16:43.512Z</time></trkpt><trkpt lat="44.73183" lon="8.0066021"><ele>186.0</ele><time>2026-04-30T15:16:44.572Z</time></trkpt><trkpt lat="44.732049" lon="8.0064388"><ele>187.0</ele><time>2026-04-30T15:16:45.535Z</time></trkpt><trkpt lat="44.7322786" lon="8.0062667"><ele>188.0</ele><time>2026-04-30T15:16:46.555Z</time></trkpt><trkpt lat="44.7324987" lon="8.0061023"><ele>189.0</ele><time>2026-04-30T15:16:47.532Z</time></trkpt><trkpt lat="44.7327691" lon="8.0058988"><ele>190.0</ele><time>2026-04-30T15:16:48.73Z</time></trkpt><trkpt lat="44.7331675" lon="8.0055909"><ele>190.5</ele><time>2026-04-30T15:16:50.52Z</time></trkpt><trkpt lat="44.7333941" lon="8.0054235"><ele>191.0</ele><time>2026-04-30T15:16:51.492Z</time></trkpt><trkpt lat="44.7336434" lon="8.0052394"><ele>191.5</ele><time>2026-04-30T15:16:52.566Z</time></trkpt><trkpt lat="44.7338837" lon="8.0050618"><ele>192.0</ele><time>2026-04-30T15:16:53.592Z</time></trkpt><trkpt lat="44.7341146" lon="8.0048898"><ele>192.5</ele><time>2026-04-30T15:16:54.58Z</time></trkpt><trkpt lat="44.7343326" lon="8.004725"><ele>193.0</ele><time>2026-04-30T15:16:55.554Z</time></trkpt><trkpt lat="44.7345665" lon="8.0045478"><ele>193.0</ele><time>2026-04-30T15:16:56.614Z</time></trkpt><trkpt lat="44.7347811" lon="8.0043835"><ele>193.0</ele><time>2026-04-30T15:16:57.569Z</time></trkpt><trkpt lat="44.7350157" lon="8.0042063"><ele>193.5</ele><time>2026-04-30T15:16:58.631Z</time></trkpt><trkpt lat="44.7352119" lon="8.0040548"><ele>194.0</ele><time>2026-04-30T15:16:59.542Z</time></trkpt><trkpt lat="44.7354432" lon="8.0038915"><ele>194.0</ele><time>2026-04-30T15:17:00.616Z</time></trkpt><trkpt lat="44.7356481" lon="8.0037447"><ele>194.0</ele><time>2026-04-30T15:17:01.589Z</time></trkpt><trkpt lat="44.7358636" lon="8.0035892"><ele>194.5</ele><time>2026-04-30T15:17:02.598Z</time></trkpt><trkpt lat="44.7360699" lon="8.0034394"><ele>195.0</ele><time>2026-04-30T15:17:03.556Z</time></trkpt><trkpt lat="44.736299" lon="8.0032645"><ele>195.0</ele><time>2026-04-30T15:17:04.604Z</time></trkpt><trkpt lat="44.7364889" lon="8.0030938"><ele>195.0</ele><time>2026-04-30T15:17:05.528Z</time></trkpt><trkpt lat="44.7366832" lon="8.0028656"><ele>195.0</ele><time>2026-04-30T15:17:06.585Z</time></trkpt><trkpt lat="44.7368375" lon="8.0026332"><ele>195.0</ele><time>2026-04-30T15:17:07.559Z</time></trkpt><trkpt lat="44.7369698" lon="8.0023923"><ele>195.0</ele><time>2026-04-30T15:17:08.543Z</time></trkpt><trkpt lat="44.7370922" lon="8.002153"><ele>197.66666666666669</ele><time>2026-04-30T15:17:09.571Z</time></trkpt><trkpt lat="44.7371868" lon="8.0019145"><ele>200.33333333333334</ele><time>2026-04-30T15:17:10.589Z</time></trkpt><trkpt lat="44.7372703" lon="8.0016839"><ele>203.0</ele><time>2026-04-30T15:17:11.579Z</time></trkpt><trkpt lat="44.7373549" lon="8.0014423"><ele>203.0</ele><time>2026-04-30T15:17:12.699Z</time></trkpt><trkpt lat="44.7374986" lon="8.0010382"><ele>203.0</ele><time>2026-04-30T15:17:14.593Z</time></trkpt><trkpt lat="44.7375735" lon="8.0008158"><ele>202.33333333333334</ele><time>2026-04-30T15:17:15.633Z</time></trkpt><trkpt lat="44.7376372" lon="8.000629"><ele>201.66666666666669</ele><time>2026-04-30T15:17:16.54Z</time></trkpt><trkpt lat="44.7377047" lon="8.0004284"><ele>201.0</ele><time>2026-04-30T15:17:17.494Z</time></trkpt><trkpt lat="44.7377887" lon="8.0001844"><ele>206.0</ele><time>2026-04-30T15:17:18.604Z</time></trkpt><trkpt lat="44.7378592" lon="7.9999739"><ele>211.0</ele><time>2026-04-30T15:17:19.574Z</time></trkpt><trkpt lat="44.7379349" lon="7.9997535"><ele>216.0</ele><time>2026-04-30T15:17:20.714Z</time></trkpt><trkpt lat="44.7380803" lon="7.9993954"><ele>216.0</ele><time>2026-04-30T15:17:22.545Z</time></trkpt><trkpt lat="44.7381811" lon="7.9991818"><ele>216.0</ele><time>2026-04-30T15:17:23.582Z</time></trkpt><trkpt lat="44.7382964" lon="7.9989648"><ele>216.0</ele><time>2026-04-30T15:17:24.607Z</time></trkpt><trkpt lat="44.7384001" lon="7.9987804"><ele>216.0</ele><time>2026-04-30T15:17:25.517Z</time></trkpt><trkpt lat="44.7385209" lon="7.9985873"><ele>216.0</ele><time>2026-04-30T15:17:26.565Z</time></trkpt><trkpt lat="44.73863" lon="7.9984132"><ele>216.0</ele><time>2026-04-30T15:17:27.601Z</time></trkpt><trkpt lat="44.7387241" lon="7.9982674"><ele>216.0</ele><time>2026-04-30T15:17:28.53Z</time></trkpt><trkpt lat="44.7388316" lon="7.9981047"><ele>216.0</ele><time>2026-04-30T15:17:29.567Z</time></trkpt><trkpt lat="44.7389373" lon="7.997958"><ele>216.0</ele><time>2026-04-30T15:17:30.583Z</time></trkpt><trkpt lat="44.7390452" lon="7.9978246"><ele>216.0</ele><time>2026-04-30T15:17:31.533Z</time></trkpt><trkpt lat="44.7391577" lon="7.9976829"><ele>216.0</ele><time>2026-04-30T15:17:32.525Z</time></trkpt><trkpt lat="44.7392808" lon="7.997534"><ele>216.0</ele><time>2026-04-30T15:17:33.56Z</time></trkpt><trkpt lat="44.7394013" lon="7.9973968"><ele>213.0</ele><time>2026-04-30T15:17:34.574Z</time></trkpt><trkpt lat="44.7395239" lon="7.9972628"><ele>210.0</ele><time>2026-04-30T15:17:35.6Z</time></trkpt><trkpt lat="44.7396465" lon="7.9971363"><ele>207.0</ele><time>2026-04-30T15:17:36.605Z</time></trkpt><trkpt lat="44.7397704" lon="7.9970126"><ele>207.0</ele><time>2026-04-30T15:17:37.609Z</time></trkpt><trkpt lat="44.7398874" lon="7.996898"><ele>207.0</ele><time>2026-04-30T15:17:38.593Z</time></trkpt><trkpt lat="44.739996" lon="7.9967902"><ele>207.0</ele><time>2026-04-30T15:17:39.565Z</time></trkpt><trkpt lat="44.7401131" lon="7.9966779"><ele>207.0</ele><time>2026-04-30T15:17:40.584Z</time></trkpt><trkpt lat="44.7402317" lon="7.9965644"><ele>208.0</ele><time>2026-04-30T15:17:41.594Z</time></trkpt><trkpt lat="44.7403474" lon="7.9964568"><ele>209.0</ele><time>2026-04-30T15:17:42.537Z</time></trkpt><trkpt lat="44.7404705" lon="7.9963501"><ele>210.0</ele><time>2026-04-30T15:17:43.527Z</time></trkpt><trkpt lat="44.7406134" lon="7.9962449"><ele>211.0</ele><time>2026-04-30T15:17:44.585Z</time></trkpt><trkpt lat="44.7407506" lon="7.9961661"><ele>211.0</ele><time>2026-04-30T15:17:45.547Z</time></trkpt><trkpt lat="44.7409011" lon="7.9960932"><ele>211.0</ele><time>2026-04-30T15:17:46.576Z</time></trkpt><trkpt lat="44.7410754" lon="7.9960247"><ele>211.0</ele><time>2026-04-30T15:17:47.746Z</time></trkpt><trkpt lat="44.741346" lon="7.9959538"><ele>212.0</ele><time>2026-04-30T15:17:49.521Z</time></trkpt><trkpt lat="44.7415004" lon="7.9959372"><ele>213.0</ele><time>2026-04-30T15:17:50.536Z</time></trkpt><trkpt lat="44.7416764" lon="7.9959387"><ele>214.0</ele><time>2026-04-30T15:17:51.661Z</time></trkpt><trkpt lat="44.7418233" lon="7.9959532"><ele>216.0</ele><time>2026-04-30T15:17:52.599Z</time></trkpt><trkpt lat="44.7419607" lon="7.9959811"><ele>218.0</ele><time>2026-04-30T15:17:53.545Z</time></trkpt><trkpt lat="44.7421028" lon="7.9960251"><ele>220.0</ele><time>2026-04-30T15:17:54.518Z</time></trkpt><trkpt lat="44.7422451" lon="7.9960832"><ele>222.0</ele><time>2026-04-30T15:17:55.585Z</time></trkpt><trkpt lat="44.7423685" lon="7.9961483"><ele>222.0</ele><time>2026-04-30T15:17:56.549Z</time></trkpt><trkpt lat="44.7424908" lon="7.9962276"><ele>222.0</ele><time>2026-04-30T15:17:57.576Z</time></trkpt><trkpt lat="44.7425847" lon="7.9962952"><ele>222.0</ele><time>2026-04-30T15:17:58.466Z</time></trkpt><trkpt lat="44.7426905" lon="7.9963839"><ele>222.0</ele><time>2026-04-30T15:17:59.518Z</time></trkpt><trkpt lat="44.7427735" lon="7.9964694"><ele>223.5</ele><time>2026-04-30T15:18:00.529Z</time></trkpt><trkpt lat="44.7428468" lon="7.9965617"><ele>225.0</ele><time>2026-04-30T15:18:01.581Z</time></trkpt><trkpt lat="44.7428937" lon="7.9966481"><ele>226.5</ele><time>2026-04-30T15:18:02.58Z</time></trkpt><trkpt lat="44.7429282" lon="7.9967386"><ele>228.0</ele><time>2026-04-30T15:18:03.588Z</time></trkpt><trkpt lat="44.7429488" lon="7.9968379"><ele>229.5</ele><time>2026-04-30T15:18:04.541Z</time></trkpt><trkpt lat="44.7429664" lon="7.9969279"><ele>231.0</ele><time>2026-04-30T15:18:05.51Z</time></trkpt><trkpt lat="44.7430056" lon="7.9970136"><ele>231.20000000000002</ele><time>2026-04-30T15:18:06.498Z</time></trkpt><trkpt lat="44.7431224" lon="7.9970917"><ele>231.40000000000003</ele><time>2026-04-30T15:18:08.528Z</time></trkpt><trkpt lat="44.7432105" lon="7.9970919"><ele>231.6</ele><time>2026-04-30T15:18:09.699Z</time></trkpt><trkpt lat="44.743338" lon="7.9971316"><ele>231.8</ele><time>2026-04-30T15:18:11.534Z</time></trkpt><trkpt lat="44.7434112" lon="7.9972063"><ele>232.0</ele><time>2026-04-30T15:18:12.52Z</time></trkpt><trkpt lat="44.7434853" lon="7.9973087"><ele>234.2</ele><time>2026-04-30T15:18:13.548Z</time></trkpt><trkpt lat="44.7435593" lon="7.9974263"><ele>236.39999999999998</ele><time>2026-04-30T15:18:14.639Z</time></trkpt><trkpt lat="44.7436196" lon="7.9975342"><ele>238.60000000000002</ele><time>2026-04-30T15:18:15.606Z</time></trkpt><trkpt lat="44.7436871" lon="7.9976506"><ele>240.8</ele><time>2026-04-30T15:18:16.588Z</time></trkpt><trkpt lat="44.7437546" lon="7.9977772"><ele>243.0</ele><time>2026-04-30T15:18:17.535Z</time></trkpt><trkpt lat="44.7438293" lon="7.997933"><ele>243.0</ele><time>2026-04-30T15:18:18.551Z</time></trkpt><trkpt lat="44.743904" lon="7.998086"><ele>243.0</ele><time>2026-04-30T15:18:19.563Z</time></trkpt><trkpt lat="44.7439821" lon="7.9982475"><ele>243.0</ele><time>2026-04-30T15:18:20.621Z</time></trkpt><trkpt lat="44.7441468" lon="7.998549"><ele>243.25</ele><time>2026-04-30T15:18:22.57Z</time></trkpt><trkpt lat="44.7442362" lon="7.9986963"><ele>243.5</ele><time>2026-04-30T15:18:23.512Z</time></trkpt><trkpt lat="44.7443406" lon="7.9988457"><ele>243.75</ele><time>2026-04-30T15:18:24.579Z</time></trkpt><trkpt lat="44.744437" lon="7.9989647"><ele>244.0</ele><time>2026-04-30T15:18:25.498Z</time></trkpt><trkpt lat="44.7445529" lon="7.9990936"><ele>243.33333333333331</ele><time>2026-04-30T15:18:26.534Z</time></trkpt><trkpt lat="44.7446831" lon="7.9992258"><ele>242.66666666666669</ele><time>2026-04-30T15:18:27.539Z</time></trkpt><trkpt lat="44.7448022" lon="7.9993208"><ele>242.0</ele><time>2026-04-30T15:18:28.534Z</time></trkpt><trkpt lat="44.7449437" lon="7.99943"><ele>242.0</ele><time>2026-04-30T15:18:29.537Z</time></trkpt><trkpt lat="44.7450771" lon="7.9995171"><ele>242.0</ele><time>2026-04-30T15:18:30.504Z</time></trkpt><trkpt lat="44.7452271" lon="7.9995952"><ele>242.0</ele><time>2026-04-30T15:18:31.626Z</time></trkpt><trkpt lat="44.7454914" lon="7.9996999"><ele>240.33333333333334</ele><time>2026-04-30T15:18:33.631Z</time></trkpt><trkpt lat="44.7457658" lon="7.9997515"><ele>238.66666666666669</ele><time>2026-04-30T15:18:35.662Z</time></trkpt><trkpt lat="44.7459037" lon="7.9997498"><ele>237.0</ele><time>2026-04-30T15:18:36.567Z</time></trkpt><trkpt lat="44.7460689" lon="7.9997333"><ele>234.0</ele><time>2026-04-30T15:18:37.532Z</time></trkpt><trkpt lat="44.7462612" lon="7.9997114"><ele>231.0</ele><time>2026-04-30T15:18:38.55Z</time></trkpt><trkpt lat="44.7464649" lon="7.999688"><ele>228.0</ele><time>2026-04-30T15:18:39.583Z</time></trkpt><trkpt lat="44.746643" lon="7.9996839"><ele>228.0</ele><time>2026-04-30T15:18:40.52Z</time></trkpt><trkpt lat="44.7468247" lon="7.9996729"><ele>228.0</ele><time>2026-04-30T15:18:41.527Z</time></trkpt><trkpt lat="44.747009" lon="7.9996585"><ele>228.0</ele><time>2026-04-30T15:18:42.577Z</time></trkpt><trkpt lat="44.7471739" lon="7.999648"><ele>226.33333333333331</ele><time>2026-04-30T15:18:43.573Z</time></trkpt><trkpt lat="44.7473262" lon="7.9996424"><ele>224.66666666666666</ele><time>2026-04-30T15:18:44.524Z</time></trkpt><trkpt lat="44.7474761" lon="7.9996401"><ele>223.0</ele><time>2026-04-30T15:18:45.476Z</time></trkpt><trkpt lat="44.7476357" lon="7.9996431"><ele>222.0</ele><time>2026-04-30T15:18:46.506Z</time></trkpt><trkpt lat="44.7478069" lon="7.9996498"><ele>221.0</ele><time>2026-04-30T15:18:47.591Z</time></trkpt><trkpt lat="44.7479604" lon="7.9996586"><ele>220.0</ele><time>2026-04-30T15:18:48.571Z</time></trkpt><trkpt lat="44.7481464" lon="7.9996771"><ele>220.0</ele><time>2026-04-30T15:18:49.615Z</time></trkpt><trkpt lat="44.7483256" lon="7.9997134"><ele>220.0</ele><time>2026-04-30T15:18:50.624Z</time></trkpt><trkpt lat="44.7484914" lon="7.9997612"><ele>220.0</ele><time>2026-04-30T15:18:51.587Z</time></trkpt><trkpt lat="44.7486605" lon="7.9998119"><ele>219.33333333333331</ele><time>2026-04-30T15:18:52.57Z</time></trkpt><trkpt lat="44.7488139" lon="7.9998567"><ele>218.66666666666669</ele><time>2026-04-30T15:18:53.587Z</time></trkpt><trkpt lat="44.7489635" lon="7.9998995"><ele>218.0</ele><time>2026-04-30T15:18:54.612Z</time></trkpt><trkpt lat="44.7491002" lon="7.9999459"><ele>218.0</ele><time>2026-04-30T15:18:55.617Z</time></trkpt><trkpt lat="44.7492316" lon="7.9999932"><ele>218.0</ele><time>2026-04-30T15:18:56.639Z</time></trkpt><trkpt lat="44.7493469" lon="8.0000367"><ele>218.0</ele><time>2026-04-30T15:18:57.587Z</time></trkpt><trkpt lat="44.7494705" lon="8.0000907"><ele>218.0</ele><time>2026-04-30T15:18:58.535Z</time></trkpt><trkpt lat="44.7496151" lon="8.0001496"><ele>218.0</ele><time>2026-04-30T15:18:59.578Z</time></trkpt><trkpt lat="44.7497374" lon="8.0001967"><ele>218.0</ele><time>2026-04-30T15:19:00.488Z</time></trkpt><trkpt lat="44.7498795" lon="8.0002515"><ele>218.0</ele><time>2026-04-30T15:19:01.573Z</time></trkpt><trkpt lat="44.7500107" lon="8.000308"><ele>218.0</ele><time>2026-04-30T15:19:02.552Z</time></trkpt><trkpt lat="44.7501531" lon="8.0003672"><ele>218.33333333333334</ele><time>2026-04-30T15:19:03.547Z</time></trkpt><trkpt lat="44.7503088" lon="8.0004308"><ele>218.66666666666669</ele><time>2026-04-30T15:19:04.619Z</time></trkpt><trkpt lat="44.7504426" lon="8.0004835"><ele>219.0</ele><time>2026-04-30T15:19:05.542Z</time></trkpt><trkpt lat="44.7505888" lon="8.0005429"><ele>219.0</ele><time>2026-04-30T15:19:06.549Z</time></trkpt><trkpt lat="44.7507309" lon="8.0005999"><ele>219.0</ele><time>2026-04-30T15:19:07.554Z</time></trkpt><trkpt lat="44.7508874" lon="8.0006662"><ele>219.0</ele><time>2026-04-30T15:19:08.666Z</time></trkpt><trkpt lat="44.7511851" lon="8.0007885"><ele>218.66666666666669</ele><time>2026-04-30T15:19:10.609Z</time></trkpt><trkpt lat="44.7513556" lon="8.000857"><ele>218.33333333333334</ele><time>2026-04-30T15:19:11.609Z</time></trkpt><trkpt lat="44.7515172" lon="8.0009335"><ele>218.0</ele><time>2026-04-30T15:19:12.613Z</time></trkpt><trkpt lat="44.7516563" lon="8.0009954"><ele>218.0</ele><time>2026-04-30T15:19:13.522Z</time></trkpt><trkpt lat="44.7518357" lon="8.0010718"><ele>218.0</ele><time>2026-04-30T15:19:14.762Z</time></trkpt><trkpt lat="44.752078" lon="8.0011695"><ele>218.0</ele><time>2026-04-30T15:19:16.546Z</time></trkpt><trkpt lat="44.7522149" lon="8.0012269"><ele>217.5</ele><time>2026-04-30T15:19:17.522Z</time></trkpt><trkpt lat="44.7523698" lon="8.0012909"><ele>217.0</ele><time>2026-04-30T15:19:18.63Z</time></trkpt><trkpt lat="44.7525092" lon="8.0013488"><ele>216.5</ele><time>2026-04-30T15:19:19.602Z</time></trkpt><trkpt lat="44.7526396" lon="8.001405"><ele>216.0</ele><time>2026-04-30T15:19:20.532Z</time></trkpt><trkpt lat="44.7527731" lon="8.0014605"><ele>216.0</ele><time>2026-04-30T15:19:21.52Z</time></trkpt><trkpt lat="44.7529158" lon="8.0015186"><ele>216.0</ele><time>2026-04-30T15:19:22.603Z</time></trkpt><trkpt lat="44.753048" lon="8.0015738"><ele>216.0</ele><time>2026-04-30T15:19:23.591Z</time></trkpt><trkpt lat="44.7531747" lon="8.0016259"><ele>216.0</ele><time>2026-04-30T15:19:24.597Z</time></trkpt><trkpt lat="44.7532974" lon="8.0016804"><ele>216.0</ele><time>2026-04-30T15:19:25.584Z</time></trkpt><trkpt lat="44.7534346" lon="8.0017412"><ele>216.0</ele><time>2026-04-30T15:19:26.681Z</time></trkpt><trkpt lat="44.7536599" lon="8.0018492"><ele>216.0</ele><time>2026-04-30T15:19:28.54Z</time></trkpt><trkpt lat="44.7537783" lon="8.0019181"><ele>216.0</ele><time>2026-04-30T15:19:29.563Z</time></trkpt><trkpt lat="44.7538841" lon="8.0019775"><ele>216.00000000000003</ele><time>2026-04-30T15:19:30.569Z</time></trkpt><trkpt lat="44.7539728" lon="8.0020318"><ele>216.00000000000003</ele><time>2026-04-30T15:19:31.541Z</time></trkpt><trkpt lat="44.7540452" lon="8.0020851"><ele>216.0</ele><time>2026-04-30T15:19:32.53Z</time></trkpt><trkpt lat="44.7541154" lon="8.0021393"><ele>216.0</ele><time>2026-04-30T15:19:33.575Z</time></trkpt><trkpt lat="44.7541889" lon="8.0022025"><ele>216.0</ele><time>2026-04-30T15:19:34.78Z</time></trkpt><trkpt lat="44.7542837" lon="8.0022886"><ele>216.00000000000003</ele><time>2026-04-30T15:19:36.527Z</time></trkpt><trkpt lat="44.7543357" lon="8.0023534"><ele>216.00000000000003</ele><time>2026-04-30T15:19:37.646Z</time></trkpt><trkpt lat="44.7544014" lon="8.0024779"><ele>216.0</ele><time>2026-04-30T15:19:39.504Z</time></trkpt><trkpt lat="44.7544275" lon="8.0025598"><ele>216.0</ele><time>2026-04-30T15:19:40.59Z</time></trkpt><trkpt lat="44.754492" lon="8.0027033"><ele>215.83333333333334</ele><time>2026-04-30T15:19:42.492Z</time></trkpt><trkpt lat="44.7545525" lon="8.0027413"><ele>215.66666666666669</ele><time>2026-04-30T15:19:43.49Z</time></trkpt><trkpt lat="44.7546305" lon="8.0027532"><ele>215.5</ele><time>2026-04-30T15:19:44.535Z</time></trkpt><trkpt lat="44.7547049" lon="8.0027753"><ele>215.33333333333334</ele><time>2026-04-30T15:19:45.539Z</time></trkpt><trkpt lat="44.7547779" lon="8.0028232"><ele>215.16666666666669</ele><time>2026-04-30T15:19:46.524Z</time></trkpt><trkpt lat="44.7548477" lon="8.0028973"><ele>215.0</ele><time>2026-04-30T15:19:47.618Z</time></trkpt><trkpt lat="44.7549031" lon="8.0029699"><ele>215.00000000000003</ele><time>2026-04-30T15:19:48.616Z</time></trkpt><trkpt lat="44.7549681" lon="8.0030529"><ele>215.0</ele><time>2026-04-30T15:19:49.568Z</time></trkpt><trkpt lat="44.7550336" lon="8.003142"><ele>215.0</ele><time>2026-04-30T15:19:50.606Z</time></trkpt><trkpt lat="44.7550914" lon="8.0032236"><ele>215.0</ele><time>2026-04-30T15:19:51.545Z</time></trkpt><trkpt lat="44.75515" lon="8.0032986"><ele>215.00000000000003</ele><time>2026-04-30T15:19:52.51Z</time></trkpt><trkpt lat="44.755199" lon="8.0033666"><ele>215.0</ele><time>2026-04-30T15:19:53.535Z</time></trkpt><trkpt lat="44.7552794" lon="8.0034985"><ele>214.2</ele><time>2026-04-30T15:19:55.505Z</time></trkpt><trkpt lat="44.755354" lon="8.0036216"><ele>213.4</ele><time>2026-04-30T15:19:57.675Z</time></trkpt><trkpt lat="44.7554025" lon="8.0036877"><ele>212.60000000000002</ele><time>2026-04-30T15:20:00.566Z</time></trkpt><trkpt lat="44.7554508" lon="8.003761"><ele>211.8</ele><time>2026-04-30T15:20:03.56Z</time></trkpt><trkpt lat="44.7555046" lon="8.0038387"><ele>211.0</ele><time>2026-04-30T15:20:05.561Z</time></trkpt><trkpt lat="44.7556103" lon="8.0039603"><ele>211.0</ele><time>2026-04-30T15:20:07.543Z</time></trkpt><trkpt lat="44.7556723" lon="8.0040465"><ele>211.0</ele><time>2026-04-30T15:20:08.497Z</time></trkpt><trkpt lat="44.7557546" lon="8.0041469"><ele>211.0</ele><time>2026-04-30T15:20:09.548Z</time></trkpt><trkpt lat="44.7558457" lon="8.0042702"><ele>211.0</ele><time>2026-04-30T15:20:10.504Z</time></trkpt><trkpt lat="44.7559617" lon="8.0044311"><ele>211.0</ele><time>2026-04-30T15:20:11.555Z</time></trkpt><trkpt lat="44.7560822" lon="8.0046079"><ele>211.0</ele><time>2026-04-30T15:20:12.536Z</time></trkpt><trkpt lat="44.7562107" lon="8.004802"><ele>211.0</ele><time>2026-04-30T15:20:13.534Z</time></trkpt><trkpt lat="44.7563475" lon="8.0050037"><ele>211.0</ele><time>2026-04-30T15:20:14.528Z</time></trkpt><trkpt lat="44.7564879" lon="8.005207"><ele>211.0</ele><time>2026-04-30T15:20:15.523Z</time></trkpt><trkpt lat="44.7566409" lon="8.0054267"><ele>211.0</ele><time>2026-04-30T15:20:16.594Z</time></trkpt><trkpt lat="44.756784" lon="8.0056335"><ele>211.0</ele><time>2026-04-30T15:20:17.571Z</time></trkpt><trkpt lat="44.756933" lon="8.0058464"><ele>211.0</ele><time>2026-04-30T15:20:18.562Z</time></trkpt><trkpt lat="44.7570855" lon="8.0060647"><ele>211.0</ele><time>2026-04-30T15:20:19.577Z</time></trkpt><trkpt lat="44.7572598" lon="8.0063109"><ele>211.0</ele><time>2026-04-30T15:20:20.705Z</time></trkpt><trkpt lat="44.7575366" lon="8.0067021"><ele>211.0</ele><time>2026-04-30T15:20:22.495Z</time></trkpt><trkpt lat="44.7576916" lon="8.0069253"><ele>211.0</ele><time>2026-04-30T15:20:23.493Z</time></trkpt><trkpt lat="44.757853" lon="8.0071534"><ele>211.0</ele><time>2026-04-30T15:20:24.506Z</time></trkpt><trkpt lat="44.7580193" lon="8.0073886"><ele>210.0</ele><time>2026-04-30T15:20:25.571Z</time></trkpt><trkpt lat="44.7581714" lon="8.0076101"><ele>209.0</ele><time>2026-04-30T15:20:26.564Z</time></trkpt><trkpt lat="44.7583151" lon="8.0078131"><ele>208.0</ele><time>2026-04-30T15:20:27.513Z</time></trkpt><trkpt lat="44.7584701" lon="8.0080304"><ele>208.0</ele><time>2026-04-30T15:20:28.563Z</time></trkpt><trkpt lat="44.75861" lon="8.0082306"><ele>208.0</ele><time>2026-04-30T15:20:29.548Z</time></trkpt><trkpt lat="44.7587443" lon="8.0084202"><ele>208.0</ele><time>2026-04-30T15:20:30.538Z</time></trkpt><trkpt lat="44.758872" lon="8.0085903"><ele>208.0</ele><time>2026-04-30T15:20:31.54Z</time></trkpt><trkpt lat="44.7589917" lon="8.0087395"><ele>208.0</ele><time>2026-04-30T15:20:32.521Z</time></trkpt><trkpt lat="44.759111" lon="8.0088751"><ele>208.0</ele><time>2026-04-30T15:20:33.53Z</time></trkpt><trkpt lat="44.7592379" lon="8.0089985"><ele>208.0</ele><time>2026-04-30T15:20:34.584Z</time></trkpt><trkpt lat="44.7593556" lon="8.0090907"><ele>208.0</ele><time>2026-04-30T15:20:35.561Z</time></trkpt><trkpt lat="44.7594719" lon="8.0091716"><ele>208.0</ele><time>2026-04-30T15:20:36.546Z</time></trkpt><trkpt lat="44.7595819" lon="8.0092431"><ele>208.0</ele><time>2026-04-30T15:20:37.542Z</time></trkpt><trkpt lat="44.7596884" lon="8.0092992"><ele>208.0</ele><time>2026-04-30T15:20:38.54Z</time></trkpt><trkpt lat="44.759783" lon="8.0093391"><ele>208.0</ele><time>2026-04-30T15:20:39.549Z</time></trkpt><trkpt lat="44.7598845" lon="8.0093666"><ele>208.0</ele><time>2026-04-30T15:20:40.626Z</time></trkpt><trkpt lat="44.7599928" lon="8.0094091"><ele>208.0</ele><time>2026-04-30T15:20:41.585Z</time></trkpt><trkpt lat="44.7601262" lon="8.0094548"><ele>207.0</ele><time>2026-04-30T15:20:42.561Z</time></trkpt><trkpt lat="44.7602713" lon="8.0094843"><ele>206.0</ele><time>2026-04-30T15:20:43.537Z</time></trkpt><trkpt lat="44.7604052" lon="8.0094892"><ele>205.0</ele><time>2026-04-30T15:20:44.519Z</time></trkpt><trkpt lat="44.7605292" lon="8.00949"><ele>204.0</ele><time>2026-04-30T15:20:45.527Z</time></trkpt><trkpt lat="44.7606413" lon="8.0094957"><ele>204.0</ele><time>2026-04-30T15:20:46.529Z</time></trkpt><trkpt lat="44.7607408" lon="8.0095175"><ele>204.0</ele><time>2026-04-30T15:20:47.494Z</time></trkpt><trkpt lat="44.7608451" lon="8.0095689"><ele>204.0</ele><time>2026-04-30T15:20:48.677Z</time></trkpt><trkpt lat="44.7609894" lon="8.0096512"><ele>204.0</ele><time>2026-04-30T15:20:50.496Z</time></trkpt><trkpt lat="44.7610647" lon="8.009646"><ele>204.0</ele><time>2026-04-30T15:20:51.515Z</time></trkpt><trkpt lat="44.7611446" lon="8.0096154"><ele>204.14285714285714</ele><time>2026-04-30T15:20:52.539Z</time></trkpt><trkpt lat="44.7612066" lon="8.009579"><ele>204.28571428571428</ele><time>2026-04-30T15:20:53.514Z</time></trkpt><trkpt lat="44.7612729" lon="8.0095474"><ele>204.42857142857144</ele><time>2026-04-30T15:20:54.547Z</time></trkpt><trkpt lat="44.7613406" lon="8.0095198"><ele>204.57142857142856</ele><time>2026-04-30T15:20:55.564Z</time></trkpt><trkpt lat="44.7614126" lon="8.0095034"><ele>204.7142857142857</ele><time>2026-04-30T15:20:56.603Z</time></trkpt><trkpt lat="44.7614766" lon="8.0094949"><ele>204.85714285714286</ele><time>2026-04-30T15:20:57.565Z</time></trkpt><trkpt lat="44.7615522" lon="8.0094903"><ele>205.0</ele><time>2026-04-30T15:20:58.614Z</time></trkpt><trkpt lat="44.7616575" lon="8.0094875"><ele>204.99999999999997</ele><time>2026-04-30T15:21:00.56Z</time></trkpt><trkpt lat="44.7617436" lon="8.0094943"><ele>205.0</ele><time>2026-04-30T15:21:03.543Z</time></trkpt><trkpt lat="44.7618139" lon="8.0094944"><ele>205.0</ele><time>2026-04-30T15:21:05.535Z</time></trkpt><trkpt lat="44.7618905" lon="8.0094931"><ele>205.0</ele><time>2026-04-30T15:21:07.525Z</time></trkpt><trkpt lat="44.7619674" lon="8.0094957"><ele>204.99999999999997</ele><time>2026-04-30T15:21:09.54Z</time></trkpt><trkpt lat="44.7620632" lon="8.0094993"><ele>205.0</ele><time>2026-04-30T15:21:11.614Z</time></trkpt><trkpt lat="44.7622015" lon="8.0095119"><ele>204.75</ele><time>2026-04-30T15:21:13.432Z</time></trkpt><trkpt lat="44.7623093" lon="8.0095152"><ele>204.5</ele><time>2026-04-30T15:21:14.613Z</time></trkpt><trkpt lat="44.7624074" lon="8.009526"><ele>204.25</ele><time>2026-04-30T15:21:15.705Z</time></trkpt><trkpt lat="44.7625823" lon="8.0095347"><ele>204.0</ele><time>2026-04-30T15:21:17.689Z</time></trkpt><trkpt lat="44.7626658" lon="8.0095383"><ele>204.0</ele><time>2026-04-30T15:21:18.649Z</time></trkpt><trkpt lat="44.7627604" lon="8.0095438"><ele>204.0</ele><time>2026-04-30T15:21:19.626Z</time></trkpt><trkpt lat="44.7628734" lon="8.009547"><ele>204.0</ele><time>2026-04-30T15:21:20.651Z</time></trkpt><trkpt lat="44.7629898" lon="8.0095507"><ele>204.0</ele><time>2026-04-30T15:21:21.669Z</time></trkpt><trkpt lat="44.7631197" lon="8.0095477"><ele>204.0</ele><time>2026-04-30T15:21:22.872Z</time></trkpt><trkpt lat="44.7633236" lon="8.0095468"><ele>204.0</ele><time>2026-04-30T15:21:24.614Z</time></trkpt><trkpt lat="44.7634369" lon="8.009546"><ele>204.0</ele><time>2026-04-30T15:21:25.632Z</time></trkpt><trkpt lat="44.7635534" lon="8.0095412"><ele>204.0</ele><time>2026-04-30T15:21:26.623Z</time></trkpt><trkpt lat="44.7636872" lon="8.0095069"><ele>204.0</ele><time>2026-04-30T15:21:27.685Z</time></trkpt><trkpt lat="44.7638234" lon="8.0094378"><ele>204.0</ele><time>2026-04-30T15:21:28.804Z</time></trkpt><trkpt lat="44.7639349" lon="8.0093708"><ele>204.0</ele><time>2026-04-30T15:21:29.744Z</time></trkpt><trkpt lat="44.7641668" lon="8.0092308"><ele>204.5</ele><time>2026-04-30T15:21:31.644Z</time></trkpt><trkpt lat="44.7643041" lon="8.0091431"><ele>205.0</ele><time>2026-04-30T15:21:32.747Z</time></trkpt><trkpt lat="44.7644352" lon="8.0090624"><ele>205.5</ele><time>2026-04-30T15:21:33.802Z</time></trkpt><trkpt lat="44.76458" lon="8.0090019"><ele>206.0</ele><time>2026-04-30T15:21:35.003Z</time></trkpt><trkpt lat="44.7648243" lon="8.0089596"><ele>206.0</ele><time>2026-04-30T15:21:36.795Z</time></trkpt><trkpt lat="44.7649549" lon="8.0089591"><ele>206.0</ele><time>2026-04-30T15:21:37.747Z</time></trkpt><trkpt lat="44.7651953" lon="8.0089867"><ele>206.0</ele><time>2026-04-30T15:21:39.535Z</time></trkpt><trkpt lat="44.7653331" lon="8.0090054"><ele>206.0</ele><time>2026-04-30T15:21:40.589Z</time></trkpt><trkpt lat="44.7654664" lon="8.0090222"><ele>206.0</ele><time>2026-04-30T15:21:41.534Z</time></trkpt><trkpt lat="44.76562" lon="8.0090413"><ele>206.0</ele><time>2026-04-30T15:21:42.614Z</time></trkpt><trkpt lat="44.765933" lon="8.0090872"><ele>205.66666666666669</ele><time>2026-04-30T15:21:44.509Z</time></trkpt><trkpt lat="44.766105" lon="8.0091131"><ele>205.33333333333331</ele><time>2026-04-30T15:21:45.47Z</time></trkpt><trkpt lat="44.7663006" lon="8.0091381"><ele>205.0</ele><time>2026-04-30T15:21:46.548Z</time></trkpt><trkpt lat="44.7664776" lon="8.0091614"><ele>203.66666666666666</ele><time>2026-04-30T15:21:47.513Z</time></trkpt><trkpt lat="44.766653" lon="8.0091862"><ele>202.33333333333331</ele><time>2026-04-30T15:21:48.513Z</time></trkpt><trkpt lat="44.7668482" lon="8.0092144"><ele>201.0</ele><time>2026-04-30T15:21:49.561Z</time></trkpt><trkpt lat="44.7670341" lon="8.0092428"><ele>200.66666666666669</ele><time>2026-04-30T15:21:50.572Z</time></trkpt><trkpt lat="44.7672218" lon="8.00927"><ele>200.33333333333334</ele><time>2026-04-30T15:21:51.585Z</time></trkpt><trkpt lat="44.767405" lon="8.0092966"><ele>200.0</ele><time>2026-04-30T15:21:52.595Z</time></trkpt><trkpt lat="44.7675733" lon="8.0093193"><ele>200.33333333333334</ele><time>2026-04-30T15:21:53.543Z</time></trkpt><trkpt lat="44.767753" lon="8.0093444"><ele>200.66666666666669</ele><time>2026-04-30T15:21:54.579Z</time></trkpt><trkpt lat="44.7679152" lon="8.009365"><ele>201.0</ele><time>2026-04-30T15:21:55.535Z</time></trkpt><trkpt lat="44.768079" lon="8.0093886"><ele>201.0</ele><time>2026-04-30T15:21:56.553Z</time></trkpt><trkpt lat="44.7682279" lon="8.0094107"><ele>201.0</ele><time>2026-04-30T15:21:57.526Z</time></trkpt><trkpt lat="44.7683762" lon="8.009428"><ele>201.0</ele><time>2026-04-30T15:21:58.544Z</time></trkpt><trkpt lat="44.7685195" lon="8.0094399"><ele>201.0</ele><time>2026-04-30T15:21:59.536Z</time></trkpt><trkpt lat="44.7686662" lon="8.0094402"><ele>201.33333333333331</ele><time>2026-04-30T15:22:00.547Z</time></trkpt><trkpt lat="44.7688197" lon="8.0094253"><ele>201.66666666666666</ele><time>2026-04-30T15:22:01.542Z</time></trkpt><trkpt lat="44.7689712" lon="8.0093971"><ele>202.0</ele><time>2026-04-30T15:22:02.564Z</time></trkpt><trkpt lat="44.7691236" lon="8.0093535"><ele>202.0</ele><time>2026-04-30T15:22:03.602Z</time></trkpt><trkpt lat="44.7692745" lon="8.0093089"><ele>202.0</ele><time>2026-04-30T15:22:04.599Z</time></trkpt><trkpt lat="44.7694342" lon="8.0092625"><ele>202.0</ele><time>2026-04-30T15:22:05.548Z</time></trkpt><trkpt lat="44.7696121" lon="8.009206"><ele>207.0</ele><time>2026-04-30T15:22:06.542Z</time></trkpt><trkpt lat="44.7697863" lon="8.0091564"><ele>212.0</ele><time>2026-04-30T15:22:07.497Z</time></trkpt><trkpt lat="44.7699582" lon="8.0091105"><ele>217.0</ele><time>2026-04-30T15:22:08.529Z</time></trkpt><trkpt lat="44.7700996" lon="8.0090706"><ele>216.5</ele><time>2026-04-30T15:22:09.477Z</time></trkpt><trkpt lat="44.7702348" lon="8.0090317"><ele>216.0</ele><time>2026-04-30T15:22:10.537Z</time></trkpt><trkpt lat="44.7703452" lon="8.0089996"><ele>215.5</ele><time>2026-04-30T15:22:11.512Z</time></trkpt><trkpt lat="44.7704461" lon="8.0089718"><ele>215.0</ele><time>2026-04-30T15:22:12.515Z</time></trkpt><trkpt lat="44.7705454" lon="8.0089473"><ele>215.0</ele><time>2026-04-30T15:22:13.54Z</time></trkpt><trkpt lat="44.7706404" lon="8.008918"><ele>215.0</ele><time>2026-04-30T15:22:14.545Z</time></trkpt><trkpt lat="44.7707605" lon="8.0088832"><ele>215.0</ele><time>2026-04-30T15:22:15.709Z</time></trkpt><trkpt lat="44.7709748" lon="8.0088218"><ele>215.0</ele><time>2026-04-30T15:22:17.601Z</time></trkpt><trkpt lat="44.7710908" lon="8.0087885"><ele>211.75</ele><time>2026-04-30T15:22:18.561Z</time></trkpt><trkpt lat="44.7712076" lon="8.0087541"><ele>208.5</ele><time>2026-04-30T15:22:19.56Z</time></trkpt><trkpt lat="44.7713324" lon="8.0087173"><ele>205.25</ele><time>2026-04-30T15:22:20.558Z</time></trkpt><trkpt lat="44.7714721" lon="8.0086768"><ele>202.0</ele><time>2026-04-30T15:22:21.558Z</time></trkpt><trkpt lat="44.7716287" lon="8.0086299"><ele>202.0</ele><time>2026-04-30T15:22:22.573Z</time></trkpt><trkpt lat="44.7717941" lon="8.0085897"><ele>202.0</ele><time>2026-04-30T15:22:23.609Z</time></trkpt><trkpt lat="44.7719411" lon="8.0085511"><ele>202.0</ele><time>2026-04-30T15:22:24.62Z</time></trkpt><trkpt lat="44.7720848" lon="8.0085115"><ele>201.0</ele><time>2026-04-30T15:22:25.611Z</time></trkpt><trkpt lat="44.7722195" lon="8.0084726"><ele>200.0</ele><time>2026-04-30T15:22:26.551Z</time></trkpt><trkpt lat="44.7723534" lon="8.0084342"><ele>199.0</ele><time>2026-04-30T15:22:27.541Z</time></trkpt><trkpt lat="44.7724829" lon="8.0083962"><ele>198.0</ele><time>2026-04-30T15:22:28.516Z</time></trkpt><trkpt lat="44.7726347" lon="8.0083546"><ele>206.33333333333331</ele><time>2026-04-30T15:22:29.595Z</time></trkpt><trkpt lat="44.772782" lon="8.0083098"><ele>214.66666666666666</ele><time>2026-04-30T15:22:30.518Z</time></trkpt><trkpt lat="44.7729669" lon="8.0082562"><ele>223.0</ele><time>2026-04-30T15:22:31.541Z</time></trkpt><trkpt lat="44.7731612" lon="8.0081987"><ele>223.0</ele><time>2026-04-30T15:22:32.544Z</time></trkpt><trkpt lat="44.7733568" lon="8.0081461"><ele>223.0</ele><time>2026-04-30T15:22:33.549Z</time></trkpt><trkpt lat="44.7735412" lon="8.0081068"><ele>223.0</ele><time>2026-04-30T15:22:34.516Z</time></trkpt><trkpt lat="44.7737292" lon="8.0080587"><ele>219.33333333333331</ele><time>2026-04-30T15:22:35.578Z</time></trkpt><trkpt lat="44.7738947" lon="8.008013"><ele>215.66666666666669</ele><time>2026-04-30T15:22:36.53Z</time></trkpt><trkpt lat="44.7740792" lon="8.0079573"><ele>212.0</ele><time>2026-04-30T15:22:37.587Z</time></trkpt><trkpt lat="44.7742542" lon="8.0079051"><ele>209.33333333333334</ele><time>2026-04-30T15:22:38.515Z</time></trkpt><trkpt lat="44.7744474" lon="8.0078473"><ele>206.66666666666669</ele><time>2026-04-30T15:22:39.531Z</time></trkpt><trkpt lat="44.7746703" lon="8.0077878"><ele>204.0</ele><time>2026-04-30T15:22:40.779Z</time></trkpt><trkpt lat="44.7749567" lon="8.0077174"><ele>204.0</ele><time>2026-04-30T15:22:42.526Z</time></trkpt><trkpt lat="44.7751103" lon="8.0076752"><ele>204.0</ele><time>2026-04-30T15:22:43.542Z</time></trkpt><trkpt lat="44.7752395" lon="8.007623"><ele>204.0</ele><time>2026-04-30T15:22:44.501Z</time></trkpt><trkpt lat="44.7753664" lon="8.0075635"><ele>204.0</ele><time>2026-04-30T15:22:45.519Z</time></trkpt><trkpt lat="44.7754868" lon="8.0075148"><ele>204.25</ele><time>2026-04-30T15:22:46.514Z</time></trkpt><trkpt lat="44.7756052" lon="8.007495"><ele>204.5</ele><time>2026-04-30T15:22:47.528Z</time></trkpt><trkpt lat="44.7757246" lon="8.0074901"><ele>204.75</ele><time>2026-04-30T15:22:48.585Z</time></trkpt><trkpt lat="44.7758361" lon="8.0074487"><ele>205.0</ele><time>2026-04-30T15:22:49.619Z</time></trkpt><trkpt lat="44.776048" lon="8.0072855"><ele>203.75</ele><time>2026-04-30T15:22:51.576Z</time></trkpt><trkpt lat="44.776166" lon="8.007228"><ele>202.5</ele><time>2026-04-30T15:22:52.52Z</time></trkpt><trkpt lat="44.7762914" lon="8.0071758"><ele>201.25</ele><time>2026-04-30T15:22:53.534Z</time></trkpt><trkpt lat="44.776416" lon="8.0071209"><ele>200.0</ele><time>2026-04-30T15:22:54.515Z</time></trkpt><trkpt lat="44.7765484" lon="8.0070523"><ele>200.0</ele><time>2026-04-30T15:22:55.572Z</time></trkpt><trkpt lat="44.7766708" lon="8.0069804"><ele>200.0</ele><time>2026-04-30T15:22:56.554Z</time></trkpt><trkpt lat="44.7767903" lon="8.0069031"><ele>200.0</ele><time>2026-04-30T15:22:57.522Z</time></trkpt><trkpt lat="44.7769374" lon="8.0067941"><ele>200.0</ele><time>2026-04-30T15:22:58.639Z</time></trkpt><trkpt lat="44.7772173" lon="8.0065835"><ele>200.33333333333334</ele><time>2026-04-30T15:23:00.581Z</time></trkpt><trkpt lat="44.7773621" lon="8.0064825"><ele>200.66666666666669</ele><time>2026-04-30T15:23:01.547Z</time></trkpt><trkpt lat="44.7775269" lon="8.00637"><ele>201.0</ele><time>2026-04-30T15:23:02.608Z</time></trkpt><trkpt lat="44.7776898" lon="8.0062452"><ele>199.33333333333331</ele><time>2026-04-30T15:23:03.598Z</time></trkpt><trkpt lat="44.7778749" lon="8.0061098"><ele>197.66666666666666</ele><time>2026-04-30T15:23:04.574Z</time></trkpt><trkpt lat="44.7780525" lon="8.0059839"><ele>196.0</ele><time>2026-04-30T15:23:05.535Z</time></trkpt><trkpt lat="44.7782152" lon="8.0058686"><ele>196.33333333333331</ele><time>2026-04-30T15:23:06.498Z</time></trkpt><trkpt lat="44.7784019" lon="8.0057382"><ele>196.66666666666669</ele><time>2026-04-30T15:23:07.606Z</time></trkpt><trkpt lat="44.7785641" lon="8.0056218"><ele>197.0</ele><time>2026-04-30T15:23:08.625Z</time></trkpt><trkpt lat="44.778731" lon="8.0055004"><ele>197.0</ele><time>2026-04-30T15:23:09.55Z</time></trkpt><trkpt lat="44.778926" lon="8.0053556"><ele>197.0</ele><time>2026-04-30T15:23:10.599Z</time></trkpt><trkpt lat="44.7791246" lon="8.0052056"><ele>197.0</ele><time>2026-04-30T15:23:11.612Z</time></trkpt><trkpt lat="44.7793059" lon="8.0050784"><ele>196.33333333333334</ele><time>2026-04-30T15:23:12.528Z</time></trkpt><trkpt lat="44.779509" lon="8.004938"><ele>195.66666666666669</ele><time>2026-04-30T15:23:13.59Z</time></trkpt><trkpt lat="44.779696" lon="8.0048184"><ele>195.0</ele><time>2026-04-30T15:23:14.575Z</time></trkpt><trkpt lat="44.7799151" lon="8.0046668"><ele>195.0</ele><time>2026-04-30T15:23:15.756Z</time></trkpt><trkpt lat="44.7802358" lon="8.004443"><ele>195.0</ele><time>2026-04-30T15:23:17.563Z</time></trkpt><trkpt lat="44.7804138" lon="8.0043198"><ele>195.0</ele><time>2026-04-30T15:23:18.605Z</time></trkpt><trkpt lat="44.7805723" lon="8.0042054"><ele>195.0</ele><time>2026-04-30T15:23:19.575Z</time></trkpt><trkpt lat="44.7807212" lon="8.0041049"><ele>195.0</ele><time>2026-04-30T15:23:20.558Z</time></trkpt><trkpt lat="44.7808596" lon="8.0040099"><ele>194.66666666666669</ele><time>2026-04-30T15:23:21.576Z</time></trkpt><trkpt lat="44.7809971" lon="8.0039137"><ele>194.33333333333334</ele><time>2026-04-30T15:23:22.607Z</time></trkpt><trkpt lat="44.7811288" lon="8.0038189"><ele>194.0</ele><time>2026-04-30T15:23:23.559Z</time></trkpt><trkpt lat="44.7812889" lon="8.0037047"><ele>194.0</ele><time>2026-04-30T15:23:24.585Z</time></trkpt><trkpt lat="44.7814578" lon="8.0035846"><ele>194.0</ele><time>2026-04-30T15:23:25.592Z</time></trkpt><trkpt lat="44.7816169" lon="8.0034767"><ele>194.0</ele><time>2026-04-30T15:23:26.526Z</time></trkpt><trkpt lat="44.7817802" lon="8.0033672"><ele>193.66666666666669</ele><time>2026-04-30T15:23:27.532Z</time></trkpt><trkpt lat="44.7819346" lon="8.0032737"><ele>193.33333333333331</ele><time>2026-04-30T15:23:28.567Z</time></trkpt><trkpt lat="44.7820745" lon="8.0031939"><ele>193.0</ele><time>2026-04-30T15:23:29.542Z</time></trkpt><trkpt lat="44.7822121" lon="8.0031252"><ele>193.0</ele><time>2026-04-30T15:23:30.515Z</time></trkpt><trkpt lat="44.782352" lon="8.0030586"><ele>193.0</ele><time>2026-04-30T15:23:31.524Z</time></trkpt><trkpt lat="44.7824822" lon="8.0029982"><ele>193.0</ele><time>2026-04-30T15:23:32.548Z</time></trkpt><trkpt lat="44.7826075" lon="8.0029397"><ele>193.0</ele><time>2026-04-30T15:23:33.629Z</time></trkpt><trkpt lat="44.7827288" lon="8.0028875"><ele>192.75</ele><time>2026-04-30T15:23:34.768Z</time></trkpt><trkpt lat="44.7828278" lon="8.0028493"><ele>192.5</ele><time>2026-04-30T15:23:35.738Z</time></trkpt><trkpt lat="44.7830008" lon="8.002786"><ele>192.25</ele><time>2026-04-30T15:23:37.527Z</time></trkpt><trkpt lat="44.783089" lon="8.0027614"><ele>192.0</ele><time>2026-04-30T15:23:38.564Z</time></trkpt><trkpt lat="44.7831754" lon="8.0027503"><ele>192.0</ele><time>2026-04-30T15:23:39.566Z</time></trkpt><trkpt lat="44.7832715" lon="8.0027606"><ele>192.0</ele><time>2026-04-30T15:23:40.581Z</time></trkpt><trkpt lat="44.7833743" lon="8.0027769"><ele>192.0</ele><time>2026-04-30T15:23:41.571Z</time></trkpt><trkpt lat="44.7834815" lon="8.0027593"><ele>192.0</ele><time>2026-04-30T15:23:42.525Z</time></trkpt><trkpt lat="44.7835928" lon="8.0027052"><ele>192.0</ele><time>2026-04-30T15:23:43.525Z</time></trkpt><trkpt lat="44.7836959" lon="8.0026441"><ele>191.66666666666666</ele><time>2026-04-30T15:23:44.542Z</time></trkpt><trkpt lat="44.7838179" lon="8.0026022"><ele>191.33333333333331</ele><time>2026-04-30T15:23:45.491Z</time></trkpt><trkpt lat="44.7839717" lon="8.0025676"><ele>191.0</ele><time>2026-04-30T15:23:46.495Z</time></trkpt><trkpt lat="44.7841609" lon="8.0025444"><ele>190.66666666666666</ele><time>2026-04-30T15:23:47.543Z</time></trkpt><trkpt lat="44.7843469" lon="8.0025295"><ele>190.33333333333334</ele><time>2026-04-30T15:23:48.515Z</time></trkpt><trkpt lat="44.7845497" lon="8.0025232"><ele>190.0</ele><time>2026-04-30T15:23:49.518Z</time></trkpt><trkpt lat="44.7847519" lon="8.0025167"><ele>190.0</ele><time>2026-04-30T15:23:50.5Z</time></trkpt><trkpt lat="44.7849653" lon="8.0025227"><ele>190.0</ele><time>2026-04-30T15:23:51.543Z</time></trkpt><trkpt lat="44.7851525" lon="8.0025256"><ele>190.0</ele><time>2026-04-30T15:23:52.52Z</time></trkpt><trkpt lat="44.7853588" lon="8.00252"><ele>190.0</ele><time>2026-04-30T15:23:53.541Z</time></trkpt><trkpt lat="44.7855967" lon="8.0025202"><ele>190.0</ele><time>2026-04-30T15:23:54.632Z</time></trkpt><trkpt lat="44.7860192" lon="8.002549"><ele>189.5</ele><time>2026-04-30T15:23:56.534Z</time></trkpt><trkpt lat="44.78631" lon="8.0025609"><ele>189.0</ele><time>2026-04-30T15:23:57.869Z</time></trkpt><trkpt lat="44.7866906" lon="8.002564"><ele>188.5</ele><time>2026-04-30T15:23:59.691Z</time></trkpt><trkpt lat="44.7870548" lon="8.0025901"><ele>188.0</ele><time>2026-04-30T15:24:01.547Z</time></trkpt><trkpt lat="44.7872601" lon="8.0025994"><ele>188.0</ele><time>2026-04-30T15:24:02.595Z</time></trkpt><trkpt lat="44.7874649" lon="8.002608"><ele>188.0</ele><time>2026-04-30T15:24:03.623Z</time></trkpt><trkpt lat="44.7876462" lon="8.0026171"><ele>188.0</ele><time>2026-04-30T15:24:04.533Z</time></trkpt><trkpt lat="44.7878575" lon="8.0026239"><ele>188.33333333333331</ele><time>2026-04-30T15:24:05.569Z</time></trkpt><trkpt lat="44.7880702" lon="8.0026266"><ele>188.66666666666666</ele><time>2026-04-30T15:24:06.583Z</time></trkpt><trkpt lat="44.7882716" lon="8.0026285"><ele>189.0</ele><time>2026-04-30T15:24:07.532Z</time></trkpt><trkpt lat="44.7884801" lon="8.0026293"><ele>189.0</ele><time>2026-04-30T15:24:08.508Z</time></trkpt><trkpt lat="44.7887066" lon="8.0026317"><ele>189.0</ele><time>2026-04-30T15:24:09.561Z</time></trkpt><trkpt lat="44.788923" lon="8.0026338"><ele>189.0</ele><time>2026-04-30T15:24:10.543Z</time></trkpt><trkpt lat="44.7891433" lon="8.0026363"><ele>189.66666666666666</ele><time>2026-04-30T15:24:11.539Z</time></trkpt><trkpt lat="44.7893741" lon="8.0026389"><ele>190.33333333333331</ele><time>2026-04-30T15:24:12.586Z</time></trkpt><trkpt lat="44.789583" lon="8.0026377"><ele>191.0</ele><time>2026-04-30T15:24:13.531Z</time></trkpt><trkpt lat="44.7897954" lon="8.002637"><ele>191.0</ele><time>2026-04-30T15:24:14.503Z</time></trkpt><trkpt lat="44.7900379" lon="8.0026356"><ele>191.0</ele><time>2026-04-30T15:24:15.585Z</time></trkpt><trkpt lat="44.7902673" lon="8.0026263"><ele>191.5</ele><time>2026-04-30T15:24:16.542Z</time></trkpt><trkpt lat="44.7905109" lon="8.0026213"><ele>192.0</ele><time>2026-04-30T15:24:17.522Z</time></trkpt><trkpt lat="44.7907768" lon="8.0026283"><ele>191.5</ele><time>2026-04-30T15:24:18.551Z</time></trkpt><trkpt lat="44.7910389" lon="8.0026448"><ele>191.0</ele><time>2026-04-30T15:24:19.572Z</time></trkpt><trkpt lat="44.7912816" lon="8.0026641"><ele>191.0</ele><time>2026-04-30T15:24:20.564Z</time></trkpt><trkpt lat="44.7915191" lon="8.0026702"><ele>191.0</ele><time>2026-04-30T15:24:21.57Z</time></trkpt><trkpt lat="44.7917981" lon="8.0026602"><ele>190.5</ele><time>2026-04-30T15:24:22.79Z</time></trkpt><trkpt lat="44.7922018" lon="8.002587"><ele>190.0</ele><time>2026-04-30T15:24:24.596Z</time></trkpt><trkpt lat="44.7924114" lon="8.0025177"><ele>189.0</ele><time>2026-04-30T15:24:25.607Z</time></trkpt><trkpt lat="44.7926183" lon="8.0024248"><ele>188.0</ele><time>2026-04-30T15:24:26.727Z</time></trkpt><trkpt lat="44.792758" lon="8.002353"><ele>187.0</ele><time>2026-04-30T15:24:27.633Z</time></trkpt><trkpt lat="44.792893" lon="8.0022977"><ele>186.75</ele><time>2026-04-30T15:24:28.608Z</time></trkpt><trkpt lat="44.7930264" lon="8.0022741"><ele>186.5</ele><time>2026-04-30T15:24:29.606Z</time></trkpt><trkpt lat="44.7931591" lon="8.0022651"><ele>186.25</ele><time>2026-04-30T15:24:30.613Z</time></trkpt><trkpt lat="44.7932768" lon="8.0022171"><ele>186.0</ele><time>2026-04-30T15:24:31.609Z</time></trkpt><trkpt lat="44.7933699" lon="8.0021055"><ele>186.0</ele><time>2026-04-30T15:24:32.664Z</time></trkpt><trkpt lat="44.7934575" lon="8.001768"><ele>186.0</ele><time>2026-04-30T15:24:34.594Z</time></trkpt><trkpt lat="44.7935398" lon="8.0015811"><ele>186.0</ele><time>2026-04-30T15:24:35.554Z</time></trkpt><trkpt lat="44.7936602" lon="8.0014018"><ele>186.0</ele><time>2026-04-30T15:24:36.526Z</time></trkpt><trkpt lat="44.7937725" lon="8.0012052"><ele>186.0</ele><time>2026-04-30T15:24:37.54Z</time></trkpt><trkpt lat="44.7938882" lon="8.0009811"><ele>186.0</ele><time>2026-04-30T15:24:38.51Z</time></trkpt><trkpt lat="44.7940163" lon="8.0007216"><ele>186.66666666666666</ele><time>2026-04-30T15:24:39.599Z</time></trkpt><trkpt lat="44.7941072" lon="8.0004961"><ele>187.33333333333331</ele><time>2026-04-30T15:24:40.521Z</time></trkpt><trkpt lat="44.7941996" lon="8.0002485"><ele>188.0</ele><time>2026-04-30T15:24:41.55Z</time></trkpt><trkpt lat="44.7942818" lon="8.0000199"><ele>187.75</ele><time>2026-04-30T15:24:42.596Z</time></trkpt><trkpt lat="44.794351" lon="7.9998186"><ele>187.5</ele><time>2026-04-30T15:24:43.6Z</time></trkpt><trkpt lat="44.7944116" lon="7.9996363"><ele>187.25</ele><time>2026-04-30T15:24:44.633Z</time></trkpt><trkpt lat="44.7944563" lon="7.999496"><ele>187.0</ele><time>2026-04-30T15:24:45.54Z</time></trkpt><trkpt lat="44.7945116" lon="7.9993418"><ele>187.0</ele><time>2026-04-30T15:24:46.621Z</time></trkpt><trkpt lat="44.7945591" lon="7.9992138"><ele>187.0</ele><time>2026-04-30T15:24:47.583Z</time></trkpt><trkpt lat="44.7945966" lon="7.9990996"><ele>187.0</ele><time>2026-04-30T15:24:48.535Z</time></trkpt><trkpt lat="44.7946373" lon="7.9989731"><ele>187.0</ele><time>2026-04-30T15:24:49.527Z</time></trkpt><trkpt lat="44.794678" lon="7.9988347"><ele>187.0</ele><time>2026-04-30T15:24:50.575Z</time></trkpt><trkpt lat="44.794712" lon="7.9986956"><ele>188.0</ele><time>2026-04-30T15:24:51.518Z</time></trkpt><trkpt lat="44.7947408" lon="7.9985453"><ele>189.0</ele><time>2026-04-30T15:24:52.525Z</time></trkpt><trkpt lat="44.7947608" lon="7.9983945"><ele>190.0</ele><time>2026-04-30T15:24:53.583Z</time></trkpt><trkpt lat="44.7947728" lon="7.9982407"><ele>191.0</ele><time>2026-04-30T15:24:54.64Z</time></trkpt><trkpt lat="44.7947696" lon="7.9979428"><ele>191.20000000000002</ele><time>2026-04-30T15:24:56.574Z</time></trkpt><trkpt lat="44.794758" lon="7.9977607"><ele>191.4</ele><time>2026-04-30T15:24:57.688Z</time></trkpt><trkpt lat="44.7947436" lon="7.9976113"><ele>191.6</ele><time>2026-04-30T15:24:58.613Z</time></trkpt><trkpt lat="44.7947198" lon="7.9974603"><ele>191.8</ele><time>2026-04-30T15:24:59.649Z</time></trkpt><trkpt lat="44.7946945" lon="7.9973306"><ele>192.0</ele><time>2026-04-30T15:25:00.55Z</time></trkpt><trkpt lat="44.7946656" lon="7.9971984"><ele>192.8</ele><time>2026-04-30T15:25:01.499Z</time></trkpt><trkpt lat="44.7946264" lon="7.997047"><ele>193.6</ele><time>2026-04-30T15:25:02.589Z</time></trkpt><trkpt lat="44.7945846" lon="7.9969161"><ele>194.4</ele><time>2026-04-30T15:25:03.618Z</time></trkpt><trkpt lat="44.7945404" lon="7.9967944"><ele>195.20000000000002</ele><time>2026-04-30T15:25:04.528Z</time></trkpt><trkpt lat="44.7944753" lon="7.9966497"><ele>196.0</ele><time>2026-04-30T15:25:05.622Z</time></trkpt><trkpt lat="44.794416" lon="7.996533"><ele>196.5</ele><time>2026-04-30T15:25:06.559Z</time></trkpt><trkpt lat="44.7943489" lon="7.9964099"><ele>197.0</ele><time>2026-04-30T15:25:07.583Z</time></trkpt><trkpt lat="44.7942878" lon="7.996294"><ele>197.5</ele><time>2026-04-30T15:25:08.55Z</time></trkpt><trkpt lat="44.7942085" lon="7.9961625"><ele>198.0</ele><time>2026-04-30T15:25:09.675Z</time></trkpt><trkpt lat="44.7941094" lon="7.9960125"><ele>195.66666666666666</ele><time>2026-04-30T15:25:10.88Z</time></trkpt><trkpt lat="44.7939577" lon="7.9957705"><ele>193.33333333333331</ele><time>2026-04-30T15:25:12.697Z</time></trkpt><trkpt lat="44.7938838" lon="7.99564"><ele>191.0</ele><time>2026-04-30T15:25:13.699Z</time></trkpt><trkpt lat="44.7938166" lon="7.9955136"><ele>191.0</ele><time>2026-04-30T15:25:14.692Z</time></trkpt><trkpt lat="44.7937579" lon="7.995402"><ele>191.0</ele><time>2026-04-30T15:25:15.597Z</time></trkpt><trkpt lat="44.7936933" lon="7.9952809"><ele>191.0</ele><time>2026-04-30T15:25:16.617Z</time></trkpt><trkpt lat="44.7936353" lon="7.9951633"><ele>191.0</ele><time>2026-04-30T15:25:17.614Z</time></trkpt><trkpt lat="44.7935875" lon="7.9950554"><ele>191.0</ele><time>2026-04-30T15:25:18.536Z</time></trkpt><trkpt lat="44.793539" lon="7.994937"><ele>191.60000000000002</ele><time>2026-04-30T15:25:19.552Z</time></trkpt><trkpt lat="44.793495" lon="7.9948277"><ele>192.2</ele><time>2026-04-30T15:25:20.529Z</time></trkpt><trkpt lat="44.7934513" lon="7.9947103"><ele>192.8</ele><time>2026-04-30T15:25:21.555Z</time></trkpt><trkpt lat="44.7934089" lon="7.9945906"><ele>193.39999999999998</ele><time>2026-04-30T15:25:22.527Z</time></trkpt><trkpt lat="44.7933599" lon="7.9944337"><ele>194.0</ele><time>2026-04-30T15:25:23.78Z</time></trkpt><trkpt lat="44.7932894" lon="7.9941991"><ele>193.0</ele><time>2026-04-30T15:25:25.537Z</time></trkpt><trkpt lat="44.7932449" lon="7.9940419"><ele>192.0</ele><time>2026-04-30T15:25:26.686Z</time></trkpt><trkpt lat="44.793188" lon="7.9937923"><ele>191.0</ele><time>2026-04-30T15:25:28.517Z</time></trkpt><trkpt lat="44.7931635" lon="7.9936713"><ele>190.0</ele><time>2026-04-30T15:25:29.494Z</time></trkpt><trkpt lat="44.7931428" lon="7.9935419"><ele>190.0</ele><time>2026-04-30T15:25:30.516Z</time></trkpt><trkpt lat="44.7931191" lon="7.993406"><ele>190.0</ele><time>2026-04-30T15:25:31.573Z</time></trkpt><trkpt lat="44.7930993" lon="7.9932738"><ele>190.0</ele><time>2026-04-30T15:25:32.581Z</time></trkpt><trkpt lat="44.7930842" lon="7.9931426"><ele>190.0</ele><time>2026-04-30T15:25:33.55Z</time></trkpt><trkpt lat="44.7930699" lon="7.9930052"><ele>190.0</ele><time>2026-04-30T15:25:34.581Z</time></trkpt><trkpt lat="44.7930552" lon="7.9928865"><ele>189.8</ele><time>2026-04-30T15:25:35.506Z</time></trkpt><trkpt lat="44.7930414" lon="7.9927569"><ele>189.6</ele><time>2026-04-30T15:25:36.562Z</time></trkpt><trkpt lat="44.7930286" lon="7.99265"><ele>189.39999999999998</ele><time>2026-04-30T15:25:37.496Z</time></trkpt><trkpt lat="44.793018" lon="7.9925268"><ele>189.2</ele><time>2026-04-30T15:25:38.609Z</time></trkpt><trkpt lat="44.7930165" lon="7.9924214"><ele>189.0</ele><time>2026-04-30T15:25:39.621Z</time></trkpt><trkpt lat="44.7930356" lon="7.9922374"><ele>189.0</ele><time>2026-04-30T15:25:41.523Z</time></trkpt><trkpt lat="44.7930601" lon="7.9921269"><ele>189.0</ele><time>2026-04-30T15:25:42.542Z</time></trkpt><trkpt lat="44.7930783" lon="7.9919687"><ele>189.0</ele><time>2026-04-30T15:25:43.727Z</time></trkpt><trkpt lat="44.7930885" lon="7.9916861"><ele>189.0</ele><time>2026-04-30T15:25:45.578Z</time></trkpt><trkpt lat="44.7931025" lon="7.9915185"><ele>189.66666666666666</ele><time>2026-04-30T15:25:46.561Z</time></trkpt><trkpt lat="44.793131" lon="7.9913288"><ele>190.33333333333331</ele><time>2026-04-30T15:25:47.584Z</time></trkpt><trkpt lat="44.7931723" lon="7.9911045"><ele>191.0</ele><time>2026-04-30T15:25:48.597Z</time></trkpt><trkpt lat="44.7932229" lon="7.9908984"><ele>191.0</ele><time>2026-04-30T15:25:49.501Z</time></trkpt><trkpt lat="44.7933085" lon="7.9906357"><ele>191.0</ele><time>2026-04-30T15:25:50.639Z</time></trkpt><trkpt lat="44.7933917" lon="7.9904136"><ele>191.0</ele><time>2026-04-30T15:25:51.641Z</time></trkpt><trkpt lat="44.7935412" lon="7.9900222"><ele>191.66666666666666</ele><time>2026-04-30T15:25:53.545Z</time></trkpt><trkpt lat="44.7936233" lon="7.9898194"><ele>192.33333333333331</ele><time>2026-04-30T15:25:54.572Z</time></trkpt><trkpt lat="44.7937118" lon="7.989603"><ele>193.0</ele><time>2026-04-30T15:25:55.655Z</time></trkpt><trkpt lat="44.7938668" lon="7.9891987"><ele>193.0</ele><time>2026-04-30T15:25:57.511Z</time></trkpt><trkpt lat="44.7939681" lon="7.9889454"><ele>193.0</ele><time>2026-04-30T15:25:58.533Z</time></trkpt><trkpt lat="44.7940828" lon="7.9886909"><ele>193.0</ele><time>2026-04-30T15:25:59.589Z</time></trkpt><trkpt lat="44.7941815" lon="7.9884818"><ele>192.66666666666666</ele><time>2026-04-30T15:26:00.57Z</time></trkpt><trkpt lat="44.7942729" lon="7.9882765"><ele>192.33333333333331</ele><time>2026-04-30T15:26:01.533Z</time></trkpt><trkpt lat="44.7943633" lon="7.9880626"><ele>192.0</ele><time>2026-04-30T15:26:02.542Z</time></trkpt><trkpt lat="44.7944413" lon="7.987869"><ele>191.66666666666666</ele><time>2026-04-30T15:26:03.511Z</time></trkpt><trkpt lat="44.7945244" lon="7.987669"><ele>191.33333333333331</ele><time>2026-04-30T15:26:04.549Z</time></trkpt><trkpt lat="44.7946033" lon="7.9874811"><ele>191.0</ele><time>2026-04-30T15:26:05.551Z</time></trkpt><trkpt lat="44.7946925" lon="7.9872602"><ele>191.66666666666666</ele><time>2026-04-30T15:26:06.608Z</time></trkpt><trkpt lat="44.7947794" lon="7.9870442"><ele>192.33333333333331</ele><time>2026-04-30T15:26:07.552Z</time></trkpt><trkpt lat="44.7948834" lon="7.9867901"><ele>193.0</ele><time>2026-04-30T15:26:08.603Z</time></trkpt><trkpt lat="44.7949824" lon="7.9865674"><ele>194.0</ele><time>2026-04-30T15:26:09.581Z</time></trkpt><trkpt lat="44.7950755" lon="7.9863554"><ele>195.0</ele><time>2026-04-30T15:26:10.545Z</time></trkpt><trkpt lat="44.7951757" lon="7.9861245"><ele>196.0</ele><time>2026-04-30T15:26:11.604Z</time></trkpt><trkpt lat="44.7952696" lon="7.9859076"><ele>196.33333333333331</ele><time>2026-04-30T15:26:12.576Z</time></trkpt><trkpt lat="44.7953811" lon="7.985677"><ele>196.66666666666669</ele><time>2026-04-30T15:26:13.612Z</time></trkpt><trkpt lat="44.7954897" lon="7.9854728"><ele>197.0</ele><time>2026-04-30T15:26:14.511Z</time></trkpt><trkpt lat="44.7956352" lon="7.985238"><ele>197.0</ele><time>2026-04-30T15:26:15.576Z</time></trkpt><trkpt lat="44.7957839" lon="7.9850322"><ele>197.0</ele><time>2026-04-30T15:26:16.591Z</time></trkpt><trkpt lat="44.7961409" lon="7.9846197"><ele>200.0</ele><time>2026-04-30T15:26:18.703Z</time></trkpt><trkpt lat="44.7964901" lon="7.9842494"><ele>203.0</ele><time>2026-04-30T15:26:20.617Z</time></trkpt><trkpt lat="44.7966646" lon="7.9840654"><ele>205.0</ele><time>2026-04-30T15:26:21.554Z</time></trkpt><trkpt lat="44.7968536" lon="7.9838646"><ele>207.0</ele><time>2026-04-30T15:26:22.528Z</time></trkpt><trkpt lat="44.7970569" lon="7.983649"><ele>207.0</ele><time>2026-04-30T15:26:23.55Z</time></trkpt><trkpt lat="44.7972462" lon="7.9834461"><ele>207.0</ele><time>2026-04-30T15:26:24.515Z</time></trkpt><trkpt lat="44.7974504" lon="7.9832322"><ele>205.0</ele><time>2026-04-30T15:26:25.55Z</time></trkpt><trkpt lat="44.7976295" lon="7.983038"><ele>203.0</ele><time>2026-04-30T15:26:26.503Z</time></trkpt><trkpt lat="44.7978124" lon="7.9828423"><ele>203.0</ele><time>2026-04-30T15:26:27.469Z</time></trkpt><trkpt lat="44.798029" lon="7.9826163"><ele>203.0</ele><time>2026-04-30T15:26:28.624Z</time></trkpt><trkpt lat="44.7982543" lon="7.9823764"><ele>199.5</ele><time>2026-04-30T15:26:29.823Z</time></trkpt><trkpt lat="44.7985862" lon="7.9820193"><ele>196.0</ele><time>2026-04-30T15:26:31.626Z</time></trkpt><trkpt lat="44.7988032" lon="7.9817869"><ele>196.0</ele><time>2026-04-30T15:26:32.806Z</time></trkpt><trkpt lat="44.7989684" lon="7.9816107"><ele>196.0</ele><time>2026-04-30T15:26:33.718Z</time></trkpt><trkpt lat="44.7993176" lon="7.9812267"><ele>197.0</ele><time>2026-04-30T15:26:35.714Z</time></trkpt><trkpt lat="44.7994858" lon="7.9810421"><ele>198.0</ele><time>2026-04-30T15:26:36.75Z</time></trkpt><trkpt lat="44.7997646" lon="7.9807427"><ele>198.5</ele><time>2026-04-30T15:26:38.638Z</time></trkpt><trkpt lat="44.7999216" lon="7.980577"><ele>199.0</ele><time>2026-04-30T15:26:39.812Z</time></trkpt><trkpt lat="44.8001635" lon="7.9803194"><ele>199.0</ele><time>2026-04-30T15:26:41.806Z</time></trkpt><trkpt lat="44.8002718" lon="7.9802118"><ele>199.0</ele><time>2026-04-30T15:26:42.797Z</time></trkpt><trkpt lat="44.8003713" lon="7.9801211"><ele>199.0</ele><time>2026-04-30T15:26:43.818Z</time></trkpt><trkpt lat="44.8004696" lon="7.9800593"><ele>199.0</ele><time>2026-04-30T15:26:44.835Z</time></trkpt><trkpt lat="44.8006478" lon="7.9799237"><ele>199.0</ele><time>2026-04-30T15:26:46.522Z</time></trkpt><trkpt lat="44.8007701" lon="7.9797778"><ele>199.0</ele><time>2026-04-30T15:26:47.592Z</time></trkpt><trkpt lat="44.8008676" lon="7.9796191"><ele>199.0</ele><time>2026-04-30T15:26:48.627Z</time></trkpt><trkpt lat="44.8009726" lon="7.9794899"><ele>199.0</ele><time>2026-04-30T15:26:49.561Z</time></trkpt><trkpt lat="44.8010883" lon="7.9793497"><ele>199.0</ele><time>2026-04-30T15:26:50.567Z</time></trkpt><trkpt lat="44.8012062" lon="7.9792104"><ele>199.0</ele><time>2026-04-30T15:26:51.615Z</time></trkpt><trkpt lat="44.8013094" lon="7.9790929"><ele>199.0</ele><time>2026-04-30T15:26:52.564Z</time></trkpt><trkpt lat="44.8014076" lon="7.9789823"><ele>199.0</ele><time>2026-04-30T15:26:53.515Z</time></trkpt><trkpt lat="44.8015089" lon="7.9788751"><ele>198.75</ele><time>2026-04-30T15:26:54.548Z</time></trkpt><trkpt lat="44.8016117" lon="7.9787685"><ele>198.5</ele><time>2026-04-30T15:26:55.605Z</time></trkpt><trkpt lat="44.8017076" lon="7.9786632"><ele>198.25</ele><time>2026-04-30T15:26:56.556Z</time></trkpt><trkpt lat="44.801809" lon="7.9785534"><ele>198.0</ele><time>2026-04-30T15:26:57.541Z</time></trkpt><trkpt lat="44.8019386" lon="7.9784033"><ele>198.33333333333331</ele><time>2026-04-30T15:26:58.635Z</time></trkpt><trkpt lat="44.8020621" lon="7.9782697"><ele>198.66666666666666</ele><time>2026-04-30T15:26:59.542Z</time></trkpt><trkpt lat="44.8022222" lon="7.9780906"><ele>199.0</ele><time>2026-04-30T15:27:00.588Z</time></trkpt><trkpt lat="44.8023667" lon="7.9779376"><ele>199.0</ele><time>2026-04-30T15:27:01.529Z</time></trkpt><trkpt lat="44.8025264" lon="7.9777733"><ele>199.0</ele><time>2026-04-30T15:27:02.513Z</time></trkpt><trkpt lat="44.8027027" lon="7.9775974"><ele>199.0</ele><time>2026-04-30T15:27:03.531Z</time></trkpt><trkpt lat="44.8029056" lon="7.977393"><ele>200.0</ele><time>2026-04-30T15:27:04.656Z</time></trkpt><trkpt lat="44.803068" lon="7.9772264"><ele>201.0</ele><time>2026-04-30T15:27:05.569Z</time></trkpt><trkpt lat="44.8032393" lon="7.9770442"><ele>202.0</ele><time>2026-04-30T15:27:06.519Z</time></trkpt><trkpt lat="44.8034267" lon="7.9768352"><ele>207.0</ele><time>2026-04-30T15:27:07.542Z</time></trkpt><trkpt lat="44.8036246" lon="7.9766019"><ele>212.0</ele><time>2026-04-30T15:27:08.641Z</time></trkpt><trkpt lat="44.8039615" lon="7.976138"><ele>212.0</ele><time>2026-04-30T15:27:10.644Z</time></trkpt><trkpt lat="44.8041119" lon="7.9759108"><ele>212.0</ele><time>2026-04-30T15:27:11.577Z</time></trkpt><trkpt lat="44.8042678" lon="7.9756566"><ele>211.33333333333334</ele><time>2026-04-30T15:27:12.595Z</time></trkpt><trkpt lat="44.8044104" lon="7.9754055"><ele>210.66666666666669</ele><time>2026-04-30T15:27:13.58Z</time></trkpt><trkpt lat="44.8045379" lon="7.9751585"><ele>210.0</ele><time>2026-04-30T15:27:14.52Z</time></trkpt><trkpt lat="44.8046658" lon="7.9748741"><ele>210.0</ele><time>2026-04-30T15:27:15.54Z</time></trkpt><trkpt lat="44.8047855" lon="7.9745746"><ele>210.0</ele><time>2026-04-30T15:27:16.555Z</time></trkpt><trkpt lat="44.8048921" lon="7.9742626"><ele>209.33333333333331</ele><time>2026-04-30T15:27:17.585Z</time></trkpt><trkpt lat="44.8049777" lon="7.9739726"><ele>208.66666666666666</ele><time>2026-04-30T15:27:18.54Z</time></trkpt><trkpt lat="44.8050561" lon="7.9736772"><ele>208.0</ele><time>2026-04-30T15:27:19.484Z</time></trkpt><trkpt lat="44.8051305" lon="7.9733389"><ele>205.5</ele><time>2026-04-30T15:27:20.535Z</time></trkpt><trkpt lat="44.8051923" lon="7.9730058"><ele>203.0</ele><time>2026-04-30T15:27:21.553Z</time></trkpt><trkpt lat="44.8052501" lon="7.9726339"><ele>207.0</ele><time>2026-04-30T15:27:22.642Z</time></trkpt><trkpt lat="44.8053085" lon="7.9719404"><ele>207.5</ele><time>2026-04-30T15:27:24.574Z</time></trkpt><trkpt lat="44.8053187" lon="7.9715674"><ele>208.0</ele><time>2026-04-30T15:27:25.564Z</time></trkpt><trkpt lat="44.805314" lon="7.9711627"><ele>209.0</ele><time>2026-04-30T15:27:26.621Z</time></trkpt><trkpt lat="44.8052562" lon="7.9704184"><ele>209.5</ele><time>2026-04-30T15:27:28.556Z</time></trkpt><trkpt lat="44.8051929" lon="7.9699846"><ele>210.0</ele><time>2026-04-30T15:27:29.687Z</time></trkpt><trkpt lat="44.8051212" lon="7.9696289"><ele>214.0</ele><time>2026-04-30T15:27:30.621Z</time></trkpt><trkpt lat="44.8049137" lon="7.9688532"><ele>214.0</ele><time>2026-04-30T15:27:32.694Z</time></trkpt><trkpt lat="44.8047835" lon="7.9684764"><ele>214.0</ele><time>2026-04-30T15:27:33.732Z</time></trkpt><trkpt lat="44.8046496" lon="7.9681568"><ele>213.0</ele><time>2026-04-30T15:27:34.649Z</time></trkpt><trkpt lat="44.804486" lon="7.9678151"><ele>212.0</ele><time>2026-04-30T15:27:35.68Z</time></trkpt><trkpt lat="44.8043132" lon="7.9674855"><ele>213.5</ele><time>2026-04-30T15:27:36.706Z</time></trkpt><trkpt lat="44.8041051" lon="7.9671151"><ele>215.0</ele><time>2026-04-30T15:27:37.897Z</time></trkpt><trkpt lat="44.8038063" lon="7.9665731"><ele>215.0</ele><time>2026-04-30T15:27:39.656Z</time></trkpt><trkpt lat="44.8036292" lon="7.9662504"><ele>215.0</ele><time>2026-04-30T15:27:40.705Z</time></trkpt><trkpt lat="44.8034629" lon="7.9659372"><ele>216.0</ele><time>2026-04-30T15:27:41.705Z</time></trkpt><trkpt lat="44.803306" lon="7.9656273"><ele>217.0</ele><time>2026-04-30T15:27:42.687Z</time></trkpt><trkpt lat="44.8031439" lon="7.9652923"><ele>218.5</ele><time>2026-04-30T15:27:43.749Z</time></trkpt><trkpt lat="44.8029943" lon="7.9649554"><ele>220.0</ele><time>2026-04-30T15:27:44.794Z</time></trkpt><trkpt lat="44.8028634" lon="7.9646409"><ele>220.0</ele><time>2026-04-30T15:27:45.756Z</time></trkpt><trkpt lat="44.8027432" lon="7.9643284"><ele>220.0</ele><time>2026-04-30T15:27:46.669Z</time></trkpt><trkpt lat="44.8026152" lon="7.9639561"><ele>224.5</ele><time>2026-04-30T15:27:47.663Z</time></trkpt><trkpt lat="44.8024983" lon="7.963623"><ele>229.0</ele><time>2026-04-30T15:27:48.627Z</time></trkpt><trkpt lat="44.8023869" lon="7.9633009"><ele>229.0</ele><time>2026-04-30T15:27:49.582Z</time></trkpt><trkpt lat="44.802282" lon="7.9629432"><ele>229.0</ele><time>2026-04-30T15:27:50.578Z</time></trkpt><trkpt lat="44.8021985" lon="7.9625444"><ele>226.0</ele><time>2026-04-30T15:27:51.591Z</time></trkpt><trkpt lat="44.8021001" lon="7.9621093"><ele>223.0</ele><time>2026-04-30T15:27:52.728Z</time></trkpt><trkpt lat="44.8020134" lon="7.9617386"><ele>220.5</ele><time>2026-04-30T15:27:53.71Z</time></trkpt><trkpt lat="44.8019218" lon="7.9613734"><ele>218.0</ele><time>2026-04-30T15:27:54.685Z</time></trkpt><trkpt lat="44.8018331" lon="7.9610113"><ele>221.5</ele><time>2026-04-30T15:27:55.647Z</time></trkpt><trkpt lat="44.8017464" lon="7.9606015"><ele>225.0</ele><time>2026-04-30T15:27:56.716Z</time></trkpt><trkpt lat="44.8016686" lon="7.9601947"><ele>223.5</ele><time>2026-04-30T15:27:57.765Z</time></trkpt><trkpt lat="44.8016075" lon="7.9598321"><ele>222.0</ele><time>2026-04-30T15:27:58.697Z</time></trkpt><trkpt lat="44.8015483" lon="7.9594197"><ele>221.0</ele><time>2026-04-30T15:27:59.749Z</time></trkpt><trkpt lat="44.8015085" lon="7.959037"><ele>220.0</ele><time>2026-04-30T15:28:00.711Z</time></trkpt><trkpt lat="44.8014845" lon="7.9586447"><ele>221.5</ele><time>2026-04-30T15:28:01.684Z</time></trkpt><trkpt lat="44.8014749" lon="7.9581686"><ele>223.0</ele><time>2026-04-30T15:28:02.87Z</time></trkpt><trkpt lat="44.8015162" lon="7.9575026"><ele>226.0</ele><time>2026-04-30T15:28:04.523Z</time></trkpt><trkpt lat="44.8015616" lon="7.9571078"><ele>229.0</ele><time>2026-04-30T15:28:05.52Z</time></trkpt><trkpt lat="44.8016204" lon="7.9567277"><ele>233.5</ele><time>2026-04-30T15:28:06.48Z</time></trkpt><trkpt lat="44.8017065" lon="7.9563349"><ele>238.0</ele><time>2026-04-30T15:28:07.525Z</time></trkpt><trkpt lat="44.8018182" lon="7.955944"><ele>234.5</ele><time>2026-04-30T15:28:08.576Z</time></trkpt><trkpt lat="44.8019364" lon="7.9555995"><ele>231.0</ele><time>2026-04-30T15:28:09.518Z</time></trkpt><trkpt lat="44.8020952" lon="7.9552114"><ele>235.0</ele><time>2026-04-30T15:28:10.614Z</time></trkpt><trkpt lat="44.8024559" lon="7.9544413"><ele>244.0</ele><time>2026-04-30T15:28:12.86Z</time></trkpt><trkpt lat="44.8028354" lon="7.9539191"><ele>244.0</ele><time>2026-04-30T15:28:14.582Z</time></trkpt><trkpt lat="44.8030312" lon="7.9536501"><ele>244.0</ele><time>2026-04-30T15:28:15.518Z</time></trkpt><trkpt lat="44.8032523" lon="7.9533572"><ele>250.0</ele><time>2026-04-30T15:28:16.551Z</time></trkpt><trkpt lat="44.8034576" lon="7.9531072"><ele>256.0</ele><time>2026-04-30T15:28:17.469Z</time></trkpt><trkpt lat="44.8036814" lon="7.952845"><ele>261.5</ele><time>2026-04-30T15:28:18.438Z</time></trkpt><trkpt lat="44.803921" lon="7.9525806"><ele>267.0</ele><time>2026-04-30T15:28:19.434Z</time></trkpt><trkpt lat="44.8041933" lon="7.952263"><ele>253.0</ele><time>2026-04-30T15:28:20.549Z</time></trkpt><trkpt lat="44.804837" lon="7.9515525"><ele>253.0</ele><time>2026-04-30T15:28:23.465Z</time></trkpt><trkpt lat="44.8050538" lon="7.9513222"><ele>253.0</ele><time>2026-04-30T15:28:24.493Z</time></trkpt><trkpt lat="44.805321" lon="7.9510373"><ele>253.0</ele><time>2026-04-30T15:28:25.675Z</time></trkpt><trkpt lat="44.8055474" lon="7.9507814"><ele>253.0</ele><time>2026-04-30T15:28:26.682Z</time></trkpt><trkpt lat="44.8057486" lon="7.9505553"><ele>253.0</ele><time>2026-04-30T15:28:27.601Z</time></trkpt><trkpt lat="44.8059787" lon="7.9502994"><ele>253.0</ele><time>2026-04-30T15:28:28.659Z</time></trkpt><trkpt lat="44.8062085" lon="7.9500463"><ele>290.0</ele><time>2026-04-30T15:28:29.708Z</time></trkpt><trkpt lat="44.8066157" lon="7.9495939"><ele>316.0</ele><time>2026-04-30T15:28:31.549Z</time></trkpt><trkpt lat="44.8070408" lon="7.9491349"><ele>303.0</ele><time>2026-04-30T15:28:33.415Z</time></trkpt><trkpt lat="44.8149775" lon="7.9466426"><ele>301.0</ele><time>2026-04-30T15:29:01.237Z</time></trkpt><trkpt lat="44.8152194" lon="7.9467187"><ele>299.0</ele><time>2026-04-30T15:29:02.237Z</time></trkpt><trkpt lat="44.8154209" lon="7.9467634"><ele>299.0</ele><time>2026-04-30T15:29:03.237Z</time></trkpt><trkpt lat="44.815647" lon="7.9468205"><ele>299.0</ele><time>2026-04-30T15:29:04.236Z</time></trkpt><trkpt lat="44.8158976" lon="7.9469052"><ele>298.0</ele><time>2026-04-30T15:29:05.637Z</time></trkpt><trkpt lat="44.8161655" lon="7.9470155"><ele>297.0</ele><time>2026-04-30T15:29:06.732Z</time></trkpt><trkpt lat="44.8164199" lon="7.9471394"><ele>297.0</ele><time>2026-04-30T15:29:07.692Z</time></trkpt><trkpt lat="44.816683" lon="7.9472741"><ele>297.0</ele><time>2026-04-30T15:29:08.722Z</time></trkpt><trkpt lat="44.8169566" lon="7.947417"><ele>298.0</ele><time>2026-04-30T15:29:09.834Z</time></trkpt><trkpt lat="44.8171869" lon="7.9475392"><ele>299.0</ele><time>2026-04-30T15:29:10.75Z</time></trkpt><trkpt lat="44.8175038" lon="7.9477031"><ele>298.0</ele><time>2026-04-30T15:29:11.98Z</time></trkpt><trkpt lat="44.8179013" lon="7.9478943"><ele>297.0</ele><time>2026-04-30T15:29:13.521Z</time></trkpt><trkpt lat="44.8182041" lon="7.9480262"><ele>297.0</ele><time>2026-04-30T15:29:14.688Z</time></trkpt><trkpt lat="44.8186782" lon="7.9481896"><ele>297.0</ele><time>2026-04-30T15:29:16.524Z</time></trkpt><trkpt lat="44.8189534" lon="7.9482594"><ele>297.0</ele><time>2026-04-30T15:29:17.558Z</time></trkpt><trkpt lat="44.8192273" lon="7.9482985"><ele>296.0</ele><time>2026-04-30T15:29:18.547Z</time></trkpt><trkpt lat="44.8195118" lon="7.9483055"><ele>295.0</ele><time>2026-04-30T15:29:19.59Z</time></trkpt><trkpt lat="44.8197673" lon="7.9482835"><ele>295.0</ele><time>2026-04-30T15:29:20.564Z</time></trkpt><trkpt lat="44.8200034" lon="7.9482468"><ele>295.0</ele><time>2026-04-30T15:29:21.513Z</time></trkpt><trkpt lat="44.8202643" lon="7.9481842"><ele>297.0</ele><time>2026-04-30T15:29:22.66Z</time></trkpt><trkpt lat="44.8206254" lon="7.948056"><ele>299.0</ele><time>2026-04-30T15:29:24.506Z</time></trkpt><trkpt lat="44.8207939" lon="7.9479885"><ele>299.0</ele><time>2026-04-30T15:29:25.608Z</time></trkpt><trkpt lat="44.8209085" lon="7.9479449"><ele>299.0</ele><time>2026-04-30T15:29:26.551Z</time></trkpt><trkpt lat="44.8210241" lon="7.947928"><ele>299.0</ele><time>2026-04-30T15:29:27.619Z</time></trkpt><trkpt lat="44.8212193" lon="7.9480057"><ele>299.0</ele><time>2026-04-30T15:29:29.556Z</time></trkpt><trkpt lat="44.8213158" lon="7.9480204"><ele>298.4</ele><time>2026-04-30T15:29:30.54Z</time></trkpt><trkpt lat="44.8214057" lon="7.9480029"><ele>297.79999999999995</ele><time>2026-04-30T15:29:31.546Z</time></trkpt><trkpt lat="44.8214884" lon="7.9479323"><ele>297.20000000000005</ele><time>2026-04-30T15:29:32.609Z</time></trkpt><trkpt lat="44.8215311" lon="7.9478199"><ele>296.6</ele><time>2026-04-30T15:29:33.519Z</time></trkpt><trkpt lat="44.8215687" lon="7.9476489"><ele>296.0</ele><time>2026-04-30T15:29:34.593Z</time></trkpt><trkpt lat="44.8216171" lon="7.9474972"><ele>295.6666666666667</ele><time>2026-04-30T15:29:35.559Z</time></trkpt><trkpt lat="44.8216985" lon="7.947349"><ele>295.3333333333333</ele><time>2026-04-30T15:29:36.508Z</time></trkpt><trkpt lat="44.8218434" lon="7.9471698"><ele>295.0</ele><time>2026-04-30T15:29:37.669Z</time></trkpt><trkpt lat="44.8219782" lon="7.9470073"><ele>295.3333333333333</ele><time>2026-04-30T15:29:38.587Z</time></trkpt><trkpt lat="44.8221198" lon="7.9468296"><ele>295.6666666666667</ele><time>2026-04-30T15:29:39.552Z</time></trkpt><trkpt lat="44.8222696" lon="7.9466271"><ele>296.0</ele><time>2026-04-30T15:29:40.543Z</time></trkpt><trkpt lat="44.8224215" lon="7.9464008"><ele>296.0</ele><time>2026-04-30T15:29:41.506Z</time></trkpt><trkpt lat="44.8225889" lon="7.9461335"><ele>296.0</ele><time>2026-04-30T15:29:42.583Z</time></trkpt><trkpt lat="44.8227529" lon="7.9458482"><ele>296.33333333333337</ele><time>2026-04-30T15:29:43.67Z</time></trkpt><trkpt lat="44.8228888" lon="7.945598"><ele>296.6666666666667</ele><time>2026-04-30T15:29:44.596Z</time></trkpt><trkpt lat="44.823019" lon="7.945346"><ele>297.0</ele><time>2026-04-30T15:29:45.563Z</time></trkpt><trkpt lat="44.8231596" lon="7.9450813"><ele>296.6666666666667</ele><time>2026-04-30T15:29:46.629Z</time></trkpt><trkpt lat="44.8232744" lon="7.9448646"><ele>296.33333333333337</ele><time>2026-04-30T15:29:47.568Z</time></trkpt><trkpt lat="44.8233916" lon="7.9446455"><ele>296.0</ele><time>2026-04-30T15:29:48.573Z</time></trkpt><trkpt lat="44.8235023" lon="7.9444337"><ele>296.0</ele><time>2026-04-30T15:29:49.631Z</time></trkpt><trkpt lat="44.8235943" lon="7.9442456"><ele>296.0</ele><time>2026-04-30T15:29:50.584Z</time></trkpt><trkpt lat="44.8236808" lon="7.9440648"><ele>296.0</ele><time>2026-04-30T15:29:51.565Z</time></trkpt><trkpt lat="44.8237652" lon="7.943889"><ele>296.25</ele><time>2026-04-30T15:29:52.596Z</time></trkpt><trkpt lat="44.8238436" lon="7.9437547"><ele>296.5</ele><time>2026-04-30T15:29:53.54Z</time></trkpt><trkpt lat="44.8239372" lon="7.9436584"><ele>296.75</ele><time>2026-04-30T15:29:54.515Z</time></trkpt><trkpt lat="44.8240429" lon="7.9435648"><ele>297.0</ele><time>2026-04-30T15:29:55.532Z</time></trkpt><trkpt lat="44.8241169" lon="7.94343"><ele>296.0</ele><time>2026-04-30T15:29:56.505Z</time></trkpt><trkpt lat="44.8241436" lon="7.9432456"><ele>295.0</ele><time>2026-04-30T15:29:57.53Z</time></trkpt><trkpt lat="44.8241751" lon="7.9430297"><ele>294.0</ele><time>2026-04-30T15:29:58.534Z</time></trkpt><trkpt lat="44.8242294" lon="7.9428159"><ele>294.0</ele><time>2026-04-30T15:29:59.519Z</time></trkpt><trkpt lat="44.8243084" lon="7.9425802"><ele>294.0</ele><time>2026-04-30T15:30:00.569Z</time></trkpt><trkpt lat="44.8243891" lon="7.942362"><ele>294.0</ele><time>2026-04-30T15:30:01.537Z</time></trkpt><trkpt lat="44.824478" lon="7.9421423"><ele>293.6666666666667</ele><time>2026-04-30T15:30:02.547Z</time></trkpt><trkpt lat="44.8245577" lon="7.9419406"><ele>293.33333333333337</ele><time>2026-04-30T15:30:03.543Z</time></trkpt><trkpt lat="44.824636" lon="7.9417478"><ele>293.0</ele><time>2026-04-30T15:30:04.523Z</time></trkpt><trkpt lat="44.8247211" lon="7.941535"><ele>292.6666666666667</ele><time>2026-04-30T15:30:05.547Z</time></trkpt><trkpt lat="44.8247944" lon="7.9413501"><ele>292.3333333333333</ele><time>2026-04-30T15:30:06.481Z</time></trkpt><trkpt lat="44.8248736" lon="7.9411524"><ele>292.0</ele><time>2026-04-30T15:30:07.551Z</time></trkpt><trkpt lat="44.8249439" lon="7.9409774"><ele>292.2</ele><time>2026-04-30T15:30:08.716Z</time></trkpt><trkpt lat="44.8250161" lon="7.9407914"><ele>292.4</ele><time>2026-04-30T15:30:10.58Z</time></trkpt><trkpt lat="44.8250451" lon="7.9407091"><ele>292.6</ele><time>2026-04-30T15:30:11.566Z</time></trkpt><trkpt lat="44.8250777" lon="7.940619"><ele>292.8</ele><time>2026-04-30T15:30:12.583Z</time></trkpt><trkpt lat="44.8251361" lon="7.9404755"><ele>293.0</ele><time>2026-04-30T15:30:13.726Z</time></trkpt><trkpt lat="44.825283" lon="7.9401419"><ele>292.6666666666667</ele><time>2026-04-30T15:30:15.584Z</time></trkpt><trkpt lat="44.8253818" lon="7.9399042"><ele>292.3333333333333</ele><time>2026-04-30T15:30:16.585Z</time></trkpt><trkpt lat="44.8254864" lon="7.939651"><ele>292.0</ele><time>2026-04-30T15:30:17.527Z</time></trkpt><trkpt lat="44.8256212" lon="7.9393279"><ele>292.0</ele><time>2026-04-30T15:30:18.6Z</time></trkpt><trkpt lat="44.8257399" lon="7.9390271"><ele>292.0</ele><time>2026-04-30T15:30:19.532Z</time></trkpt><trkpt lat="44.8259059" lon="7.9386136"><ele>292.0</ele><time>2026-04-30T15:30:20.74Z</time></trkpt><trkpt lat="44.8261647" lon="7.9379588"><ele>292.0</ele><time>2026-04-30T15:30:22.584Z</time></trkpt><trkpt lat="44.8262982" lon="7.9376205"><ele>292.0</ele><time>2026-04-30T15:30:23.54Z</time></trkpt><trkpt lat="44.8264418" lon="7.9372538"><ele>288.0</ele><time>2026-04-30T15:30:24.588Z</time></trkpt><trkpt lat="44.8267028" lon="7.9366013"><ele>289.5</ele><time>2026-04-30T15:30:26.484Z</time></trkpt><trkpt lat="44.8268468" lon="7.9362422"><ele>291.0</ele><time>2026-04-30T15:30:27.541Z</time></trkpt><trkpt lat="44.8269923" lon="7.9358771"><ele>291.5</ele><time>2026-04-30T15:30:28.615Z</time></trkpt><trkpt lat="44.8271197" lon="7.9355669"><ele>292.0</ele><time>2026-04-30T15:30:29.528Z</time></trkpt><trkpt lat="44.8272618" lon="7.9352158"><ele>291.0</ele><time>2026-04-30T15:30:30.569Z</time></trkpt><trkpt lat="44.8273949" lon="7.9348833"><ele>290.0</ele><time>2026-04-30T15:30:31.558Z</time></trkpt><trkpt lat="44.8275291" lon="7.9345491"><ele>290.0</ele><time>2026-04-30T15:30:32.559Z</time></trkpt><trkpt lat="44.8276625" lon="7.9342112"><ele>290.0</ele><time>2026-04-30T15:30:33.564Z</time></trkpt><trkpt lat="44.8277944" lon="7.9338813"><ele>290.0</ele><time>2026-04-30T15:30:34.542Z</time></trkpt><trkpt lat="44.8279372" lon="7.9335282"><ele>290.0</ele><time>2026-04-30T15:30:35.58Z</time></trkpt><trkpt lat="44.8280703" lon="7.9332043"><ele>290.0</ele><time>2026-04-30T15:30:36.533Z</time></trkpt><trkpt lat="44.8282143" lon="7.9328523"><ele>290.0</ele><time>2026-04-30T15:30:37.547Z</time></trkpt><trkpt lat="44.8283535" lon="7.9325052"><ele>290.5</ele><time>2026-04-30T15:30:38.546Z</time></trkpt><trkpt lat="44.8284998" lon="7.9321484"><ele>291.0</ele><time>2026-04-30T15:30:39.581Z</time></trkpt><trkpt lat="44.8286269" lon="7.9318321"><ele>291.0</ele><time>2026-04-30T15:30:40.498Z</time></trkpt><trkpt lat="44.8287776" lon="7.931448"><ele>291.0</ele><time>2026-04-30T15:30:41.619Z</time></trkpt><trkpt lat="44.8289043" lon="7.9311179"><ele>290.5</ele><time>2026-04-30T15:30:42.578Z</time></trkpt><trkpt lat="44.8290458" lon="7.9307755"><ele>290.0</ele><time>2026-04-30T15:30:43.582Z</time></trkpt><trkpt lat="44.8291874" lon="7.9304587"><ele>290.0</ele><time>2026-04-30T15:30:44.535Z</time></trkpt><trkpt lat="44.8293398" lon="7.9301327"><ele>290.0</ele><time>2026-04-30T15:30:45.508Z</time></trkpt><trkpt lat="44.8295131" lon="7.9297796"><ele>290.0</ele><time>2026-04-30T15:30:46.578Z</time></trkpt><trkpt lat="44.8296696" lon="7.9294543"><ele>290.0</ele><time>2026-04-30T15:30:47.56Z</time></trkpt><trkpt lat="44.8298382" lon="7.9291066"><ele>290.5</ele><time>2026-04-30T15:30:48.594Z</time></trkpt><trkpt lat="44.829991" lon="7.9287925"><ele>291.0</ele><time>2026-04-30T15:30:49.527Z</time></trkpt><trkpt lat="44.8301617" lon="7.9284468"><ele>289.5</ele><time>2026-04-30T15:30:50.553Z</time></trkpt><trkpt lat="44.8303222" lon="7.9281167"><ele>288.0</ele><time>2026-04-30T15:30:51.54Z</time></trkpt><trkpt lat="44.8304853" lon="7.9277841"><ele>288.0</ele><time>2026-04-30T15:30:52.544Z</time></trkpt><trkpt lat="44.8306397" lon="7.9274712"><ele>288.0</ele><time>2026-04-30T15:30:53.513Z</time></trkpt><trkpt lat="44.8308018" lon="7.9271443"><ele>288.0</ele><time>2026-04-30T15:30:54.587Z</time></trkpt><trkpt lat="44.8309619" lon="7.9268688"><ele>288.0</ele><time>2026-04-30T15:30:55.527Z</time></trkpt><trkpt lat="44.8311595" lon="7.9265841"><ele>287.5</ele><time>2026-04-30T15:30:56.559Z</time></trkpt><trkpt lat="44.8313648" lon="7.9263521"><ele>287.0</ele><time>2026-04-30T15:30:57.51Z</time></trkpt><trkpt lat="44.8316121" lon="7.9261469"><ele>287.5</ele><time>2026-04-30T15:30:58.551Z</time></trkpt><trkpt lat="44.8318581" lon="7.9259616"><ele>288.0</ele><time>2026-04-30T15:30:59.519Z</time></trkpt><trkpt lat="44.8321368" lon="7.9257516"><ele>288.0</ele><time>2026-04-30T15:31:00.585Z</time></trkpt><trkpt lat="44.8323805" lon="7.9255675"><ele>288.0</ele><time>2026-04-30T15:31:01.511Z</time></trkpt><trkpt lat="44.8326547" lon="7.9253563"><ele>287.0</ele><time>2026-04-30T15:31:02.575Z</time></trkpt><trkpt lat="44.8328994" lon="7.9251634"><ele>286.0</ele><time>2026-04-30T15:31:03.522Z</time></trkpt><trkpt lat="44.8331678" lon="7.9249576"><ele>286.0</ele><time>2026-04-30T15:31:04.539Z</time></trkpt><trkpt lat="44.8334243" lon="7.9247605"><ele>286.0</ele><time>2026-04-30T15:31:05.529Z</time></trkpt><trkpt lat="44.8336934" lon="7.9245554"><ele>285.5</ele><time>2026-04-30T15:31:06.584Z</time></trkpt><trkpt lat="44.8339399" lon="7.9243653"><ele>285.0</ele><time>2026-04-30T15:31:07.564Z</time></trkpt><trkpt lat="44.8341723" lon="7.9241783"><ele>285.5</ele><time>2026-04-30T15:31:08.54Z</time></trkpt><trkpt lat="44.8344028" lon="7.9239988"><ele>286.0</ele><time>2026-04-30T15:31:09.513Z</time></trkpt><trkpt lat="44.8346439" lon="7.9238107"><ele>286.0</ele><time>2026-04-30T15:31:10.544Z</time></trkpt><trkpt lat="44.8348858" lon="7.923627"><ele>286.0</ele><time>2026-04-30T15:31:11.605Z</time></trkpt><trkpt lat="44.8352754" lon="7.9232769"><ele>285.0</ele><time>2026-04-30T15:31:13.51Z</time></trkpt><trkpt lat="44.835479" lon="7.9230238"><ele>284.0</ele><time>2026-04-30T15:31:14.621Z</time></trkpt><trkpt lat="44.835635" lon="7.9227725"><ele>283.5</ele><time>2026-04-30T15:31:15.567Z</time></trkpt><trkpt lat="44.8357765" lon="7.9224982"><ele>283.0</ele><time>2026-04-30T15:31:16.506Z</time></trkpt><trkpt lat="44.8359252" lon="7.9221507"><ele>285.0</ele><time>2026-04-30T15:31:17.592Z</time></trkpt><trkpt lat="44.836031" lon="7.921816"><ele>287.0</ele><time>2026-04-30T15:31:18.596Z</time></trkpt><trkpt lat="44.8361025" lon="7.9214667"><ele>287.0</ele><time>2026-04-30T15:31:19.573Z</time></trkpt><trkpt lat="44.8361522" lon="7.9210775"><ele>287.0</ele><time>2026-04-30T15:31:20.611Z</time></trkpt><trkpt lat="44.8361796" lon="7.9207165"><ele>287.0</ele><time>2026-04-30T15:31:21.544Z</time></trkpt><trkpt lat="44.8362019" lon="7.9203339"><ele>287.0</ele><time>2026-04-30T15:31:22.515Z</time></trkpt><trkpt lat="44.8362266" lon="7.9199111"><ele>287.0</ele><time>2026-04-30T15:31:23.601Z</time></trkpt><trkpt lat="44.8362493" lon="7.9195363"><ele>287.0</ele><time>2026-04-30T15:31:24.565Z</time></trkpt><trkpt lat="44.8362761" lon="7.9191619"><ele>287.0</ele><time>2026-04-30T15:31:25.549Z</time></trkpt><trkpt lat="44.8363044" lon="7.9188032"><ele>287.0</ele><time>2026-04-30T15:31:26.462Z</time></trkpt><trkpt lat="44.8363311" lon="7.918405"><ele>286.0</ele><time>2026-04-30T15:31:27.525Z</time></trkpt><trkpt lat="44.8363528" lon="7.9180423"><ele>285.0</ele><time>2026-04-30T15:31:28.576Z</time></trkpt><trkpt lat="44.8363776" lon="7.9177086"><ele>284.3333333333333</ele><time>2026-04-30T15:31:29.609Z</time></trkpt><trkpt lat="44.8364174" lon="7.9174092"><ele>283.66666666666663</ele><time>2026-04-30T15:31:30.585Z</time></trkpt><trkpt lat="44.83649" lon="7.9171362"><ele>283.0</ele><time>2026-04-30T15:31:31.532Z</time></trkpt><trkpt lat="44.8365977" lon="7.9168527"><ele>284.0</ele><time>2026-04-30T15:31:32.523Z</time></trkpt><trkpt lat="44.8367358" lon="7.9165767"><ele>285.0</ele><time>2026-04-30T15:31:33.53Z</time></trkpt><trkpt lat="44.8369104" lon="7.9162993"><ele>285.0</ele><time>2026-04-30T15:31:34.574Z</time></trkpt><trkpt lat="44.8370935" lon="7.9160556"><ele>285.0</ele><time>2026-04-30T15:31:35.538Z</time></trkpt><trkpt lat="44.8373055" lon="7.9158148"><ele>285.0</ele><time>2026-04-30T15:31:36.549Z</time></trkpt><trkpt lat="44.8375324" lon="7.9156023"><ele>285.0</ele><time>2026-04-30T15:31:37.542Z</time></trkpt><trkpt lat="44.8377681" lon="7.9154001"><ele>285.0</ele><time>2026-04-30T15:31:38.51Z</time></trkpt><trkpt lat="44.8380142" lon="7.9151763"><ele>285.0</ele><time>2026-04-30T15:31:39.515Z</time></trkpt><trkpt lat="44.8382869" lon="7.9149341"><ele>283.0</ele><time>2026-04-30T15:31:40.607Z</time></trkpt><trkpt lat="44.8385251" lon="7.9147194"><ele>281.0</ele><time>2026-04-30T15:31:41.559Z</time></trkpt><trkpt lat="44.8387864" lon="7.914487"><ele>281.0</ele><time>2026-04-30T15:31:42.599Z</time></trkpt><trkpt lat="44.8390276" lon="7.9142804"><ele>281.0</ele><time>2026-04-30T15:31:43.546Z</time></trkpt><trkpt lat="44.8393106" lon="7.9140325"><ele>275.0</ele><time>2026-04-30T15:31:44.663Z</time></trkpt><trkpt lat="44.8398004" lon="7.9136003"><ele>274.0</ele><time>2026-04-30T15:31:46.582Z</time></trkpt><trkpt lat="44.8400647" lon="7.9133705"><ele>273.0</ele><time>2026-04-30T15:31:47.608Z</time></trkpt><trkpt lat="44.8402993" lon="7.9131629"><ele>273.0</ele><time>2026-04-30T15:31:48.532Z</time></trkpt><trkpt lat="44.8405483" lon="7.9129458"><ele>273.0</ele><time>2026-04-30T15:31:49.508Z</time></trkpt><trkpt lat="44.8408145" lon="7.9127069"><ele>273.0</ele><time>2026-04-30T15:31:50.558Z</time></trkpt><trkpt lat="44.8410745" lon="7.9124796"><ele>273.0</ele><time>2026-04-30T15:31:51.575Z</time></trkpt><trkpt lat="44.8413218" lon="7.9122544"><ele>273.0</ele><time>2026-04-30T15:31:52.569Z</time></trkpt><trkpt lat="44.8415641" lon="7.9120363"><ele>273.0</ele><time>2026-04-30T15:31:53.548Z</time></trkpt><trkpt lat="44.8418317" lon="7.9117979"><ele>274.5</ele><time>2026-04-30T15:31:54.618Z</time></trkpt><trkpt lat="44.8420634" lon="7.9115874"><ele>276.0</ele><time>2026-04-30T15:31:55.548Z</time></trkpt><trkpt lat="44.8423213" lon="7.9113562"><ele>276.0</ele><time>2026-04-30T15:31:56.582Z</time></trkpt><trkpt lat="44.8425569" lon="7.9111446"><ele>276.0</ele><time>2026-04-30T15:31:57.538Z</time></trkpt><trkpt lat="44.8428031" lon="7.9109386"><ele>276.5</ele><time>2026-04-30T15:31:58.545Z</time></trkpt><trkpt lat="44.8430715" lon="7.9107471"><ele>277.0</ele><time>2026-04-30T15:31:59.624Z</time></trkpt><trkpt lat="44.8433373" lon="7.9106083"><ele>278.5</ele><time>2026-04-30T15:32:00.63Z</time></trkpt><trkpt lat="44.8436148" lon="7.9104914"><ele>280.0</ele><time>2026-04-30T15:32:01.591Z</time></trkpt><trkpt lat="44.8439009" lon="7.9103717"><ele>280.0</ele><time>2026-04-30T15:32:02.578Z</time></trkpt><trkpt lat="44.8441922" lon="7.9102471"><ele>280.0</ele><time>2026-04-30T15:32:03.588Z</time></trkpt><trkpt lat="44.844484" lon="7.9101195"><ele>279.0</ele><time>2026-04-30T15:32:04.612Z</time></trkpt><trkpt lat="44.8447384" lon="7.9100045"><ele>278.0</ele><time>2026-04-30T15:32:05.565Z</time></trkpt><trkpt lat="44.8449842" lon="7.9098959"><ele>278.5</ele><time>2026-04-30T15:32:06.564Z</time></trkpt><trkpt lat="44.8452281" lon="7.9097935"><ele>279.0</ele><time>2026-04-30T15:32:07.576Z</time></trkpt><trkpt lat="44.8454782" lon="7.9096829"><ele>280.0</ele><time>2026-04-30T15:32:08.599Z</time></trkpt><trkpt lat="44.8459769" lon="7.9094639"><ele>280.0</ele><time>2026-04-30T15:32:10.618Z</time></trkpt><trkpt lat="44.8462097" lon="7.9093615"><ele>280.0</ele><time>2026-04-30T15:32:11.58Z</time></trkpt><trkpt lat="44.8466847" lon="7.909143"><ele>277.0</ele><time>2026-04-30T15:32:13.61Z</time></trkpt><trkpt lat="44.8469059" lon="7.9090482"><ele>274.0</ele><time>2026-04-30T15:32:14.549Z</time></trkpt><trkpt lat="44.8471961" lon="7.9089265"><ele>274.0</ele><time>2026-04-30T15:32:15.748Z</time></trkpt><trkpt lat="44.8476548" lon="7.9087806"><ele>274.0</ele><time>2026-04-30T15:32:17.626Z</time></trkpt><trkpt lat="44.8479019" lon="7.9087323"><ele>274.0</ele><time>2026-04-30T15:32:18.546Z</time></trkpt><trkpt lat="44.8481872" lon="7.9087028"><ele>274.0</ele><time>2026-04-30T15:32:19.604Z</time></trkpt><trkpt lat="44.8484658" lon="7.9086891"><ele>274.0</ele><time>2026-04-30T15:32:20.622Z</time></trkpt><trkpt lat="44.8489744" lon="7.908687"><ele>274.0</ele><time>2026-04-30T15:32:22.547Z</time></trkpt><trkpt lat="44.8492277" lon="7.9086876"><ele>274.0</ele><time>2026-04-30T15:32:23.54Z</time></trkpt><trkpt lat="44.8494763" lon="7.9086931"><ele>273.0</ele><time>2026-04-30T15:32:24.541Z</time></trkpt><trkpt lat="44.8497299" lon="7.908693"><ele>272.0</ele><time>2026-04-30T15:32:25.611Z</time></trkpt><trkpt lat="44.849936" lon="7.90869"><ele>273.33333333333337</ele><time>2026-04-30T15:32:26.538Z</time></trkpt><trkpt lat="44.8501428" lon="7.9086927"><ele>274.6666666666667</ele><time>2026-04-30T15:32:27.551Z</time></trkpt><trkpt lat="44.8503452" lon="7.9086914"><ele>276.0</ele><time>2026-04-30T15:32:28.634Z</time></trkpt><trkpt lat="44.8505163" lon="7.9086971"><ele>276.0</ele><time>2026-04-30T15:32:29.615Z</time></trkpt><trkpt lat="44.8506749" lon="7.9086993"><ele>276.0</ele><time>2026-04-30T15:32:30.603Z</time></trkpt><trkpt lat="44.8508288" lon="7.9087006"><ele>276.0</ele><time>2026-04-30T15:32:31.59Z</time></trkpt><trkpt lat="44.850979" lon="7.9087008"><ele>275.25</ele><time>2026-04-30T15:32:32.572Z</time></trkpt><trkpt lat="44.8511256" lon="7.9087025"><ele>274.5</ele><time>2026-04-30T15:32:33.628Z</time></trkpt><trkpt lat="44.8512592" lon="7.9087018"><ele>273.75</ele><time>2026-04-30T15:32:34.596Z</time></trkpt><trkpt lat="44.8513948" lon="7.9086905"><ele>273.0</ele><time>2026-04-30T15:32:35.585Z</time></trkpt><trkpt lat="44.8515642" lon="7.908666"><ele>274.5</ele><time>2026-04-30T15:32:36.725Z</time></trkpt><trkpt lat="44.8518933" lon="7.9086073"><ele>276.0</ele><time>2026-04-30T15:32:38.588Z</time></trkpt><trkpt lat="44.852092" lon="7.9085721"><ele>276.0</ele><time>2026-04-30T15:32:39.695Z</time></trkpt><trkpt lat="44.8524184" lon="7.9085093"><ele>276.0</ele><time>2026-04-30T15:32:41.599Z</time></trkpt><trkpt lat="44.8525723" lon="7.9084806"><ele>277.5</ele><time>2026-04-30T15:32:42.539Z</time></trkpt><trkpt lat="44.8527485" lon="7.9084419"><ele>279.0</ele><time>2026-04-30T15:32:43.638Z</time></trkpt><trkpt lat="44.8530623" lon="7.9083076"><ele>279.0</ele><time>2026-04-30T15:32:45.517Z</time></trkpt><trkpt lat="44.8532358" lon="7.9081983"><ele>279.0</ele><time>2026-04-30T15:32:46.483Z</time></trkpt><trkpt lat="44.8534432" lon="7.9080645"><ele>279.0</ele><time>2026-04-30T15:32:47.559Z</time></trkpt><trkpt lat="44.8536455" lon="7.9079365"><ele>280.5</ele><time>2026-04-30T15:32:48.526Z</time></trkpt><trkpt lat="44.8538703" lon="7.9078001"><ele>282.0</ele><time>2026-04-30T15:32:49.585Z</time></trkpt><trkpt lat="44.8540706" lon="7.9076966"><ele>282.0</ele><time>2026-04-30T15:32:50.559Z</time></trkpt><trkpt lat="44.8542439" lon="7.9075813"><ele>282.0</ele><time>2026-04-30T15:32:51.503Z</time></trkpt><trkpt lat="44.8544245" lon="7.9074601"><ele>282.0</ele><time>2026-04-30T15:32:52.568Z</time></trkpt><trkpt lat="44.8545717" lon="7.9073558"><ele>280.3333333333333</ele><time>2026-04-30T15:32:53.488Z</time></trkpt><trkpt lat="44.8547537" lon="7.9072316"><ele>278.66666666666663</ele><time>2026-04-30T15:32:54.618Z</time></trkpt><trkpt lat="44.8549153" lon="7.9071238"><ele>277.0</ele><time>2026-04-30T15:32:55.578Z</time></trkpt><trkpt lat="44.8550807" lon="7.9070047"><ele>278.0</ele><time>2026-04-30T15:32:56.53Z</time></trkpt><trkpt lat="44.8552598" lon="7.9068626"><ele>279.0</ele><time>2026-04-30T15:32:57.628Z</time></trkpt><trkpt lat="44.8553995" lon="7.9067425"><ele>280.0</ele><time>2026-04-30T15:32:58.562Z</time></trkpt><trkpt lat="44.8555386" lon="7.9066211"><ele>280.0</ele><time>2026-04-30T15:32:59.517Z</time></trkpt><trkpt lat="44.8556855" lon="7.9064934"><ele>280.0</ele><time>2026-04-30T15:33:00.529Z</time></trkpt><trkpt lat="44.8558361" lon="7.9063639"><ele>280.0</ele><time>2026-04-30T15:33:01.578Z</time></trkpt><trkpt lat="44.8559811" lon="7.9062368"><ele>279.3333333333333</ele><time>2026-04-30T15:33:02.622Z</time></trkpt><trkpt lat="44.8561222" lon="7.9061113"><ele>278.6666666666667</ele><time>2026-04-30T15:33:03.647Z</time></trkpt><trkpt lat="44.8562665" lon="7.9059879"><ele>278.0</ele><time>2026-04-30T15:33:04.716Z</time></trkpt><trkpt lat="44.8564981" lon="7.9057883"><ele>278.0</ele><time>2026-04-30T15:33:06.523Z</time></trkpt><trkpt lat="44.8566236" lon="7.9056809"><ele>278.0</ele><time>2026-04-30T15:33:07.544Z</time></trkpt><trkpt lat="44.8567418" lon="7.905578"><ele>278.0</ele><time>2026-04-30T15:33:08.546Z</time></trkpt><trkpt lat="44.8568712" lon="7.9054635"><ele>278.0</ele><time>2026-04-30T15:33:09.618Z</time></trkpt><trkpt lat="44.8569891" lon="7.9053518"><ele>277.75</ele><time>2026-04-30T15:33:10.568Z</time></trkpt><trkpt lat="44.8570999" lon="7.9052355"><ele>277.5</ele><time>2026-04-30T15:33:11.536Z</time></trkpt><trkpt lat="44.8572087" lon="7.9050962"><ele>277.25</ele><time>2026-04-30T15:33:12.553Z</time></trkpt><trkpt lat="44.857302" lon="7.9049533"><ele>277.0</ele><time>2026-04-30T15:33:13.496Z</time></trkpt><trkpt lat="44.8573927" lon="7.9047773"><ele>277.0</ele><time>2026-04-30T15:33:14.508Z</time></trkpt><trkpt lat="44.8574845" lon="7.9045577"><ele>277.0</ele><time>2026-04-30T15:33:15.567Z</time></trkpt><trkpt lat="44.8575789" lon="7.9043145"><ele>277.0</ele><time>2026-04-30T15:33:16.606Z</time></trkpt><trkpt lat="44.8576723" lon="7.9040805"><ele>277.66666666666663</ele><time>2026-04-30T15:33:17.544Z</time></trkpt><trkpt lat="44.8577724" lon="7.9038356"><ele>278.3333333333333</ele><time>2026-04-30T15:33:18.549Z</time></trkpt><trkpt lat="44.8578731" lon="7.9035845"><ele>279.0</ele><time>2026-04-30T15:33:19.535Z</time></trkpt><trkpt lat="44.8579731" lon="7.9033306"><ele>279.0</ele><time>2026-04-30T15:33:20.515Z</time></trkpt><trkpt lat="44.8580869" lon="7.903031"><ele>279.0</ele><time>2026-04-30T15:33:21.612Z</time></trkpt><trkpt lat="44.8581735" lon="7.9028009"><ele>279.0</ele><time>2026-04-30T15:33:22.528Z</time></trkpt><trkpt lat="44.8582628" lon="7.9025581"><ele>277.0</ele><time>2026-04-30T15:33:23.551Z</time></trkpt><trkpt lat="44.8583462" lon="7.9023331"><ele>275.0</ele><time>2026-04-30T15:33:24.563Z</time></trkpt><trkpt lat="44.8584262" lon="7.9021205"><ele>273.0</ele><time>2026-04-30T15:33:25.586Z</time></trkpt><trkpt lat="44.8584959" lon="7.90194"><ele>274.5</ele><time>2026-04-30T15:33:26.57Z</time></trkpt><trkpt lat="44.8585588" lon="7.9017707"><ele>276.0</ele><time>2026-04-30T15:33:27.574Z</time></trkpt><trkpt lat="44.8586146" lon="7.9016239"><ele>277.5</ele><time>2026-04-30T15:33:28.575Z</time></trkpt><trkpt lat="44.8586615" lon="7.901503"><ele>279.0</ele><time>2026-04-30T15:33:29.528Z</time></trkpt><trkpt lat="44.8587163" lon="7.9013635"><ele>279.0</ele><time>2026-04-30T15:33:30.756Z</time></trkpt><trkpt lat="44.8587859" lon="7.9011856"><ele>279.0</ele><time>2026-04-30T15:33:32.601Z</time></trkpt><trkpt lat="44.8588393" lon="7.9010528"><ele>279.0</ele><time>2026-04-30T15:33:34.544Z</time></trkpt><trkpt lat="44.8588862" lon="7.9009448"><ele>279.0</ele><time>2026-04-30T15:33:43.628Z</time></trkpt><trkpt lat="44.8589246" lon="7.9008581"><ele>279.0</ele><time>2026-04-30T15:33:44.64Z</time></trkpt><trkpt lat="44.8589778" lon="7.9007382"><ele>277.6666666666667</ele><time>2026-04-30T15:33:45.614Z</time></trkpt><trkpt lat="44.859062" lon="7.9005629"><ele>276.33333333333337</ele><time>2026-04-30T15:33:46.856Z</time></trkpt><trkpt lat="44.859216" lon="7.900262"><ele>275.0</ele><time>2026-04-30T15:33:48.632Z</time></trkpt><trkpt lat="44.8593199" lon="7.9000784"><ele>275.0</ele><time>2026-04-30T15:33:49.622Z</time></trkpt><trkpt lat="44.8594289" lon="7.8998862"><ele>275.0</ele><time>2026-04-30T15:33:50.636Z</time></trkpt><trkpt lat="44.8595364" lon="7.8997056"><ele>275.0</ele><time>2026-04-30T15:33:51.598Z</time></trkpt><trkpt lat="44.8596578" lon="7.8995089"><ele>275.0</ele><time>2026-04-30T15:33:52.612Z</time></trkpt><trkpt lat="44.8597845" lon="7.8992847"><ele>275.0</ele><time>2026-04-30T15:33:53.666Z</time></trkpt><trkpt lat="44.8599008" lon="7.8990683"><ele>275.0</ele><time>2026-04-30T15:33:54.64Z</time></trkpt><trkpt lat="44.8600082" lon="7.8988519"><ele>275.6666666666667</ele><time>2026-04-30T15:33:55.602Z</time></trkpt><trkpt lat="44.8601248" lon="7.8986061"><ele>276.3333333333333</ele><time>2026-04-30T15:33:56.64Z</time></trkpt><trkpt lat="44.8602424" lon="7.8983447"><ele>277.0</ele><time>2026-04-30T15:33:57.694Z</time></trkpt><trkpt lat="44.8603607" lon="7.8981"><ele>275.0</ele><time>2026-04-30T15:33:58.638Z</time></trkpt><trkpt lat="44.8604871" lon="7.8978375"><ele>273.0</ele><time>2026-04-30T15:33:59.636Z</time></trkpt><trkpt lat="44.8606081" lon="7.8975908"><ele>271.0</ele><time>2026-04-30T15:34:00.589Z</time></trkpt><trkpt lat="44.8607272" lon="7.8973396"><ele>271.0</ele><time>2026-04-30T15:34:01.558Z</time></trkpt><trkpt lat="44.8608506" lon="7.8970835"><ele>271.0</ele><time>2026-04-30T15:34:02.627Z</time></trkpt><trkpt lat="44.8609696" lon="7.8968526"><ele>271.0</ele><time>2026-04-30T15:34:03.634Z</time></trkpt><trkpt lat="44.8611054" lon="7.8966371"><ele>270.3333333333333</ele><time>2026-04-30T15:34:04.659Z</time></trkpt><trkpt lat="44.8612417" lon="7.8964718"><ele>269.6666666666667</ele><time>2026-04-30T15:34:05.589Z</time></trkpt><trkpt lat="44.8614092" lon="7.8963152"><ele>269.0</ele><time>2026-04-30T15:34:06.716Z</time></trkpt><trkpt lat="44.8615495" lon="7.8962182"><ele>269.0</ele><time>2026-04-30T15:34:07.649Z</time></trkpt><trkpt lat="44.8616914" lon="7.8961416"><ele>269.0</ele><time>2026-04-30T15:34:08.644Z</time></trkpt><trkpt lat="44.8618082" lon="7.8960902"><ele>269.0</ele><time>2026-04-30T15:34:09.626Z</time></trkpt><trkpt lat="44.8619154" lon="7.8960666"><ele>269.0</ele><time>2026-04-30T15:34:10.569Z</time></trkpt><trkpt lat="44.8620146" lon="7.8960672"><ele>269.1666666666667</ele><time>2026-04-30T15:34:11.579Z</time></trkpt><trkpt lat="44.8620806" lon="7.8960461"><ele>269.33333333333337</ele><time>2026-04-30T15:34:12.501Z</time></trkpt><trkpt lat="44.8621457" lon="7.8959735"><ele>269.5</ele><time>2026-04-30T15:34:13.546Z</time></trkpt><trkpt lat="44.8621719" lon="7.895867"><ele>269.6666666666667</ele><time>2026-04-30T15:34:14.572Z</time></trkpt><trkpt lat="44.8621535" lon="7.8957704"><ele>269.8333333333333</ele><time>2026-04-30T15:34:15.502Z</time></trkpt><trkpt lat="44.8620858" lon="7.8956721"><ele>270.0</ele><time>2026-04-30T15:34:16.543Z</time></trkpt><trkpt lat="44.8619912" lon="7.8955781"><ele>268.3333333333333</ele><time>2026-04-30T15:34:17.567Z</time></trkpt><trkpt lat="44.8618936" lon="7.8954555"><ele>266.66666666666663</ele><time>2026-04-30T15:34:18.572Z</time></trkpt><trkpt lat="44.8617984" lon="7.8952834"><ele>265.0</ele><time>2026-04-30T15:34:19.552Z</time></trkpt><trkpt lat="44.8617073" lon="7.8950843"><ele>264.3333333333333</ele><time>2026-04-30T15:34:20.555Z</time></trkpt><trkpt lat="44.8616004" lon="7.8948558"><ele>263.6666666666667</ele><time>2026-04-30T15:34:21.595Z</time></trkpt><trkpt lat="44.8614892" lon="7.8946275"><ele>263.0</ele><time>2026-04-30T15:34:22.568Z</time></trkpt><trkpt lat="44.8613751" lon="7.8943871"><ele>262.33333333333337</ele><time>2026-04-30T15:34:23.562Z</time></trkpt><trkpt lat="44.8612505" lon="7.8941231"><ele>261.6666666666667</ele><time>2026-04-30T15:34:24.601Z</time></trkpt><trkpt lat="44.8611289" lon="7.8938588"><ele>261.0</ele><time>2026-04-30T15:34:25.602Z</time></trkpt><trkpt lat="44.8610232" lon="7.893618"><ele>263.0</ele><time>2026-04-30T15:34:26.546Z</time></trkpt><trkpt lat="44.8609151" lon="7.8933579"><ele>265.0</ele><time>2026-04-30T15:34:27.522Z</time></trkpt><trkpt lat="44.8608089" lon="7.8930597"><ele>265.0</ele><time>2026-04-30T15:34:28.564Z</time></trkpt><trkpt lat="44.8607159" lon="7.892746"><ele>265.0</ele><time>2026-04-30T15:34:29.577Z</time></trkpt><trkpt lat="44.8606379" lon="7.8924498"><ele>266.5</ele><time>2026-04-30T15:34:30.507Z</time></trkpt><trkpt lat="44.8605659" lon="7.8921347"><ele>268.0</ele><time>2026-04-30T15:34:31.521Z</time></trkpt><trkpt lat="44.8604984" lon="7.8918395"><ele>267.66666666666663</ele><time>2026-04-30T15:34:32.534Z</time></trkpt><trkpt lat="44.8604367" lon="7.8915697"><ele>267.3333333333333</ele><time>2026-04-30T15:34:33.524Z</time></trkpt><trkpt lat="44.8603767" lon="7.8913117"><ele>267.0</ele><time>2026-04-30T15:34:34.544Z</time></trkpt><trkpt lat="44.860328" lon="7.8910834"><ele>267.25</ele><time>2026-04-30T15:34:35.545Z</time></trkpt><trkpt lat="44.860287" lon="7.8908869"><ele>267.5</ele><time>2026-04-30T15:34:36.529Z</time></trkpt><trkpt lat="44.860248" lon="7.8907055"><ele>267.75</ele><time>2026-04-30T15:34:37.563Z</time></trkpt><trkpt lat="44.8602178" lon="7.8905614"><ele>268.0</ele><time>2026-04-30T15:34:38.565Z</time></trkpt><trkpt lat="44.8601879" lon="7.8904275"><ele>268.0</ele><time>2026-04-30T15:34:39.598Z</time></trkpt><trkpt lat="44.8601423" lon="7.8902208"><ele>268.0</ele><time>2026-04-30T15:34:41.518Z</time></trkpt><trkpt lat="44.8601284" lon="7.8900916"><ele>268.0</ele><time>2026-04-30T15:34:43.593Z</time></trkpt><trkpt lat="44.8601026" lon="7.8902438"><ele>268.0</ele><time>2026-04-30T15:35:29.501Z</time></trkpt><trkpt lat="44.8601404" lon="7.8903837"><ele>268.0</ele><time>2026-04-30T15:35:30.508Z</time></trkpt><trkpt lat="44.860187" lon="7.8905752"><ele>268.0</ele><time>2026-04-30T15:35:31.546Z</time></trkpt><trkpt lat="44.860233" lon="7.8907942"><ele>268.0</ele><time>2026-04-30T15:35:32.592Z</time></trkpt><trkpt lat="44.8602847" lon="7.8910304"><ele>267.66666666666663</ele><time>2026-04-30T15:35:33.61Z</time></trkpt><trkpt lat="44.8603366" lon="7.8912503"><ele>267.3333333333333</ele><time>2026-04-30T15:35:34.562Z</time></trkpt><trkpt lat="44.8603957" lon="7.8914862"><ele>267.0</ele><time>2026-04-30T15:35:35.542Z</time></trkpt><trkpt lat="44.8604611" lon="7.8917567"><ele>267.3333333333333</ele><time>2026-04-30T15:35:36.598Z</time></trkpt><trkpt lat="44.8605205" lon="7.8920065"><ele>267.66666666666663</ele><time>2026-04-30T15:35:37.544Z</time></trkpt><trkpt lat="44.8605787" lon="7.8922668"><ele>268.0</ele><time>2026-04-30T15:35:38.565Z</time></trkpt><trkpt lat="44.8606444" lon="7.8925479"><ele>267.0</ele><time>2026-04-30T15:35:39.612Z</time></trkpt><trkpt lat="44.8607079" lon="7.8928034"><ele>266.0</ele><time>2026-04-30T15:35:40.572Z</time></trkpt><trkpt lat="44.8607828" lon="7.8930582"><ele>265.0</ele><time>2026-04-30T15:35:41.537Z</time></trkpt><trkpt lat="44.8608837" lon="7.8933586"><ele>263.0</ele><time>2026-04-30T15:35:42.614Z</time></trkpt><trkpt lat="44.8610003" lon="7.8936475"><ele>261.0</ele><time>2026-04-30T15:35:43.603Z</time></trkpt><trkpt lat="44.8611196" lon="7.8939075"><ele>261.0</ele><time>2026-04-30T15:35:44.56Z</time></trkpt><trkpt lat="44.8612436" lon="7.8941699"><ele>261.0</ele><time>2026-04-30T15:35:45.618Z</time></trkpt><trkpt lat="44.8613459" lon="7.8943878"><ele>261.0</ele><time>2026-04-30T15:35:46.559Z</time></trkpt><trkpt lat="44.8614512" lon="7.8946059"><ele>261.6666666666667</ele><time>2026-04-30T15:35:47.56Z</time></trkpt><trkpt lat="44.8615472" lon="7.8948037"><ele>262.33333333333337</ele><time>2026-04-30T15:35:48.536Z</time></trkpt><trkpt lat="44.8616331" lon="7.8949904"><ele>263.0</ele><time>2026-04-30T15:35:49.522Z</time></trkpt><trkpt lat="44.8617128" lon="7.8951631"><ele>263.5</ele><time>2026-04-30T15:35:50.532Z</time></trkpt><trkpt lat="44.8617826" lon="7.8953269"><ele>264.0</ele><time>2026-04-30T15:35:51.584Z</time></trkpt><trkpt lat="44.8618372" lon="7.8954724"><ele>264.5</ele><time>2026-04-30T15:35:52.579Z</time></trkpt><trkpt lat="44.8618698" lon="7.8956256"><ele>265.0</ele><time>2026-04-30T15:35:53.572Z</time></trkpt><trkpt lat="44.8618779" lon="7.8957696"><ele>265.0</ele><time>2026-04-30T15:35:54.583Z</time></trkpt><trkpt lat="44.8618946" lon="7.8958914"><ele>265.0</ele><time>2026-04-30T15:35:55.532Z</time></trkpt><trkpt lat="44.861933" lon="7.8959968"><ele>265.0</ele><time>2026-04-30T15:35:56.55Z</time></trkpt><trkpt lat="44.8619981" lon="7.8960457"><ele>265.0</ele><time>2026-04-30T15:35:57.536Z</time></trkpt><trkpt lat="44.8620973" lon="7.896067"><ele>265.0</ele><time>2026-04-30T15:35:58.517Z</time></trkpt><trkpt lat="44.8622143" lon="7.8960927"><ele>265.75</ele><time>2026-04-30T15:35:59.582Z</time></trkpt><trkpt lat="44.8623476" lon="7.896137"><ele>266.5</ele><time>2026-04-30T15:36:00.58Z</time></trkpt><trkpt lat="44.8625034" lon="7.8961877"><ele>267.25</ele><time>2026-04-30T15:36:01.623Z</time></trkpt><trkpt lat="44.8626447" lon="7.8962279"><ele>268.0</ele><time>2026-04-30T15:36:02.565Z</time></trkpt><trkpt lat="44.8628378" lon="7.8962751"><ele>268.0</ele><time>2026-04-30T15:36:03.656Z</time></trkpt><trkpt lat="44.8631997" lon="7.8963773"><ele>268.0</ele><time>2026-04-30T15:36:05.615Z</time></trkpt><trkpt lat="44.863386" lon="7.8964309"><ele>268.3333333333333</ele><time>2026-04-30T15:36:06.578Z</time></trkpt><trkpt lat="44.8635719" lon="7.8964831"><ele>268.6666666666667</ele><time>2026-04-30T15:36:07.553Z</time></trkpt><trkpt lat="44.8637551" lon="7.8965338"><ele>269.0</ele><time>2026-04-30T15:36:08.577Z</time></trkpt><trkpt lat="44.8639369" lon="7.8965763"><ele>269.0</ele><time>2026-04-30T15:36:09.55Z</time></trkpt><trkpt lat="44.8641345" lon="7.8965947"><ele>269.0</ele><time>2026-04-30T15:36:10.587Z</time></trkpt><trkpt lat="44.864327" lon="7.8965883"><ele>269.0</ele><time>2026-04-30T15:36:11.595Z</time></trkpt><trkpt lat="44.8645095" lon="7.8965756"><ele>270.6666666666667</ele><time>2026-04-30T15:36:12.526Z</time></trkpt><trkpt lat="44.8647023" lon="7.8965576"><ele>272.3333333333333</ele><time>2026-04-30T15:36:13.532Z</time></trkpt><trkpt lat="44.8649007" lon="7.8965459"><ele>274.0</ele><time>2026-04-30T15:36:14.572Z</time></trkpt><trkpt lat="44.8650728" lon="7.8965315"><ele>274.0</ele><time>2026-04-30T15:36:15.537Z</time></trkpt><trkpt lat="44.8652661" lon="7.8965044"><ele>274.0</ele><time>2026-04-30T15:36:16.576Z</time></trkpt><trkpt lat="44.8654654" lon="7.8964764"><ele>274.0</ele><time>2026-04-30T15:36:17.544Z</time></trkpt><trkpt lat="44.8656872" lon="7.8964677"><ele>274.0</ele><time>2026-04-30T15:36:18.591Z</time></trkpt><trkpt lat="44.8659172" lon="7.8964645"><ele>274.0</ele><time>2026-04-30T15:36:19.674Z</time></trkpt><trkpt lat="44.8662926" lon="7.8964328"><ele>277.0</ele><time>2026-04-30T15:36:21.508Z</time></trkpt><trkpt lat="44.8665271" lon="7.8964004"><ele>280.0</ele><time>2026-04-30T15:36:22.581Z</time></trkpt><trkpt lat="44.8667728" lon="7.8963758"><ele>284.0</ele><time>2026-04-30T15:36:23.615Z</time></trkpt><trkpt lat="44.867004" lon="7.8963685"><ele>288.0</ele><time>2026-04-30T15:36:24.606Z</time></trkpt><trkpt lat="44.8672613" lon="7.8963602"><ele>288.0</ele><time>2026-04-30T15:36:25.658Z</time></trkpt><trkpt lat="44.8674818" lon="7.8963475"><ele>288.0</ele><time>2026-04-30T15:36:26.561Z</time></trkpt><trkpt lat="44.8677633" lon="7.8963385"><ele>291.0</ele><time>2026-04-30T15:36:27.713Z</time></trkpt><trkpt lat="44.8681995" lon="7.8963388"><ele>294.0</ele><time>2026-04-30T15:36:29.583Z</time></trkpt><trkpt lat="44.8684037" lon="7.8963419"><ele>296.0</ele><time>2026-04-30T15:36:30.558Z</time></trkpt><trkpt lat="44.8686043" lon="7.8963219"><ele>298.0</ele><time>2026-04-30T15:36:31.576Z</time></trkpt><trkpt lat="44.8687967" lon="7.8962723"><ele>300.0</ele><time>2026-04-30T15:36:32.521Z</time></trkpt><trkpt lat="44.8690171" lon="7.8961708"><ele>300.0</ele><time>2026-04-30T15:36:33.603Z</time></trkpt><trkpt lat="44.869226" lon="7.896063"><ele>300.0</ele><time>2026-04-30T15:36:34.576Z</time></trkpt><trkpt lat="44.8694114" lon="7.8959568"><ele>300.0</ele><time>2026-04-30T15:36:35.479Z</time></trkpt><trkpt lat="44.8696386" lon="7.8958347"><ele>299.0</ele><time>2026-04-30T15:36:36.559Z</time></trkpt><trkpt lat="44.8698439" lon="7.8957242"><ele>298.0</ele><time>2026-04-30T15:36:37.55Z</time></trkpt><trkpt lat="44.8700358" lon="7.8956108"><ele>297.0</ele><time>2026-04-30T15:36:38.493Z</time></trkpt><trkpt lat="44.8702447" lon="7.8954802"><ele>296.0</ele><time>2026-04-30T15:36:39.564Z</time></trkpt><trkpt lat="44.8704329" lon="7.8953296"><ele>295.0</ele><time>2026-04-30T15:36:40.561Z</time></trkpt><trkpt lat="44.8706201" lon="7.8951482"><ele>294.0</ele><time>2026-04-30T15:36:41.538Z</time></trkpt><trkpt lat="44.8708051" lon="7.8949132"><ele>293.0</ele><time>2026-04-30T15:36:42.59Z</time></trkpt><trkpt lat="44.8709735" lon="7.8946487"><ele>292.0</ele><time>2026-04-30T15:36:43.614Z</time></trkpt><trkpt lat="44.8711126" lon="7.8943944"><ele>292.5</ele><time>2026-04-30T15:36:44.517Z</time></trkpt><trkpt lat="44.8712715" lon="7.8941024"><ele>293.0</ele><time>2026-04-30T15:36:45.548Z</time></trkpt><trkpt lat="44.8714216" lon="7.8938219"><ele>293.0</ele><time>2026-04-30T15:36:46.509Z</time></trkpt><trkpt lat="44.8715936" lon="7.8934993"><ele>293.0</ele><time>2026-04-30T15:36:47.623Z</time></trkpt><trkpt lat="44.8717366" lon="7.8932235"><ele>292.5</ele><time>2026-04-30T15:36:48.564Z</time></trkpt><trkpt lat="44.8719002" lon="7.8929155"><ele>292.0</ele><time>2026-04-30T15:36:49.615Z</time></trkpt><trkpt lat="44.8720449" lon="7.8926359"><ele>292.0</ele><time>2026-04-30T15:36:50.574Z</time></trkpt><trkpt lat="44.8721892" lon="7.8923663"><ele>292.0</ele><time>2026-04-30T15:36:51.53Z</time></trkpt><trkpt lat="44.8723414" lon="7.8920785"><ele>292.0</ele><time>2026-04-30T15:36:52.536Z</time></trkpt><trkpt lat="44.8724991" lon="7.8917833"><ele>292.0</ele><time>2026-04-30T15:36:53.574Z</time></trkpt><trkpt lat="44.8726418" lon="7.8915089"><ele>292.0</ele><time>2026-04-30T15:36:54.552Z</time></trkpt><trkpt lat="44.872794" lon="7.8912241"><ele>292.0</ele><time>2026-04-30T15:36:55.574Z</time></trkpt><trkpt lat="44.8729367" lon="7.8909503"><ele>292.5</ele><time>2026-04-30T15:36:56.557Z</time></trkpt><trkpt lat="44.8730897" lon="7.8906643"><ele>293.0</ele><time>2026-04-30T15:36:57.588Z</time></trkpt><trkpt lat="44.873228" lon="7.8904053"><ele>292.5</ele><time>2026-04-30T15:36:58.519Z</time></trkpt><trkpt lat="44.8733871" lon="7.8900843"><ele>292.0</ele><time>2026-04-30T15:36:59.61Z</time></trkpt><trkpt lat="44.8735615" lon="7.8897379"><ele>290.0</ele><time>2026-04-30T15:37:00.816Z</time></trkpt><trkpt lat="44.8738416" lon="7.8891863"><ele>290.0</ele><time>2026-04-30T15:37:02.775Z</time></trkpt><trkpt lat="44.874114" lon="7.888714"><ele>290.0</ele><time>2026-04-30T15:37:04.605Z</time></trkpt><trkpt lat="44.8742649" lon="7.8884586"><ele>288.5</ele><time>2026-04-30T15:37:05.601Z</time></trkpt><trkpt lat="44.8743961" lon="7.8882114"><ele>287.0</ele><time>2026-04-30T15:37:06.532Z</time></trkpt><trkpt lat="44.8745515" lon="7.887923"><ele>287.0</ele><time>2026-04-30T15:37:07.599Z</time></trkpt><trkpt lat="44.8746858" lon="7.8876728"><ele>287.0</ele><time>2026-04-30T15:37:08.529Z</time></trkpt><trkpt lat="44.8748494" lon="7.8873839"><ele>285.5</ele><time>2026-04-30T15:37:09.63Z</time></trkpt><trkpt lat="44.8750105" lon="7.8871283"><ele>284.0</ele><time>2026-04-30T15:37:10.604Z</time></trkpt><trkpt lat="44.8751911" lon="7.8868716"><ele>280.0</ele><time>2026-04-30T15:37:11.665Z</time></trkpt><trkpt lat="44.8755415" lon="7.8864645"><ele>280.0</ele><time>2026-04-30T15:37:13.587Z</time></trkpt><trkpt lat="44.8757112" lon="7.8862742"><ele>280.0</ele><time>2026-04-30T15:37:14.5Z</time></trkpt><trkpt lat="44.8759077" lon="7.8860566"><ele>279.0</ele><time>2026-04-30T15:37:15.519Z</time></trkpt><trkpt lat="44.8761102" lon="7.8858441"><ele>278.0</ele><time>2026-04-30T15:37:16.601Z</time></trkpt><trkpt lat="44.8762935" lon="7.8856453"><ele>278.0</ele><time>2026-04-30T15:37:17.61Z</time></trkpt><trkpt lat="44.8764636" lon="7.8854563"><ele>278.0</ele><time>2026-04-30T15:37:18.596Z</time></trkpt><trkpt lat="44.8766358" lon="7.8852752"><ele>278.0</ele><time>2026-04-30T15:37:19.557Z</time></trkpt><trkpt lat="44.8768291" lon="7.8850702"><ele>279.0</ele><time>2026-04-30T15:37:20.647Z</time></trkpt><trkpt lat="44.8770022" lon="7.8848862"><ele>280.0</ele><time>2026-04-30T15:37:21.604Z</time></trkpt><trkpt lat="44.8771756" lon="7.8847069"><ele>281.0</ele><time>2026-04-30T15:37:22.583Z</time></trkpt><trkpt lat="44.8773674" lon="7.8845045"><ele>282.0</ele><time>2026-04-30T15:37:23.716Z</time></trkpt><trkpt lat="44.877688" lon="7.8841552"><ele>283.0</ele><time>2026-04-30T15:37:25.737Z</time></trkpt><trkpt lat="44.8779937" lon="7.8838346"><ele>283.0</ele><time>2026-04-30T15:37:27.681Z</time></trkpt><trkpt lat="44.8781335" lon="7.8836777"><ele>283.0</ele><time>2026-04-30T15:37:28.588Z</time></trkpt><trkpt lat="44.8782992" lon="7.8834958"><ele>283.0</ele><time>2026-04-30T15:37:29.606Z</time></trkpt><trkpt lat="44.8784697" lon="7.8833168"><ele>282.66666666666663</ele><time>2026-04-30T15:37:30.588Z</time></trkpt><trkpt lat="44.8786357" lon="7.8831237"><ele>282.3333333333333</ele><time>2026-04-30T15:37:31.566Z</time></trkpt><trkpt lat="44.8788136" lon="7.882921"><ele>282.0</ele><time>2026-04-30T15:37:32.546Z</time></trkpt><trkpt lat="44.879013" lon="7.8826902"><ele>282.5</ele><time>2026-04-30T15:37:33.588Z</time></trkpt><trkpt lat="44.879199" lon="7.8824932"><ele>283.0</ele><time>2026-04-30T15:37:34.564Z</time></trkpt><trkpt lat="44.8793829" lon="7.8822991"><ele>282.3333333333333</ele><time>2026-04-30T15:37:35.576Z</time></trkpt><trkpt lat="44.8795721" lon="7.8821017"><ele>281.6666666666667</ele><time>2026-04-30T15:37:36.686Z</time></trkpt><trkpt lat="44.8797268" lon="7.8819434"><ele>281.0</ele><time>2026-04-30T15:37:37.648Z</time></trkpt><trkpt lat="44.8800202" lon="7.8816215"><ele>280.33333333333337</ele><time>2026-04-30T15:37:39.616Z</time></trkpt><trkpt lat="44.8801786" lon="7.8814419"><ele>279.6666666666667</ele><time>2026-04-30T15:37:40.618Z</time></trkpt><trkpt lat="44.8803426" lon="7.8812477"><ele>279.0</ele><time>2026-04-30T15:37:41.599Z</time></trkpt><trkpt lat="44.8805122" lon="7.881046"><ele>279.5</ele><time>2026-04-30T15:37:42.563Z</time></trkpt><trkpt lat="44.8806843" lon="7.8808391"><ele>280.0</ele><time>2026-04-30T15:37:43.547Z</time></trkpt><trkpt lat="44.8808598" lon="7.8806184"><ele>279.3333333333333</ele><time>2026-04-30T15:37:44.597Z</time></trkpt><trkpt lat="44.8810076" lon="7.880421"><ele>278.6666666666667</ele><time>2026-04-30T15:37:45.52Z</time></trkpt><trkpt lat="44.8811675" lon="7.880202"><ele>278.0</ele><time>2026-04-30T15:37:46.561Z</time></trkpt><trkpt lat="44.8813109" lon="7.8799904"><ele>277.6666666666667</ele><time>2026-04-30T15:37:47.555Z</time></trkpt><trkpt lat="44.8814512" lon="7.879777"><ele>277.3333333333333</ele><time>2026-04-30T15:37:48.559Z</time></trkpt><trkpt lat="44.8815862" lon="7.879559"><ele>277.0</ele><time>2026-04-30T15:37:49.535Z</time></trkpt><trkpt lat="44.8817441" lon="7.8792967"><ele>277.3333333333333</ele><time>2026-04-30T15:37:50.689Z</time></trkpt><trkpt lat="44.8818685" lon="7.8790861"><ele>277.6666666666667</ele><time>2026-04-30T15:37:51.601Z</time></trkpt><trkpt lat="44.8819986" lon="7.8788605"><ele>278.0</ele><time>2026-04-30T15:37:52.555Z</time></trkpt><trkpt lat="44.8821412" lon="7.8786125"><ele>277.6666666666667</ele><time>2026-04-30T15:37:53.606Z</time></trkpt><trkpt lat="44.8822801" lon="7.8783687"><ele>277.3333333333333</ele><time>2026-04-30T15:37:54.648Z</time></trkpt><trkpt lat="44.8824174" lon="7.8781333"><ele>277.0</ele><time>2026-04-30T15:37:55.683Z</time></trkpt><trkpt lat="44.882676" lon="7.8776783"><ele>277.0</ele><time>2026-04-30T15:37:57.594Z</time></trkpt><trkpt lat="44.8828221" lon="7.8774101"><ele>277.0</ele><time>2026-04-30T15:37:58.609Z</time></trkpt><trkpt lat="44.8829817" lon="7.8771059"><ele>276.0</ele><time>2026-04-30T15:37:59.678Z</time></trkpt><trkpt lat="44.8833006" lon="7.8765583"><ele>275.5</ele><time>2026-04-30T15:38:01.545Z</time></trkpt><trkpt lat="44.8834802" lon="7.8762561"><ele>275.0</ele><time>2026-04-30T15:38:02.539Z</time></trkpt><trkpt lat="44.8836548" lon="7.8759606"><ele>275.0</ele><time>2026-04-30T15:38:03.497Z</time></trkpt><trkpt lat="44.8838577" lon="7.8756084"><ele>275.0</ele><time>2026-04-30T15:38:04.612Z</time></trkpt><trkpt lat="44.884029" lon="7.8753097"><ele>274.5</ele><time>2026-04-30T15:38:05.554Z</time></trkpt><trkpt lat="44.8842186" lon="7.8749782"><ele>274.0</ele><time>2026-04-30T15:38:06.584Z</time></trkpt><trkpt lat="44.8844074" lon="7.8746481"><ele>274.0</ele><time>2026-04-30T15:38:07.604Z</time></trkpt><trkpt lat="44.8845923" lon="7.87432"><ele>274.0</ele><time>2026-04-30T15:38:08.613Z</time></trkpt><trkpt lat="44.8847597" lon="7.8740234"><ele>274.0</ele><time>2026-04-30T15:38:09.535Z</time></trkpt><trkpt lat="44.8849677" lon="7.8736535"><ele>274.0</ele><time>2026-04-30T15:38:10.668Z</time></trkpt><trkpt lat="44.8851719" lon="7.873299"><ele>272.0</ele><time>2026-04-30T15:38:11.765Z</time></trkpt><trkpt lat="44.8855157" lon="7.8726948"><ele>272.0</ele><time>2026-04-30T15:38:13.618Z</time></trkpt><trkpt lat="44.8857014" lon="7.8723718"><ele>272.0</ele><time>2026-04-30T15:38:14.625Z</time></trkpt><trkpt lat="44.8860631" lon="7.871736"><ele>271.0</ele><time>2026-04-30T15:38:16.605Z</time></trkpt><trkpt lat="44.886253" lon="7.8714045"><ele>270.0</ele><time>2026-04-30T15:38:17.649Z</time></trkpt><trkpt lat="44.8864182" lon="7.8711125"><ele>269.0</ele><time>2026-04-30T15:38:18.569Z</time></trkpt><trkpt lat="44.8866102" lon="7.8707749"><ele>268.0</ele><time>2026-04-30T15:38:19.628Z</time></trkpt><trkpt lat="44.8867773" lon="7.8704832"><ele>268.0</ele><time>2026-04-30T15:38:20.553Z</time></trkpt><trkpt lat="44.8869505" lon="7.870178"><ele>268.0</ele><time>2026-04-30T15:38:21.519Z</time></trkpt><trkpt lat="44.8871459" lon="7.8698434"><ele>268.5</ele><time>2026-04-30T15:38:22.595Z</time></trkpt><trkpt lat="44.8873302" lon="7.8695356"><ele>269.0</ele><time>2026-04-30T15:38:23.615Z</time></trkpt><trkpt lat="44.8875039" lon="7.8692601"><ele>269.0</ele><time>2026-04-30T15:38:24.557Z</time></trkpt><trkpt lat="44.887708" lon="7.8689767"><ele>269.0</ele><time>2026-04-30T15:38:25.571Z</time></trkpt><trkpt lat="44.8879282" lon="7.8687035"><ele>269.0</ele><time>2026-04-30T15:38:26.606Z</time></trkpt><trkpt lat="44.8881457" lon="7.8684596"><ele>269.0</ele><time>2026-04-30T15:38:27.588Z</time></trkpt><trkpt lat="44.8883652" lon="7.8682417"><ele>269.0</ele><time>2026-04-30T15:38:28.545Z</time></trkpt><trkpt lat="44.8886162" lon="7.8680142"><ele>269.0</ele><time>2026-04-30T15:38:29.599Z</time></trkpt><trkpt lat="44.8888687" lon="7.8678067"><ele>268.5</ele><time>2026-04-30T15:38:30.61Z</time></trkpt><trkpt lat="44.8891247" lon="7.8676043"><ele>268.0</ele><time>2026-04-30T15:38:31.624Z</time></trkpt><trkpt lat="44.8893994" lon="7.8673967"><ele>268.0</ele><time>2026-04-30T15:38:32.668Z</time></trkpt><trkpt lat="44.8896672" lon="7.867192"><ele>268.0</ele><time>2026-04-30T15:38:33.68Z</time></trkpt><trkpt lat="44.89016" lon="7.8668168"><ele>268.0</ele><time>2026-04-30T15:38:35.554Z</time></trkpt><trkpt lat="44.8904234" lon="7.8666212"><ele>268.0</ele><time>2026-04-30T15:38:36.552Z</time></trkpt><trkpt lat="44.89069" lon="7.8664258"><ele>267.5</ele><time>2026-04-30T15:38:37.574Z</time></trkpt><trkpt lat="44.8909582" lon="7.8662245"><ele>267.0</ele><time>2026-04-30T15:38:38.598Z</time></trkpt><trkpt lat="44.8912181" lon="7.8660312"><ele>267.0</ele><time>2026-04-30T15:38:39.576Z</time></trkpt><trkpt lat="44.8914972" lon="7.8658216"><ele>267.0</ele><time>2026-04-30T15:38:40.618Z</time></trkpt><trkpt lat="44.8917735" lon="7.8656168"><ele>267.0</ele><time>2026-04-30T15:38:41.637Z</time></trkpt><trkpt lat="44.8920483" lon="7.8654157"><ele>267.0</ele><time>2026-04-30T15:38:42.679Z</time></trkpt><trkpt lat="44.892293" lon="7.8652351"><ele>267.0</ele><time>2026-04-30T15:38:43.609Z</time></trkpt><trkpt lat="44.8925514" lon="7.8650407"><ele>267.0</ele><time>2026-04-30T15:38:44.585Z</time></trkpt><trkpt lat="44.8927991" lon="7.8648519"><ele>266.0</ele><time>2026-04-30T15:38:45.542Z</time></trkpt><trkpt lat="44.8931263" lon="7.8646027"><ele>265.0</ele><time>2026-04-30T15:38:46.809Z</time></trkpt><trkpt lat="44.8933571" lon="7.8644276"><ele>262.0</ele><time>2026-04-30T15:38:47.718Z</time></trkpt><trkpt lat="44.8938105" lon="7.864085"><ele>262.0</ele><time>2026-04-30T15:38:49.509Z</time></trkpt><trkpt lat="44.8940892" lon="7.8638723"><ele>262.0</ele><time>2026-04-30T15:38:50.624Z</time></trkpt><trkpt lat="44.8943083" lon="7.8637064"><ele>261.5</ele><time>2026-04-30T15:38:51.523Z</time></trkpt><trkpt lat="44.8945885" lon="7.8634939"><ele>261.0</ele><time>2026-04-30T15:38:52.69Z</time></trkpt><trkpt lat="44.8950205" lon="7.8631672"><ele>261.0</ele><time>2026-04-30T15:38:54.54Z</time></trkpt><trkpt lat="44.8952521" lon="7.8629937"><ele>261.0</ele><time>2026-04-30T15:38:55.553Z</time></trkpt><trkpt lat="44.8954917" lon="7.8628112"><ele>261.0</ele><time>2026-04-30T15:38:56.622Z</time></trkpt><trkpt lat="44.8957271" lon="7.8626243"><ele>261.0</ele><time>2026-04-30T15:38:57.695Z</time></trkpt><trkpt lat="44.8961464" lon="7.8622957"><ele>260.5</ele><time>2026-04-30T15:38:59.549Z</time></trkpt><trkpt lat="44.8963957" lon="7.862116"><ele>260.0</ele><time>2026-04-30T15:39:00.586Z</time></trkpt><trkpt lat="44.8966305" lon="7.8619527"><ele>260.0</ele><time>2026-04-30T15:39:01.525Z</time></trkpt><trkpt lat="44.8968878" lon="7.8617686"><ele>260.0</ele><time>2026-04-30T15:39:02.542Z</time></trkpt><trkpt lat="44.8971434" lon="7.8615869"><ele>260.0</ele><time>2026-04-30T15:39:03.543Z</time></trkpt><trkpt lat="44.8974049" lon="7.8613955"><ele>260.0</ele><time>2026-04-30T15:39:04.577Z</time></trkpt><trkpt lat="44.897682" lon="7.8611935"><ele>260.0</ele><time>2026-04-30T15:39:05.675Z</time></trkpt><trkpt lat="44.8981766" lon="7.8608195"><ele>260.0</ele><time>2026-04-30T15:39:07.632Z</time></trkpt><trkpt lat="44.898414" lon="7.8606378"><ele>260.0</ele><time>2026-04-30T15:39:08.581Z</time></trkpt><trkpt lat="44.8986788" lon="7.8604365"><ele>259.5</ele><time>2026-04-30T15:39:09.638Z</time></trkpt><trkpt lat="44.8989055" lon="7.8602631"><ele>259.0</ele><time>2026-04-30T15:39:10.543Z</time></trkpt><trkpt lat="44.8991666" lon="7.8600694"><ele>259.5</ele><time>2026-04-30T15:39:11.61Z</time></trkpt><trkpt lat="44.8994214" lon="7.8598795"><ele>260.0</ele><time>2026-04-30T15:39:12.664Z</time></trkpt><trkpt lat="44.8996545" lon="7.8597054"><ele>259.0</ele><time>2026-04-30T15:39:13.652Z</time></trkpt><trkpt lat="44.9001217" lon="7.8593595"><ele>259.0</ele><time>2026-04-30T15:39:15.698Z</time></trkpt><trkpt lat="44.9003488" lon="7.8591884"><ele>259.0</ele><time>2026-04-30T15:39:16.715Z</time></trkpt><trkpt lat="44.9007811" lon="7.8588684"><ele>259.0</ele><time>2026-04-30T15:39:18.62Z</time></trkpt><trkpt lat="44.9009992" lon="7.8587105"><ele>259.0</ele><time>2026-04-30T15:39:19.55Z</time></trkpt><trkpt lat="44.9012366" lon="7.8585379"><ele>258.5</ele><time>2026-04-30T15:39:20.569Z</time></trkpt><trkpt lat="44.9014766" lon="7.8583658"><ele>258.0</ele><time>2026-04-30T15:39:21.6Z</time></trkpt><trkpt lat="44.9017155" lon="7.8581948"><ele>259.0</ele><time>2026-04-30T15:39:22.641Z</time></trkpt><trkpt lat="44.9019801" lon="7.8580066"><ele>260.0</ele><time>2026-04-30T15:39:23.791Z</time></trkpt><trkpt lat="44.9023742" lon="7.8577167"><ele>259.5</ele><time>2026-04-30T15:39:25.52Z</time></trkpt><trkpt lat="44.9026008" lon="7.8575448"><ele>259.0</ele><time>2026-04-30T15:39:26.595Z</time></trkpt><trkpt lat="44.9027918" lon="7.8573961"><ele>259.0</ele><time>2026-04-30T15:39:27.566Z</time></trkpt><trkpt lat="44.9029846" lon="7.8572381"><ele>259.0</ele><time>2026-04-30T15:39:28.6Z</time></trkpt><trkpt lat="44.9031722" lon="7.857082"><ele>259.0</ele><time>2026-04-30T15:39:29.647Z</time></trkpt><trkpt lat="44.9035198" lon="7.8567931"><ele>259.0</ele><time>2026-04-30T15:39:31.581Z</time></trkpt><trkpt lat="44.9037172" lon="7.8566453"><ele>259.0</ele><time>2026-04-30T15:39:32.604Z</time></trkpt><trkpt lat="44.903914" lon="7.8565061"><ele>259.0</ele><time>2026-04-30T15:39:33.617Z</time></trkpt><trkpt lat="44.9040883" lon="7.8563791"><ele>258.0</ele><time>2026-04-30T15:39:34.522Z</time></trkpt><trkpt lat="44.9042821" lon="7.8562323"><ele>257.0</ele><time>2026-04-30T15:39:35.572Z</time></trkpt><trkpt lat="44.9044501" lon="7.8561027"><ele>256.0</ele><time>2026-04-30T15:39:36.553Z</time></trkpt><trkpt lat="44.9046112" lon="7.8559816"><ele>255.66666666666666</ele><time>2026-04-30T15:39:37.545Z</time></trkpt><trkpt lat="44.9047691" lon="7.8558613"><ele>255.33333333333331</ele><time>2026-04-30T15:39:38.588Z</time></trkpt><trkpt lat="44.904903" lon="7.8557571"><ele>255.0</ele><time>2026-04-30T15:39:39.556Z</time></trkpt><trkpt lat="44.905033" lon="7.8556562"><ele>255.5</ele><time>2026-04-30T15:39:40.556Z</time></trkpt><trkpt lat="44.9051501" lon="7.8555688"><ele>256.0</ele><time>2026-04-30T15:39:41.604Z</time></trkpt><trkpt lat="44.9052527" lon="7.855494"><ele>256.5</ele><time>2026-04-30T15:39:42.583Z</time></trkpt><trkpt lat="44.9053568" lon="7.8554216"><ele>257.0</ele><time>2026-04-30T15:39:43.634Z</time></trkpt><trkpt lat="44.9054442" lon="7.8553567"><ele>257.0</ele><time>2026-04-30T15:39:44.542Z</time></trkpt><trkpt lat="44.9055481" lon="7.8552802"><ele>257.0</ele><time>2026-04-30T15:39:45.565Z</time></trkpt><trkpt lat="44.9056484" lon="7.8552062"><ele>257.0</ele><time>2026-04-30T15:39:46.497Z</time></trkpt><trkpt lat="44.9057681" lon="7.8551172"><ele>257.0</ele><time>2026-04-30T15:39:47.542Z</time></trkpt><trkpt lat="44.9058884" lon="7.8550201"><ele>256.6666666666667</ele><time>2026-04-30T15:39:48.498Z</time></trkpt><trkpt lat="44.9060538" lon="7.854884"><ele>256.3333333333333</ele><time>2026-04-30T15:39:49.645Z</time></trkpt><trkpt lat="44.906216" lon="7.8547671"><ele>256.0</ele><time>2026-04-30T15:39:50.667Z</time></trkpt><trkpt lat="44.906374" lon="7.8546622"><ele>256.0</ele><time>2026-04-30T15:39:51.623Z</time></trkpt><trkpt lat="44.9065616" lon="7.8545409"><ele>256.0</ele><time>2026-04-30T15:39:52.708Z</time></trkpt><trkpt lat="44.9067099" lon="7.854434"><ele>256.0</ele><time>2026-04-30T15:39:53.696Z</time></trkpt><trkpt lat="44.9068548" lon="7.8543325"><ele>256.0</ele><time>2026-04-30T15:39:54.773Z</time></trkpt><trkpt lat="44.9069558" lon="7.8542667"><ele>256.0</ele><time>2026-04-30T15:39:55.69Z</time></trkpt><trkpt lat="44.90705" lon="7.8542161"><ele>256.0</ele><time>2026-04-30T15:39:56.652Z</time></trkpt><trkpt lat="44.9071578" lon="7.8542165"><ele>256.0</ele><time>2026-04-30T15:39:57.8Z</time></trkpt><trkpt lat="44.9073249" lon="7.8541821"><ele>256.0</ele><time>2026-04-30T15:39:59.614Z</time></trkpt><trkpt lat="44.9073903" lon="7.8541011"><ele>256.0</ele><time>2026-04-30T15:40:00.567Z</time></trkpt><trkpt lat="44.9074451" lon="7.8539844"><ele>256.0</ele><time>2026-04-30T15:40:01.554Z</time></trkpt><trkpt lat="44.907527" lon="7.853856"><ele>256.0</ele><time>2026-04-30T15:40:02.548Z</time></trkpt><trkpt lat="44.9076358" lon="7.8537347"><ele>256.0</ele><time>2026-04-30T15:40:03.555Z</time></trkpt><trkpt lat="44.9077816" lon="7.8536105"><ele>256.0</ele><time>2026-04-30T15:40:04.566Z</time></trkpt><trkpt lat="44.9079492" lon="7.8534906"><ele>256.0</ele><time>2026-04-30T15:40:05.58Z</time></trkpt><trkpt lat="44.9081267" lon="7.8533571"><ele>256.0</ele><time>2026-04-30T15:40:06.647Z</time></trkpt><trkpt lat="44.9082824" lon="7.8532366"><ele>255.66666666666666</ele><time>2026-04-30T15:40:07.57Z</time></trkpt><trkpt lat="44.9084516" lon="7.8531122"><ele>255.33333333333331</ele><time>2026-04-30T15:40:08.552Z</time></trkpt><trkpt lat="44.9086161" lon="7.8529857"><ele>255.0</ele><time>2026-04-30T15:40:09.531Z</time></trkpt><trkpt lat="44.908783" lon="7.8528561"><ele>255.0</ele><time>2026-04-30T15:40:10.563Z</time></trkpt><trkpt lat="44.9089426" lon="7.8527379"><ele>255.0</ele><time>2026-04-30T15:40:11.563Z</time></trkpt><trkpt lat="44.9090872" lon="7.8526252"><ele>255.0</ele><time>2026-04-30T15:40:12.525Z</time></trkpt><trkpt lat="44.9092647" lon="7.8524876"><ele>256.0</ele><time>2026-04-30T15:40:13.639Z</time></trkpt><trkpt lat="44.9094181" lon="7.8523699"><ele>257.0</ele><time>2026-04-30T15:40:14.642Z</time></trkpt><trkpt lat="44.909552" lon="7.8522698"><ele>258.0</ele><time>2026-04-30T15:40:15.571Z</time></trkpt><trkpt lat="44.9096892" lon="7.8521713"><ele>258.0</ele><time>2026-04-30T15:40:16.535Z</time></trkpt><trkpt lat="44.9098466" lon="7.8520544"><ele>258.0</ele><time>2026-04-30T15:40:17.624Z</time></trkpt><trkpt lat="44.9099897" lon="7.8519429"><ele>258.0</ele><time>2026-04-30T15:40:18.622Z</time></trkpt><trkpt lat="44.9101327" lon="7.8518286"><ele>257.6666666666667</ele><time>2026-04-30T15:40:19.624Z</time></trkpt><trkpt lat="44.9102874" lon="7.8517051"><ele>257.33333333333337</ele><time>2026-04-30T15:40:20.602Z</time></trkpt><trkpt lat="44.9104862" lon="7.8515465"><ele>257.0</ele><time>2026-04-30T15:40:21.77Z</time></trkpt><trkpt lat="44.9108002" lon="7.8513134"><ele>256.6666666666667</ele><time>2026-04-30T15:40:23.572Z</time></trkpt><trkpt lat="44.9109917" lon="7.8511662"><ele>256.3333333333333</ele><time>2026-04-30T15:40:24.617Z</time></trkpt><trkpt lat="44.9111609" lon="7.8510509"><ele>256.0</ele><time>2026-04-30T15:40:25.533Z</time></trkpt><trkpt lat="44.9113439" lon="7.850934"><ele>256.0</ele><time>2026-04-30T15:40:26.547Z</time></trkpt><trkpt lat="44.911526" lon="7.8508127"><ele>256.0</ele><time>2026-04-30T15:40:27.607Z</time></trkpt><trkpt lat="44.911672" lon="7.8507058"><ele>256.0</ele><time>2026-04-30T15:40:28.558Z</time></trkpt><trkpt lat="44.9118135" lon="7.8505916"><ele>255.75</ele><time>2026-04-30T15:40:29.584Z</time></trkpt><trkpt lat="44.9119343" lon="7.8504868"><ele>255.5</ele><time>2026-04-30T15:40:30.554Z</time></trkpt><trkpt lat="44.9120595" lon="7.850365"><ele>255.25</ele><time>2026-04-30T15:40:31.582Z</time></trkpt><trkpt lat="44.9121832" lon="7.8502439"><ele>255.0</ele><time>2026-04-30T15:40:32.578Z</time></trkpt><trkpt lat="44.9123053" lon="7.8501147"><ele>255.0</ele><time>2026-04-30T15:40:33.542Z</time></trkpt><trkpt lat="44.9124413" lon="7.8499598"><ele>255.0</ele><time>2026-04-30T15:40:34.621Z</time></trkpt><trkpt lat="44.912558" lon="7.8498102"><ele>255.0</ele><time>2026-04-30T15:40:35.551Z</time></trkpt><trkpt lat="44.9126795" lon="7.849633"><ele>255.66666666666669</ele><time>2026-04-30T15:40:36.61Z</time></trkpt><trkpt lat="44.9127966" lon="7.8494519"><ele>256.33333333333337</ele><time>2026-04-30T15:40:37.59Z</time></trkpt><trkpt lat="44.9129096" lon="7.8492581"><ele>257.0</ele><time>2026-04-30T15:40:38.575Z</time></trkpt><trkpt lat="44.9130302" lon="7.8490518"><ele>257.0</ele><time>2026-04-30T15:40:39.597Z</time></trkpt><trkpt lat="44.9131431" lon="7.848845"><ele>257.0</ele><time>2026-04-30T15:40:40.598Z</time></trkpt><trkpt lat="44.9132518" lon="7.8486492"><ele>257.0</ele><time>2026-04-30T15:40:41.569Z</time></trkpt><trkpt lat="44.9133576" lon="7.8484501"><ele>257.33333333333337</ele><time>2026-04-30T15:40:42.565Z</time></trkpt><trkpt lat="44.9134655" lon="7.8482404"><ele>257.6666666666667</ele><time>2026-04-30T15:40:43.674Z</time></trkpt><trkpt lat="44.9135524" lon="7.8480635"><ele>258.0</ele><time>2026-04-30T15:40:44.627Z</time></trkpt><trkpt lat="44.9136389" lon="7.847884"><ele>258.0</ele><time>2026-04-30T15:40:45.591Z</time></trkpt><trkpt lat="44.9137234" lon="7.8477069"><ele>258.0</ele><time>2026-04-30T15:40:46.584Z</time></trkpt><trkpt lat="44.913802" lon="7.8475467"><ele>258.0</ele><time>2026-04-30T15:40:47.549Z</time></trkpt><trkpt lat="44.9138808" lon="7.8473861"><ele>258.0</ele><time>2026-04-30T15:40:48.59Z</time></trkpt><trkpt lat="44.9139516" lon="7.8472411"><ele>258.0</ele><time>2026-04-30T15:40:49.642Z</time></trkpt><trkpt lat="44.9140062" lon="7.8471241"><ele>258.0</ele><time>2026-04-30T15:40:50.553Z</time></trkpt><trkpt lat="44.9140668" lon="7.8470076"><ele>258.0</ele><time>2026-04-30T15:40:51.622Z</time></trkpt><trkpt lat="44.9141089" lon="7.846922"><ele>258.0</ele><time>2026-04-30T15:40:52.528Z</time></trkpt><trkpt lat="44.9141491" lon="7.8468399"><ele>258.0</ele><time>2026-04-30T15:40:53.557Z</time></trkpt><trkpt lat="44.9142026" lon="7.8467372"><ele>258.0</ele><time>2026-04-30T15:40:55.75Z</time></trkpt><trkpt lat="44.9142656" lon="7.8466044"><ele>257.3333333333333</ele><time>2026-04-30T15:41:17.624Z</time></trkpt><trkpt lat="44.9143188" lon="7.8464992"><ele>256.66666666666663</ele><time>2026-04-30T15:41:18.675Z</time></trkpt><trkpt lat="44.9144469" lon="7.846236"><ele>256.0</ele><time>2026-04-30T15:41:20.622Z</time></trkpt><trkpt lat="44.914525" lon="7.8460702"><ele>255.66666666666666</ele><time>2026-04-30T15:41:21.607Z</time></trkpt><trkpt lat="44.9146115" lon="7.8458803"><ele>255.33333333333331</ele><time>2026-04-30T15:41:22.624Z</time></trkpt><trkpt lat="44.9147062" lon="7.8456856"><ele>255.0</ele><time>2026-04-30T15:41:23.629Z</time></trkpt><trkpt lat="44.9147925" lon="7.845511"><ele>255.0</ele><time>2026-04-30T15:41:24.552Z</time></trkpt><trkpt lat="44.9148883" lon="7.8453103"><ele>255.0</ele><time>2026-04-30T15:41:25.592Z</time></trkpt><trkpt lat="44.9149821" lon="7.8451136"><ele>255.0</ele><time>2026-04-30T15:41:26.589Z</time></trkpt><trkpt lat="44.9150935" lon="7.844882"><ele>255.0</ele><time>2026-04-30T15:41:27.738Z</time></trkpt><trkpt lat="44.9152824" lon="7.8445002"><ele>255.0</ele><time>2026-04-30T15:41:29.613Z</time></trkpt><trkpt lat="44.9153772" lon="7.8443027"><ele>254.33333333333331</ele><time>2026-04-30T15:41:30.564Z</time></trkpt><trkpt lat="44.9154777" lon="7.8440903"><ele>253.66666666666666</ele><time>2026-04-30T15:41:31.545Z</time></trkpt><trkpt lat="44.9155844" lon="7.8438656"><ele>253.0</ele><time>2026-04-30T15:41:32.568Z</time></trkpt><trkpt lat="44.915696" lon="7.843628"><ele>253.0</ele><time>2026-04-30T15:41:33.616Z</time></trkpt><trkpt lat="44.9158028" lon="7.8434053"><ele>253.0</ele><time>2026-04-30T15:41:34.592Z</time></trkpt><trkpt lat="44.9159153" lon="7.8431744"><ele>253.0</ele><time>2026-04-30T15:41:35.596Z</time></trkpt><trkpt lat="44.9160191" lon="7.8429621"><ele>253.33333333333331</ele><time>2026-04-30T15:41:36.533Z</time></trkpt><trkpt lat="44.9161324" lon="7.8427225"><ele>253.66666666666669</ele><time>2026-04-30T15:41:37.596Z</time></trkpt><trkpt lat="44.9162506" lon="7.8424694"><ele>254.0</ele><time>2026-04-30T15:41:38.775Z</time></trkpt><trkpt lat="44.9163472" lon="7.8422817"><ele>254.0</ele><time>2026-04-30T15:41:39.795Z</time></trkpt><trkpt lat="44.9164655" lon="7.8420249"><ele>254.0</ele><time>2026-04-30T15:41:41.559Z</time></trkpt><trkpt lat="44.9165205" lon="7.8419164"><ele>254.0</ele><time>2026-04-30T15:41:42.591Z</time></trkpt><trkpt lat="44.9165663" lon="7.841824"><ele>254.0</ele><time>2026-04-30T15:41:43.539Z</time></trkpt><trkpt lat="44.9166229" lon="7.8417025"><ele>254.25</ele><time>2026-04-30T15:41:44.609Z</time></trkpt><trkpt lat="44.9166759" lon="7.8415665"><ele>254.5</ele><time>2026-04-30T15:41:45.538Z</time></trkpt><trkpt lat="44.9167614" lon="7.8413643"><ele>254.75</ele><time>2026-04-30T15:41:46.739Z</time></trkpt><trkpt lat="44.9168506" lon="7.841174"><ele>255.0</ele><time>2026-04-30T15:41:47.741Z</time></trkpt><trkpt lat="44.916971" lon="7.8409468"><ele>255.0</ele><time>2026-04-30T15:41:48.899Z</time></trkpt><trkpt lat="44.9171806" lon="7.8406005"><ele>255.0</ele><time>2026-04-30T15:41:50.676Z</time></trkpt><trkpt lat="44.9173057" lon="7.8404175"><ele>255.0</ele><time>2026-04-30T15:41:51.653Z</time></trkpt><trkpt lat="44.9174464" lon="7.8402409"><ele>255.0</ele><time>2026-04-30T15:41:52.656Z</time></trkpt><trkpt lat="44.9175861" lon="7.8400943"><ele>255.0</ele><time>2026-04-30T15:41:53.61Z</time></trkpt><trkpt lat="44.9177535" lon="7.8399498"><ele>255.5</ele><time>2026-04-30T15:41:54.669Z</time></trkpt><trkpt lat="44.9180895" lon="7.8397096"><ele>256.0</ele><time>2026-04-30T15:41:56.552Z</time></trkpt><trkpt lat="44.9182952" lon="7.839582"><ele>256.0</ele><time>2026-04-30T15:41:57.611Z</time></trkpt><trkpt lat="44.9184691" lon="7.8394733"><ele>256.0</ele><time>2026-04-30T15:41:58.529Z</time></trkpt><trkpt lat="44.9186633" lon="7.8393547"><ele>256.0</ele><time>2026-04-30T15:41:59.555Z</time></trkpt><trkpt lat="44.9188292" lon="7.8392551"><ele>256.0</ele><time>2026-04-30T15:42:00.498Z</time></trkpt><trkpt lat="44.9190052" lon="7.8391468"><ele>256.0</ele><time>2026-04-30T15:42:01.568Z</time></trkpt><trkpt lat="44.9191651" lon="7.83905"><ele>256.0</ele><time>2026-04-30T15:42:02.64Z</time></trkpt><trkpt lat="44.9193018" lon="7.8389643"><ele>255.25</ele><time>2026-04-30T15:42:03.653Z</time></trkpt><trkpt lat="44.9194227" lon="7.8388882"><ele>254.5</ele><time>2026-04-30T15:42:04.62Z</time></trkpt><trkpt lat="44.9195399" lon="7.8388142"><ele>253.75</ele><time>2026-04-30T15:42:05.62Z</time></trkpt><trkpt lat="44.919667" lon="7.8387319"><ele>253.0</ele><time>2026-04-30T15:42:06.778Z</time></trkpt><trkpt lat="44.9197593" lon="7.8386725"><ele>253.0</ele><time>2026-04-30T15:42:07.701Z</time></trkpt><trkpt lat="44.9198512" lon="7.838616"><ele>253.0</ele><time>2026-04-30T15:42:08.671Z</time></trkpt><trkpt lat="44.9199358" lon="7.8385643"><ele>253.0</ele><time>2026-04-30T15:42:09.624Z</time></trkpt><trkpt lat="44.9200278" lon="7.8385084"><ele>253.0</ele><time>2026-04-30T15:42:10.741Z</time></trkpt><trkpt lat="44.9201581" lon="7.8384306"><ele>253.0</ele><time>2026-04-30T15:42:12.591Z</time></trkpt><trkpt lat="44.9202344" lon="7.8383863"><ele>250.25</ele><time>2026-04-30T15:42:13.629Z</time></trkpt><trkpt lat="44.9203144" lon="7.8383409"><ele>247.5</ele><time>2026-04-30T15:42:14.788Z</time></trkpt><trkpt lat="44.9204649" lon="7.8382452"><ele>244.75</ele><time>2026-04-30T15:42:16.778Z</time></trkpt><trkpt lat="44.9205507" lon="7.8381827"><ele>242.0</ele><time>2026-04-30T15:42:17.785Z</time></trkpt><trkpt lat="44.9207526" lon="7.8380606"><ele>242.0</ele><time>2026-04-30T15:42:19.57Z</time></trkpt><trkpt lat="44.9208788" lon="7.8379939"><ele>242.0</ele><time>2026-04-30T15:42:20.568Z</time></trkpt><trkpt lat="44.9210225" lon="7.8379345"><ele>242.0</ele><time>2026-04-30T15:42:21.589Z</time></trkpt><trkpt lat="44.9211547" lon="7.8378948"><ele>242.0</ele><time>2026-04-30T15:42:22.529Z</time></trkpt><trkpt lat="44.9213027" lon="7.8378556"><ele>242.0</ele><time>2026-04-30T15:42:23.622Z</time></trkpt><trkpt lat="44.9214316" lon="7.8378335"><ele>242.0</ele><time>2026-04-30T15:42:24.657Z</time></trkpt><trkpt lat="44.9215488" lon="7.837824"><ele>242.0</ele><time>2026-04-30T15:42:25.698Z</time></trkpt><trkpt lat="44.9217372" lon="7.8378267"><ele>242.0</ele><time>2026-04-30T15:42:27.533Z</time></trkpt><trkpt lat="44.9218315" lon="7.8378331"><ele>241.66666666666669</ele><time>2026-04-30T15:42:28.533Z</time></trkpt><trkpt lat="44.9219126" lon="7.8378424"><ele>241.33333333333334</ele><time>2026-04-30T15:42:29.541Z</time></trkpt><trkpt lat="44.9219838" lon="7.8378513"><ele>241.0</ele><time>2026-04-30T15:42:30.538Z</time></trkpt><trkpt lat="44.9220978" lon="7.8378684"><ele>240.66666666666669</ele><time>2026-04-30T15:42:32.61Z</time></trkpt><trkpt lat="44.9221719" lon="7.8378868"><ele>240.33333333333334</ele><time>2026-04-30T15:43:14.567Z</time></trkpt><trkpt lat="44.9222734" lon="7.8379068"><ele>240.0</ele><time>2026-04-30T15:43:16.612Z</time></trkpt><trkpt lat="44.9223608" lon="7.8379222"><ele>240.0</ele><time>2026-04-30T15:43:17.668Z</time></trkpt><trkpt lat="44.9224611" lon="7.8379402"><ele>240.0</ele><time>2026-04-30T15:43:18.586Z</time></trkpt><trkpt lat="44.9225924" lon="7.8379603"><ele>240.0</ele><time>2026-04-30T15:43:19.628Z</time></trkpt><trkpt lat="44.9228384" lon="7.8379901"><ele>240.5</ele><time>2026-04-30T15:43:21.521Z</time></trkpt><trkpt lat="44.9229599" lon="7.8380088"><ele>241.0</ele><time>2026-04-30T15:43:22.546Z</time></trkpt><trkpt lat="44.9230884" lon="7.838029"><ele>241.5</ele><time>2026-04-30T15:43:23.584Z</time></trkpt><trkpt lat="44.9232154" lon="7.8380437"><ele>242.0</ele><time>2026-04-30T15:43:24.592Z</time></trkpt><trkpt lat="44.9233349" lon="7.8380681"><ele>241.0</ele><time>2026-04-30T15:43:25.55Z</time></trkpt><trkpt lat="44.9234563" lon="7.8380885"><ele>240.0</ele><time>2026-04-30T15:43:26.585Z</time></trkpt><trkpt lat="44.92357" lon="7.8381093"><ele>239.0</ele><time>2026-04-30T15:43:27.539Z</time></trkpt><trkpt lat="44.9236899" lon="7.8381279"><ele>238.0</ele><time>2026-04-30T15:43:28.561Z</time></trkpt><trkpt lat="44.9238026" lon="7.8381444"><ele>238.0</ele><time>2026-04-30T15:43:29.608Z</time></trkpt><trkpt lat="44.9238853" lon="7.8381573"><ele>238.0</ele><time>2026-04-30T15:43:30.561Z</time></trkpt><trkpt lat="44.9239836" lon="7.8381645"><ele>238.0</ele><time>2026-04-30T15:43:32.521Z</time></trkpt><trkpt lat="44.924058" lon="7.8381731"><ele>238.0</ele><time>2026-04-30T15:43:34.572Z</time></trkpt><trkpt lat="44.9241797" lon="7.838199"><ele>238.0</ele><time>2026-04-30T15:43:36.627Z</time></trkpt><trkpt lat="44.924289" lon="7.8382633"><ele>238.0</ele><time>2026-04-30T15:43:38.605Z</time></trkpt><trkpt lat="44.9244247" lon="7.8383481"><ele>238.0</ele><time>2026-04-30T15:43:40.633Z</time></trkpt><trkpt lat="44.9244967" lon="7.8383523"><ele>238.0</ele><time>2026-04-30T15:43:41.555Z</time></trkpt><trkpt lat="44.9245671" lon="7.8383149"><ele>238.0</ele><time>2026-04-30T15:43:42.515Z</time></trkpt><trkpt lat="44.9246378" lon="7.8382283"><ele>238.0</ele><time>2026-04-30T15:43:43.633Z</time></trkpt><trkpt lat="44.924699" lon="7.8381222"><ele>238.0</ele><time>2026-04-30T15:43:44.61Z</time></trkpt><trkpt lat="44.9247737" lon="7.8380202"><ele>238.0</ele><time>2026-04-30T15:43:45.549Z</time></trkpt><trkpt lat="44.9248757" lon="7.8379184"><ele>238.0</ele><time>2026-04-30T15:43:46.517Z</time></trkpt><trkpt lat="44.9250012" lon="7.8378187"><ele>238.0</ele><time>2026-04-30T15:43:47.47Z</time></trkpt><trkpt lat="44.9251417" lon="7.8377002"><ele>238.0</ele><time>2026-04-30T15:43:48.502Z</time></trkpt><trkpt lat="44.9252701" lon="7.8375866"><ele>238.0</ele><time>2026-04-30T15:43:49.608Z</time></trkpt><trkpt lat="44.9253705" lon="7.8375012"><ele>238.0</ele><time>2026-04-30T15:43:50.555Z</time></trkpt><trkpt lat="44.9254712" lon="7.8374182"><ele>238.0</ele><time>2026-04-30T15:43:51.515Z</time></trkpt><trkpt lat="44.9255751" lon="7.8373261"><ele>238.0</ele><time>2026-04-30T15:43:52.534Z</time></trkpt><trkpt lat="44.9256822" lon="7.8372345"><ele>238.0</ele><time>2026-04-30T15:43:53.615Z</time></trkpt><trkpt lat="44.9257685" lon="7.8371597"><ele>238.0</ele><time>2026-04-30T15:43:54.534Z</time></trkpt><trkpt lat="44.9258652" lon="7.8370722"><ele>238.0</ele><time>2026-04-30T15:43:55.612Z</time></trkpt><trkpt lat="44.925952" lon="7.836996"><ele>238.0</ele><time>2026-04-30T15:43:56.584Z</time></trkpt><trkpt lat="44.9260367" lon="7.836921"><ele>238.0</ele><time>2026-04-30T15:43:57.561Z</time></trkpt><trkpt lat="44.926128" lon="7.836848"><ele>238.0</ele><time>2026-04-30T15:43:58.622Z</time></trkpt><trkpt lat="44.9262149" lon="7.8367707"><ele>238.0</ele><time>2026-04-30T15:43:59.775Z</time></trkpt><trkpt lat="44.9263396" lon="7.8366611"><ele>238.0</ele><time>2026-04-30T15:44:01.628Z</time></trkpt><trkpt lat="44.926414" lon="7.8366007"><ele>238.0</ele><time>2026-04-30T15:44:02.626Z</time></trkpt><trkpt lat="44.9264902" lon="7.8365382"><ele>237.8</ele><time>2026-04-30T15:44:03.553Z</time></trkpt><trkpt lat="44.9265805" lon="7.8364678"><ele>237.60000000000002</ele><time>2026-04-30T15:44:04.592Z</time></trkpt><trkpt lat="44.9266689" lon="7.8363918"><ele>237.39999999999998</ele><time>2026-04-30T15:44:05.553Z</time></trkpt><trkpt lat="44.9267718" lon="7.8363046"><ele>237.2</ele><time>2026-04-30T15:44:06.602Z</time></trkpt><trkpt lat="44.9268652" lon="7.8362237"><ele>237.0</ele><time>2026-04-30T15:44:07.582Z</time></trkpt><trkpt lat="44.9270571" lon="7.8360668"><ele>237.0</ele><time>2026-04-30T15:44:09.528Z</time></trkpt><trkpt lat="44.9271615" lon="7.8359797"><ele>237.0</ele><time>2026-04-30T15:44:10.591Z</time></trkpt><trkpt lat="44.9272533" lon="7.8359037"><ele>237.0</ele><time>2026-04-30T15:44:11.622Z</time></trkpt><trkpt lat="44.9273452" lon="7.8358301"><ele>237.0</ele><time>2026-04-30T15:44:12.708Z</time></trkpt><trkpt lat="44.9274979" lon="7.8357151"><ele>237.16666666666666</ele><time>2026-04-30T15:44:14.592Z</time></trkpt><trkpt lat="44.9275669" lon="7.8356708"><ele>237.33333333333331</ele><time>2026-04-30T15:44:15.537Z</time></trkpt><trkpt lat="44.9276555" lon="7.8356284"><ele>237.5</ele><time>2026-04-30T15:44:16.589Z</time></trkpt><trkpt lat="44.9277314" lon="7.8356244"><ele>237.66666666666666</ele><time>2026-04-30T15:44:17.596Z</time></trkpt><trkpt lat="44.9278087" lon="7.835646"><ele>237.83333333333331</ele><time>2026-04-30T15:44:18.504Z</time></trkpt><trkpt lat="44.9278761" lon="7.8357058"><ele>238.0</ele><time>2026-04-30T15:44:19.498Z</time></trkpt><trkpt lat="44.9279492" lon="7.8357984"><ele>238.0</ele><time>2026-04-30T15:44:20.533Z</time></trkpt><trkpt lat="44.9280325" lon="7.835882"><ele>238.0</ele><time>2026-04-30T15:44:21.498Z</time></trkpt><trkpt lat="44.9281483" lon="7.835957"><ele>238.0</ele><time>2026-04-30T15:44:22.568Z</time></trkpt><trkpt lat="44.9282732" lon="7.8359851"><ele>238.0</ele><time>2026-04-30T15:44:23.593Z</time></trkpt><trkpt lat="44.9283624" lon="7.8359544"><ele>238.0</ele><time>2026-04-30T15:44:24.544Z</time></trkpt><trkpt lat="44.9284375" lon="7.8359176"><ele>238.2</ele><time>2026-04-30T15:44:25.587Z</time></trkpt><trkpt lat="44.9285588" lon="7.8359032"><ele>238.4</ele><time>2026-04-30T15:44:27.5Z</time></trkpt><trkpt lat="44.9286332" lon="7.8359027"><ele>238.59999999999997</ele><time>2026-04-30T15:44:28.538Z</time></trkpt><trkpt lat="44.9287127" lon="7.8359142"><ele>238.79999999999998</ele><time>2026-04-30T15:44:29.564Z</time></trkpt><trkpt lat="44.9287953" lon="7.835926"><ele>239.0</ele><time>2026-04-30T15:44:30.582Z</time></trkpt><trkpt lat="44.9288965" lon="7.835953"><ele>239.2</ele><time>2026-04-30T15:44:31.653Z</time></trkpt><trkpt lat="44.928985" lon="7.8359736"><ele>239.39999999999998</ele><time>2026-04-30T15:44:32.582Z</time></trkpt><trkpt lat="44.9290868" lon="7.8359989"><ele>239.6</ele><time>2026-04-30T15:44:33.603Z</time></trkpt><trkpt lat="44.9291992" lon="7.8360436"><ele>239.8</ele><time>2026-04-30T15:44:34.63Z</time></trkpt><trkpt lat="44.9293082" lon="7.8360821"><ele>240.0</ele><time>2026-04-30T15:44:35.605Z</time></trkpt><trkpt lat="44.9294283" lon="7.8361236"><ele>240.25</ele><time>2026-04-30T15:44:36.66Z</time></trkpt><trkpt lat="44.9295428" lon="7.8361602"><ele>240.5</ele><time>2026-04-30T15:44:37.603Z</time></trkpt><trkpt lat="44.9296697" lon="7.836199"><ele>240.75</ele><time>2026-04-30T15:44:38.571Z</time></trkpt><trkpt lat="44.9298041" lon="7.8362431"><ele>241.0</ele><time>2026-04-30T15:44:39.558Z</time></trkpt><trkpt lat="44.9299399" lon="7.8362827"><ele>241.0</ele><time>2026-04-30T15:44:40.538Z</time></trkpt><trkpt lat="44.9300839" lon="7.836324"><ele>241.0</ele><time>2026-04-30T15:44:41.664Z</time></trkpt><trkpt lat="44.9302036" lon="7.8363555"><ele>241.0</ele><time>2026-04-30T15:44:42.567Z</time></trkpt><trkpt lat="44.9303439" lon="7.8363946"><ele>241.0</ele><time>2026-04-30T15:44:43.595Z</time></trkpt><trkpt lat="44.9304866" lon="7.8364238"><ele>241.0</ele><time>2026-04-30T15:44:44.597Z</time></trkpt><trkpt lat="44.9306413" lon="7.8364424"><ele>241.0</ele><time>2026-04-30T15:44:45.629Z</time></trkpt><trkpt lat="44.9309663" lon="7.836483"><ele>240.66666666666666</ele><time>2026-04-30T15:44:47.639Z</time></trkpt><trkpt lat="44.9311523" lon="7.8365139"><ele>240.33333333333331</ele><time>2026-04-30T15:44:48.643Z</time></trkpt><trkpt lat="44.9313461" lon="7.8365477"><ele>240.0</ele><time>2026-04-30T15:44:49.621Z</time></trkpt><trkpt lat="44.9315652" lon="7.8365944"><ele>240.0</ele><time>2026-04-30T15:44:50.602Z</time></trkpt><trkpt lat="44.9317913" lon="7.8366448"><ele>240.0</ele><time>2026-04-30T15:44:51.558Z</time></trkpt><trkpt lat="44.9320133" lon="7.8366965"><ele>240.0</ele><time>2026-04-30T15:44:52.554Z</time></trkpt><trkpt lat="44.9322337" lon="7.8367456"><ele>240.0</ele><time>2026-04-30T15:44:53.596Z</time></trkpt><trkpt lat="44.9324469" lon="7.836783"><ele>240.0</ele><time>2026-04-30T15:44:54.643Z</time></trkpt><trkpt lat="44.9326263" lon="7.8368097"><ele>240.0</ele><time>2026-04-30T15:44:55.579Z</time></trkpt><trkpt lat="44.9328178" lon="7.836833"><ele>240.0</ele><time>2026-04-30T15:44:56.643Z</time></trkpt><trkpt lat="44.932987" lon="7.8368505"><ele>240.0</ele><time>2026-04-30T15:44:57.667Z</time></trkpt><trkpt lat="44.9331361" lon="7.8368667"><ele>240.0</ele><time>2026-04-30T15:44:58.636Z</time></trkpt><trkpt lat="44.9332703" lon="7.8368877"><ele>240.0</ele><time>2026-04-30T15:44:59.546Z</time></trkpt><trkpt lat="44.9334093" lon="7.8369354"><ele>240.0</ele><time>2026-04-30T15:45:00.527Z</time></trkpt><trkpt lat="44.9335401" lon="7.8370028"><ele>240.0</ele><time>2026-04-30T15:45:01.581Z</time></trkpt><trkpt lat="44.9336761" lon="7.8370342"><ele>240.33333333333331</ele><time>2026-04-30T15:45:02.539Z</time></trkpt><trkpt lat="44.9338316" lon="7.8370284"><ele>240.66666666666666</ele><time>2026-04-30T15:45:03.581Z</time></trkpt><trkpt lat="44.9339927" lon="7.8370396"><ele>241.0</ele><time>2026-04-30T15:45:04.697Z</time></trkpt><trkpt lat="44.9342645" lon="7.8371142"><ele>241.5</ele><time>2026-04-30T15:45:06.574Z</time></trkpt><trkpt lat="44.9344018" lon="7.8371544"><ele>242.0</ele><time>2026-04-30T15:45:07.583Z</time></trkpt><trkpt lat="44.934538" lon="7.8371961"><ele>242.5</ele><time>2026-04-30T15:45:08.552Z</time></trkpt><trkpt lat="44.9346877" lon="7.8372365"><ele>243.0</ele><time>2026-04-30T15:45:09.532Z</time></trkpt><trkpt lat="44.9348721" lon="7.8372768"><ele>243.0</ele><time>2026-04-30T15:45:10.716Z</time></trkpt><trkpt lat="44.935019" lon="7.837303"><ele>243.0</ele><time>2026-04-30T15:45:11.625Z</time></trkpt><trkpt lat="44.9351737" lon="7.8373293"><ele>243.0</ele><time>2026-04-30T15:45:12.546Z</time></trkpt><trkpt lat="44.9353306" lon="7.8373553"><ele>243.0</ele><time>2026-04-30T15:45:13.509Z</time></trkpt><trkpt lat="44.9355111" lon="7.8373766"><ele>243.0</ele><time>2026-04-30T15:45:14.564Z</time></trkpt><trkpt lat="44.9356891" lon="7.8373839"><ele>243.0</ele><time>2026-04-30T15:45:15.585Z</time></trkpt><trkpt lat="44.9358697" lon="7.8373837"><ele>242.66666666666669</ele><time>2026-04-30T15:45:16.619Z</time></trkpt><trkpt lat="44.9360377" lon="7.8373732"><ele>242.33333333333334</ele><time>2026-04-30T15:45:17.569Z</time></trkpt><trkpt lat="44.93622" lon="7.8373488"><ele>242.0</ele><time>2026-04-30T15:45:18.602Z</time></trkpt><trkpt lat="44.9363968" lon="7.8373123"><ele>242.0</ele><time>2026-04-30T15:45:19.563Z</time></trkpt><trkpt lat="44.936581" lon="7.8372639"><ele>242.0</ele><time>2026-04-30T15:45:20.582Z</time></trkpt><trkpt lat="44.9367483" lon="7.837214"><ele>242.0</ele><time>2026-04-30T15:45:21.57Z</time></trkpt><trkpt lat="44.9369198" lon="7.8371567"><ele>241.66666666666669</ele><time>2026-04-30T15:45:22.58Z</time></trkpt><trkpt lat="44.9370937" lon="7.8370962"><ele>241.33333333333331</ele><time>2026-04-30T15:45:23.604Z</time></trkpt><trkpt lat="44.9372654" lon="7.8370325"><ele>241.0</ele><time>2026-04-30T15:45:24.597Z</time></trkpt><trkpt lat="44.937447" lon="7.8369648"><ele>240.66666666666666</ele><time>2026-04-30T15:45:25.602Z</time></trkpt><trkpt lat="44.9376642" lon="7.8368842"><ele>240.33333333333331</ele><time>2026-04-30T15:45:26.759Z</time></trkpt><trkpt lat="44.9378574" lon="7.8368122"><ele>240.0</ele><time>2026-04-30T15:45:27.682Z</time></trkpt><trkpt lat="44.9382485" lon="7.8366689"><ele>240.66666666666669</ele><time>2026-04-30T15:45:29.589Z</time></trkpt><trkpt lat="44.9384653" lon="7.8365871"><ele>241.33333333333334</ele><time>2026-04-30T15:45:30.64Z</time></trkpt><trkpt lat="44.938666" lon="7.8365124"><ele>242.0</ele><time>2026-04-30T15:45:31.611Z</time></trkpt><trkpt lat="44.9388566" lon="7.8364402"><ele>242.0</ele><time>2026-04-30T15:45:32.519Z</time></trkpt><trkpt lat="44.9390848" lon="7.8363551"><ele>242.0</ele><time>2026-04-30T15:45:33.585Z</time></trkpt><trkpt lat="44.9392985" lon="7.8362749"><ele>242.33333333333334</ele><time>2026-04-30T15:45:34.605Z</time></trkpt><trkpt lat="44.9394905" lon="7.8362012"><ele>242.66666666666669</ele><time>2026-04-30T15:45:35.543Z</time></trkpt><trkpt lat="44.939695" lon="7.8361254"><ele>243.0</ele><time>2026-04-30T15:45:36.52Z</time></trkpt><trkpt lat="44.9399205" lon="7.8360452"><ele>242.33333333333331</ele><time>2026-04-30T15:45:37.581Z</time></trkpt><trkpt lat="44.94014" lon="7.835976"><ele>241.66666666666666</ele><time>2026-04-30T15:45:38.59Z</time></trkpt><trkpt lat="44.9403442" lon="7.8359144"><ele>241.0</ele><time>2026-04-30T15:45:39.531Z</time></trkpt><trkpt lat="44.9405802" lon="7.8358659"><ele>242.33333333333331</ele><time>2026-04-30T15:45:40.601Z</time></trkpt><trkpt lat="44.9407942" lon="7.8358416"><ele>243.66666666666669</ele><time>2026-04-30T15:45:41.578Z</time></trkpt><trkpt lat="44.9410191" lon="7.8358299"><ele>245.0</ele><time>2026-04-30T15:45:42.609Z</time></trkpt><trkpt lat="44.941241" lon="7.8358352"><ele>245.0</ele><time>2026-04-30T15:45:43.617Z</time></trkpt><trkpt lat="44.9414446" lon="7.8358553"><ele>245.0</ele><time>2026-04-30T15:45:44.544Z</time></trkpt><trkpt lat="44.9416784" lon="7.8358821"><ele>245.0</ele><time>2026-04-30T15:45:45.577Z</time></trkpt><trkpt lat="44.9419266" lon="7.8359132"><ele>245.0</ele><time>2026-04-30T15:45:46.693Z</time></trkpt><trkpt lat="44.942342" lon="7.8359559"><ele>245.0</ele><time>2026-04-30T15:45:48.546Z</time></trkpt><trkpt lat="44.9425685" lon="7.8359811"><ele>246.0</ele><time>2026-04-30T15:45:49.517Z</time></trkpt><trkpt lat="44.9428133" lon="7.8360122"><ele>247.0</ele><time>2026-04-30T15:45:50.598Z</time></trkpt><trkpt lat="44.9430402" lon="7.8360398"><ele>247.0</ele><time>2026-04-30T15:45:51.594Z</time></trkpt><trkpt lat="44.9432636" lon="7.836063"><ele>247.0</ele><time>2026-04-30T15:45:52.589Z</time></trkpt><trkpt lat="44.9434791" lon="7.8360842"><ele>247.0</ele><time>2026-04-30T15:45:53.552Z</time></trkpt><trkpt lat="44.9437025" lon="7.8361071"><ele>247.0</ele><time>2026-04-30T15:45:54.542Z</time></trkpt><trkpt lat="44.9439606" lon="7.8361432"><ele>247.0</ele><time>2026-04-30T15:45:55.679Z</time></trkpt><trkpt lat="44.9443953" lon="7.8362481"><ele>246.0</ele><time>2026-04-30T15:45:57.529Z</time></trkpt><trkpt lat="44.944628" lon="7.8363242"><ele>245.0</ele><time>2026-04-30T15:45:58.555Z</time></trkpt><trkpt lat="44.944854" lon="7.8364045"><ele>244.0</ele><time>2026-04-30T15:45:59.54Z</time></trkpt><trkpt lat="44.9450862" lon="7.8364914"><ele>243.0</ele><time>2026-04-30T15:46:00.569Z</time></trkpt><trkpt lat="44.9453095" lon="7.8365729"><ele>243.0</ele><time>2026-04-30T15:46:01.55Z</time></trkpt><trkpt lat="44.9455239" lon="7.8366449"><ele>243.0</ele><time>2026-04-30T15:46:02.507Z</time></trkpt><trkpt lat="44.9457497" lon="7.8367229"><ele>243.0</ele><time>2026-04-30T15:46:03.53Z</time></trkpt><trkpt lat="44.9459667" lon="7.8367925"><ele>243.0</ele><time>2026-04-30T15:46:04.521Z</time></trkpt><trkpt lat="44.9462079" lon="7.8368568"><ele>243.0</ele><time>2026-04-30T15:46:05.596Z</time></trkpt><trkpt lat="44.9464245" lon="7.8369036"><ele>243.0</ele><time>2026-04-30T15:46:06.559Z</time></trkpt><trkpt lat="44.9466659" lon="7.8369492"><ele>243.0</ele><time>2026-04-30T15:46:07.612Z</time></trkpt><trkpt lat="44.9469074" lon="7.8369906"><ele>243.0</ele><time>2026-04-30T15:46:08.666Z</time></trkpt><trkpt lat="44.9471147" lon="7.8370289"><ele>243.0</ele><time>2026-04-30T15:46:09.578Z</time></trkpt><trkpt lat="44.9473438" lon="7.8370699"><ele>243.0</ele><time>2026-04-30T15:46:10.61Z</time></trkpt><trkpt lat="44.9475516" lon="7.8371061"><ele>243.0</ele><time>2026-04-30T15:46:11.548Z</time></trkpt><trkpt lat="44.9477777" lon="7.8371422"><ele>243.0</ele><time>2026-04-30T15:46:12.553Z</time></trkpt><trkpt lat="44.9479983" lon="7.837185"><ele>243.0</ele><time>2026-04-30T15:46:13.564Z</time></trkpt><trkpt lat="44.9482061" lon="7.8372264"><ele>243.0</ele><time>2026-04-30T15:46:14.525Z</time></trkpt><trkpt lat="44.9484481" lon="7.837267"><ele>243.33333333333331</ele><time>2026-04-30T15:46:15.599Z</time></trkpt><trkpt lat="44.9486676" lon="7.8373044"><ele>243.66666666666666</ele><time>2026-04-30T15:46:16.619Z</time></trkpt><trkpt lat="44.9488886" lon="7.8373454"><ele>244.0</ele><time>2026-04-30T15:46:17.571Z</time></trkpt><trkpt lat="44.9491246" lon="7.8373863"><ele>243.33333333333331</ele><time>2026-04-30T15:46:18.617Z</time></trkpt><trkpt lat="44.9493337" lon="7.8374227"><ele>242.66666666666669</ele><time>2026-04-30T15:46:19.535Z</time></trkpt><trkpt lat="44.9495706" lon="7.8374637"><ele>242.0</ele><time>2026-04-30T15:46:20.589Z</time></trkpt><trkpt lat="44.9498062" lon="7.8375083"><ele>242.0</ele><time>2026-04-30T15:46:21.611Z</time></trkpt><trkpt lat="44.9500094" lon="7.8375432"><ele>242.0</ele><time>2026-04-30T15:46:22.512Z</time></trkpt><trkpt lat="44.9502619" lon="7.8375858"><ele>243.0</ele><time>2026-04-30T15:46:23.581Z</time></trkpt><trkpt lat="44.9505269" lon="7.8376334"><ele>244.0</ele><time>2026-04-30T15:46:24.728Z</time></trkpt><trkpt lat="44.9509487" lon="7.8377099"><ele>245.0</ele><time>2026-04-30T15:46:26.548Z</time></trkpt><trkpt lat="44.9511911" lon="7.8377556"><ele>246.0</ele><time>2026-04-30T15:46:27.572Z</time></trkpt><trkpt lat="44.9514288" lon="7.8377987"><ele>246.0</ele><time>2026-04-30T15:46:28.596Z</time></trkpt><trkpt lat="44.9516767" lon="7.8378389"><ele>246.0</ele><time>2026-04-30T15:46:29.651Z</time></trkpt><trkpt lat="44.951893" lon="7.8378721"><ele>246.0</ele><time>2026-04-30T15:46:30.573Z</time></trkpt><trkpt lat="44.9521234" lon="7.8379106"><ele>246.0</ele><time>2026-04-30T15:46:31.576Z</time></trkpt><trkpt lat="44.9523477" lon="7.8379429"><ele>246.0</ele><time>2026-04-30T15:46:32.546Z</time></trkpt><trkpt lat="44.9525866" lon="7.8379698"><ele>246.0</ele><time>2026-04-30T15:46:33.575Z</time></trkpt><trkpt lat="44.952826" lon="7.8379854"><ele>246.0</ele><time>2026-04-30T15:46:34.626Z</time></trkpt><trkpt lat="44.9530348" lon="7.8379926"><ele>246.0</ele><time>2026-04-30T15:46:35.54Z</time></trkpt><trkpt lat="44.9532963" lon="7.8379914"><ele>247.0</ele><time>2026-04-30T15:46:36.735Z</time></trkpt><trkpt lat="44.9536815" lon="7.8379766"><ele>248.0</ele><time>2026-04-30T15:46:38.536Z</time></trkpt><trkpt lat="44.9538982" lon="7.8379591"><ele>248.0</ele><time>2026-04-30T15:46:39.548Z</time></trkpt><trkpt lat="44.9541299" lon="7.8379373"><ele>248.0</ele><time>2026-04-30T15:46:40.621Z</time></trkpt><trkpt lat="44.9543252" lon="7.8379211"><ele>248.0</ele><time>2026-04-30T15:46:41.536Z</time></trkpt><trkpt lat="44.9545404" lon="7.8378988"><ele>248.0</ele><time>2026-04-30T15:46:42.521Z</time></trkpt><trkpt lat="44.9547725" lon="7.8378814"><ele>248.0</ele><time>2026-04-30T15:46:43.577Z</time></trkpt><trkpt lat="44.9549739" lon="7.8378686"><ele>248.0</ele><time>2026-04-30T15:46:44.498Z</time></trkpt><trkpt lat="44.9551967" lon="7.8378641"><ele>248.0</ele><time>2026-04-30T15:46:45.544Z</time></trkpt><trkpt lat="44.9554022" lon="7.8378792"><ele>248.0</ele><time>2026-04-30T15:46:46.579Z</time></trkpt><trkpt lat="44.9555943" lon="7.8379039"><ele>248.0</ele><time>2026-04-30T15:46:47.596Z</time></trkpt><trkpt lat="44.9557799" lon="7.8379199"><ele>247.66666666666669</ele><time>2026-04-30T15:46:48.571Z</time></trkpt><trkpt lat="44.9559742" lon="7.8379775"><ele>247.33333333333331</ele><time>2026-04-30T15:46:49.612Z</time></trkpt><trkpt lat="44.9561377" lon="7.8380517"><ele>247.0</ele><time>2026-04-30T15:46:50.549Z</time></trkpt><trkpt lat="44.9563014" lon="7.8381389"><ele>247.0</ele><time>2026-04-30T15:46:51.543Z</time></trkpt><trkpt lat="44.9564783" lon="7.8382395"><ele>247.0</ele><time>2026-04-30T15:46:52.607Z</time></trkpt><trkpt lat="44.9566332" lon="7.8383202"><ele>247.0</ele><time>2026-04-30T15:46:53.557Z</time></trkpt><trkpt lat="44.9568214" lon="7.8383809"><ele>246.5</ele><time>2026-04-30T15:46:54.623Z</time></trkpt><trkpt lat="44.9570165" lon="7.8384144"><ele>246.0</ele><time>2026-04-30T15:46:55.724Z</time></trkpt><trkpt lat="44.9573453" lon="7.8384436"><ele>246.33333333333331</ele><time>2026-04-30T15:46:57.546Z</time></trkpt><trkpt lat="44.9575449" lon="7.8384673"><ele>246.66666666666666</ele><time>2026-04-30T15:46:58.618Z</time></trkpt><trkpt lat="44.957713" lon="7.8384965"><ele>247.0</ele><time>2026-04-30T15:46:59.529Z</time></trkpt><trkpt lat="44.9579407" lon="7.8385513"><ele>247.0</ele><time>2026-04-30T15:47:00.746Z</time></trkpt><trkpt lat="44.9583317" lon="7.8386663"><ele>247.0</ele><time>2026-04-30T15:47:02.697Z</time></trkpt><trkpt lat="44.9587245" lon="7.8387947"><ele>246.0</ele><time>2026-04-30T15:47:04.609Z</time></trkpt><trkpt lat="44.958942" lon="7.8388621"><ele>245.0</ele><time>2026-04-30T15:47:05.548Z</time></trkpt><trkpt lat="44.959185" lon="7.8389377"><ele>246.0</ele><time>2026-04-30T15:47:06.521Z</time></trkpt><trkpt lat="44.9594525" lon="7.839009"><ele>247.0</ele><time>2026-04-30T15:47:07.576Z</time></trkpt><trkpt lat="44.9597701" lon="7.8390926"><ele>245.0</ele><time>2026-04-30T15:47:08.779Z</time></trkpt><trkpt lat="44.9602515" lon="7.8392673"><ele>245.0</ele><time>2026-04-30T15:47:10.592Z</time></trkpt><trkpt lat="44.9605084" lon="7.8393547"><ele>245.0</ele><time>2026-04-30T15:47:11.584Z</time></trkpt><trkpt lat="44.9607839" lon="7.8394384"><ele>245.5</ele><time>2026-04-30T15:47:12.66Z</time></trkpt><trkpt lat="44.9610093" lon="7.8395074"><ele>246.0</ele><time>2026-04-30T15:47:13.601Z</time></trkpt><trkpt lat="44.9612249" lon="7.8395762"><ele>246.0</ele><time>2026-04-30T15:47:14.566Z</time></trkpt><trkpt lat="44.9614613" lon="7.8396466"><ele>246.0</ele><time>2026-04-30T15:47:15.624Z</time></trkpt><trkpt lat="44.9616685" lon="7.8397117"><ele>247.0</ele><time>2026-04-30T15:47:16.565Z</time></trkpt><trkpt lat="44.9618954" lon="7.8397856"><ele>248.0</ele><time>2026-04-30T15:47:17.58Z</time></trkpt><trkpt lat="44.962138" lon="7.8398619"><ele>248.0</ele><time>2026-04-30T15:47:18.654Z</time></trkpt><trkpt lat="44.9623684" lon="7.8399308"><ele>248.0</ele><time>2026-04-30T15:47:19.689Z</time></trkpt><trkpt lat="44.9625708" lon="7.8399932"><ele>248.0</ele><time>2026-04-30T15:47:20.631Z</time></trkpt><trkpt lat="44.962975" lon="7.8401166"><ele>249.0</ele><time>2026-04-30T15:47:22.583Z</time></trkpt><trkpt lat="44.9632034" lon="7.8401906"><ele>250.0</ele><time>2026-04-30T15:47:23.693Z</time></trkpt><trkpt lat="44.9635732" lon="7.8403076"><ele>250.0</ele><time>2026-04-30T15:47:25.569Z</time></trkpt><trkpt lat="44.9637529" lon="7.8403625"><ele>250.0</ele><time>2026-04-30T15:47:26.573Z</time></trkpt><trkpt lat="44.9639238" lon="7.8404149"><ele>250.0</ele><time>2026-04-30T15:47:27.589Z</time></trkpt><trkpt lat="44.964077" lon="7.8404623"><ele>250.75</ele><time>2026-04-30T15:47:28.562Z</time></trkpt><trkpt lat="44.9642173" lon="7.8405065"><ele>251.5</ele><time>2026-04-30T15:47:29.583Z</time></trkpt><trkpt lat="44.9643391" lon="7.840546"><ele>252.25</ele><time>2026-04-30T15:47:30.576Z</time></trkpt><trkpt lat="44.9644381" lon="7.8405771"><ele>253.0</ele><time>2026-04-30T15:47:31.562Z</time></trkpt><trkpt lat="44.9645252" lon="7.8405917"><ele>253.0</ele><time>2026-04-30T15:47:32.607Z</time></trkpt><trkpt lat="44.9646466" lon="7.8405748"><ele>253.0</ele><time>2026-04-30T15:47:34.579Z</time></trkpt><trkpt lat="44.9647448" lon="7.8404994"><ele>253.0</ele><time>2026-04-30T15:47:36.575Z</time></trkpt><trkpt lat="44.9648041" lon="7.840435"><ele>253.0</ele><time>2026-04-30T15:47:37.606Z</time></trkpt><trkpt lat="44.964854" lon="7.84034"><ele>253.0</ele><time>2026-04-30T15:47:38.512Z</time></trkpt><trkpt lat="44.9648906" lon="7.8402155"><ele>253.0</ele><time>2026-04-30T15:47:39.494Z</time></trkpt><trkpt lat="44.9649072" lon="7.8400688"><ele>253.0</ele><time>2026-04-30T15:47:40.571Z</time></trkpt><trkpt lat="44.9649016" lon="7.8399477"><ele>253.0</ele><time>2026-04-30T15:47:41.58Z</time></trkpt><trkpt lat="44.964898" lon="7.8398081"><ele>253.0</ele><time>2026-04-30T15:47:43.543Z</time></trkpt><trkpt lat="44.9648932" lon="7.8396721"><ele>253.0</ele><time>2026-04-30T15:47:45.608Z</time></trkpt><trkpt lat="44.9649087" lon="7.8395229"><ele>253.0</ele><time>2026-04-30T15:47:47.576Z</time></trkpt><trkpt lat="44.9649778" lon="7.8393843"><ele>253.0</ele><time>2026-04-30T15:47:49.645Z</time></trkpt><trkpt lat="44.9650825" lon="7.8393552"><ele>253.0</ele><time>2026-04-30T15:47:51.569Z</time></trkpt><trkpt lat="44.9651949" lon="7.8393661"><ele>253.0</ele><time>2026-04-30T15:47:53.531Z</time></trkpt><trkpt lat="44.9652915" lon="7.8393828"><ele>253.0</ele><time>2026-04-30T15:47:55.564Z</time></trkpt><trkpt lat="44.9653608" lon="7.8395102"><ele>253.2</ele><time>2026-04-30T15:47:57.587Z</time></trkpt><trkpt lat="44.9653515" lon="7.8396983"><ele>253.4</ele><time>2026-04-30T15:47:59.492Z</time></trkpt><trkpt lat="44.9653442" lon="7.8398285"><ele>253.59999999999997</ele><time>2026-04-30T15:48:00.538Z</time></trkpt><trkpt lat="44.9653404" lon="7.8399528"><ele>253.79999999999998</ele><time>2026-04-30T15:48:01.611Z</time></trkpt><trkpt lat="44.9653384" lon="7.8400699"><ele>254.0</ele><time>2026-04-30T15:48:02.535Z</time></trkpt><trkpt lat="44.9653378" lon="7.8402086"><ele>254.0</ele><time>2026-04-30T15:48:03.524Z</time></trkpt><trkpt lat="44.9653341" lon="7.8403433"><ele>253.99999999999997</ele><time>2026-04-30T15:48:04.509Z</time></trkpt><trkpt lat="44.965328" lon="7.840484"><ele>253.99999999999997</ele><time>2026-04-30T15:48:05.648Z</time></trkpt><trkpt lat="44.965327" lon="7.8406892"><ele>254.0</ele><time>2026-04-30T15:48:07.562Z</time></trkpt><trkpt lat="44.9653237" lon="7.8408075"><ele>254.0</ele><time>2026-04-30T15:48:08.581Z</time></trkpt><trkpt lat="44.9653327" lon="7.8409142"><ele>253.66666666666669</ele><time>2026-04-30T15:48:09.546Z</time></trkpt><trkpt lat="44.965347" lon="7.841014"><ele>253.33333333333334</ele><time>2026-04-30T15:48:10.506Z</time></trkpt><trkpt lat="44.9653619" lon="7.8411113"><ele>253.0</ele><time>2026-04-30T15:48:11.595Z</time></trkpt><trkpt lat="44.9653944" lon="7.8412954"><ele>252.66666666666669</ele><time>2026-04-30T15:48:13.61Z</time></trkpt><trkpt lat="44.9654176" lon="7.8413974"><ele>252.33333333333334</ele><time>2026-04-30T15:48:14.604Z</time></trkpt><trkpt lat="44.9654443" lon="7.8414824"><ele>252.0</ele><time>2026-04-30T15:48:15.545Z</time></trkpt><trkpt lat="44.965482" lon="7.8415868"><ele>252.0</ele><time>2026-04-30T15:48:16.563Z</time></trkpt><trkpt lat="44.9655254" lon="7.8417035"><ele>252.0</ele><time>2026-04-30T15:48:17.661Z</time></trkpt><trkpt lat="44.9656424" lon="7.8419416"><ele>252.0</ele><time>2026-04-30T15:48:19.729Z</time></trkpt><trkpt lat="44.9657669" lon="7.8421538"><ele>251.75</ele><time>2026-04-30T15:48:21.578Z</time></trkpt><trkpt lat="44.9658338" lon="7.8422766"><ele>251.5</ele><time>2026-04-30T15:48:22.526Z</time></trkpt><trkpt lat="44.9659172" lon="7.8424114"><ele>251.25</ele><time>2026-04-30T15:48:23.606Z</time></trkpt><trkpt lat="44.9659901" lon="7.8425273"><ele>251.0</ele><time>2026-04-30T15:48:24.567Z</time></trkpt><trkpt lat="44.9660687" lon="7.8426479"><ele>250.8</ele><time>2026-04-30T15:48:25.658Z</time></trkpt><trkpt lat="44.9661254" lon="7.842729"><ele>250.60000000000002</ele><time>2026-04-30T15:48:26.58Z</time></trkpt><trkpt lat="44.9661753" lon="7.8428072"><ele>250.4</ele><time>2026-04-30T15:48:27.577Z</time></trkpt><trkpt lat="44.9662293" lon="7.8428912"><ele>250.2</ele><time>2026-04-30T15:48:28.733Z</time></trkpt><trkpt lat="44.9663326" lon="7.8430654"><ele>250.0</ele><time>2026-04-30T15:48:30.684Z</time></trkpt><trkpt lat="44.9664378" lon="7.8432438"><ele>249.99999999999997</ele><time>2026-04-30T15:48:32.599Z</time></trkpt><trkpt lat="44.9664811" lon="7.8433238"><ele>250.0</ele><time>2026-04-30T15:48:33.534Z</time></trkpt><trkpt lat="44.9665355" lon="7.8434126"><ele>250.0</ele><time>2026-04-30T15:48:34.541Z</time></trkpt><trkpt lat="44.966588" lon="7.8435012"><ele>250.0</ele><time>2026-04-30T15:48:35.54Z</time></trkpt><trkpt lat="44.9666376" lon="7.8435841"><ele>249.99999999999997</ele><time>2026-04-30T15:48:36.578Z</time></trkpt><trkpt lat="44.9666992" lon="7.8437"><ele>250.0</ele><time>2026-04-30T15:48:38.673Z</time></trkpt><trkpt lat="44.9667796" lon="7.8438007"><ele>250.0</ele><time>2026-04-30T15:49:45.628Z</time></trkpt><trkpt lat="44.9668277" lon="7.8438642"><ele>250.0</ele><time>2026-04-30T15:49:46.583Z</time></trkpt><trkpt lat="44.966885" lon="7.8439572"><ele>250.0</ele><time>2026-04-30T15:49:47.523Z</time></trkpt><trkpt lat="44.9669575" lon="7.8440773"><ele>250.0</ele><time>2026-04-30T15:49:48.559Z</time></trkpt><trkpt lat="44.9670345" lon="7.8441965"><ele>250.0</ele><time>2026-04-30T15:49:49.579Z</time></trkpt><trkpt lat="44.9671144" lon="7.844329"><ele>249.8</ele><time>2026-04-30T15:49:50.576Z</time></trkpt><trkpt lat="44.9671877" lon="7.8444536"><ele>249.6</ele><time>2026-04-30T15:49:51.561Z</time></trkpt><trkpt lat="44.9672521" lon="7.8445612"><ele>249.39999999999998</ele><time>2026-04-30T15:49:52.567Z</time></trkpt><trkpt lat="44.9673097" lon="7.8446494"><ele>249.2</ele><time>2026-04-30T15:49:53.629Z</time></trkpt><trkpt lat="44.9673644" lon="7.8447251"><ele>249.0</ele><time>2026-04-30T15:49:54.772Z</time></trkpt><trkpt lat="44.9674379" lon="7.8447647"><ele>249.0</ele><time>2026-04-30T15:49:56.515Z</time></trkpt><trkpt lat="44.9674954" lon="7.8446329"><ele>249.0</ele><time>2026-04-30T15:49:58.662Z</time></trkpt><trkpt lat="44.9675078" lon="7.8444008"><ele>249.0</ele><time>2026-04-30T15:50:00.555Z</time></trkpt><trkpt lat="44.9675276" lon="7.8442271"><ele>249.0</ele><time>2026-04-30T15:50:01.688Z</time></trkpt><trkpt lat="44.9675847" lon="7.843909"><ele>249.0</ele><time>2026-04-30T15:50:03.555Z</time></trkpt><trkpt lat="44.9676233" lon="7.8437112"><ele>249.0</ele><time>2026-04-30T15:50:04.585Z</time></trkpt><trkpt lat="44.967656" lon="7.8435226"><ele>249.0</ele><time>2026-04-30T15:50:05.548Z</time></trkpt><trkpt lat="44.967694" lon="7.8433251"><ele>249.0</ele><time>2026-04-30T15:50:06.563Z</time></trkpt><trkpt lat="44.9677283" lon="7.8431377"><ele>249.25</ele><time>2026-04-30T15:50:07.555Z</time></trkpt><trkpt lat="44.96776" lon="7.8429691"><ele>249.5</ele><time>2026-04-30T15:50:08.548Z</time></trkpt><trkpt lat="44.9677873" lon="7.8428139"><ele>249.75</ele><time>2026-04-30T15:50:09.509Z</time></trkpt><trkpt lat="44.9678234" lon="7.8426518"><ele>250.0</ele><time>2026-04-30T15:50:10.573Z</time></trkpt><trkpt lat="44.9678615" lon="7.8424792"><ele>250.25</ele><time>2026-04-30T15:50:11.624Z</time></trkpt><trkpt lat="44.967894" lon="7.8423142"><ele>250.5</ele><time>2026-04-30T15:50:12.581Z</time></trkpt><trkpt lat="44.967934" lon="7.8421168"><ele>250.75</ele><time>2026-04-30T15:50:13.664Z</time></trkpt><trkpt lat="44.967972" lon="7.8419362"><ele>251.0</ele><time>2026-04-30T15:50:14.591Z</time></trkpt><trkpt lat="44.9680143" lon="7.8417379"><ele>251.0</ele><time>2026-04-30T15:50:15.626Z</time></trkpt><trkpt lat="44.9680476" lon="7.8415711"><ele>251.00000000000003</ele><time>2026-04-30T15:50:16.584Z</time></trkpt><trkpt lat="44.9680748" lon="7.8414258"><ele>251.00000000000003</ele><time>2026-04-30T15:50:17.508Z</time></trkpt><trkpt lat="44.9681049" lon="7.8412694"><ele>251.0</ele><time>2026-04-30T15:50:18.572Z</time></trkpt><trkpt lat="44.9681262" lon="7.8411496"><ele>251.0</ele><time>2026-04-30T15:50:19.616Z</time></trkpt><trkpt lat="44.9681633" lon="7.841027"><ele>251.0</ele><time>2026-04-30T15:50:21.573Z</time></trkpt><trkpt lat="44.9682342" lon="7.8409713"><ele>251.00000000000003</ele><time>2026-04-30T15:50:23.6Z</time></trkpt><trkpt lat="44.9683105" lon="7.8409635"><ele>251.00000000000003</ele><time>2026-04-30T15:50:24.568Z</time></trkpt><trkpt lat="44.9684165" lon="7.8409435"><ele>251.0</ele><time>2026-04-30T15:50:25.583Z</time></trkpt><trkpt lat="44.9685355" lon="7.8409287"><ele>251.0</ele><time>2026-04-30T15:50:26.585Z</time></trkpt><trkpt lat="44.9686576" lon="7.8409104"><ele>251.5</ele><time>2026-04-30T15:50:27.601Z</time></trkpt><trkpt lat="44.9687758" lon="7.8408917"><ele>252.0</ele><time>2026-04-30T15:50:28.53Z</time></trkpt><trkpt lat="44.9689216" lon="7.8408694"><ele>252.5</ele><time>2026-04-30T15:50:29.634Z</time></trkpt><trkpt lat="44.9690575" lon="7.8408481"><ele>253.0</ele><time>2026-04-30T15:50:30.58Z</time></trkpt><trkpt lat="44.9692121" lon="7.8408278"><ele>253.0</ele><time>2026-04-30T15:50:31.623Z</time></trkpt><trkpt lat="44.9693503" lon="7.8408077"><ele>253.0</ele><time>2026-04-30T15:50:32.565Z</time></trkpt><trkpt lat="44.9695154" lon="7.840783"><ele>253.0</ele><time>2026-04-30T15:50:33.654Z</time></trkpt><trkpt lat="44.969811" lon="7.8407431"><ele>253.0</ele><time>2026-04-30T15:50:35.536Z</time></trkpt><trkpt lat="44.969975" lon="7.8407112"><ele>253.0</ele><time>2026-04-30T15:50:36.539Z</time></trkpt><trkpt lat="44.9701662" lon="7.8406792"><ele>253.0</ele><time>2026-04-30T15:50:37.724Z</time></trkpt><trkpt lat="44.9704722" lon="7.8406317"><ele>253.25</ele><time>2026-04-30T15:50:39.663Z</time></trkpt><trkpt lat="44.970612" lon="7.8406104"><ele>253.5</ele><time>2026-04-30T15:50:40.621Z</time></trkpt><trkpt lat="44.9707478" lon="7.8405897"><ele>253.75</ele><time>2026-04-30T15:50:41.602Z</time></trkpt><trkpt lat="44.9708839" lon="7.8405667"><ele>254.0</ele><time>2026-04-30T15:50:42.6Z</time></trkpt><trkpt lat="44.9710127" lon="7.8405467"><ele>254.5</ele><time>2026-04-30T15:50:43.531Z</time></trkpt><trkpt lat="44.9711605" lon="7.8405237"><ele>255.0</ele><time>2026-04-30T15:50:44.633Z</time></trkpt><trkpt lat="44.9712782" lon="7.8405074"><ele>255.5</ele><time>2026-04-30T15:50:45.57Z</time></trkpt><trkpt lat="44.9714053" lon="7.8404906"><ele>256.0</ele><time>2026-04-30T15:50:46.543Z</time></trkpt><trkpt lat="44.9715435" lon="7.8404686"><ele>256.0</ele><time>2026-04-30T15:50:47.617Z</time></trkpt><trkpt lat="44.9716704" lon="7.8404508"><ele>256.0</ele><time>2026-04-30T15:50:48.734Z</time></trkpt><trkpt lat="44.9719012" lon="7.8404102"><ele>256.0</ele><time>2026-04-30T15:50:50.613Z</time></trkpt><trkpt lat="44.9720467" lon="7.8403817"><ele>255.75</ele><time>2026-04-30T15:50:51.589Z</time></trkpt><trkpt lat="44.9721925" lon="7.8403568"><ele>255.5</ele><time>2026-04-30T15:50:52.57Z</time></trkpt><trkpt lat="44.9723375" lon="7.8403363"><ele>255.25</ele><time>2026-04-30T15:50:53.593Z</time></trkpt><trkpt lat="44.9724592" lon="7.8403266"><ele>255.0</ele><time>2026-04-30T15:50:54.53Z</time></trkpt><trkpt lat="44.9725844" lon="7.8403183"><ele>255.0</ele><time>2026-04-30T15:50:55.575Z</time></trkpt><trkpt lat="44.9726944" lon="7.8403113"><ele>255.0</ele><time>2026-04-30T15:50:56.569Z</time></trkpt><trkpt lat="44.9728106" lon="7.8402949"><ele>255.0</ele><time>2026-04-30T15:50:57.604Z</time></trkpt><trkpt lat="44.972912" lon="7.8402808"><ele>255.0</ele><time>2026-04-30T15:50:58.52Z</time></trkpt><trkpt lat="44.9730195" lon="7.8402668"><ele>255.0</ele><time>2026-04-30T15:50:59.555Z</time></trkpt><trkpt lat="44.973124" lon="7.8402547"><ele>255.0</ele><time>2026-04-30T15:51:00.613Z</time></trkpt><trkpt lat="44.9732196" lon="7.8402385"><ele>255.0</ele><time>2026-04-30T15:51:01.73Z</time></trkpt><trkpt lat="44.9733415" lon="7.8402256"><ele>255.0</ele><time>2026-04-30T15:51:03.872Z</time></trkpt><trkpt lat="44.9734408" lon="7.8402033"><ele>255.0</ele><time>2026-04-30T15:51:05.638Z</time></trkpt><trkpt lat="44.9735121" lon="7.8401923"><ele>255.0</ele><time>2026-04-30T15:51:06.581Z</time></trkpt><trkpt lat="44.9736017" lon="7.8401794"><ele>255.0</ele><time>2026-04-30T15:51:07.593Z</time></trkpt><trkpt lat="44.973691" lon="7.8401659"><ele>255.0</ele><time>2026-04-30T15:51:08.545Z</time></trkpt><trkpt lat="44.9737914" lon="7.8401527"><ele>255.0</ele><time>2026-04-30T15:51:09.573Z</time></trkpt><trkpt lat="44.9738934" lon="7.8401415"><ele>255.0</ele><time>2026-04-30T15:51:10.594Z</time></trkpt><trkpt lat="44.9739944" lon="7.8401302"><ele>255.0</ele><time>2026-04-30T15:51:11.581Z</time></trkpt><trkpt lat="44.9740996" lon="7.8401131"><ele>255.0</ele><time>2026-04-30T15:51:12.529Z</time></trkpt><trkpt lat="44.9742052" lon="7.8400955"><ele>255.0</ele><time>2026-04-30T15:51:13.534Z</time></trkpt><trkpt lat="44.9743076" lon="7.8400836"><ele>255.0</ele><time>2026-04-30T15:51:14.54Z</time></trkpt><trkpt lat="44.9744223" lon="7.8400684"><ele>255.0</ele><time>2026-04-30T15:51:15.617Z</time></trkpt><trkpt lat="44.9745275" lon="7.8400523"><ele>255.0</ele><time>2026-04-30T15:51:16.567Z</time></trkpt><trkpt lat="44.9746466" lon="7.8400355"><ele>255.0</ele><time>2026-04-30T15:51:17.597Z</time></trkpt><trkpt lat="44.9747558" lon="7.8400153"><ele>255.0</ele><time>2026-04-30T15:51:18.613Z</time></trkpt><trkpt lat="44.9748429" lon="7.8400046"><ele>255.0</ele><time>2026-04-30T15:51:19.597Z</time></trkpt><trkpt lat="44.97491" lon="7.8399949"><ele>255.0</ele><time>2026-04-30T15:51:20.551Z</time></trkpt><trkpt lat="44.9749736" lon="7.8399859"><ele>255.0</ele><time>2026-04-30T15:51:21.534Z</time></trkpt><trkpt lat="44.9750415" lon="7.8399761"><ele>255.0</ele><time>2026-04-30T15:51:22.69Z</time></trkpt><trkpt lat="44.9751619" lon="7.8399584"><ele>255.0</ele><time>2026-04-30T15:51:24.53Z</time></trkpt><trkpt lat="44.9752424" lon="7.8399502"><ele>255.0</ele><time>2026-04-30T15:51:25.69Z</time></trkpt><trkpt lat="44.9754494" lon="7.8399191"><ele>255.0</ele><time>2026-04-30T15:51:28.572Z</time></trkpt><trkpt lat="44.9755332" lon="7.8399044"><ele>255.0</ele><time>2026-04-30T15:51:29.548Z</time></trkpt><trkpt lat="44.9756315" lon="7.8398896"><ele>255.0</ele><time>2026-04-30T15:51:30.572Z</time></trkpt><trkpt lat="44.9757298" lon="7.8398738"><ele>255.0</ele><time>2026-04-30T15:51:31.551Z</time></trkpt><trkpt lat="44.9758377" lon="7.8398495"><ele>255.0</ele><time>2026-04-30T15:51:32.588Z</time></trkpt><trkpt lat="44.9759528" lon="7.8398233"><ele>255.0</ele><time>2026-04-30T15:51:33.576Z</time></trkpt><trkpt lat="44.9760701" lon="7.8397948"><ele>255.0</ele><time>2026-04-30T15:51:34.573Z</time></trkpt><trkpt lat="44.9762137" lon="7.8397616"><ele>255.0</ele><time>2026-04-30T15:51:35.64Z</time></trkpt><trkpt lat="44.9763574" lon="7.8397248"><ele>255.0</ele><time>2026-04-30T15:51:36.604Z</time></trkpt><trkpt lat="44.9765069" lon="7.8396897"><ele>255.0</ele><time>2026-04-30T15:51:37.584Z</time></trkpt><trkpt lat="44.9766617" lon="7.8396533"><ele>254.66666666666669</ele><time>2026-04-30T15:51:38.618Z</time></trkpt><trkpt lat="44.9768037" lon="7.8396242"><ele>254.33333333333334</ele><time>2026-04-30T15:51:39.561Z</time></trkpt><trkpt lat="44.9769645" lon="7.8395898"><ele>254.0</ele><time>2026-04-30T15:51:40.603Z</time></trkpt><trkpt lat="44.9771147" lon="7.8395566"><ele>254.0</ele><time>2026-04-30T15:51:41.558Z</time></trkpt><trkpt lat="44.9772846" lon="7.8395202"><ele>254.0</ele><time>2026-04-30T15:51:42.591Z</time></trkpt><trkpt lat="44.9774565" lon="7.8394821"><ele>254.0</ele><time>2026-04-30T15:51:43.582Z</time></trkpt><trkpt lat="44.9776397" lon="7.8394398"><ele>254.33333333333334</ele><time>2026-04-30T15:51:44.605Z</time></trkpt><trkpt lat="44.9778211" lon="7.839395"><ele>254.66666666666669</ele><time>2026-04-30T15:51:45.591Z</time></trkpt><trkpt lat="44.9780058" lon="7.8393537"><ele>255.0</ele><time>2026-04-30T15:51:46.6Z</time></trkpt><trkpt lat="44.9781914" lon="7.8393129"><ele>255.0</ele><time>2026-04-30T15:51:47.626Z</time></trkpt><trkpt lat="44.9783652" lon="7.839269"><ele>255.0</ele><time>2026-04-30T15:51:48.545Z</time></trkpt><trkpt lat="44.978566" lon="7.8392226"><ele>255.0</ele><time>2026-04-30T15:51:49.575Z</time></trkpt><trkpt lat="44.9787665" lon="7.8391779"><ele>255.0</ele><time>2026-04-30T15:51:50.566Z</time></trkpt><trkpt lat="44.9789708" lon="7.839134"><ele>255.0</ele><time>2026-04-30T15:51:51.555Z</time></trkpt><trkpt lat="44.9791933" lon="7.8390871"><ele>255.0</ele><time>2026-04-30T15:51:52.593Z</time></trkpt><trkpt lat="44.9794119" lon="7.8390406"><ele>255.0</ele><time>2026-04-30T15:51:53.604Z</time></trkpt><trkpt lat="44.9796184" lon="7.8389968"><ele>255.0</ele><time>2026-04-30T15:51:54.566Z</time></trkpt><trkpt lat="44.9798404" lon="7.8389459"><ele>255.0</ele><time>2026-04-30T15:51:55.63Z</time></trkpt><trkpt lat="44.9800586" lon="7.8388973"><ele>255.33333333333331</ele><time>2026-04-30T15:51:56.667Z</time></trkpt><trkpt lat="44.9802545" lon="7.838854"><ele>255.66666666666666</ele><time>2026-04-30T15:51:57.61Z</time></trkpt><trkpt lat="44.9804606" lon="7.8388084"><ele>256.0</ele><time>2026-04-30T15:51:58.611Z</time></trkpt><trkpt lat="44.9806494" lon="7.8387659"><ele>255.33333333333331</ele><time>2026-04-30T15:51:59.56Z</time></trkpt><trkpt lat="44.9808772" lon="7.8387139"><ele>254.66666666666669</ele><time>2026-04-30T15:52:00.717Z</time></trkpt><trkpt lat="44.9810427" lon="7.8386767"><ele>254.0</ele><time>2026-04-30T15:52:01.557Z</time></trkpt><trkpt lat="44.9812454" lon="7.8386293"><ele>254.0</ele><time>2026-04-30T15:52:02.562Z</time></trkpt><trkpt lat="44.9814619" lon="7.8385814"><ele>254.0</ele><time>2026-04-30T15:52:03.638Z</time></trkpt><trkpt lat="44.9816488" lon="7.8385402"><ele>254.0</ele><time>2026-04-30T15:52:04.563Z</time></trkpt><trkpt lat="44.9818444" lon="7.8384943"><ele>254.0</ele><time>2026-04-30T15:52:05.513Z</time></trkpt><trkpt lat="44.9820577" lon="7.8384444"><ele>254.0</ele><time>2026-04-30T15:52:06.535Z</time></trkpt><trkpt lat="44.9822737" lon="7.8383925"><ele>254.0</ele><time>2026-04-30T15:52:07.564Z</time></trkpt><trkpt lat="44.9824798" lon="7.8383471"><ele>254.33333333333334</ele><time>2026-04-30T15:52:08.568Z</time></trkpt><trkpt lat="44.9826841" lon="7.8383019"><ele>254.66666666666669</ele><time>2026-04-30T15:52:09.625Z</time></trkpt><trkpt lat="44.9828616" lon="7.838263"><ele>255.0</ele><time>2026-04-30T15:52:10.562Z</time></trkpt><trkpt lat="44.9830682" lon="7.8382161"><ele>255.0</ele><time>2026-04-30T15:52:11.64Z</time></trkpt><trkpt lat="44.9832673" lon="7.8381734"><ele>255.0</ele><time>2026-04-30T15:52:12.68Z</time></trkpt><trkpt lat="44.9834462" lon="7.8381347"><ele>255.0</ele><time>2026-04-30T15:52:13.602Z</time></trkpt><trkpt lat="44.9836377" lon="7.8380911"><ele>256.0</ele><time>2026-04-30T15:52:14.562Z</time></trkpt><trkpt lat="44.9838547" lon="7.8380405"><ele>257.0</ele><time>2026-04-30T15:52:15.638Z</time></trkpt><trkpt lat="44.984062" lon="7.8379974"><ele>258.0</ele><time>2026-04-30T15:52:16.667Z</time></trkpt><trkpt lat="44.9844485" lon="7.8379153"><ele>258.0</ele><time>2026-04-30T15:52:18.547Z</time></trkpt><trkpt lat="44.9846639" lon="7.8378666"><ele>258.0</ele><time>2026-04-30T15:52:19.572Z</time></trkpt><trkpt lat="44.984868" lon="7.8378213"><ele>258.0</ele><time>2026-04-30T15:52:20.567Z</time></trkpt><trkpt lat="44.9850694" lon="7.8377765"><ele>257.3333333333333</ele><time>2026-04-30T15:52:21.576Z</time></trkpt><trkpt lat="44.9852771" lon="7.8377298"><ele>256.66666666666663</ele><time>2026-04-30T15:52:22.645Z</time></trkpt><trkpt lat="44.985463" lon="7.8376862"><ele>256.0</ele><time>2026-04-30T15:52:23.603Z</time></trkpt><trkpt lat="44.9856566" lon="7.8376414"><ele>256.66666666666663</ele><time>2026-04-30T15:52:24.6Z</time></trkpt><trkpt lat="44.9858519" lon="7.8375966"><ele>257.3333333333333</ele><time>2026-04-30T15:52:25.613Z</time></trkpt><trkpt lat="44.9860429" lon="7.8375527"><ele>258.0</ele><time>2026-04-30T15:52:26.621Z</time></trkpt><trkpt lat="44.9862286" lon="7.8375111"><ele>258.0</ele><time>2026-04-30T15:52:27.598Z</time></trkpt><trkpt lat="44.986424" lon="7.8374587"><ele>258.0</ele><time>2026-04-30T15:52:28.614Z</time></trkpt><trkpt lat="44.9866226" lon="7.8374062"><ele>258.0</ele><time>2026-04-30T15:52:29.584Z</time></trkpt><trkpt lat="44.9868494" lon="7.8373467"><ele>258.3333333333333</ele><time>2026-04-30T15:52:30.621Z</time></trkpt><trkpt lat="44.9870534" lon="7.837301"><ele>258.66666666666663</ele><time>2026-04-30T15:52:31.575Z</time></trkpt><trkpt lat="44.9872638" lon="7.8372502"><ele>259.0</ele><time>2026-04-30T15:52:32.589Z</time></trkpt><trkpt lat="44.9874805" lon="7.8371945"><ele>259.0</ele><time>2026-04-30T15:52:33.594Z</time></trkpt><trkpt lat="44.9877211" lon="7.8371482"><ele>259.0</ele><time>2026-04-30T15:52:34.699Z</time></trkpt><trkpt lat="44.9879291" lon="7.837109"><ele>259.0</ele><time>2026-04-30T15:52:35.64Z</time></trkpt><trkpt lat="44.9881325" lon="7.8370584"><ele>259.0</ele><time>2026-04-30T15:52:36.549Z</time></trkpt><trkpt lat="44.9883573" lon="7.8370104"><ele>259.0</ele><time>2026-04-30T15:52:37.528Z</time></trkpt><trkpt lat="44.9885994" lon="7.8369684"><ele>259.5</ele><time>2026-04-30T15:52:38.558Z</time></trkpt><trkpt lat="44.9888416" lon="7.8369181"><ele>260.0</ele><time>2026-04-30T15:52:39.581Z</time></trkpt><trkpt lat="44.9890995" lon="7.8368757"><ele>260.5</ele><time>2026-04-30T15:52:40.662Z</time></trkpt><trkpt lat="44.9893524" lon="7.8368415"><ele>261.0</ele><time>2026-04-30T15:52:41.691Z</time></trkpt><trkpt lat="44.9898262" lon="7.8368187"><ele>260.0</ele><time>2026-04-30T15:52:43.55Z</time></trkpt><trkpt lat="44.9900825" lon="7.8368184"><ele>259.0</ele><time>2026-04-30T15:52:44.531Z</time></trkpt><trkpt lat="44.9903528" lon="7.8368246"><ele>259.0</ele><time>2026-04-30T15:52:45.567Z</time></trkpt><trkpt lat="44.9906075" lon="7.8368325"><ele>259.0</ele><time>2026-04-30T15:52:46.543Z</time></trkpt><trkpt lat="44.9908773" lon="7.8368377"><ele>259.5</ele><time>2026-04-30T15:52:47.587Z</time></trkpt><trkpt lat="44.9911345" lon="7.8368441"><ele>260.0</ele><time>2026-04-30T15:52:48.576Z</time></trkpt><trkpt lat="44.9913945" lon="7.8368507"><ele>260.0</ele><time>2026-04-30T15:52:49.602Z</time></trkpt><trkpt lat="44.9916603" lon="7.8368599"><ele>260.0</ele><time>2026-04-30T15:52:50.627Z</time></trkpt><trkpt lat="44.9919013" lon="7.8368712"><ele>261.5</ele><time>2026-04-30T15:52:51.543Z</time></trkpt><trkpt lat="44.9921619" lon="7.8368778"><ele>263.0</ele><time>2026-04-30T15:52:52.544Z</time></trkpt><trkpt lat="44.9924357" lon="7.8368857"><ele>263.5</ele><time>2026-04-30T15:52:53.597Z</time></trkpt><trkpt lat="44.9926974" lon="7.8368924"><ele>264.0</ele><time>2026-04-30T15:52:54.604Z</time></trkpt><trkpt lat="44.9929689" lon="7.8369022"><ele>264.0</ele><time>2026-04-30T15:52:55.67Z</time></trkpt><trkpt lat="44.9932241" lon="7.8369137"><ele>264.0</ele><time>2026-04-30T15:52:56.691Z</time></trkpt><trkpt lat="44.9936804" lon="7.8369314"><ele>264.5</ele><time>2026-04-30T15:52:58.573Z</time></trkpt><trkpt lat="44.9939267" lon="7.8369395"><ele>265.0</ele><time>2026-04-30T15:52:59.634Z</time></trkpt><trkpt lat="44.9941539" lon="7.8369486"><ele>265.3333333333333</ele><time>2026-04-30T15:53:00.635Z</time></trkpt><trkpt lat="44.9943811" lon="7.8369541"><ele>265.6666666666667</ele><time>2026-04-30T15:53:01.64Z</time></trkpt><trkpt lat="44.9945853" lon="7.8369633"><ele>266.0</ele><time>2026-04-30T15:53:02.557Z</time></trkpt><trkpt lat="44.9948114" lon="7.8369684"><ele>266.0</ele><time>2026-04-30T15:53:03.649Z</time></trkpt><trkpt lat="44.9950037" lon="7.8369752"><ele>266.0</ele><time>2026-04-30T15:53:04.676Z</time></trkpt><trkpt lat="44.9951651" lon="7.8369811"><ele>266.0</ele><time>2026-04-30T15:53:05.615Z</time></trkpt><trkpt lat="44.9953223" lon="7.8369887"><ele>266.25</ele><time>2026-04-30T15:53:06.632Z</time></trkpt><trkpt lat="44.9954681" lon="7.8369988"><ele>266.5</ele><time>2026-04-30T15:53:07.674Z</time></trkpt><trkpt lat="44.9955842" lon="7.8370115"><ele>266.75</ele><time>2026-04-30T15:53:08.578Z</time></trkpt><trkpt lat="44.9957077" lon="7.8370276"><ele>267.0</ele><time>2026-04-30T15:53:09.623Z</time></trkpt><trkpt lat="44.9958122" lon="7.8370448"><ele>267.3333333333333</ele><time>2026-04-30T15:53:10.59Z</time></trkpt><trkpt lat="44.9959042" lon="7.8370644"><ele>267.6666666666667</ele><time>2026-04-30T15:53:11.598Z</time></trkpt><trkpt lat="44.9959923" lon="7.8370844"><ele>268.0</ele><time>2026-04-30T15:53:12.731Z</time></trkpt><trkpt lat="44.9960916" lon="7.8371043"><ele>268.33333333333337</ele><time>2026-04-30T15:53:14.613Z</time></trkpt><trkpt lat="44.9961709" lon="7.8371304"><ele>268.6666666666667</ele><time>2026-04-30T15:53:22.545Z</time></trkpt><trkpt lat="44.9962336" lon="7.8371924"><ele>269.0</ele><time>2026-04-30T15:53:25.74Z</time></trkpt><trkpt lat="44.9962884" lon="7.8372979"><ele>269.0</ele><time>2026-04-30T15:53:28.554Z</time></trkpt><trkpt lat="44.9963649" lon="7.8374535"><ele>269.0</ele><time>2026-04-30T15:53:30.608Z</time></trkpt><trkpt lat="44.9964117" lon="7.8375146"><ele>269.0</ele><time>2026-04-30T15:53:31.591Z</time></trkpt><trkpt lat="44.9964611" lon="7.8375869"><ele>269.0</ele><time>2026-04-30T15:53:32.576Z</time></trkpt><trkpt lat="44.9965044" lon="7.8376847"><ele>269.0</ele><time>2026-04-30T15:53:33.58Z</time></trkpt><trkpt lat="44.9965291" lon="7.8377766"><ele>269.0</ele><time>2026-04-30T15:53:34.523Z</time></trkpt><trkpt lat="44.9965496" lon="7.8378851"><ele>269.0</ele><time>2026-04-30T15:53:35.602Z</time></trkpt><trkpt lat="44.9965538" lon="7.8379949"><ele>269.0</ele><time>2026-04-30T15:53:36.585Z</time></trkpt><trkpt lat="44.9965622" lon="7.8381071"><ele>269.0</ele><time>2026-04-30T15:53:37.583Z</time></trkpt><trkpt lat="44.9965729" lon="7.8382367"><ele>269.0</ele><time>2026-04-30T15:53:38.589Z</time></trkpt><trkpt lat="44.9965824" lon="7.8383924"><ele>269.0</ele><time>2026-04-30T15:53:39.592Z</time></trkpt><trkpt lat="44.9965942" lon="7.8385572"><ele>268.75</ele><time>2026-04-30T15:53:40.581Z</time></trkpt><trkpt lat="44.9966113" lon="7.8387315"><ele>268.5</ele><time>2026-04-30T15:53:41.56Z</time></trkpt><trkpt lat="44.996625" lon="7.838902"><ele>268.25</ele><time>2026-04-30T15:53:42.515Z</time></trkpt><trkpt lat="44.9966407" lon="7.8391018"><ele>268.0</ele><time>2026-04-30T15:53:43.778Z</time></trkpt><trkpt lat="44.9966509" lon="7.8392058"><ele>268.0</ele><time>2026-04-30T15:53:44.735Z</time></trkpt><trkpt lat="44.9966798" lon="7.8394072"><ele>268.0</ele><time>2026-04-30T15:53:46.633Z</time></trkpt><trkpt lat="44.9967028" lon="7.8395526"><ele>268.0</ele><time>2026-04-30T15:53:47.599Z</time></trkpt><trkpt lat="44.9967257" lon="7.839741"><ele>268.0</ele><time>2026-04-30T15:53:48.661Z</time></trkpt><trkpt lat="44.9967536" lon="7.8399221"><ele>268.0</ele><time>2026-04-30T15:53:49.626Z</time></trkpt><trkpt lat="44.996793" lon="7.8401315"><ele>268.0</ele><time>2026-04-30T15:53:50.579Z</time></trkpt><trkpt lat="44.9968281" lon="7.8403364"><ele>268.0</ele><time>2026-04-30T15:53:51.612Z</time></trkpt><trkpt lat="44.9968576" lon="7.8405249"><ele>268.0</ele><time>2026-04-30T15:53:52.655Z</time></trkpt><trkpt lat="44.9969309" lon="7.8408897"><ele>267.5</ele><time>2026-04-30T15:53:54.583Z</time></trkpt><trkpt lat="44.9969768" lon="7.8410903"><ele>267.0</ele><time>2026-04-30T15:53:55.59Z</time></trkpt><trkpt lat="44.9970249" lon="7.8412787"><ele>266.5</ele><time>2026-04-30T15:53:56.533Z</time></trkpt><trkpt lat="44.9970762" lon="7.841491"><ele>266.0</ele><time>2026-04-30T15:53:57.584Z</time></trkpt><trkpt lat="44.99713" lon="7.8416966"><ele>266.0</ele><time>2026-04-30T15:53:58.657Z</time></trkpt><trkpt lat="44.9971755" lon="7.8418716"><ele>266.0</ele><time>2026-04-30T15:53:59.668Z</time></trkpt><trkpt lat="44.9972504" lon="7.8421547"><ele>266.0</ele><time>2026-04-30T15:54:01.521Z</time></trkpt><trkpt lat="44.9972894" lon="7.8422972"><ele>266.0</ele><time>2026-04-30T15:54:02.595Z</time></trkpt><trkpt lat="44.997339" lon="7.8424492"><ele>266.0</ele><time>2026-04-30T15:54:03.737Z</time></trkpt><trkpt lat="44.9973822" lon="7.8425872"><ele>266.0</ele><time>2026-04-30T15:54:04.643Z</time></trkpt><trkpt lat="44.9974334" lon="7.8427592"><ele>266.0</ele><time>2026-04-30T15:54:05.569Z</time></trkpt><trkpt lat="44.9974942" lon="7.8429516"><ele>265.0</ele><time>2026-04-30T15:54:06.565Z</time></trkpt><trkpt lat="44.9975638" lon="7.8431526"><ele>264.0</ele><time>2026-04-30T15:54:07.509Z</time></trkpt><trkpt lat="44.9976574" lon="7.8433959"><ele>263.0</ele><time>2026-04-30T15:54:08.616Z</time></trkpt><trkpt lat="44.9977425" lon="7.8436045"><ele>262.33333333333337</ele><time>2026-04-30T15:54:09.55Z</time></trkpt><trkpt lat="44.9978386" lon="7.8438291"><ele>261.6666666666667</ele><time>2026-04-30T15:54:10.563Z</time></trkpt><trkpt lat="44.9979376" lon="7.8440516"><ele>261.0</ele><time>2026-04-30T15:54:11.585Z</time></trkpt><trkpt lat="44.998032" lon="7.8442633"><ele>261.25</ele><time>2026-04-30T15:54:12.59Z</time></trkpt><trkpt lat="44.9981177" lon="7.8444536"><ele>261.5</ele><time>2026-04-30T15:54:13.551Z</time></trkpt><trkpt lat="44.9981951" lon="7.844614"><ele>261.75</ele><time>2026-04-30T15:54:14.555Z</time></trkpt><trkpt lat="44.9982745" lon="7.8447682"><ele>262.0</ele><time>2026-04-30T15:54:15.628Z</time></trkpt><trkpt lat="44.9983457" lon="7.8449049"><ele>262.25</ele><time>2026-04-30T15:54:16.579Z</time></trkpt><trkpt lat="44.9984247" lon="7.8450582"><ele>262.5</ele><time>2026-04-30T15:54:17.591Z</time></trkpt><trkpt lat="44.9985081" lon="7.8452168"><ele>262.75</ele><time>2026-04-30T15:54:18.594Z</time></trkpt><trkpt lat="44.9986051" lon="7.8453782"><ele>263.0</ele><time>2026-04-30T15:54:19.553Z</time></trkpt><trkpt lat="44.9987105" lon="7.8455564"><ele>263.6666666666667</ele><time>2026-04-30T15:54:20.548Z</time></trkpt><trkpt lat="44.9988265" lon="7.8457472"><ele>264.3333333333333</ele><time>2026-04-30T15:54:21.615Z</time></trkpt><trkpt lat="44.9989394" lon="7.8459312"><ele>265.0</ele><time>2026-04-30T15:54:22.698Z</time></trkpt><trkpt lat="44.9991171" lon="7.8462001"><ele>265.25</ele><time>2026-04-30T15:54:24.587Z</time></trkpt><trkpt lat="44.99921" lon="7.8463281"><ele>265.5</ele><time>2026-04-30T15:54:25.573Z</time></trkpt><trkpt lat="44.9993092" lon="7.8464713"><ele>265.75</ele><time>2026-04-30T15:54:26.618Z</time></trkpt><trkpt lat="44.9993963" lon="7.8465927"><ele>266.0</ele><time>2026-04-30T15:54:27.577Z</time></trkpt><trkpt lat="44.9994893" lon="7.8467188"><ele>265.6</ele><time>2026-04-30T15:54:28.603Z</time></trkpt><trkpt lat="44.9995791" lon="7.8468279"><ele>265.20000000000005</ele><time>2026-04-30T15:54:29.637Z</time></trkpt><trkpt lat="44.9996465" lon="7.8469119"><ele>264.79999999999995</ele><time>2026-04-30T15:54:30.548Z</time></trkpt><trkpt lat="44.999714" lon="7.8470004"><ele>264.4</ele><time>2026-04-30T15:54:31.69Z</time></trkpt><trkpt lat="44.9997602" lon="7.8470628"><ele>264.0</ele><time>2026-04-30T15:54:32.622Z</time></trkpt><trkpt lat="44.9998342" lon="7.847194"><ele>264.0</ele><time>2026-04-30T15:54:34.786Z</time></trkpt><trkpt lat="44.9998929" lon="7.8473248"><ele>264.0</ele><time>2026-04-30T15:54:37.59Z</time></trkpt><trkpt lat="44.9999057" lon="7.8474139"><ele>264.0</ele><time>2026-04-30T15:54:38.552Z</time></trkpt><trkpt lat="44.9999281" lon="7.847533"><ele>264.0</ele><time>2026-04-30T15:54:39.571Z</time></trkpt><trkpt lat="44.9999709" lon="7.8476397"><ele>264.0</ele><time>2026-04-30T15:54:40.604Z</time></trkpt><trkpt lat="45.0000311" lon="7.8477083"><ele>264.0</ele><time>2026-04-30T15:54:41.553Z</time></trkpt><trkpt lat="45.0001084" lon="7.8477358"><ele>264.0</ele><time>2026-04-30T15:54:42.533Z</time></trkpt><trkpt lat="45.0002041" lon="7.8477228"><ele>264.0</ele><time>2026-04-30T15:54:43.527Z</time></trkpt><trkpt lat="45.0003169" lon="7.8476737"><ele>264.0</ele><time>2026-04-30T15:54:44.544Z</time></trkpt><trkpt lat="45.0004453" lon="7.8476346"><ele>264.0</ele><time>2026-04-30T15:54:45.591Z</time></trkpt><trkpt lat="45.0005948" lon="7.847644"><ele>264.0</ele><time>2026-04-30T15:54:46.645Z</time></trkpt><trkpt lat="45.0007334" lon="7.8476927"><ele>264.0</ele><time>2026-04-30T15:54:47.601Z</time></trkpt><trkpt lat="45.0008918" lon="7.8477484"><ele>264.0</ele><time>2026-04-30T15:54:48.585Z</time></trkpt><trkpt lat="45.0010614" lon="7.8478011"><ele>264.0</ele><time>2026-04-30T15:54:49.579Z</time></trkpt><trkpt lat="45.0012411" lon="7.8478564"><ele>264.0</ele><time>2026-04-30T15:54:50.511Z</time></trkpt><trkpt lat="45.0014625" lon="7.8479363"><ele>264.0</ele><time>2026-04-30T15:54:51.568Z</time></trkpt><trkpt lat="45.0016875" lon="7.8480269"><ele>265.0</ele><time>2026-04-30T15:54:52.582Z</time></trkpt><trkpt lat="45.0019226" lon="7.8481138"><ele>266.0</ele><time>2026-04-30T15:54:53.596Z</time></trkpt><trkpt lat="45.0021623" lon="7.8481991"><ele>266.0</ele><time>2026-04-30T15:54:54.562Z</time></trkpt><trkpt lat="45.0024264" lon="7.8482934"><ele>266.0</ele><time>2026-04-30T15:54:55.612Z</time></trkpt><trkpt lat="45.00267" lon="7.8483839"><ele>265.0</ele><time>2026-04-30T15:54:56.586Z</time></trkpt><trkpt lat="45.0029238" lon="7.8484759"><ele>264.0</ele><time>2026-04-30T15:54:57.552Z</time></trkpt><trkpt lat="45.0031926" lon="7.8485706"><ele>264.5</ele><time>2026-04-30T15:54:58.626Z</time></trkpt><trkpt lat="45.0034141" lon="7.848648"><ele>265.0</ele><time>2026-04-30T15:54:59.54Z</time></trkpt><trkpt lat="45.0036653" lon="7.8487356"><ele>265.0</ele><time>2026-04-30T15:55:00.595Z</time></trkpt><trkpt lat="45.0039009" lon="7.8488185"><ele>265.0</ele><time>2026-04-30T15:55:01.592Z</time></trkpt><trkpt lat="45.0041346" lon="7.8489061"><ele>264.0</ele><time>2026-04-30T15:55:02.598Z</time></trkpt><trkpt lat="45.0043605" lon="7.8489964"><ele>263.0</ele><time>2026-04-30T15:55:03.557Z</time></trkpt><trkpt lat="45.0046009" lon="7.8490937"><ele>263.0</ele><time>2026-04-30T15:55:04.61Z</time></trkpt><trkpt lat="45.0048072" lon="7.849186"><ele>263.0</ele><time>2026-04-30T15:55:05.58Z</time></trkpt><trkpt lat="45.0049981" lon="7.8492718"><ele>263.0</ele><time>2026-04-30T15:55:06.551Z</time></trkpt><trkpt lat="45.0051869" lon="7.8493585"><ele>265.0</ele><time>2026-04-30T15:55:07.584Z</time></trkpt><trkpt lat="45.0053762" lon="7.8494473"><ele>267.0</ele><time>2026-04-30T15:55:08.653Z</time></trkpt><trkpt lat="45.005555" lon="7.8495281"><ele>269.0</ele><time>2026-04-30T15:55:09.601Z</time></trkpt><trkpt lat="45.0057563" lon="7.849616"><ele>268.0</ele><time>2026-04-30T15:55:10.619Z</time></trkpt><trkpt lat="45.0059488" lon="7.8497087"><ele>267.0</ele><time>2026-04-30T15:55:11.565Z</time></trkpt><trkpt lat="45.0061547" lon="7.8498177"><ele>266.0</ele><time>2026-04-30T15:55:12.565Z</time></trkpt><trkpt lat="45.0063712" lon="7.8499173"><ele>266.0</ele><time>2026-04-30T15:55:13.519Z</time></trkpt><trkpt lat="45.0066259" lon="7.850043"><ele>266.0</ele><time>2026-04-30T15:55:14.569Z</time></trkpt><trkpt lat="45.0068796" lon="7.8501766"><ele>268.0</ele><time>2026-04-30T15:55:15.607Z</time></trkpt><trkpt lat="45.0071198" lon="7.8503111"><ele>270.0</ele><time>2026-04-30T15:55:16.583Z</time></trkpt><trkpt lat="45.0073704" lon="7.8504428"><ele>271.0</ele><time>2026-04-30T15:55:17.606Z</time></trkpt><trkpt lat="45.0076069" lon="7.8505645"><ele>272.0</ele><time>2026-04-30T15:55:18.581Z</time></trkpt><trkpt lat="45.0078672" lon="7.8506954"><ele>272.0</ele><time>2026-04-30T15:55:19.642Z</time></trkpt><trkpt lat="45.0080959" lon="7.8508128"><ele>272.0</ele><time>2026-04-30T15:55:20.59Z</time></trkpt><trkpt lat="45.0083303" lon="7.8509357"><ele>271.5</ele><time>2026-04-30T15:55:21.556Z</time></trkpt><trkpt lat="45.0085799" lon="7.8510609"><ele>271.0</ele><time>2026-04-30T15:55:22.626Z</time></trkpt><trkpt lat="45.0088227" lon="7.8511825"><ele>271.0</ele><time>2026-04-30T15:55:23.663Z</time></trkpt><trkpt lat="45.0090362" lon="7.8512895"><ele>271.0</ele><time>2026-04-30T15:55:24.614Z</time></trkpt><trkpt lat="45.0092523" lon="7.8513972"><ele>270.5</ele><time>2026-04-30T15:55:25.613Z</time></trkpt><trkpt lat="45.0094495" lon="7.8515108"><ele>270.0</ele><time>2026-04-30T15:55:26.549Z</time></trkpt><trkpt lat="45.009667" lon="7.8516566"><ele>269.0</ele><time>2026-04-30T15:55:27.598Z</time></trkpt><trkpt lat="45.0098922" lon="7.8518271"><ele>268.0</ele><time>2026-04-30T15:55:28.658Z</time></trkpt><trkpt lat="45.0103197" lon="7.852184"><ele>268.0</ele><time>2026-04-30T15:55:30.656Z</time></trkpt><trkpt lat="45.010514" lon="7.8523521"><ele>268.0</ele><time>2026-04-30T15:55:31.584Z</time></trkpt><trkpt lat="45.0107417" lon="7.852533"><ele>269.5</ele><time>2026-04-30T15:55:32.602Z</time></trkpt><trkpt lat="45.010985" lon="7.8527018"><ele>271.0</ele><time>2026-04-30T15:55:33.638Z</time></trkpt><trkpt lat="45.0112133" lon="7.852842"><ele>271.0</ele><time>2026-04-30T15:55:34.591Z</time></trkpt><trkpt lat="45.0114487" lon="7.8529708"><ele>271.0</ele><time>2026-04-30T15:55:35.584Z</time></trkpt><trkpt lat="45.011674" lon="7.853081"><ele>270.66666666666663</ele><time>2026-04-30T15:55:36.583Z</time></trkpt><trkpt lat="45.0118946" lon="7.8531843"><ele>270.3333333333333</ele><time>2026-04-30T15:55:37.634Z</time></trkpt><trkpt lat="45.012081" lon="7.8532578"><ele>270.0</ele><time>2026-04-30T15:55:38.593Z</time></trkpt><trkpt lat="45.0122536" lon="7.8533225"><ele>270.0</ele><time>2026-04-30T15:55:39.62Z</time></trkpt><trkpt lat="45.0124063" lon="7.8533736"><ele>270.0</ele><time>2026-04-30T15:55:40.651Z</time></trkpt><trkpt lat="45.0125366" lon="7.8534165"><ele>270.0</ele><time>2026-04-30T15:55:41.646Z</time></trkpt><trkpt lat="45.0127335" lon="7.8535425"><ele>270.2</ele><time>2026-04-30T15:55:43.588Z</time></trkpt><trkpt lat="45.012818" lon="7.8536397"><ele>270.4</ele><time>2026-04-30T15:55:44.585Z</time></trkpt><trkpt lat="45.0129073" lon="7.8537144"><ele>270.6</ele><time>2026-04-30T15:55:45.532Z</time></trkpt><trkpt lat="45.0130064" lon="7.8537437"><ele>270.8</ele><time>2026-04-30T15:55:46.538Z</time></trkpt><trkpt lat="45.0131104" lon="7.8537058"><ele>271.0</ele><time>2026-04-30T15:55:47.587Z</time></trkpt><trkpt lat="45.0132026" lon="7.8536182"><ele>271.0</ele><time>2026-04-30T15:55:48.531Z</time></trkpt><trkpt lat="45.0133206" lon="7.8535252"><ele>271.0</ele><time>2026-04-30T15:55:49.544Z</time></trkpt><trkpt lat="45.0134695" lon="7.8534658"><ele>271.0</ele><time>2026-04-30T15:55:50.554Z</time></trkpt><trkpt lat="45.0136777" lon="7.8534484"><ele>272.5</ele><time>2026-04-30T15:55:51.693Z</time></trkpt><trkpt lat="45.0140944" lon="7.8534152"><ele>274.0</ele><time>2026-04-30T15:55:53.617Z</time></trkpt><trkpt lat="45.0143088" lon="7.8534006"><ele>274.0</ele><time>2026-04-30T15:55:54.565Z</time></trkpt><trkpt lat="45.0145349" lon="7.853387"><ele>274.0</ele><time>2026-04-30T15:55:55.513Z</time></trkpt><trkpt lat="45.0147716" lon="7.853377"><ele>274.5</ele><time>2026-04-30T15:55:56.519Z</time></trkpt><trkpt lat="45.0150107" lon="7.853372"><ele>275.0</ele><time>2026-04-30T15:55:57.542Z</time></trkpt><trkpt lat="45.0152519" lon="7.8533674"><ele>275.0</ele><time>2026-04-30T15:55:58.535Z</time></trkpt><trkpt lat="45.0154959" lon="7.8533697"><ele>275.0</ele><time>2026-04-30T15:55:59.527Z</time></trkpt><trkpt lat="45.0157497" lon="7.8533732"><ele>275.0</ele><time>2026-04-30T15:56:00.562Z</time></trkpt><trkpt lat="45.016002" lon="7.8533804"><ele>275.0</ele><time>2026-04-30T15:56:01.601Z</time></trkpt><trkpt lat="45.0162482" lon="7.8533897"><ele>275.0</ele><time>2026-04-30T15:56:02.606Z</time></trkpt><trkpt lat="45.0164883" lon="7.8533986"><ele>275.0</ele><time>2026-04-30T15:56:03.581Z</time></trkpt><trkpt lat="45.0167347" lon="7.8534081"><ele>275.0</ele><time>2026-04-30T15:56:04.567Z</time></trkpt><trkpt lat="45.0169841" lon="7.8534277"><ele>275.0</ele><time>2026-04-30T15:56:05.589Z</time></trkpt><trkpt lat="45.017227" lon="7.8534552"><ele>274.5</ele><time>2026-04-30T15:56:06.592Z</time></trkpt><trkpt lat="45.017461" lon="7.8534824"><ele>274.0</ele><time>2026-04-30T15:56:07.549Z</time></trkpt><trkpt lat="45.0177567" lon="7.8535194"><ele>275.0</ele><time>2026-04-30T15:56:08.749Z</time></trkpt><trkpt lat="45.018174" lon="7.8535958"><ele>276.0</ele><time>2026-04-30T15:56:10.559Z</time></trkpt><trkpt lat="45.0183933" lon="7.8536375"><ele>276.6666666666667</ele><time>2026-04-30T15:56:11.598Z</time></trkpt><trkpt lat="45.0185741" lon="7.8536736"><ele>277.33333333333337</ele><time>2026-04-30T15:56:12.519Z</time></trkpt><trkpt lat="45.0188092" lon="7.8537191"><ele>278.0</ele><time>2026-04-30T15:56:13.693Z</time></trkpt><trkpt lat="45.0189947" lon="7.8537501"><ele>278.6666666666667</ele><time>2026-04-30T15:56:14.626Z</time></trkpt><trkpt lat="45.0191789" lon="7.8537736"><ele>279.3333333333333</ele><time>2026-04-30T15:56:15.55Z</time></trkpt><trkpt lat="45.0193737" lon="7.8537915"><ele>280.0</ele><time>2026-04-30T15:56:16.572Z</time></trkpt><trkpt lat="45.0195555" lon="7.8537996"><ele>280.0</ele><time>2026-04-30T15:56:17.544Z</time></trkpt><trkpt lat="45.0197263" lon="7.8537977"><ele>280.0</ele><time>2026-04-30T15:56:18.521Z</time></trkpt><trkpt lat="45.019893" lon="7.8537888"><ele>280.0</ele><time>2026-04-30T15:56:19.52Z</time></trkpt><trkpt lat="45.0200749" lon="7.85377"><ele>280.0</ele><time>2026-04-30T15:56:20.626Z</time></trkpt><trkpt lat="45.0202464" lon="7.8537497"><ele>280.0</ele><time>2026-04-30T15:56:21.654Z</time></trkpt><trkpt lat="45.020404" lon="7.853725"><ele>280.0</ele><time>2026-04-30T15:56:22.574Z</time></trkpt><trkpt lat="45.0205844" lon="7.8536913"><ele>280.0</ele><time>2026-04-30T15:56:23.61Z</time></trkpt><trkpt lat="45.0207557" lon="7.8536524"><ele>280.0</ele><time>2026-04-30T15:56:24.588Z</time></trkpt><trkpt lat="45.0209357" lon="7.8535958"><ele>280.0</ele><time>2026-04-30T15:56:25.58Z</time></trkpt><trkpt lat="45.0211359" lon="7.8535248"><ele>281.5</ele><time>2026-04-30T15:56:26.589Z</time></trkpt><trkpt lat="45.0213424" lon="7.8534376"><ele>283.0</ele><time>2026-04-30T15:56:27.546Z</time></trkpt><trkpt lat="45.0215919" lon="7.8533351"><ele>282.0</ele><time>2026-04-30T15:56:28.711Z</time></trkpt><trkpt lat="45.0220437" lon="7.8531336"><ele>282.0</ele><time>2026-04-30T15:56:30.723Z</time></trkpt><trkpt lat="45.0225138" lon="7.8529208"><ele>282.0</ele><time>2026-04-30T15:56:32.598Z</time></trkpt><trkpt lat="45.0227739" lon="7.8528005"><ele>282.0</ele><time>2026-04-30T15:56:33.568Z</time></trkpt><trkpt lat="45.0230572" lon="7.852676"><ele>282.5</ele><time>2026-04-30T15:56:34.584Z</time></trkpt><trkpt lat="45.0233244" lon="7.8525645"><ele>283.0</ele><time>2026-04-30T15:56:35.58Z</time></trkpt><trkpt lat="45.0235847" lon="7.8524581"><ele>283.0</ele><time>2026-04-30T15:56:36.612Z</time></trkpt><trkpt lat="45.0238055" lon="7.8523589"><ele>283.0</ele><time>2026-04-30T15:56:37.544Z</time></trkpt><trkpt lat="45.0240308" lon="7.8522487"><ele>282.3333333333333</ele><time>2026-04-30T15:56:38.627Z</time></trkpt><trkpt lat="45.0242037" lon="7.85217"><ele>281.6666666666667</ele><time>2026-04-30T15:56:39.599Z</time></trkpt><trkpt lat="45.0243605" lon="7.8520892"><ele>281.0</ele><time>2026-04-30T15:56:40.602Z</time></trkpt><trkpt lat="45.0244946" lon="7.8520184"><ele>281.0</ele><time>2026-04-30T15:56:41.524Z</time></trkpt><trkpt lat="45.0246464" lon="7.8519406"><ele>281.0</ele><time>2026-04-30T15:56:42.61Z</time></trkpt><trkpt lat="45.0247827" lon="7.8518641"><ele>281.0</ele><time>2026-04-30T15:56:43.591Z</time></trkpt><trkpt lat="45.0249204" lon="7.8517751"><ele>282.0</ele><time>2026-04-30T15:56:44.568Z</time></trkpt><trkpt lat="45.0250588" lon="7.8516704"><ele>283.0</ele><time>2026-04-30T15:56:45.556Z</time></trkpt><trkpt lat="45.0251971" lon="7.8515579"><ele>284.0</ele><time>2026-04-30T15:56:46.582Z</time></trkpt><trkpt lat="45.0253359" lon="7.8514268"><ele>284.0</ele><time>2026-04-30T15:56:47.618Z</time></trkpt><trkpt lat="45.0254864" lon="7.8512838"><ele>284.0</ele><time>2026-04-30T15:56:48.673Z</time></trkpt><trkpt lat="45.0256064" lon="7.8511722"><ele>284.0</ele><time>2026-04-30T15:56:49.592Z</time></trkpt><trkpt lat="45.0257251" lon="7.8510651"><ele>284.5</ele><time>2026-04-30T15:56:50.568Z</time></trkpt><trkpt lat="45.0258332" lon="7.8509671"><ele>285.0</ele><time>2026-04-30T15:56:51.586Z</time></trkpt><trkpt lat="45.0259271" lon="7.8508805"><ele>285.5</ele><time>2026-04-30T15:56:52.564Z</time></trkpt><trkpt lat="45.0260183" lon="7.8507991"><ele>286.0</ele><time>2026-04-30T15:56:53.554Z</time></trkpt><trkpt lat="45.0261118" lon="7.8507172"><ele>286.0</ele><time>2026-04-30T15:56:54.703Z</time></trkpt><trkpt lat="45.0262221" lon="7.85062"><ele>286.0</ele><time>2026-04-30T15:56:56.554Z</time></trkpt><trkpt lat="45.0263544" lon="7.8505013"><ele>286.0</ele><time>2026-04-30T15:56:59.542Z</time></trkpt><trkpt lat="45.0264499" lon="7.8504604"><ele>286.0</ele><time>2026-04-30T15:57:01.568Z</time></trkpt><trkpt lat="45.0265906" lon="7.8504564"><ele>286.3333333333333</ele><time>2026-04-30T15:57:03.55Z</time></trkpt><trkpt lat="45.0266785" lon="7.8504475"><ele>286.66666666666663</ele><time>2026-04-30T15:57:04.588Z</time></trkpt><trkpt lat="45.0267417" lon="7.8504134"><ele>287.0</ele><time>2026-04-30T15:57:05.518Z</time></trkpt><trkpt lat="45.0268" lon="7.850341"><ele>287.3333333333333</ele><time>2026-04-30T15:57:06.575Z</time></trkpt><trkpt lat="45.0268268" lon="7.8502434"><ele>287.6666666666667</ele><time>2026-04-30T15:57:07.555Z</time></trkpt><trkpt lat="45.0268183" lon="7.8501427"><ele>288.0</ele><time>2026-04-30T15:57:08.564Z</time></trkpt><trkpt lat="45.0267834" lon="7.8500538"><ele>287.8333333333333</ele><time>2026-04-30T15:57:09.506Z</time></trkpt><trkpt lat="45.0267163" lon="7.8499938"><ele>287.6666666666667</ele><time>2026-04-30T15:57:10.558Z</time></trkpt><trkpt lat="45.0266404" lon="7.8499715"><ele>287.5</ele><time>2026-04-30T15:57:11.559Z</time></trkpt><trkpt lat="45.0265706" lon="7.8499998"><ele>287.33333333333337</ele><time>2026-04-30T15:57:12.547Z</time></trkpt><trkpt lat="45.0265167" lon="7.8500624"><ele>287.1666666666667</ele><time>2026-04-30T15:57:13.578Z</time></trkpt><trkpt lat="45.0264956" lon="7.8501516"><ele>287.0</ele><time>2026-04-30T15:57:14.508Z</time></trkpt><trkpt lat="45.0264968" lon="7.8502766"><ele>286.83333333333337</ele><time>2026-04-30T15:57:15.638Z</time></trkpt><trkpt lat="45.0265293" lon="7.8503538"><ele>286.6666666666667</ele><time>2026-04-30T15:57:16.573Z</time></trkpt><trkpt lat="45.0265889" lon="7.8504206"><ele>286.5</ele><time>2026-04-30T15:57:17.574Z</time></trkpt><trkpt lat="45.0266617" lon="7.8504417"><ele>286.3333333333333</ele><time>2026-04-30T15:57:18.523Z</time></trkpt><trkpt lat="45.0267488" lon="7.8504168"><ele>286.16666666666663</ele><time>2026-04-30T15:57:19.555Z</time></trkpt><trkpt lat="45.0268332" lon="7.8503541"><ele>286.0</ele><time>2026-04-30T15:57:20.592Z</time></trkpt><trkpt lat="45.0269106" lon="7.8503138"><ele>286.40000000000003</ele><time>2026-04-30T15:57:21.579Z</time></trkpt><trkpt lat="45.0269976" lon="7.8503324"><ele>286.8</ele><time>2026-04-30T15:57:22.538Z</time></trkpt><trkpt lat="45.0270983" lon="7.8503821"><ele>287.20000000000005</ele><time>2026-04-30T15:57:23.525Z</time></trkpt><trkpt lat="45.0272047" lon="7.850442"><ele>287.6</ele><time>2026-04-30T15:57:24.563Z</time></trkpt><trkpt lat="45.027315" lon="7.8505022"><ele>288.0</ele><time>2026-04-30T15:57:25.615Z</time></trkpt><trkpt lat="45.02743" lon="7.8505696"><ele>288.3333333333333</ele><time>2026-04-30T15:57:26.632Z</time></trkpt><trkpt lat="45.0275364" lon="7.850628"><ele>288.66666666666663</ele><time>2026-04-30T15:57:27.58Z</time></trkpt><trkpt lat="45.0276726" lon="7.8507057"><ele>289.0</ele><time>2026-04-30T15:57:28.737Z</time></trkpt><trkpt lat="45.0279165" lon="7.8508429"><ele>289.0</ele><time>2026-04-30T15:57:30.598Z</time></trkpt><trkpt lat="45.0280523" lon="7.8509188"><ele>289.0</ele><time>2026-04-30T15:57:31.592Z</time></trkpt><trkpt lat="45.0282037" lon="7.8510031"><ele>289.0</ele><time>2026-04-30T15:57:32.569Z</time></trkpt><trkpt lat="45.0283659" lon="7.8510965"><ele>289.0</ele><time>2026-04-30T15:57:33.572Z</time></trkpt><trkpt lat="45.0285249" lon="7.8511842"><ele>289.0</ele><time>2026-04-30T15:57:34.595Z</time></trkpt><trkpt lat="45.0286969" lon="7.8512784"><ele>289.0</ele><time>2026-04-30T15:57:35.724Z</time></trkpt><trkpt lat="45.028976" lon="7.8514266"><ele>289.0</ele><time>2026-04-30T15:57:37.544Z</time></trkpt><trkpt lat="45.0291376" lon="7.8515088"><ele>289.0</ele><time>2026-04-30T15:57:38.565Z</time></trkpt><trkpt lat="45.0292868" lon="7.8515833"><ele>289.0</ele><time>2026-04-30T15:57:39.538Z</time></trkpt><trkpt lat="45.0294403" lon="7.8516579"><ele>289.0</ele><time>2026-04-30T15:57:40.589Z</time></trkpt><trkpt lat="45.0295783" lon="7.8517202"><ele>289.0</ele><time>2026-04-30T15:57:41.545Z</time></trkpt><trkpt lat="45.0297271" lon="7.851782"><ele>289.0</ele><time>2026-04-30T15:57:42.528Z</time></trkpt><trkpt lat="45.0299047" lon="7.8518472"><ele>289.3333333333333</ele><time>2026-04-30T15:57:43.606Z</time></trkpt><trkpt lat="45.0300869" lon="7.851897"><ele>289.6666666666667</ele><time>2026-04-30T15:57:44.586Z</time></trkpt><trkpt lat="45.0302878" lon="7.8519615"><ele>290.0</ele><time>2026-04-30T15:57:45.581Z</time></trkpt><trkpt lat="45.0304871" lon="7.8520207"><ele>290.0</ele><time>2026-04-30T15:57:46.563Z</time></trkpt><trkpt lat="45.0306892" lon="7.8520839"><ele>290.0</ele><time>2026-04-30T15:57:47.553Z</time></trkpt><trkpt lat="45.0308996" lon="7.852147"><ele>290.0</ele><time>2026-04-30T15:57:48.573Z</time></trkpt><trkpt lat="45.0311239" lon="7.8522137"><ele>288.5</ele><time>2026-04-30T15:57:49.625Z</time></trkpt><trkpt lat="45.031345" lon="7.8522763"><ele>287.0</ele><time>2026-04-30T15:57:50.587Z</time></trkpt><trkpt lat="45.0316308" lon="7.8523564"><ele>287.0</ele><time>2026-04-30T15:57:51.745Z</time></trkpt><trkpt lat="45.0321094" lon="7.8525136"><ele>287.0</ele><time>2026-04-30T15:57:53.578Z</time></trkpt><trkpt lat="45.0323903" lon="7.8526083"><ele>287.0</ele><time>2026-04-30T15:57:54.624Z</time></trkpt><trkpt lat="45.0326547" lon="7.8526953"><ele>285.0</ele><time>2026-04-30T15:57:55.607Z</time></trkpt><trkpt lat="45.0329097" lon="7.8527729"><ele>283.0</ele><time>2026-04-30T15:57:56.558Z</time></trkpt><trkpt lat="45.033187" lon="7.8528606"><ele>282.5</ele><time>2026-04-30T15:57:57.604Z</time></trkpt><trkpt lat="45.0334416" lon="7.8529404"><ele>282.0</ele><time>2026-04-30T15:57:58.581Z</time></trkpt><trkpt lat="45.0337072" lon="7.8530224"><ele>282.0</ele><time>2026-04-30T15:57:59.61Z</time></trkpt><trkpt lat="45.0339458" lon="7.8530955"><ele>282.0</ele><time>2026-04-30T15:58:00.566Z</time></trkpt><trkpt lat="45.0342064" lon="7.8531766"><ele>282.0</ele><time>2026-04-30T15:58:01.612Z</time></trkpt><trkpt lat="45.0344428" lon="7.8532508"><ele>282.0</ele><time>2026-04-30T15:58:02.61Z</time></trkpt><trkpt lat="45.0346913" lon="7.8533258"><ele>282.0</ele><time>2026-04-30T15:58:03.699Z</time></trkpt><trkpt lat="45.0348921" lon="7.853383"><ele>282.0</ele><time>2026-04-30T15:58:04.609Z</time></trkpt><trkpt lat="45.0351106" lon="7.8534313"><ele>282.0</ele><time>2026-04-30T15:58:05.625Z</time></trkpt><trkpt lat="45.0353128" lon="7.8534581"><ele>282.6666666666667</ele><time>2026-04-30T15:58:06.559Z</time></trkpt><trkpt lat="45.0355342" lon="7.8534508"><ele>283.33333333333337</ele><time>2026-04-30T15:58:07.553Z</time></trkpt><trkpt lat="45.0357519" lon="7.853424"><ele>284.0</ele><time>2026-04-30T15:58:08.555Z</time></trkpt><trkpt lat="45.0359613" lon="7.8533744"><ele>284.0</ele><time>2026-04-30T15:58:09.577Z</time></trkpt><trkpt lat="45.0361533" lon="7.8533079"><ele>284.0</ele><time>2026-04-30T15:58:10.597Z</time></trkpt><trkpt lat="45.0363323" lon="7.8532291"><ele>284.0</ele><time>2026-04-30T15:58:11.578Z</time></trkpt><trkpt lat="45.0365078" lon="7.8531305"><ele>283.6666666666667</ele><time>2026-04-30T15:58:12.581Z</time></trkpt><trkpt lat="45.0366722" lon="7.8530156"><ele>283.3333333333333</ele><time>2026-04-30T15:58:13.564Z</time></trkpt><trkpt lat="45.0368299" lon="7.8528912"><ele>283.0</ele><time>2026-04-30T15:58:14.516Z</time></trkpt><trkpt lat="45.0370127" lon="7.8527478"><ele>283.3333333333333</ele><time>2026-04-30T15:58:15.587Z</time></trkpt><trkpt lat="45.0372067" lon="7.852605"><ele>283.6666666666667</ele><time>2026-04-30T15:58:16.681Z</time></trkpt><trkpt lat="45.0373769" lon="7.8524788"><ele>284.0</ele><time>2026-04-30T15:58:17.642Z</time></trkpt><trkpt lat="45.0375566" lon="7.8523385"><ele>283.0</ele><time>2026-04-30T15:58:18.589Z</time></trkpt><trkpt lat="45.0377631" lon="7.8521769"><ele>282.0</ele><time>2026-04-30T15:58:19.587Z</time></trkpt><trkpt lat="45.0380552" lon="7.8519605"><ele>283.0</ele><time>2026-04-30T15:58:20.914Z</time></trkpt><trkpt lat="45.0384091" lon="7.851717"><ele>284.0</ele><time>2026-04-30T15:58:22.519Z</time></trkpt><trkpt lat="45.0386268" lon="7.8515492"><ele>284.0</ele><time>2026-04-30T15:58:23.597Z</time></trkpt><trkpt lat="45.0388136" lon="7.8514031"><ele>284.0</ele><time>2026-04-30T15:58:24.586Z</time></trkpt><trkpt lat="45.0390175" lon="7.8512511"><ele>284.0</ele><time>2026-04-30T15:58:25.602Z</time></trkpt><trkpt lat="45.0392057" lon="7.8511105"><ele>283.0</ele><time>2026-04-30T15:58:26.539Z</time></trkpt><trkpt lat="45.0394121" lon="7.85096"><ele>282.0</ele><time>2026-04-30T15:58:27.593Z</time></trkpt><trkpt lat="45.0396039" lon="7.8508336"><ele>281.0</ele><time>2026-04-30T15:58:28.592Z</time></trkpt><trkpt lat="45.0397914" lon="7.8507219"><ele>281.33333333333337</ele><time>2026-04-30T15:58:29.564Z</time></trkpt><trkpt lat="45.0399793" lon="7.850627"><ele>281.6666666666667</ele><time>2026-04-30T15:58:30.563Z</time></trkpt><trkpt lat="45.0401677" lon="7.8505401"><ele>282.0</ele><time>2026-04-30T15:58:31.569Z</time></trkpt><trkpt lat="45.0403569" lon="7.8504567"><ele>282.0</ele><time>2026-04-30T15:58:32.596Z</time></trkpt><trkpt lat="45.0405353" lon="7.8503712"><ele>282.0</ele><time>2026-04-30T15:58:33.556Z</time></trkpt><trkpt lat="45.0407254" lon="7.850283"><ele>282.0</ele><time>2026-04-30T15:58:34.564Z</time></trkpt><trkpt lat="45.040919" lon="7.8501915"><ele>281.0</ele><time>2026-04-30T15:58:35.576Z</time></trkpt><trkpt lat="45.0411178" lon="7.8500898"><ele>280.0</ele><time>2026-04-30T15:58:36.623Z</time></trkpt><trkpt lat="45.0413069" lon="7.8499929"><ele>279.0</ele><time>2026-04-30T15:58:37.596Z</time></trkpt><trkpt lat="45.0415125" lon="7.8498954"><ele>279.3333333333333</ele><time>2026-04-30T15:58:38.613Z</time></trkpt><trkpt lat="45.0417131" lon="7.8498011"><ele>279.66666666666663</ele><time>2026-04-30T15:58:39.563Z</time></trkpt><trkpt lat="45.0419264" lon="7.8497045"><ele>280.0</ele><time>2026-04-30T15:58:40.512Z</time></trkpt><trkpt lat="45.0421921" lon="7.849589"><ele>280.0</ele><time>2026-04-30T15:58:41.601Z</time></trkpt><trkpt lat="45.0424509" lon="7.8494722"><ele>280.0</ele><time>2026-04-30T15:58:42.63Z</time></trkpt><trkpt lat="45.0426926" lon="7.8493569"><ele>282.0</ele><time>2026-04-30T15:58:43.542Z</time></trkpt><trkpt lat="45.0429745" lon="7.8492222"><ele>284.0</ele><time>2026-04-30T15:58:44.575Z</time></trkpt><trkpt lat="45.0432559" lon="7.8490947"><ele>282.0</ele><time>2026-04-30T15:58:45.582Z</time></trkpt><trkpt lat="45.0435498" lon="7.8489668"><ele>280.0</ele><time>2026-04-30T15:58:46.646Z</time></trkpt><trkpt lat="45.0437989" lon="7.8488533"><ele>280.0</ele><time>2026-04-30T15:58:47.574Z</time></trkpt><trkpt lat="45.0440888" lon="7.8487227"><ele>280.0</ele><time>2026-04-30T15:58:48.653Z</time></trkpt><trkpt lat="45.0443316" lon="7.8486105"><ele>279.5</ele><time>2026-04-30T15:58:49.567Z</time></trkpt><trkpt lat="45.0446149" lon="7.8484772"><ele>279.0</ele><time>2026-04-30T15:58:50.67Z</time></trkpt><trkpt lat="45.0448443" lon="7.8483698"><ele>279.0</ele><time>2026-04-30T15:58:51.587Z</time></trkpt><trkpt lat="45.045107" lon="7.8482468"><ele>279.0</ele><time>2026-04-30T15:58:52.645Z</time></trkpt><trkpt lat="45.0453371" lon="7.8481375"><ele>279.0</ele><time>2026-04-30T15:58:53.597Z</time></trkpt><trkpt lat="45.0455788" lon="7.8480233"><ele>279.0</ele><time>2026-04-30T15:58:54.605Z</time></trkpt><trkpt lat="45.0458314" lon="7.8479098"><ele>280.0</ele><time>2026-04-30T15:58:55.644Z</time></trkpt><trkpt lat="45.0460641" lon="7.8478018"><ele>281.0</ele><time>2026-04-30T15:58:56.601Z</time></trkpt><trkpt lat="45.0463104" lon="7.8476864"><ele>280.5</ele><time>2026-04-30T15:58:57.632Z</time></trkpt><trkpt lat="45.0465349" lon="7.8475805"><ele>280.0</ele><time>2026-04-30T15:58:58.609Z</time></trkpt><trkpt lat="45.0467558" lon="7.8474776"><ele>280.66666666666663</ele><time>2026-04-30T15:58:59.616Z</time></trkpt><trkpt lat="45.0469556" lon="7.8473875"><ele>281.3333333333333</ele><time>2026-04-30T15:59:00.574Z</time></trkpt><trkpt lat="45.0471811" lon="7.8472888"><ele>282.0</ele><time>2026-04-30T15:59:01.692Z</time></trkpt><trkpt lat="45.047368" lon="7.847206"><ele>282.0</ele><time>2026-04-30T15:59:02.635Z</time></trkpt><trkpt lat="45.0475634" lon="7.8471183"><ele>282.0</ele><time>2026-04-30T15:59:03.579Z</time></trkpt><trkpt lat="45.0477878" lon="7.8470143"><ele>282.0</ele><time>2026-04-30T15:59:04.605Z</time></trkpt><trkpt lat="45.0480138" lon="7.8469093"><ele>282.0</ele><time>2026-04-30T15:59:05.6Z</time></trkpt><trkpt lat="45.0482241" lon="7.8468131"><ele>282.0</ele><time>2026-04-30T15:59:06.53Z</time></trkpt><trkpt lat="45.0484615" lon="7.8467158"><ele>283.0</ele><time>2026-04-30T15:59:07.624Z</time></trkpt><trkpt lat="45.0486562" lon="7.8466381"><ele>284.0</ele><time>2026-04-30T15:59:08.595Z</time></trkpt><trkpt lat="45.0488474" lon="7.8465621"><ele>285.0</ele><time>2026-04-30T15:59:09.583Z</time></trkpt><trkpt lat="45.0490405" lon="7.8464779"><ele>283.5</ele><time>2026-04-30T15:59:10.603Z</time></trkpt><trkpt lat="45.0492464" lon="7.8463823"><ele>282.0</ele><time>2026-04-30T15:59:11.711Z</time></trkpt><trkpt lat="45.049601" lon="7.8461723"><ele>282.0</ele><time>2026-04-30T15:59:13.609Z</time></trkpt><trkpt lat="45.0497829" lon="7.8460482"><ele>282.0</ele><time>2026-04-30T15:59:14.596Z</time></trkpt><trkpt lat="45.0499674" lon="7.8459278"><ele>282.0</ele><time>2026-04-30T15:59:15.587Z</time></trkpt><trkpt lat="45.0501701" lon="7.8457861"><ele>283.0</ele><time>2026-04-30T15:59:16.618Z</time></trkpt><trkpt lat="45.0503748" lon="7.8456446"><ele>284.0</ele><time>2026-04-30T15:59:17.602Z</time></trkpt><trkpt lat="45.0505781" lon="7.8455131"><ele>283.5</ele><time>2026-04-30T15:59:18.538Z</time></trkpt><trkpt lat="45.0508119" lon="7.845379"><ele>283.0</ele><time>2026-04-30T15:59:19.572Z</time></trkpt><trkpt lat="45.051045" lon="7.8452498"><ele>283.0</ele><time>2026-04-30T15:59:20.611Z</time></trkpt><trkpt lat="45.0512648" lon="7.84515"><ele>283.0</ele><time>2026-04-30T15:59:21.595Z</time></trkpt><trkpt lat="45.0514806" lon="7.8450619"><ele>285.5</ele><time>2026-04-30T15:59:22.573Z</time></trkpt><trkpt lat="45.0517119" lon="7.844982"><ele>288.0</ele><time>2026-04-30T15:59:23.615Z</time></trkpt><trkpt lat="45.0519341" lon="7.8449185"><ele>288.0</ele><time>2026-04-30T15:59:24.609Z</time></trkpt><trkpt lat="45.0521516" lon="7.8448656"><ele>288.0</ele><time>2026-04-30T15:59:25.601Z</time></trkpt><trkpt lat="45.0523638" lon="7.8448261"><ele>288.0</ele><time>2026-04-30T15:59:26.582Z</time></trkpt><trkpt lat="45.0525803" lon="7.8447963"><ele>287.6666666666667</ele><time>2026-04-30T15:59:27.581Z</time></trkpt><trkpt lat="45.0527917" lon="7.8447756"><ele>287.33333333333337</ele><time>2026-04-30T15:59:28.551Z</time></trkpt><trkpt lat="45.0530278" lon="7.8447611"><ele>287.0</ele><time>2026-04-30T15:59:29.621Z</time></trkpt><trkpt lat="45.0532529" lon="7.8447567"><ele>287.0</ele><time>2026-04-30T15:59:30.633Z</time></trkpt><trkpt lat="45.0534657" lon="7.8447566"><ele>287.0</ele><time>2026-04-30T15:59:31.603Z</time></trkpt><trkpt lat="45.0536679" lon="7.8447558"><ele>287.0</ele><time>2026-04-30T15:59:32.518Z</time></trkpt><trkpt lat="45.0539234" lon="7.8447531"><ele>286.5</ele><time>2026-04-30T15:59:33.622Z</time></trkpt><trkpt lat="45.0541592" lon="7.844747"><ele>286.0</ele><time>2026-04-30T15:59:34.583Z</time></trkpt><trkpt lat="45.0544272" lon="7.8447495"><ele>286.0</ele><time>2026-04-30T15:59:35.615Z</time></trkpt><trkpt lat="45.0546878" lon="7.8447591"><ele>286.0</ele><time>2026-04-30T15:59:36.582Z</time></trkpt><trkpt lat="45.0550063" lon="7.8447726"><ele>285.0</ele><time>2026-04-30T15:59:37.77Z</time></trkpt><trkpt lat="45.0554986" lon="7.8447593"><ele>285.0</ele><time>2026-04-30T15:59:39.623Z</time></trkpt><trkpt lat="45.0557427" lon="7.8447201"><ele>285.0</ele><time>2026-04-30T15:59:40.579Z</time></trkpt><trkpt lat="45.0559823" lon="7.8446584"><ele>286.0</ele><time>2026-04-30T15:59:41.554Z</time></trkpt><trkpt lat="45.0562341" lon="7.8445874"><ele>287.0</ele><time>2026-04-30T15:59:42.564Z</time></trkpt><trkpt lat="45.0565335" lon="7.8445022"><ele>287.0</ele><time>2026-04-30T15:59:43.753Z</time></trkpt><trkpt lat="45.0569951" lon="7.8443635"><ele>289.0</ele><time>2026-04-30T15:59:45.556Z</time></trkpt><trkpt lat="45.057278" lon="7.8442788"><ele>291.0</ele><time>2026-04-30T15:59:46.64Z</time></trkpt><trkpt lat="45.0575378" lon="7.844201"><ele>291.0</ele><time>2026-04-30T15:59:47.645Z</time></trkpt><trkpt lat="45.0580363" lon="7.8440522"><ele>290.0</ele><time>2026-04-30T15:59:49.592Z</time></trkpt><trkpt lat="45.0583015" lon="7.8439742"><ele>289.0</ele><time>2026-04-30T15:59:50.679Z</time></trkpt><trkpt lat="45.0587421" lon="7.8438264"><ele>289.0</ele><time>2026-04-30T15:59:52.608Z</time></trkpt><trkpt lat="45.0589625" lon="7.8437226"><ele>289.0</ele><time>2026-04-30T15:59:53.601Z</time></trkpt><trkpt lat="45.0591929" lon="7.8435842"><ele>290.0</ele><time>2026-04-30T15:59:54.628Z</time></trkpt><trkpt lat="45.059615" lon="7.843309"><ele>290.0</ele><time>2026-04-30T15:59:56.661Z</time></trkpt><trkpt lat="45.0598016" lon="7.843183"><ele>290.0</ele><time>2026-04-30T15:59:57.598Z</time></trkpt><trkpt lat="45.0599994" lon="7.8430488"><ele>290.0</ele><time>2026-04-30T15:59:58.632Z</time></trkpt><trkpt lat="45.0601675" lon="7.8429321"><ele>291.33333333333337</ele><time>2026-04-30T15:59:59.567Z</time></trkpt><trkpt lat="45.0603576" lon="7.8428138"><ele>292.6666666666667</ele><time>2026-04-30T16:00:00.587Z</time></trkpt><trkpt lat="45.060562" lon="7.8427008"><ele>294.0</ele><time>2026-04-30T16:00:01.613Z</time></trkpt><trkpt lat="45.0607634" lon="7.8426147"><ele>292.6666666666667</ele><time>2026-04-30T16:00:02.562Z</time></trkpt><trkpt lat="45.0609919" lon="7.8425324"><ele>291.33333333333337</ele><time>2026-04-30T16:00:03.62Z</time></trkpt><trkpt lat="45.0611933" lon="7.842464"><ele>290.0</ele><time>2026-04-30T16:00:04.632Z</time></trkpt><trkpt lat="45.0613872" lon="7.8423929"><ele>290.0</ele><time>2026-04-30T16:00:05.636Z</time></trkpt><trkpt lat="45.0615714" lon="7.8423247"><ele>290.0</ele><time>2026-04-30T16:00:06.646Z</time></trkpt><trkpt lat="45.0617458" lon="7.8422599"><ele>290.0</ele><time>2026-04-30T16:00:07.639Z</time></trkpt><trkpt lat="45.0619205" lon="7.8421941"><ele>290.0</ele><time>2026-04-30T16:00:08.599Z</time></trkpt><trkpt lat="45.0621137" lon="7.8421309"><ele>290.0</ele><time>2026-04-30T16:00:09.598Z</time></trkpt><trkpt lat="45.0623288" lon="7.8420913"><ele>290.0</ele><time>2026-04-30T16:00:10.595Z</time></trkpt><trkpt lat="45.0625703" lon="7.8420818"><ele>290.0</ele><time>2026-04-30T16:00:11.641Z</time></trkpt><trkpt lat="45.0627931" lon="7.8420804"><ele>290.0</ele><time>2026-04-30T16:00:12.573Z</time></trkpt><trkpt lat="45.0630214" lon="7.8420644"><ele>290.0</ele><time>2026-04-30T16:00:13.592Z</time></trkpt><trkpt lat="45.0632416" lon="7.8420478"><ele>290.0</ele><time>2026-04-30T16:00:14.605Z</time></trkpt><trkpt lat="45.0634547" lon="7.8420351"><ele>290.0</ele><time>2026-04-30T16:00:15.617Z</time></trkpt><trkpt lat="45.0636461" lon="7.8420202"><ele>290.33333333333337</ele><time>2026-04-30T16:00:16.551Z</time></trkpt><trkpt lat="45.0638372" lon="7.8420081"><ele>290.6666666666667</ele><time>2026-04-30T16:00:17.555Z</time></trkpt><trkpt lat="45.0640122" lon="7.8419919"><ele>291.0</ele><time>2026-04-30T16:00:18.558Z</time></trkpt><trkpt lat="45.0641868" lon="7.8419802"><ele>291.0</ele><time>2026-04-30T16:00:19.6Z</time></trkpt><trkpt lat="45.0643356" lon="7.8419686"><ele>291.0</ele><time>2026-04-30T16:00:20.576Z</time></trkpt><trkpt lat="45.0644703" lon="7.8419582"><ele>291.0</ele><time>2026-04-30T16:00:21.545Z</time></trkpt><trkpt lat="45.064604" lon="7.8419479"><ele>291.0</ele><time>2026-04-30T16:00:22.591Z</time></trkpt><trkpt lat="45.0647216" lon="7.8419389"><ele>291.0</ele><time>2026-04-30T16:00:23.603Z</time></trkpt><trkpt lat="45.0648324" lon="7.8419325"><ele>291.0</ele><time>2026-04-30T16:00:24.603Z</time></trkpt><trkpt lat="45.0649484" lon="7.8419237"><ele>291.0</ele><time>2026-04-30T16:00:25.588Z</time></trkpt><trkpt lat="45.0650544" lon="7.8419148"><ele>291.0</ele><time>2026-04-30T16:00:26.579Z</time></trkpt><trkpt lat="45.0651533" lon="7.841912"><ele>291.0</ele><time>2026-04-30T16:00:27.589Z</time></trkpt><trkpt lat="45.0652506" lon="7.8419132"><ele>291.1666666666667</ele><time>2026-04-30T16:00:28.649Z</time></trkpt><trkpt lat="45.0653292" lon="7.8419216"><ele>291.3333333333333</ele><time>2026-04-30T16:00:29.6Z</time></trkpt><trkpt lat="45.0654156" lon="7.8419483"><ele>291.5</ele><time>2026-04-30T16:00:30.778Z</time></trkpt><trkpt lat="45.065534" lon="7.8420116"><ele>291.66666666666663</ele><time>2026-04-30T16:00:32.595Z</time></trkpt><trkpt lat="45.0656044" lon="7.8420085"><ele>291.8333333333333</ele><time>2026-04-30T16:00:33.593Z</time></trkpt><trkpt lat="45.0656741" lon="7.8419613"><ele>292.0</ele><time>2026-04-30T16:00:34.545Z</time></trkpt><trkpt lat="45.0657558" lon="7.8419005"><ele>292.4</ele><time>2026-04-30T16:00:35.563Z</time></trkpt><trkpt lat="45.0658535" lon="7.8418629"><ele>292.79999999999995</ele><time>2026-04-30T16:00:36.613Z</time></trkpt><trkpt lat="45.0659628" lon="7.8418374"><ele>293.2</ele><time>2026-04-30T16:00:37.574Z</time></trkpt><trkpt lat="45.0660705" lon="7.8418215"><ele>293.59999999999997</ele><time>2026-04-30T16:00:38.592Z</time></trkpt><trkpt lat="45.0661861" lon="7.8418054"><ele>294.0</ele><time>2026-04-30T16:00:39.605Z</time></trkpt><trkpt lat="45.0663069" lon="7.8417954"><ele>294.0</ele><time>2026-04-30T16:00:40.535Z</time></trkpt><trkpt lat="45.0664634" lon="7.8417827"><ele>294.0</ele><time>2026-04-30T16:00:41.587Z</time></trkpt><trkpt lat="45.0666421" lon="7.8417733"><ele>294.0</ele><time>2026-04-30T16:00:42.606Z</time></trkpt><trkpt lat="45.066815" lon="7.8417707"><ele>294.0</ele><time>2026-04-30T16:00:43.555Z</time></trkpt><trkpt lat="45.0670307" lon="7.8417707"><ele>294.0</ele><time>2026-04-30T16:00:44.68Z</time></trkpt><trkpt lat="45.0672231" lon="7.8417789"><ele>294.0</ele><time>2026-04-30T16:00:45.623Z</time></trkpt><trkpt lat="45.0674182" lon="7.8417958"><ele>294.0</ele><time>2026-04-30T16:00:46.525Z</time></trkpt><trkpt lat="45.0676569" lon="7.8418287"><ele>294.0</ele><time>2026-04-30T16:00:47.58Z</time></trkpt><trkpt lat="45.0678978" lon="7.8418569"><ele>294.0</ele><time>2026-04-30T16:00:48.63Z</time></trkpt><trkpt lat="45.0681352" lon="7.841877"><ele>294.0</ele><time>2026-04-30T16:00:49.638Z</time></trkpt><trkpt lat="45.0683786" lon="7.8418918"><ele>294.5</ele><time>2026-04-30T16:00:50.62Z</time></trkpt><trkpt lat="45.0686266" lon="7.8418985"><ele>295.0</ele><time>2026-04-30T16:00:51.584Z</time></trkpt><trkpt lat="45.0688962" lon="7.841899"><ele>296.5</ele><time>2026-04-30T16:00:52.614Z</time></trkpt><trkpt lat="45.069141" lon="7.8419001"><ele>298.0</ele><time>2026-04-30T16:00:53.544Z</time></trkpt><trkpt lat="45.0694141" lon="7.841896"><ele>298.0</ele><time>2026-04-30T16:00:54.568Z</time></trkpt><trkpt lat="45.0696989" lon="7.8418954"><ele>298.0</ele><time>2026-04-30T16:00:55.618Z</time></trkpt><trkpt lat="45.0699681" lon="7.8418924"><ele>298.0</ele><time>2026-04-30T16:00:56.57Z</time></trkpt><trkpt lat="45.0702482" lon="7.8418769"><ele>298.0</ele><time>2026-04-30T16:00:57.528Z</time></trkpt><trkpt lat="45.0705691" lon="7.8418475"><ele>297.5</ele><time>2026-04-30T16:00:58.603Z</time></trkpt><trkpt lat="45.0708595" lon="7.8418098"><ele>297.0</ele><time>2026-04-30T16:00:59.583Z</time></trkpt><trkpt lat="45.0711515" lon="7.8417655"><ele>299.0</ele><time>2026-04-30T16:01:00.587Z</time></trkpt><trkpt lat="45.0714333" lon="7.8417183"><ele>301.0</ele><time>2026-04-30T16:01:01.578Z</time></trkpt><trkpt lat="45.0717054" lon="7.8416763"><ele>301.0</ele><time>2026-04-30T16:01:02.559Z</time></trkpt><trkpt lat="45.0719743" lon="7.8416406"><ele>301.0</ele><time>2026-04-30T16:01:03.56Z</time></trkpt><trkpt lat="45.0722591" lon="7.8416377"><ele>302.5</ele><time>2026-04-30T16:01:04.636Z</time></trkpt><trkpt lat="45.0725006" lon="7.8416774"><ele>304.0</ele><time>2026-04-30T16:01:05.543Z</time></trkpt><trkpt lat="45.072777" lon="7.8417733"><ele>303.5</ele><time>2026-04-30T16:01:06.558Z</time></trkpt><trkpt lat="45.073064" lon="7.8419078"><ele>303.0</ele><time>2026-04-30T16:01:07.637Z</time></trkpt><trkpt lat="45.0733195" lon="7.8420483"><ele>303.0</ele><time>2026-04-30T16:01:08.598Z</time></trkpt><trkpt lat="45.0736083" lon="7.8422019"><ele>303.0</ele><time>2026-04-30T16:01:09.67Z</time></trkpt><trkpt lat="45.0741193" lon="7.8424492"><ele>302.5</ele><time>2026-04-30T16:01:11.581Z</time></trkpt><trkpt lat="45.0743713" lon="7.8425721"><ele>302.0</ele><time>2026-04-30T16:01:12.569Z</time></trkpt><trkpt lat="45.0746862" lon="7.8427253"><ele>302.0</ele><time>2026-04-30T16:01:13.825Z</time></trkpt><trkpt lat="45.0751376" lon="7.8428818"><ele>302.0</ele><time>2026-04-30T16:01:15.57Z</time></trkpt><trkpt lat="45.0754127" lon="7.8429371"><ele>302.0</ele><time>2026-04-30T16:01:16.597Z</time></trkpt><trkpt lat="45.0757156" lon="7.8429664"><ele>302.0</ele><time>2026-04-30T16:01:17.719Z</time></trkpt><trkpt lat="45.0762135" lon="7.8430109"><ele>302.0</ele><time>2026-04-30T16:01:19.539Z</time></trkpt><trkpt lat="45.0764998" lon="7.8430517"><ele>302.0</ele><time>2026-04-30T16:01:20.596Z</time></trkpt><trkpt lat="45.0767578" lon="7.8431218"><ele>304.0</ele><time>2026-04-30T16:01:21.569Z</time></trkpt><trkpt lat="45.0770291" lon="7.8432483"><ele>306.0</ele><time>2026-04-30T16:01:22.599Z</time></trkpt><trkpt lat="45.0772792" lon="7.8433982"><ele>303.5</ele><time>2026-04-30T16:01:23.55Z</time></trkpt><trkpt lat="45.0775365" lon="7.8435684"><ele>301.0</ele><time>2026-04-30T16:01:24.521Z</time></trkpt><trkpt lat="45.0778234" lon="7.8437616"><ele>301.0</ele><time>2026-04-30T16:01:25.597Z</time></trkpt><trkpt lat="45.0780793" lon="7.8439317"><ele>301.0</ele><time>2026-04-30T16:01:26.552Z</time></trkpt><trkpt lat="45.0783321" lon="7.8441005"><ele>300.5</ele><time>2026-04-30T16:01:27.505Z</time></trkpt><trkpt lat="45.0786064" lon="7.8442844"><ele>300.0</ele><time>2026-04-30T16:01:28.542Z</time></trkpt><trkpt lat="45.0788751" lon="7.8444623"><ele>301.5</ele><time>2026-04-30T16:01:29.565Z</time></trkpt><trkpt lat="45.0791391" lon="7.844638"><ele>303.0</ele><time>2026-04-30T16:01:30.582Z</time></trkpt><trkpt lat="45.0794145" lon="7.8448097"><ele>303.0</ele><time>2026-04-30T16:01:31.704Z</time></trkpt><trkpt lat="45.0798705" lon="7.8450019"><ele>308.5</ele><time>2026-04-30T16:01:33.553Z</time></trkpt><trkpt lat="45.0801596" lon="7.845055"><ele>314.0</ele><time>2026-04-30T16:01:34.683Z</time></trkpt><trkpt lat="45.0806591" lon="7.8450133"><ele>313.5</ele><time>2026-04-30T16:01:36.577Z</time></trkpt><trkpt lat="45.0809303" lon="7.8449402"><ele>313.0</ele><time>2026-04-30T16:01:37.598Z</time></trkpt><trkpt lat="45.0811695" lon="7.8448712"><ele>313.0</ele><time>2026-04-30T16:01:38.527Z</time></trkpt><trkpt lat="45.0814341" lon="7.8448009"><ele>313.0</ele><time>2026-04-30T16:01:39.57Z</time></trkpt><trkpt lat="45.0816823" lon="7.84474"><ele>310.0</ele><time>2026-04-30T16:01:40.538Z</time></trkpt><trkpt lat="45.0819335" lon="7.8446739"><ele>307.0</ele><time>2026-04-30T16:01:41.54Z</time></trkpt><trkpt lat="45.0822104" lon="7.844599"><ele>308.0</ele><time>2026-04-30T16:01:42.622Z</time></trkpt><trkpt lat="45.0824482" lon="7.8445324"><ele>309.0</ele><time>2026-04-30T16:01:43.531Z</time></trkpt><trkpt lat="45.0826928" lon="7.8444648"><ele>309.0</ele><time>2026-04-30T16:01:44.486Z</time></trkpt><trkpt lat="45.0829867" lon="7.8443862"><ele>309.0</ele><time>2026-04-30T16:01:45.657Z</time></trkpt><trkpt lat="45.0834445" lon="7.8442625"><ele>315.0</ele><time>2026-04-30T16:01:47.555Z</time></trkpt><trkpt lat="45.0836849" lon="7.8441947"><ele>321.0</ele><time>2026-04-30T16:01:48.587Z</time></trkpt><trkpt lat="45.0839036" lon="7.8441361"><ele>320.0</ele><time>2026-04-30T16:01:49.57Z</time></trkpt><trkpt lat="45.0841056" lon="7.8440836"><ele>319.0</ele><time>2026-04-30T16:01:50.499Z</time></trkpt><trkpt lat="45.0843363" lon="7.8440315"><ele>318.0</ele><time>2026-04-30T16:01:51.593Z</time></trkpt><trkpt lat="45.0845541" lon="7.843995"><ele>318.0</ele><time>2026-04-30T16:01:52.633Z</time></trkpt><trkpt lat="45.0849803" lon="7.843972"><ele>318.0</ele><time>2026-04-30T16:01:54.634Z</time></trkpt><trkpt lat="45.0851622" lon="7.8439766"><ele>318.0</ele><time>2026-04-30T16:01:55.541Z</time></trkpt><trkpt lat="45.0853515" lon="7.8439881"><ele>318.0</ele><time>2026-04-30T16:01:56.546Z</time></trkpt><trkpt lat="45.0855325" lon="7.8440025"><ele>318.0</ele><time>2026-04-30T16:01:57.543Z</time></trkpt><trkpt lat="45.0857114" lon="7.8440291"><ele>317.6666666666667</ele><time>2026-04-30T16:01:58.594Z</time></trkpt><trkpt lat="45.0858776" lon="7.8440581"><ele>317.33333333333337</ele><time>2026-04-30T16:01:59.611Z</time></trkpt><trkpt lat="45.086041" lon="7.8440822"><ele>317.0</ele><time>2026-04-30T16:02:00.591Z</time></trkpt><trkpt lat="45.086206" lon="7.8441059"><ele>317.0</ele><time>2026-04-30T16:02:01.536Z</time></trkpt><trkpt lat="45.0863778" lon="7.844153"><ele>317.0</ele><time>2026-04-30T16:02:02.502Z</time></trkpt><trkpt lat="45.0865759" lon="7.8442256"><ele>317.0</ele><time>2026-04-30T16:02:03.547Z</time></trkpt><trkpt lat="45.0867642" lon="7.8443107"><ele>317.0</ele><time>2026-04-30T16:02:04.543Z</time></trkpt><trkpt lat="45.086948" lon="7.8444152"><ele>317.0</ele><time>2026-04-30T16:02:05.55Z</time></trkpt><trkpt lat="45.0871299" lon="7.8445375"><ele>317.0</ele><time>2026-04-30T16:02:06.564Z</time></trkpt><trkpt lat="45.0872967" lon="7.8446578"><ele>319.33333333333337</ele><time>2026-04-30T16:02:07.539Z</time></trkpt><trkpt lat="45.0874658" lon="7.8447838"><ele>321.6666666666667</ele><time>2026-04-30T16:02:08.535Z</time></trkpt><trkpt lat="45.0876413" lon="7.8449218"><ele>324.0</ele><time>2026-04-30T16:02:09.592Z</time></trkpt><trkpt lat="45.0879481" lon="7.845118"><ele>325.0</ele><time>2026-04-30T16:02:11.463Z</time></trkpt><trkpt lat="45.0881313" lon="7.8452063"><ele>326.0</ele><time>2026-04-30T16:02:12.596Z</time></trkpt><trkpt lat="45.0882823" lon="7.8452516"><ele>327.0</ele><time>2026-04-30T16:02:13.54Z</time></trkpt><trkpt lat="45.0884374" lon="7.8452807"><ele>327.0</ele><time>2026-04-30T16:02:14.509Z</time></trkpt><trkpt lat="45.088604" lon="7.8452914"><ele>327.0</ele><time>2026-04-30T16:02:15.562Z</time></trkpt><trkpt lat="45.0887563" lon="7.8452756"><ele>327.0</ele><time>2026-04-30T16:02:16.509Z</time></trkpt><trkpt lat="45.0889342" lon="7.8452363"><ele>327.0</ele><time>2026-04-30T16:02:17.596Z</time></trkpt><trkpt lat="45.0890828" lon="7.8451874"><ele>327.0</ele><time>2026-04-30T16:02:18.594Z</time></trkpt><trkpt lat="45.0892467" lon="7.8451396"><ele>327.0</ele><time>2026-04-30T16:02:19.649Z</time></trkpt><trkpt lat="45.0893931" lon="7.8450991"><ele>327.0</ele><time>2026-04-30T16:02:20.578Z</time></trkpt><trkpt lat="45.0895887" lon="7.8450422"><ele>327.0</ele><time>2026-04-30T16:02:21.718Z</time></trkpt><trkpt lat="45.0897668" lon="7.8449923"><ele>327.0</ele><time>2026-04-30T16:02:22.668Z</time></trkpt><trkpt lat="45.0899579" lon="7.8449469"><ele>327.0</ele><time>2026-04-30T16:02:23.662Z</time></trkpt><trkpt lat="45.0903161" lon="7.8448551"><ele>327.0</ele><time>2026-04-30T16:02:25.712Z</time></trkpt><trkpt lat="45.0906137" lon="7.8447589"><ele>327.0</ele><time>2026-04-30T16:02:27.561Z</time></trkpt><trkpt lat="45.0907542" lon="7.8447335"><ele>327.0</ele><time>2026-04-30T16:02:28.473Z</time></trkpt><trkpt lat="45.0909099" lon="7.8447524"><ele>327.0</ele><time>2026-04-30T16:02:29.556Z</time></trkpt><trkpt lat="45.0910345" lon="7.8448415"><ele>327.0</ele><time>2026-04-30T16:02:30.587Z</time></trkpt><trkpt lat="45.0911402" lon="7.844977"><ele>331.3333333333333</ele><time>2026-04-30T16:02:31.573Z</time></trkpt><trkpt lat="45.0912568" lon="7.8451569"><ele>335.66666666666663</ele><time>2026-04-30T16:02:32.665Z</time></trkpt><trkpt lat="45.0913713" lon="7.8452955"><ele>340.0</ele><time>2026-04-30T16:02:33.568Z</time></trkpt><trkpt lat="45.0915242" lon="7.8454373"><ele>340.66666666666663</ele><time>2026-04-30T16:02:34.585Z</time></trkpt><trkpt lat="45.0916936" lon="7.8455348"><ele>341.3333333333333</ele><time>2026-04-30T16:02:35.623Z</time></trkpt><trkpt lat="45.0918658" lon="7.8456137"><ele>342.0</ele><time>2026-04-30T16:02:36.671Z</time></trkpt><trkpt lat="45.0920097" lon="7.8456684"><ele>342.0</ele><time>2026-04-30T16:02:37.521Z</time></trkpt><trkpt lat="45.0921683" lon="7.8457377"><ele>342.0</ele><time>2026-04-30T16:02:38.497Z</time></trkpt><trkpt lat="45.0923389" lon="7.8458097"><ele>342.0</ele><time>2026-04-30T16:02:39.576Z</time></trkpt><trkpt lat="45.0925165" lon="7.8458865"><ele>349.5</ele><time>2026-04-30T16:02:40.665Z</time></trkpt><trkpt lat="45.0928052" lon="7.8460138"><ele>357.0</ele><time>2026-04-30T16:02:42.514Z</time></trkpt><trkpt lat="45.0929659" lon="7.8460875"><ele>357.0</ele><time>2026-04-30T16:02:43.533Z</time></trkpt><trkpt lat="45.0931251" lon="7.8461579"><ele>357.0</ele><time>2026-04-30T16:02:44.578Z</time></trkpt><trkpt lat="45.0932602" lon="7.8462151"><ele>357.0</ele><time>2026-04-30T16:02:45.512Z</time></trkpt><trkpt lat="45.0934143" lon="7.8462524"><ele>353.75</ele><time>2026-04-30T16:02:46.609Z</time></trkpt><trkpt lat="45.0935505" lon="7.8462695"><ele>350.5</ele><time>2026-04-30T16:02:47.545Z</time></trkpt><trkpt lat="45.09369" lon="7.8462788"><ele>347.25</ele><time>2026-04-30T16:02:48.541Z</time></trkpt><trkpt lat="45.0938291" lon="7.8462939"><ele>344.0</ele><time>2026-04-30T16:02:49.543Z</time></trkpt><trkpt lat="45.0939842" lon="7.8463551"><ele>345.25</ele><time>2026-04-30T16:02:50.666Z</time></trkpt><trkpt lat="45.0941012" lon="7.8464321"><ele>346.5</ele><time>2026-04-30T16:02:51.581Z</time></trkpt><trkpt lat="45.0942093" lon="7.8465226"><ele>347.75</ele><time>2026-04-30T16:02:52.51Z</time></trkpt><trkpt lat="45.0943249" lon="7.8466246"><ele>349.0</ele><time>2026-04-30T16:02:53.539Z</time></trkpt><trkpt lat="45.0944338" lon="7.8466978"><ele>349.0</ele><time>2026-04-30T16:02:54.54Z</time></trkpt><trkpt lat="45.0945457" lon="7.8467234"><ele>349.0</ele><time>2026-04-30T16:02:55.535Z</time></trkpt><trkpt lat="45.0946557" lon="7.8467016"><ele>349.0</ele><time>2026-04-30T16:02:56.532Z</time></trkpt><trkpt lat="45.0947598" lon="7.8466433"><ele>349.0</ele><time>2026-04-30T16:02:57.578Z</time></trkpt><trkpt lat="45.094846" lon="7.8465752"><ele>349.0</ele><time>2026-04-30T16:02:58.546Z</time></trkpt><trkpt lat="45.0949346" lon="7.8465137"><ele>349.5</ele><time>2026-04-30T16:02:59.518Z</time></trkpt><trkpt lat="45.0950414" lon="7.8465002"><ele>350.0</ele><time>2026-04-30T16:03:00.518Z</time></trkpt><trkpt lat="45.0951556" lon="7.846541"><ele>350.5</ele><time>2026-04-30T16:03:01.519Z</time></trkpt><trkpt lat="45.0952801" lon="7.846619"><ele>351.0</ele><time>2026-04-30T16:03:02.539Z</time></trkpt><trkpt lat="45.0954064" lon="7.8467233"><ele>352.0</ele><time>2026-04-30T16:03:03.583Z</time></trkpt><trkpt lat="45.0955454" lon="7.84682"><ele>353.0</ele><time>2026-04-30T16:03:04.565Z</time></trkpt><trkpt lat="45.0957111" lon="7.8469246"><ele>354.0</ele><time>2026-04-30T16:03:05.626Z</time></trkpt><trkpt lat="45.0958653" lon="7.8470103"><ele>354.0</ele><time>2026-04-30T16:03:06.627Z</time></trkpt><trkpt lat="45.0961514" lon="7.8471576"><ele>354.0</ele><time>2026-04-30T16:03:08.577Z</time></trkpt><trkpt lat="45.0962869" lon="7.8472103"><ele>354.0</ele><time>2026-04-30T16:03:09.48Z</time></trkpt><trkpt lat="45.0964581" lon="7.8472602"><ele>356.3333333333333</ele><time>2026-04-30T16:03:10.595Z</time></trkpt><trkpt lat="45.0966064" lon="7.8472898"><ele>358.66666666666663</ele><time>2026-04-30T16:03:11.552Z</time></trkpt><trkpt lat="45.0967606" lon="7.8473113"><ele>361.0</ele><time>2026-04-30T16:03:12.602Z</time></trkpt><trkpt lat="45.0969096" lon="7.847306"><ele>361.0</ele><time>2026-04-30T16:03:13.606Z</time></trkpt><trkpt lat="45.0970559" lon="7.8472931"><ele>361.0</ele><time>2026-04-30T16:03:14.553Z</time></trkpt><trkpt lat="45.0972231" lon="7.8472967"><ele>361.0</ele><time>2026-04-30T16:03:15.672Z</time></trkpt><trkpt lat="45.0973527" lon="7.8473137"><ele>361.0</ele><time>2026-04-30T16:03:16.606Z</time></trkpt><trkpt lat="45.0974779" lon="7.8473254"><ele>362.75</ele><time>2026-04-30T16:03:17.556Z</time></trkpt><trkpt lat="45.0976097" lon="7.8473209"><ele>364.5</ele><time>2026-04-30T16:03:18.556Z</time></trkpt><trkpt lat="45.097735" lon="7.8473036"><ele>366.25</ele><time>2026-04-30T16:03:19.54Z</time></trkpt><trkpt lat="45.0978484" lon="7.8472751"><ele>368.0</ele><time>2026-04-30T16:03:20.508Z</time></trkpt><trkpt lat="45.0979621" lon="7.8472346"><ele>368.0</ele><time>2026-04-30T16:03:21.574Z</time></trkpt><trkpt lat="45.0980544" lon="7.8471564"><ele>368.0</ele><time>2026-04-30T16:03:22.548Z</time></trkpt><trkpt lat="45.0981361" lon="7.8470351"><ele>368.0</ele><time>2026-04-30T16:03:23.611Z</time></trkpt><trkpt lat="45.0981884" lon="7.8468947"><ele>368.0</ele><time>2026-04-30T16:03:24.596Z</time></trkpt><trkpt lat="45.0982192" lon="7.8467487"><ele>368.0</ele><time>2026-04-30T16:03:25.534Z</time></trkpt><trkpt lat="45.0982484" lon="7.8466102"><ele>370.6666666666667</ele><time>2026-04-30T16:03:26.519Z</time></trkpt><trkpt lat="45.098284" lon="7.8464519"><ele>373.3333333333333</ele><time>2026-04-30T16:03:27.6Z</time></trkpt><trkpt lat="45.0983231" lon="7.8462761"><ele>376.0</ele><time>2026-04-30T16:03:28.703Z</time></trkpt><trkpt lat="45.0984542" lon="7.8460089"><ele>378.25</ele><time>2026-04-30T16:03:30.548Z</time></trkpt><trkpt lat="45.0985579" lon="7.8459102"><ele>380.5</ele><time>2026-04-30T16:03:31.576Z</time></trkpt><trkpt lat="45.0986644" lon="7.8458482"><ele>382.75</ele><time>2026-04-30T16:03:32.569Z</time></trkpt><trkpt lat="45.0987805" lon="7.8457843"><ele>385.0</ele><time>2026-04-30T16:03:33.661Z</time></trkpt><trkpt lat="45.0989237" lon="7.8457089"><ele>385.00000000000006</ele><time>2026-04-30T16:03:35.59Z</time></trkpt><trkpt lat="45.098997" lon="7.8456955"><ele>385.0</ele><time>2026-04-30T16:03:37.589Z</time></trkpt><trkpt lat="45.0990597" lon="7.8457633"><ele>385.0</ele><time>2026-04-30T16:03:41.605Z</time></trkpt><trkpt lat="45.0990862" lon="7.8456682"><ele>385.0</ele><time>2026-04-30T16:12:58.579Z</time></trkpt><trkpt lat="45.099128" lon="7.8455606"><ele>385.00000000000006</ele><time>2026-04-30T16:13:14.523Z</time></trkpt><trkpt lat="45.099238" lon="7.8454761"><ele>385.0</ele><time>2026-04-30T16:13:16.574Z</time></trkpt><trkpt lat="45.0993154" lon="7.8454162"><ele>384.83333333333337</ele><time>2026-04-30T16:13:17.651Z</time></trkpt><trkpt lat="45.0993806" lon="7.845354"><ele>384.6666666666667</ele><time>2026-04-30T16:13:18.599Z</time></trkpt><trkpt lat="45.0994457" lon="7.8452842"><ele>384.5</ele><time>2026-04-30T16:13:19.527Z</time></trkpt><trkpt lat="45.0995146" lon="7.8452042"><ele>384.33333333333337</ele><time>2026-04-30T16:13:20.528Z</time></trkpt><trkpt lat="45.099589" lon="7.845119"><ele>384.1666666666667</ele><time>2026-04-30T16:13:21.573Z</time></trkpt><trkpt lat="45.0996614" lon="7.8450371"><ele>384.0</ele><time>2026-04-30T16:13:22.544Z</time></trkpt><trkpt lat="45.0997375" lon="7.8449458"><ele>385.0</ele><time>2026-04-30T16:13:23.573Z</time></trkpt><trkpt lat="45.0998658" lon="7.8448021"><ele>386.0</ele><time>2026-04-30T16:13:25.58Z</time></trkpt><trkpt lat="45.0999725" lon="7.8447729"><ele>387.0</ele><time>2026-04-30T16:13:27.518Z</time></trkpt><trkpt lat="45.1000203" lon="7.8448335"><ele>388.0</ele><time>2026-04-30T16:13:28.56Z</time></trkpt><trkpt lat="45.1000567" lon="7.8449278"><ele>389.0</ele><time>2026-04-30T16:13:29.57Z</time></trkpt><trkpt lat="45.1000996" lon="7.8450645"><ele>389.6</ele><time>2026-04-30T16:13:30.621Z</time></trkpt><trkpt lat="45.1001489" lon="7.8452029"><ele>390.2</ele><time>2026-04-30T16:13:31.566Z</time></trkpt><trkpt lat="45.100188" lon="7.8453362"><ele>390.8</ele><time>2026-04-30T16:13:32.565Z</time></trkpt><trkpt lat="45.1002301" lon="7.8454821"><ele>391.40000000000003</ele><time>2026-04-30T16:13:33.518Z</time></trkpt><trkpt lat="45.1002629" lon="7.8456324"><ele>392.0</ele><time>2026-04-30T16:13:34.51Z</time></trkpt><trkpt lat="45.1002868" lon="7.8457996"><ele>393.66666666666663</ele><time>2026-04-30T16:13:35.559Z</time></trkpt><trkpt lat="45.1003029" lon="7.8459741"><ele>395.33333333333337</ele><time>2026-04-30T16:13:36.659Z</time></trkpt><trkpt lat="45.1002998" lon="7.846309"><ele>397.0</ele><time>2026-04-30T16:13:38.549Z</time></trkpt><trkpt lat="45.1002928" lon="7.8464942"><ele>397.0</ele><time>2026-04-30T16:13:39.522Z</time></trkpt><trkpt lat="45.1002846" lon="7.8466755"><ele>397.0</ele><time>2026-04-30T16:13:40.531Z</time></trkpt><trkpt lat="45.1002715" lon="7.8468419"><ele>397.0</ele><time>2026-04-30T16:13:41.518Z</time></trkpt><trkpt lat="45.10024" lon="7.8470104"><ele>397.0</ele><time>2026-04-30T16:13:42.564Z</time></trkpt><trkpt lat="45.1001909" lon="7.847172"><ele>396.5</ele><time>2026-04-30T16:13:43.587Z</time></trkpt><trkpt lat="45.10013" lon="7.8473305"><ele>396.0</ele><time>2026-04-30T16:13:44.537Z</time></trkpt><trkpt lat="45.1000647" lon="7.847502"><ele>395.5</ele><time>2026-04-30T16:13:45.527Z</time></trkpt><trkpt lat="45.0999916" lon="7.8477199"><ele>395.0</ele><time>2026-04-30T16:13:46.659Z</time></trkpt><trkpt lat="45.0999467" lon="7.8479016"><ele>396.3333333333333</ele><time>2026-04-30T16:13:47.572Z</time></trkpt><trkpt lat="45.0999139" lon="7.8481302"><ele>397.66666666666663</ele><time>2026-04-30T16:13:48.641Z</time></trkpt><trkpt lat="45.0999044" lon="7.8483747"><ele>399.0</ele><time>2026-04-30T16:13:49.719Z</time></trkpt><trkpt lat="45.0999128" lon="7.848603"><ele>391.5</ele><time>2026-04-30T16:13:50.68Z</time></trkpt><trkpt lat="45.0999269" lon="7.848862"><ele>384.0</ele><time>2026-04-30T16:13:51.779Z</time></trkpt><trkpt lat="45.0999566" lon="7.849324"><ele>383.6666666666667</ele><time>2026-04-30T16:13:53.719Z</time></trkpt><trkpt lat="45.0999688" lon="7.8495541"><ele>383.33333333333337</ele><time>2026-04-30T16:13:54.657Z</time></trkpt><trkpt lat="45.0999738" lon="7.8497834"><ele>383.0</ele><time>2026-04-30T16:13:55.638Z</time></trkpt><trkpt lat="45.0999761" lon="7.8499927"><ele>383.33333333333337</ele><time>2026-04-30T16:13:56.599Z</time></trkpt><trkpt lat="45.0999848" lon="7.8502565"><ele>383.6666666666667</ele><time>2026-04-30T16:13:57.832Z</time></trkpt><trkpt lat="45.0999831" lon="7.8504604"><ele>384.0</ele><time>2026-04-30T16:13:58.736Z</time></trkpt><trkpt lat="45.0999522" lon="7.8506793"><ele>383.0</ele><time>2026-04-30T16:13:59.717Z</time></trkpt><trkpt lat="45.0998978" lon="7.8509166"><ele>382.0</ele><time>2026-04-30T16:14:00.716Z</time></trkpt><trkpt lat="45.0998485" lon="7.8511607"><ele>381.0</ele><time>2026-04-30T16:14:01.725Z</time></trkpt><trkpt lat="45.0998167" lon="7.8513834"><ele>383.66666666666663</ele><time>2026-04-30T16:14:02.665Z</time></trkpt><trkpt lat="45.0997722" lon="7.8516216"><ele>386.3333333333333</ele><time>2026-04-30T16:14:03.705Z</time></trkpt><trkpt lat="45.0997099" lon="7.8518766"><ele>389.0</ele><time>2026-04-30T16:14:04.836Z</time></trkpt><trkpt lat="45.0996515" lon="7.8520884"><ele>390.66666666666663</ele><time>2026-04-30T16:14:05.798Z</time></trkpt><trkpt lat="45.0995884" lon="7.8523307"><ele>392.33333333333337</ele><time>2026-04-30T16:14:06.866Z</time></trkpt><trkpt lat="45.0995403" lon="7.8525551"><ele>394.0</ele><time>2026-04-30T16:14:07.836Z</time></trkpt><trkpt lat="45.0994207" lon="7.8529783"><ele>397.33333333333337</ele><time>2026-04-30T16:14:09.769Z</time></trkpt><trkpt lat="45.0993329" lon="7.8531596"><ele>400.66666666666663</ele><time>2026-04-30T16:14:10.707Z</time></trkpt><trkpt lat="45.099251" lon="7.8533168"><ele>404.0</ele><time>2026-04-30T16:14:11.631Z</time></trkpt><trkpt lat="45.0990994" lon="7.8535582"><ele>408.2</ele><time>2026-04-30T16:14:13.503Z</time></trkpt><trkpt lat="45.0990159" lon="7.8536195"><ele>412.4</ele><time>2026-04-30T16:14:14.479Z</time></trkpt><trkpt lat="45.0989216" lon="7.8536319"><ele>416.6</ele><time>2026-04-30T16:14:15.605Z</time></trkpt><trkpt lat="45.0988473" lon="7.8535798"><ele>420.8</ele><time>2026-04-30T16:14:16.534Z</time></trkpt><trkpt lat="45.098784" lon="7.8534914"><ele>425.0</ele><time>2026-04-30T16:14:17.529Z</time></trkpt><trkpt lat="45.0987462" lon="7.8533527"><ele>425.0</ele><time>2026-04-30T16:14:18.463Z</time></trkpt><trkpt lat="45.0987236" lon="7.853177"><ele>425.0</ele><time>2026-04-30T16:14:19.564Z</time></trkpt><trkpt lat="45.0986882" lon="7.8530319"><ele>425.0</ele><time>2026-04-30T16:14:20.521Z</time></trkpt><trkpt lat="45.0986221" lon="7.8528992"><ele>425.0</ele><time>2026-04-30T16:14:21.467Z</time></trkpt><trkpt lat="45.0985143" lon="7.8528074"><ele>425.0</ele><time>2026-04-30T16:14:22.518Z</time></trkpt><trkpt lat="45.0984217" lon="7.8527233"><ele>425.0</ele><time>2026-04-30T16:14:23.617Z</time></trkpt><trkpt lat="45.0983942" lon="7.8526267"><ele>425.0</ele><time>2026-04-30T16:14:24.588Z</time></trkpt><trkpt lat="45.0983898" lon="7.8524883"><ele>425.0</ele><time>2026-04-30T16:14:25.558Z</time></trkpt><trkpt lat="45.0984072" lon="7.8522992"><ele>425.0</ele><time>2026-04-30T16:14:26.645Z</time></trkpt><trkpt lat="45.0984209" lon="7.852146"><ele>424.16666666666663</ele><time>2026-04-30T16:14:27.611Z</time></trkpt><trkpt lat="45.0984292" lon="7.8520115"><ele>423.3333333333333</ele><time>2026-04-30T16:14:28.602Z</time></trkpt><trkpt lat="45.0984013" lon="7.8519073"><ele>422.5</ele><time>2026-04-30T16:14:29.634Z</time></trkpt><trkpt lat="45.0983379" lon="7.8518561"><ele>421.66666666666663</ele><time>2026-04-30T16:14:30.697Z</time></trkpt><trkpt lat="45.0982591" lon="7.8518758"><ele>420.8333333333333</ele><time>2026-04-30T16:14:31.634Z</time></trkpt><trkpt lat="45.098165" lon="7.8519523"><ele>420.0</ele><time>2026-04-30T16:14:32.714Z</time></trkpt><trkpt lat="45.0979759" lon="7.8520922"><ele>423.0</ele><time>2026-04-30T16:14:34.627Z</time></trkpt><trkpt lat="45.0978884" lon="7.8521511"><ele>426.0</ele><time>2026-04-30T16:14:35.615Z</time></trkpt><trkpt lat="45.0978175" lon="7.852193"><ele>429.0</ele><time>2026-04-30T16:14:36.734Z</time></trkpt><trkpt lat="45.0977552" lon="7.8522761"><ele>432.0</ele><time>2026-04-30T16:14:38.726Z</time></trkpt><trkpt lat="45.097741" lon="7.852385"><ele>435.0</ele><time>2026-04-30T16:14:40.639Z</time></trkpt><trkpt lat="45.0977378" lon="7.8524951"><ele>438.0</ele><time>2026-04-30T16:14:41.622Z</time></trkpt><trkpt lat="45.0977449" lon="7.8526523"><ele>441.0</ele><time>2026-04-30T16:14:42.668Z</time></trkpt><trkpt lat="45.0977711" lon="7.852839"><ele>444.0</ele><time>2026-04-30T16:14:43.651Z</time></trkpt><trkpt lat="45.097803" lon="7.8530048"><ele>447.0</ele><time>2026-04-30T16:14:44.604Z</time></trkpt><trkpt lat="45.0978548" lon="7.8531984"><ele>450.0</ele><time>2026-04-30T16:14:45.789Z</time></trkpt><trkpt lat="45.0979685" lon="7.8534086"><ele>449.4</ele><time>2026-04-30T16:14:47.77Z</time></trkpt><trkpt lat="45.0979872" lon="7.8535451"><ele>448.8</ele><time>2026-04-30T16:14:49.712Z</time></trkpt><trkpt lat="45.0978586" lon="7.8535051"><ele>448.20000000000005</ele><time>2026-04-30T16:14:52.757Z</time></trkpt><trkpt lat="45.0977763" lon="7.8534697"><ele>447.6</ele><time>2026-04-30T16:14:53.66Z</time></trkpt><trkpt lat="45.0977264" lon="7.85353"><ele>447.0</ele><time>2026-04-30T16:14:54.683Z</time></trkpt><trkpt lat="45.0976515" lon="7.8536177"><ele>447.0</ele><time>2026-04-30T16:14:55.725Z</time></trkpt><trkpt lat="45.0975064" lon="7.8538374"><ele>447.0</ele><time>2026-04-30T16:14:57.664Z</time></trkpt><trkpt lat="45.0974393" lon="7.8539961"><ele>447.0</ele><time>2026-04-30T16:14:58.709Z</time></trkpt><trkpt lat="45.0974106" lon="7.8541402"><ele>447.0</ele><time>2026-04-30T16:14:59.64Z</time></trkpt><trkpt lat="45.0973896" lon="7.8543415"><ele>447.0</ele><time>2026-04-30T16:15:00.648Z</time></trkpt><trkpt lat="45.097426" lon="7.8545455"><ele>447.0</ele><time>2026-04-30T16:15:01.653Z</time></trkpt><trkpt lat="45.097467" lon="7.8547246"><ele>447.0</ele><time>2026-04-30T16:15:02.632Z</time></trkpt><trkpt lat="45.0975212" lon="7.8549021"><ele>447.0</ele><time>2026-04-30T16:15:03.676Z</time></trkpt><trkpt lat="45.097598" lon="7.8550318"><ele>448.75</ele><time>2026-04-30T16:15:04.66Z</time></trkpt><trkpt lat="45.0976733" lon="7.8551468"><ele>450.5</ele><time>2026-04-30T16:15:05.656Z</time></trkpt><trkpt lat="45.097737" lon="7.8552674"><ele>452.25</ele><time>2026-04-30T16:15:06.657Z</time></trkpt><trkpt lat="45.0977877" lon="7.8554039"><ele>454.0</ele><time>2026-04-30T16:15:07.609Z</time></trkpt><trkpt lat="45.0978183" lon="7.8556093"><ele>453.6666666666667</ele><time>2026-04-30T16:15:08.824Z</time></trkpt><trkpt lat="45.097817" lon="7.8560017"><ele>453.33333333333337</ele><time>2026-04-30T16:15:10.69Z</time></trkpt><trkpt lat="45.0978166" lon="7.8562047"><ele>453.0</ele><time>2026-04-30T16:15:11.766Z</time></trkpt><trkpt lat="45.0978366" lon="7.8563994"><ele>453.0</ele><time>2026-04-30T16:15:12.77Z</time></trkpt><trkpt lat="45.0978942" lon="7.8567186"><ele>453.0</ele><time>2026-04-30T16:15:14.563Z</time></trkpt><trkpt lat="45.0979319" lon="7.856904"><ele>453.0</ele><time>2026-04-30T16:15:15.581Z</time></trkpt><trkpt lat="45.0979706" lon="7.8570834"><ele>452.4</ele><time>2026-04-30T16:15:16.588Z</time></trkpt><trkpt lat="45.0980053" lon="7.8572442"><ele>451.79999999999995</ele><time>2026-04-30T16:15:17.551Z</time></trkpt><trkpt lat="45.0980491" lon="7.8573991"><ele>451.2</ele><time>2026-04-30T16:15:18.582Z</time></trkpt><trkpt lat="45.098093" lon="7.8575164"><ele>450.6</ele><time>2026-04-30T16:15:19.507Z</time></trkpt><trkpt lat="45.0981373" lon="7.8576381"><ele>450.0</ele><time>2026-04-30T16:15:20.556Z</time></trkpt><trkpt lat="45.0981677" lon="7.8577511"><ele>450.0</ele><time>2026-04-30T16:15:21.555Z</time></trkpt><trkpt lat="45.0981807" lon="7.8578791"><ele>450.0</ele><time>2026-04-30T16:15:22.553Z</time></trkpt><trkpt lat="45.0981816" lon="7.8580115"><ele>450.0</ele><time>2026-04-30T16:15:23.538Z</time></trkpt><trkpt lat="45.0981646" lon="7.8581618"><ele>450.0</ele><time>2026-04-30T16:15:24.573Z</time></trkpt><trkpt lat="45.0981159" lon="7.8583262"><ele>450.0</ele><time>2026-04-30T16:15:25.592Z</time></trkpt><trkpt lat="45.0980814" lon="7.8585025"><ele>449.0</ele><time>2026-04-30T16:15:26.548Z</time></trkpt><trkpt lat="45.098058" lon="7.8586968"><ele>448.0</ele><time>2026-04-30T16:15:27.538Z</time></trkpt><trkpt lat="45.0980286" lon="7.8589105"><ele>447.0</ele><time>2026-04-30T16:15:28.581Z</time></trkpt><trkpt lat="45.0980038" lon="7.8591215"><ele>446.0</ele><time>2026-04-30T16:15:29.552Z</time></trkpt><trkpt lat="45.0979727" lon="7.8593874"><ele>445.5</ele><time>2026-04-30T16:15:30.805Z</time></trkpt><trkpt lat="45.0979638" lon="7.8598112"><ele>445.0</ele><time>2026-04-30T16:15:32.552Z</time></trkpt><trkpt lat="45.0979636" lon="7.8600418"><ele>445.0</ele><time>2026-04-30T16:15:33.567Z</time></trkpt><trkpt lat="45.0979527" lon="7.8602978"><ele>445.0</ele><time>2026-04-30T16:15:34.647Z</time></trkpt><trkpt lat="45.0979285" lon="7.8605383"><ele>445.0</ele><time>2026-04-30T16:15:35.722Z</time></trkpt><trkpt lat="45.097876" lon="7.8607529"><ele>445.0</ele><time>2026-04-30T16:15:36.704Z</time></trkpt><trkpt lat="45.0978016" lon="7.8609467"><ele>445.0</ele><time>2026-04-30T16:15:37.63Z</time></trkpt><trkpt lat="45.0977239" lon="7.8611471"><ele>445.0</ele><time>2026-04-30T16:15:38.561Z</time></trkpt><trkpt lat="45.0976312" lon="7.8614173"><ele>444.33333333333337</ele><time>2026-04-30T16:15:39.772Z</time></trkpt><trkpt lat="45.0975802" lon="7.8616289"><ele>443.66666666666663</ele><time>2026-04-30T16:15:40.746Z</time></trkpt><trkpt lat="45.0975356" lon="7.8618311"><ele>443.0</ele><time>2026-04-30T16:15:41.72Z</time></trkpt><trkpt lat="45.09751" lon="7.8620498"><ele>444.0</ele><time>2026-04-30T16:15:42.727Z</time></trkpt><trkpt lat="45.0974913" lon="7.8624749"><ele>445.0</ele><time>2026-04-30T16:15:44.509Z</time></trkpt><trkpt lat="45.0974547" lon="7.8627125"><ele>445.0</ele><time>2026-04-30T16:15:45.584Z</time></trkpt><trkpt lat="45.0974198" lon="7.8629058"><ele>445.0</ele><time>2026-04-30T16:15:46.573Z</time></trkpt><trkpt lat="45.0973901" lon="7.8630819"><ele>445.0</ele><time>2026-04-30T16:15:47.644Z</time></trkpt><trkpt lat="45.0973024" lon="7.8633074"><ele>448.0</ele><time>2026-04-30T16:15:49.524Z</time></trkpt><trkpt lat="45.0972205" lon="7.8634184"><ele>451.0</ele><time>2026-04-30T16:15:50.573Z</time></trkpt><trkpt lat="45.0971158" lon="7.8635473"><ele>454.0</ele><time>2026-04-30T16:15:51.646Z</time></trkpt><trkpt lat="45.0970099" lon="7.8636896"><ele>457.0</ele><time>2026-04-30T16:15:52.664Z</time></trkpt><trkpt lat="45.0968951" lon="7.8638543"><ele>457.75</ele><time>2026-04-30T16:15:53.726Z</time></trkpt><trkpt lat="45.0967967" lon="7.8639993"><ele>458.5</ele><time>2026-04-30T16:15:54.697Z</time></trkpt><trkpt lat="45.0967161" lon="7.8641308"><ele>459.25</ele><time>2026-04-30T16:15:55.631Z</time></trkpt><trkpt lat="45.0966582" lon="7.864278"><ele>460.0</ele><time>2026-04-30T16:15:56.625Z</time></trkpt><trkpt lat="45.0966272" lon="7.8644729"><ele>461.0</ele><time>2026-04-30T16:15:57.725Z</time></trkpt><trkpt lat="45.0966179" lon="7.8646675"><ele>462.0</ele><time>2026-04-30T16:15:58.706Z</time></trkpt><trkpt lat="45.0966172" lon="7.8648736"><ele>463.0</ele><time>2026-04-30T16:15:59.711Z</time></trkpt><trkpt lat="45.0966256" lon="7.8650541"><ele>464.0</ele><time>2026-04-30T16:16:00.63Z</time></trkpt><trkpt lat="45.0966516" lon="7.865273"><ele>467.0</ele><time>2026-04-30T16:16:01.706Z</time></trkpt><trkpt lat="45.0967022" lon="7.8654659"><ele>470.0</ele><time>2026-04-30T16:16:02.674Z</time></trkpt><trkpt lat="45.0967513" lon="7.8656681"><ele>473.0</ele><time>2026-04-30T16:16:03.658Z</time></trkpt><trkpt lat="45.0967881" lon="7.8658818"><ele>471.0</ele><time>2026-04-30T16:16:04.732Z</time></trkpt><trkpt lat="45.0968427" lon="7.8662713"><ele>469.0</ele><time>2026-04-30T16:16:06.516Z</time></trkpt><trkpt lat="45.0968716" lon="7.8664965"><ele>467.0</ele><time>2026-04-30T16:16:07.649Z</time></trkpt><trkpt lat="45.0968869" lon="7.8666507"><ele>463.66666666666663</ele><time>2026-04-30T16:16:08.573Z</time></trkpt><trkpt lat="45.0968837" lon="7.8668113"><ele>460.33333333333337</ele><time>2026-04-30T16:16:09.541Z</time></trkpt><trkpt lat="45.0968587" lon="7.8669949"><ele>457.0</ele><time>2026-04-30T16:16:10.642Z</time></trkpt><trkpt lat="45.0967319" lon="7.8672761"><ele>454.0</ele><time>2026-04-30T16:16:12.569Z</time></trkpt><trkpt lat="45.0965683" lon="7.867514"><ele>451.0</ele><time>2026-04-30T16:16:14.564Z</time></trkpt><trkpt lat="45.0965198" lon="7.8676615"><ele>448.0</ele><time>2026-04-30T16:16:15.507Z</time></trkpt><trkpt lat="45.0964965" lon="7.8678614"><ele>448.0</ele><time>2026-04-30T16:16:16.567Z</time></trkpt><trkpt lat="45.0964883" lon="7.8680545"><ele>448.0</ele><time>2026-04-30T16:16:17.511Z</time></trkpt><trkpt lat="45.0964599" lon="7.8682708"><ele>448.0</ele><time>2026-04-30T16:16:18.551Z</time></trkpt><trkpt lat="45.0964117" lon="7.8684579"><ele>448.0</ele><time>2026-04-30T16:16:19.508Z</time></trkpt><trkpt lat="45.0963528" lon="7.868639"><ele>451.25</ele><time>2026-04-30T16:16:20.513Z</time></trkpt><trkpt lat="45.0962944" lon="7.8688143"><ele>454.5</ele><time>2026-04-30T16:16:21.586Z</time></trkpt><trkpt lat="45.09625" lon="7.8689638"><ele>457.75</ele><time>2026-04-30T16:16:22.535Z</time></trkpt><trkpt lat="45.0962223" lon="7.8691206"><ele>461.0</ele><time>2026-04-30T16:16:23.5Z</time></trkpt><trkpt lat="45.09623" lon="7.8693005"><ele>461.0</ele><time>2026-04-30T16:16:24.505Z</time></trkpt><trkpt lat="45.0962553" lon="7.8694861"><ele>461.0</ele><time>2026-04-30T16:16:25.582Z</time></trkpt><trkpt lat="45.0962642" lon="7.8696304"><ele>461.0</ele><time>2026-04-30T16:16:26.532Z</time></trkpt><trkpt lat="45.0962469" lon="7.8697545"><ele>461.0</ele><time>2026-04-30T16:16:27.498Z</time></trkpt><trkpt lat="45.0961953" lon="7.8698906"><ele>461.0</ele><time>2026-04-30T16:16:28.51Z</time></trkpt><trkpt lat="45.0961144" lon="7.870052"><ele>456.75</ele><time>2026-04-30T16:16:29.618Z</time></trkpt><trkpt lat="45.0960316" lon="7.8702106"><ele>452.5</ele><time>2026-04-30T16:16:30.622Z</time></trkpt><trkpt lat="45.0959495" lon="7.8703523"><ele>448.25</ele><time>2026-04-30T16:16:31.534Z</time></trkpt><trkpt lat="45.0958488" lon="7.8705267"><ele>444.0</ele><time>2026-04-30T16:16:32.693Z</time></trkpt><trkpt lat="45.0957685" lon="7.8706556"><ele>442.5</ele><time>2026-04-30T16:16:33.625Z</time></trkpt><trkpt lat="45.0956863" lon="7.8707981"><ele>441.0</ele><time>2026-04-30T16:16:34.637Z</time></trkpt><trkpt lat="45.0955922" lon="7.8709547"><ele>439.5</ele><time>2026-04-30T16:16:35.733Z</time></trkpt><trkpt lat="45.0955064" lon="7.871075"><ele>438.0</ele><time>2026-04-30T16:16:36.7Z</time></trkpt><trkpt lat="45.0954409" lon="7.8711948"><ele>438.0</ele><time>2026-04-30T16:16:37.623Z</time></trkpt><trkpt lat="45.0953896" lon="7.8713418"><ele>438.0</ele><time>2026-04-30T16:16:38.625Z</time></trkpt><trkpt lat="45.0953734" lon="7.8715193"><ele>438.0</ele><time>2026-04-30T16:16:39.616Z</time></trkpt><trkpt lat="45.0953864" lon="7.8717499"><ele>438.0</ele><time>2026-04-30T16:16:40.731Z</time></trkpt><trkpt lat="45.0954078" lon="7.8719938"><ele>429.5</ele><time>2026-04-30T16:16:41.811Z</time></trkpt><trkpt lat="45.0954297" lon="7.8724511"><ele>421.0</ele><time>2026-04-30T16:16:43.722Z</time></trkpt><trkpt lat="45.0954416" lon="7.8726953"><ele>417.33333333333337</ele><time>2026-04-30T16:16:44.722Z</time></trkpt><trkpt lat="45.0954624" lon="7.872943"><ele>413.66666666666663</ele><time>2026-04-30T16:16:45.752Z</time></trkpt><trkpt lat="45.0954901" lon="7.8731685"><ele>410.0</ele><time>2026-04-30T16:16:46.726Z</time></trkpt><trkpt lat="45.0955222" lon="7.8733796"><ele>407.3333333333333</ele><time>2026-04-30T16:16:47.712Z</time></trkpt><trkpt lat="45.0955567" lon="7.8735929"><ele>404.66666666666663</ele><time>2026-04-30T16:16:48.702Z</time></trkpt><trkpt lat="45.0955927" lon="7.8739684"><ele>402.0</ele><time>2026-04-30T16:16:50.543Z</time></trkpt><trkpt lat="45.0955674" lon="7.8742126"><ele>401.33333333333337</ele><time>2026-04-30T16:16:51.73Z</time></trkpt><trkpt lat="45.0954701" lon="7.8745882"><ele>400.6666666666667</ele><time>2026-04-30T16:16:53.537Z</time></trkpt><trkpt lat="45.0954202" lon="7.8747866"><ele>400.0</ele><time>2026-04-30T16:16:54.53Z</time></trkpt><trkpt lat="45.0953741" lon="7.8749662"><ele>400.25</ele><time>2026-04-30T16:16:55.5Z</time></trkpt><trkpt lat="45.0953325" lon="7.8751467"><ele>400.5</ele><time>2026-04-30T16:16:56.568Z</time></trkpt><trkpt lat="45.0953012" lon="7.8753079"><ele>400.75</ele><time>2026-04-30T16:16:57.547Z</time></trkpt><trkpt lat="45.0952753" lon="7.8754694"><ele>401.0</ele><time>2026-04-30T16:16:58.554Z</time></trkpt><trkpt lat="45.0952522" lon="7.8756193"><ele>400.99999999999994</ele><time>2026-04-30T16:16:59.586Z</time></trkpt><trkpt lat="45.0952359" lon="7.8757349"><ele>401.0</ele><time>2026-04-30T16:17:00.497Z</time></trkpt><trkpt lat="45.0952183" lon="7.8758524"><ele>401.0</ele><time>2026-04-30T16:17:01.59Z</time></trkpt><trkpt lat="45.0952057" lon="7.8759398"><ele>401.0</ele><time>2026-04-30T16:17:02.594Z</time></trkpt><trkpt lat="45.0951968" lon="7.8760452"><ele>400.99999999999994</ele><time>2026-04-30T16:17:04.582Z</time></trkpt><trkpt lat="45.0952304" lon="7.876135"><ele>401.0</ele><time>2026-04-30T16:17:07.625Z</time></trkpt><trkpt lat="45.0953475" lon="7.8761445"><ele>401.25</ele><time>2026-04-30T16:17:09.607Z</time></trkpt><trkpt lat="45.095428" lon="7.8761352"><ele>401.5</ele><time>2026-04-30T16:17:10.657Z</time></trkpt><trkpt lat="45.0955066" lon="7.8761063"><ele>401.75</ele><time>2026-04-30T16:17:11.583Z</time></trkpt><trkpt lat="45.0956181" lon="7.8760267"><ele>402.0</ele><time>2026-04-30T16:17:12.73Z</time></trkpt><trkpt lat="45.0958136" lon="7.8758956"><ele>401.5</ele><time>2026-04-30T16:17:14.575Z</time></trkpt><trkpt lat="45.0959046" lon="7.8758047"><ele>401.0</ele><time>2026-04-30T16:17:15.672Z</time></trkpt><trkpt lat="45.0959695" lon="7.875668"><ele>400.5</ele><time>2026-04-30T16:17:16.693Z</time></trkpt><trkpt lat="45.096016" lon="7.8754938"><ele>400.0</ele><time>2026-04-30T16:17:17.652Z</time></trkpt><trkpt lat="45.0960722" lon="7.8752727"><ele>400.0</ele><time>2026-04-30T16:17:18.713Z</time></trkpt><trkpt lat="45.0961113" lon="7.87507"><ele>400.0</ele><time>2026-04-30T16:17:19.675Z</time></trkpt><trkpt lat="45.0961515" lon="7.8748651"><ele>400.0</ele><time>2026-04-30T16:17:20.681Z</time></trkpt><trkpt lat="45.0962169" lon="7.8746637"><ele>400.0</ele><time>2026-04-30T16:17:21.768Z</time></trkpt><trkpt lat="45.0963073" lon="7.8745054"><ele>400.0</ele><time>2026-04-30T16:17:22.767Z</time></trkpt><trkpt lat="45.0965273" lon="7.8742393"><ele>400.0</ele><time>2026-04-30T16:17:24.507Z</time></trkpt><trkpt lat="45.0966687" lon="7.8740867"><ele>393.0</ele><time>2026-04-30T16:17:25.527Z</time></trkpt><trkpt lat="45.0968083" lon="7.8739326"><ele>386.0</ele><time>2026-04-30T16:17:26.538Z</time></trkpt><trkpt lat="45.0969396" lon="7.8737872"><ele>379.0</ele><time>2026-04-30T16:17:27.512Z</time></trkpt><trkpt lat="45.0970727" lon="7.8736321"><ele>379.0</ele><time>2026-04-30T16:17:28.52Z</time></trkpt><trkpt lat="45.0972004" lon="7.8734501"><ele>379.0</ele><time>2026-04-30T16:17:29.558Z</time></trkpt><trkpt lat="45.097316" lon="7.8732644"><ele>379.0</ele><time>2026-04-30T16:17:30.521Z</time></trkpt><trkpt lat="45.0974289" lon="7.8730678"><ele>377.0</ele><time>2026-04-30T16:17:31.518Z</time></trkpt><trkpt lat="45.0975429" lon="7.8728696"><ele>375.0</ele><time>2026-04-30T16:17:32.52Z</time></trkpt><trkpt lat="45.0976664" lon="7.8726605"><ele>373.0</ele><time>2026-04-30T16:17:33.593Z</time></trkpt><trkpt lat="45.0977742" lon="7.8724729"><ele>373.0</ele><time>2026-04-30T16:17:34.585Z</time></trkpt><trkpt lat="45.0978767" lon="7.8722962"><ele>373.0</ele><time>2026-04-30T16:17:35.587Z</time></trkpt><trkpt lat="45.0979808" lon="7.8721181"><ele>373.0</ele><time>2026-04-30T16:17:36.648Z</time></trkpt><trkpt lat="45.0980906" lon="7.8719728"><ele>373.0</ele><time>2026-04-30T16:17:37.602Z</time></trkpt><trkpt lat="45.0982006" lon="7.8718473"><ele>373.0</ele><time>2026-04-30T16:17:38.508Z</time></trkpt><trkpt lat="45.0983473" lon="7.8717346"><ele>373.0</ele><time>2026-04-30T16:17:39.49Z</time></trkpt><trkpt lat="45.0984774" lon="7.871648"><ele>371.79999999999995</ele><time>2026-04-30T16:17:40.546Z</time></trkpt><trkpt lat="45.0985664" lon="7.8715893"><ele>370.6</ele><time>2026-04-30T16:17:41.51Z</time></trkpt><trkpt lat="45.0986567" lon="7.871555"><ele>369.4</ele><time>2026-04-30T16:17:42.53Z</time></trkpt><trkpt lat="45.0987619" lon="7.8715782"><ele>368.20000000000005</ele><time>2026-04-30T16:17:43.541Z</time></trkpt><trkpt lat="45.0988911" lon="7.8716629"><ele>367.0</ele><time>2026-04-30T16:17:44.6Z</time></trkpt><trkpt lat="45.0990174" lon="7.8717592"><ele>362.3333333333333</ele><time>2026-04-30T16:17:45.598Z</time></trkpt><trkpt lat="45.0991381" lon="7.871853"><ele>357.6666666666667</ele><time>2026-04-30T16:17:46.558Z</time></trkpt><trkpt lat="45.0992816" lon="7.8719427"><ele>353.0</ele><time>2026-04-30T16:17:47.627Z</time></trkpt><trkpt lat="45.0994424" lon="7.8720232"><ele>353.0</ele><time>2026-04-30T16:17:48.824Z</time></trkpt><trkpt lat="45.0996832" lon="7.8720708"><ele>353.0</ele><time>2026-04-30T16:17:50.546Z</time></trkpt><trkpt lat="45.0998292" lon="7.8721383"><ele>353.0</ele><time>2026-04-30T16:17:51.678Z</time></trkpt><trkpt lat="45.0999412" lon="7.8722325"><ele>353.33333333333337</ele><time>2026-04-30T16:17:52.663Z</time></trkpt><trkpt lat="45.1000884" lon="7.8725124"><ele>353.6666666666667</ele><time>2026-04-30T16:17:54.589Z</time></trkpt><trkpt lat="45.1001245" lon="7.8727044"><ele>354.0</ele><time>2026-04-30T16:17:55.665Z</time></trkpt><trkpt lat="45.1001275" lon="7.8729026"><ele>354.0</ele><time>2026-04-30T16:17:56.711Z</time></trkpt><trkpt lat="45.1000925" lon="7.8730751"><ele>354.0</ele><time>2026-04-30T16:17:57.656Z</time></trkpt><trkpt lat="45.1000091" lon="7.8733673"><ele>354.0</ele><time>2026-04-30T16:17:59.531Z</time></trkpt><trkpt lat="45.1000113" lon="7.8735353"><ele>351.5</ele><time>2026-04-30T16:18:00.607Z</time></trkpt><trkpt lat="45.1000496" lon="7.8736865"><ele>349.0</ele><time>2026-04-30T16:18:01.573Z</time></trkpt><trkpt lat="45.1001253" lon="7.8738132"><ele>346.5</ele><time>2026-04-30T16:18:02.572Z</time></trkpt><trkpt lat="45.1002294" lon="7.8739271"><ele>344.0</ele><time>2026-04-30T16:18:03.577Z</time></trkpt><trkpt lat="45.1003775" lon="7.8740628"><ele>344.0</ele><time>2026-04-30T16:18:04.807Z</time></trkpt><trkpt lat="45.1006164" lon="7.8742829"><ele>344.0</ele><time>2026-04-30T16:18:06.606Z</time></trkpt><trkpt lat="45.1007433" lon="7.8744158"><ele>344.0</ele><time>2026-04-30T16:18:07.56Z</time></trkpt><trkpt lat="45.1008696" lon="7.8745646"><ele>344.0</ele><time>2026-04-30T16:18:08.528Z</time></trkpt><trkpt lat="45.1010101" lon="7.8747253"><ele>344.0</ele><time>2026-04-30T16:18:09.559Z</time></trkpt><trkpt lat="45.101184" lon="7.8749135"><ele>344.0</ele><time>2026-04-30T16:18:10.737Z</time></trkpt><trkpt lat="45.1014391" lon="7.8752188"><ele>342.0</ele><time>2026-04-30T16:18:12.537Z</time></trkpt><trkpt lat="45.1015662" lon="7.8753782"><ele>340.0</ele><time>2026-04-30T16:18:13.512Z</time></trkpt><trkpt lat="45.1016933" lon="7.8755437"><ele>338.0</ele><time>2026-04-30T16:18:14.569Z</time></trkpt><trkpt lat="45.101821" lon="7.8757019"><ele>333.6666666666667</ele><time>2026-04-30T16:18:15.625Z</time></trkpt><trkpt lat="45.102052" lon="7.8759794"><ele>329.3333333333333</ele><time>2026-04-30T16:18:17.596Z</time></trkpt><trkpt lat="45.1021565" lon="7.8760937"><ele>325.0</ele><time>2026-04-30T16:18:18.532Z</time></trkpt><trkpt lat="45.1022879" lon="7.8761681"><ele>326.5</ele><time>2026-04-30T16:18:19.563Z</time></trkpt><trkpt lat="45.1024202" lon="7.8761861"><ele>328.0</ele><time>2026-04-30T16:18:20.541Z</time></trkpt><trkpt lat="45.102551" lon="7.8761708"><ele>329.5</ele><time>2026-04-30T16:18:21.602Z</time></trkpt><trkpt lat="45.1026767" lon="7.8761412"><ele>331.0</ele><time>2026-04-30T16:18:22.693Z</time></trkpt><trkpt lat="45.1028859" lon="7.8761468"><ele>331.0</ele><time>2026-04-30T16:18:24.568Z</time></trkpt><trkpt lat="45.1030086" lon="7.8762007"><ele>331.0</ele><time>2026-04-30T16:18:25.727Z</time></trkpt><trkpt lat="45.1031822" lon="7.8763126"><ele>331.0</ele><time>2026-04-30T16:18:27.506Z</time></trkpt><trkpt lat="45.1032513" lon="7.8764292"><ele>331.0</ele><time>2026-04-30T16:18:28.553Z</time></trkpt><trkpt lat="45.1032945" lon="7.8765658"><ele>330.66666666666663</ele><time>2026-04-30T16:18:29.525Z</time></trkpt><trkpt lat="45.1033182" lon="7.8768481"><ele>330.3333333333333</ele><time>2026-04-30T16:18:30.59Z</time></trkpt><trkpt lat="45.1033703" lon="7.8770142"><ele>330.0</ele><time>2026-04-30T16:18:31.587Z</time></trkpt><trkpt lat="45.1034371" lon="7.877168"><ele>330.0</ele><time>2026-04-30T16:18:32.59Z</time></trkpt><trkpt lat="45.1035254" lon="7.87731"><ele>330.0</ele><time>2026-04-30T16:18:33.571Z</time></trkpt><trkpt lat="45.1036361" lon="7.8774561"><ele>330.0</ele><time>2026-04-30T16:18:34.661Z</time></trkpt><trkpt lat="45.1038195" lon="7.8777173"><ele>329.2</ele><time>2026-04-30T16:18:36.584Z</time></trkpt><trkpt lat="45.1039067" lon="7.8778421"><ele>328.4</ele><time>2026-04-30T16:18:37.718Z</time></trkpt><trkpt lat="45.1039758" lon="7.8779382"><ele>327.6</ele><time>2026-04-30T16:18:38.662Z</time></trkpt><trkpt lat="45.1040482" lon="7.8780297"><ele>326.8</ele><time>2026-04-30T16:18:39.598Z</time></trkpt><trkpt lat="45.1041368" lon="7.8781171"><ele>326.0</ele><time>2026-04-30T16:18:40.534Z</time></trkpt><trkpt lat="45.1042399" lon="7.8781911"><ele>326.0</ele><time>2026-04-30T16:18:41.525Z</time></trkpt><trkpt lat="45.1043669" lon="7.8782499"><ele>326.0</ele><time>2026-04-30T16:18:42.545Z</time></trkpt><trkpt lat="45.1045035" lon="7.8782888"><ele>326.0</ele><time>2026-04-30T16:18:43.538Z</time></trkpt><trkpt lat="45.1046446" lon="7.8783291"><ele>326.0</ele><time>2026-04-30T16:18:44.537Z</time></trkpt><trkpt lat="45.1047929" lon="7.8783727"><ele>326.0</ele><time>2026-04-30T16:18:45.632Z</time></trkpt><trkpt lat="45.1049061" lon="7.8784201"><ele>326.0</ele><time>2026-04-30T16:18:46.548Z</time></trkpt><trkpt lat="45.1050299" lon="7.8784702"><ele>326.0</ele><time>2026-04-30T16:18:47.569Z</time></trkpt><trkpt lat="45.105137" lon="7.8785094"><ele>326.0</ele><time>2026-04-30T16:18:48.55Z</time></trkpt><trkpt lat="45.1052542" lon="7.8785452"><ele>326.6666666666667</ele><time>2026-04-30T16:18:49.707Z</time></trkpt><trkpt lat="45.105472" lon="7.8785096"><ele>327.3333333333333</ele><time>2026-04-30T16:18:51.603Z</time></trkpt><trkpt lat="45.1055934" lon="7.8784667"><ele>328.0</ele><time>2026-04-30T16:18:52.538Z</time></trkpt><trkpt lat="45.1057321" lon="7.8784156"><ele>328.0</ele><time>2026-04-30T16:18:53.577Z</time></trkpt><trkpt lat="45.1058546" lon="7.8783532"><ele>328.0</ele><time>2026-04-30T16:18:54.549Z</time></trkpt><trkpt lat="45.1059915" lon="7.8783062"><ele>328.0</ele><time>2026-04-30T16:18:55.597Z</time></trkpt><trkpt lat="45.1061161" lon="7.8782966"><ele>328.0</ele><time>2026-04-30T16:18:56.569Z</time></trkpt><trkpt lat="45.1062356" lon="7.8783231"><ele>328.0</ele><time>2026-04-30T16:18:57.561Z</time></trkpt><trkpt lat="45.1063488" lon="7.8783772"><ele>328.0</ele><time>2026-04-30T16:18:58.557Z</time></trkpt><trkpt lat="45.1064502" lon="7.8784357"><ele>328.0</ele><time>2026-04-30T16:18:59.551Z</time></trkpt><trkpt lat="45.1065547" lon="7.8784763"><ele>328.0</ele><time>2026-04-30T16:19:00.598Z</time></trkpt><trkpt lat="45.1066507" lon="7.8784762"><ele>328.0</ele><time>2026-04-30T16:19:01.543Z</time></trkpt><trkpt lat="45.1067491" lon="7.8784565"><ele>328.5</ele><time>2026-04-30T16:19:02.578Z</time></trkpt><trkpt lat="45.1068343" lon="7.8784338"><ele>329.0</ele><time>2026-04-30T16:19:03.604Z</time></trkpt><trkpt lat="45.106971" lon="7.8784697"><ele>329.5</ele><time>2026-04-30T16:19:05.623Z</time></trkpt><trkpt lat="45.1070154" lon="7.8786297"><ele>330.0</ele><time>2026-04-30T16:19:07.677Z</time></trkpt><trkpt lat="45.1069332" lon="7.8787642"><ele>327.2</ele><time>2026-04-30T16:19:09.566Z</time></trkpt><trkpt lat="45.1068485" lon="7.878782"><ele>324.4</ele><time>2026-04-30T16:19:10.602Z</time></trkpt><trkpt lat="45.1067576" lon="7.8787805"><ele>321.6</ele><time>2026-04-30T16:19:11.591Z</time></trkpt><trkpt lat="45.106667" lon="7.8787798"><ele>318.8</ele><time>2026-04-30T16:19:12.606Z</time></trkpt><trkpt lat="45.1065908" lon="7.8787891"><ele>316.0</ele><time>2026-04-30T16:19:13.638Z</time></trkpt><trkpt lat="45.1064969" lon="7.8788761"><ele>316.0</ele><time>2026-04-30T16:19:15.626Z</time></trkpt><trkpt lat="45.1065003" lon="7.879051"><ele>316.0</ele><time>2026-04-30T16:19:17.578Z</time></trkpt><trkpt lat="45.1065421" lon="7.8791313"><ele>316.0</ele><time>2026-04-30T16:19:18.594Z</time></trkpt><trkpt lat="45.1066028" lon="7.8791688"><ele>316.0</ele><time>2026-04-30T16:19:19.622Z</time></trkpt><trkpt lat="45.1067268" lon="7.879103"><ele>316.0</ele><time>2026-04-30T16:19:21.676Z</time></trkpt><trkpt lat="45.1068035" lon="7.879026"><ele>314.75</ele><time>2026-04-30T16:19:22.773Z</time></trkpt><trkpt lat="45.1068866" lon="7.8789436"><ele>313.5</ele><time>2026-04-30T16:19:23.847Z</time></trkpt><trkpt lat="45.1069879" lon="7.8788786"><ele>312.25</ele><time>2026-04-30T16:19:24.874Z</time></trkpt><trkpt lat="45.1071836" lon="7.878844"><ele>311.0</ele><time>2026-04-30T16:19:26.742Z</time></trkpt><trkpt lat="45.1073683" lon="7.8789175"><ele>310.0</ele><time>2026-04-30T16:19:28.667Z</time></trkpt><trkpt lat="45.1074377" lon="7.8789975"><ele>309.0</ele><time>2026-04-30T16:19:29.584Z</time></trkpt><trkpt lat="45.1075046" lon="7.8790956"><ele>308.0</ele><time>2026-04-30T16:19:30.57Z</time></trkpt><trkpt lat="45.1075667" lon="7.8791903"><ele>307.0</ele><time>2026-04-30T16:19:31.541Z</time></trkpt><trkpt lat="45.1076457" lon="7.8792905"><ele>306.0</ele><time>2026-04-30T16:19:32.588Z</time></trkpt><trkpt lat="45.1077283" lon="7.8793585"><ele>303.6</ele><time>2026-04-30T16:19:33.532Z</time></trkpt><trkpt lat="45.1078248" lon="7.8794108"><ele>301.20000000000005</ele><time>2026-04-30T16:19:34.53Z</time></trkpt><trkpt lat="45.1079339" lon="7.8794358"><ele>298.79999999999995</ele><time>2026-04-30T16:19:35.539Z</time></trkpt><trkpt lat="45.1080516" lon="7.8794342"><ele>296.4</ele><time>2026-04-30T16:19:36.554Z</time></trkpt><trkpt lat="45.1081653" lon="7.8794114"><ele>294.0</ele><time>2026-04-30T16:19:37.58Z</time></trkpt><trkpt lat="45.1082681" lon="7.8793891"><ele>293.5</ele><time>2026-04-30T16:19:38.573Z</time></trkpt><trkpt lat="45.1083628" lon="7.8793712"><ele>293.0</ele><time>2026-04-30T16:19:39.588Z</time></trkpt><trkpt lat="45.1084558" lon="7.8793494"><ele>292.5</ele><time>2026-04-30T16:19:40.659Z</time></trkpt><trkpt lat="45.108618" lon="7.8792361"><ele>292.0</ele><time>2026-04-30T16:19:42.546Z</time></trkpt><trkpt lat="45.1087099" lon="7.8791216"><ele>291.25</ele><time>2026-04-30T16:19:43.554Z</time></trkpt><trkpt lat="45.1088071" lon="7.8790014"><ele>290.5</ele><time>2026-04-30T16:19:44.556Z</time></trkpt><trkpt lat="45.1089056" lon="7.8788962"><ele>289.75</ele><time>2026-04-30T16:19:45.549Z</time></trkpt><trkpt lat="45.1090059" lon="7.878809"><ele>289.0</ele><time>2026-04-30T16:19:46.56Z</time></trkpt><trkpt lat="45.1091006" lon="7.8787237"><ele>289.0</ele><time>2026-04-30T16:19:47.67Z</time></trkpt><trkpt lat="45.1091586" lon="7.8786406"><ele>289.0</ele><time>2026-04-30T16:19:48.593Z</time></trkpt><trkpt lat="45.1091988" lon="7.8785136"><ele>289.0</ele><time>2026-04-30T16:19:49.554Z</time></trkpt><trkpt lat="45.1092244" lon="7.8783502"><ele>289.0</ele><time>2026-04-30T16:19:50.568Z</time></trkpt><trkpt lat="45.1092427" lon="7.8781833"><ele>289.0</ele><time>2026-04-30T16:19:51.531Z</time></trkpt><trkpt lat="45.1092663" lon="7.8779893"><ele>289.25</ele><time>2026-04-30T16:19:52.606Z</time></trkpt><trkpt lat="45.1093036" lon="7.8778038"><ele>289.5</ele><time>2026-04-30T16:19:53.63Z</time></trkpt><trkpt lat="45.1093539" lon="7.8776432"><ele>289.75</ele><time>2026-04-30T16:19:54.575Z</time></trkpt><trkpt lat="45.1094352" lon="7.8774863"><ele>290.0</ele><time>2026-04-30T16:19:55.572Z</time></trkpt><trkpt lat="45.109542" lon="7.877344"><ele>289.33333333333337</ele><time>2026-04-30T16:19:56.592Z</time></trkpt><trkpt lat="45.1096466" lon="7.8771943"><ele>288.6666666666667</ele><time>2026-04-30T16:19:57.501Z</time></trkpt><trkpt lat="45.1097648" lon="7.8769982"><ele>288.0</ele><time>2026-04-30T16:19:58.457Z</time></trkpt><trkpt lat="45.1099092" lon="7.8767577"><ele>282.6666666666667</ele><time>2026-04-30T16:19:59.541Z</time></trkpt><trkpt lat="45.1100413" lon="7.8765424"><ele>277.33333333333337</ele><time>2026-04-30T16:20:00.554Z</time></trkpt><trkpt lat="45.1101794" lon="7.8763246"><ele>272.0</ele><time>2026-04-30T16:20:01.596Z</time></trkpt><trkpt lat="45.1103217" lon="7.8761383"><ele>272.0</ele><time>2026-04-30T16:20:02.553Z</time></trkpt><trkpt lat="45.1104731" lon="7.8759705"><ele>272.0</ele><time>2026-04-30T16:20:03.469Z</time></trkpt><trkpt lat="45.1106759" lon="7.8757579"><ele>272.0</ele><time>2026-04-30T16:20:04.643Z</time></trkpt><trkpt lat="45.1108338" lon="7.8755902"><ele>270.33333333333337</ele><time>2026-04-30T16:20:05.547Z</time></trkpt><trkpt lat="45.1110209" lon="7.8754046"><ele>268.6666666666667</ele><time>2026-04-30T16:20:06.583Z</time></trkpt><trkpt lat="45.1111907" lon="7.8752523"><ele>267.0</ele><time>2026-04-30T16:20:07.501Z</time></trkpt><trkpt lat="45.1113939" lon="7.8750841"><ele>265.0</ele><time>2026-04-30T16:20:08.597Z</time></trkpt><trkpt lat="45.1115669" lon="7.8749499"><ele>263.0</ele><time>2026-04-30T16:20:09.573Z</time></trkpt><trkpt lat="45.1117338" lon="7.8748181"><ele>261.0</ele><time>2026-04-30T16:20:10.576Z</time></trkpt><trkpt lat="45.111886" lon="7.8746905"><ele>261.0</ele><time>2026-04-30T16:20:11.567Z</time></trkpt><trkpt lat="45.1120226" lon="7.8745543"><ele>261.0</ele><time>2026-04-30T16:20:12.559Z</time></trkpt><trkpt lat="45.1121414" lon="7.8743988"><ele>261.0</ele><time>2026-04-30T16:20:13.526Z</time></trkpt><trkpt lat="45.1122489" lon="7.8742003"><ele>259.6666666666667</ele><time>2026-04-30T16:20:14.524Z</time></trkpt><trkpt lat="45.1123409" lon="7.8739795"><ele>258.33333333333337</ele><time>2026-04-30T16:20:15.541Z</time></trkpt><trkpt lat="45.1124118" lon="7.8737361"><ele>257.0</ele><time>2026-04-30T16:20:16.603Z</time></trkpt><trkpt lat="45.1124576" lon="7.8735156"><ele>253.33333333333334</ele><time>2026-04-30T16:20:17.558Z</time></trkpt><trkpt lat="45.1124918" lon="7.8732903"><ele>249.66666666666669</ele><time>2026-04-30T16:20:18.514Z</time></trkpt><trkpt lat="45.1125264" lon="7.8730338"><ele>246.0</ele><time>2026-04-30T16:20:19.568Z</time></trkpt><trkpt lat="45.1125675" lon="7.8727844"><ele>247.33333333333331</ele><time>2026-04-30T16:20:20.57Z</time></trkpt><trkpt lat="45.1126102" lon="7.8725188"><ele>248.66666666666666</ele><time>2026-04-30T16:20:21.582Z</time></trkpt><trkpt lat="45.1126519" lon="7.8722648"><ele>250.0</ele><time>2026-04-30T16:20:22.518Z</time></trkpt><trkpt lat="45.1127001" lon="7.8719793"><ele>249.66666666666666</ele><time>2026-04-30T16:20:23.546Z</time></trkpt><trkpt lat="45.1127486" lon="7.8716905"><ele>249.33333333333331</ele><time>2026-04-30T16:20:24.571Z</time></trkpt><trkpt lat="45.1127992" lon="7.8713838"><ele>249.0</ele><time>2026-04-30T16:20:25.623Z</time></trkpt><trkpt lat="45.1128446" lon="7.8711084"><ele>248.5</ele><time>2026-04-30T16:20:26.544Z</time></trkpt><trkpt lat="45.1128961" lon="7.8707797"><ele>248.0</ele><time>2026-04-30T16:20:27.615Z</time></trkpt><trkpt lat="45.1129443" lon="7.8704753"><ele>248.0</ele><time>2026-04-30T16:20:28.584Z</time></trkpt><trkpt lat="45.1129957" lon="7.8701503"><ele>248.0</ele><time>2026-04-30T16:20:29.631Z</time></trkpt><trkpt lat="45.1130446" lon="7.869866"><ele>248.0</ele><time>2026-04-30T16:20:30.615Z</time></trkpt><trkpt lat="45.1131011" lon="7.8695931"><ele>245.0</ele><time>2026-04-30T16:20:31.629Z</time></trkpt><trkpt lat="45.113283" lon="7.8690748"><ele>242.0</ele><time>2026-04-30T16:20:33.577Z</time></trkpt><trkpt lat="45.1133841" lon="7.8688366"><ele>242.0</ele><time>2026-04-30T16:20:34.535Z</time></trkpt><trkpt lat="45.1135245" lon="7.868522"><ele>242.0</ele><time>2026-04-30T16:20:35.815Z</time></trkpt><trkpt lat="45.1137484" lon="7.8680929"><ele>242.33333333333334</ele><time>2026-04-30T16:20:37.617Z</time></trkpt><trkpt lat="45.1138786" lon="7.8678543"><ele>242.66666666666669</ele><time>2026-04-30T16:20:38.632Z</time></trkpt><trkpt lat="45.1140043" lon="7.8676192"><ele>243.0</ele><time>2026-04-30T16:20:39.605Z</time></trkpt><trkpt lat="45.1141513" lon="7.8673496"><ele>244.0</ele><time>2026-04-30T16:20:40.71Z</time></trkpt><trkpt lat="45.1144029" lon="7.8668859"><ele>245.0</ele><time>2026-04-30T16:20:42.585Z</time></trkpt><trkpt lat="45.114524" lon="7.8666537"><ele>245.0</ele><time>2026-04-30T16:20:43.521Z</time></trkpt><trkpt lat="45.1146515" lon="7.8663931"><ele>245.0</ele><time>2026-04-30T16:20:44.541Z</time></trkpt><trkpt lat="45.114779" lon="7.8661272"><ele>245.33333333333334</ele><time>2026-04-30T16:20:45.574Z</time></trkpt><trkpt lat="45.1148972" lon="7.8658832"><ele>245.66666666666669</ele><time>2026-04-30T16:20:46.526Z</time></trkpt><trkpt lat="45.1150295" lon="7.8656163"><ele>246.0</ele><time>2026-04-30T16:20:47.55Z</time></trkpt><trkpt lat="45.1151653" lon="7.8653371"><ele>243.5</ele><time>2026-04-30T16:20:48.582Z</time></trkpt><trkpt lat="45.1152947" lon="7.8650669"><ele>241.0</ele><time>2026-04-30T16:20:49.567Z</time></trkpt><trkpt lat="45.1154246" lon="7.8647967"><ele>241.0</ele><time>2026-04-30T16:20:50.55Z</time></trkpt><trkpt lat="45.1155586" lon="7.8645167"><ele>241.0</ele><time>2026-04-30T16:20:51.572Z</time></trkpt><trkpt lat="45.1156896" lon="7.8642433"><ele>238.5</ele><time>2026-04-30T16:20:52.562Z</time></trkpt><trkpt lat="45.1158338" lon="7.8639429"><ele>236.0</ele><time>2026-04-30T16:20:53.642Z</time></trkpt><trkpt lat="45.1159536" lon="7.8636936"><ele>236.5</ele><time>2026-04-30T16:20:54.546Z</time></trkpt><trkpt lat="45.1160942" lon="7.8634021"><ele>237.0</ele><time>2026-04-30T16:20:55.655Z</time></trkpt><trkpt lat="45.1162128" lon="7.863163"><ele>237.0</ele><time>2026-04-30T16:20:56.647Z</time></trkpt><trkpt lat="45.1164827" lon="7.8627595"><ele>237.0</ele><time>2026-04-30T16:20:58.635Z</time></trkpt><trkpt lat="45.1166136" lon="7.8626258"><ele>236.33333333333331</ele><time>2026-04-30T16:20:59.557Z</time></trkpt><trkpt lat="45.1167501" lon="7.8625222"><ele>235.66666666666666</ele><time>2026-04-30T16:21:00.507Z</time></trkpt><trkpt lat="45.1168957" lon="7.8624485"><ele>235.0</ele><time>2026-04-30T16:21:01.558Z</time></trkpt><trkpt lat="45.1170457" lon="7.8624084"><ele>235.0</ele><time>2026-04-30T16:21:02.573Z</time></trkpt><trkpt lat="45.1172055" lon="7.8624062"><ele>235.0</ele><time>2026-04-30T16:21:03.523Z</time></trkpt><trkpt lat="45.1173958" lon="7.8624193"><ele>235.0</ele><time>2026-04-30T16:21:04.536Z</time></trkpt><trkpt lat="45.1176134" lon="7.8624338"><ele>234.0</ele><time>2026-04-30T16:21:05.582Z</time></trkpt><trkpt lat="45.1178309" lon="7.8624494"><ele>233.0</ele><time>2026-04-30T16:21:06.588Z</time></trkpt><trkpt lat="45.1180525" lon="7.8624638"><ele>232.0</ele><time>2026-04-30T16:21:07.576Z</time></trkpt><trkpt lat="45.1182733" lon="7.8624773"><ele>229.0</ele><time>2026-04-30T16:21:08.558Z</time></trkpt><trkpt lat="45.1185384" lon="7.8624948"><ele>226.0</ele><time>2026-04-30T16:21:09.757Z</time></trkpt><trkpt lat="45.1189057" lon="7.8625191"><ele>226.33333333333331</ele><time>2026-04-30T16:21:11.559Z</time></trkpt><trkpt lat="45.119084" lon="7.862529"><ele>226.66666666666669</ele><time>2026-04-30T16:21:12.557Z</time></trkpt><trkpt lat="45.119265" lon="7.8625404"><ele>227.0</ele><time>2026-04-30T16:21:13.748Z</time></trkpt><trkpt lat="45.1194553" lon="7.8625479"><ele>227.0</ele><time>2026-04-30T16:21:15.546Z</time></trkpt><trkpt lat="45.119532" lon="7.862558"><ele>227.0</ele><time>2026-04-30T16:21:17.621Z</time></trkpt><trkpt lat="45.1196227" lon="7.8624542"><ele>227.0</ele><time>2026-04-30T16:21:20.567Z</time></trkpt><trkpt lat="45.1196745" lon="7.8623421"><ele>227.0</ele><time>2026-04-30T16:21:21.572Z</time></trkpt><trkpt lat="45.1197406" lon="7.8622123"><ele>227.0</ele><time>2026-04-30T16:21:22.517Z</time></trkpt><trkpt lat="45.1198367" lon="7.8620588"><ele>228.0</ele><time>2026-04-30T16:21:23.525Z</time></trkpt><trkpt lat="45.119956" lon="7.861876"><ele>229.0</ele><time>2026-04-30T16:21:24.603Z</time></trkpt><trkpt lat="45.1200897" lon="7.861676"><ele>230.0</ele><time>2026-04-30T16:21:25.671Z</time></trkpt><trkpt lat="45.1202121" lon="7.8614894"><ele>230.0</ele><time>2026-04-30T16:21:26.603Z</time></trkpt><trkpt lat="45.1203496" lon="7.8612839"><ele>230.0</ele><time>2026-04-30T16:21:27.609Z</time></trkpt><trkpt lat="45.1205015" lon="7.8610584"><ele>230.0</ele><time>2026-04-30T16:21:28.678Z</time></trkpt><trkpt lat="45.1207698" lon="7.8606657"><ele>229.33333333333334</ele><time>2026-04-30T16:21:30.569Z</time></trkpt><trkpt lat="45.1209105" lon="7.8604731"><ele>228.66666666666669</ele><time>2026-04-30T16:21:31.545Z</time></trkpt><trkpt lat="45.1210692" lon="7.8602771"><ele>228.0</ele><time>2026-04-30T16:21:32.581Z</time></trkpt><trkpt lat="45.121213" lon="7.8600992"><ele>228.0</ele><time>2026-04-30T16:21:33.527Z</time></trkpt><trkpt lat="45.1213599" lon="7.8598805"><ele>228.0</ele><time>2026-04-30T16:21:34.598Z</time></trkpt><trkpt lat="45.1214704" lon="7.8596744"><ele>228.0</ele><time>2026-04-30T16:21:35.532Z</time></trkpt><trkpt lat="45.1215725" lon="7.8594302"><ele>231.0</ele><time>2026-04-30T16:21:36.539Z</time></trkpt><trkpt lat="45.1216765" lon="7.8591931"><ele>234.0</ele><time>2026-04-30T16:21:37.517Z</time></trkpt><trkpt lat="45.1217909" lon="7.858964"><ele>237.0</ele><time>2026-04-30T16:21:38.529Z</time></trkpt><trkpt lat="45.121907" lon="7.8587705"><ele>237.0</ele><time>2026-04-30T16:21:39.507Z</time></trkpt><trkpt lat="45.1220348" lon="7.8585902"><ele>237.0</ele><time>2026-04-30T16:21:40.526Z</time></trkpt><trkpt lat="45.122176" lon="7.8584279"><ele>237.0</ele><time>2026-04-30T16:21:41.514Z</time></trkpt><trkpt lat="45.122331" lon="7.8582552"><ele>235.0</ele><time>2026-04-30T16:21:42.554Z</time></trkpt><trkpt lat="45.1224716" lon="7.8581138"><ele>233.0</ele><time>2026-04-30T16:21:43.537Z</time></trkpt><trkpt lat="45.1226075" lon="7.8579709"><ele>231.0</ele><time>2026-04-30T16:21:44.549Z</time></trkpt><trkpt lat="45.1227281" lon="7.8578239"><ele>231.0</ele><time>2026-04-30T16:21:45.562Z</time></trkpt><trkpt lat="45.1228275" lon="7.8576755"><ele>231.0</ele><time>2026-04-30T16:21:46.509Z</time></trkpt><trkpt lat="45.1229201" lon="7.857489"><ele>231.0</ele><time>2026-04-30T16:21:47.558Z</time></trkpt><trkpt lat="45.1229996" lon="7.857289"><ele>229.0</ele><time>2026-04-30T16:21:48.572Z</time></trkpt><trkpt lat="45.1230917" lon="7.8571057"><ele>227.0</ele><time>2026-04-30T16:21:49.589Z</time></trkpt><trkpt lat="45.1232037" lon="7.8569502"><ele>225.0</ele><time>2026-04-30T16:21:50.608Z</time></trkpt><trkpt lat="45.1233248" lon="7.8568302"><ele>224.0</ele><time>2026-04-30T16:21:51.597Z</time></trkpt><trkpt lat="45.123458" lon="7.8567212"><ele>223.0</ele><time>2026-04-30T16:21:52.617Z</time></trkpt><trkpt lat="45.1235831" lon="7.8566234"><ele>222.0</ele><time>2026-04-30T16:21:53.55Z</time></trkpt><trkpt lat="45.1237273" lon="7.8565083"><ele>222.0</ele><time>2026-04-30T16:21:54.61Z</time></trkpt><trkpt lat="45.123848" lon="7.8564141"><ele>222.0</ele><time>2026-04-30T16:21:55.557Z</time></trkpt><trkpt lat="45.1239637" lon="7.8563195"><ele>222.0</ele><time>2026-04-30T16:21:56.53Z</time></trkpt><trkpt lat="45.1241096" lon="7.8561991"><ele>222.0</ele><time>2026-04-30T16:21:57.737Z</time></trkpt><trkpt lat="45.124326" lon="7.8560087"><ele>222.0</ele><time>2026-04-30T16:21:59.739Z</time></trkpt><trkpt lat="45.1245134" lon="7.8558118"><ele>222.0</ele><time>2026-04-30T16:22:01.607Z</time></trkpt><trkpt lat="45.1245977" lon="7.8557046"><ele>222.0</ele><time>2026-04-30T16:22:02.57Z</time></trkpt><trkpt lat="45.1246699" lon="7.8555994"><ele>222.0</ele><time>2026-04-30T16:22:03.495Z</time></trkpt><trkpt lat="45.1247457" lon="7.8554653"><ele>222.0</ele><time>2026-04-30T16:22:04.565Z</time></trkpt><trkpt lat="45.1248073" lon="7.8553252"><ele>222.0</ele><time>2026-04-30T16:22:05.562Z</time></trkpt><trkpt lat="45.1248657" lon="7.855183"><ele>222.0</ele><time>2026-04-30T16:22:06.592Z</time></trkpt><trkpt lat="45.1249219" lon="7.8550395"><ele>222.33333333333331</ele><time>2026-04-30T16:22:07.589Z</time></trkpt><trkpt lat="45.124978" lon="7.8548888"><ele>222.66666666666666</ele><time>2026-04-30T16:22:08.534Z</time></trkpt><trkpt lat="45.1250484" lon="7.8546865"><ele>223.0</ele><time>2026-04-30T16:22:09.627Z</time></trkpt><trkpt lat="45.1251271" lon="7.8544668"><ele>222.0</ele><time>2026-04-30T16:22:10.708Z</time></trkpt><trkpt lat="45.1253041" lon="7.8540334"><ele>221.0</ele><time>2026-04-30T16:22:12.644Z</time></trkpt><trkpt lat="45.1253921" lon="7.8538269"><ele>221.0</ele><time>2026-04-30T16:22:13.558Z</time></trkpt><trkpt lat="45.1254833" lon="7.8536189"><ele>221.0</ele><time>2026-04-30T16:22:14.553Z</time></trkpt><trkpt lat="45.1255719" lon="7.8534139"><ele>221.0</ele><time>2026-04-30T16:22:15.586Z</time></trkpt><trkpt lat="45.1256492" lon="7.8532374"><ele>220.75</ele><time>2026-04-30T16:22:16.543Z</time></trkpt><trkpt lat="45.1257274" lon="7.8530534"><ele>220.5</ele><time>2026-04-30T16:22:17.603Z</time></trkpt><trkpt lat="45.1257905" lon="7.8528981"><ele>220.25</ele><time>2026-04-30T16:22:18.615Z</time></trkpt><trkpt lat="45.125842" lon="7.8527565"><ele>220.0</ele><time>2026-04-30T16:22:19.639Z</time></trkpt><trkpt lat="45.1258848" lon="7.8526273"><ele>220.2</ele><time>2026-04-30T16:22:20.588Z</time></trkpt><trkpt lat="45.1259272" lon="7.8524951"><ele>220.4</ele><time>2026-04-30T16:22:21.558Z</time></trkpt><trkpt lat="45.1259694" lon="7.8523716"><ele>220.60000000000002</ele><time>2026-04-30T16:22:22.613Z</time></trkpt><trkpt lat="45.1260014" lon="7.8522691"><ele>220.8</ele><time>2026-04-30T16:22:23.568Z</time></trkpt><trkpt lat="45.1260364" lon="7.8521629"><ele>221.0</ele><time>2026-04-30T16:22:24.57Z</time></trkpt><trkpt lat="45.1260715" lon="7.8520426"><ele>221.0</ele><time>2026-04-30T16:22:25.723Z</time></trkpt><trkpt lat="45.1261128" lon="7.851836"><ele>221.0</ele><time>2026-04-30T16:22:27.572Z</time></trkpt><trkpt lat="45.1261353" lon="7.851704"><ele>221.0</ele><time>2026-04-30T16:22:28.532Z</time></trkpt><trkpt lat="45.126165" lon="7.8515481"><ele>221.0</ele><time>2026-04-30T16:22:29.577Z</time></trkpt><trkpt lat="45.1261943" lon="7.8513907"><ele>220.33333333333334</ele><time>2026-04-30T16:22:30.583Z</time></trkpt><trkpt lat="45.1262332" lon="7.8511938"><ele>219.66666666666669</ele><time>2026-04-30T16:22:31.732Z</time></trkpt><trkpt lat="45.1262995" lon="7.8508386"><ele>219.0</ele><time>2026-04-30T16:22:33.614Z</time></trkpt><trkpt lat="45.1263366" lon="7.8506623"><ele>218.66666666666669</ele><time>2026-04-30T16:22:34.546Z</time></trkpt><trkpt lat="45.1263741" lon="7.8504527"><ele>218.33333333333334</ele><time>2026-04-30T16:22:35.599Z</time></trkpt><trkpt lat="45.1264098" lon="7.8502466"><ele>218.0</ele><time>2026-04-30T16:22:36.611Z</time></trkpt><trkpt lat="45.1264449" lon="7.8500256"><ele>218.0</ele><time>2026-04-30T16:22:37.654Z</time></trkpt><trkpt lat="45.1264772" lon="7.8498386"><ele>218.0</ele><time>2026-04-30T16:22:38.556Z</time></trkpt><trkpt lat="45.1265143" lon="7.8496301"><ele>218.0</ele><time>2026-04-30T16:22:39.576Z</time></trkpt><trkpt lat="45.1265556" lon="7.8493933"><ele>222.33333333333334</ele><time>2026-04-30T16:22:40.799Z</time></trkpt><trkpt lat="45.1266282" lon="7.849053"><ele>226.66666666666669</ele><time>2026-04-30T16:22:42.617Z</time></trkpt><trkpt lat="45.1266606" lon="7.8488599"><ele>231.0</ele><time>2026-04-30T16:22:43.66Z</time></trkpt><trkpt lat="45.1266784" lon="7.8486828"><ele>231.0</ele><time>2026-04-30T16:22:44.604Z</time></trkpt><trkpt lat="45.1266749" lon="7.8485023"><ele>231.0</ele><time>2026-04-30T16:22:45.522Z</time></trkpt><trkpt lat="45.1266548" lon="7.8482966"><ele>231.0</ele><time>2026-04-30T16:22:46.568Z</time></trkpt><trkpt lat="45.1266326" lon="7.8481019"><ele>231.0</ele><time>2026-04-30T16:22:47.548Z</time></trkpt><trkpt lat="45.1266161" lon="7.8479195"><ele>229.25</ele><time>2026-04-30T16:22:48.533Z</time></trkpt><trkpt lat="45.1265982" lon="7.8477299"><ele>227.5</ele><time>2026-04-30T16:22:49.564Z</time></trkpt><trkpt lat="45.1265805" lon="7.8475321"><ele>225.75</ele><time>2026-04-30T16:22:50.568Z</time></trkpt><trkpt lat="45.1265694" lon="7.8473476"><ele>224.0</ele><time>2026-04-30T16:22:51.555Z</time></trkpt><trkpt lat="45.1265611" lon="7.8471586"><ele>221.75</ele><time>2026-04-30T16:22:52.597Z</time></trkpt><trkpt lat="45.1265507" lon="7.8469519"><ele>219.5</ele><time>2026-04-30T16:22:53.59Z</time></trkpt><trkpt lat="45.1265407" lon="7.8467409"><ele>217.25</ele><time>2026-04-30T16:22:54.606Z</time></trkpt><trkpt lat="45.1265377" lon="7.846555"><ele>215.0</ele><time>2026-04-30T16:22:55.541Z</time></trkpt><trkpt lat="45.1265415" lon="7.8463559"><ele>215.5</ele><time>2026-04-30T16:22:56.578Z</time></trkpt><trkpt lat="45.1265641" lon="7.8461659"><ele>216.0</ele><time>2026-04-30T16:22:57.626Z</time></trkpt><trkpt lat="45.1265925" lon="7.8459986"><ele>216.5</ele><time>2026-04-30T16:22:58.573Z</time></trkpt><trkpt lat="45.126629" lon="7.8458181"><ele>217.0</ele><time>2026-04-30T16:22:59.594Z</time></trkpt><trkpt lat="45.1266651" lon="7.8456434"><ele>217.0</ele><time>2026-04-30T16:23:00.545Z</time></trkpt><trkpt lat="45.1266977" lon="7.8454658"><ele>217.0</ele><time>2026-04-30T16:23:01.541Z</time></trkpt><trkpt lat="45.1267298" lon="7.8452763"><ele>217.0</ele><time>2026-04-30T16:23:02.573Z</time></trkpt><trkpt lat="45.1267559" lon="7.845097"><ele>217.0</ele><time>2026-04-30T16:23:03.543Z</time></trkpt><trkpt lat="45.1267861" lon="7.8449025"><ele>217.33333333333331</ele><time>2026-04-30T16:23:04.537Z</time></trkpt><trkpt lat="45.1268214" lon="7.8446813"><ele>217.66666666666669</ele><time>2026-04-30T16:23:05.632Z</time></trkpt><trkpt lat="45.1268536" lon="7.844492"><ele>218.0</ele><time>2026-04-30T16:23:06.579Z</time></trkpt><trkpt lat="45.1268852" lon="7.8442769"><ele>218.0</ele><time>2026-04-30T16:23:07.64Z</time></trkpt><trkpt lat="45.1269018" lon="7.8440905"><ele>218.0</ele><time>2026-04-30T16:23:08.558Z</time></trkpt><trkpt lat="45.1269075" lon="7.8438812"><ele>218.0</ele><time>2026-04-30T16:23:09.603Z</time></trkpt><trkpt lat="45.1269049" lon="7.8436962"><ele>218.0</ele><time>2026-04-30T16:23:10.534Z</time></trkpt><trkpt lat="45.1268924" lon="7.8434953"><ele>217.25</ele><time>2026-04-30T16:23:11.581Z</time></trkpt><trkpt lat="45.1268736" lon="7.8433069"><ele>216.5</ele><time>2026-04-30T16:23:12.594Z</time></trkpt><trkpt lat="45.1268524" lon="7.8431291"><ele>215.75</ele><time>2026-04-30T16:23:13.543Z</time></trkpt><trkpt lat="45.1268334" lon="7.8429333"><ele>215.0</ele><time>2026-04-30T16:23:14.551Z</time></trkpt><trkpt lat="45.1268189" lon="7.8427213"><ele>214.5</ele><time>2026-04-30T16:23:15.573Z</time></trkpt><trkpt lat="45.1268171" lon="7.8424835"><ele>214.0</ele><time>2026-04-30T16:23:16.693Z</time></trkpt><trkpt lat="45.1268471" lon="7.8420841"><ele>214.0</ele><time>2026-04-30T16:23:18.547Z</time></trkpt><trkpt lat="45.1268746" lon="7.8418588"><ele>214.0</ele><time>2026-04-30T16:23:19.583Z</time></trkpt><trkpt lat="45.1268956" lon="7.8416484"><ele>214.0</ele><time>2026-04-30T16:23:20.594Z</time></trkpt><trkpt lat="45.1269148" lon="7.8414585"><ele>214.0</ele><time>2026-04-30T16:23:21.557Z</time></trkpt><trkpt lat="45.1269343" lon="7.8412582"><ele>214.0</ele><time>2026-04-30T16:23:22.589Z</time></trkpt><trkpt lat="45.1269514" lon="7.8410773"><ele>214.0</ele><time>2026-04-30T16:23:23.562Z</time></trkpt><trkpt lat="45.1269673" lon="7.8408846"><ele>214.0</ele><time>2026-04-30T16:23:24.583Z</time></trkpt><trkpt lat="45.1269823" lon="7.8406911"><ele>214.0</ele><time>2026-04-30T16:23:25.547Z</time></trkpt><trkpt lat="45.1269973" lon="7.8404894"><ele>213.5</ele><time>2026-04-30T16:23:26.566Z</time></trkpt><trkpt lat="45.1270096" lon="7.8402997"><ele>213.0</ele><time>2026-04-30T16:23:27.549Z</time></trkpt><trkpt lat="45.127024" lon="7.8401167"><ele>212.5</ele><time>2026-04-30T16:23:28.567Z</time></trkpt><trkpt lat="45.1270341" lon="7.8399349"><ele>212.0</ele><time>2026-04-30T16:23:29.597Z</time></trkpt><trkpt lat="45.1270401" lon="7.8397608"><ele>211.75</ele><time>2026-04-30T16:23:30.56Z</time></trkpt><trkpt lat="45.1270449" lon="7.8395814"><ele>211.5</ele><time>2026-04-30T16:23:31.511Z</time></trkpt><trkpt lat="45.1270533" lon="7.8393671"><ele>211.25</ele><time>2026-04-30T16:23:32.631Z</time></trkpt><trkpt lat="45.1270651" lon="7.8391923"><ele>211.0</ele><time>2026-04-30T16:23:33.556Z</time></trkpt><trkpt lat="45.1270876" lon="7.8390075"><ele>210.5</ele><time>2026-04-30T16:23:34.556Z</time></trkpt><trkpt lat="45.1271245" lon="7.8388279"><ele>210.0</ele><time>2026-04-30T16:23:35.545Z</time></trkpt><trkpt lat="45.1271784" lon="7.8386435"><ele>209.5</ele><time>2026-04-30T16:23:36.57Z</time></trkpt><trkpt lat="45.1272513" lon="7.8384664"><ele>209.0</ele><time>2026-04-30T16:23:37.618Z</time></trkpt><trkpt lat="45.1273262" lon="7.8383144"><ele>210.25</ele><time>2026-04-30T16:23:38.569Z</time></trkpt><trkpt lat="45.1274153" lon="7.8381543"><ele>211.5</ele><time>2026-04-30T16:23:39.59Z</time></trkpt><trkpt lat="45.127513" lon="7.8379994"><ele>212.75</ele><time>2026-04-30T16:23:40.634Z</time></trkpt><trkpt lat="45.1275999" lon="7.8378522"><ele>214.0</ele><time>2026-04-30T16:23:41.571Z</time></trkpt><trkpt lat="45.1276859" lon="7.837691"><ele>212.66666666666666</ele><time>2026-04-30T16:23:42.535Z</time></trkpt><trkpt lat="45.1277762" lon="7.8375182"><ele>211.33333333333331</ele><time>2026-04-30T16:23:43.54Z</time></trkpt><trkpt lat="45.1278652" lon="7.8373463"><ele>210.0</ele><time>2026-04-30T16:23:44.519Z</time></trkpt><trkpt lat="45.127958" lon="7.8371633"><ele>210.0</ele><time>2026-04-30T16:23:45.545Z</time></trkpt><trkpt lat="45.1280383" lon="7.8369982"><ele>210.0</ele><time>2026-04-30T16:23:46.519Z</time></trkpt><trkpt lat="45.1281169" lon="7.8368326"><ele>210.0</ele><time>2026-04-30T16:23:47.528Z</time></trkpt><trkpt lat="45.1282074" lon="7.8366228"><ele>210.5</ele><time>2026-04-30T16:23:48.819Z</time></trkpt><trkpt lat="45.1283056" lon="7.8363808"><ele>211.0</ele><time>2026-04-30T16:23:50.587Z</time></trkpt><trkpt lat="45.1283495" lon="7.8362672"><ele>211.5</ele><time>2026-04-30T16:23:51.538Z</time></trkpt><trkpt lat="45.1283942" lon="7.8361553"><ele>212.0</ele><time>2026-04-30T16:23:52.538Z</time></trkpt><trkpt lat="45.1284481" lon="7.8360173"><ele>211.5</ele><time>2026-04-30T16:23:53.706Z</time></trkpt><trkpt lat="45.1285552" lon="7.8357886"><ele>211.0</ele><time>2026-04-30T16:23:55.529Z</time></trkpt><trkpt lat="45.1286291" lon="7.835665"><ele>210.5</ele><time>2026-04-30T16:23:56.51Z</time></trkpt><trkpt lat="45.1287147" lon="7.8355471"><ele>210.0</ele><time>2026-04-30T16:23:57.497Z</time></trkpt><trkpt lat="45.1288121" lon="7.8354356"><ele>210.0</ele><time>2026-04-30T16:23:58.529Z</time></trkpt><trkpt lat="45.1289187" lon="7.8353283"><ele>210.0</ele><time>2026-04-30T16:23:59.664Z</time></trkpt><trkpt lat="45.1290028" lon="7.8352518"><ele>210.0</ele><time>2026-04-30T16:24:00.598Z</time></trkpt><trkpt lat="45.1290852" lon="7.8351766"><ele>210.0</ele><time>2026-04-30T16:24:01.56Z</time></trkpt><trkpt lat="45.129174" lon="7.8350973"><ele>210.0</ele><time>2026-04-30T16:24:02.526Z</time></trkpt><trkpt lat="45.1292787" lon="7.8350056"><ele>210.25</ele><time>2026-04-30T16:24:03.586Z</time></trkpt><trkpt lat="45.1293839" lon="7.8349169"><ele>210.5</ele><time>2026-04-30T16:24:04.565Z</time></trkpt><trkpt lat="45.1295001" lon="7.8348185"><ele>210.75</ele><time>2026-04-30T16:24:05.582Z</time></trkpt><trkpt lat="45.1296166" lon="7.8347189"><ele>211.0</ele><time>2026-04-30T16:24:06.602Z</time></trkpt><trkpt lat="45.1297199" lon="7.8346145"><ele>211.0</ele><time>2026-04-30T16:24:07.549Z</time></trkpt><trkpt lat="45.1298231" lon="7.8344837"><ele>211.0</ele><time>2026-04-30T16:24:08.577Z</time></trkpt><trkpt lat="45.129922" lon="7.8343367"><ele>211.0</ele><time>2026-04-30T16:24:09.576Z</time></trkpt><trkpt lat="45.1300122" lon="7.8341899"><ele>211.0</ele><time>2026-04-30T16:24:10.538Z</time></trkpt><trkpt lat="45.1300981" lon="7.8340427"><ele>210.25</ele><time>2026-04-30T16:24:11.55Z</time></trkpt><trkpt lat="45.1301793" lon="7.8339046"><ele>209.5</ele><time>2026-04-30T16:24:12.561Z</time></trkpt><trkpt lat="45.1302589" lon="7.8337699"><ele>208.75</ele><time>2026-04-30T16:24:13.539Z</time></trkpt><trkpt lat="45.1303406" lon="7.8336272"><ele>208.0</ele><time>2026-04-30T16:24:14.565Z</time></trkpt><trkpt lat="45.1304153" lon="7.833473"><ele>207.75</ele><time>2026-04-30T16:24:15.597Z</time></trkpt><trkpt lat="45.1304771" lon="7.8333196"><ele>207.5</ele><time>2026-04-30T16:24:16.576Z</time></trkpt><trkpt lat="45.1305301" lon="7.8331611"><ele>207.25</ele><time>2026-04-30T16:24:17.562Z</time></trkpt><trkpt lat="45.1305807" lon="7.8330023"><ele>207.0</ele><time>2026-04-30T16:24:18.533Z</time></trkpt><trkpt lat="45.1306356" lon="7.8328274"><ele>207.0</ele><time>2026-04-30T16:24:19.609Z</time></trkpt><trkpt lat="45.1306832" lon="7.8326708"><ele>207.0</ele><time>2026-04-30T16:24:20.588Z</time></trkpt><trkpt lat="45.1307292" lon="7.8325254"><ele>207.0</ele><time>2026-04-30T16:24:21.499Z</time></trkpt><trkpt lat="45.1307788" lon="7.8323644"><ele>207.0</ele><time>2026-04-30T16:24:22.531Z</time></trkpt><trkpt lat="45.1308277" lon="7.8322114"><ele>207.0</ele><time>2026-04-30T16:24:23.535Z</time></trkpt><trkpt lat="45.1308895" lon="7.8320424"><ele>207.0</ele><time>2026-04-30T16:24:24.675Z</time></trkpt><trkpt lat="45.1309863" lon="7.8317903"><ele>207.0</ele><time>2026-04-30T16:24:26.581Z</time></trkpt><trkpt lat="45.1310313" lon="7.8316747"><ele>207.0</ele><time>2026-04-30T16:24:27.576Z</time></trkpt><trkpt lat="45.1310657" lon="7.8315744"><ele>206.66666666666666</ele><time>2026-04-30T16:24:28.582Z</time></trkpt><trkpt lat="45.1310795" lon="7.8314745"><ele>206.33333333333331</ele><time>2026-04-30T16:24:29.594Z</time></trkpt><trkpt lat="45.1310602" lon="7.8313755"><ele>206.0</ele><time>2026-04-30T16:24:30.541Z</time></trkpt><trkpt lat="45.1310147" lon="7.8312751"><ele>205.66666666666666</ele><time>2026-04-30T16:24:31.535Z</time></trkpt><trkpt lat="45.1309379" lon="7.8311681"><ele>205.33333333333331</ele><time>2026-04-30T16:24:32.682Z</time></trkpt><trkpt lat="45.130871" lon="7.8310875"><ele>205.0</ele><time>2026-04-30T16:24:33.59Z</time></trkpt><trkpt lat="45.1308083" lon="7.8309959"><ele>204.0</ele><time>2026-04-30T16:24:34.646Z</time></trkpt><trkpt lat="45.1307664" lon="7.830928"><ele>203.0</ele><time>2026-04-30T16:24:35.597Z</time></trkpt><trkpt lat="45.1307669" lon="7.8307847"><ele>202.0</ele><time>2026-04-30T16:24:37.536Z</time></trkpt><trkpt lat="45.1308063" lon="7.8306885"><ele>201.0</ele><time>2026-04-30T16:24:38.524Z</time></trkpt><trkpt lat="45.1308669" lon="7.8305655"><ele>200.0</ele><time>2026-04-30T16:24:39.586Z</time></trkpt><trkpt lat="45.1309364" lon="7.8304513"><ele>200.0</ele><time>2026-04-30T16:24:40.53Z</time></trkpt><trkpt lat="45.1310311" lon="7.8303419"><ele>200.0</ele><time>2026-04-30T16:24:41.555Z</time></trkpt><trkpt lat="45.131141" lon="7.8302584"><ele>200.0</ele><time>2026-04-30T16:24:42.581Z</time></trkpt><trkpt lat="45.1312448" lon="7.8301835"><ele>200.0</ele><time>2026-04-30T16:24:43.519Z</time></trkpt><trkpt lat="45.1313528" lon="7.8301065"><ele>200.0</ele><time>2026-04-30T16:24:44.543Z</time></trkpt><trkpt lat="45.1314435" lon="7.8300317"><ele>200.0</ele><time>2026-04-30T16:24:45.55Z</time></trkpt><trkpt lat="45.1315241" lon="7.8299595"><ele>200.0</ele><time>2026-04-30T16:24:46.598Z</time></trkpt><trkpt lat="45.1315852" lon="7.8299016"><ele>200.0</ele><time>2026-04-30T16:24:47.591Z</time></trkpt><trkpt lat="45.1316343" lon="7.8298452"><ele>200.0</ele><time>2026-04-30T16:24:48.621Z</time></trkpt><trkpt lat="45.1317062" lon="7.8296538"><ele>200.16666666666669</ele><time>2026-04-30T16:24:50.539Z</time></trkpt><trkpt lat="45.1317452" lon="7.8295306"><ele>200.33333333333334</ele><time>2026-04-30T16:24:51.631Z</time></trkpt><trkpt lat="45.1317754" lon="7.8294383"><ele>200.5</ele><time>2026-04-30T16:24:52.651Z</time></trkpt><trkpt lat="45.1318412" lon="7.82933"><ele>200.66666666666669</ele><time>2026-04-30T16:24:54.568Z</time></trkpt><trkpt lat="45.1319226" lon="7.8292591"><ele>200.83333333333334</ele><time>2026-04-30T16:24:56.51Z</time></trkpt><trkpt lat="45.1319806" lon="7.8292228"><ele>201.0</ele><time>2026-04-30T16:24:57.527Z</time></trkpt><trkpt lat="45.1320517" lon="7.8291946"><ele>201.0</ele><time>2026-04-30T16:24:58.62Z</time></trkpt><trkpt lat="45.1321133" lon="7.8291703"><ele>201.0</ele><time>2026-04-30T16:24:59.537Z</time></trkpt><trkpt lat="45.1321872" lon="7.829134"><ele>201.0</ele><time>2026-04-30T16:25:00.512Z</time></trkpt><trkpt lat="45.1322737" lon="7.8291012"><ele>201.0</ele><time>2026-04-30T16:25:01.572Z</time></trkpt><trkpt lat="45.1323517" lon="7.8290773"><ele>201.0</ele><time>2026-04-30T16:25:02.578Z</time></trkpt><trkpt lat="45.1324286" lon="7.8290572"><ele>201.0</ele><time>2026-04-30T16:25:03.576Z</time></trkpt><trkpt lat="45.1325131" lon="7.8290321"><ele>201.0</ele><time>2026-04-30T16:25:04.59Z</time></trkpt><trkpt lat="45.1325977" lon="7.8290008"><ele>201.0</ele><time>2026-04-30T16:25:05.587Z</time></trkpt><trkpt lat="45.1326824" lon="7.8289709"><ele>201.0</ele><time>2026-04-30T16:25:06.59Z</time></trkpt><trkpt lat="45.1327619" lon="7.8289454"><ele>201.0</ele><time>2026-04-30T16:25:07.53Z</time></trkpt><trkpt lat="45.1328514" lon="7.8289237"><ele>201.0</ele><time>2026-04-30T16:25:08.598Z</time></trkpt><trkpt lat="45.1329311" lon="7.8289193"><ele>201.0</ele><time>2026-04-30T16:25:09.587Z</time></trkpt><trkpt lat="45.133018" lon="7.8289314"><ele>201.0</ele><time>2026-04-30T16:25:10.582Z</time></trkpt><trkpt lat="45.1330938" lon="7.8289529"><ele>201.0</ele><time>2026-04-30T16:25:11.536Z</time></trkpt><trkpt lat="45.1331602" lon="7.8289725"><ele>201.0</ele><time>2026-04-30T16:25:12.617Z</time></trkpt><trkpt lat="45.133258" lon="7.8290079"><ele>201.0</ele><time>2026-04-30T16:25:14.614Z</time></trkpt><trkpt lat="45.1333506" lon="7.8290116"><ele>201.0</ele><time>2026-04-30T16:25:18.726Z</time></trkpt><trkpt lat="45.1335279" lon="7.8291706"><ele>201.33333333333331</ele><time>2026-04-30T16:25:21.937Z</time></trkpt><trkpt lat="45.1336587" lon="7.8293177"><ele>201.66666666666666</ele><time>2026-04-30T16:25:23.679Z</time></trkpt><trkpt lat="45.1337374" lon="7.82941"><ele>202.0</ele><time>2026-04-30T16:25:24.734Z</time></trkpt><trkpt lat="45.1338888" lon="7.8295911"><ele>202.0</ele><time>2026-04-30T16:25:26.587Z</time></trkpt><trkpt lat="45.1339762" lon="7.8296973"><ele>202.0</ele><time>2026-04-30T16:25:27.558Z</time></trkpt><trkpt lat="45.1340748" lon="7.8298124"><ele>202.0</ele><time>2026-04-30T16:25:28.546Z</time></trkpt><trkpt lat="45.1341739" lon="7.829929"><ele>202.0</ele><time>2026-04-30T16:25:29.527Z</time></trkpt><trkpt lat="45.1342793" lon="7.8300572"><ele>201.75</ele><time>2026-04-30T16:25:30.555Z</time></trkpt><trkpt lat="45.1343923" lon="7.8302067"><ele>201.5</ele><time>2026-04-30T16:25:31.717Z</time></trkpt><trkpt lat="45.1344798" lon="7.830316"><ele>201.25</ele><time>2026-04-30T16:25:32.578Z</time></trkpt><trkpt lat="45.1345897" lon="7.8304419"><ele>201.0</ele><time>2026-04-30T16:25:33.586Z</time></trkpt><trkpt lat="45.1347003" lon="7.8305716"><ele>201.0</ele><time>2026-04-30T16:25:34.573Z</time></trkpt><trkpt lat="45.1348116" lon="7.8307041"><ele>201.0</ele><time>2026-04-30T16:25:35.556Z</time></trkpt><trkpt lat="45.1349369" lon="7.8308486"><ele>201.0</ele><time>2026-04-30T16:25:36.61Z</time></trkpt><trkpt lat="45.135059" lon="7.8309931"><ele>201.0</ele><time>2026-04-30T16:25:37.655Z</time></trkpt><trkpt lat="45.1351732" lon="7.8311268"><ele>201.0</ele><time>2026-04-30T16:25:38.601Z</time></trkpt><trkpt lat="45.1352845" lon="7.831258"><ele>201.0</ele><time>2026-04-30T16:25:39.545Z</time></trkpt><trkpt lat="45.1354112" lon="7.8314065"><ele>201.0</ele><time>2026-04-30T16:25:40.582Z</time></trkpt><trkpt lat="45.1355396" lon="7.8315578"><ele>201.0</ele><time>2026-04-30T16:25:41.607Z</time></trkpt><trkpt lat="45.1356654" lon="7.8317045"><ele>201.0</ele><time>2026-04-30T16:25:42.591Z</time></trkpt><trkpt lat="45.1357916" lon="7.8318518"><ele>199.33333333333331</ele><time>2026-04-30T16:25:43.574Z</time></trkpt><trkpt lat="45.1359063" lon="7.8319905"><ele>197.66666666666666</ele><time>2026-04-30T16:25:44.503Z</time></trkpt><trkpt lat="45.1360337" lon="7.832141"><ele>196.0</ele><time>2026-04-30T16:25:45.557Z</time></trkpt><trkpt lat="45.1361566" lon="7.8322837"><ele>196.0</ele><time>2026-04-30T16:25:46.556Z</time></trkpt><trkpt lat="45.1362947" lon="7.832446"><ele>196.0</ele><time>2026-04-30T16:25:47.672Z</time></trkpt><trkpt lat="45.1365271" lon="7.8327219"><ele>196.0</ele><time>2026-04-30T16:25:49.566Z</time></trkpt><trkpt lat="45.1366498" lon="7.8328667"><ele>196.0</ele><time>2026-04-30T16:25:50.588Z</time></trkpt><trkpt lat="45.1367671" lon="7.8330057"><ele>196.0</ele><time>2026-04-30T16:25:51.58Z</time></trkpt><trkpt lat="45.1368814" lon="7.8331395"><ele>196.0</ele><time>2026-04-30T16:25:52.526Z</time></trkpt><trkpt lat="45.1370105" lon="7.8332907"><ele>196.0</ele><time>2026-04-30T16:25:53.58Z</time></trkpt><trkpt lat="45.1371433" lon="7.833445"><ele>196.0</ele><time>2026-04-30T16:25:54.636Z</time></trkpt><trkpt lat="45.1372635" lon="7.8335874"><ele>196.33333333333331</ele><time>2026-04-30T16:25:55.588Z</time></trkpt><trkpt lat="45.1373818" lon="7.8337263"><ele>196.66666666666669</ele><time>2026-04-30T16:25:56.547Z</time></trkpt><trkpt lat="45.1375091" lon="7.8338742"><ele>197.0</ele><time>2026-04-30T16:25:57.583Z</time></trkpt><trkpt lat="45.1376342" lon="7.834021"><ele>197.0</ele><time>2026-04-30T16:25:58.593Z</time></trkpt><trkpt lat="45.1377592" lon="7.8341704"><ele>197.0</ele><time>2026-04-30T16:25:59.609Z</time></trkpt><trkpt lat="45.137871" lon="7.8343101"><ele>197.0</ele><time>2026-04-30T16:26:00.569Z</time></trkpt><trkpt lat="45.1379903" lon="7.8344475"><ele>196.5</ele><time>2026-04-30T16:26:01.535Z</time></trkpt><trkpt lat="45.138129" lon="7.8346114"><ele>196.0</ele><time>2026-04-30T16:26:02.666Z</time></trkpt><trkpt lat="45.1383504" lon="7.8348702"><ele>196.0</ele><time>2026-04-30T16:26:04.561Z</time></trkpt><trkpt lat="45.1384717" lon="7.8350119"><ele>196.0</ele><time>2026-04-30T16:26:05.595Z</time></trkpt><trkpt lat="45.1385881" lon="7.8351486"><ele>196.0</ele><time>2026-04-30T16:26:06.576Z</time></trkpt><trkpt lat="45.1387223" lon="7.8353074"><ele>196.0</ele><time>2026-04-30T16:26:07.736Z</time></trkpt><trkpt lat="45.1388262" lon="7.8354277"><ele>196.0</ele><time>2026-04-30T16:26:08.626Z</time></trkpt><trkpt lat="45.138945" lon="7.835566"><ele>196.0</ele><time>2026-04-30T16:26:09.646Z</time></trkpt><trkpt lat="45.1390655" lon="7.8357062"><ele>196.0</ele><time>2026-04-30T16:26:10.66Z</time></trkpt><trkpt lat="45.1391735" lon="7.8358337"><ele>195.75</ele><time>2026-04-30T16:26:11.597Z</time></trkpt><trkpt lat="45.1392888" lon="7.8359701"><ele>195.5</ele><time>2026-04-30T16:26:12.629Z</time></trkpt><trkpt lat="45.1393924" lon="7.8360914"><ele>195.25</ele><time>2026-04-30T16:26:13.555Z</time></trkpt><trkpt lat="45.1395038" lon="7.8362217"><ele>195.0</ele><time>2026-04-30T16:26:14.557Z</time></trkpt><trkpt lat="45.1396115" lon="7.8363489"><ele>195.0</ele><time>2026-04-30T16:26:15.545Z</time></trkpt><trkpt lat="45.1397253" lon="7.8364845"><ele>195.0</ele><time>2026-04-30T16:26:16.604Z</time></trkpt><trkpt lat="45.1398273" lon="7.8366062"><ele>195.0</ele><time>2026-04-30T16:26:17.606Z</time></trkpt><trkpt lat="45.1399023" lon="7.8366936"><ele>195.0</ele><time>2026-04-30T16:26:18.578Z</time></trkpt><trkpt lat="45.1399664" lon="7.8367648"><ele>195.0</ele><time>2026-04-30T16:26:19.622Z</time></trkpt><trkpt lat="45.1400345" lon="7.8368432"><ele>195.0</ele><time>2026-04-30T16:26:20.613Z</time></trkpt><trkpt lat="45.1401018" lon="7.8369247"><ele>195.0</ele><time>2026-04-30T16:26:21.525Z</time></trkpt><trkpt lat="45.1401863" lon="7.8370293"><ele>195.0</ele><time>2026-04-30T16:26:22.609Z</time></trkpt><trkpt lat="45.1402777" lon="7.8371379"><ele>195.0</ele><time>2026-04-30T16:26:23.596Z</time></trkpt><trkpt lat="45.1403668" lon="7.8372429"><ele>195.0</ele><time>2026-04-30T16:26:24.563Z</time></trkpt><trkpt lat="45.1404604" lon="7.8373539"><ele>195.0</ele><time>2026-04-30T16:26:25.577Z</time></trkpt><trkpt lat="45.1405481" lon="7.8374632"><ele>195.0</ele><time>2026-04-30T16:26:26.524Z</time></trkpt><trkpt lat="45.1406613" lon="7.8376076"><ele>195.0</ele><time>2026-04-30T16:26:27.664Z</time></trkpt><trkpt lat="45.1407664" lon="7.8377238"><ele>194.25</ele><time>2026-04-30T16:26:28.571Z</time></trkpt><trkpt lat="45.1408773" lon="7.8378535"><ele>193.5</ele><time>2026-04-30T16:26:29.593Z</time></trkpt><trkpt lat="45.1409844" lon="7.8379787"><ele>192.75</ele><time>2026-04-30T16:26:30.598Z</time></trkpt><trkpt lat="45.1410902" lon="7.8381026"><ele>192.0</ele><time>2026-04-30T16:26:31.568Z</time></trkpt><trkpt lat="45.1412016" lon="7.8382333"><ele>192.0</ele><time>2026-04-30T16:26:32.567Z</time></trkpt><trkpt lat="45.14132" lon="7.8383722"><ele>192.0</ele><time>2026-04-30T16:26:33.605Z</time></trkpt><trkpt lat="45.1414302" lon="7.8385025"><ele>192.0</ele><time>2026-04-30T16:26:34.579Z</time></trkpt><trkpt lat="45.1415452" lon="7.8386389"><ele>192.0</ele><time>2026-04-30T16:26:35.645Z</time></trkpt><trkpt lat="45.1416406" lon="7.8387476"><ele>191.75</ele><time>2026-04-30T16:26:36.564Z</time></trkpt><trkpt lat="45.1417448" lon="7.8388574"><ele>191.5</ele><time>2026-04-30T16:26:37.522Z</time></trkpt><trkpt lat="45.1418678" lon="7.8389632"><ele>191.25</ele><time>2026-04-30T16:26:38.571Z</time></trkpt><trkpt lat="45.1420004" lon="7.8390516"><ele>191.0</ele><time>2026-04-30T16:26:39.618Z</time></trkpt><trkpt lat="45.1421261" lon="7.8391218"><ele>191.0</ele><time>2026-04-30T16:26:40.671Z</time></trkpt><trkpt lat="45.1423166" lon="7.8392375"><ele>191.0</ele><time>2026-04-30T16:26:42.528Z</time></trkpt><trkpt lat="45.1424053" lon="7.8393159"><ele>191.0</ele><time>2026-04-30T16:26:43.563Z</time></trkpt><trkpt lat="45.1424819" lon="7.8394231"><ele>191.0</ele><time>2026-04-30T16:26:44.585Z</time></trkpt><trkpt lat="45.1425428" lon="7.8395391"><ele>191.0</ele><time>2026-04-30T16:26:45.52Z</time></trkpt><trkpt lat="45.1426088" lon="7.8396622"><ele>191.0</ele><time>2026-04-30T16:26:46.567Z</time></trkpt><trkpt lat="45.1426808" lon="7.8397507"><ele>191.0</ele><time>2026-04-30T16:26:47.593Z</time></trkpt><trkpt lat="45.1427572" lon="7.8397958"><ele>191.0</ele><time>2026-04-30T16:26:48.571Z</time></trkpt><trkpt lat="45.1428503" lon="7.8397967"><ele>191.0</ele><time>2026-04-30T16:26:49.66Z</time></trkpt><trkpt lat="45.1429371" lon="7.8397572"><ele>191.0</ele><time>2026-04-30T16:26:50.567Z</time></trkpt><trkpt lat="45.1430195" lon="7.8396719"><ele>191.0</ele><time>2026-04-30T16:26:51.589Z</time></trkpt><trkpt lat="45.1430853" lon="7.839562"><ele>191.0</ele><time>2026-04-30T16:26:52.574Z</time></trkpt><trkpt lat="45.1431642" lon="7.839439"><ele>191.0</ele><time>2026-04-30T16:26:53.624Z</time></trkpt><trkpt lat="45.143248" lon="7.8393423"><ele>191.0</ele><time>2026-04-30T16:26:54.538Z</time></trkpt><trkpt lat="45.1433748" lon="7.8392502"><ele>190.66666666666666</ele><time>2026-04-30T16:26:55.577Z</time></trkpt><trkpt lat="45.1435172" lon="7.8391726"><ele>190.33333333333334</ele><time>2026-04-30T16:26:56.531Z</time></trkpt><trkpt lat="45.1436895" lon="7.8390943"><ele>190.0</ele><time>2026-04-30T16:26:57.556Z</time></trkpt><trkpt lat="45.143864" lon="7.8390235"><ele>190.33333333333334</ele><time>2026-04-30T16:26:58.537Z</time></trkpt><trkpt lat="45.1440642" lon="7.8389473"><ele>190.66666666666666</ele><time>2026-04-30T16:26:59.623Z</time></trkpt><trkpt lat="45.1442372" lon="7.8388738"><ele>191.0</ele><time>2026-04-30T16:27:00.528Z</time></trkpt><trkpt lat="45.144444" lon="7.8387935"><ele>191.0</ele><time>2026-04-30T16:27:01.553Z</time></trkpt><trkpt lat="45.1446463" lon="7.838716"><ele>191.0</ele><time>2026-04-30T16:27:02.575Z</time></trkpt><trkpt lat="45.1448474" lon="7.8386353"><ele>191.0</ele><time>2026-04-30T16:27:03.6Z</time></trkpt><trkpt lat="45.1450416" lon="7.8385576"><ele>191.0</ele><time>2026-04-30T16:27:04.628Z</time></trkpt><trkpt lat="45.1452104" lon="7.8384911"><ele>191.0</ele><time>2026-04-30T16:27:05.567Z</time></trkpt><trkpt lat="45.1453956" lon="7.8384168"><ele>191.0</ele><time>2026-04-30T16:27:06.597Z</time></trkpt><trkpt lat="45.1455693" lon="7.8383496"><ele>190.66666666666666</ele><time>2026-04-30T16:27:07.563Z</time></trkpt><trkpt lat="45.1457519" lon="7.8382836"><ele>190.33333333333334</ele><time>2026-04-30T16:27:08.583Z</time></trkpt><trkpt lat="45.14594" lon="7.8382222"><ele>190.0</ele><time>2026-04-30T16:27:09.642Z</time></trkpt><trkpt lat="45.1461415" lon="7.8381614"><ele>190.0</ele><time>2026-04-30T16:27:10.734Z</time></trkpt><trkpt lat="45.1464825" lon="7.8380871"><ele>190.0</ele><time>2026-04-30T16:27:12.577Z</time></trkpt><trkpt lat="45.1466656" lon="7.8380572"><ele>190.0</ele><time>2026-04-30T16:27:13.559Z</time></trkpt><trkpt lat="45.1468684" lon="7.8380393"><ele>190.0</ele><time>2026-04-30T16:27:14.639Z</time></trkpt><trkpt lat="45.1470428" lon="7.838035"><ele>190.0</ele><time>2026-04-30T16:27:15.556Z</time></trkpt><trkpt lat="45.1472418" lon="7.8380378"><ele>190.33333333333334</ele><time>2026-04-30T16:27:16.574Z</time></trkpt><trkpt lat="45.1474564" lon="7.8380474"><ele>190.66666666666666</ele><time>2026-04-30T16:27:17.626Z</time></trkpt><trkpt lat="45.147682" lon="7.8380648"><ele>191.0</ele><time>2026-04-30T16:27:18.669Z</time></trkpt><trkpt lat="45.1481146" lon="7.8381243"><ele>190.0</ele><time>2026-04-30T16:27:20.56Z</time></trkpt><trkpt lat="45.1483368" lon="7.8381627"><ele>189.0</ele><time>2026-04-30T16:27:21.582Z</time></trkpt><trkpt lat="45.148533" lon="7.8381962"><ele>188.0</ele><time>2026-04-30T16:27:22.522Z</time></trkpt><trkpt lat="45.1487461" lon="7.8382227"><ele>188.0</ele><time>2026-04-30T16:27:23.581Z</time></trkpt><trkpt lat="45.1489445" lon="7.8382338"><ele>188.0</ele><time>2026-04-30T16:27:24.617Z</time></trkpt><trkpt lat="45.1491238" lon="7.8382364"><ele>188.0</ele><time>2026-04-30T16:27:25.581Z</time></trkpt><trkpt lat="45.1492935" lon="7.8382336"><ele>187.66666666666666</ele><time>2026-04-30T16:27:26.528Z</time></trkpt><trkpt lat="45.1494877" lon="7.8382156"><ele>187.33333333333334</ele><time>2026-04-30T16:27:27.602Z</time></trkpt><trkpt lat="45.1496571" lon="7.8381888"><ele>187.0</ele><time>2026-04-30T16:27:28.554Z</time></trkpt><trkpt lat="45.1498443" lon="7.8381547"><ele>187.0</ele><time>2026-04-30T16:27:29.609Z</time></trkpt><trkpt lat="45.1500134" lon="7.838121"><ele>187.0</ele><time>2026-04-30T16:27:30.533Z</time></trkpt><trkpt lat="45.1502288" lon="7.8380527"><ele>187.0</ele><time>2026-04-30T16:27:31.635Z</time></trkpt><trkpt lat="45.1504207" lon="7.8379795"><ele>187.0</ele><time>2026-04-30T16:27:32.554Z</time></trkpt><trkpt lat="45.1506703" lon="7.8378794"><ele>187.0</ele><time>2026-04-30T16:27:33.685Z</time></trkpt><trkpt lat="45.1511033" lon="7.8376661"><ele>187.0</ele><time>2026-04-30T16:27:35.548Z</time></trkpt><trkpt lat="45.1513605" lon="7.8375035"><ele>187.0</ele><time>2026-04-30T16:27:36.654Z</time></trkpt><trkpt lat="45.1518018" lon="7.8371631"><ele>187.5</ele><time>2026-04-30T16:27:38.609Z</time></trkpt><trkpt lat="45.1520111" lon="7.8369734"><ele>188.0</ele><time>2026-04-30T16:27:39.562Z</time></trkpt><trkpt lat="45.1522267" lon="7.8367532"><ele>187.5</ele><time>2026-04-30T16:27:40.57Z</time></trkpt><trkpt lat="45.1524366" lon="7.8365158"><ele>187.0</ele><time>2026-04-30T16:27:41.573Z</time></trkpt><trkpt lat="45.1526367" lon="7.8362585"><ele>187.0</ele><time>2026-04-30T16:27:42.573Z</time></trkpt><trkpt lat="45.1528339" lon="7.8359786"><ele>187.0</ele><time>2026-04-30T16:27:43.608Z</time></trkpt><trkpt lat="45.1530062" lon="7.8357178"><ele>187.5</ele><time>2026-04-30T16:27:44.546Z</time></trkpt><trkpt lat="45.1531941" lon="7.8354267"><ele>188.0</ele><time>2026-04-30T16:27:45.584Z</time></trkpt><trkpt lat="45.1533635" lon="7.8351588"><ele>186.5</ele><time>2026-04-30T16:27:46.538Z</time></trkpt><trkpt lat="45.1535501" lon="7.8348625"><ele>185.0</ele><time>2026-04-30T16:27:47.59Z</time></trkpt><trkpt lat="45.1537592" lon="7.8345309"><ele>188.0</ele><time>2026-04-30T16:27:48.777Z</time></trkpt><trkpt lat="45.1540688" lon="7.834039"><ele>188.0</ele><time>2026-04-30T16:27:50.566Z</time></trkpt><trkpt lat="45.1542473" lon="7.8337522"><ele>188.0</ele><time>2026-04-30T16:27:51.644Z</time></trkpt><trkpt lat="45.1544052" lon="7.8335038"><ele>189.0</ele><time>2026-04-30T16:27:52.63Z</time></trkpt><trkpt lat="45.1547138" lon="7.8330191"><ele>189.0</ele><time>2026-04-30T16:27:54.604Z</time></trkpt><trkpt lat="45.1548654" lon="7.8327749"><ele>189.0</ele><time>2026-04-30T16:27:55.577Z</time></trkpt><trkpt lat="45.1550296" lon="7.8325098"><ele>187.0</ele><time>2026-04-30T16:27:56.638Z</time></trkpt><trkpt lat="45.1551857" lon="7.8322607"><ele>185.0</ele><time>2026-04-30T16:27:57.674Z</time></trkpt><trkpt lat="45.1553172" lon="7.8320483"><ele>183.0</ele><time>2026-04-30T16:27:58.599Z</time></trkpt><trkpt lat="45.1554573" lon="7.8318253"><ele>183.0</ele><time>2026-04-30T16:27:59.578Z</time></trkpt><trkpt lat="45.1555951" lon="7.8316043"><ele>183.0</ele><time>2026-04-30T16:28:00.517Z</time></trkpt><trkpt lat="45.15577" lon="7.8313197"><ele>183.0</ele><time>2026-04-30T16:28:01.622Z</time></trkpt><trkpt lat="45.1559347" lon="7.8310555"><ele>183.0</ele><time>2026-04-30T16:28:02.601Z</time></trkpt><trkpt lat="45.1560937" lon="7.8308052"><ele>182.0</ele><time>2026-04-30T16:28:03.57Z</time></trkpt><trkpt lat="45.1562603" lon="7.8305408"><ele>181.0</ele><time>2026-04-30T16:28:04.578Z</time></trkpt><trkpt lat="45.1564387" lon="7.8302533"><ele>183.0</ele><time>2026-04-30T16:28:05.584Z</time></trkpt><trkpt lat="45.156627" lon="7.8299445"><ele>185.0</ele><time>2026-04-30T16:28:06.606Z</time></trkpt><trkpt lat="45.1568197" lon="7.8296373"><ele>185.0</ele><time>2026-04-30T16:28:07.591Z</time></trkpt><trkpt lat="45.1570301" lon="7.8293278"><ele>185.0</ele><time>2026-04-30T16:28:08.589Z</time></trkpt><trkpt lat="45.1572589" lon="7.8289727"><ele>187.0</ele><time>2026-04-30T16:28:09.721Z</time></trkpt><trkpt lat="45.1575995" lon="7.8284282"><ele>187.0</ele><time>2026-04-30T16:28:11.586Z</time></trkpt><trkpt lat="45.1577773" lon="7.8281482"><ele>187.0</ele><time>2026-04-30T16:28:12.589Z</time></trkpt><trkpt lat="45.1579492" lon="7.8278782"><ele>186.5</ele><time>2026-04-30T16:28:13.568Z</time></trkpt><trkpt lat="45.1581168" lon="7.827613"><ele>186.0</ele><time>2026-04-30T16:28:14.536Z</time></trkpt><trkpt lat="45.1583045" lon="7.8273134"><ele>187.0</ele><time>2026-04-30T16:28:15.627Z</time></trkpt><trkpt lat="45.1584667" lon="7.8270555"><ele>188.0</ele><time>2026-04-30T16:28:16.566Z</time></trkpt><trkpt lat="45.1586489" lon="7.8267693"><ele>188.0</ele><time>2026-04-30T16:28:17.613Z</time></trkpt><trkpt lat="45.1588172" lon="7.8265063"><ele>188.0</ele><time>2026-04-30T16:28:18.58Z</time></trkpt><trkpt lat="45.1589823" lon="7.8262417"><ele>187.5</ele><time>2026-04-30T16:28:19.555Z</time></trkpt><trkpt lat="45.1591442" lon="7.8259809"><ele>187.0</ele><time>2026-04-30T16:28:20.531Z</time></trkpt><trkpt lat="45.1593116" lon="7.8257113"><ele>185.5</ele><time>2026-04-30T16:28:21.545Z</time></trkpt><trkpt lat="45.1594836" lon="7.8254426"><ele>184.0</ele><time>2026-04-30T16:28:22.575Z</time></trkpt><trkpt lat="45.1596627" lon="7.8251665"><ele>184.0</ele><time>2026-04-30T16:28:23.632Z</time></trkpt><trkpt lat="45.1598321" lon="7.8249154"><ele>184.0</ele><time>2026-04-30T16:28:24.626Z</time></trkpt><trkpt lat="45.1599992" lon="7.8246855"><ele>185.0</ele><time>2026-04-30T16:28:25.598Z</time></trkpt><trkpt lat="45.1601937" lon="7.8244355"><ele>186.0</ele><time>2026-04-30T16:28:26.677Z</time></trkpt><trkpt lat="45.1603826" lon="7.8242036"><ele>188.0</ele><time>2026-04-30T16:28:27.673Z</time></trkpt><trkpt lat="45.1605697" lon="7.8239828"><ele>190.0</ele><time>2026-04-30T16:28:28.628Z</time></trkpt><trkpt lat="45.1607525" lon="7.8237773"><ele>190.0</ele><time>2026-04-30T16:28:29.533Z</time></trkpt><trkpt lat="45.1609692" lon="7.8235392"><ele>190.0</ele><time>2026-04-30T16:28:30.577Z</time></trkpt><trkpt lat="45.1611793" lon="7.823318"><ele>190.5</ele><time>2026-04-30T16:28:31.559Z</time></trkpt><trkpt lat="45.1614044" lon="7.8230903"><ele>191.0</ele><time>2026-04-30T16:28:32.579Z</time></trkpt><trkpt lat="45.1618403" lon="7.8226496"><ele>191.5</ele><time>2026-04-30T16:28:34.608Z</time></trkpt><trkpt lat="45.1620447" lon="7.8224449"><ele>192.0</ele><time>2026-04-30T16:28:35.566Z</time></trkpt><trkpt lat="45.162255" lon="7.8222364"><ele>192.0</ele><time>2026-04-30T16:28:36.564Z</time></trkpt><trkpt lat="45.1624722" lon="7.822024"><ele>192.0</ele><time>2026-04-30T16:28:37.57Z</time></trkpt><trkpt lat="45.1626872" lon="7.8218126"><ele>192.0</ele><time>2026-04-30T16:28:38.559Z</time></trkpt><trkpt lat="45.1629015" lon="7.8215997"><ele>192.0</ele><time>2026-04-30T16:28:39.54Z</time></trkpt><trkpt lat="45.1631291" lon="7.8213732"><ele>193.0</ele><time>2026-04-30T16:28:40.577Z</time></trkpt><trkpt lat="45.1633435" lon="7.8211604"><ele>194.0</ele><time>2026-04-30T16:28:41.545Z</time></trkpt><trkpt lat="45.1635772" lon="7.8209276"><ele>194.0</ele><time>2026-04-30T16:28:42.607Z</time></trkpt><trkpt lat="45.1638017" lon="7.8207026"><ele>194.0</ele><time>2026-04-30T16:28:43.653Z</time></trkpt><trkpt lat="45.1639997" lon="7.8205023"><ele>193.0</ele><time>2026-04-30T16:28:44.592Z</time></trkpt><trkpt lat="45.1641964" lon="7.8203062"><ele>192.0</ele><time>2026-04-30T16:28:45.512Z</time></trkpt><trkpt lat="45.16444" lon="7.8200553"><ele>192.0</ele><time>2026-04-30T16:28:46.674Z</time></trkpt><trkpt lat="45.164629" lon="7.8198449"><ele>192.0</ele><time>2026-04-30T16:28:47.6Z</time></trkpt><trkpt lat="45.1648131" lon="7.8196242"><ele>191.5</ele><time>2026-04-30T16:28:48.528Z</time></trkpt><trkpt lat="45.1650229" lon="7.8193522"><ele>191.0</ele><time>2026-04-30T16:28:49.633Z</time></trkpt><trkpt lat="45.1652015" lon="7.8190998"><ele>190.5</ele><time>2026-04-30T16:28:50.602Z</time></trkpt><trkpt lat="45.1653734" lon="7.8188275"><ele>190.0</ele><time>2026-04-30T16:28:51.573Z</time></trkpt><trkpt lat="45.1655338" lon="7.818538"><ele>189.0</ele><time>2026-04-30T16:28:52.537Z</time></trkpt><trkpt lat="45.1657037" lon="7.818187"><ele>188.0</ele><time>2026-04-30T16:28:53.637Z</time></trkpt><trkpt lat="45.1658364" lon="7.8178814"><ele>187.5</ele><time>2026-04-30T16:28:54.549Z</time></trkpt><trkpt lat="45.165977" lon="7.817533"><ele>187.0</ele><time>2026-04-30T16:28:55.563Z</time></trkpt><trkpt lat="45.166118" lon="7.8171801"><ele>187.0</ele><time>2026-04-30T16:28:56.593Z</time></trkpt><trkpt lat="45.1662517" lon="7.8168657"><ele>187.0</ele><time>2026-04-30T16:28:57.538Z</time></trkpt><trkpt lat="45.1664112" lon="7.8165217"><ele>187.5</ele><time>2026-04-30T16:28:58.601Z</time></trkpt><trkpt lat="45.1665563" lon="7.8162343"><ele>188.0</ele><time>2026-04-30T16:28:59.535Z</time></trkpt><trkpt lat="45.166714" lon="7.815937"><ele>188.0</ele><time>2026-04-30T16:29:00.525Z</time></trkpt><trkpt lat="45.1668841" lon="7.8156261"><ele>188.0</ele><time>2026-04-30T16:29:01.561Z</time></trkpt><trkpt lat="45.1670435" lon="7.8153378"><ele>190.0</ele><time>2026-04-30T16:29:02.52Z</time></trkpt><trkpt lat="45.16722" lon="7.8150217"><ele>192.0</ele><time>2026-04-30T16:29:03.568Z</time></trkpt><trkpt lat="45.1673959" lon="7.8147019"><ele>194.0</ele><time>2026-04-30T16:29:04.617Z</time></trkpt><trkpt lat="45.1675613" lon="7.8143995"><ele>196.0</ele><time>2026-04-30T16:29:05.605Z</time></trkpt><trkpt lat="45.1677265" lon="7.8140937"><ele>196.0</ele><time>2026-04-30T16:29:06.595Z</time></trkpt><trkpt lat="45.1678927" lon="7.8137843"><ele>196.0</ele><time>2026-04-30T16:29:07.584Z</time></trkpt><trkpt lat="45.1680645" lon="7.8134692"><ele>195.0</ele><time>2026-04-30T16:29:08.595Z</time></trkpt><trkpt lat="45.1682331" lon="7.8131612"><ele>194.0</ele><time>2026-04-30T16:29:09.577Z</time></trkpt><trkpt lat="45.1683981" lon="7.8128618"><ele>194.0</ele><time>2026-04-30T16:29:10.535Z</time></trkpt><trkpt lat="45.168604" lon="7.8124868"><ele>194.0</ele><time>2026-04-30T16:29:11.725Z</time></trkpt><trkpt lat="45.1689263" lon="7.8119024"><ele>196.0</ele><time>2026-04-30T16:29:13.584Z</time></trkpt><trkpt lat="45.1690954" lon="7.8115832"><ele>198.0</ele><time>2026-04-30T16:29:14.579Z</time></trkpt><trkpt lat="45.1692714" lon="7.8112541"><ele>197.0</ele><time>2026-04-30T16:29:15.613Z</time></trkpt><trkpt lat="45.1694432" lon="7.810937"><ele>196.0</ele><time>2026-04-30T16:29:16.612Z</time></trkpt><trkpt lat="45.1696067" lon="7.810634"><ele>196.0</ele><time>2026-04-30T16:29:17.567Z</time></trkpt><trkpt lat="45.1697818" lon="7.8103152"><ele>196.0</ele><time>2026-04-30T16:29:18.58Z</time></trkpt><trkpt lat="45.169964" lon="7.8099931"><ele>197.5</ele><time>2026-04-30T16:29:19.614Z</time></trkpt><trkpt lat="45.1701418" lon="7.8097126"><ele>199.0</ele><time>2026-04-30T16:29:20.547Z</time></trkpt><trkpt lat="45.1703448" lon="7.8094488"><ele>199.0</ele><time>2026-04-30T16:29:21.501Z</time></trkpt><trkpt lat="45.1705868" lon="7.8091807"><ele>199.0</ele><time>2026-04-30T16:29:22.55Z</time></trkpt><trkpt lat="45.1708408" lon="7.8089191"><ele>198.5</ele><time>2026-04-30T16:29:23.618Z</time></trkpt><trkpt lat="45.1710726" lon="7.8086975"><ele>198.0</ele><time>2026-04-30T16:29:24.553Z</time></trkpt><trkpt lat="45.171307" lon="7.8084724"><ele>199.0</ele><time>2026-04-30T16:29:25.508Z</time></trkpt><trkpt lat="45.1715594" lon="7.8082291"><ele>200.0</ele><time>2026-04-30T16:29:26.544Z</time></trkpt><trkpt lat="45.1717996" lon="7.8079968"><ele>200.0</ele><time>2026-04-30T16:29:27.546Z</time></trkpt><trkpt lat="45.1720419" lon="7.8077623"><ele>200.0</ele><time>2026-04-30T16:29:28.544Z</time></trkpt><trkpt lat="45.1722794" lon="7.8075266"><ele>200.0</ele><time>2026-04-30T16:29:29.524Z</time></trkpt><trkpt lat="45.1725356" lon="7.807276"><ele>200.0</ele><time>2026-04-30T16:29:30.588Z</time></trkpt><trkpt lat="45.1727948" lon="7.8070232"><ele>200.0</ele><time>2026-04-30T16:29:31.652Z</time></trkpt><trkpt lat="45.173026" lon="7.8067922"><ele>200.0</ele><time>2026-04-30T16:29:32.621Z</time></trkpt><trkpt lat="45.1732456" lon="7.8065647"><ele>201.5</ele><time>2026-04-30T16:29:33.557Z</time></trkpt><trkpt lat="45.1734945" lon="7.8063044"><ele>203.0</ele><time>2026-04-30T16:29:34.619Z</time></trkpt><trkpt lat="45.1737291" lon="7.8060639"><ele>203.0</ele><time>2026-04-30T16:29:35.586Z</time></trkpt><trkpt lat="45.1739716" lon="7.8058219"><ele>203.0</ele><time>2026-04-30T16:29:36.548Z</time></trkpt><trkpt lat="45.1742932" lon="7.8055077"><ele>205.0</ele><time>2026-04-30T16:29:37.8Z</time></trkpt><trkpt lat="45.1747542" lon="7.8050564"><ele>204.0</ele><time>2026-04-30T16:29:39.618Z</time></trkpt><trkpt lat="45.1749949" lon="7.8048205"><ele>203.0</ele><time>2026-04-30T16:29:40.577Z</time></trkpt><trkpt lat="45.1752387" lon="7.804583"><ele>203.0</ele><time>2026-04-30T16:29:41.558Z</time></trkpt><trkpt lat="45.1754874" lon="7.8043387"><ele>203.0</ele><time>2026-04-30T16:29:42.564Z</time></trkpt><trkpt lat="45.1757423" lon="7.8040899"><ele>202.5</ele><time>2026-04-30T16:29:43.597Z</time></trkpt><trkpt lat="45.1759986" lon="7.8038404"><ele>202.0</ele><time>2026-04-30T16:29:44.637Z</time></trkpt><trkpt lat="45.1762307" lon="7.8036164"><ele>202.0</ele><time>2026-04-30T16:29:45.573Z</time></trkpt><trkpt lat="45.1764864" lon="7.803371"><ele>202.0</ele><time>2026-04-30T16:29:46.601Z</time></trkpt><trkpt lat="45.1767302" lon="7.8031475"><ele>202.0</ele><time>2026-04-30T16:29:47.568Z</time></trkpt><trkpt lat="45.1770071" lon="7.8029146"><ele>202.0</ele><time>2026-04-30T16:29:48.632Z</time></trkpt><trkpt lat="45.1772712" lon="7.8027131"><ele>202.5</ele><time>2026-04-30T16:29:49.605Z</time></trkpt><trkpt lat="45.1775389" lon="7.8025274"><ele>203.0</ele><time>2026-04-30T16:29:50.553Z</time></trkpt><trkpt lat="45.1778394" lon="7.8023336"><ele>203.0</ele><time>2026-04-30T16:29:51.594Z</time></trkpt><trkpt lat="45.1781492" lon="7.8021407"><ele>203.0</ele><time>2026-04-30T16:29:52.653Z</time></trkpt><trkpt lat="45.1786927" lon="7.8018094"><ele>204.5</ele><time>2026-04-30T16:29:54.537Z</time></trkpt><trkpt lat="45.1789842" lon="7.8016289"><ele>206.0</ele><time>2026-04-30T16:29:55.596Z</time></trkpt><trkpt lat="45.1792567" lon="7.8014604"><ele>206.5</ele><time>2026-04-30T16:29:56.584Z</time></trkpt><trkpt lat="45.1795219" lon="7.8012954"><ele>207.0</ele><time>2026-04-30T16:29:57.552Z</time></trkpt><trkpt lat="45.1798066" lon="7.8011171"><ele>205.5</ele><time>2026-04-30T16:29:58.6Z</time></trkpt><trkpt lat="45.1800559" lon="7.8009616"><ele>204.0</ele><time>2026-04-30T16:29:59.524Z</time></trkpt><trkpt lat="45.1803447" lon="7.8007812"><ele>204.0</ele><time>2026-04-30T16:30:00.568Z</time></trkpt><trkpt lat="45.1806225" lon="7.8006037"><ele>204.0</ele><time>2026-04-30T16:30:01.561Z</time></trkpt><trkpt lat="45.1809026" lon="7.8004257"><ele>204.5</ele><time>2026-04-30T16:30:02.556Z</time></trkpt><trkpt lat="45.1811698" lon="7.800256"><ele>205.0</ele><time>2026-04-30T16:30:03.516Z</time></trkpt><trkpt lat="45.1814725" lon="7.800065"><ele>205.0</ele><time>2026-04-30T16:30:04.633Z</time></trkpt><trkpt lat="45.1817398" lon="7.7998907"><ele>205.0</ele><time>2026-04-30T16:30:05.662Z</time></trkpt><trkpt lat="45.181968" lon="7.7997159"><ele>205.0</ele><time>2026-04-30T16:30:06.616Z</time></trkpt><trkpt lat="45.1821761" lon="7.7995223"><ele>205.0</ele><time>2026-04-30T16:30:07.562Z</time></trkpt><trkpt lat="45.1823807" lon="7.7992968"><ele>205.5</ele><time>2026-04-30T16:30:08.557Z</time></trkpt><trkpt lat="45.1825786" lon="7.7990473"><ele>206.0</ele><time>2026-04-30T16:30:09.585Z</time></trkpt><trkpt lat="45.1827418" lon="7.7988139"><ele>206.0</ele><time>2026-04-30T16:30:10.528Z</time></trkpt><trkpt lat="45.18292" lon="7.798521"><ele>206.0</ele><time>2026-04-30T16:30:11.706Z</time></trkpt><trkpt lat="45.183148" lon="7.7980477"><ele>205.33333333333334</ele><time>2026-04-30T16:30:13.641Z</time></trkpt><trkpt lat="45.1832371" lon="7.7978321"><ele>204.66666666666669</ele><time>2026-04-30T16:30:14.573Z</time></trkpt><trkpt lat="45.1833149" lon="7.7976156"><ele>204.0</ele><time>2026-04-30T16:30:15.536Z</time></trkpt><trkpt lat="45.1833844" lon="7.7974035"><ele>204.0</ele><time>2026-04-30T16:30:16.55Z</time></trkpt><trkpt lat="45.1834431" lon="7.7971996"><ele>204.0</ele><time>2026-04-30T16:30:17.582Z</time></trkpt><trkpt lat="45.1834945" lon="7.7970325"><ele>204.0</ele><time>2026-04-30T16:30:18.491Z</time></trkpt><trkpt lat="45.1835698" lon="7.7968535"><ele>204.0</ele><time>2026-04-30T16:30:19.559Z</time></trkpt><trkpt lat="45.183651" lon="7.7967151"><ele>204.0</ele><time>2026-04-30T16:30:20.53Z</time></trkpt><trkpt lat="45.1837352" lon="7.7965715"><ele>204.0</ele><time>2026-04-30T16:30:21.551Z</time></trkpt><trkpt lat="45.1837938" lon="7.7964324"><ele>204.0</ele><time>2026-04-30T16:30:22.514Z</time></trkpt><trkpt lat="45.1838162" lon="7.7962617"><ele>204.0</ele><time>2026-04-30T16:30:23.582Z</time></trkpt><trkpt lat="45.1837988" lon="7.7960824"><ele>204.0</ele><time>2026-04-30T16:30:24.564Z</time></trkpt><trkpt lat="45.183758" lon="7.7958829"><ele>204.0</ele><time>2026-04-30T16:30:25.563Z</time></trkpt><trkpt lat="45.1837331" lon="7.7956793"><ele>204.0</ele><time>2026-04-30T16:30:26.539Z</time></trkpt><trkpt lat="45.1837367" lon="7.7954466"><ele>204.0</ele><time>2026-04-30T16:30:27.516Z</time></trkpt><trkpt lat="45.183766" lon="7.7951922"><ele>204.0</ele><time>2026-04-30T16:30:28.532Z</time></trkpt><trkpt lat="45.1838176" lon="7.7948596"><ele>204.0</ele><time>2026-04-30T16:30:29.725Z</time></trkpt><trkpt lat="45.1839249" lon="7.7942919"><ele>205.5</ele><time>2026-04-30T16:30:31.653Z</time></trkpt><trkpt lat="45.1839807" lon="7.7939772"><ele>207.0</ele><time>2026-04-30T16:30:32.617Z</time></trkpt><trkpt lat="45.1840364" lon="7.7936413"><ele>206.5</ele><time>2026-04-30T16:30:33.581Z</time></trkpt><trkpt lat="45.1840968" lon="7.7932768"><ele>206.0</ele><time>2026-04-30T16:30:34.605Z</time></trkpt><trkpt lat="45.1841543" lon="7.7929317"><ele>207.0</ele><time>2026-04-30T16:30:35.574Z</time></trkpt><trkpt lat="45.1842185" lon="7.7925491"><ele>208.0</ele><time>2026-04-30T16:30:36.621Z</time></trkpt><trkpt lat="45.1842769" lon="7.7922077"><ele>208.0</ele><time>2026-04-30T16:30:37.543Z</time></trkpt><trkpt lat="45.1843405" lon="7.7918298"><ele>208.0</ele><time>2026-04-30T16:30:38.556Z</time></trkpt><trkpt lat="45.184407" lon="7.7914375"><ele>208.0</ele><time>2026-04-30T16:30:39.608Z</time></trkpt><trkpt lat="45.1844686" lon="7.7910782"><ele>208.0</ele><time>2026-04-30T16:30:40.574Z</time></trkpt><trkpt lat="45.1845298" lon="7.7907169"><ele>208.0</ele><time>2026-04-30T16:30:41.548Z</time></trkpt><trkpt lat="45.1845979" lon="7.7903235"><ele>208.0</ele><time>2026-04-30T16:30:42.611Z</time></trkpt><trkpt lat="45.1846602" lon="7.7899634"><ele>207.5</ele><time>2026-04-30T16:30:43.581Z</time></trkpt><trkpt lat="45.184725" lon="7.7895763"><ele>207.0</ele><time>2026-04-30T16:30:44.614Z</time></trkpt><trkpt lat="45.1847862" lon="7.7892091"><ele>208.5</ele><time>2026-04-30T16:30:45.573Z</time></trkpt><trkpt lat="45.1848529" lon="7.7888142"><ele>210.0</ele><time>2026-04-30T16:30:46.6Z</time></trkpt><trkpt lat="45.1849191" lon="7.7884336"><ele>210.0</ele><time>2026-04-30T16:30:47.584Z</time></trkpt><trkpt lat="45.1849866" lon="7.7880385"><ele>210.0</ele><time>2026-04-30T16:30:48.599Z</time></trkpt><trkpt lat="45.1850539" lon="7.7876415"><ele>211.0</ele><time>2026-04-30T16:30:49.612Z</time></trkpt><trkpt lat="45.1851174" lon="7.7872644"><ele>212.0</ele><time>2026-04-30T16:30:50.566Z</time></trkpt><trkpt lat="45.1851873" lon="7.7868539"><ele>212.0</ele><time>2026-04-30T16:30:51.598Z</time></trkpt><trkpt lat="45.1852565" lon="7.7864515"><ele>212.0</ele><time>2026-04-30T16:30:52.601Z</time></trkpt><trkpt lat="45.1853327" lon="7.7860111"><ele>211.0</ele><time>2026-04-30T16:30:53.692Z</time></trkpt><trkpt lat="45.1854612" lon="7.7852496"><ele>211.0</ele><time>2026-04-30T16:30:55.554Z</time></trkpt><trkpt lat="45.1855388" lon="7.7847737"><ele>211.0</ele><time>2026-04-30T16:30:56.711Z</time></trkpt><trkpt lat="45.1856698" lon="7.7839768"><ele>211.5</ele><time>2026-04-30T16:30:58.665Z</time></trkpt><trkpt lat="45.1857305" lon="7.7836091"><ele>212.0</ele><time>2026-04-30T16:30:59.581Z</time></trkpt><trkpt lat="45.1857967" lon="7.7832087"><ele>212.0</ele><time>2026-04-30T16:31:00.576Z</time></trkpt><trkpt lat="45.1858617" lon="7.7828177"><ele>212.0</ele><time>2026-04-30T16:31:01.542Z</time></trkpt><trkpt lat="45.185936" lon="7.7823855"><ele>212.0</ele><time>2026-04-30T16:31:02.615Z</time></trkpt><trkpt lat="45.1860049" lon="7.7819842"><ele>212.0</ele><time>2026-04-30T16:31:03.618Z</time></trkpt><trkpt lat="45.1860695" lon="7.7816066"><ele>213.0</ele><time>2026-04-30T16:31:04.559Z</time></trkpt><trkpt lat="45.1861415" lon="7.7811884"><ele>214.0</ele><time>2026-04-30T16:31:05.598Z</time></trkpt><trkpt lat="45.1862117" lon="7.7807745"><ele>214.0</ele><time>2026-04-30T16:31:06.621Z</time></trkpt><trkpt lat="45.1862738" lon="7.7804003"><ele>214.0</ele><time>2026-04-30T16:31:07.542Z</time></trkpt><trkpt lat="45.1863473" lon="7.7799666"><ele>214.5</ele><time>2026-04-30T16:31:08.599Z</time></trkpt><trkpt lat="45.1864113" lon="7.7795889"><ele>215.0</ele><time>2026-04-30T16:31:09.506Z</time></trkpt><trkpt lat="45.1864848" lon="7.7791601"><ele>216.5</ele><time>2026-04-30T16:31:10.534Z</time></trkpt><trkpt lat="45.1865532" lon="7.7787489"><ele>218.0</ele><time>2026-04-30T16:31:11.515Z</time></trkpt><trkpt lat="45.186621" lon="7.7783442"><ele>218.0</ele><time>2026-04-30T16:31:12.475Z</time></trkpt><trkpt lat="45.1866968" lon="7.777888"><ele>218.0</ele><time>2026-04-30T16:31:13.559Z</time></trkpt><trkpt lat="45.1867842" lon="7.7773735"><ele>219.0</ele><time>2026-04-30T16:31:14.774Z</time></trkpt><trkpt lat="45.1868406" lon="7.7770408"><ele>220.0</ele><time>2026-04-30T16:31:15.564Z</time></trkpt><trkpt lat="45.1869118" lon="7.7766115"><ele>220.0</ele><time>2026-04-30T16:31:16.584Z</time></trkpt><trkpt lat="45.1869757" lon="7.7762105"><ele>220.0</ele><time>2026-04-30T16:31:17.538Z</time></trkpt><trkpt lat="45.187036" lon="7.7757825"><ele>218.5</ele><time>2026-04-30T16:31:18.558Z</time></trkpt><trkpt lat="45.1870903" lon="7.7753347"><ele>217.0</ele><time>2026-04-30T16:31:19.623Z</time></trkpt><trkpt lat="45.1871383" lon="7.7749107"><ele>217.0</ele><time>2026-04-30T16:31:20.63Z</time></trkpt><trkpt lat="45.1871825" lon="7.7745094"><ele>217.0</ele><time>2026-04-30T16:31:21.586Z</time></trkpt><trkpt lat="45.1872281" lon="7.7740868"><ele>217.5</ele><time>2026-04-30T16:31:22.596Z</time></trkpt><trkpt lat="45.1872775" lon="7.7736248"><ele>218.0</ele><time>2026-04-30T16:31:23.702Z</time></trkpt><trkpt lat="45.1873698" lon="7.7728213"><ele>219.0</ele><time>2026-04-30T16:31:25.651Z</time></trkpt><trkpt lat="45.187462" lon="7.7720149"><ele>220.0</ele><time>2026-04-30T16:31:27.595Z</time></trkpt><trkpt lat="45.1875094" lon="7.7715995"><ele>221.0</ele><time>2026-04-30T16:31:28.599Z</time></trkpt><trkpt lat="45.1875558" lon="7.7711869"><ele>221.0</ele><time>2026-04-30T16:31:29.589Z</time></trkpt><trkpt lat="45.1876093" lon="7.7706965"><ele>221.0</ele><time>2026-04-30T16:31:30.759Z</time></trkpt><trkpt lat="45.1876964" lon="7.7699365"><ele>220.5</ele><time>2026-04-30T16:31:32.561Z</time></trkpt><trkpt lat="45.1877445" lon="7.769521"><ele>220.0</ele><time>2026-04-30T16:31:33.583Z</time></trkpt><trkpt lat="45.1877904" lon="7.7691391"><ele>220.0</ele><time>2026-04-30T16:31:34.598Z</time></trkpt><trkpt lat="45.1878388" lon="7.7687491"><ele>220.0</ele><time>2026-04-30T16:31:35.707Z</time></trkpt><trkpt lat="45.1879186" lon="7.7681501"><ele>220.0</ele><time>2026-04-30T16:31:37.516Z</time></trkpt><trkpt lat="45.1879582" lon="7.7678312"><ele>220.0</ele><time>2026-04-30T16:31:38.539Z</time></trkpt><trkpt lat="45.1879942" lon="7.7675215"><ele>220.0</ele><time>2026-04-30T16:31:39.538Z</time></trkpt><trkpt lat="45.1880315" lon="7.7672039"><ele>221.0</ele><time>2026-04-30T16:31:40.58Z</time></trkpt><trkpt lat="45.188065" lon="7.7669019"><ele>222.0</ele><time>2026-04-30T16:31:41.558Z</time></trkpt><trkpt lat="45.1881023" lon="7.7665617"><ele>222.0</ele><time>2026-04-30T16:31:42.571Z</time></trkpt><trkpt lat="45.1881405" lon="7.7662238"><ele>222.0</ele><time>2026-04-30T16:31:43.508Z</time></trkpt><trkpt lat="45.188183" lon="7.7658381"><ele>221.5</ele><time>2026-04-30T16:31:44.558Z</time></trkpt><trkpt lat="45.188229" lon="7.7654455"><ele>221.0</ele><time>2026-04-30T16:31:45.633Z</time></trkpt><trkpt lat="45.1882655" lon="7.7651257"><ele>221.0</ele><time>2026-04-30T16:31:46.576Z</time></trkpt><trkpt lat="45.1883016" lon="7.7647982"><ele>221.0</ele><time>2026-04-30T16:31:47.616Z</time></trkpt><trkpt lat="45.1883352" lon="7.7644835"><ele>221.0</ele><time>2026-04-30T16:31:48.663Z</time></trkpt><trkpt lat="45.188366" lon="7.7642094"><ele>221.0</ele><time>2026-04-30T16:31:49.616Z</time></trkpt><trkpt lat="45.1883972" lon="7.7639281"><ele>221.0</ele><time>2026-04-30T16:31:50.581Z</time></trkpt><trkpt lat="45.188429" lon="7.7636371"><ele>221.66666666666669</ele><time>2026-04-30T16:31:51.581Z</time></trkpt><trkpt lat="45.1884595" lon="7.7633545"><ele>222.33333333333331</ele><time>2026-04-30T16:31:52.546Z</time></trkpt><trkpt lat="45.1884944" lon="7.7630314"><ele>223.0</ele><time>2026-04-30T16:31:53.651Z</time></trkpt><trkpt lat="45.1885237" lon="7.7627609"><ele>223.0</ele><time>2026-04-30T16:31:54.572Z</time></trkpt><trkpt lat="45.1885556" lon="7.7624686"><ele>223.0</ele><time>2026-04-30T16:31:55.569Z</time></trkpt><trkpt lat="45.1885878" lon="7.7621728"><ele>223.0</ele><time>2026-04-30T16:31:56.581Z</time></trkpt><trkpt lat="45.1886223" lon="7.7618691"><ele>223.0</ele><time>2026-04-30T16:31:57.62Z</time></trkpt><trkpt lat="45.1886543" lon="7.7615807"><ele>223.0</ele><time>2026-04-30T16:31:58.594Z</time></trkpt><trkpt lat="45.1886843" lon="7.7613055"><ele>223.0</ele><time>2026-04-30T16:31:59.519Z</time></trkpt><trkpt lat="45.1887219" lon="7.7609817"><ele>223.0</ele><time>2026-04-30T16:32:00.604Z</time></trkpt><trkpt lat="45.1887551" lon="7.7606934"><ele>223.0</ele><time>2026-04-30T16:32:01.568Z</time></trkpt><trkpt lat="45.1887915" lon="7.7603749"><ele>223.0</ele><time>2026-04-30T16:32:02.629Z</time></trkpt><trkpt lat="45.1888304" lon="7.7600366"><ele>223.0</ele><time>2026-04-30T16:32:03.755Z</time></trkpt><trkpt lat="45.1888901" lon="7.7594915"><ele>223.0</ele><time>2026-04-30T16:32:05.604Z</time></trkpt><trkpt lat="45.1889216" lon="7.7592063"><ele>224.0</ele><time>2026-04-30T16:32:06.581Z</time></trkpt><trkpt lat="45.188957" lon="7.7588952"><ele>225.0</ele><time>2026-04-30T16:32:07.657Z</time></trkpt><trkpt lat="45.1890162" lon="7.7583598"><ele>225.0</ele><time>2026-04-30T16:32:09.486Z</time></trkpt><trkpt lat="45.1890494" lon="7.7580496"><ele>225.0</ele><time>2026-04-30T16:32:10.543Z</time></trkpt><trkpt lat="45.1890817" lon="7.7577497"><ele>225.0</ele><time>2026-04-30T16:32:11.568Z</time></trkpt><trkpt lat="45.1891152" lon="7.7574384"><ele>224.66666666666669</ele><time>2026-04-30T16:32:12.636Z</time></trkpt><trkpt lat="45.1891466" lon="7.7571542"><ele>224.33333333333334</ele><time>2026-04-30T16:32:13.613Z</time></trkpt><trkpt lat="45.1891809" lon="7.7568496"><ele>224.0</ele><time>2026-04-30T16:32:14.668Z</time></trkpt><trkpt lat="45.1892119" lon="7.756578"><ele>224.66666666666669</ele><time>2026-04-30T16:32:15.611Z</time></trkpt><trkpt lat="45.1892438" lon="7.756288"><ele>225.33333333333331</ele><time>2026-04-30T16:32:16.61Z</time></trkpt><trkpt lat="45.1892763" lon="7.7559966"><ele>226.0</ele><time>2026-04-30T16:32:17.599Z</time></trkpt><trkpt lat="45.1893099" lon="7.7556955"><ele>226.33333333333331</ele><time>2026-04-30T16:32:18.617Z</time></trkpt><trkpt lat="45.1893415" lon="7.755415"><ele>226.66666666666669</ele><time>2026-04-30T16:32:19.561Z</time></trkpt><trkpt lat="45.1893739" lon="7.7551214"><ele>227.0</ele><time>2026-04-30T16:32:20.561Z</time></trkpt><trkpt lat="45.1894018" lon="7.7548313"><ele>227.0</ele><time>2026-04-30T16:32:21.563Z</time></trkpt><trkpt lat="45.1894295" lon="7.7545337"><ele>227.0</ele><time>2026-04-30T16:32:22.597Z</time></trkpt><trkpt lat="45.1894579" lon="7.7542447"><ele>227.0</ele><time>2026-04-30T16:32:23.61Z</time></trkpt><trkpt lat="45.1894852" lon="7.7539745"><ele>227.0</ele><time>2026-04-30T16:32:24.56Z</time></trkpt><trkpt lat="45.1895165" lon="7.7536789"><ele>227.0</ele><time>2026-04-30T16:32:25.608Z</time></trkpt><trkpt lat="45.189548" lon="7.7533919"><ele>227.0</ele><time>2026-04-30T16:32:26.631Z</time></trkpt><trkpt lat="45.1895768" lon="7.7531314"><ele>227.0</ele><time>2026-04-30T16:32:27.563Z</time></trkpt><trkpt lat="45.1896086" lon="7.7528353"><ele>227.0</ele><time>2026-04-30T16:32:28.628Z</time></trkpt><trkpt lat="45.1896372" lon="7.7525779"><ele>227.0</ele><time>2026-04-30T16:32:29.563Z</time></trkpt><trkpt lat="45.1896663" lon="7.7522954"><ele>227.66666666666669</ele><time>2026-04-30T16:32:30.596Z</time></trkpt><trkpt lat="45.1896929" lon="7.7520425"><ele>228.33333333333331</ele><time>2026-04-30T16:32:31.565Z</time></trkpt><trkpt lat="45.1897202" lon="7.7517739"><ele>229.0</ele><time>2026-04-30T16:32:32.614Z</time></trkpt><trkpt lat="45.1897435" lon="7.7515382"><ele>229.0</ele><time>2026-04-30T16:32:33.574Z</time></trkpt><trkpt lat="45.1897668" lon="7.7512982"><ele>229.0</ele><time>2026-04-30T16:32:34.61Z</time></trkpt><trkpt lat="45.1897915" lon="7.7510787"><ele>229.0</ele><time>2026-04-30T16:32:35.627Z</time></trkpt><trkpt lat="45.1898158" lon="7.7508794"><ele>228.75</ele><time>2026-04-30T16:32:36.629Z</time></trkpt><trkpt lat="45.1898362" lon="7.7507096"><ele>228.5</ele><time>2026-04-30T16:32:37.535Z</time></trkpt><trkpt lat="45.1898596" lon="7.7505299"><ele>228.25</ele><time>2026-04-30T16:32:38.581Z</time></trkpt><trkpt lat="45.189885" lon="7.7503525"><ele>228.0</ele><time>2026-04-30T16:32:39.697Z</time></trkpt><trkpt lat="45.1899305" lon="7.7500896"><ele>228.33333333333334</ele><time>2026-04-30T16:32:41.554Z</time></trkpt><trkpt lat="45.1899633" lon="7.7499509"><ele>228.66666666666669</ele><time>2026-04-30T16:32:42.567Z</time></trkpt><trkpt lat="45.1900069" lon="7.7498264"><ele>229.0</ele><time>2026-04-30T16:32:43.554Z</time></trkpt><trkpt lat="45.1900613" lon="7.7497342"><ele>229.33333333333334</ele><time>2026-04-30T16:32:44.537Z</time></trkpt><trkpt lat="45.19013" lon="7.7496635"><ele>229.66666666666669</ele><time>2026-04-30T16:32:45.588Z</time></trkpt><trkpt lat="45.1901932" lon="7.7496076"><ele>230.0</ele><time>2026-04-30T16:32:46.509Z</time></trkpt><trkpt lat="45.1902477" lon="7.7495469"><ele>230.0</ele><time>2026-04-30T16:32:47.583Z</time></trkpt><trkpt lat="45.1902776" lon="7.7494054"><ele>230.0</ele><time>2026-04-30T16:32:49.565Z</time></trkpt><trkpt lat="45.1902314" lon="7.749257"><ele>230.0</ele><time>2026-04-30T16:32:51.547Z</time></trkpt><trkpt lat="45.1901775" lon="7.7491893"><ele>230.0</ele><time>2026-04-30T16:32:52.531Z</time></trkpt><trkpt lat="45.1901056" lon="7.749108"><ele>230.0</ele><time>2026-04-30T16:32:53.609Z</time></trkpt><trkpt lat="45.1900365" lon="7.7490064"><ele>230.66666666666669</ele><time>2026-04-30T16:32:54.626Z</time></trkpt><trkpt lat="45.1899343" lon="7.7487236"><ele>231.33333333333331</ele><time>2026-04-30T16:32:56.6Z</time></trkpt><trkpt lat="45.1898767" lon="7.7485355"><ele>232.0</ele><time>2026-04-30T16:32:57.719Z</time></trkpt><trkpt lat="45.1897896" lon="7.7482216"><ele>232.25</ele><time>2026-04-30T16:32:59.564Z</time></trkpt><trkpt lat="45.1897375" lon="7.7480344"><ele>232.5</ele><time>2026-04-30T16:33:00.618Z</time></trkpt><trkpt lat="45.1896867" lon="7.7478611"><ele>232.75</ele><time>2026-04-30T16:33:01.592Z</time></trkpt><trkpt lat="45.1896288" lon="7.7476795"><ele>233.0</ele><time>2026-04-30T16:33:02.576Z</time></trkpt><trkpt lat="45.1895607" lon="7.74748"><ele>232.33333333333334</ele><time>2026-04-30T16:33:03.663Z</time></trkpt><trkpt lat="45.1894344" lon="7.7471466"><ele>231.66666666666669</ele><time>2026-04-30T16:33:05.554Z</time></trkpt><trkpt lat="45.1893518" lon="7.7469445"><ele>231.0</ele><time>2026-04-30T16:33:06.675Z</time></trkpt><trkpt lat="45.1892837" lon="7.746779"><ele>231.0</ele><time>2026-04-30T16:33:07.624Z</time></trkpt><trkpt lat="45.189209" lon="7.7466115"><ele>231.0</ele><time>2026-04-30T16:33:08.621Z</time></trkpt><trkpt lat="45.1891415" lon="7.7464576"><ele>231.0</ele><time>2026-04-30T16:33:09.543Z</time></trkpt><trkpt lat="45.1890757" lon="7.746289"><ele>231.0</ele><time>2026-04-30T16:33:10.55Z</time></trkpt><trkpt lat="45.1890216" lon="7.7461279"><ele>231.5</ele><time>2026-04-30T16:33:11.556Z</time></trkpt><trkpt lat="45.1889579" lon="7.7459525"><ele>232.0</ele><time>2026-04-30T16:33:12.579Z</time></trkpt><trkpt lat="45.1889013" lon="7.7457865"><ele>232.5</ele><time>2026-04-30T16:33:13.557Z</time></trkpt><trkpt lat="45.1888335" lon="7.7455941"><ele>233.0</ele><time>2026-04-30T16:33:14.685Z</time></trkpt><trkpt lat="45.1887188" lon="7.7452541"><ele>233.0</ele><time>2026-04-30T16:33:16.595Z</time></trkpt><trkpt lat="45.1886535" lon="7.7450905"><ele>233.0</ele><time>2026-04-30T16:33:17.548Z</time></trkpt><trkpt lat="45.1885836" lon="7.744915"><ele>233.0</ele><time>2026-04-30T16:33:18.57Z</time></trkpt><trkpt lat="45.1885133" lon="7.7447414"><ele>233.0</ele><time>2026-04-30T16:33:19.605Z</time></trkpt><trkpt lat="45.1884431" lon="7.7445707"><ele>233.0</ele><time>2026-04-30T16:33:20.594Z</time></trkpt><trkpt lat="45.188367" lon="7.7443867"><ele>233.0</ele><time>2026-04-30T16:33:21.613Z</time></trkpt><trkpt lat="45.1882723" lon="7.7441736"><ele>233.0</ele><time>2026-04-30T16:33:22.628Z</time></trkpt><trkpt lat="45.1881819" lon="7.7439583"><ele>232.66666666666669</ele><time>2026-04-30T16:33:23.545Z</time></trkpt><trkpt lat="45.1880902" lon="7.7437006"><ele>232.33333333333331</ele><time>2026-04-30T16:33:24.607Z</time></trkpt><trkpt lat="45.1880083" lon="7.7434774"><ele>232.0</ele><time>2026-04-30T16:33:25.591Z</time></trkpt><trkpt lat="45.1879277" lon="7.7432733"><ele>232.0</ele><time>2026-04-30T16:33:26.553Z</time></trkpt><trkpt lat="45.1878309" lon="7.7430302"><ele>232.0</ele><time>2026-04-30T16:33:27.735Z</time></trkpt><trkpt lat="45.1876822" lon="7.7426578"><ele>232.0</ele><time>2026-04-30T16:33:29.558Z</time></trkpt><trkpt lat="45.1876009" lon="7.7424522"><ele>232.0</ele><time>2026-04-30T16:33:30.566Z</time></trkpt><trkpt lat="45.1875163" lon="7.742232"><ele>232.0</ele><time>2026-04-30T16:33:31.659Z</time></trkpt><trkpt lat="45.1874483" lon="7.7420551"><ele>232.75</ele><time>2026-04-30T16:33:32.565Z</time></trkpt><trkpt lat="45.1873751" lon="7.7418635"><ele>233.5</ele><time>2026-04-30T16:33:33.59Z</time></trkpt><trkpt lat="45.187318" lon="7.7416838"><ele>234.25</ele><time>2026-04-30T16:33:34.512Z</time></trkpt><trkpt lat="45.1872638" lon="7.7414855"><ele>235.0</ele><time>2026-04-30T16:33:35.534Z</time></trkpt><trkpt lat="45.1872141" lon="7.74128"><ele>235.0</ele><time>2026-04-30T16:33:36.597Z</time></trkpt><trkpt lat="45.1871694" lon="7.7410883"><ele>235.0</ele><time>2026-04-30T16:33:37.56Z</time></trkpt><trkpt lat="45.187121" lon="7.7408791"><ele>235.0</ele><time>2026-04-30T16:33:38.631Z</time></trkpt><trkpt lat="45.1870804" lon="7.7407026"><ele>235.0</ele><time>2026-04-30T16:33:39.533Z</time></trkpt><trkpt lat="45.1870374" lon="7.7404961"><ele>235.5</ele><time>2026-04-30T16:33:40.563Z</time></trkpt><trkpt lat="45.1869956" lon="7.7402962"><ele>236.0</ele><time>2026-04-30T16:33:41.557Z</time></trkpt><trkpt lat="45.1869535" lon="7.7401005"><ele>236.5</ele><time>2026-04-30T16:33:42.56Z</time></trkpt><trkpt lat="45.1869099" lon="7.7399033"><ele>237.0</ele><time>2026-04-30T16:33:43.568Z</time></trkpt><trkpt lat="45.1868639" lon="7.7396936"><ele>236.66666666666669</ele><time>2026-04-30T16:33:44.622Z</time></trkpt><trkpt lat="45.1867811" lon="7.7393175"><ele>236.33333333333334</ele><time>2026-04-30T16:33:46.57Z</time></trkpt><trkpt lat="45.1867363" lon="7.7391241"><ele>236.0</ele><time>2026-04-30T16:33:47.574Z</time></trkpt><trkpt lat="45.186695" lon="7.7389443"><ele>236.0</ele><time>2026-04-30T16:33:48.515Z</time></trkpt><trkpt lat="45.1866517" lon="7.7387556"><ele>236.0</ele><time>2026-04-30T16:33:49.517Z</time></trkpt><trkpt lat="45.1866042" lon="7.7385587"><ele>236.0</ele><time>2026-04-30T16:33:50.543Z</time></trkpt><trkpt lat="45.1865563" lon="7.7383635"><ele>236.0</ele><time>2026-04-30T16:33:51.571Z</time></trkpt><trkpt lat="45.1865129" lon="7.73819"><ele>235.75</ele><time>2026-04-30T16:33:52.527Z</time></trkpt><trkpt lat="45.1864643" lon="7.7379982"><ele>235.5</ele><time>2026-04-30T16:33:53.568Z</time></trkpt><trkpt lat="45.1864139" lon="7.7378144"><ele>235.25</ele><time>2026-04-30T16:33:54.587Z</time></trkpt><trkpt lat="45.1863653" lon="7.7376403"><ele>235.0</ele><time>2026-04-30T16:33:55.572Z</time></trkpt><trkpt lat="45.1863182" lon="7.7374691"><ele>235.0</ele><time>2026-04-30T16:33:56.594Z</time></trkpt><trkpt lat="45.1862712" lon="7.7372993"><ele>235.0</ele><time>2026-04-30T16:33:57.605Z</time></trkpt><trkpt lat="45.186227" lon="7.7371348"><ele>235.0</ele><time>2026-04-30T16:33:58.543Z</time></trkpt><trkpt lat="45.186177" lon="7.7369509"><ele>235.0</ele><time>2026-04-30T16:33:59.597Z</time></trkpt><trkpt lat="45.1861342" lon="7.7367911"><ele>235.33333333333331</ele><time>2026-04-30T16:34:00.558Z</time></trkpt><trkpt lat="45.1860748" lon="7.7365654"><ele>235.66666666666669</ele><time>2026-04-30T16:34:01.847Z</time></trkpt><trkpt lat="45.1859877" lon="7.7362444"><ele>236.0</ele><time>2026-04-30T16:34:03.627Z</time></trkpt><trkpt lat="45.1859439" lon="7.7360846"><ele>236.5</ele><time>2026-04-30T16:34:04.559Z</time></trkpt><trkpt lat="45.1858916" lon="7.7358982"><ele>237.0</ele><time>2026-04-30T16:34:05.647Z</time></trkpt><trkpt lat="45.1858454" lon="7.7357335"><ele>237.5</ele><time>2026-04-30T16:34:06.573Z</time></trkpt><trkpt lat="45.1857949" lon="7.7355473"><ele>238.0</ele><time>2026-04-30T16:34:07.595Z</time></trkpt><trkpt lat="45.1857475" lon="7.7353693"><ele>238.0</ele><time>2026-04-30T16:34:08.558Z</time></trkpt><trkpt lat="45.185699" lon="7.7351909"><ele>238.0</ele><time>2026-04-30T16:34:09.555Z</time></trkpt><trkpt lat="45.185651" lon="7.7350121"><ele>238.0</ele><time>2026-04-30T16:34:10.574Z</time></trkpt><trkpt lat="45.1856066" lon="7.7348461"><ele>238.0</ele><time>2026-04-30T16:34:11.545Z</time></trkpt><trkpt lat="45.1855585" lon="7.7346691"><ele>237.75</ele><time>2026-04-30T16:34:12.598Z</time></trkpt><trkpt lat="45.1855132" lon="7.7345053"><ele>237.5</ele><time>2026-04-30T16:34:13.584Z</time></trkpt><trkpt lat="45.1854713" lon="7.7343546"><ele>237.25</ele><time>2026-04-30T16:34:14.556Z</time></trkpt><trkpt lat="45.1854296" lon="7.7342015"><ele>237.0</ele><time>2026-04-30T16:34:15.59Z</time></trkpt><trkpt lat="45.1853888" lon="7.7340523"><ele>237.6</ele><time>2026-04-30T16:34:16.614Z</time></trkpt><trkpt lat="45.185353" lon="7.7339218"><ele>238.2</ele><time>2026-04-30T16:34:17.54Z</time></trkpt><trkpt lat="45.1853172" lon="7.7337899"><ele>238.8</ele><time>2026-04-30T16:34:18.547Z</time></trkpt><trkpt lat="45.1852871" lon="7.7336779"><ele>239.4</ele><time>2026-04-30T16:34:19.573Z</time></trkpt><trkpt lat="45.1852601" lon="7.7335719"><ele>240.0</ele><time>2026-04-30T16:34:20.578Z</time></trkpt><trkpt lat="45.1852317" lon="7.7334493"><ele>240.0</ele><time>2026-04-30T16:34:21.678Z</time></trkpt><trkpt lat="45.1852103" lon="7.7333608"><ele>240.0</ele><time>2026-04-30T16:34:22.587Z</time></trkpt><trkpt lat="45.1851878" lon="7.7332616"><ele>240.0</ele><time>2026-04-30T16:34:23.603Z</time></trkpt><trkpt lat="45.1851946" lon="7.733097"><ele>240.0</ele><time>2026-04-30T16:34:25.557Z</time></trkpt><trkpt lat="45.1852354" lon="7.7329624"><ele>240.0</ele><time>2026-04-30T16:34:27.577Z</time></trkpt><trkpt lat="45.1853188" lon="7.7328329"><ele>240.0</ele><time>2026-04-30T16:34:29.583Z</time></trkpt><trkpt lat="45.1853608" lon="7.7327651"><ele>240.0</ele><time>2026-04-30T16:34:30.559Z</time></trkpt><trkpt lat="45.1853946" lon="7.732596"><ele>240.0</ele><time>2026-04-30T16:34:32.621Z</time></trkpt><trkpt lat="45.1853416" lon="7.732469"><ele>240.0</ele><time>2026-04-30T16:34:34.565Z</time></trkpt><trkpt lat="45.1852849" lon="7.7324248"><ele>240.0</ele><time>2026-04-30T16:34:35.544Z</time></trkpt><trkpt lat="45.185212" lon="7.7323999"><ele>240.0</ele><time>2026-04-30T16:34:36.56Z</time></trkpt><trkpt lat="45.185138" lon="7.7323696"><ele>239.83333333333334</ele><time>2026-04-30T16:34:37.543Z</time></trkpt><trkpt lat="45.185058" lon="7.7323182"><ele>239.66666666666669</ele><time>2026-04-30T16:34:38.6Z</time></trkpt><trkpt lat="45.1849874" lon="7.732249"><ele>239.5</ele><time>2026-04-30T16:34:39.571Z</time></trkpt><trkpt lat="45.1849238" lon="7.7321609"><ele>239.33333333333334</ele><time>2026-04-30T16:34:40.523Z</time></trkpt><trkpt lat="45.1848634" lon="7.7320456"><ele>239.16666666666669</ele><time>2026-04-30T16:34:41.607Z</time></trkpt><trkpt lat="45.1848277" lon="7.7319453"><ele>239.0</ele><time>2026-04-30T16:34:42.522Z</time></trkpt><trkpt lat="45.1847978" lon="7.7318292"><ele>239.16666666666669</ele><time>2026-04-30T16:34:43.57Z</time></trkpt><trkpt lat="45.1847789" lon="7.7317184"><ele>239.33333333333334</ele><time>2026-04-30T16:34:44.566Z</time></trkpt><trkpt lat="45.1847653" lon="7.7316042"><ele>239.5</ele><time>2026-04-30T16:34:45.595Z</time></trkpt><trkpt lat="45.1847542" lon="7.7314783"><ele>239.66666666666669</ele><time>2026-04-30T16:34:46.615Z</time></trkpt><trkpt lat="45.1847504" lon="7.7313332"><ele>239.83333333333334</ele><time>2026-04-30T16:34:47.736Z</time></trkpt><trkpt lat="45.1847523" lon="7.7312063"><ele>240.0</ele><time>2026-04-30T16:34:48.646Z</time></trkpt><trkpt lat="45.1847513" lon="7.7309076"><ele>240.0</ele><time>2026-04-30T16:34:50.771Z</time></trkpt><trkpt lat="45.1847493" lon="7.7305512"><ele>240.0</ele><time>2026-04-30T16:34:52.589Z</time></trkpt><trkpt lat="45.184751" lon="7.7303168"><ele>240.0</ele><time>2026-04-30T16:34:53.575Z</time></trkpt><trkpt lat="45.1847546" lon="7.7300408"><ele>240.33333333333331</ele><time>2026-04-30T16:34:54.62Z</time></trkpt><trkpt lat="45.1847603" lon="7.7297787"><ele>240.66666666666666</ele><time>2026-04-30T16:34:55.615Z</time></trkpt><trkpt lat="45.1847676" lon="7.7295097"><ele>241.0</ele><time>2026-04-30T16:34:56.612Z</time></trkpt><trkpt lat="45.1847728" lon="7.7292768"><ele>241.0</ele><time>2026-04-30T16:34:57.525Z</time></trkpt><trkpt lat="45.1847768" lon="7.729006"><ele>241.0</ele><time>2026-04-30T16:34:58.585Z</time></trkpt><trkpt lat="45.1847802" lon="7.7287787"><ele>241.0</ele><time>2026-04-30T16:34:59.545Z</time></trkpt><trkpt lat="45.1847829" lon="7.7285293"><ele>241.0</ele><time>2026-04-30T16:35:00.613Z</time></trkpt><trkpt lat="45.1847856" lon="7.7283004"><ele>241.0</ele><time>2026-04-30T16:35:01.57Z</time></trkpt><trkpt lat="45.1847867" lon="7.7280367"><ele>241.0</ele><time>2026-04-30T16:35:02.669Z</time></trkpt><trkpt lat="45.184789" lon="7.7278158"><ele>241.33333333333331</ele><time>2026-04-30T16:35:03.584Z</time></trkpt><trkpt lat="45.184794" lon="7.7275733"><ele>241.66666666666669</ele><time>2026-04-30T16:35:04.624Z</time></trkpt><trkpt lat="45.1847981" lon="7.7273722"><ele>242.0</ele><time>2026-04-30T16:35:05.566Z</time></trkpt><trkpt lat="45.1847996" lon="7.7271749"><ele>242.0</ele><time>2026-04-30T16:35:06.604Z</time></trkpt><trkpt lat="45.1848009" lon="7.7270045"><ele>242.0</ele><time>2026-04-30T16:35:07.586Z</time></trkpt><trkpt lat="45.1848047" lon="7.7268386"><ele>242.0</ele><time>2026-04-30T16:35:08.582Z</time></trkpt><trkpt lat="45.1848092" lon="7.7266767"><ele>242.0</ele><time>2026-04-30T16:35:09.614Z</time></trkpt><trkpt lat="45.184812" lon="7.7265492"><ele>242.0</ele><time>2026-04-30T16:35:10.558Z</time></trkpt><trkpt lat="45.1848146" lon="7.7264284"><ele>242.00000000000003</ele><time>2026-04-30T16:35:11.586Z</time></trkpt><trkpt lat="45.1848173" lon="7.726328"><ele>242.0</ele><time>2026-04-30T16:35:12.566Z</time></trkpt><trkpt lat="45.1848173" lon="7.7262245"><ele>242.0</ele><time>2026-04-30T16:35:13.58Z</time></trkpt><trkpt lat="45.184817" lon="7.726105"><ele>242.0</ele><time>2026-04-30T16:35:14.566Z</time></trkpt><trkpt lat="45.1848147" lon="7.7259656"><ele>242.00000000000003</ele><time>2026-04-30T16:35:15.606Z</time></trkpt><trkpt lat="45.1848119" lon="7.7258384"><ele>242.0</ele><time>2026-04-30T16:35:16.621Z</time></trkpt><trkpt lat="45.1848108" lon="7.7257276"><ele>241.8</ele><time>2026-04-30T16:35:17.601Z</time></trkpt><trkpt lat="45.1848099" lon="7.7256199"><ele>241.6</ele><time>2026-04-30T16:35:18.628Z</time></trkpt><trkpt lat="45.1848119" lon="7.7255125"><ele>241.40000000000003</ele><time>2026-04-30T16:35:19.58Z</time></trkpt><trkpt lat="45.1848137" lon="7.7253794"><ele>241.20000000000002</ele><time>2026-04-30T16:35:20.606Z</time></trkpt><trkpt lat="45.1848138" lon="7.7252422"><ele>241.0</ele><time>2026-04-30T16:35:21.585Z</time></trkpt><trkpt lat="45.1848145" lon="7.7250895"><ele>240.99999999999997</ele><time>2026-04-30T16:35:22.571Z</time></trkpt><trkpt lat="45.1848191" lon="7.724956"><ele>241.0</ele><time>2026-04-30T16:35:23.602Z</time></trkpt><trkpt lat="45.184825" lon="7.7248528"><ele>241.0</ele><time>2026-04-30T16:35:24.631Z</time></trkpt><trkpt lat="45.1848261" lon="7.7247632"><ele>241.0</ele><time>2026-04-30T16:35:25.67Z</time></trkpt><trkpt lat="45.1848242" lon="7.7246374"><ele>240.99999999999997</ele><time>2026-04-30T16:35:28.608Z</time></trkpt><trkpt lat="45.1848044" lon="7.7245315"><ele>241.0</ele><time>2026-04-30T16:35:30.598Z</time></trkpt><trkpt lat="45.1847804" lon="7.7243687"><ele>240.99999999999997</ele><time>2026-04-30T16:35:32.598Z</time></trkpt><trkpt lat="45.1847871" lon="7.7241964"><ele>241.0</ele><time>2026-04-30T16:35:34.566Z</time></trkpt><trkpt lat="45.1847879" lon="7.7240985"><ele>241.0</ele><time>2026-04-30T16:35:35.527Z</time></trkpt><trkpt lat="45.1847895" lon="7.7239938"><ele>241.0</ele><time>2026-04-30T16:35:36.537Z</time></trkpt><trkpt lat="45.1848043" lon="7.7238896"><ele>240.99999999999997</ele><time>2026-04-30T16:35:37.587Z</time></trkpt><trkpt lat="45.1848243" lon="7.7237854"><ele>241.0</ele><time>2026-04-30T16:35:38.551Z</time></trkpt><trkpt lat="45.1848378" lon="7.7236701"><ele>241.49999999999997</ele><time>2026-04-30T16:35:39.557Z</time></trkpt><trkpt lat="45.1848431" lon="7.7235419"><ele>242.0</ele><time>2026-04-30T16:35:40.605Z</time></trkpt><trkpt lat="45.1848435" lon="7.7234222"><ele>242.5</ele><time>2026-04-30T16:35:41.577Z</time></trkpt><trkpt lat="45.184844" lon="7.7232885"><ele>243.0</ele><time>2026-04-30T16:35:42.582Z</time></trkpt><trkpt lat="45.1848455" lon="7.7231623"><ele>243.49999999999997</ele><time>2026-04-30T16:35:43.559Z</time></trkpt><trkpt lat="45.1848479" lon="7.7230343"><ele>244.0</ele><time>2026-04-30T16:35:44.606Z</time></trkpt><trkpt lat="45.1848509" lon="7.7229192"><ele>243.99999999999997</ele><time>2026-04-30T16:35:45.552Z</time></trkpt><trkpt lat="45.1848534" lon="7.7227955"><ele>244.0</ele><time>2026-04-30T16:35:46.565Z</time></trkpt><trkpt lat="45.1848561" lon="7.7226837"><ele>244.0</ele><time>2026-04-30T16:35:47.542Z</time></trkpt><trkpt lat="45.1848586" lon="7.7225816"><ele>244.0</ele><time>2026-04-30T16:35:48.474Z</time></trkpt><trkpt lat="45.1848618" lon="7.7224652"><ele>243.99999999999997</ele><time>2026-04-30T16:35:49.51Z</time></trkpt><trkpt lat="45.1848646" lon="7.7223488"><ele>244.0</ele><time>2026-04-30T16:35:50.511Z</time></trkpt><trkpt lat="45.1848676" lon="7.7222197"><ele>243.6</ele><time>2026-04-30T16:35:51.6Z</time></trkpt><trkpt lat="45.1848692" lon="7.7220999"><ele>243.2</ele><time>2026-04-30T16:35:52.552Z</time></trkpt><trkpt lat="45.18487" lon="7.7219563"><ele>242.79999999999998</ele><time>2026-04-30T16:35:53.602Z</time></trkpt><trkpt lat="45.1848719" lon="7.721818"><ele>242.39999999999998</ele><time>2026-04-30T16:35:54.587Z</time></trkpt><trkpt lat="45.1848731" lon="7.7216808"><ele>242.0</ele><time>2026-04-30T16:35:55.585Z</time></trkpt><trkpt lat="45.1848747" lon="7.721543"><ele>242.00000000000003</ele><time>2026-04-30T16:35:56.626Z</time></trkpt><trkpt lat="45.1848766" lon="7.7214208"><ele>242.0</ele><time>2026-04-30T16:35:57.59Z</time></trkpt><trkpt lat="45.1848792" lon="7.7213041"><ele>242.0</ele><time>2026-04-30T16:35:58.512Z</time></trkpt><trkpt lat="45.1848838" lon="7.7211672"><ele>242.0</ele><time>2026-04-30T16:35:59.602Z</time></trkpt><trkpt lat="45.184889" lon="7.7210618"><ele>242.00000000000003</ele><time>2026-04-30T16:36:00.572Z</time></trkpt><trkpt lat="45.1848897" lon="7.7209206"><ele>242.0</ele><time>2026-04-30T16:36:02.571Z</time></trkpt><trkpt lat="45.1848925" lon="7.7208244"><ele>242.8</ele><time>2026-04-30T16:36:04.539Z</time></trkpt><trkpt lat="45.184899" lon="7.7207191"><ele>243.6</ele><time>2026-04-30T16:36:06.659Z</time></trkpt><trkpt lat="45.1849079" lon="7.7206173"><ele>244.40000000000003</ele><time>2026-04-30T16:36:08.67Z</time></trkpt><trkpt lat="45.1849221" lon="7.720496"><ele>245.20000000000002</ele><time>2026-04-30T16:36:10.531Z</time></trkpt><trkpt lat="45.1849803" lon="7.7203566"><ele>246.0</ele><time>2026-04-30T16:36:12.564Z</time></trkpt><trkpt lat="45.1850371" lon="7.7202125"><ele>246.0</ele><time>2026-04-30T16:36:14.558Z</time></trkpt><trkpt lat="45.1850133" lon="7.7200599"><ele>246.00000000000003</ele><time>2026-04-30T16:36:16.54Z</time></trkpt><trkpt lat="45.1849667" lon="7.7199983"><ele>246.00000000000003</ele><time>2026-04-30T16:36:17.554Z</time></trkpt><trkpt lat="45.1849006" lon="7.719965"><ele>246.0</ele><time>2026-04-30T16:36:18.63Z</time></trkpt><trkpt lat="45.1847699" lon="7.7200241"><ele>246.0</ele><time>2026-04-30T16:36:20.589Z</time></trkpt><trkpt lat="45.1846931" lon="7.7200736"><ele>246.0</ele><time>2026-04-30T16:36:21.571Z</time></trkpt><trkpt lat="45.1846059" lon="7.7201014"><ele>246.00000000000003</ele><time>2026-04-30T16:36:22.539Z</time></trkpt><trkpt lat="45.1845069" lon="7.7200954"><ele>246.00000000000003</ele><time>2026-04-30T16:36:23.534Z</time></trkpt><trkpt lat="45.1843996" lon="7.7200834"><ele>246.0</ele><time>2026-04-30T16:36:24.566Z</time></trkpt><trkpt lat="45.1842866" lon="7.7200719"><ele>246.0</ele><time>2026-04-30T16:36:25.555Z</time></trkpt><trkpt lat="45.1841663" lon="7.7200607"><ele>246.0</ele><time>2026-04-30T16:36:26.561Z</time></trkpt><trkpt lat="45.1840416" lon="7.7200405"><ele>246.0</ele><time>2026-04-30T16:36:27.578Z</time></trkpt><trkpt lat="45.1839137" lon="7.7200158"><ele>246.0</ele><time>2026-04-30T16:36:28.578Z</time></trkpt><trkpt lat="45.1837706" lon="7.719972"><ele>246.0</ele><time>2026-04-30T16:36:29.685Z</time></trkpt><trkpt lat="45.1835264" lon="7.7198813"><ele>246.0</ele><time>2026-04-30T16:36:31.59Z</time></trkpt><trkpt lat="45.1834014" lon="7.7198289"><ele>246.0</ele><time>2026-04-30T16:36:32.683Z</time></trkpt><trkpt lat="45.1832998" lon="7.7197803"><ele>246.0</ele><time>2026-04-30T16:36:33.628Z</time></trkpt><trkpt lat="45.1831967" lon="7.7197262"><ele>246.0</ele><time>2026-04-30T16:36:34.568Z</time></trkpt><trkpt lat="45.1830692" lon="7.7196579"><ele>246.0</ele><time>2026-04-30T16:36:35.65Z</time></trkpt><trkpt lat="45.1829436" lon="7.7195875"><ele>246.0</ele><time>2026-04-30T16:36:36.599Z</time></trkpt><trkpt lat="45.1828074" lon="7.71951"><ele>246.0</ele><time>2026-04-30T16:36:37.604Z</time></trkpt><trkpt lat="45.1826476" lon="7.7194148"><ele>246.25</ele><time>2026-04-30T16:36:38.819Z</time></trkpt><trkpt lat="45.1825274" lon="7.7193412"><ele>246.5</ele><time>2026-04-30T16:36:39.819Z</time></trkpt><trkpt lat="45.1823315" lon="7.7192316"><ele>246.75</ele><time>2026-04-30T16:36:41.634Z</time></trkpt><trkpt lat="45.1822356" lon="7.7191764"><ele>247.0</ele><time>2026-04-30T16:36:42.56Z</time></trkpt><trkpt lat="45.1821201" lon="7.7191053"><ele>246.33333333333331</ele><time>2026-04-30T16:36:43.692Z</time></trkpt><trkpt lat="45.1819178" lon="7.7189865"><ele>245.66666666666669</ele><time>2026-04-30T16:36:45.583Z</time></trkpt><trkpt lat="45.1817924" lon="7.7189163"><ele>245.0</ele><time>2026-04-30T16:36:46.736Z</time></trkpt><trkpt lat="45.1815917" lon="7.7188021"><ele>245.0</ele><time>2026-04-30T16:36:48.631Z</time></trkpt><trkpt lat="45.1815046" lon="7.7187525"><ele>245.0</ele><time>2026-04-30T16:36:49.569Z</time></trkpt><trkpt lat="45.1814284" lon="7.7187085"><ele>245.0</ele><time>2026-04-30T16:36:50.556Z</time></trkpt><trkpt lat="45.1813343" lon="7.7186448"><ele>245.0</ele><time>2026-04-30T16:36:52.586Z</time></trkpt><trkpt lat="45.1812453" lon="7.7185501"><ele>245.0</ele><time>2026-04-30T16:36:54.66Z</time></trkpt><trkpt lat="45.1811876" lon="7.7184865"><ele>245.0</ele><time>2026-04-30T16:36:55.574Z</time></trkpt><trkpt lat="45.1811146" lon="7.7184252"><ele>245.0</ele><time>2026-04-30T16:36:56.512Z</time></trkpt><trkpt lat="45.1810294" lon="7.7183558"><ele>245.0</ele><time>2026-04-30T16:36:57.651Z</time></trkpt><trkpt lat="45.1809472" lon="7.7182765"><ele>245.0</ele><time>2026-04-30T16:36:58.766Z</time></trkpt><trkpt lat="45.1808207" lon="7.7181179"><ele>245.0</ele><time>2026-04-30T16:37:00.625Z</time></trkpt><trkpt lat="45.1807602" lon="7.7180409"><ele>245.0</ele><time>2026-04-30T16:37:01.615Z</time></trkpt><trkpt lat="45.1807008" lon="7.7179648"><ele>245.0</ele><time>2026-04-30T16:37:02.536Z</time></trkpt><trkpt lat="45.1806161" lon="7.7178618"><ele>245.0</ele><time>2026-04-30T16:37:03.628Z</time></trkpt><trkpt lat="45.1805387" lon="7.7177638"><ele>245.0</ele><time>2026-04-30T16:37:04.621Z</time></trkpt><trkpt lat="45.1804612" lon="7.7176451"><ele>244.5</ele><time>2026-04-30T16:37:05.727Z</time></trkpt><trkpt lat="45.1803454" lon="7.7174274"><ele>244.0</ele><time>2026-04-30T16:37:07.598Z</time></trkpt><trkpt lat="45.1802917" lon="7.7173068"><ele>243.5</ele><time>2026-04-30T16:37:08.588Z</time></trkpt><trkpt lat="45.1802411" lon="7.7171759"><ele>243.0</ele><time>2026-04-30T16:37:09.597Z</time></trkpt><trkpt lat="45.180193" lon="7.7170415"><ele>243.0</ele><time>2026-04-30T16:37:10.642Z</time></trkpt><trkpt lat="45.1801485" lon="7.7169085"><ele>243.0</ele><time>2026-04-30T16:37:11.677Z</time></trkpt><trkpt lat="45.1800554" lon="7.7166307"><ele>243.0</ele><time>2026-04-30T16:37:13.618Z</time></trkpt><trkpt lat="45.1800182" lon="7.7164829"><ele>243.0</ele><time>2026-04-30T16:37:14.569Z</time></trkpt><trkpt lat="45.1799844" lon="7.7163316"><ele>243.33333333333334</ele><time>2026-04-30T16:37:15.616Z</time></trkpt><trkpt lat="45.1799544" lon="7.7162024"><ele>243.66666666666669</ele><time>2026-04-30T16:37:16.598Z</time></trkpt><trkpt lat="45.1799276" lon="7.7160883"><ele>244.0</ele><time>2026-04-30T16:37:17.582Z</time></trkpt><trkpt lat="45.1799015" lon="7.7159783"><ele>244.33333333333334</ele><time>2026-04-30T16:37:18.641Z</time></trkpt><trkpt lat="45.1798863" lon="7.7158815"><ele>244.66666666666669</ele><time>2026-04-30T16:37:19.652Z</time></trkpt><trkpt lat="45.1798649" lon="7.7157293"><ele>245.0</ele><time>2026-04-30T16:37:21.566Z</time></trkpt><trkpt lat="45.1798539" lon="7.7156215"><ele>245.2</ele><time>2026-04-30T16:37:26.574Z</time></trkpt><trkpt lat="45.179851" lon="7.7154831"><ele>245.4</ele><time>2026-04-30T16:37:28.709Z</time></trkpt><trkpt lat="45.1798662" lon="7.715324"><ele>245.60000000000002</ele><time>2026-04-30T16:37:30.687Z</time></trkpt><trkpt lat="45.1798549" lon="7.7151502"><ele>245.8</ele><time>2026-04-30T16:37:32.619Z</time></trkpt><trkpt lat="45.1798483" lon="7.715052"><ele>246.0</ele><time>2026-04-30T16:37:33.584Z</time></trkpt><trkpt lat="45.1798509" lon="7.7149605"><ele>246.0</ele><time>2026-04-30T16:37:34.546Z</time></trkpt><trkpt lat="45.1798612" lon="7.7148625"><ele>246.0</ele><time>2026-04-30T16:37:35.516Z</time></trkpt><trkpt lat="45.1798836" lon="7.7147379"><ele>246.0</ele><time>2026-04-30T16:37:36.644Z</time></trkpt><trkpt lat="45.1799366" lon="7.7144391"><ele>246.0</ele><time>2026-04-30T16:37:38.627Z</time></trkpt><trkpt lat="45.1799666" lon="7.7142883"><ele>246.20000000000002</ele><time>2026-04-30T16:37:39.57Z</time></trkpt><trkpt lat="45.1799956" lon="7.7141364"><ele>246.40000000000003</ele><time>2026-04-30T16:37:40.59Z</time></trkpt><trkpt lat="45.1800268" lon="7.714005"><ele>246.6</ele><time>2026-04-30T16:37:41.626Z</time></trkpt><trkpt lat="45.1800511" lon="7.7138982"><ele>246.8</ele><time>2026-04-30T16:37:42.575Z</time></trkpt><trkpt lat="45.1800739" lon="7.7137934"><ele>247.0</ele><time>2026-04-30T16:37:43.539Z</time></trkpt><trkpt lat="45.180102" lon="7.7136606"><ele>247.25</ele><time>2026-04-30T16:37:44.61Z</time></trkpt><trkpt lat="45.1801285" lon="7.7135159"><ele>247.5</ele><time>2026-04-30T16:37:45.556Z</time></trkpt><trkpt lat="45.1801629" lon="7.7133401"><ele>247.75</ele><time>2026-04-30T16:37:46.566Z</time></trkpt><trkpt lat="45.1802045" lon="7.7131608"><ele>248.0</ele><time>2026-04-30T16:37:47.615Z</time></trkpt><trkpt lat="45.1802425" lon="7.713005"><ele>248.0</ele><time>2026-04-30T16:37:48.61Z</time></trkpt><trkpt lat="45.1802734" lon="7.7128647"><ele>248.0</ele><time>2026-04-30T16:37:49.568Z</time></trkpt><trkpt lat="45.1803038" lon="7.7127299"><ele>248.0</ele><time>2026-04-30T16:37:50.563Z</time></trkpt><trkpt lat="45.1803324" lon="7.7125881"><ele>248.0</ele><time>2026-04-30T16:37:51.673Z</time></trkpt><trkpt lat="45.1803566" lon="7.7124762"><ele>248.0</ele><time>2026-04-30T16:37:52.634Z</time></trkpt><trkpt lat="45.1803809" lon="7.7123665"><ele>247.8</ele><time>2026-04-30T16:37:53.646Z</time></trkpt><trkpt lat="45.1804056" lon="7.7122608"><ele>247.60000000000002</ele><time>2026-04-30T16:37:54.612Z</time></trkpt><trkpt lat="45.1804323" lon="7.7121414"><ele>247.39999999999998</ele><time>2026-04-30T16:37:55.582Z</time></trkpt><trkpt lat="45.1804626" lon="7.711989"><ele>247.2</ele><time>2026-04-30T16:37:56.64Z</time></trkpt><trkpt lat="45.1804917" lon="7.7118386"><ele>247.0</ele><time>2026-04-30T16:37:57.571Z</time></trkpt><trkpt lat="45.1805358" lon="7.7116589"><ele>247.5</ele><time>2026-04-30T16:37:58.578Z</time></trkpt><trkpt lat="45.180585" lon="7.7114754"><ele>248.0</ele><time>2026-04-30T16:37:59.555Z</time></trkpt><trkpt lat="45.1806396" lon="7.7112779"><ele>248.5</ele><time>2026-04-30T16:38:00.593Z</time></trkpt><trkpt lat="45.1806917" lon="7.7110914"><ele>249.0</ele><time>2026-04-30T16:38:01.545Z</time></trkpt><trkpt lat="45.1807497" lon="7.7108858"><ele>249.25</ele><time>2026-04-30T16:38:02.603Z</time></trkpt><trkpt lat="45.1808028" lon="7.7107114"><ele>249.5</ele><time>2026-04-30T16:38:03.609Z</time></trkpt><trkpt lat="45.1808499" lon="7.7105617"><ele>249.75</ele><time>2026-04-30T16:38:04.561Z</time></trkpt><trkpt lat="45.1808968" lon="7.7104132"><ele>250.0</ele><time>2026-04-30T16:38:05.516Z</time></trkpt><trkpt lat="45.180947" lon="7.7102651"><ele>250.2</ele><time>2026-04-30T16:38:06.534Z</time></trkpt><trkpt lat="45.1809979" lon="7.7101172"><ele>250.4</ele><time>2026-04-30T16:38:07.613Z</time></trkpt><trkpt lat="45.1810442" lon="7.7099797"><ele>250.60000000000002</ele><time>2026-04-30T16:38:08.648Z</time></trkpt><trkpt lat="45.1810838" lon="7.7098617"><ele>250.8</ele><time>2026-04-30T16:38:09.615Z</time></trkpt><trkpt lat="45.1811134" lon="7.7097687"><ele>251.0</ele><time>2026-04-30T16:38:10.563Z</time></trkpt><trkpt lat="45.1811427" lon="7.7096575"><ele>251.0</ele><time>2026-04-30T16:38:12.556Z</time></trkpt><trkpt lat="45.1811793" lon="7.7095198"><ele>251.00000000000003</ele><time>2026-04-30T16:38:21.534Z</time></trkpt><trkpt lat="45.1812536" lon="7.7093676"><ele>251.00000000000003</ele><time>2026-04-30T16:38:23.566Z</time></trkpt><trkpt lat="45.1812875" lon="7.7092774"><ele>251.0</ele><time>2026-04-30T16:38:24.477Z</time></trkpt><trkpt lat="45.1813116" lon="7.7091546"><ele>251.0</ele><time>2026-04-30T16:38:25.562Z</time></trkpt><trkpt lat="45.1813442" lon="7.709039"><ele>250.8</ele><time>2026-04-30T16:38:26.543Z</time></trkpt><trkpt lat="45.1813924" lon="7.7089122"><ele>250.60000000000002</ele><time>2026-04-30T16:38:27.583Z</time></trkpt><trkpt lat="45.1814379" lon="7.7087877"><ele>250.4</ele><time>2026-04-30T16:38:28.575Z</time></trkpt><trkpt lat="45.1814777" lon="7.7086711"><ele>250.2</ele><time>2026-04-30T16:38:29.577Z</time></trkpt><trkpt lat="45.1815215" lon="7.7085469"><ele>250.0</ele><time>2026-04-30T16:38:30.646Z</time></trkpt><trkpt lat="45.1815599" lon="7.7084382"><ele>250.4</ele><time>2026-04-30T16:38:31.572Z</time></trkpt><trkpt lat="45.1815985" lon="7.7083249"><ele>250.8</ele><time>2026-04-30T16:38:32.538Z</time></trkpt><trkpt lat="45.1816406" lon="7.7082019"><ele>251.2</ele><time>2026-04-30T16:38:33.564Z</time></trkpt><trkpt lat="45.1816877" lon="7.7080673"><ele>251.6</ele><time>2026-04-30T16:38:34.603Z</time></trkpt><trkpt lat="45.181732" lon="7.7079472"><ele>252.0</ele><time>2026-04-30T16:38:35.525Z</time></trkpt><trkpt lat="45.1817911" lon="7.707782"><ele>251.66666666666669</ele><time>2026-04-30T16:38:36.701Z</time></trkpt><trkpt lat="45.181888" lon="7.7075022"><ele>251.33333333333334</ele><time>2026-04-30T16:38:38.603Z</time></trkpt><trkpt lat="45.181939" lon="7.7073499"><ele>251.0</ele><time>2026-04-30T16:38:39.61Z</time></trkpt><trkpt lat="45.1819908" lon="7.7072012"><ele>251.0</ele><time>2026-04-30T16:38:40.63Z</time></trkpt><trkpt lat="45.1820422" lon="7.7070476"><ele>251.0</ele><time>2026-04-30T16:38:41.628Z</time></trkpt><trkpt lat="45.1820872" lon="7.70691"><ele>251.0</ele><time>2026-04-30T16:38:42.531Z</time></trkpt><trkpt lat="45.1821471" lon="7.706739"><ele>251.0</ele><time>2026-04-30T16:38:43.676Z</time></trkpt><trkpt lat="45.1821973" lon="7.7065881"><ele>251.0</ele><time>2026-04-30T16:38:44.59Z</time></trkpt><trkpt lat="45.1822516" lon="7.7064108"><ele>251.0</ele><time>2026-04-30T16:38:45.663Z</time></trkpt><trkpt lat="45.1823339" lon="7.7061053"><ele>251.0</ele><time>2026-04-30T16:38:47.574Z</time></trkpt><trkpt lat="45.182362" lon="7.7059893"><ele>251.0</ele><time>2026-04-30T16:38:48.554Z</time></trkpt><trkpt lat="45.1823762" lon="7.7059011"><ele>251.00000000000003</ele><time>2026-04-30T16:38:49.567Z</time></trkpt><trkpt lat="45.1823867" lon="7.7058064"><ele>251.00000000000003</ele><time>2026-04-30T16:38:50.591Z</time></trkpt><trkpt lat="45.1824054" lon="7.7056889"><ele>251.0</ele><time>2026-04-30T16:38:51.571Z</time></trkpt><trkpt lat="45.1824334" lon="7.7055304"><ele>251.0</ele><time>2026-04-30T16:38:52.647Z</time></trkpt><trkpt lat="45.1824797" lon="7.705289"><ele>251.16666666666669</ele><time>2026-04-30T16:38:54.679Z</time></trkpt><trkpt lat="45.1824939" lon="7.7051974"><ele>251.33333333333334</ele><time>2026-04-30T16:38:55.584Z</time></trkpt><trkpt lat="45.1825093" lon="7.7050958"><ele>251.5</ele><time>2026-04-30T16:38:56.563Z</time></trkpt><trkpt lat="45.1825256" lon="7.7049804"><ele>251.66666666666669</ele><time>2026-04-30T16:38:57.607Z</time></trkpt><trkpt lat="45.1825367" lon="7.7048909"><ele>251.83333333333334</ele><time>2026-04-30T16:38:58.533Z</time></trkpt><trkpt lat="45.1825457" lon="7.7047934"><ele>252.0</ele><time>2026-04-30T16:38:59.616Z</time></trkpt><trkpt lat="45.1825704" lon="7.704636"><ele>252.0</ele><time>2026-04-30T16:39:01.55Z</time></trkpt><trkpt lat="45.1825956" lon="7.7045361"><ele>252.0</ele><time>2026-04-30T16:39:02.629Z</time></trkpt><trkpt lat="45.1826211" lon="7.7044452"><ele>252.0</ele><time>2026-04-30T16:39:03.586Z</time></trkpt><trkpt lat="45.1826345" lon="7.7043485"><ele>252.0</ele><time>2026-04-30T16:39:04.608Z</time></trkpt><trkpt lat="45.1825922" lon="7.7041846"><ele>252.0</ele><time>2026-04-30T16:39:06.526Z</time></trkpt><trkpt lat="45.1825184" lon="7.7040419"><ele>251.83333333333334</ele><time>2026-04-30T16:39:08.543Z</time></trkpt><trkpt lat="45.1824954" lon="7.7039472"><ele>251.66666666666669</ele><time>2026-04-30T16:39:09.577Z</time></trkpt><trkpt lat="45.1824899" lon="7.7038364"><ele>251.5</ele><time>2026-04-30T16:39:10.572Z</time></trkpt><trkpt lat="45.1824916" lon="7.7037088"><ele>251.33333333333334</ele><time>2026-04-30T16:39:11.581Z</time></trkpt><trkpt lat="45.1824941" lon="7.7035804"><ele>251.16666666666669</ele><time>2026-04-30T16:39:12.539Z</time></trkpt><trkpt lat="45.1824974" lon="7.7034377"><ele>251.0</ele><time>2026-04-30T16:39:13.544Z</time></trkpt><trkpt lat="45.1825036" lon="7.7032528"><ele>252.0</ele><time>2026-04-30T16:39:14.594Z</time></trkpt><trkpt lat="45.1825048" lon="7.7030507"><ele>253.0</ele><time>2026-04-30T16:39:15.584Z</time></trkpt><trkpt lat="45.1824968" lon="7.7028261"><ele>254.0</ele><time>2026-04-30T16:39:16.578Z</time></trkpt><trkpt lat="45.1824866" lon="7.7025746"><ele>254.33333333333334</ele><time>2026-04-30T16:39:17.614Z</time></trkpt><trkpt lat="45.182474" lon="7.7023335"><ele>254.66666666666669</ele><time>2026-04-30T16:39:18.577Z</time></trkpt><trkpt lat="45.1824613" lon="7.7020519"><ele>255.0</ele><time>2026-04-30T16:39:19.669Z</time></trkpt><trkpt lat="45.1824504" lon="7.7018007"><ele>255.5</ele><time>2026-04-30T16:39:20.624Z</time></trkpt><trkpt lat="45.1824388" lon="7.7015003"><ele>256.0</ele><time>2026-04-30T16:39:21.757Z</time></trkpt><trkpt lat="45.1824232" lon="7.7010094"><ele>256.0</ele><time>2026-04-30T16:39:23.652Z</time></trkpt><trkpt lat="45.1824168" lon="7.7007913"><ele>256.0</ele><time>2026-04-30T16:39:24.574Z</time></trkpt><trkpt lat="45.18241" lon="7.7005637"><ele>256.0</ele><time>2026-04-30T16:39:25.55Z</time></trkpt><trkpt lat="45.1824026" lon="7.7003017"><ele>255.33333333333331</ele><time>2026-04-30T16:39:26.632Z</time></trkpt><trkpt lat="45.1823939" lon="7.7000508"><ele>254.66666666666669</ele><time>2026-04-30T16:39:27.631Z</time></trkpt><trkpt lat="45.1823842" lon="7.6997896"><ele>254.0</ele><time>2026-04-30T16:39:28.606Z</time></trkpt><trkpt lat="45.1823745" lon="7.6995118"><ele>253.66666666666669</ele><time>2026-04-30T16:39:29.648Z</time></trkpt><trkpt lat="45.1823682" lon="7.6992703"><ele>253.33333333333331</ele><time>2026-04-30T16:39:30.579Z</time></trkpt><trkpt lat="45.182365" lon="7.6990315"><ele>253.0</ele><time>2026-04-30T16:39:31.537Z</time></trkpt><trkpt lat="45.1823639" lon="7.6987962"><ele>253.25</ele><time>2026-04-30T16:39:32.527Z</time></trkpt><trkpt lat="45.1823667" lon="7.6985787"><ele>253.5</ele><time>2026-04-30T16:39:33.533Z</time></trkpt><trkpt lat="45.1823701" lon="7.6983769"><ele>253.75</ele><time>2026-04-30T16:39:34.555Z</time></trkpt><trkpt lat="45.1823753" lon="7.6981913"><ele>254.0</ele><time>2026-04-30T16:39:35.583Z</time></trkpt><trkpt lat="45.1823828" lon="7.6980207"><ele>254.00000000000003</ele><time>2026-04-30T16:39:36.614Z</time></trkpt><trkpt lat="45.1823892" lon="7.697867"><ele>254.0</ele><time>2026-04-30T16:39:37.56Z</time></trkpt><trkpt lat="45.182395" lon="7.6977149"><ele>254.0</ele><time>2026-04-30T16:39:38.602Z</time></trkpt><trkpt lat="45.1823995" lon="7.6975942"><ele>254.0</ele><time>2026-04-30T16:39:39.601Z</time></trkpt><trkpt lat="45.1824044" lon="7.6974905"><ele>254.00000000000003</ele><time>2026-04-30T16:39:40.56Z</time></trkpt><trkpt lat="45.1824141" lon="7.6973899"><ele>254.0</ele><time>2026-04-30T16:39:41.645Z</time></trkpt><trkpt lat="45.1824653" lon="7.6972182"><ele>254.00000000000003</ele><time>2026-04-30T16:39:43.531Z</time></trkpt><trkpt lat="45.1825103" lon="7.6971235"><ele>254.0</ele><time>2026-04-30T16:39:44.573Z</time></trkpt><trkpt lat="45.1825435" lon="7.6970312"><ele>254.0</ele><time>2026-04-30T16:39:45.561Z</time></trkpt><trkpt lat="45.1825496" lon="7.6969361"><ele>254.0</ele><time>2026-04-30T16:39:46.562Z</time></trkpt><trkpt lat="45.1825314" lon="7.6968444"><ele>254.00000000000003</ele><time>2026-04-30T16:39:47.66Z</time></trkpt><trkpt lat="45.1824938" lon="7.6967173"><ele>254.0</ele><time>2026-04-30T16:39:49.606Z</time></trkpt><trkpt lat="45.1824745" lon="7.696626"><ele>253.79999999999998</ele><time>2026-04-30T16:39:51.657Z</time></trkpt><trkpt lat="45.1824668" lon="7.6965297"><ele>253.59999999999997</ele><time>2026-04-30T16:39:53.658Z</time></trkpt><trkpt lat="45.1824719" lon="7.6963904"><ele>253.4</ele><time>2026-04-30T16:39:55.568Z</time></trkpt><trkpt lat="45.18248" lon="7.6962969"><ele>253.2</ele><time>2026-04-30T16:39:56.677Z</time></trkpt><trkpt lat="45.1824943" lon="7.6961048"><ele>253.0</ele><time>2026-04-30T16:39:58.591Z</time></trkpt><trkpt lat="45.1825028" lon="7.6959749"><ele>253.5</ele><time>2026-04-30T16:39:59.611Z</time></trkpt><trkpt lat="45.1825123" lon="7.6958095"><ele>254.0</ele><time>2026-04-30T16:40:00.617Z</time></trkpt><trkpt lat="45.1825212" lon="7.695618"><ele>254.5</ele><time>2026-04-30T16:40:01.599Z</time></trkpt><trkpt lat="45.1825316" lon="7.6954009"><ele>255.0</ele><time>2026-04-30T16:40:02.571Z</time></trkpt><trkpt lat="45.1825357" lon="7.695156"><ele>255.0</ele><time>2026-04-30T16:40:03.62Z</time></trkpt><trkpt lat="45.1825307" lon="7.6949254"><ele>255.0</ele><time>2026-04-30T16:40:04.612Z</time></trkpt><trkpt lat="45.1825206" lon="7.694698"><ele>255.0</ele><time>2026-04-30T16:40:05.579Z</time></trkpt><trkpt lat="45.1825048" lon="7.6944424"><ele>255.66666666666669</ele><time>2026-04-30T16:40:06.635Z</time></trkpt><trkpt lat="45.1824886" lon="7.6942043"><ele>256.33333333333337</ele><time>2026-04-30T16:40:07.617Z</time></trkpt><trkpt lat="45.1824712" lon="7.6939628"><ele>257.0</ele><time>2026-04-30T16:40:08.634Z</time></trkpt><trkpt lat="45.1824583" lon="7.6937373"><ele>257.25</ele><time>2026-04-30T16:40:09.624Z</time></trkpt><trkpt lat="45.1824416" lon="7.6935153"><ele>257.5</ele><time>2026-04-30T16:40:10.618Z</time></trkpt><trkpt lat="45.182428" lon="7.6933053"><ele>257.75</ele><time>2026-04-30T16:40:11.661Z</time></trkpt><trkpt lat="45.1824155" lon="7.693134"><ele>258.0</ele><time>2026-04-30T16:40:12.577Z</time></trkpt><trkpt lat="45.1824033" lon="7.6929617"><ele>258.0</ele><time>2026-04-30T16:40:13.589Z</time></trkpt><trkpt lat="45.1823927" lon="7.6927908"><ele>258.0</ele><time>2026-04-30T16:40:14.629Z</time></trkpt><trkpt lat="45.1823839" lon="7.6926469"><ele>258.0</ele><time>2026-04-30T16:40:15.579Z</time></trkpt><trkpt lat="45.1823755" lon="7.69251"><ele>258.0</ele><time>2026-04-30T16:40:16.585Z</time></trkpt><trkpt lat="45.1823673" lon="7.6923664"><ele>258.0</ele><time>2026-04-30T16:40:17.623Z</time></trkpt><trkpt lat="45.1823582" lon="7.6922169"><ele>258.0</ele><time>2026-04-30T16:40:18.64Z</time></trkpt><trkpt lat="45.1823495" lon="7.6920691"><ele>258.0</ele><time>2026-04-30T16:40:19.634Z</time></trkpt><trkpt lat="45.1823435" lon="7.6919321"><ele>258.0</ele><time>2026-04-30T16:40:20.59Z</time></trkpt><trkpt lat="45.1823377" lon="7.6917793"><ele>258.0</ele><time>2026-04-30T16:40:21.682Z</time></trkpt><trkpt lat="45.1823312" lon="7.6916451"><ele>258.0</ele><time>2026-04-30T16:40:22.614Z</time></trkpt><trkpt lat="45.1823233" lon="7.6914873"><ele>258.0</ele><time>2026-04-30T16:40:23.708Z</time></trkpt><trkpt lat="45.1823177" lon="7.6913508"><ele>258.0</ele><time>2026-04-30T16:40:24.617Z</time></trkpt><trkpt lat="45.1823134" lon="7.6912008"><ele>258.0</ele><time>2026-04-30T16:40:25.595Z</time></trkpt><trkpt lat="45.1823078" lon="7.6910321"><ele>258.0</ele><time>2026-04-30T16:40:26.649Z</time></trkpt><trkpt lat="45.182302" lon="7.6908666"><ele>258.0</ele><time>2026-04-30T16:40:27.631Z</time></trkpt><trkpt lat="45.1822952" lon="7.6906883"><ele>258.25</ele><time>2026-04-30T16:40:28.644Z</time></trkpt><trkpt lat="45.1822884" lon="7.6905199"><ele>258.5</ele><time>2026-04-30T16:40:29.589Z</time></trkpt><trkpt lat="45.1822806" lon="7.69033"><ele>258.75</ele><time>2026-04-30T16:40:30.632Z</time></trkpt><trkpt lat="45.182273" lon="7.6901507"><ele>259.0</ele><time>2026-04-30T16:40:31.617Z</time></trkpt><trkpt lat="45.1822663" lon="7.6899737"><ele>259.0</ele><time>2026-04-30T16:40:32.604Z</time></trkpt><trkpt lat="45.1822582" lon="7.6897998"><ele>259.0</ele><time>2026-04-30T16:40:33.586Z</time></trkpt><trkpt lat="45.182248" lon="7.6896132"><ele>259.0</ele><time>2026-04-30T16:40:34.608Z</time></trkpt><trkpt lat="45.1822396" lon="7.6894536"><ele>259.0</ele><time>2026-04-30T16:40:35.515Z</time></trkpt><trkpt lat="45.1822321" lon="7.6892828"><ele>259.16666666666663</ele><time>2026-04-30T16:40:36.555Z</time></trkpt><trkpt lat="45.1822235" lon="7.6891586"><ele>259.3333333333333</ele><time>2026-04-30T16:40:37.581Z</time></trkpt><trkpt lat="45.1822171" lon="7.6890149"><ele>259.5</ele><time>2026-04-30T16:40:39.588Z</time></trkpt><trkpt lat="45.1822209" lon="7.6889064"><ele>259.6666666666667</ele><time>2026-04-30T16:40:56.557Z</time></trkpt><trkpt lat="45.1822303" lon="7.6887697"><ele>259.83333333333337</ele><time>2026-04-30T16:40:58.741Z</time></trkpt><trkpt lat="45.1822261" lon="7.6886785"><ele>260.0</ele><time>2026-04-30T16:41:00.595Z</time></trkpt><trkpt lat="45.1822152" lon="7.6885356"><ele>260.0</ele><time>2026-04-30T16:41:03.61Z</time></trkpt><trkpt lat="45.182199" lon="7.6883706"><ele>260.0</ele><time>2026-04-30T16:41:05.536Z</time></trkpt><trkpt lat="45.1821918" lon="7.6882371"><ele>260.0</ele><time>2026-04-30T16:41:06.608Z</time></trkpt><trkpt lat="45.1821828" lon="7.6881047"><ele>260.0</ele><time>2026-04-30T16:41:07.591Z</time></trkpt><trkpt lat="45.182173" lon="7.6879713"><ele>260.0</ele><time>2026-04-30T16:41:08.56Z</time></trkpt><trkpt lat="45.1821615" lon="7.6878085"><ele>259.6666666666667</ele><time>2026-04-30T16:41:09.603Z</time></trkpt><trkpt lat="45.1821444" lon="7.6876068"><ele>259.3333333333333</ele><time>2026-04-30T16:41:10.681Z</time></trkpt><trkpt lat="45.1821262" lon="7.6873916"><ele>259.0</ele><time>2026-04-30T16:41:11.6Z</time></trkpt><trkpt lat="45.1821088" lon="7.6871286"><ele>259.3333333333333</ele><time>2026-04-30T16:41:12.601Z</time></trkpt><trkpt lat="45.1820953" lon="7.6868418"><ele>259.6666666666667</ele><time>2026-04-30T16:41:13.573Z</time></trkpt><trkpt lat="45.1820812" lon="7.6865177"><ele>260.0</ele><time>2026-04-30T16:41:14.551Z</time></trkpt><trkpt lat="45.1820628" lon="7.6861659"><ele>261.0</ele><time>2026-04-30T16:41:15.552Z</time></trkpt><trkpt lat="45.1820407" lon="7.6857688"><ele>262.0</ele><time>2026-04-30T16:41:16.606Z</time></trkpt><trkpt lat="45.1820181" lon="7.685376"><ele>262.5</ele><time>2026-04-30T16:41:17.62Z</time></trkpt><trkpt lat="45.1819955" lon="7.6850051"><ele>263.0</ele><time>2026-04-30T16:41:18.558Z</time></trkpt><trkpt lat="45.1819697" lon="7.6845752"><ele>262.5</ele><time>2026-04-30T16:41:19.638Z</time></trkpt><trkpt lat="45.1819443" lon="7.684139"><ele>262.0</ele><time>2026-04-30T16:41:20.752Z</time></trkpt><trkpt lat="45.1819011" lon="7.6834486"><ele>262.0</ele><time>2026-04-30T16:41:22.598Z</time></trkpt><trkpt lat="45.1818799" lon="7.6831014"><ele>262.0</ele><time>2026-04-30T16:41:23.559Z</time></trkpt><trkpt lat="45.1818583" lon="7.6827349"><ele>262.0</ele><time>2026-04-30T16:41:24.579Z</time></trkpt><trkpt lat="45.1818377" lon="7.6823729"><ele>262.0</ele><time>2026-04-30T16:41:25.593Z</time></trkpt><trkpt lat="45.1818164" lon="7.6820085"><ele>262.5</ele><time>2026-04-30T16:41:26.614Z</time></trkpt><trkpt lat="45.1817922" lon="7.6815948"><ele>263.0</ele><time>2026-04-30T16:41:27.775Z</time></trkpt><trkpt lat="45.1817741" lon="7.6812634"><ele>263.0</ele><time>2026-04-30T16:41:28.715Z</time></trkpt><trkpt lat="45.1817377" lon="7.6806059"><ele>263.0</ele><time>2026-04-30T16:41:30.615Z</time></trkpt><trkpt lat="45.1817259" lon="7.6802887"><ele>263.0</ele><time>2026-04-30T16:41:31.615Z</time></trkpt><trkpt lat="45.1817131" lon="7.6799839"><ele>263.0</ele><time>2026-04-30T16:41:32.623Z</time></trkpt><trkpt lat="45.1816951" lon="7.6796982"><ele>263.6666666666667</ele><time>2026-04-30T16:41:33.591Z</time></trkpt><trkpt lat="45.1816794" lon="7.6794177"><ele>264.3333333333333</ele><time>2026-04-30T16:41:34.575Z</time></trkpt><trkpt lat="45.1816645" lon="7.6791385"><ele>265.0</ele><time>2026-04-30T16:41:35.553Z</time></trkpt><trkpt lat="45.1816489" lon="7.6788481"><ele>265.0</ele><time>2026-04-30T16:41:36.564Z</time></trkpt><trkpt lat="45.1816329" lon="7.6785437"><ele>265.0</ele><time>2026-04-30T16:41:37.611Z</time></trkpt><trkpt lat="45.1816171" lon="7.6782569"><ele>265.0</ele><time>2026-04-30T16:41:38.581Z</time></trkpt><trkpt lat="45.181598" lon="7.6779455"><ele>265.3333333333333</ele><time>2026-04-30T16:41:39.619Z</time></trkpt><trkpt lat="45.1815788" lon="7.6776612"><ele>265.6666666666667</ele><time>2026-04-30T16:41:40.577Z</time></trkpt><trkpt lat="45.1815558" lon="7.6773292"><ele>266.0</ele><time>2026-04-30T16:41:41.717Z</time></trkpt><trkpt lat="45.1815355" lon="7.6770732"><ele>265.33333333333337</ele><time>2026-04-30T16:41:42.647Z</time></trkpt><trkpt lat="45.1815136" lon="7.6768137"><ele>264.6666666666667</ele><time>2026-04-30T16:41:43.593Z</time></trkpt><trkpt lat="45.1814816" lon="7.6765172"><ele>264.0</ele><time>2026-04-30T16:41:44.62Z</time></trkpt><trkpt lat="45.1814374" lon="7.6761533"><ele>265.0</ele><time>2026-04-30T16:41:45.774Z</time></trkpt><trkpt lat="45.1813935" lon="7.6755252"><ele>266.0</ele><time>2026-04-30T16:41:47.525Z</time></trkpt><trkpt lat="45.1813664" lon="7.6751447"><ele>266.5</ele><time>2026-04-30T16:41:48.528Z</time></trkpt><trkpt lat="45.1813288" lon="7.6746973"><ele>267.0</ele><time>2026-04-30T16:41:49.656Z</time></trkpt><trkpt lat="45.1812926" lon="7.6743282"><ele>267.0</ele><time>2026-04-30T16:41:50.582Z</time></trkpt><trkpt lat="45.1812514" lon="7.6739096"><ele>267.0</ele><time>2026-04-30T16:41:51.635Z</time></trkpt><trkpt lat="45.181216" lon="7.6735277"><ele>267.0</ele><time>2026-04-30T16:41:52.586Z</time></trkpt><trkpt lat="45.1811841" lon="7.6731293"><ele>267.0</ele><time>2026-04-30T16:41:53.567Z</time></trkpt><trkpt lat="45.1811553" lon="7.6726631"><ele>267.0</ele><time>2026-04-30T16:41:54.705Z</time></trkpt><trkpt lat="45.1811405" lon="7.6722843"><ele>267.0</ele><time>2026-04-30T16:41:55.624Z</time></trkpt><trkpt lat="45.1811337" lon="7.6719059"><ele>267.0</ele><time>2026-04-30T16:41:56.536Z</time></trkpt><trkpt lat="45.181131" lon="7.6714922"><ele>267.0</ele><time>2026-04-30T16:41:57.528Z</time></trkpt><trkpt lat="45.181129" lon="7.6710491"><ele>267.0</ele><time>2026-04-30T16:41:58.592Z</time></trkpt><trkpt lat="45.1811264" lon="7.6706035"><ele>267.0</ele><time>2026-04-30T16:41:59.685Z</time></trkpt><trkpt lat="45.1811253" lon="7.670238"><ele>267.0</ele><time>2026-04-30T16:42:00.588Z</time></trkpt><trkpt lat="45.1811258" lon="7.6698132"><ele>267.0</ele><time>2026-04-30T16:42:01.653Z</time></trkpt><trkpt lat="45.1811254" lon="7.6694213"><ele>267.5</ele><time>2026-04-30T16:42:02.645Z</time></trkpt><trkpt lat="45.1811245" lon="7.6690482"><ele>268.0</ele><time>2026-04-30T16:42:03.589Z</time></trkpt><trkpt lat="45.1811228" lon="7.6686584"><ele>268.5</ele><time>2026-04-30T16:42:04.601Z</time></trkpt><trkpt lat="45.1811215" lon="7.6682692"><ele>269.0</ele><time>2026-04-30T16:42:05.61Z</time></trkpt><trkpt lat="45.1811201" lon="7.6678979"><ele>269.5</ele><time>2026-04-30T16:42:06.598Z</time></trkpt><trkpt lat="45.1811208" lon="7.6674812"><ele>270.0</ele><time>2026-04-30T16:42:07.741Z</time></trkpt><trkpt lat="45.1811328" lon="7.6671612"><ele>269.5</ele><time>2026-04-30T16:42:08.653Z</time></trkpt><trkpt lat="45.1811653" lon="7.6668221"><ele>269.0</ele><time>2026-04-30T16:42:09.619Z</time></trkpt><trkpt lat="45.1812178" lon="7.6664855"><ele>269.0</ele><time>2026-04-30T16:42:10.632Z</time></trkpt><trkpt lat="45.1812753" lon="7.6661599"><ele>269.0</ele><time>2026-04-30T16:42:11.658Z</time></trkpt><trkpt lat="45.1813401" lon="7.6658537"><ele>268.5</ele><time>2026-04-30T16:42:12.703Z</time></trkpt><trkpt lat="45.1814383" lon="7.6653436"><ele>268.0</ele><time>2026-04-30T16:42:14.598Z</time></trkpt><trkpt lat="45.1814631" lon="7.6650886"><ele>268.66666666666663</ele><time>2026-04-30T16:42:15.565Z</time></trkpt><trkpt lat="45.1814721" lon="7.6647938"><ele>269.3333333333333</ele><time>2026-04-30T16:42:16.646Z</time></trkpt><trkpt lat="45.1814694" lon="7.6644975"><ele>270.0</ele><time>2026-04-30T16:42:17.64Z</time></trkpt><trkpt lat="45.1814693" lon="7.664186"><ele>271.0</ele><time>2026-04-30T16:42:18.604Z</time></trkpt><trkpt lat="45.1814733" lon="7.6638745"><ele>272.0</ele><time>2026-04-30T16:42:19.561Z</time></trkpt><trkpt lat="45.1814689" lon="7.663512"><ele>272.5</ele><time>2026-04-30T16:42:20.741Z</time></trkpt><trkpt lat="45.1814336" lon="7.6629733"><ele>273.0</ele><time>2026-04-30T16:42:22.606Z</time></trkpt><trkpt lat="45.181406" lon="7.6626825"><ele>273.0</ele><time>2026-04-30T16:42:23.584Z</time></trkpt><trkpt lat="45.1813749" lon="7.6623793"><ele>273.0</ele><time>2026-04-30T16:42:24.6Z</time></trkpt><trkpt lat="45.1813406" lon="7.6620525"><ele>273.0</ele><time>2026-04-30T16:42:25.665Z</time></trkpt><trkpt lat="45.1812775" lon="7.6613736"><ele>273.0</ele><time>2026-04-30T16:42:27.717Z</time></trkpt><trkpt lat="45.181245" lon="7.6610254"><ele>273.0</ele><time>2026-04-30T16:42:28.717Z</time></trkpt><trkpt lat="45.1811843" lon="7.6603208"><ele>273.0</ele><time>2026-04-30T16:42:30.656Z</time></trkpt><trkpt lat="45.1811557" lon="7.6599594"><ele>273.0</ele><time>2026-04-30T16:42:31.638Z</time></trkpt><trkpt lat="45.1811279" lon="7.6596056"><ele>273.5</ele><time>2026-04-30T16:42:32.611Z</time></trkpt><trkpt lat="45.181096" lon="7.6591948"><ele>274.0</ele><time>2026-04-30T16:42:33.769Z</time></trkpt><trkpt lat="45.1810712" lon="7.6588779"><ele>274.0</ele><time>2026-04-30T16:42:34.688Z</time></trkpt><trkpt lat="45.1810442" lon="7.6585716"><ele>274.0</ele><time>2026-04-30T16:42:35.645Z</time></trkpt><trkpt lat="45.1810138" lon="7.6582968"><ele>274.0</ele><time>2026-04-30T16:42:36.587Z</time></trkpt><trkpt lat="45.1809802" lon="7.6580366"><ele>274.0</ele><time>2026-04-30T16:42:37.555Z</time></trkpt><trkpt lat="45.1809418" lon="7.6578029"><ele>274.0</ele><time>2026-04-30T16:42:38.536Z</time></trkpt><trkpt lat="45.1808954" lon="7.6575735"><ele>274.0</ele><time>2026-04-30T16:42:39.601Z</time></trkpt><trkpt lat="45.1808591" lon="7.6573679"><ele>274.0</ele><time>2026-04-30T16:42:40.62Z</time></trkpt><trkpt lat="45.1808374" lon="7.6571909"><ele>274.0</ele><time>2026-04-30T16:42:41.592Z</time></trkpt><trkpt lat="45.1808284" lon="7.6570208"><ele>274.0</ele><time>2026-04-30T16:42:42.585Z</time></trkpt><trkpt lat="45.1808425" lon="7.6568645"><ele>274.0</ele><time>2026-04-30T16:42:43.563Z</time></trkpt><trkpt lat="45.1808544" lon="7.6567116"><ele>274.0</ele><time>2026-04-30T16:42:44.585Z</time></trkpt><trkpt lat="45.1808389" lon="7.6565686"><ele>274.0</ele><time>2026-04-30T16:42:45.609Z</time></trkpt><trkpt lat="45.1807936" lon="7.6564306"><ele>274.0</ele><time>2026-04-30T16:42:46.627Z</time></trkpt><trkpt lat="45.1806786" lon="7.6561381"><ele>274.0</ele><time>2026-04-30T16:42:48.565Z</time></trkpt><trkpt lat="45.1806128" lon="7.6559263"><ele>274.0</ele><time>2026-04-30T16:42:49.598Z</time></trkpt><trkpt lat="45.1805663" lon="7.6557226"><ele>274.0</ele><time>2026-04-30T16:42:50.579Z</time></trkpt><trkpt lat="45.1805309" lon="7.6555332"><ele>274.0</ele><time>2026-04-30T16:42:51.554Z</time></trkpt><trkpt lat="45.1804887" lon="7.6553491"><ele>274.0</ele><time>2026-04-30T16:42:52.578Z</time></trkpt><trkpt lat="45.1804655" lon="7.6551915"><ele>274.0</ele><time>2026-04-30T16:42:53.536Z</time></trkpt><trkpt lat="45.1804599" lon="7.6550276"><ele>274.0</ele><time>2026-04-30T16:42:54.608Z</time></trkpt><trkpt lat="45.1804829" lon="7.6548778"><ele>274.0</ele><time>2026-04-30T16:42:55.75Z</time></trkpt><trkpt lat="45.1804674" lon="7.6546571"><ele>274.0</ele><time>2026-04-30T16:42:57.506Z</time></trkpt><trkpt lat="45.1804319" lon="7.6545604"><ele>274.0</ele><time>2026-04-30T16:42:58.548Z</time></trkpt><trkpt lat="45.1803963" lon="7.654464"><ele>274.0</ele><time>2026-04-30T16:42:59.507Z</time></trkpt><trkpt lat="45.1802771" lon="7.6543168"><ele>274.0</ele><time>2026-04-30T16:43:00.557Z</time></trkpt><trkpt lat="45.180188" lon="7.6541597"><ele>274.0</ele><time>2026-04-30T16:43:01.609Z</time></trkpt><trkpt lat="45.1801111" lon="7.6540121"><ele>274.0</ele><time>2026-04-30T16:43:02.56Z</time></trkpt><trkpt lat="45.1800316" lon="7.6538511"><ele>274.0</ele><time>2026-04-30T16:43:03.526Z</time></trkpt><trkpt lat="45.1799335" lon="7.6536356"><ele>274.0</ele><time>2026-04-30T16:43:04.67Z</time></trkpt><trkpt lat="45.179843" lon="7.653445"><ele>274.66666666666663</ele><time>2026-04-30T16:43:05.585Z</time></trkpt><trkpt lat="45.1797408" lon="7.6532202"><ele>275.3333333333333</ele><time>2026-04-30T16:43:06.633Z</time></trkpt><trkpt lat="45.1796492" lon="7.653014"><ele>276.0</ele><time>2026-04-30T16:43:07.583Z</time></trkpt><trkpt lat="45.1795516" lon="7.6527894"><ele>276.0</ele><time>2026-04-30T16:43:08.581Z</time></trkpt><trkpt lat="45.1794531" lon="7.6525659"><ele>276.0</ele><time>2026-04-30T16:43:09.615Z</time></trkpt><trkpt lat="45.1792598" lon="7.6521302"><ele>276.3333333333333</ele><time>2026-04-30T16:43:11.596Z</time></trkpt><trkpt lat="45.1791666" lon="7.651932"><ele>276.66666666666663</ele><time>2026-04-30T16:43:12.533Z</time></trkpt><trkpt lat="45.179054" lon="7.6516896"><ele>277.0</ele><time>2026-04-30T16:43:13.598Z</time></trkpt><trkpt lat="45.1789715" lon="7.6514832"><ele>277.0</ele><time>2026-04-30T16:43:14.598Z</time></trkpt><trkpt lat="45.1788914" lon="7.6512996"><ele>277.0</ele><time>2026-04-30T16:43:15.601Z</time></trkpt><trkpt lat="45.1788205" lon="7.6511282"><ele>277.0</ele><time>2026-04-30T16:43:16.635Z</time></trkpt><trkpt lat="45.1787048" lon="7.6508454"><ele>277.0</ele><time>2026-04-30T16:43:18.581Z</time></trkpt><trkpt lat="45.1786509" lon="7.6507147"><ele>277.0</ele><time>2026-04-30T16:43:19.617Z</time></trkpt><trkpt lat="45.1786015" lon="7.6506017"><ele>277.0</ele><time>2026-04-30T16:43:20.617Z</time></trkpt><trkpt lat="45.1785547" lon="7.6505015"><ele>277.0</ele><time>2026-04-30T16:43:21.597Z</time></trkpt><trkpt lat="45.1785106" lon="7.6504013"><ele>277.0</ele><time>2026-04-30T16:43:22.552Z</time></trkpt><trkpt lat="45.1784762" lon="7.6503144"><ele>277.0</ele><time>2026-04-30T16:43:23.539Z</time></trkpt><trkpt lat="45.1784261" lon="7.6501895"><ele>277.0</ele><time>2026-04-30T16:43:25.659Z</time></trkpt><trkpt lat="45.1784058" lon="7.6500899"><ele>277.0</ele><time>2026-04-30T16:43:27.61Z</time></trkpt><trkpt lat="45.1784118" lon="7.649986"><ele>277.0</ele><time>2026-04-30T16:43:31.604Z</time></trkpt><trkpt lat="45.1784372" lon="7.6498664"><ele>277.0</ele><time>2026-04-30T16:43:39.676Z</time></trkpt><trkpt lat="45.1784881" lon="7.6497848"><ele>277.0</ele><time>2026-04-30T16:43:41.585Z</time></trkpt><trkpt lat="45.1785955" lon="7.6497094"><ele>277.0</ele><time>2026-04-30T16:43:43.529Z</time></trkpt><trkpt lat="45.1786869" lon="7.6496685"><ele>277.0</ele><time>2026-04-30T16:43:44.612Z</time></trkpt><trkpt lat="45.1787813" lon="7.6496295"><ele>277.0</ele><time>2026-04-30T16:43:45.584Z</time></trkpt><trkpt lat="45.1788802" lon="7.6495969"><ele>277.0</ele><time>2026-04-30T16:43:46.57Z</time></trkpt><trkpt lat="45.1789911" lon="7.649566"><ele>277.0</ele><time>2026-04-30T16:43:47.547Z</time></trkpt><trkpt lat="45.1791256" lon="7.6495506"><ele>277.0</ele><time>2026-04-30T16:43:48.656Z</time></trkpt><trkpt lat="45.179231" lon="7.6495632"><ele>277.0</ele><time>2026-04-30T16:43:49.59Z</time></trkpt><trkpt lat="45.1793569" lon="7.6496005"><ele>277.0</ele><time>2026-04-30T16:43:50.808Z</time></trkpt><trkpt lat="45.1795142" lon="7.6496892"><ele>277.0</ele><time>2026-04-30T16:43:52.588Z</time></trkpt><trkpt lat="45.1795982" lon="7.6497593"><ele>277.0</ele><time>2026-04-30T16:43:53.596Z</time></trkpt><trkpt lat="45.179687" lon="7.6498369"><ele>277.0</ele><time>2026-04-30T16:43:54.598Z</time></trkpt><trkpt lat="45.1797747" lon="7.6499139"><ele>277.0</ele><time>2026-04-30T16:43:55.546Z</time></trkpt><trkpt lat="45.1798607" lon="7.649992"><ele>277.0</ele><time>2026-04-30T16:43:56.56Z</time></trkpt><trkpt lat="45.1799497" lon="7.65007"><ele>277.0</ele><time>2026-04-30T16:43:57.595Z</time></trkpt><trkpt lat="45.180037" lon="7.6501492"><ele>277.0</ele><time>2026-04-30T16:43:58.584Z</time></trkpt><trkpt lat="45.1801188" lon="7.6502212"><ele>277.2</ele><time>2026-04-30T16:43:59.548Z</time></trkpt><trkpt lat="45.1802063" lon="7.6502699"><ele>277.4</ele><time>2026-04-30T16:44:00.518Z</time></trkpt><trkpt lat="45.1803134" lon="7.6502824"><ele>277.6</ele><time>2026-04-30T16:44:01.584Z</time></trkpt><trkpt lat="45.1804225" lon="7.6502659"><ele>277.8</ele><time>2026-04-30T16:44:02.584Z</time></trkpt><trkpt lat="45.1805127" lon="7.650208"><ele>278.0</ele><time>2026-04-30T16:44:03.538Z</time></trkpt><trkpt lat="45.1806014" lon="7.6501018"><ele>278.0</ele><time>2026-04-30T16:44:04.656Z</time></trkpt><trkpt lat="45.1806538" lon="7.6499913"><ele>278.0</ele><time>2026-04-30T16:44:05.584Z</time></trkpt><trkpt lat="45.1806869" lon="7.6498496"><ele>278.0</ele><time>2026-04-30T16:44:06.583Z</time></trkpt><trkpt lat="45.1806963" lon="7.6496888"><ele>278.0</ele><time>2026-04-30T16:44:07.602Z</time></trkpt><trkpt lat="45.1806975" lon="7.6495245"><ele>278.0</ele><time>2026-04-30T16:44:08.584Z</time></trkpt><trkpt lat="45.1807035" lon="7.6493498"><ele>277.75</ele><time>2026-04-30T16:44:09.577Z</time></trkpt><trkpt lat="45.1807279" lon="7.6491627"><ele>277.5</ele><time>2026-04-30T16:44:10.607Z</time></trkpt><trkpt lat="45.1807649" lon="7.6489954"><ele>277.25</ele><time>2026-04-30T16:44:11.569Z</time></trkpt><trkpt lat="45.1808217" lon="7.6488097"><ele>277.0</ele><time>2026-04-30T16:44:12.637Z</time></trkpt><trkpt lat="45.1808837" lon="7.6486437"><ele>277.3333333333333</ele><time>2026-04-30T16:44:13.565Z</time></trkpt><trkpt lat="45.1809687" lon="7.6484506"><ele>277.6666666666667</ele><time>2026-04-30T16:44:14.582Z</time></trkpt><trkpt lat="45.1810534" lon="7.6482586"><ele>278.0</ele><time>2026-04-30T16:44:15.577Z</time></trkpt><trkpt lat="45.1811408" lon="7.6480718"><ele>278.0</ele><time>2026-04-30T16:44:16.571Z</time></trkpt><trkpt lat="45.1812266" lon="7.6478865"><ele>278.0</ele><time>2026-04-30T16:44:17.575Z</time></trkpt><trkpt lat="45.1813189" lon="7.6476922"><ele>278.0</ele><time>2026-04-30T16:44:18.595Z</time></trkpt><trkpt lat="45.1814062" lon="7.6474967"><ele>278.0</ele><time>2026-04-30T16:44:19.622Z</time></trkpt><trkpt lat="45.1814944" lon="7.6473178"><ele>278.0</ele><time>2026-04-30T16:44:20.611Z</time></trkpt><trkpt lat="45.1815893" lon="7.647132"><ele>278.0</ele><time>2026-04-30T16:44:21.623Z</time></trkpt><trkpt lat="45.1816901" lon="7.646944"><ele>279.0</ele><time>2026-04-30T16:44:22.624Z</time></trkpt><trkpt lat="45.1817982" lon="7.6467426"><ele>280.0</ele><time>2026-04-30T16:44:23.645Z</time></trkpt><trkpt lat="45.1819158" lon="7.6465334"><ele>281.0</ele><time>2026-04-30T16:44:24.717Z</time></trkpt><trkpt lat="45.1821606" lon="7.6462079"><ele>281.33333333333337</ele><time>2026-04-30T16:44:26.598Z</time></trkpt><trkpt lat="45.1822986" lon="7.6460629"><ele>281.6666666666667</ele><time>2026-04-30T16:44:27.556Z</time></trkpt><trkpt lat="45.1824504" lon="7.6459287"><ele>282.0</ele><time>2026-04-30T16:44:28.592Z</time></trkpt><trkpt lat="45.1826019" lon="7.6458114"><ele>282.0</ele><time>2026-04-30T16:44:29.626Z</time></trkpt><trkpt lat="45.1829199" lon="7.6456141"><ele>282.0</ele><time>2026-04-30T16:44:31.684Z</time></trkpt><trkpt lat="45.1832456" lon="7.6454971"><ele>282.0</ele><time>2026-04-30T16:44:33.597Z</time></trkpt><trkpt lat="45.1834299" lon="7.6454591"><ele>282.0</ele><time>2026-04-30T16:44:34.605Z</time></trkpt><trkpt lat="45.18361" lon="7.6454288"><ele>282.0</ele><time>2026-04-30T16:44:35.574Z</time></trkpt><trkpt lat="45.1838145" lon="7.6453965"><ele>282.0</ele><time>2026-04-30T16:44:36.657Z</time></trkpt><trkpt lat="45.1839899" lon="7.6453679"><ele>282.0</ele><time>2026-04-30T16:44:37.564Z</time></trkpt><trkpt lat="45.1841797" lon="7.6453324"><ele>282.0</ele><time>2026-04-30T16:44:38.541Z</time></trkpt><trkpt lat="45.1843887" lon="7.6452929"><ele>282.0</ele><time>2026-04-30T16:44:39.601Z</time></trkpt><trkpt lat="45.184574" lon="7.6452576"><ele>282.0</ele><time>2026-04-30T16:44:40.568Z</time></trkpt><trkpt lat="45.1847642" lon="7.6452153"><ele>282.0</ele><time>2026-04-30T16:44:41.577Z</time></trkpt><trkpt lat="45.1849607" lon="7.645166"><ele>283.3333333333333</ele><time>2026-04-30T16:44:42.648Z</time></trkpt><trkpt lat="45.1851341" lon="7.6451157"><ele>284.66666666666663</ele><time>2026-04-30T16:44:43.603Z</time></trkpt><trkpt lat="45.185315" lon="7.6450563"><ele>286.0</ele><time>2026-04-30T16:44:44.616Z</time></trkpt><trkpt lat="45.1854782" lon="7.64499"><ele>286.0</ele><time>2026-04-30T16:44:45.618Z</time></trkpt><trkpt lat="45.1856318" lon="7.6449084"><ele>286.0</ele><time>2026-04-30T16:44:46.662Z</time></trkpt><trkpt lat="45.1857699" lon="7.6448179"><ele>286.0</ele><time>2026-04-30T16:44:47.646Z</time></trkpt><trkpt lat="45.1858939" lon="7.6447264"><ele>285.5</ele><time>2026-04-30T16:44:48.563Z</time></trkpt><trkpt lat="45.1860287" lon="7.6446212"><ele>285.0</ele><time>2026-04-30T16:44:49.624Z</time></trkpt><trkpt lat="45.1861435" lon="7.6445238"><ele>284.5</ele><time>2026-04-30T16:44:50.645Z</time></trkpt><trkpt lat="45.1862451" lon="7.6444335"><ele>284.0</ele><time>2026-04-30T16:44:51.622Z</time></trkpt><trkpt lat="45.1863498" lon="7.6443305"><ele>284.0</ele><time>2026-04-30T16:44:52.761Z</time></trkpt><trkpt lat="45.1864159" lon="7.6442715"><ele>284.0</ele><time>2026-04-30T16:44:53.666Z</time></trkpt><trkpt lat="45.1864843" lon="7.6441962"><ele>284.0</ele><time>2026-04-30T16:44:54.639Z</time></trkpt><trkpt lat="45.1865477" lon="7.6441276"><ele>284.0</ele><time>2026-04-30T16:44:55.606Z</time></trkpt><trkpt lat="45.1866028" lon="7.6440694"><ele>284.0</ele><time>2026-04-30T16:44:56.576Z</time></trkpt><trkpt lat="45.186662" lon="7.6440053"><ele>284.0</ele><time>2026-04-30T16:44:59.59Z</time></trkpt><trkpt lat="45.186703" lon="7.6439313"><ele>284.1666666666667</ele><time>2026-04-30T16:45:01.541Z</time></trkpt><trkpt lat="45.18675" lon="7.6438676"><ele>284.33333333333337</ele><time>2026-04-30T16:45:04.684Z</time></trkpt><trkpt lat="45.1868134" lon="7.6437901"><ele>284.5</ele><time>2026-04-30T16:45:07.571Z</time></trkpt><trkpt lat="45.1868708" lon="7.6437215"><ele>284.6666666666667</ele><time>2026-04-30T16:45:10.635Z</time></trkpt><trkpt lat="45.186928" lon="7.6436277"><ele>284.8333333333333</ele><time>2026-04-30T16:45:12.647Z</time></trkpt><trkpt lat="45.1870195" lon="7.6434825"><ele>285.0</ele><time>2026-04-30T16:45:14.716Z</time></trkpt><trkpt lat="45.1871185" lon="7.6432856"><ele>285.1666666666667</ele><time>2026-04-30T16:45:16.606Z</time></trkpt><trkpt lat="45.1871556" lon="7.6431949"><ele>285.3333333333333</ele><time>2026-04-30T16:45:17.566Z</time></trkpt><trkpt lat="45.1871892" lon="7.6431006"><ele>285.5</ele><time>2026-04-30T16:45:18.618Z</time></trkpt><trkpt lat="45.187221" lon="7.6430235"><ele>285.66666666666663</ele><time>2026-04-30T16:45:19.631Z</time></trkpt><trkpt lat="45.1872898" lon="7.64287"><ele>285.8333333333333</ele><time>2026-04-30T16:45:21.573Z</time></trkpt><trkpt lat="45.1873369" lon="7.6427689"><ele>286.0</ele><time>2026-04-30T16:45:22.572Z</time></trkpt><trkpt lat="45.187398" lon="7.6426375"><ele>286.25</ele><time>2026-04-30T16:45:23.627Z</time></trkpt><trkpt lat="45.1874695" lon="7.6425008"><ele>286.5</ele><time>2026-04-30T16:45:24.566Z</time></trkpt><trkpt lat="45.1875554" lon="7.6423388"><ele>286.75</ele><time>2026-04-30T16:45:25.617Z</time></trkpt><trkpt lat="45.1876401" lon="7.6421702"><ele>287.0</ele><time>2026-04-30T16:45:26.627Z</time></trkpt><trkpt lat="45.1877162" lon="7.6420203"><ele>287.0</ele><time>2026-04-30T16:45:27.588Z</time></trkpt><trkpt lat="45.1877854" lon="7.6418794"><ele>287.0</ele><time>2026-04-30T16:45:28.583Z</time></trkpt><trkpt lat="45.1878471" lon="7.6417522"><ele>287.0</ele><time>2026-04-30T16:45:29.551Z</time></trkpt><trkpt lat="45.1879145" lon="7.6416031"><ele>287.0</ele><time>2026-04-30T16:45:30.677Z</time></trkpt><trkpt lat="45.187977" lon="7.6414629"><ele>287.0</ele><time>2026-04-30T16:45:31.628Z</time></trkpt><trkpt lat="45.1880502" lon="7.6413129"><ele>287.0</ele><time>2026-04-30T16:45:32.662Z</time></trkpt><trkpt lat="45.1881112" lon="7.6411794"><ele>287.0</ele><time>2026-04-30T16:45:33.625Z</time></trkpt><trkpt lat="45.188172" lon="7.6410302"><ele>287.0</ele><time>2026-04-30T16:45:34.683Z</time></trkpt><trkpt lat="45.1882327" lon="7.6408783"><ele>287.25</ele><time>2026-04-30T16:45:35.622Z</time></trkpt><trkpt lat="45.1883032" lon="7.6407178"><ele>287.5</ele><time>2026-04-30T16:45:36.602Z</time></trkpt><trkpt lat="45.1883728" lon="7.6405482"><ele>287.75</ele><time>2026-04-30T16:45:37.585Z</time></trkpt><trkpt lat="45.188441" lon="7.6403726"><ele>288.0</ele><time>2026-04-30T16:45:38.607Z</time></trkpt><trkpt lat="45.1885053" lon="7.6402042"><ele>288.0</ele><time>2026-04-30T16:45:39.576Z</time></trkpt><trkpt lat="45.1885731" lon="7.6400226"><ele>288.0</ele><time>2026-04-30T16:45:40.63Z</time></trkpt><trkpt lat="45.1886458" lon="7.6398261"><ele>288.0</ele><time>2026-04-30T16:45:41.781Z</time></trkpt><trkpt lat="45.1887725" lon="7.6394836"><ele>287.6666666666667</ele><time>2026-04-30T16:45:43.61Z</time></trkpt><trkpt lat="45.1888442" lon="7.6392735"><ele>287.33333333333337</ele><time>2026-04-30T16:45:44.586Z</time></trkpt><trkpt lat="45.1889219" lon="7.6390407"><ele>287.0</ele><time>2026-04-30T16:45:45.591Z</time></trkpt><trkpt lat="45.189004" lon="7.6388079"><ele>288.0</ele><time>2026-04-30T16:45:46.593Z</time></trkpt><trkpt lat="45.1890919" lon="7.6385708"><ele>289.0</ele><time>2026-04-30T16:45:47.633Z</time></trkpt><trkpt lat="45.1891738" lon="7.6383491"><ele>290.0</ele><time>2026-04-30T16:45:48.595Z</time></trkpt><trkpt lat="45.1892572" lon="7.638117"><ele>290.0</ele><time>2026-04-30T16:45:49.632Z</time></trkpt><trkpt lat="45.1893292" lon="7.6379136"><ele>290.0</ele><time>2026-04-30T16:45:50.605Z</time></trkpt><trkpt lat="45.189397" lon="7.6377212"><ele>290.0</ele><time>2026-04-30T16:45:51.588Z</time></trkpt><trkpt lat="45.189464" lon="7.637534"><ele>290.25</ele><time>2026-04-30T16:45:52.623Z</time></trkpt><trkpt lat="45.1895242" lon="7.6373639"><ele>290.5</ele><time>2026-04-30T16:45:53.574Z</time></trkpt><trkpt lat="45.1895877" lon="7.637179"><ele>290.75</ele><time>2026-04-30T16:45:54.571Z</time></trkpt><trkpt lat="45.1896594" lon="7.6369711"><ele>291.0</ele><time>2026-04-30T16:45:55.582Z</time></trkpt><trkpt lat="45.1897431" lon="7.6367311"><ele>291.3333333333333</ele><time>2026-04-30T16:45:56.598Z</time></trkpt><trkpt lat="45.1898384" lon="7.6364654"><ele>291.66666666666663</ele><time>2026-04-30T16:45:57.655Z</time></trkpt><trkpt lat="45.1899268" lon="7.6362203"><ele>292.0</ele><time>2026-04-30T16:45:58.602Z</time></trkpt><trkpt lat="45.1900222" lon="7.6359656"><ele>292.0</ele><time>2026-04-30T16:45:59.565Z</time></trkpt><trkpt lat="45.1901299" lon="7.6356869"><ele>292.0</ele><time>2026-04-30T16:46:00.602Z</time></trkpt><trkpt lat="45.190224" lon="7.6354456"><ele>292.0</ele><time>2026-04-30T16:46:01.578Z</time></trkpt><trkpt lat="45.1903203" lon="7.6352057"><ele>292.0</ele><time>2026-04-30T16:46:02.625Z</time></trkpt><trkpt lat="45.1904102" lon="7.6349813"><ele>292.0</ele><time>2026-04-30T16:46:03.652Z</time></trkpt><trkpt lat="45.1904902" lon="7.6347795"><ele>292.0</ele><time>2026-04-30T16:46:04.581Z</time></trkpt><trkpt lat="45.1905747" lon="7.6345653"><ele>292.3333333333333</ele><time>2026-04-30T16:46:05.575Z</time></trkpt><trkpt lat="45.1906549" lon="7.6343624"><ele>292.6666666666667</ele><time>2026-04-30T16:46:06.574Z</time></trkpt><trkpt lat="45.1907322" lon="7.6341685"><ele>293.0</ele><time>2026-04-30T16:46:07.538Z</time></trkpt><trkpt lat="45.1908185" lon="7.6339588"><ele>293.0</ele><time>2026-04-30T16:46:08.626Z</time></trkpt><trkpt lat="45.1908991" lon="7.6337676"><ele>293.0</ele><time>2026-04-30T16:46:09.617Z</time></trkpt><trkpt lat="45.1909855" lon="7.6335683"><ele>293.0</ele><time>2026-04-30T16:46:10.614Z</time></trkpt><trkpt lat="45.1910741" lon="7.6333847"><ele>294.0</ele><time>2026-04-30T16:46:11.577Z</time></trkpt><trkpt lat="45.1911648" lon="7.6332021"><ele>295.0</ele><time>2026-04-30T16:46:12.541Z</time></trkpt><trkpt lat="45.191268" lon="7.6329814"><ele>296.0</ele><time>2026-04-30T16:46:13.597Z</time></trkpt><trkpt lat="45.1913779" lon="7.6327398"><ele>296.0</ele><time>2026-04-30T16:46:14.616Z</time></trkpt><trkpt lat="45.1915003" lon="7.6324908"><ele>296.0</ele><time>2026-04-30T16:46:15.607Z</time></trkpt><trkpt lat="45.1916296" lon="7.6322338"><ele>296.0</ele><time>2026-04-30T16:46:16.615Z</time></trkpt><trkpt lat="45.1918031" lon="7.631895"><ele>296.5</ele><time>2026-04-30T16:46:17.913Z</time></trkpt><trkpt lat="45.1920453" lon="7.6314297"><ele>297.0</ele><time>2026-04-30T16:46:19.631Z</time></trkpt><trkpt lat="45.1921734" lon="7.6311825"><ele>297.0</ele><time>2026-04-30T16:46:20.565Z</time></trkpt><trkpt lat="45.1923098" lon="7.6309208"><ele>297.0</ele><time>2026-04-30T16:46:21.608Z</time></trkpt><trkpt lat="45.192433" lon="7.6306836"><ele>297.0</ele><time>2026-04-30T16:46:22.631Z</time></trkpt><trkpt lat="45.1925426" lon="7.6304723"><ele>297.0</ele><time>2026-04-30T16:46:23.588Z</time></trkpt><trkpt lat="45.1926605" lon="7.6302441"><ele>297.0</ele><time>2026-04-30T16:46:24.697Z</time></trkpt><trkpt lat="45.1927495" lon="7.6300721"><ele>297.0</ele><time>2026-04-30T16:46:25.618Z</time></trkpt><trkpt lat="45.1928405" lon="7.629888"><ele>297.0</ele><time>2026-04-30T16:46:26.578Z</time></trkpt><trkpt lat="45.1929432" lon="7.629674"><ele>297.0</ele><time>2026-04-30T16:46:27.587Z</time></trkpt><trkpt lat="45.1930597" lon="7.6294499"><ele>297.0</ele><time>2026-04-30T16:46:28.602Z</time></trkpt><trkpt lat="45.1931906" lon="7.6292194"><ele>297.6666666666667</ele><time>2026-04-30T16:46:29.658Z</time></trkpt><trkpt lat="45.1933069" lon="7.6290045"><ele>298.33333333333337</ele><time>2026-04-30T16:46:30.598Z</time></trkpt><trkpt lat="45.1934251" lon="7.6287853"><ele>299.0</ele><time>2026-04-30T16:46:31.61Z</time></trkpt><trkpt lat="45.1935337" lon="7.628584"><ele>299.0</ele><time>2026-04-30T16:46:32.634Z</time></trkpt><trkpt lat="45.1936272" lon="7.6284039"><ele>299.0</ele><time>2026-04-30T16:46:33.627Z</time></trkpt><trkpt lat="45.1937078" lon="7.6282503"><ele>299.0</ele><time>2026-04-30T16:46:34.625Z</time></trkpt><trkpt lat="45.1937673" lon="7.6281403"><ele>299.0</ele><time>2026-04-30T16:46:35.63Z</time></trkpt><trkpt lat="45.1938313" lon="7.6280226"><ele>299.0</ele><time>2026-04-30T16:46:37.543Z</time></trkpt><trkpt lat="45.1938813" lon="7.627947"><ele>299.0</ele><time>2026-04-30T16:46:39.595Z</time></trkpt><trkpt lat="45.1939551" lon="7.6278834"><ele>299.0</ele><time>2026-04-30T16:46:42.581Z</time></trkpt><trkpt lat="45.1940695" lon="7.6278165"><ele>299.0</ele><time>2026-04-30T16:46:44.583Z</time></trkpt><trkpt lat="45.194121" lon="7.6277575"><ele>299.0</ele><time>2026-04-30T16:46:45.557Z</time></trkpt><trkpt lat="45.1941749" lon="7.6277092"><ele>299.0</ele><time>2026-04-30T16:46:46.587Z</time></trkpt><trkpt lat="45.1941907" lon="7.6276165"><ele>299.2</ele><time>2026-04-30T16:46:47.579Z</time></trkpt><trkpt lat="45.1942155" lon="7.6274671"><ele>299.4</ele><time>2026-04-30T16:46:48.617Z</time></trkpt><trkpt lat="45.1942631" lon="7.627345"><ele>299.6</ele><time>2026-04-30T16:46:49.589Z</time></trkpt><trkpt lat="45.1943269" lon="7.6272147"><ele>299.8</ele><time>2026-04-30T16:46:50.614Z</time></trkpt><trkpt lat="45.1943921" lon="7.6270622"><ele>300.0</ele><time>2026-04-30T16:46:51.626Z</time></trkpt><trkpt lat="45.1944616" lon="7.6269077"><ele>300.0</ele><time>2026-04-30T16:46:52.612Z</time></trkpt><trkpt lat="45.1945404" lon="7.6267497"><ele>300.0</ele><time>2026-04-30T16:46:53.614Z</time></trkpt><trkpt lat="45.1946217" lon="7.6265942"><ele>300.0</ele><time>2026-04-30T16:46:54.605Z</time></trkpt><trkpt lat="45.1946998" lon="7.6264479"><ele>300.0</ele><time>2026-04-30T16:46:55.557Z</time></trkpt><trkpt lat="45.1947901" lon="7.6262776"><ele>300.3333333333333</ele><time>2026-04-30T16:46:56.661Z</time></trkpt><trkpt lat="45.1948726" lon="7.6261306"><ele>300.66666666666663</ele><time>2026-04-30T16:46:57.596Z</time></trkpt><trkpt lat="45.1949715" lon="7.6259569"><ele>301.0</ele><time>2026-04-30T16:46:58.583Z</time></trkpt><trkpt lat="45.1950831" lon="7.6257792"><ele>301.0</ele><time>2026-04-30T16:46:59.576Z</time></trkpt><trkpt lat="45.1951963" lon="7.6256234"><ele>301.0</ele><time>2026-04-30T16:47:00.579Z</time></trkpt><trkpt lat="45.1952966" lon="7.625493"><ele>301.0</ele><time>2026-04-30T16:47:01.543Z</time></trkpt><trkpt lat="45.1954012" lon="7.6253641"><ele>301.0</ele><time>2026-04-30T16:47:02.632Z</time></trkpt><trkpt lat="45.1954857" lon="7.6252696"><ele>301.0</ele><time>2026-04-30T16:47:03.582Z</time></trkpt><trkpt lat="45.1955679" lon="7.6251869"><ele>301.0</ele><time>2026-04-30T16:47:04.58Z</time></trkpt><trkpt lat="45.1956361" lon="7.6251227"><ele>301.0</ele><time>2026-04-30T16:47:05.538Z</time></trkpt><trkpt lat="45.1957036" lon="7.625065"><ele>301.0</ele><time>2026-04-30T16:47:06.594Z</time></trkpt><trkpt lat="45.195774" lon="7.6250243"><ele>301.0</ele><time>2026-04-30T16:47:07.559Z</time></trkpt><trkpt lat="45.1958555" lon="7.625015"><ele>301.0</ele><time>2026-04-30T16:47:08.525Z</time></trkpt><trkpt lat="45.1959451" lon="7.6249924"><ele>301.0</ele><time>2026-04-30T16:47:09.565Z</time></trkpt><trkpt lat="45.1960173" lon="7.624932"><ele>301.0</ele><time>2026-04-30T16:47:10.59Z</time></trkpt><trkpt lat="45.1960704" lon="7.624836"><ele>301.0</ele><time>2026-04-30T16:47:11.593Z</time></trkpt><trkpt lat="45.1961214" lon="7.6247187"><ele>301.0</ele><time>2026-04-30T16:47:12.601Z</time></trkpt><trkpt lat="45.1961768" lon="7.6246059"><ele>301.0</ele><time>2026-04-30T16:47:13.607Z</time></trkpt><trkpt lat="45.1962555" lon="7.6245017"><ele>301.5</ele><time>2026-04-30T16:47:14.576Z</time></trkpt><trkpt lat="45.196361" lon="7.6244046"><ele>302.0</ele><time>2026-04-30T16:47:15.542Z</time></trkpt><trkpt lat="45.1964889" lon="7.6242968"><ele>302.5</ele><time>2026-04-30T16:47:16.57Z</time></trkpt><trkpt lat="45.1966186" lon="7.6241927"><ele>303.0</ele><time>2026-04-30T16:47:17.556Z</time></trkpt><trkpt lat="45.1967616" lon="7.6240788"><ele>303.0</ele><time>2026-04-30T16:47:18.619Z</time></trkpt><trkpt lat="45.1968851" lon="7.6239797"><ele>303.0</ele><time>2026-04-30T16:47:19.53Z</time></trkpt><trkpt lat="45.1970474" lon="7.6238454"><ele>303.0</ele><time>2026-04-30T16:47:20.697Z</time></trkpt><trkpt lat="45.1973604" lon="7.6235845"><ele>304.3333333333333</ele><time>2026-04-30T16:47:22.576Z</time></trkpt><trkpt lat="45.1975493" lon="7.623441"><ele>305.66666666666663</ele><time>2026-04-30T16:47:23.597Z</time></trkpt><trkpt lat="45.1977443" lon="7.6232961"><ele>307.0</ele><time>2026-04-30T16:47:24.614Z</time></trkpt><trkpt lat="45.1979292" lon="7.6231507"><ele>307.0</ele><time>2026-04-30T16:47:25.581Z</time></trkpt><trkpt lat="45.1981164" lon="7.6230041"><ele>307.0</ele><time>2026-04-30T16:47:26.647Z</time></trkpt><trkpt lat="45.1982772" lon="7.6228767"><ele>307.0</ele><time>2026-04-30T16:47:27.623Z</time></trkpt><trkpt lat="45.1984254" lon="7.6227643"><ele>307.0</ele><time>2026-04-30T16:47:28.592Z</time></trkpt><trkpt lat="45.1985776" lon="7.6226585"><ele>307.0</ele><time>2026-04-30T16:47:29.617Z</time></trkpt><trkpt lat="45.1987251" lon="7.622572"><ele>307.0</ele><time>2026-04-30T16:47:30.584Z</time></trkpt><trkpt lat="45.1988904" lon="7.6224947"><ele>307.3333333333333</ele><time>2026-04-30T16:47:31.592Z</time></trkpt><trkpt lat="45.199063" lon="7.6224337"><ele>307.6666666666667</ele><time>2026-04-30T16:47:32.572Z</time></trkpt><trkpt lat="45.1992518" lon="7.6223884"><ele>308.0</ele><time>2026-04-30T16:47:33.572Z</time></trkpt><trkpt lat="45.1994514" lon="7.6223609"><ele>308.0</ele><time>2026-04-30T16:47:34.551Z</time></trkpt><trkpt lat="45.1996742" lon="7.6223435"><ele>308.0</ele><time>2026-04-30T16:47:35.62Z</time></trkpt><trkpt lat="45.1998854" lon="7.622329"><ele>308.0</ele><time>2026-04-30T16:47:36.652Z</time></trkpt><trkpt lat="45.2000674" lon="7.6223161"><ele>308.0</ele><time>2026-04-30T16:47:37.568Z</time></trkpt><trkpt lat="45.2002787" lon="7.6222919"><ele>308.0</ele><time>2026-04-30T16:47:38.652Z</time></trkpt><trkpt lat="45.200455" lon="7.6222494"><ele>308.0</ele><time>2026-04-30T16:47:39.617Z</time></trkpt><trkpt lat="45.2006206" lon="7.6221911"><ele>308.0</ele><time>2026-04-30T16:47:40.581Z</time></trkpt><trkpt lat="45.2007828" lon="7.6221184"><ele>308.0</ele><time>2026-04-30T16:47:41.528Z</time></trkpt><trkpt lat="45.2009618" lon="7.6220277"><ele>308.0</ele><time>2026-04-30T16:47:42.596Z</time></trkpt><trkpt lat="45.2011186" lon="7.6219412"><ele>308.33333333333337</ele><time>2026-04-30T16:47:43.638Z</time></trkpt><trkpt lat="45.2012526" lon="7.6218663"><ele>308.6666666666667</ele><time>2026-04-30T16:47:44.576Z</time></trkpt><trkpt lat="45.2014037" lon="7.6217943"><ele>309.0</ele><time>2026-04-30T16:47:45.624Z</time></trkpt><trkpt lat="45.2015621" lon="7.6217175"><ele>309.3333333333333</ele><time>2026-04-30T16:47:46.632Z</time></trkpt><trkpt lat="45.2017168" lon="7.6216355"><ele>309.66666666666663</ele><time>2026-04-30T16:47:47.585Z</time></trkpt><trkpt lat="45.2018882" lon="7.6215419"><ele>310.0</ele><time>2026-04-30T16:47:48.628Z</time></trkpt><trkpt lat="45.2020443" lon="7.6214545"><ele>310.0</ele><time>2026-04-30T16:47:49.582Z</time></trkpt><trkpt lat="45.2022136" lon="7.6213535"><ele>310.0</ele><time>2026-04-30T16:47:50.631Z</time></trkpt><trkpt lat="45.2023712" lon="7.6212557"><ele>310.0</ele><time>2026-04-30T16:47:51.587Z</time></trkpt><trkpt lat="45.2025392" lon="7.6211477"><ele>310.66666666666663</ele><time>2026-04-30T16:47:52.578Z</time></trkpt><trkpt lat="45.2027197" lon="7.6210234"><ele>311.3333333333333</ele><time>2026-04-30T16:47:53.588Z</time></trkpt><trkpt lat="45.2029105" lon="7.6208918"><ele>312.0</ele><time>2026-04-30T16:47:54.58Z</time></trkpt><trkpt lat="45.2031076" lon="7.6207556"><ele>313.0</ele><time>2026-04-30T16:47:55.559Z</time></trkpt><trkpt lat="45.2033269" lon="7.6206258"><ele>314.0</ele><time>2026-04-30T16:47:56.68Z</time></trkpt><trkpt lat="45.2034928" lon="7.620514"><ele>315.0</ele><time>2026-04-30T16:47:57.561Z</time></trkpt><trkpt lat="45.203667" lon="7.6203987"><ele>314.6666666666667</ele><time>2026-04-30T16:47:58.585Z</time></trkpt><trkpt lat="45.2038385" lon="7.6202748"><ele>314.33333333333337</ele><time>2026-04-30T16:47:59.652Z</time></trkpt><trkpt lat="45.2039922" lon="7.6201661"><ele>314.0</ele><time>2026-04-30T16:48:00.679Z</time></trkpt><trkpt lat="45.2041231" lon="7.6200729"><ele>314.4</ele><time>2026-04-30T16:48:01.613Z</time></trkpt><trkpt lat="45.2042404" lon="7.6199887"><ele>314.79999999999995</ele><time>2026-04-30T16:48:02.554Z</time></trkpt><trkpt lat="45.2043471" lon="7.6199128"><ele>315.20000000000005</ele><time>2026-04-30T16:48:03.545Z</time></trkpt><trkpt lat="45.2044424" lon="7.6198417"><ele>315.6</ele><time>2026-04-30T16:48:04.575Z</time></trkpt><trkpt lat="45.2045135" lon="7.6197903"><ele>316.0</ele><time>2026-04-30T16:48:05.568Z</time></trkpt><trkpt lat="45.2045785" lon="7.6197433"><ele>316.0</ele><time>2026-04-30T16:48:06.678Z</time></trkpt><trkpt lat="45.204679" lon="7.6196736"><ele>316.0</ele><time>2026-04-30T16:48:08.572Z</time></trkpt><trkpt lat="45.2048018" lon="7.6195774"><ele>316.0</ele><time>2026-04-30T16:48:10.587Z</time></trkpt><trkpt lat="45.2048993" lon="7.6194994"><ele>316.0</ele><time>2026-04-30T16:48:11.62Z</time></trkpt><trkpt lat="45.2050028" lon="7.6194328"><ele>316.16666666666663</ele><time>2026-04-30T16:48:12.588Z</time></trkpt><trkpt lat="45.205102" lon="7.6193765"><ele>316.3333333333333</ele><time>2026-04-30T16:48:13.616Z</time></trkpt><trkpt lat="45.2051831" lon="7.6193243"><ele>316.5</ele><time>2026-04-30T16:48:14.558Z</time></trkpt><trkpt lat="45.2052613" lon="7.6192825"><ele>316.6666666666667</ele><time>2026-04-30T16:48:15.591Z</time></trkpt><trkpt lat="45.2053204" lon="7.6192492"><ele>316.83333333333337</ele><time>2026-04-30T16:48:16.547Z</time></trkpt><trkpt lat="45.2054054" lon="7.6192239"><ele>317.0</ele><time>2026-04-30T16:48:18.627Z</time></trkpt><trkpt lat="45.2055157" lon="7.6192372"><ele>317.0</ele><time>2026-04-30T16:48:20.623Z</time></trkpt><trkpt lat="45.2055866" lon="7.6192321"><ele>317.0</ele><time>2026-04-30T16:48:21.539Z</time></trkpt><trkpt lat="45.2056648" lon="7.6191899"><ele>317.0</ele><time>2026-04-30T16:48:22.56Z</time></trkpt><trkpt lat="45.2057292" lon="7.6190984"><ele>317.0</ele><time>2026-04-30T16:48:23.572Z</time></trkpt><trkpt lat="45.2058193" lon="7.618955"><ele>317.0</ele><time>2026-04-30T16:48:24.701Z</time></trkpt><trkpt lat="45.2059258" lon="7.6188344"><ele>317.33333333333337</ele><time>2026-04-30T16:48:25.621Z</time></trkpt><trkpt lat="45.2060704" lon="7.6187292"><ele>317.6666666666667</ele><time>2026-04-30T16:48:26.575Z</time></trkpt><trkpt lat="45.2062532" lon="7.6186059"><ele>318.0</ele><time>2026-04-30T16:48:27.623Z</time></trkpt><trkpt lat="45.2064527" lon="7.6184721"><ele>316.5</ele><time>2026-04-30T16:48:28.638Z</time></trkpt><trkpt lat="45.2066438" lon="7.6183449"><ele>315.0</ele><time>2026-04-30T16:48:29.569Z</time></trkpt><trkpt lat="45.2068709" lon="7.6181924"><ele>315.0</ele><time>2026-04-30T16:48:30.617Z</time></trkpt><trkpt lat="45.2070659" lon="7.6180627"><ele>315.0</ele><time>2026-04-30T16:48:31.525Z</time></trkpt><trkpt lat="45.2073034" lon="7.6179064"><ele>315.5</ele><time>2026-04-30T16:48:32.633Z</time></trkpt><trkpt lat="45.2075065" lon="7.617771"><ele>316.0</ele><time>2026-04-30T16:48:33.575Z</time></trkpt><trkpt lat="45.2077346" lon="7.6176189"><ele>316.0</ele><time>2026-04-30T16:48:34.609Z</time></trkpt><trkpt lat="45.2079668" lon="7.6174655"><ele>316.0</ele><time>2026-04-30T16:48:35.635Z</time></trkpt><trkpt lat="45.2081818" lon="7.6173229"><ele>316.0</ele><time>2026-04-30T16:48:36.571Z</time></trkpt><trkpt lat="45.2084199" lon="7.6171646"><ele>316.0</ele><time>2026-04-30T16:48:37.603Z</time></trkpt><trkpt lat="45.2086591" lon="7.6170047"><ele>316.5</ele><time>2026-04-30T16:48:38.64Z</time></trkpt><trkpt lat="45.2088954" lon="7.6168478"><ele>317.0</ele><time>2026-04-30T16:48:39.675Z</time></trkpt><trkpt lat="45.2091128" lon="7.6167041"><ele>318.0</ele><time>2026-04-30T16:48:40.64Z</time></trkpt><trkpt lat="45.2093251" lon="7.6165649"><ele>319.0</ele><time>2026-04-30T16:48:41.596Z</time></trkpt><trkpt lat="45.2095467" lon="7.6164194"><ele>319.0</ele><time>2026-04-30T16:48:42.604Z</time></trkpt><trkpt lat="45.209788" lon="7.6162583"><ele>319.0</ele><time>2026-04-30T16:48:43.684Z</time></trkpt><trkpt lat="45.210014" lon="7.6161082"><ele>319.0</ele><time>2026-04-30T16:48:44.63Z</time></trkpt><trkpt lat="45.2102554" lon="7.6159496"><ele>319.0</ele><time>2026-04-30T16:48:45.608Z</time></trkpt><trkpt lat="45.2105123" lon="7.6157788"><ele>320.0</ele><time>2026-04-30T16:48:46.62Z</time></trkpt><trkpt lat="45.2107758" lon="7.6156027"><ele>321.0</ele><time>2026-04-30T16:48:47.633Z</time></trkpt><trkpt lat="45.2110267" lon="7.6154356"><ele>320.5</ele><time>2026-04-30T16:48:48.56Z</time></trkpt><trkpt lat="45.2113206" lon="7.6152411"><ele>320.0</ele><time>2026-04-30T16:48:49.61Z</time></trkpt><trkpt lat="45.2116196" lon="7.6150433"><ele>320.0</ele><time>2026-04-30T16:48:50.653Z</time></trkpt><trkpt lat="45.2119182" lon="7.6148437"><ele>320.0</ele><time>2026-04-30T16:48:51.691Z</time></trkpt><trkpt lat="45.2124627" lon="7.6144795"><ele>320.0</ele><time>2026-04-30T16:48:53.607Z</time></trkpt><trkpt lat="45.2127888" lon="7.6142612"><ele>320.0</ele><time>2026-04-30T16:48:54.784Z</time></trkpt><trkpt lat="45.2132645" lon="7.6139444"><ele>320.5</ele><time>2026-04-30T16:48:56.624Z</time></trkpt><trkpt lat="45.2134911" lon="7.6137928"><ele>321.0</ele><time>2026-04-30T16:48:57.595Z</time></trkpt><trkpt lat="45.2137006" lon="7.6136539"><ele>321.0</ele><time>2026-04-30T16:48:58.552Z</time></trkpt><trkpt lat="45.2139041" lon="7.613521"><ele>321.0</ele><time>2026-04-30T16:48:59.552Z</time></trkpt><trkpt lat="45.2140976" lon="7.6133934"><ele>321.0</ele><time>2026-04-30T16:49:00.573Z</time></trkpt><trkpt lat="45.2142805" lon="7.6132721"><ele>321.3333333333333</ele><time>2026-04-30T16:49:01.61Z</time></trkpt><trkpt lat="45.2144399" lon="7.6131663"><ele>321.66666666666663</ele><time>2026-04-30T16:49:02.598Z</time></trkpt><trkpt lat="45.2145778" lon="7.6130751"><ele>322.0</ele><time>2026-04-30T16:49:03.525Z</time></trkpt><trkpt lat="45.2147237" lon="7.6129784"><ele>322.20000000000005</ele><time>2026-04-30T16:49:04.585Z</time></trkpt><trkpt lat="45.2148457" lon="7.6128962"><ele>322.4</ele><time>2026-04-30T16:49:05.556Z</time></trkpt><trkpt lat="45.2149553" lon="7.6128265"><ele>322.6</ele><time>2026-04-30T16:49:06.545Z</time></trkpt><trkpt lat="45.2150481" lon="7.6127822"><ele>322.79999999999995</ele><time>2026-04-30T16:49:07.504Z</time></trkpt><trkpt lat="45.2151279" lon="7.6127574"><ele>323.0</ele><time>2026-04-30T16:49:08.605Z</time></trkpt><trkpt lat="45.2152447" lon="7.6127419"><ele>323.1666666666667</ele><time>2026-04-30T16:49:10.579Z</time></trkpt><trkpt lat="45.2153313" lon="7.6127472"><ele>323.33333333333337</ele><time>2026-04-30T16:49:11.617Z</time></trkpt><trkpt lat="45.2154092" lon="7.6127421"><ele>323.5</ele><time>2026-04-30T16:49:12.601Z</time></trkpt><trkpt lat="45.2154841" lon="7.6127022"><ele>323.6666666666667</ele><time>2026-04-30T16:49:13.582Z</time></trkpt><trkpt lat="45.2155569" lon="7.6126139"><ele>323.8333333333333</ele><time>2026-04-30T16:49:14.642Z</time></trkpt><trkpt lat="45.2156216" lon="7.6124986"><ele>324.0</ele><time>2026-04-30T16:49:15.567Z</time></trkpt><trkpt lat="45.2157123" lon="7.6123519"><ele>324.3333333333333</ele><time>2026-04-30T16:49:16.609Z</time></trkpt><trkpt lat="45.2158292" lon="7.6122205"><ele>324.66666666666663</ele><time>2026-04-30T16:49:17.633Z</time></trkpt><trkpt lat="45.2159552" lon="7.6121278"><ele>325.0</ele><time>2026-04-30T16:49:18.549Z</time></trkpt><trkpt lat="45.216125" lon="7.6120243"><ele>325.3333333333333</ele><time>2026-04-30T16:49:19.582Z</time></trkpt><trkpt lat="45.2163167" lon="7.6118947"><ele>325.6666666666667</ele><time>2026-04-30T16:49:20.613Z</time></trkpt><trkpt lat="45.2165199" lon="7.6117553"><ele>326.0</ele><time>2026-04-30T16:49:21.628Z</time></trkpt><trkpt lat="45.216955" lon="7.6114767"><ele>326.0</ele><time>2026-04-30T16:49:23.611Z</time></trkpt><trkpt lat="45.2171729" lon="7.6113336"><ele>326.0</ele><time>2026-04-30T16:49:24.557Z</time></trkpt><trkpt lat="45.2174104" lon="7.6111779"><ele>326.5</ele><time>2026-04-30T16:49:25.572Z</time></trkpt><trkpt lat="45.2176393" lon="7.6110235"><ele>327.0</ele><time>2026-04-30T16:49:26.536Z</time></trkpt><trkpt lat="45.2178913" lon="7.6108561"><ele>327.0</ele><time>2026-04-30T16:49:27.576Z</time></trkpt><trkpt lat="45.2181441" lon="7.6106883"><ele>327.0</ele><time>2026-04-30T16:49:28.608Z</time></trkpt><trkpt lat="45.218386" lon="7.6105265"><ele>327.5</ele><time>2026-04-30T16:49:29.596Z</time></trkpt><trkpt lat="45.2186293" lon="7.6103628"><ele>328.0</ele><time>2026-04-30T16:49:30.584Z</time></trkpt><trkpt lat="45.2188921" lon="7.6101866"><ele>328.0</ele><time>2026-04-30T16:49:31.653Z</time></trkpt><trkpt lat="45.2191265" lon="7.6100321"><ele>328.0</ele><time>2026-04-30T16:49:32.619Z</time></trkpt><trkpt lat="45.2193658" lon="7.6098733"><ele>328.0</ele><time>2026-04-30T16:49:33.635Z</time></trkpt><trkpt lat="45.2196207" lon="7.6097058"><ele>328.0</ele><time>2026-04-30T16:49:34.769Z</time></trkpt><trkpt lat="45.2199948" lon="7.6094577"><ele>329.5</ele><time>2026-04-30T16:49:36.62Z</time></trkpt><trkpt lat="45.2201836" lon="7.6093319"><ele>331.0</ele><time>2026-04-30T16:49:37.66Z</time></trkpt><trkpt lat="45.2204879" lon="7.6091077"><ele>331.0</ele><time>2026-04-30T16:49:39.612Z</time></trkpt><trkpt lat="45.2206126" lon="7.6089979"><ele>331.0</ele><time>2026-04-30T16:49:40.627Z</time></trkpt><trkpt lat="45.2207097" lon="7.6089108"><ele>331.0</ele><time>2026-04-30T16:49:41.571Z</time></trkpt><trkpt lat="45.2207982" lon="7.6088397"><ele>331.0</ele><time>2026-04-30T16:49:42.56Z</time></trkpt><trkpt lat="45.2208879" lon="7.6087993"><ele>331.0</ele><time>2026-04-30T16:49:43.614Z</time></trkpt><trkpt lat="45.2209742" lon="7.6087956"><ele>331.0</ele><time>2026-04-30T16:49:44.63Z</time></trkpt><trkpt lat="45.2210504" lon="7.6088027"><ele>331.0</ele><time>2026-04-30T16:49:45.572Z</time></trkpt><trkpt lat="45.2211304" lon="7.6087933"><ele>331.0</ele><time>2026-04-30T16:49:46.577Z</time></trkpt><trkpt lat="45.221198" lon="7.6087428"><ele>331.0</ele><time>2026-04-30T16:49:47.604Z</time></trkpt><trkpt lat="45.2212543" lon="7.6086696"><ele>331.0</ele><time>2026-04-30T16:49:48.576Z</time></trkpt><trkpt lat="45.2213017" lon="7.6085486"><ele>331.0</ele><time>2026-04-30T16:49:49.566Z</time></trkpt><trkpt lat="45.2213632" lon="7.6083914"><ele>331.0</ele><time>2026-04-30T16:49:50.636Z</time></trkpt><trkpt lat="45.2214405" lon="7.6082424"><ele>331.0</ele><time>2026-04-30T16:49:51.548Z</time></trkpt><trkpt lat="45.2215542" lon="7.6080595"><ele>331.0</ele><time>2026-04-30T16:49:52.653Z</time></trkpt><trkpt lat="45.2216871" lon="7.6079189"><ele>331.0</ele><time>2026-04-30T16:49:53.585Z</time></trkpt><trkpt lat="45.2218332" lon="7.607722"><ele>331.0</ele><time>2026-04-30T16:49:54.615Z</time></trkpt><trkpt lat="45.2219828" lon="7.6074976"><ele>331.0</ele><time>2026-04-30T16:49:55.6Z</time></trkpt><trkpt lat="45.2221385" lon="7.6072571"><ele>331.0</ele><time>2026-04-30T16:49:56.624Z</time></trkpt><trkpt lat="45.2222892" lon="7.607008"><ele>331.0</ele><time>2026-04-30T16:49:57.609Z</time></trkpt><trkpt lat="45.2224396" lon="7.6067443"><ele>332.5</ele><time>2026-04-30T16:49:58.581Z</time></trkpt><trkpt lat="45.2225913" lon="7.6064732"><ele>334.0</ele><time>2026-04-30T16:49:59.571Z</time></trkpt><trkpt lat="45.2227511" lon="7.6061909"><ele>334.5</ele><time>2026-04-30T16:50:00.618Z</time></trkpt><trkpt lat="45.2228948" lon="7.6059333"><ele>335.0</ele><time>2026-04-30T16:50:01.551Z</time></trkpt><trkpt lat="45.2230537" lon="7.6056419"><ele>336.0</ele><time>2026-04-30T16:50:02.599Z</time></trkpt><trkpt lat="45.2231947" lon="7.6053723"><ele>337.0</ele><time>2026-04-30T16:50:03.58Z</time></trkpt><trkpt lat="45.2233427" lon="7.6051016"><ele>337.0</ele><time>2026-04-30T16:50:04.59Z</time></trkpt><trkpt lat="45.223493" lon="7.6048299"><ele>337.0</ele><time>2026-04-30T16:50:05.589Z</time></trkpt><trkpt lat="45.2236349" lon="7.6045736"><ele>336.66666666666663</ele><time>2026-04-30T16:50:06.593Z</time></trkpt><trkpt lat="45.22377" lon="7.6043287"><ele>336.3333333333333</ele><time>2026-04-30T16:50:07.618Z</time></trkpt><trkpt lat="45.2238914" lon="7.60411"><ele>336.0</ele><time>2026-04-30T16:50:08.599Z</time></trkpt><trkpt lat="45.2240177" lon="7.6039003"><ele>337.0</ele><time>2026-04-30T16:50:09.6Z</time></trkpt><trkpt lat="45.2241389" lon="7.6037049"><ele>338.0</ele><time>2026-04-30T16:50:10.572Z</time></trkpt><trkpt lat="45.2242573" lon="7.6035121"><ele>339.0</ele><time>2026-04-30T16:50:11.598Z</time></trkpt><trkpt lat="45.224363" lon="7.6033366"><ele>339.0</ele><time>2026-04-30T16:50:12.555Z</time></trkpt><trkpt lat="45.2244747" lon="7.6031466"><ele>339.0</ele><time>2026-04-30T16:50:13.576Z</time></trkpt><trkpt lat="45.2245813" lon="7.602961"><ele>339.0</ele><time>2026-04-30T16:50:14.599Z</time></trkpt><trkpt lat="45.2246785" lon="7.602785"><ele>338.75</ele><time>2026-04-30T16:50:15.624Z</time></trkpt><trkpt lat="45.2247665" lon="7.6026179"><ele>338.5</ele><time>2026-04-30T16:50:16.673Z</time></trkpt><trkpt lat="45.224837" lon="7.6024775"><ele>338.25</ele><time>2026-04-30T16:50:17.595Z</time></trkpt><trkpt lat="45.224904" lon="7.6023422"><ele>338.0</ele><time>2026-04-30T16:50:18.556Z</time></trkpt><trkpt lat="45.2249745" lon="7.6022001"><ele>338.4</ele><time>2026-04-30T16:50:19.687Z</time></trkpt><trkpt lat="45.2250717" lon="7.6020025"><ele>338.79999999999995</ele><time>2026-04-30T16:50:21.556Z</time></trkpt><trkpt lat="45.225117" lon="7.6019114"><ele>339.2</ele><time>2026-04-30T16:50:22.588Z</time></trkpt><trkpt lat="45.2251856" lon="7.6017799"><ele>339.6</ele><time>2026-04-30T16:50:24.658Z</time></trkpt><trkpt lat="45.225228" lon="7.6016981"><ele>340.0</ele><time>2026-04-30T16:50:26.595Z</time></trkpt><trkpt lat="45.2252786" lon="7.6016118"><ele>340.0</ele><time>2026-04-30T16:50:29.76Z</time></trkpt><trkpt lat="45.225366" lon="7.6015186"><ele>340.0</ele><time>2026-04-30T16:50:32.636Z</time></trkpt><trkpt lat="45.2254814" lon="7.6014583"><ele>340.0</ele><time>2026-04-30T16:50:34.578Z</time></trkpt><trkpt lat="45.225622" lon="7.6015262"><ele>340.0</ele><time>2026-04-30T16:50:36.541Z</time></trkpt><trkpt lat="45.2257069" lon="7.6015998"><ele>340.5</ele><time>2026-04-30T16:50:37.527Z</time></trkpt><trkpt lat="45.225814" lon="7.601674"><ele>341.0</ele><time>2026-04-30T16:50:38.517Z</time></trkpt><trkpt lat="45.2259457" lon="7.6017594"><ele>341.5</ele><time>2026-04-30T16:50:39.637Z</time></trkpt><trkpt lat="45.2260579" lon="7.601837"><ele>342.0</ele><time>2026-04-30T16:50:40.541Z</time></trkpt><trkpt lat="45.2261939" lon="7.6019358"><ele>341.75</ele><time>2026-04-30T16:50:41.63Z</time></trkpt><trkpt lat="45.2263217" lon="7.6020237"><ele>341.5</ele><time>2026-04-30T16:50:42.594Z</time></trkpt><trkpt lat="45.226445" lon="7.6021097"><ele>341.25</ele><time>2026-04-30T16:50:43.596Z</time></trkpt><trkpt lat="45.2265494" lon="7.6021844"><ele>341.0</ele><time>2026-04-30T16:50:44.552Z</time></trkpt><trkpt lat="45.2266392" lon="7.6022456"><ele>341.33333333333337</ele><time>2026-04-30T16:50:45.599Z</time></trkpt><trkpt lat="45.2267001" lon="7.6022932"><ele>341.6666666666667</ele><time>2026-04-30T16:50:46.603Z</time></trkpt><trkpt lat="45.226756" lon="7.6023463"><ele>342.0</ele><time>2026-04-30T16:50:47.6Z</time></trkpt><trkpt lat="45.2268277" lon="7.602392"><ele>342.3333333333333</ele><time>2026-04-30T16:50:48.595Z</time></trkpt><trkpt lat="45.2269228" lon="7.6024363"><ele>342.66666666666663</ele><time>2026-04-30T16:50:49.682Z</time></trkpt><trkpt lat="45.2270086" lon="7.6024824"><ele>343.0</ele><time>2026-04-30T16:50:50.616Z</time></trkpt><trkpt lat="45.2271063" lon="7.6025414"><ele>343.0</ele><time>2026-04-30T16:50:51.664Z</time></trkpt><trkpt lat="45.2272051" lon="7.6026005"><ele>343.0</ele><time>2026-04-30T16:50:52.634Z</time></trkpt><trkpt lat="45.2273212" lon="7.6026669"><ele>343.0</ele><time>2026-04-30T16:50:53.683Z</time></trkpt><trkpt lat="45.2274362" lon="7.6027366"><ele>343.0</ele><time>2026-04-30T16:50:54.712Z</time></trkpt><trkpt lat="45.2275449" lon="7.6028061"><ele>342.66666666666663</ele><time>2026-04-30T16:50:55.812Z</time></trkpt><trkpt lat="45.2276417" lon="7.6028545"><ele>342.3333333333333</ele><time>2026-04-30T16:50:56.782Z</time></trkpt><trkpt lat="45.2278398" lon="7.6029684"><ele>342.0</ele><time>2026-04-30T16:50:58.809Z</time></trkpt><trkpt lat="45.228006" lon="7.6030808"><ele>342.0</ele><time>2026-04-30T16:51:00.706Z</time></trkpt><trkpt lat="45.2280928" lon="7.6031294"><ele>342.0</ele><time>2026-04-30T16:51:01.735Z</time></trkpt><trkpt lat="45.2281693" lon="7.6031712"><ele>342.0</ele><time>2026-04-30T16:51:02.727Z</time></trkpt><trkpt lat="45.2282294" lon="7.6032067"><ele>342.0</ele><time>2026-04-30T16:51:03.698Z</time></trkpt><trkpt lat="45.228314" lon="7.6032441"><ele>342.0</ele><time>2026-04-30T16:51:05.738Z</time></trkpt><trkpt lat="45.2284066" lon="7.603127"><ele>342.20000000000005</ele><time>2026-04-30T16:51:08.613Z</time></trkpt><trkpt lat="45.2284364" lon="7.6030095"><ele>342.4</ele><time>2026-04-30T16:51:09.74Z</time></trkpt><trkpt lat="45.2284706" lon="7.6029066"><ele>342.6</ele><time>2026-04-30T16:51:10.688Z</time></trkpt><trkpt lat="45.2285061" lon="7.6027812"><ele>342.79999999999995</ele><time>2026-04-30T16:51:11.776Z</time></trkpt><trkpt lat="45.2285441" lon="7.6026544"><ele>343.0</ele><time>2026-04-30T16:51:12.733Z</time></trkpt><trkpt lat="45.2285869" lon="7.6025097"><ele>343.0</ele><time>2026-04-30T16:51:13.73Z</time></trkpt><trkpt lat="45.2286285" lon="7.602372"><ele>343.0</ele><time>2026-04-30T16:51:14.685Z</time></trkpt><trkpt lat="45.2286786" lon="7.6022186"><ele>343.0</ele><time>2026-04-30T16:51:15.648Z</time></trkpt><trkpt lat="45.2287328" lon="7.6020523"><ele>343.0</ele><time>2026-04-30T16:51:16.691Z</time></trkpt><trkpt lat="45.2287815" lon="7.6019179"><ele>343.0</ele><time>2026-04-30T16:51:17.631Z</time></trkpt><trkpt lat="45.2288249" lon="7.6017959"><ele>343.0</ele><time>2026-04-30T16:51:18.579Z</time></trkpt><trkpt lat="45.2288675" lon="7.6016839"><ele>343.0</ele><time>2026-04-30T16:51:19.653Z</time></trkpt><trkpt lat="45.2289282" lon="7.60156"><ele>343.0</ele><time>2026-04-30T16:51:21.603Z</time></trkpt><trkpt lat="45.2289696" lon="7.6014656"><ele>343.0</ele><time>2026-04-30T16:51:23.64Z</time></trkpt><trkpt lat="45.2289582" lon="7.6013427"><ele>343.0</ele><time>2026-04-30T16:51:26.544Z</time></trkpt><trkpt lat="45.2289054" lon="7.6012903"><ele>343.0</ele><time>2026-04-30T16:51:27.543Z</time></trkpt><trkpt lat="45.2288272" lon="7.6012523"><ele>343.0</ele><time>2026-04-30T16:51:28.541Z</time></trkpt><trkpt lat="45.2287648" lon="7.6012034"><ele>343.0</ele><time>2026-04-30T16:51:29.583Z</time></trkpt><trkpt lat="45.2286894" lon="7.6011096"><ele>345.0</ele><time>2026-04-30T16:51:31.635Z</time></trkpt><trkpt lat="45.2287164" lon="7.6010201"><ele>345.0</ele><time>2026-04-30T16:51:38.582Z</time></trkpt></trkseg></trk></gpx>